<?xml version="1.0" encoding="UTF-8" standalone="no" ?>
<gpx xmlns="http://www.topografix.com/GPX/1/1" xmlns:xsi="http://www.w3.org/2001/XMLSchema-instance" xsi:schemaLocation="http://www.topografix.com/GPX/1/1 http://www.topografix.com/GPX/1/1/gpx.xsd" version="1.1" creator="VisuGPX - https://www.visugpx.com">
  <metadata>
    <name>BkPk Charente</name>
  </metadata>
  <trk>
    <name><![CDATA[BkPk Charente_3]]></name>
    <extensions>
      <line xmlns="http://www.topografix.com/GPX/gpx_style/0/2">
        <color>ff8800</color>
        <width>4</width>
      </line>
    </extensions>
    <trkseg>
      <trkpt lat="45.75223" lon="-0.06366">
        <ele>164.59375</ele>
        <time>2017-12-05T14:09:08Z</time>
      </trkpt>
      <trkpt lat="45.75258" lon="-0.06413">
        <ele>165.49609375</ele>
        <time>2017-12-05T14:09:09Z</time>
      </trkpt>
      <trkpt lat="45.75274" lon="-0.06433">
        <ele>165.76953125</ele>
        <time>2017-12-05T14:09:10Z</time>
      </trkpt>
      <trkpt lat="45.75289" lon="-0.06449">
        <ele>165.765625</ele>
        <time>2017-12-05T14:09:11Z</time>
      </trkpt>
      <trkpt lat="45.75306" lon="-0.06462">
        <ele>165.7109375</ele>
        <time>2017-12-05T14:09:12Z</time>
      </trkpt>
      <trkpt lat="45.75327" lon="-0.06487">
        <ele>165.70703125</ele>
        <time>2017-12-05T14:09:47Z</time>
      </trkpt>
      <trkpt lat="45.75366" lon="-0.06543">
        <ele>164.47265625</ele>
        <time>2017-12-05T14:09:49Z</time>
      </trkpt>
      <trkpt lat="45.75429" lon="-0.06617">
        <ele>162.92578125</ele>
        <time>2017-12-05T14:10:16Z</time>
      </trkpt>
      <trkpt lat="45.75464" lon="-0.06656">
        <ele>161.5234375</ele>
        <time>2017-12-05T14:10:25Z</time>
      </trkpt>
      <trkpt lat="45.75501" lon="-0.06701">
        <ele>160.55859375</ele>
        <time>2017-12-05T14:10:34Z</time>
      </trkpt>
      <trkpt lat="45.75517" lon="-0.06725">
        <ele>160.0390625</ele>
        <time>2017-12-05T14:10:38Z</time>
      </trkpt>
      <trkpt lat="45.75544" lon="-0.06781">
        <ele>159.04296875</ele>
        <time>2017-12-05T14:10:46Z</time>
      </trkpt>
      <trkpt lat="45.75566" lon="-0.0684">
        <ele>158.70703125</ele>
        <time>2017-12-05T14:10:54Z</time>
      </trkpt>
      <trkpt lat="45.75573" lon="-0.06863">
        <ele>158.8046875</ele>
        <time>2017-12-05T14:10:57Z</time>
      </trkpt>
      <trkpt lat="45.75596" lon="-0.06944">
        <ele>158.92578125</ele>
        <time>2017-12-05T14:11:07Z</time>
      </trkpt>
      <trkpt lat="45.75621" lon="-0.0702">
        <ele>157.91796875</ele>
        <time>2017-12-05T14:11:16Z</time>
      </trkpt>
      <trkpt lat="45.75661" lon="-0.07104">
        <ele>157.12890625</ele>
        <time>2017-12-05T14:11:27Z</time>
      </trkpt>
      <trkpt lat="45.75696" lon="-0.07177">
        <ele>155.96875</ele>
        <time>2017-12-05T14:11:37Z</time>
      </trkpt>
      <trkpt lat="45.75729" lon="-0.0724">
        <ele>155.0859375</ele>
        <time>2017-12-05T14:11:46Z</time>
      </trkpt>
      <trkpt lat="45.75766" lon="-0.07298">
        <ele>154.09765625</ele>
        <time>2017-12-05T14:11:55Z</time>
      </trkpt>
      <trkpt lat="45.75807" lon="-0.07369">
        <ele>152.97265625</ele>
        <time>2017-12-05T14:12:05Z</time>
      </trkpt>
      <trkpt lat="45.75833" lon="-0.07437">
        <ele>153.37109375</ele>
        <time>2017-12-05T14:12:13Z</time>
      </trkpt>
      <trkpt lat="45.75859" lon="-0.07516">
        <ele>153.94140625</ele>
        <time>2017-12-05T14:12:23Z</time>
      </trkpt>
      <trkpt lat="45.75894" lon="-0.07616">
        <ele>155.42578125</ele>
        <time>2017-12-05T14:12:37Z</time>
      </trkpt>
      <trkpt lat="45.75904" lon="-0.07643">
        <ele>155.5546875</ele>
        <time>2017-12-05T14:12:41Z</time>
      </trkpt>
      <trkpt lat="45.75935" lon="-0.07713">
        <ele>157.015625</ele>
        <time>2017-12-05T14:12:52Z</time>
      </trkpt>
      <trkpt lat="45.75969" lon="-0.0777">
        <ele>156.69140625</ele>
        <time>2017-12-05T14:13:02Z</time>
      </trkpt>
      <trkpt lat="45.75982" lon="-0.07792">
        <ele>156.86328125</ele>
        <time>2017-12-05T14:13:06Z</time>
      </trkpt>
      <trkpt lat="45.7601" lon="-0.07854">
        <ele>156.703125</ele>
        <time>2017-12-05T14:13:16Z</time>
      </trkpt>
      <trkpt lat="45.76032" lon="-0.07916">
        <ele>156.19140625</ele>
        <time>2017-12-05T14:13:25Z</time>
      </trkpt>
      <trkpt lat="45.76057" lon="-0.07989">
        <ele>155.9765625</ele>
        <time>2017-12-05T14:13:36Z</time>
      </trkpt>
      <trkpt lat="45.76063" lon="-0.08009">
        <ele>156.17578125</ele>
        <time>2017-12-05T14:13:39Z</time>
      </trkpt>
      <trkpt lat="45.76079" lon="-0.08073">
        <ele>157.03515625</ele>
        <time>2017-12-05T14:13:49Z</time>
      </trkpt>
      <trkpt lat="45.7608" lon="-0.08079">
        <ele>157.1953125</ele>
        <time>2017-12-05T14:13:50Z</time>
      </trkpt>
      <trkpt lat="45.76088" lon="-0.08132">
        <ele>158.578125</ele>
        <time>2017-12-05T14:14:00Z</time>
      </trkpt>
      <trkpt lat="45.76089" lon="-0.08154">
        <ele>159.04296875</ele>
        <time>2017-12-05T14:14:05Z</time>
      </trkpt>
      <trkpt lat="45.76088" lon="-0.08158">
        <ele>159.15234375</ele>
        <time>2017-12-05T14:14:06Z</time>
      </trkpt>
      <trkpt lat="45.76086" lon="-0.08162">
        <ele>159.265625</ele>
        <time>2017-12-05T14:14:07Z</time>
      </trkpt>
      <trkpt lat="45.76083" lon="-0.08164">
        <ele>159.41015625</ele>
        <time>2017-12-05T14:14:08Z</time>
      </trkpt>
      <trkpt lat="45.76062" lon="-0.0819">
        <ele>160.7265625</ele>
        <time>2017-12-05T14:14:17Z</time>
      </trkpt>
      <trkpt lat="45.76062" lon="-0.08194">
        <ele>160.87109375</ele>
        <time>2017-12-05T14:14:18Z</time>
      </trkpt>
      <trkpt lat="45.76063" lon="-0.08198">
        <ele>160.984375</ele>
        <time>2017-12-05T14:14:19Z</time>
      </trkpt>
      <trkpt lat="45.76064" lon="-0.08201">
        <ele>161.07421875</ele>
        <time>2017-12-05T14:14:20Z</time>
      </trkpt>
      <trkpt lat="45.76066" lon="-0.08204">
        <ele>161.15234375</ele>
        <time>2017-12-05T14:14:21Z</time>
      </trkpt>
      <trkpt lat="45.76068" lon="-0.08207">
        <ele>161.21875</ele>
        <time>2017-12-05T14:14:22Z</time>
      </trkpt>
      <trkpt lat="45.76087" lon="-0.0823">
        <ele>161.69921875</ele>
        <time>2017-12-05T14:14:31Z</time>
      </trkpt>
      <trkpt lat="45.76113" lon="-0.08263">
        <ele>162.44921875</ele>
        <time>2017-12-05T14:14:43Z</time>
      </trkpt>
      <trkpt lat="45.76142" lon="-0.08301">
        <ele>163.26171875</ele>
        <time>2017-12-05T14:14:56Z</time>
      </trkpt>
      <trkpt lat="45.76173" lon="-0.0834">
        <ele>164.12890625</ele>
        <time>2017-12-05T14:15:09Z</time>
      </trkpt>
      <trkpt lat="45.76194" lon="-0.08368">
        <ele>164.75</ele>
        <time>2017-12-05T14:15:18Z</time>
      </trkpt>
      <trkpt lat="45.76233" lon="-0.0842">
        <ele>165.1328125</ele>
        <time>2017-12-05T14:15:33Z</time>
      </trkpt>
      <trkpt lat="45.76263" lon="-0.08464">
        <ele>165.48046875</ele>
        <time>2017-12-05T14:15:44Z</time>
      </trkpt>
      <trkpt lat="45.76293" lon="-0.08509">
        <ele>165.0625</ele>
        <time>2017-12-05T14:15:55Z</time>
      </trkpt>
      <trkpt lat="45.76312" lon="-0.08537">
        <ele>164.8515625</ele>
        <time>2017-12-05T14:16:03Z</time>
      </trkpt>
      <trkpt lat="45.76314" lon="-0.08557">
        <ele>164.78125</ele>
        <time>2017-12-05T14:16:07Z</time>
      </trkpt>
      <trkpt lat="45.76307" lon="-0.08599">
        <ele>163.5</ele>
        <time>2017-12-05T14:16:13Z</time>
      </trkpt>
      <trkpt lat="45.76299" lon="-0.08644">
        <ele>162.1484375</ele>
        <time>2017-12-05T14:16:18Z</time>
      </trkpt>
      <trkpt lat="45.76298" lon="-0.08655">
        <ele>161.765625</ele>
        <time>2017-12-05T14:16:19Z</time>
      </trkpt>
      <trkpt lat="45.76293" lon="-0.08691">
        <ele>160.16796875</ele>
        <time>2017-12-05T14:16:22Z</time>
      </trkpt>
      <trkpt lat="45.76291" lon="-0.08703">
        <ele>159.62109375</ele>
        <time>2017-12-05T14:16:23Z</time>
      </trkpt>
      <trkpt lat="45.76286" lon="-0.0874">
        <ele>157.5</ele>
        <time>2017-12-05T14:16:26Z</time>
      </trkpt>
      <trkpt lat="45.76282" lon="-0.08765">
        <ele>155.7890625</ele>
        <time>2017-12-05T14:16:28Z</time>
      </trkpt>
      <trkpt lat="45.7628" lon="-0.08777">
        <ele>155</ele>
        <time>2017-12-05T14:16:29Z</time>
      </trkpt>
      <trkpt lat="45.76276" lon="-0.08813">
        <ele>153.05859375</ele>
        <time>2017-12-05T14:16:32Z</time>
      </trkpt>
      <trkpt lat="45.76273" lon="-0.08885">
        <ele>149.91015625</ele>
        <time>2017-12-05T14:16:38Z</time>
      </trkpt>
      <trkpt lat="45.76274" lon="-0.08898">
        <ele>149.23828125</ele>
        <time>2017-12-05T14:16:39Z</time>
      </trkpt>
      <trkpt lat="45.76277" lon="-0.0891">
        <ele>148.5859375</ele>
        <time>2017-12-05T14:16:40Z</time>
      </trkpt>
      <trkpt lat="45.76286" lon="-0.08946">
        <ele>146.7890625</ele>
        <time>2017-12-05T14:16:43Z</time>
      </trkpt>
      <trkpt lat="45.76289" lon="-0.09009">
        <ele>144.6953125</ele>
        <time>2017-12-05T14:16:48Z</time>
      </trkpt>
      <trkpt lat="45.76289" lon="-0.09022">
        <ele>144.23828125</ele>
        <time>2017-12-05T14:16:49Z</time>
      </trkpt>
      <trkpt lat="45.7629" lon="-0.09047">
        <ele>143.29296875</ele>
        <time>2017-12-05T14:16:51Z</time>
      </trkpt>
      <trkpt lat="45.7629" lon="-0.09124">
        <ele>140.3828125</ele>
        <time>2017-12-05T14:16:57Z</time>
      </trkpt>
      <trkpt lat="45.76275" lon="-0.09199">
        <ele>138.87109375</ele>
        <time>2017-12-05T14:17:03Z</time>
      </trkpt>
      <trkpt lat="45.76273" lon="-0.09212">
        <ele>138.79296875</ele>
        <time>2017-12-05T14:17:04Z</time>
      </trkpt>
      <trkpt lat="45.76262" lon="-0.09287">
        <ele>137.9140625</ele>
        <time>2017-12-05T14:17:10Z</time>
      </trkpt>
      <trkpt lat="45.76251" lon="-0.09415">
        <ele>135.74609375</ele>
        <time>2017-12-05T14:17:20Z</time>
      </trkpt>
      <trkpt lat="45.76244" lon="-0.09489">
        <ele>134.3515625</ele>
        <time>2017-12-05T14:17:26Z</time>
      </trkpt>
      <trkpt lat="45.76233" lon="-0.0961">
        <ele>132.7109375</ele>
        <time>2017-12-05T14:17:36Z</time>
      </trkpt>
      <trkpt lat="45.76224" lon="-0.09703">
        <ele>129.21875</ele>
        <time>2017-12-05T14:17:44Z</time>
      </trkpt>
      <trkpt lat="45.76217" lon="-0.09762">
        <ele>127.15625</ele>
        <time>2017-12-05T14:17:49Z</time>
      </trkpt>
      <trkpt lat="45.76215" lon="-0.09787">
        <ele>126.0625</ele>
        <time>2017-12-05T14:17:51Z</time>
      </trkpt>
      <trkpt lat="45.7621" lon="-0.09875">
        <ele>122.3515625</ele>
        <time>2017-12-05T14:17:58Z</time>
      </trkpt>
      <trkpt lat="45.76204" lon="-0.09926">
        <ele>121.390625</ele>
        <time>2017-12-05T14:18:03Z</time>
      </trkpt>
      <trkpt lat="45.76202" lon="-0.0994">
        <ele>121.16015625</ele>
        <time>2017-12-05T14:18:05Z</time>
      </trkpt>
      <trkpt lat="45.76202" lon="-0.09946">
        <ele>121.046875</ele>
        <time>2017-12-05T14:18:06Z</time>
      </trkpt>
      <trkpt lat="45.76204" lon="-0.0995">
        <ele>120.92578125</ele>
        <time>2017-12-05T14:18:07Z</time>
      </trkpt>
      <trkpt lat="45.76208" lon="-0.09953">
        <ele>120.80078125</ele>
        <time>2017-12-05T14:18:08Z</time>
      </trkpt>
      <trkpt lat="45.76212" lon="-0.09956">
        <ele>120.66796875</ele>
        <time>2017-12-05T14:18:09Z</time>
      </trkpt>
      <trkpt lat="45.76244" lon="-0.09981">
        <ele>119.21484375</ele>
        <time>2017-12-05T14:18:16Z</time>
      </trkpt>
      <trkpt lat="45.76282" lon="-0.10012">
        <ele>116.81640625</ele>
        <time>2017-12-05T14:18:24Z</time>
      </trkpt>
      <trkpt lat="45.76287" lon="-0.10015">
        <ele>116.5390625</ele>
        <time>2017-12-05T14:18:25Z</time>
      </trkpt>
      <trkpt lat="45.76293" lon="-0.10016">
        <ele>116.296875</ele>
        <time>2017-12-05T14:18:26Z</time>
      </trkpt>
      <trkpt lat="45.76298" lon="-0.10015">
        <ele>116.12890625</ele>
        <time>2017-12-05T14:18:27Z</time>
      </trkpt>
      <trkpt lat="45.76303" lon="-0.10013">
        <ele>116.0234375</ele>
        <time>2017-12-05T14:18:28Z</time>
      </trkpt>
      <trkpt lat="45.76308" lon="-0.1001">
        <ele>115.9453125</ele>
        <time>2017-12-05T14:18:29Z</time>
      </trkpt>
      <trkpt lat="45.76313" lon="-0.10007">
        <ele>115.87890625</ele>
        <time>2017-12-05T14:18:30Z</time>
      </trkpt>
      <trkpt lat="45.76326" lon="-0.09999">
        <ele>115.6953125</ele>
        <time>2017-12-05T14:18:33Z</time>
      </trkpt>
      <trkpt lat="45.76339" lon="-0.09989">
        <ele>115.59765625</ele>
        <time>2017-12-05T14:18:36Z</time>
      </trkpt>
      <trkpt lat="45.76369" lon="-0.09968">
        <ele>115.27734375</ele>
        <time>2017-12-05T14:18:43Z</time>
      </trkpt>
      <trkpt lat="45.76407" lon="-0.09933">
        <ele>115.19140625</ele>
        <time>2017-12-05T14:18:53Z</time>
      </trkpt>
      <trkpt lat="45.76434" lon="-0.099">
        <ele>115.40234375</ele>
        <time>2017-12-05T14:19:02Z</time>
      </trkpt>
      <trkpt lat="45.76437" lon="-0.09889">
        <ele>115.78125</ele>
        <time>2017-12-05T14:19:04Z</time>
      </trkpt>
      <trkpt lat="45.76449" lon="-0.09861">
        <ele>116.38671875</ele>
        <time>2017-12-05T14:19:10Z</time>
      </trkpt>
      <trkpt lat="45.76453" lon="-0.09858">
        <ele>116.4453125</ele>
        <time>2017-12-05T14:19:11Z</time>
      </trkpt>
      <trkpt lat="45.76476" lon="-0.09836">
        <ele>116.84375</ele>
        <time>2017-12-05T14:19:18Z</time>
      </trkpt>
      <trkpt lat="45.76496" lon="-0.09814">
        <ele>117.58203125</ele>
        <time>2017-12-05T14:19:26Z</time>
      </trkpt>
      <trkpt lat="45.76512" lon="-0.09793">
        <ele>118.39453125</ele>
        <time>2017-12-05T14:19:33Z</time>
      </trkpt>
      <trkpt lat="45.76527" lon="-0.09764">
        <ele>119.19140625</ele>
        <time>2017-12-05T14:19:40Z</time>
      </trkpt>
      <trkpt lat="45.7654" lon="-0.09715">
        <ele>120.11328125</ele>
        <time>2017-12-05T14:19:49Z</time>
      </trkpt>
      <trkpt lat="45.76552" lon="-0.09656">
        <ele>120.84375</ele>
        <time>2017-12-05T14:20:00Z</time>
      </trkpt>
      <trkpt lat="45.76562" lon="-0.09597">
        <ele>121.84765625</ele>
        <time>2017-12-05T14:20:11Z</time>
      </trkpt>
      <trkpt lat="45.76565" lon="-0.09561">
        <ele>122.453125</ele>
        <time>2017-12-05T14:20:18Z</time>
      </trkpt>
      <trkpt lat="45.76566" lon="-0.09557">
        <ele>122.484375</ele>
        <time>2017-12-05T14:20:19Z</time>
      </trkpt>
      <trkpt lat="45.76568" lon="-0.09555">
        <ele>122.484375</ele>
        <time>2017-12-05T14:20:20Z</time>
      </trkpt>
      <trkpt lat="45.76571" lon="-0.09555">
        <ele>122.44140625</ele>
        <time>2017-12-05T14:20:21Z</time>
      </trkpt>
      <trkpt lat="45.76574" lon="-0.09557">
        <ele>122.359375</ele>
        <time>2017-12-05T14:20:22Z</time>
      </trkpt>
      <trkpt lat="45.76577" lon="-0.0956">
        <ele>122.25390625</ele>
        <time>2017-12-05T14:20:23Z</time>
      </trkpt>
      <trkpt lat="45.76579" lon="-0.09564">
        <ele>122.1328125</ele>
        <time>2017-12-05T14:20:24Z</time>
      </trkpt>
      <trkpt lat="45.7659" lon="-0.09582">
        <ele>121.609375</ele>
        <time>2017-12-05T14:20:28Z</time>
      </trkpt>
      <trkpt lat="45.76593" lon="-0.09587">
        <ele>121.4765625</ele>
        <time>2017-12-05T14:20:29Z</time>
      </trkpt>
      <trkpt lat="45.76605" lon="-0.09608">
        <ele>120.8203125</ele>
        <time>2017-12-05T14:20:33Z</time>
      </trkpt>
      <trkpt lat="45.76637" lon="-0.09657">
        <ele>118.46875</ele>
        <time>2017-12-05T14:20:42Z</time>
      </trkpt>
      <trkpt lat="45.76654" lon="-0.09676">
        <ele>117.76171875</ele>
        <time>2017-12-05T14:20:46Z</time>
      </trkpt>
      <trkpt lat="45.76685" lon="-0.09718">
        <ele>116.45703125</ele>
        <time>2017-12-05T14:20:54Z</time>
      </trkpt>
      <trkpt lat="45.76688" lon="-0.09724">
        <ele>116.33984375</ele>
        <time>2017-12-05T14:20:55Z</time>
      </trkpt>
      <trkpt lat="45.76707" lon="-0.09767">
        <ele>115.23828125</ele>
        <time>2017-12-05T14:21:02Z</time>
      </trkpt>
      <trkpt lat="45.76716" lon="-0.09786">
        <ele>114.87109375</ele>
        <time>2017-12-05T14:21:05Z</time>
      </trkpt>
      <trkpt lat="45.76741" lon="-0.0983">
        <ele>113.3984375</ele>
        <time>2017-12-05T14:21:12Z</time>
      </trkpt>
      <trkpt lat="45.76767" lon="-0.0989">
        <ele>112.0234375</ele>
        <time>2017-12-05T14:21:20Z</time>
      </trkpt>
      <trkpt lat="45.76788" lon="-0.09945">
        <ele>111.0625</ele>
        <time>2017-12-05T14:21:27Z</time>
      </trkpt>
      <trkpt lat="45.76791" lon="-0.09952">
        <ele>110.671875</ele>
        <time>2017-12-05T14:21:28Z</time>
      </trkpt>
      <trkpt lat="45.76814" lon="-0.09997">
        <ele>107.55859375</ele>
        <time>2017-12-05T14:21:34Z</time>
      </trkpt>
      <trkpt lat="45.76823" lon="-0.10014">
        <ele>106.63671875</ele>
        <time>2017-12-05T14:21:36Z</time>
      </trkpt>
      <trkpt lat="45.7684" lon="-0.10052">
        <ele>106.24609375</ele>
        <time>2017-12-05T14:21:40Z</time>
      </trkpt>
      <trkpt lat="45.76844" lon="-0.10063">
        <ele>106.05859375</ele>
        <time>2017-12-05T14:21:41Z</time>
      </trkpt>
      <trkpt lat="45.76849" lon="-0.10073">
        <ele>105.85546875</ele>
        <time>2017-12-05T14:21:42Z</time>
      </trkpt>
      <trkpt lat="45.76854" lon="-0.10083">
        <ele>105.6171875</ele>
        <time>2017-12-05T14:21:43Z</time>
      </trkpt>
      <trkpt lat="45.76872" lon="-0.10125">
        <ele>104.2890625</ele>
        <time>2017-12-05T14:21:47Z</time>
      </trkpt>
      <trkpt lat="45.76875" lon="-0.10134">
        <ele>103.9453125</ele>
        <time>2017-12-05T14:21:48Z</time>
      </trkpt>
      <trkpt lat="45.76883" lon="-0.1017">
        <ele>103.5390625</ele>
        <time>2017-12-05T14:21:52Z</time>
      </trkpt>
      <trkpt lat="45.76885" lon="-0.10177">
        <ele>103.77734375</ele>
        <time>2017-12-05T14:21:53Z</time>
      </trkpt>
      <trkpt lat="45.76887" lon="-0.10183">
        <ele>104.04296875</ele>
        <time>2017-12-05T14:21:54Z</time>
      </trkpt>
      <trkpt lat="45.76889" lon="-0.10188">
        <ele>104.30078125</ele>
        <time>2017-12-05T14:21:55Z</time>
      </trkpt>
      <trkpt lat="45.76892" lon="-0.1019">
        <ele>104.515625</ele>
        <time>2017-12-05T14:21:56Z</time>
      </trkpt>
      <trkpt lat="45.76894" lon="-0.10191">
        <ele>104.6875</ele>
        <time>2017-12-05T14:21:57Z</time>
      </trkpt>
      <trkpt lat="45.76895" lon="-0.10191">
        <ele>104.76171875</ele>
        <time>2017-12-08T13:08:21Z</time>
      </trkpt>
      <trkpt lat="45.76895" lon="-0.1024">
        <ele>105.19921875</ele>
        <time>2017-12-08T13:08:30Z</time>
      </trkpt>
      <trkpt lat="45.76895" lon="-0.10305">
        <ele>105.23828125</ele>
        <time>2017-12-08T13:08:36Z</time>
      </trkpt>
      <trkpt lat="45.76897" lon="-0.10399">
        <ele>104.07421875</ele>
        <time>2017-12-08T13:08:45Z</time>
      </trkpt>
      <trkpt lat="45.76897" lon="-0.1042">
        <ele>103.71875</ele>
        <time>2017-12-08T13:08:47Z</time>
      </trkpt>
      <trkpt lat="45.76898" lon="-0.1043">
        <ele>103.5625</ele>
        <time>2017-12-08T13:08:48Z</time>
      </trkpt>
      <trkpt lat="45.76899" lon="-0.10534">
        <ele>102.3984375</ele>
        <time>2017-12-08T13:08:58Z</time>
      </trkpt>
      <trkpt lat="45.76899" lon="-0.10544">
        <ele>102.2265625</ele>
        <time>2017-12-08T13:08:59Z</time>
      </trkpt>
      <trkpt lat="45.769" lon="-0.10619">
        <ele>100.85546875</ele>
        <time>2017-12-08T13:09:07Z</time>
      </trkpt>
      <trkpt lat="45.76901" lon="-0.10638">
        <ele>100.921875</ele>
        <time>2017-12-08T13:09:09Z</time>
      </trkpt>
      <trkpt lat="45.769" lon="-0.10647">
        <ele>100.953125</ele>
        <time>2017-12-08T13:09:10Z</time>
      </trkpt>
      <trkpt lat="45.76899" lon="-0.10691">
        <ele>100.44921875</ele>
        <time>2017-12-08T13:09:15Z</time>
      </trkpt>
      <trkpt lat="45.76898" lon="-0.10699">
        <ele>100.30078125</ele>
        <time>2017-12-08T13:09:16Z</time>
      </trkpt>
      <trkpt lat="45.76895" lon="-0.10706">
        <ele>100.171875</ele>
        <time>2017-12-08T13:09:17Z</time>
      </trkpt>
      <trkpt lat="45.7689" lon="-0.10712">
        <ele>100.0625</ele>
        <time>2017-12-08T13:09:18Z</time>
      </trkpt>
      <trkpt lat="45.76885" lon="-0.10717">
        <ele>99.96875</ele>
        <time>2017-12-08T13:09:19Z</time>
      </trkpt>
      <trkpt lat="45.7688" lon="-0.10723">
        <ele>99.875</ele>
        <time>2017-12-08T13:09:20Z</time>
      </trkpt>
      <trkpt lat="45.76874" lon="-0.10728">
        <ele>99.62890625</ele>
        <time>2017-12-08T13:09:21Z</time>
      </trkpt>
      <trkpt lat="45.76855" lon="-0.10741">
        <ele>98.7109375</ele>
        <time>2017-12-08T13:09:24Z</time>
      </trkpt>
      <trkpt lat="45.76849" lon="-0.10745">
        <ele>98.4140625</ele>
        <time>2017-12-08T13:09:25Z</time>
      </trkpt>
      <trkpt lat="45.76798" lon="-0.10788">
        <ele>95.81640625</ele>
        <time>2017-12-08T13:09:33Z</time>
      </trkpt>
      <trkpt lat="45.76761" lon="-0.10823">
        <ele>94.58203125</ele>
        <time>2017-12-08T13:09:39Z</time>
      </trkpt>
      <trkpt lat="45.76742" lon="-0.1084">
        <ele>93.73046875</ele>
        <time>2017-12-08T13:09:42Z</time>
      </trkpt>
      <trkpt lat="45.76702" lon="-0.10873">
        <ele>92.38671875</ele>
        <time>2017-12-08T13:09:48Z</time>
      </trkpt>
      <trkpt lat="45.76689" lon="-0.10885">
        <ele>91.8203125</ele>
        <time>2017-12-08T13:09:50Z</time>
      </trkpt>
      <trkpt lat="45.76663" lon="-0.10913">
        <ele>90.90625</ele>
        <time>2017-12-08T13:09:54Z</time>
      </trkpt>
      <trkpt lat="45.76617" lon="-0.10954">
        <ele>89.00390625</ele>
        <time>2017-12-08T13:10:01Z</time>
      </trkpt>
      <trkpt lat="45.76594" lon="-0.1098">
        <ele>87.84375</ele>
        <time>2017-12-08T13:10:05Z</time>
      </trkpt>
      <trkpt lat="45.76588" lon="-0.10987">
        <ele>87.6484375</ele>
        <time>2017-12-08T13:10:06Z</time>
      </trkpt>
      <trkpt lat="45.7656" lon="-0.1102">
        <ele>86.78515625</ele>
        <time>2017-12-08T13:10:11Z</time>
      </trkpt>
      <trkpt lat="45.76548" lon="-0.11035">
        <ele>86.17578125</ele>
        <time>2017-12-08T13:10:13Z</time>
      </trkpt>
      <trkpt lat="45.76537" lon="-0.11052">
        <ele>85.8125</ele>
        <time>2017-12-08T13:10:15Z</time>
      </trkpt>
      <trkpt lat="45.76517" lon="-0.11088">
        <ele>85.3359375</ele>
        <time>2017-12-08T13:10:19Z</time>
      </trkpt>
      <trkpt lat="45.76484" lon="-0.11153">
        <ele>84.42578125</ele>
        <time>2017-12-08T13:10:26Z</time>
      </trkpt>
      <trkpt lat="45.76476" lon="-0.11173">
        <ele>84.23046875</ele>
        <time>2017-12-08T13:10:28Z</time>
      </trkpt>
      <trkpt lat="45.76473" lon="-0.11183">
        <ele>84.125</ele>
        <time>2017-12-08T13:10:29Z</time>
      </trkpt>
      <trkpt lat="45.76467" lon="-0.11204">
        <ele>83.859375</ele>
        <time>2017-12-08T13:10:31Z</time>
      </trkpt>
      <trkpt lat="45.76439" lon="-0.11283">
        <ele>81.4765625</ele>
        <time>2017-12-08T13:10:39Z</time>
      </trkpt>
      <trkpt lat="45.76415" lon="-0.11338">
        <ele>79.765625</ele>
        <time>2017-12-08T13:10:45Z</time>
      </trkpt>
      <trkpt lat="45.76382" lon="-0.11397">
        <ele>77.46484375</ele>
        <time>2017-12-08T13:10:52Z</time>
      </trkpt>
      <trkpt lat="45.76349" lon="-0.11451">
        <ele>77.33203125</ele>
        <time>2017-12-08T13:10:59Z</time>
      </trkpt>
      <trkpt lat="45.76317" lon="-0.11505">
        <ele>76.97265625</ele>
        <time>2017-12-08T13:11:06Z</time>
      </trkpt>
      <trkpt lat="45.76278" lon="-0.11584">
        <ele>75.6953125</ele>
        <time>2017-12-08T13:11:15Z</time>
      </trkpt>
      <trkpt lat="45.76255" lon="-0.1163">
        <ele>75.26171875</ele>
        <time>2017-12-08T13:11:20Z</time>
      </trkpt>
      <trkpt lat="45.76218" lon="-0.1168">
        <ele>75</ele>
        <time>2017-12-08T13:11:27Z</time>
      </trkpt>
      <trkpt lat="45.76207" lon="-0.11692">
        <ele>75.05078125</ele>
        <time>2017-12-08T13:11:29Z</time>
      </trkpt>
      <trkpt lat="45.76169" lon="-0.11719">
        <ele>74.59375</ele>
        <time>2017-12-08T13:11:36Z</time>
      </trkpt>
      <trkpt lat="45.76146" lon="-0.11733">
        <ele>74.34375</ele>
        <time>2017-12-08T13:11:40Z</time>
      </trkpt>
      <trkpt lat="45.761" lon="-0.11756">
        <ele>72.984375</ele>
        <time>2017-12-08T13:11:48Z</time>
      </trkpt>
      <trkpt lat="45.7607" lon="-0.11768">
        <ele>72.47265625</ele>
        <time>2017-12-08T13:11:53Z</time>
      </trkpt>
      <trkpt lat="45.76033" lon="-0.11789">
        <ele>72.18359375</ele>
        <time>2017-12-08T13:12:00Z</time>
      </trkpt>
      <trkpt lat="45.76024" lon="-0.11798">
        <ele>72.109375</ele>
        <time>2017-12-08T13:12:02Z</time>
      </trkpt>
      <trkpt lat="45.7602" lon="-0.11803">
        <ele>72.05859375</ele>
        <time>2017-12-08T13:12:03Z</time>
      </trkpt>
      <trkpt lat="45.76018" lon="-0.1181">
        <ele>72.0078125</ele>
        <time>2017-12-08T13:12:04Z</time>
      </trkpt>
      <trkpt lat="45.76016" lon="-0.11817">
        <ele>71.95703125</ele>
        <time>2017-12-08T13:12:05Z</time>
      </trkpt>
      <trkpt lat="45.76015" lon="-0.11825">
        <ele>71.91015625</ele>
        <time>2017-12-08T13:12:06Z</time>
      </trkpt>
      <trkpt lat="45.76009" lon="-0.11876">
        <ele>73.19921875</ele>
        <time>2017-12-08T13:12:14Z</time>
      </trkpt>
      <trkpt lat="45.76009" lon="-0.1188">
        <ele>73.328125</ele>
        <time>2017-12-08T13:12:15Z</time>
      </trkpt>
      <trkpt lat="45.76006" lon="-0.11923">
        <ele>76.171875</ele>
        <time>2017-12-08T13:12:24Z</time>
      </trkpt>
      <trkpt lat="45.76003" lon="-0.11961">
        <ele>78.4921875</ele>
        <time>2017-12-08T13:12:32Z</time>
      </trkpt>
      <trkpt lat="45.76001" lon="-0.12019">
        <ele>80.8828125</ele>
        <time>2017-12-08T13:12:44Z</time>
      </trkpt>
      <trkpt lat="45.76002" lon="-0.12056">
        <ele>81.18359375</ele>
        <time>2017-12-08T13:12:51Z</time>
      </trkpt>
      <trkpt lat="45.76001" lon="-0.12093">
        <ele>79.77734375</ele>
        <time>2017-12-08T13:12:56Z</time>
      </trkpt>
      <trkpt lat="45.75999" lon="-0.12129">
        <ele>78.41796875</ele>
        <time>2017-12-08T13:13:00Z</time>
      </trkpt>
      <trkpt lat="45.75998" lon="-0.12138">
        <ele>78.07421875</ele>
        <time>2017-12-08T13:13:01Z</time>
      </trkpt>
      <trkpt lat="45.7599" lon="-0.12178">
        <ele>78.72265625</ele>
        <time>2017-12-08T13:13:07Z</time>
      </trkpt>
      <trkpt lat="45.75989" lon="-0.12188">
        <ele>79.5546875</ele>
        <time>2017-12-08T13:13:09Z</time>
      </trkpt>
      <trkpt lat="45.75986" lon="-0.12226">
        <ele>82.8203125</ele>
        <time>2017-12-08T13:13:18Z</time>
      </trkpt>
      <trkpt lat="45.75979" lon="-0.12266">
        <ele>86.015625</ele>
        <time>2017-12-08T13:13:27Z</time>
      </trkpt>
      <trkpt lat="45.75971" lon="-0.12312">
        <ele>88.71875</ele>
        <time>2017-12-08T13:13:37Z</time>
      </trkpt>
      <trkpt lat="45.75963" lon="-0.12369">
        <ele>90.25390625</ele>
        <time>2017-12-08T13:13:49Z</time>
      </trkpt>
      <trkpt lat="45.75957" lon="-0.12416">
        <ele>90.41796875</ele>
        <time>2017-12-08T13:13:58Z</time>
      </trkpt>
      <trkpt lat="45.75953" lon="-0.12465">
        <ele>91.18359375</ele>
        <time>2017-12-08T13:14:07Z</time>
      </trkpt>
      <trkpt lat="45.75947" lon="-0.12533">
        <ele>92.56640625</ele>
        <time>2017-12-08T13:14:19Z</time>
      </trkpt>
      <trkpt lat="45.7594" lon="-0.12601">
        <ele>93.36328125</ele>
        <time>2017-12-08T13:14:30Z</time>
      </trkpt>
      <trkpt lat="45.75934" lon="-0.12662">
        <ele>94.07421875</ele>
        <time>2017-12-08T13:14:40Z</time>
      </trkpt>
      <trkpt lat="45.75927" lon="-0.12736">
        <ele>95.40625</ele>
        <time>2017-12-08T13:14:52Z</time>
      </trkpt>
      <trkpt lat="45.75921" lon="-0.128">
        <ele>95.69921875</ele>
        <time>2017-12-08T13:15:02Z</time>
      </trkpt>
      <trkpt lat="45.75913" lon="-0.12886">
        <ele>95.40625</ele>
        <time>2017-12-08T13:15:14Z</time>
      </trkpt>
      <trkpt lat="45.75902" lon="-0.12991">
        <ele>94.265625</ele>
        <time>2017-12-08T13:15:28Z</time>
      </trkpt>
      <trkpt lat="45.75898" lon="-0.13032">
        <ele>93.80078125</ele>
        <time>2017-12-08T13:15:33Z</time>
      </trkpt>
      <trkpt lat="45.75897" lon="-0.1304">
        <ele>93.71875</ele>
        <time>2017-12-08T13:15:34Z</time>
      </trkpt>
      <trkpt lat="45.75892" lon="-0.1311">
        <ele>92.875</ele>
        <time>2017-12-08T13:15:43Z</time>
      </trkpt>
      <trkpt lat="45.75895" lon="-0.1319">
        <ele>91.43359375</ele>
        <time>2017-12-08T13:15:53Z</time>
      </trkpt>
      <trkpt lat="45.75894" lon="-0.13216">
        <ele>90.98046875</ele>
        <time>2017-12-08T13:15:56Z</time>
      </trkpt>
      <trkpt lat="45.75888" lon="-0.13306">
        <ele>89.0859375</ele>
        <time>2017-12-08T13:16:06Z</time>
      </trkpt>
      <trkpt lat="45.75886" lon="-0.13378">
        <ele>89.19921875</ele>
        <time>2017-12-08T13:16:15Z</time>
      </trkpt>
      <trkpt lat="45.75885" lon="-0.13392">
        <ele>89.43359375</ele>
        <time>2017-12-08T13:16:17Z</time>
      </trkpt>
      <trkpt lat="45.75882" lon="-0.13443">
        <ele>90.28125</ele>
        <time>2017-12-08T13:16:25Z</time>
      </trkpt>
      <trkpt lat="45.75878" lon="-0.13503">
        <ele>91.16796875</ele>
        <time>2017-12-08T13:16:35Z</time>
      </trkpt>
      <trkpt lat="45.75877" lon="-0.13509">
        <ele>91.26171875</ele>
        <time>2017-12-08T13:16:36Z</time>
      </trkpt>
      <trkpt lat="45.75872" lon="-0.13563">
        <ele>91.87890625</ele>
        <time>2017-12-08T13:16:45Z</time>
      </trkpt>
      <trkpt lat="45.75868" lon="-0.13621">
        <ele>91.55078125</ele>
        <time>2017-12-08T13:16:54Z</time>
      </trkpt>
      <trkpt lat="45.75868" lon="-0.13647">
        <ele>91.171875</ele>
        <time>2017-12-08T13:16:58Z</time>
      </trkpt>
      <trkpt lat="45.75866" lon="-0.13651">
        <ele>91.09765625</ele>
        <time>2017-12-08T13:16:59Z</time>
      </trkpt>
      <trkpt lat="45.75863" lon="-0.13653">
        <ele>91.06640625</ele>
        <time>2017-12-08T13:17:00Z</time>
      </trkpt>
      <trkpt lat="45.7586" lon="-0.13651">
        <ele>91.08203125</ele>
        <time>2017-12-08T13:17:01Z</time>
      </trkpt>
      <trkpt lat="45.75857" lon="-0.13648">
        <ele>91.11328125</ele>
        <time>2017-12-08T13:17:02Z</time>
      </trkpt>
      <trkpt lat="45.75854" lon="-0.13644">
        <ele>91.14453125</ele>
        <time>2017-12-08T13:17:03Z</time>
      </trkpt>
      <trkpt lat="45.75851" lon="-0.13639">
        <ele>91.17578125</ele>
        <time>2017-12-08T13:17:04Z</time>
      </trkpt>
      <trkpt lat="45.75833" lon="-0.13608">
        <ele>91.15234375</ele>
        <time>2017-12-08T13:17:10Z</time>
      </trkpt>
      <trkpt lat="45.75823" lon="-0.13591">
        <ele>91.00390625</ele>
        <time>2017-12-08T13:17:13Z</time>
      </trkpt>
      <trkpt lat="45.75821" lon="-0.13584">
        <ele>90.9375</ele>
        <time>2017-12-08T13:17:14Z</time>
      </trkpt>
      <trkpt lat="45.75818" lon="-0.13578">
        <ele>90.85546875</ele>
        <time>2017-12-08T13:17:15Z</time>
      </trkpt>
      <trkpt lat="45.75814" lon="-0.13571">
        <ele>90.75390625</ele>
        <time>2017-12-08T13:17:16Z</time>
      </trkpt>
      <trkpt lat="45.75811" lon="-0.13565">
        <ele>90.640625</ele>
        <time>2017-12-08T13:17:17Z</time>
      </trkpt>
      <trkpt lat="45.75777" lon="-0.135">
        <ele>87.62890625</ele>
        <time>2017-12-08T13:17:27Z</time>
      </trkpt>
      <trkpt lat="45.75749" lon="-0.13447">
        <ele>85.5078125</ele>
        <time>2017-12-08T13:17:35Z</time>
      </trkpt>
      <trkpt lat="45.75738" lon="-0.13424">
        <ele>84.60546875</ele>
        <time>2017-12-08T13:17:38Z</time>
      </trkpt>
      <trkpt lat="45.7573" lon="-0.13407">
        <ele>83.94140625</ele>
        <time>2017-12-08T13:17:40Z</time>
      </trkpt>
      <trkpt lat="45.75721" lon="-0.1339">
        <ele>83.34375</ele>
        <time>2017-12-08T13:17:42Z</time>
      </trkpt>
      <trkpt lat="45.75693" lon="-0.13334">
        <ele>83.1484375</ele>
        <time>2017-12-08T13:17:49Z</time>
      </trkpt>
      <trkpt lat="45.75692" lon="-0.13326">
        <ele>83.2578125</ele>
        <time>2017-12-08T13:17:50Z</time>
      </trkpt>
      <trkpt lat="45.75692" lon="-0.13309">
        <ele>83.55859375</ele>
        <time>2017-12-08T13:17:52Z</time>
      </trkpt>
      <trkpt lat="45.75693" lon="-0.13302">
        <ele>83.73828125</ele>
        <time>2017-12-08T13:17:53Z</time>
      </trkpt>
      <trkpt lat="45.75695" lon="-0.13271">
        <ele>84.36328125</ele>
        <time>2017-12-08T13:17:58Z</time>
      </trkpt>
      <trkpt lat="45.75693" lon="-0.13267">
        <ele>84.32421875</ele>
        <time>2017-12-08T13:17:59Z</time>
      </trkpt>
      <trkpt lat="45.7569" lon="-0.13266">
        <ele>84.21875</ele>
        <time>2017-12-08T13:18:00Z</time>
      </trkpt>
      <trkpt lat="45.7566" lon="-0.13262">
        <ele>82.984375</ele>
        <time>2017-12-08T13:18:06Z</time>
      </trkpt>
      <trkpt lat="45.75647" lon="-0.1326">
        <ele>82.15625</ele>
        <time>2017-12-08T13:18:08Z</time>
      </trkpt>
      <trkpt lat="45.75618" lon="-0.13256">
        <ele>80.15625</ele>
        <time>2017-12-08T13:18:12Z</time>
      </trkpt>
      <trkpt lat="45.75594" lon="-0.13251">
        <ele>78.3671875</ele>
        <time>2017-12-08T13:18:15Z</time>
      </trkpt>
      <trkpt lat="45.75567" lon="-0.13248">
        <ele>75.88671875</ele>
        <time>2017-12-08T13:18:18Z</time>
      </trkpt>
      <trkpt lat="45.75557" lon="-0.13245">
        <ele>75.015625</ele>
        <time>2017-12-08T13:18:19Z</time>
      </trkpt>
      <trkpt lat="45.75547" lon="-0.13239">
        <ele>74.1484375</ele>
        <time>2017-12-08T13:18:20Z</time>
      </trkpt>
      <trkpt lat="45.75538" lon="-0.13232">
        <ele>73.23046875</ele>
        <time>2017-12-08T13:18:21Z</time>
      </trkpt>
      <trkpt lat="45.7553" lon="-0.13222">
        <ele>72.33203125</ele>
        <time>2017-12-08T13:18:22Z</time>
      </trkpt>
      <trkpt lat="45.75523" lon="-0.1321">
        <ele>71.47265625</ele>
        <time>2017-12-08T13:18:23Z</time>
      </trkpt>
      <trkpt lat="45.75517" lon="-0.13197">
        <ele>70.55859375</ele>
        <time>2017-12-08T13:18:24Z</time>
      </trkpt>
      <trkpt lat="45.7551" lon="-0.13183">
        <ele>69.5859375</ele>
        <time>2017-12-08T13:18:25Z</time>
      </trkpt>
      <trkpt lat="45.75502" lon="-0.13171">
        <ele>68.52734375</ele>
        <time>2017-12-08T13:18:26Z</time>
      </trkpt>
      <trkpt lat="45.75493" lon="-0.1316">
        <ele>67.375</ele>
        <time>2017-12-08T13:18:27Z</time>
      </trkpt>
      <trkpt lat="45.75484" lon="-0.1315">
        <ele>66.40625</ele>
        <time>2017-12-08T13:18:28Z</time>
      </trkpt>
      <trkpt lat="45.75465" lon="-0.1313">
        <ele>65.32421875</ele>
        <time>2017-12-08T13:18:30Z</time>
      </trkpt>
      <trkpt lat="45.75456" lon="-0.13122">
        <ele>65.046875</ele>
        <time>2017-12-08T13:18:31Z</time>
      </trkpt>
      <trkpt lat="45.75445" lon="-0.13117">
        <ele>64.8984375</ele>
        <time>2017-12-08T13:18:32Z</time>
      </trkpt>
      <trkpt lat="45.75436" lon="-0.13115">
        <ele>64.796875</ele>
        <time>2017-12-08T13:18:33Z</time>
      </trkpt>
      <trkpt lat="45.75427" lon="-0.13116">
        <ele>65.4375</ele>
        <time>2017-12-08T13:18:34Z</time>
      </trkpt>
      <trkpt lat="45.75419" lon="-0.13118">
        <ele>66.05078125</ele>
        <time>2017-12-08T13:18:35Z</time>
      </trkpt>
      <trkpt lat="45.75413" lon="-0.1312">
        <ele>66.55078125</ele>
        <time>2017-12-08T13:18:36Z</time>
      </trkpt>
      <trkpt lat="45.75403" lon="-0.13123">
        <ele>67.31640625</ele>
        <time>2017-12-08T13:18:38Z</time>
      </trkpt>
      <trkpt lat="45.75396" lon="-0.13127">
        <ele>67.71875</ele>
        <time>2017-12-08T13:18:40Z</time>
      </trkpt>
      <trkpt lat="45.75395" lon="-0.13131">
        <ele>67.7265625</ele>
        <time>2017-12-08T13:18:41Z</time>
      </trkpt>
      <trkpt lat="45.75385" lon="-0.13158">
        <ele>67.63671875</ele>
        <time>2017-12-08T13:18:47Z</time>
      </trkpt>
      <trkpt lat="45.75382" lon="-0.13163">
        <ele>67.62109375</ele>
        <time>2017-12-08T13:18:48Z</time>
      </trkpt>
      <trkpt lat="45.75363" lon="-0.13212">
        <ele>66.94921875</ele>
        <time>2017-12-08T13:18:55Z</time>
      </trkpt>
      <trkpt lat="45.75357" lon="-0.13228">
        <ele>66.80078125</ele>
        <time>2017-12-08T13:18:57Z</time>
      </trkpt>
      <trkpt lat="45.75327" lon="-0.13302">
        <ele>66.078125</ele>
        <time>2017-12-08T13:19:06Z</time>
      </trkpt>
      <trkpt lat="45.75321" lon="-0.13319">
        <ele>65.5</ele>
        <time>2017-12-08T13:19:08Z</time>
      </trkpt>
      <trkpt lat="45.75283" lon="-0.13412">
        <ele>64.20703125</ele>
        <time>2017-12-08T13:19:19Z</time>
      </trkpt>
      <trkpt lat="45.7525" lon="-0.13493">
        <ele>62.9453125</ele>
        <time>2017-12-08T13:19:29Z</time>
      </trkpt>
      <trkpt lat="45.75251" lon="-0.13498">
        <ele>62.76953125</ele>
        <time>2017-12-08T13:19:30Z</time>
      </trkpt>
      <trkpt lat="45.75254" lon="-0.13501">
        <ele>62.55859375</ele>
        <time>2017-12-08T13:19:31Z</time>
      </trkpt>
      <trkpt lat="45.75257" lon="-0.13504">
        <ele>62.34765625</ele>
        <time>2017-12-08T13:19:32Z</time>
      </trkpt>
      <trkpt lat="45.7526" lon="-0.13506">
        <ele>62.12890625</ele>
        <time>2017-12-08T13:19:33Z</time>
      </trkpt>
      <trkpt lat="45.75264" lon="-0.13509">
        <ele>61.8984375</ele>
        <time>2017-12-08T13:19:34Z</time>
      </trkpt>
      <trkpt lat="45.75267" lon="-0.13513">
        <ele>61.66015625</ele>
        <time>2017-12-08T13:19:35Z</time>
      </trkpt>
      <trkpt lat="45.75286" lon="-0.1353">
        <ele>61.43359375</ele>
        <time>2017-12-08T13:19:39Z</time>
      </trkpt>
      <trkpt lat="45.75296" lon="-0.13542">
        <ele>61.5</ele>
        <time>2017-12-08T13:19:41Z</time>
      </trkpt>
      <trkpt lat="45.7531" lon="-0.13559">
        <ele>62.03125</ele>
        <time>2017-12-08T13:19:44Z</time>
      </trkpt>
      <trkpt lat="45.75319" lon="-0.13571">
        <ele>62.63671875</ele>
        <time>2017-12-08T13:19:46Z</time>
      </trkpt>
      <trkpt lat="45.75322" lon="-0.13577">
        <ele>62.96484375</ele>
        <time>2017-12-08T13:19:47Z</time>
      </trkpt>
      <trkpt lat="45.75322" lon="-0.13584">
        <ele>63.234375</ele>
        <time>2017-12-08T13:19:48Z</time>
      </trkpt>
      <trkpt lat="45.7532" lon="-0.1359">
        <ele>63.34765625</ele>
        <time>2017-12-08T13:19:49Z</time>
      </trkpt>
      <trkpt lat="45.75317" lon="-0.13596">
        <ele>63.35546875</ele>
        <time>2017-12-08T13:19:50Z</time>
      </trkpt>
      <trkpt lat="45.75314" lon="-0.13602">
        <ele>63.3125</ele>
        <time>2017-12-08T13:19:51Z</time>
      </trkpt>
      <trkpt lat="45.75311" lon="-0.13608">
        <ele>63.2734375</ele>
        <time>2017-12-08T13:19:52Z</time>
      </trkpt>
      <trkpt lat="45.75295" lon="-0.13637">
        <ele>62.90625</ele>
        <time>2017-12-08T13:19:57Z</time>
      </trkpt>
      <trkpt lat="45.75294" lon="-0.13643">
        <ele>62.91796875</ele>
        <time>2017-12-08T13:19:58Z</time>
      </trkpt>
      <trkpt lat="45.75294" lon="-0.13649">
        <ele>63.0859375</ele>
        <time>2017-12-08T13:19:59Z</time>
      </trkpt>
      <trkpt lat="45.75295" lon="-0.13654">
        <ele>63.33203125</ele>
        <time>2017-12-08T13:20:00Z</time>
      </trkpt>
      <trkpt lat="45.75297" lon="-0.13658">
        <ele>63.578125</ele>
        <time>2017-12-08T13:20:01Z</time>
      </trkpt>
      <trkpt lat="45.75299" lon="-0.13661">
        <ele>63.83984375</ele>
        <time>2017-12-08T13:20:02Z</time>
      </trkpt>
      <trkpt lat="45.75301" lon="-0.13664">
        <ele>64.12109375</ele>
        <time>2017-12-08T13:20:03Z</time>
      </trkpt>
      <trkpt lat="45.75303" lon="-0.13666">
        <ele>64.41015625</ele>
        <time>2017-12-08T13:20:04Z</time>
      </trkpt>
      <trkpt lat="45.75314" lon="-0.13675">
        <ele>65.69140625</ele>
        <time>2017-12-08T13:20:09Z</time>
      </trkpt>
      <trkpt lat="45.7533" lon="-0.13693">
        <ele>67.796875</ele>
        <time>2017-12-08T13:20:18Z</time>
      </trkpt>
      <trkpt lat="45.75349" lon="-0.13716">
        <ele>70.375</ele>
        <time>2017-12-08T13:20:30Z</time>
      </trkpt>
      <trkpt lat="45.75349" lon="-0.13735">
        <ele>70.89453125</ele>
        <time>2017-12-08T13:20:37Z</time>
      </trkpt>
      <trkpt lat="45.75338" lon="-0.13763">
        <ele>70.87109375</ele>
        <time>2017-12-08T13:20:46Z</time>
      </trkpt>
      <trkpt lat="45.75324" lon="-0.13795">
        <ele>70.4921875</ele>
        <time>2017-12-08T13:20:55Z</time>
      </trkpt>
      <trkpt lat="45.75325" lon="-0.13814">
        <ele>70.94921875</ele>
        <time>2017-12-08T13:21:00Z</time>
      </trkpt>
      <trkpt lat="45.75328" lon="-0.13817">
        <ele>71.1640625</ele>
        <time>2017-12-08T13:21:01Z</time>
      </trkpt>
      <trkpt lat="45.7533" lon="-0.13819">
        <ele>71.3828125</ele>
        <time>2017-12-08T13:21:02Z</time>
      </trkpt>
      <trkpt lat="45.75353" lon="-0.13837">
        <ele>73.3125</ele>
        <time>2017-12-08T13:21:11Z</time>
      </trkpt>
      <trkpt lat="45.75364" lon="-0.1386">
        <ele>74.265625</ele>
        <time>2017-12-08T13:21:18Z</time>
      </trkpt>
      <trkpt lat="45.75377" lon="-0.13893">
        <ele>75.1328125</ele>
        <time>2017-12-08T13:21:27Z</time>
      </trkpt>
      <trkpt lat="45.75389" lon="-0.13924">
        <ele>76.359375</ele>
        <time>2017-12-08T13:21:36Z</time>
      </trkpt>
      <trkpt lat="45.75389" lon="-0.13955">
        <ele>76.828125</ele>
        <time>2017-12-08T13:21:44Z</time>
      </trkpt>
      <trkpt lat="45.75394" lon="-0.13977">
        <ele>77.3515625</ele>
        <time>2017-12-08T13:21:50Z</time>
      </trkpt>
      <trkpt lat="45.75404" lon="-0.14002">
        <ele>77.80859375</ele>
        <time>2017-12-08T13:21:57Z</time>
      </trkpt>
      <trkpt lat="45.75417" lon="-0.14031">
        <ele>77.88671875</ele>
        <time>2017-12-08T13:22:05Z</time>
      </trkpt>
      <trkpt lat="45.7542" lon="-0.14049">
        <ele>77.73046875</ele>
        <time>2017-12-08T13:22:09Z</time>
      </trkpt>
      <trkpt lat="45.75418" lon="-0.1407">
        <ele>77.58984375</ele>
        <time>2017-12-08T13:22:14Z</time>
      </trkpt>
      <trkpt lat="45.7542" lon="-0.14073">
        <ele>77.61328125</ele>
        <time>2017-12-08T13:22:15Z</time>
      </trkpt>
      <trkpt lat="45.75422" lon="-0.14075">
        <ele>77.6640625</ele>
        <time>2017-12-08T13:22:16Z</time>
      </trkpt>
      <trkpt lat="45.75424" lon="-0.14077">
        <ele>77.71875</ele>
        <time>2017-12-08T13:22:17Z</time>
      </trkpt>
      <trkpt lat="45.75426" lon="-0.14078">
        <ele>77.765625</ele>
        <time>2017-12-08T13:22:18Z</time>
      </trkpt>
      <trkpt lat="45.75428" lon="-0.14079">
        <ele>77.82421875</ele>
        <time>2017-12-08T13:22:19Z</time>
      </trkpt>
      <trkpt lat="45.75431" lon="-0.14079">
        <ele>77.890625</ele>
        <time>2017-12-08T13:22:20Z</time>
      </trkpt>
      <trkpt lat="45.75433" lon="-0.1408">
        <ele>77.96484375</ele>
        <time>2017-12-08T13:22:21Z</time>
      </trkpt>
      <trkpt lat="45.75436" lon="-0.14082">
        <ele>78.0234375</ele>
        <time>2017-12-08T13:22:22Z</time>
      </trkpt>
      <trkpt lat="45.75455" lon="-0.14104">
        <ele>78.33203125</ele>
        <time>2017-12-08T13:22:30Z</time>
      </trkpt>
      <trkpt lat="45.75457" lon="-0.14139">
        <ele>77.1015625</ele>
        <time>2017-12-08T13:22:37Z</time>
      </trkpt>
      <trkpt lat="45.75451" lon="-0.14192">
        <ele>75.50390625</ele>
        <time>2017-12-08T13:22:46Z</time>
      </trkpt>
      <trkpt lat="45.7545" lon="-0.14199">
        <ele>75.33984375</ele>
        <time>2017-12-08T13:22:47Z</time>
      </trkpt>
      <trkpt lat="45.75447" lon="-0.14262">
        <ele>74.12890625</ele>
        <time>2017-12-08T13:22:56Z</time>
      </trkpt>
      <trkpt lat="45.75447" lon="-0.14269">
        <ele>74.01171875</ele>
        <time>2017-12-08T13:22:57Z</time>
      </trkpt>
      <trkpt lat="45.75451" lon="-0.14326">
        <ele>71.98828125</ele>
        <time>2017-12-08T13:23:06Z</time>
      </trkpt>
      <trkpt lat="45.75452" lon="-0.14332">
        <ele>71.90625</ele>
        <time>2017-12-08T13:23:07Z</time>
      </trkpt>
      <trkpt lat="45.75453" lon="-0.14345">
        <ele>71.76171875</ele>
        <time>2017-12-08T13:23:09Z</time>
      </trkpt>
      <trkpt lat="45.75457" lon="-0.14357">
        <ele>71.65234375</ele>
        <time>2017-12-08T13:23:11Z</time>
      </trkpt>
      <trkpt lat="45.75459" lon="-0.14362">
        <ele>71.625</ele>
        <time>2017-12-08T13:23:12Z</time>
      </trkpt>
      <trkpt lat="45.75462" lon="-0.14366">
        <ele>71.6171875</ele>
        <time>2017-12-08T13:23:13Z</time>
      </trkpt>
      <trkpt lat="45.75464" lon="-0.1437">
        <ele>71.609375</ele>
        <time>2017-12-08T13:23:14Z</time>
      </trkpt>
      <trkpt lat="45.75466" lon="-0.14374">
        <ele>71.61328125</ele>
        <time>2017-12-08T13:23:15Z</time>
      </trkpt>
      <trkpt lat="45.75473" lon="-0.14397">
        <ele>71.69921875</ele>
        <time>2017-12-08T13:23:21Z</time>
      </trkpt>
      <trkpt lat="45.75474" lon="-0.14401">
        <ele>71.703125</ele>
        <time>2017-12-08T13:23:22Z</time>
      </trkpt>
      <trkpt lat="45.75474" lon="-0.14405">
        <ele>71.71484375</ele>
        <time>2017-12-08T13:23:23Z</time>
      </trkpt>
      <trkpt lat="45.75476" lon="-0.14409">
        <ele>71.73828125</ele>
        <time>2017-12-08T13:23:24Z</time>
      </trkpt>
      <trkpt lat="45.75488" lon="-0.14439">
        <ele>72.02734375</ele>
        <time>2017-12-08T13:23:32Z</time>
      </trkpt>
      <trkpt lat="45.75491" lon="-0.14468">
        <ele>72.60546875</ele>
        <time>2017-12-08T13:23:38Z</time>
      </trkpt>
      <trkpt lat="45.75491" lon="-0.14503">
        <ele>73.0234375</ele>
        <time>2017-12-08T13:23:45Z</time>
      </trkpt>
      <trkpt lat="45.75491" lon="-0.14533">
        <ele>73.01953125</ele>
        <time>2017-12-08T13:23:51Z</time>
      </trkpt>
      <trkpt lat="45.75499" lon="-0.14562">
        <ele>73.16015625</ele>
        <time>2017-12-08T13:23:57Z</time>
      </trkpt>
      <trkpt lat="45.75509" lon="-0.14594">
        <ele>73.3359375</ele>
        <time>2017-12-08T13:24:04Z</time>
      </trkpt>
      <trkpt lat="45.75512" lon="-0.14609">
        <ele>73.265625</ele>
        <time>2017-12-08T13:24:07Z</time>
      </trkpt>
      <trkpt lat="45.75514" lon="-0.14613">
        <ele>73.23828125</ele>
        <time>2017-12-08T13:24:08Z</time>
      </trkpt>
      <trkpt lat="45.75516" lon="-0.14616">
        <ele>73.234375</ele>
        <time>2017-12-08T13:24:09Z</time>
      </trkpt>
      <trkpt lat="45.75519" lon="-0.14619">
        <ele>73.2109375</ele>
        <time>2017-12-08T13:24:10Z</time>
      </trkpt>
      <trkpt lat="45.75521" lon="-0.14623">
        <ele>73.18359375</ele>
        <time>2017-12-08T13:24:11Z</time>
      </trkpt>
      <trkpt lat="45.75524" lon="-0.14626">
        <ele>73.1875</ele>
        <time>2017-12-08T13:24:12Z</time>
      </trkpt>
      <trkpt lat="45.75526" lon="-0.14629">
        <ele>73.16796875</ele>
        <time>2017-12-08T13:24:13Z</time>
      </trkpt>
      <trkpt lat="45.75528" lon="-0.14632">
        <ele>73.16015625</ele>
        <time>2017-12-08T13:24:14Z</time>
      </trkpt>
      <trkpt lat="45.75547" lon="-0.14653">
        <ele>73.1171875</ele>
        <time>2017-12-08T13:24:21Z</time>
      </trkpt>
      <trkpt lat="45.75565" lon="-0.14676">
        <ele>73.3671875</ele>
        <time>2017-12-08T13:24:28Z</time>
      </trkpt>
      <trkpt lat="45.75582" lon="-0.14696">
        <ele>73.6171875</ele>
        <time>2017-12-08T13:24:34Z</time>
      </trkpt>
      <trkpt lat="45.75606" lon="-0.14714">
        <ele>73.9921875</ele>
        <time>2017-12-08T13:24:41Z</time>
      </trkpt>
      <trkpt lat="45.75631" lon="-0.14721">
        <ele>73.86328125</ele>
        <time>2017-12-08T13:24:48Z</time>
      </trkpt>
      <trkpt lat="45.7566" lon="-0.14725">
        <ele>73.7890625</ele>
        <time>2017-12-08T13:24:56Z</time>
      </trkpt>
      <trkpt lat="45.75686" lon="-0.14734">
        <ele>73.6328125</ele>
        <time>2017-12-08T13:25:03Z</time>
      </trkpt>
      <trkpt lat="45.75716" lon="-0.14742">
        <ele>73.55078125</ele>
        <time>2017-12-08T13:25:10Z</time>
      </trkpt>
      <trkpt lat="45.75734" lon="-0.14758">
        <ele>73.5859375</ele>
        <time>2017-12-08T13:25:15Z</time>
      </trkpt>
      <trkpt lat="45.75755" lon="-0.14778">
        <ele>73.51171875</ele>
        <time>2017-12-08T13:25:21Z</time>
      </trkpt>
      <trkpt lat="45.7576" lon="-0.14783">
        <ele>73.41015625</ele>
        <time>2017-12-08T13:25:23Z</time>
      </trkpt>
      <trkpt lat="45.75762" lon="-0.14787">
        <ele>73.3046875</ele>
        <time>2017-12-08T13:25:24Z</time>
      </trkpt>
      <trkpt lat="45.75762" lon="-0.14792">
        <ele>73.15625</ele>
        <time>2017-12-08T13:25:25Z</time>
      </trkpt>
      <trkpt lat="45.75763" lon="-0.14798">
        <ele>72.96875</ele>
        <time>2017-12-08T13:25:26Z</time>
      </trkpt>
      <trkpt lat="45.75763" lon="-0.14803">
        <ele>72.77734375</ele>
        <time>2017-12-08T13:25:27Z</time>
      </trkpt>
      <trkpt lat="45.75763" lon="-0.14843">
        <ele>71.7421875</ele>
        <time>2017-12-08T13:25:32Z</time>
      </trkpt>
      <trkpt lat="45.75763" lon="-0.14925">
        <ele>69.47265625</ele>
        <time>2017-12-08T13:25:41Z</time>
      </trkpt>
      <trkpt lat="45.75763" lon="-0.14933">
        <ele>69.1796875</ele>
        <time>2017-12-08T13:25:42Z</time>
      </trkpt>
      <trkpt lat="45.75757" lon="-0.14992">
        <ele>67.34375</ele>
        <time>2017-12-08T13:25:49Z</time>
      </trkpt>
      <trkpt lat="45.75743" lon="-0.15066">
        <ele>66.08984375</ele>
        <time>2017-12-08T13:25:58Z</time>
      </trkpt>
      <trkpt lat="45.75741" lon="-0.15118">
        <ele>64.89453125</ele>
        <time>2017-12-08T13:26:04Z</time>
      </trkpt>
      <trkpt lat="45.75743" lon="-0.15161">
        <ele>63.35546875</ele>
        <time>2017-12-08T13:26:09Z</time>
      </trkpt>
      <trkpt lat="45.75742" lon="-0.1517">
        <ele>63.13671875</ele>
        <time>2017-12-08T13:26:10Z</time>
      </trkpt>
      <trkpt lat="45.7574" lon="-0.15179">
        <ele>62.9296875</ele>
        <time>2017-12-08T13:26:11Z</time>
      </trkpt>
      <trkpt lat="45.75736" lon="-0.15197">
        <ele>62.4609375</ele>
        <time>2017-12-08T13:26:13Z</time>
      </trkpt>
      <trkpt lat="45.7573" lon="-0.15264">
        <ele>62</ele>
        <time>2017-12-08T13:26:20Z</time>
      </trkpt>
      <trkpt lat="45.75724" lon="-0.1532">
        <ele>62.203125</ele>
        <time>2017-12-08T13:26:27Z</time>
      </trkpt>
      <trkpt lat="45.75725" lon="-0.15357">
        <ele>62.8203125</ele>
        <time>2017-12-08T13:26:33Z</time>
      </trkpt>
      <trkpt lat="45.75724" lon="-0.15374">
        <ele>63.125</ele>
        <time>2017-12-08T13:26:36Z</time>
      </trkpt>
      <trkpt lat="45.75722" lon="-0.15445">
        <ele>65.1875</ele>
        <time>2017-12-08T13:26:48Z</time>
      </trkpt>
      <trkpt lat="45.7572" lon="-0.1548">
        <ele>65.81640625</ele>
        <time>2017-12-08T13:26:54Z</time>
      </trkpt>
      <trkpt lat="45.75713" lon="-0.15536">
        <ele>66.0078125</ele>
        <time>2017-12-08T13:27:04Z</time>
      </trkpt>
      <trkpt lat="45.75704" lon="-0.15589">
        <ele>65.8515625</ele>
        <time>2017-12-08T13:27:13Z</time>
      </trkpt>
      <trkpt lat="45.75697" lon="-0.15635">
        <ele>65.73046875</ele>
        <time>2017-12-08T13:27:21Z</time>
      </trkpt>
      <trkpt lat="45.75697" lon="-0.15641">
        <ele>65.734375</ele>
        <time>2017-12-08T13:27:22Z</time>
      </trkpt>
      <trkpt lat="45.75698" lon="-0.15647">
        <ele>65.73828125</ele>
        <time>2017-12-08T13:27:23Z</time>
      </trkpt>
      <trkpt lat="45.75695" lon="-0.15677">
        <ele>65.34765625</ele>
        <time>2017-12-08T13:27:28Z</time>
      </trkpt>
      <trkpt lat="45.75695" lon="-0.15682">
        <ele>65.234375</ele>
        <time>2017-12-08T13:27:29Z</time>
      </trkpt>
      <trkpt lat="45.75695" lon="-0.15688">
        <ele>65.1328125</ele>
        <time>2017-12-08T13:27:30Z</time>
      </trkpt>
      <trkpt lat="45.75695" lon="-0.15694">
        <ele>65.0234375</ele>
        <time>2017-12-08T13:27:31Z</time>
      </trkpt>
      <trkpt lat="45.75694" lon="-0.157">
        <ele>64.91796875</ele>
        <time>2017-12-08T13:27:32Z</time>
      </trkpt>
      <trkpt lat="45.75692" lon="-0.15761">
        <ele>64.640625</ele>
        <time>2017-12-08T13:27:42Z</time>
      </trkpt>
      <trkpt lat="45.7569" lon="-0.15829">
        <ele>64.6875</ele>
        <time>2017-12-08T13:27:53Z</time>
      </trkpt>
      <trkpt lat="45.7569" lon="-0.15834">
        <ele>64.78515625</ele>
        <time>2017-12-08T13:27:54Z</time>
      </trkpt>
      <trkpt lat="45.75687" lon="-0.15888">
        <ele>65.62890625</ele>
        <time>2017-12-08T13:28:04Z</time>
      </trkpt>
      <trkpt lat="45.75686" lon="-0.15898">
        <ele>65.71875</ele>
        <time>2017-12-08T13:28:06Z</time>
      </trkpt>
      <trkpt lat="45.75683" lon="-0.15966">
        <ele>66.25390625</ele>
        <time>2017-12-08T13:28:19Z</time>
      </trkpt>
      <trkpt lat="45.75681" lon="-0.16018">
        <ele>65.94140625</ele>
        <time>2017-12-08T13:28:29Z</time>
      </trkpt>
      <trkpt lat="45.75679" lon="-0.16055">
        <ele>65.3984375</ele>
        <time>2017-12-08T13:28:36Z</time>
      </trkpt>
      <trkpt lat="45.75676" lon="-0.16082">
        <ele>65.34375</ele>
        <time>2017-12-08T13:28:41Z</time>
      </trkpt>
      <trkpt lat="45.75675" lon="-0.16088">
        <ele>65.3359375</ele>
        <time>2017-12-08T13:28:42Z</time>
      </trkpt>
      <trkpt lat="45.7567" lon="-0.16144">
        <ele>64.6640625</ele>
        <time>2017-12-08T13:28:52Z</time>
      </trkpt>
      <trkpt lat="45.75666" lon="-0.16177">
        <ele>64.28515625</ele>
        <time>2017-12-08T13:28:58Z</time>
      </trkpt>
      <trkpt lat="45.75663" lon="-0.16209">
        <ele>64.12109375</ele>
        <time>2017-12-08T13:29:05Z</time>
      </trkpt>
      <trkpt lat="45.75661" lon="-0.16245">
        <ele>64.08203125</ele>
        <time>2017-12-08T13:29:13Z</time>
      </trkpt>
      <trkpt lat="45.75662" lon="-0.16262">
        <ele>64.1015625</ele>
        <time>2017-12-08T13:29:17Z</time>
      </trkpt>
      <trkpt lat="45.75664" lon="-0.16266">
        <ele>64.13671875</ele>
        <time>2017-12-08T13:29:18Z</time>
      </trkpt>
      <trkpt lat="45.75667" lon="-0.16268">
        <ele>64.171875</ele>
        <time>2017-12-08T13:29:19Z</time>
      </trkpt>
      <trkpt lat="45.75669" lon="-0.16269">
        <ele>64.20703125</ele>
        <time>2017-12-08T13:29:20Z</time>
      </trkpt>
      <trkpt lat="45.75672" lon="-0.16269">
        <ele>64.26171875</ele>
        <time>2017-12-08T13:29:21Z</time>
      </trkpt>
      <trkpt lat="45.75676" lon="-0.16269">
        <ele>64.32421875</ele>
        <time>2017-12-08T13:29:22Z</time>
      </trkpt>
      <trkpt lat="45.75679" lon="-0.16268">
        <ele>64.39453125</ele>
        <time>2017-12-08T13:29:23Z</time>
      </trkpt>
      <trkpt lat="45.75683" lon="-0.16268">
        <ele>64.46875</ele>
        <time>2017-12-08T13:29:24Z</time>
      </trkpt>
      <trkpt lat="45.75715" lon="-0.1626">
        <ele>65.0078125</ele>
        <time>2017-12-08T13:29:33Z</time>
      </trkpt>
      <trkpt lat="45.75748" lon="-0.16254">
        <ele>65.1640625</ele>
        <time>2017-12-08T13:29:42Z</time>
      </trkpt>
      <trkpt lat="45.75783" lon="-0.16247">
        <ele>65.46875</ele>
        <time>2017-12-08T13:29:51Z</time>
      </trkpt>
      <trkpt lat="45.75821" lon="-0.16241">
        <ele>65.95703125</ele>
        <time>2017-12-08T13:30:01Z</time>
      </trkpt>
      <trkpt lat="45.7586" lon="-0.16234">
        <ele>66.234375</ele>
        <time>2017-12-08T13:30:11Z</time>
      </trkpt>
      <trkpt lat="45.75896" lon="-0.16227">
        <ele>66.46875</ele>
        <time>2017-12-08T13:30:20Z</time>
      </trkpt>
      <trkpt lat="45.75946" lon="-0.16218">
        <ele>66.56640625</ele>
        <time>2017-12-08T13:30:32Z</time>
      </trkpt>
      <trkpt lat="45.75988" lon="-0.16212">
        <ele>66.05078125</ele>
        <time>2017-12-08T13:30:42Z</time>
      </trkpt>
      <trkpt lat="45.7603" lon="-0.16205">
        <ele>66.2578125</ele>
        <time>2017-12-08T13:30:52Z</time>
      </trkpt>
      <trkpt lat="45.7607" lon="-0.16199">
        <ele>66.02734375</ele>
        <time>2017-12-08T13:31:01Z</time>
      </trkpt>
      <trkpt lat="45.7612" lon="-0.16191">
        <ele>65.63671875</ele>
        <time>2017-12-08T13:31:12Z</time>
      </trkpt>
      <trkpt lat="45.76157" lon="-0.16185">
        <ele>65.5</ele>
        <time>2017-12-08T13:31:21Z</time>
      </trkpt>
      <trkpt lat="45.76187" lon="-0.16179">
        <ele>65.59765625</ele>
        <time>2017-12-08T13:31:29Z</time>
      </trkpt>
      <trkpt lat="45.76231" lon="-0.16174">
        <ele>65.35546875</ele>
        <time>2017-12-08T13:31:39Z</time>
      </trkpt>
      <trkpt lat="45.76252" lon="-0.16171">
        <ele>65.02734375</ele>
        <time>2017-12-08T13:31:44Z</time>
      </trkpt>
      <trkpt lat="45.76255" lon="-0.16173">
        <ele>64.92578125</ele>
        <time>2017-12-08T13:31:45Z</time>
      </trkpt>
      <trkpt lat="45.76258" lon="-0.16176">
        <ele>64.80859375</ele>
        <time>2017-12-08T13:31:46Z</time>
      </trkpt>
      <trkpt lat="45.7626" lon="-0.16181">
        <ele>64.6875</ele>
        <time>2017-12-08T13:31:47Z</time>
      </trkpt>
      <trkpt lat="45.76262" lon="-0.16187">
        <ele>64.5625</ele>
        <time>2017-12-08T13:31:48Z</time>
      </trkpt>
      <trkpt lat="45.76263" lon="-0.16193">
        <ele>64.44140625</ele>
        <time>2017-12-08T13:31:49Z</time>
      </trkpt>
      <trkpt lat="45.7627" lon="-0.16248">
        <ele>63.29296875</ele>
        <time>2017-12-08T13:31:57Z</time>
      </trkpt>
      <trkpt lat="45.76279" lon="-0.16329">
        <ele>62.6875</ele>
        <time>2017-12-08T13:32:07Z</time>
      </trkpt>
      <trkpt lat="45.7629" lon="-0.16441">
        <ele>61.48046875</ele>
        <time>2017-12-08T13:32:20Z</time>
      </trkpt>
      <trkpt lat="45.76305" lon="-0.16552">
        <ele>59.28515625</ele>
        <time>2017-12-08T13:32:33Z</time>
      </trkpt>
      <trkpt lat="45.76323" lon="-0.16645">
        <ele>58.19921875</ele>
        <time>2017-12-08T13:32:44Z</time>
      </trkpt>
      <trkpt lat="45.76338" lon="-0.16724">
        <ele>56.5625</ele>
        <time>2017-12-08T13:32:53Z</time>
      </trkpt>
      <trkpt lat="45.76354" lon="-0.16839">
        <ele>55.15234375</ele>
        <time>2017-12-08T13:33:06Z</time>
      </trkpt>
      <trkpt lat="45.76363" lon="-0.16908">
        <ele>54.1328125</ele>
        <time>2017-12-08T13:33:15Z</time>
      </trkpt>
      <trkpt lat="45.76369" lon="-0.1695">
        <ele>53.72265625</ele>
        <time>2017-12-08T13:33:22Z</time>
      </trkpt>
      <trkpt lat="45.76376" lon="-0.16991">
        <ele>52.96875</ele>
        <time>2017-12-08T13:33:28Z</time>
      </trkpt>
      <trkpt lat="45.76377" lon="-0.17014">
        <ele>52.5703125</ele>
        <time>2017-12-08T13:33:31Z</time>
      </trkpt>
      <trkpt lat="45.76382" lon="-0.17076">
        <ele>51.41015625</ele>
        <time>2017-12-08T13:33:39Z</time>
      </trkpt>
      <trkpt lat="45.76383" lon="-0.17084">
        <ele>51.2734375</ele>
        <time>2017-12-08T13:33:40Z</time>
      </trkpt>
      <trkpt lat="45.76383" lon="-0.17092">
        <ele>51.1484375</ele>
        <time>2017-12-08T13:33:41Z</time>
      </trkpt>
      <trkpt lat="45.76385" lon="-0.17098">
        <ele>51.03515625</ele>
        <time>2017-12-08T13:33:42Z</time>
      </trkpt>
      <trkpt lat="45.76388" lon="-0.17105">
        <ele>50.98828125</ele>
        <time>2017-12-08T13:33:43Z</time>
      </trkpt>
      <trkpt lat="45.76389" lon="-0.17112">
        <ele>50.9609375</ele>
        <time>2017-12-08T13:33:44Z</time>
      </trkpt>
      <trkpt lat="45.76392" lon="-0.17118">
        <ele>50.92578125</ele>
        <time>2017-12-08T13:33:45Z</time>
      </trkpt>
      <trkpt lat="45.76395" lon="-0.17124">
        <ele>50.87890625</ele>
        <time>2017-12-08T13:33:46Z</time>
      </trkpt>
      <trkpt lat="45.76403" lon="-0.17142">
        <ele>50.67578125</ele>
        <time>2017-12-08T13:33:49Z</time>
      </trkpt>
      <trkpt lat="45.76413" lon="-0.17174">
        <ele>50.265625</ele>
        <time>2017-12-08T13:33:54Z</time>
      </trkpt>
      <trkpt lat="45.76414" lon="-0.1718">
        <ele>50.203125</ele>
        <time>2017-12-08T13:33:55Z</time>
      </trkpt>
      <trkpt lat="45.76417" lon="-0.17184">
        <ele>50.15234375</ele>
        <time>2017-12-08T13:33:56Z</time>
      </trkpt>
      <trkpt lat="45.76422" lon="-0.17185">
        <ele>50.109375</ele>
        <time>2017-12-08T13:33:57Z</time>
      </trkpt>
      <trkpt lat="45.76426" lon="-0.17184">
        <ele>50.0703125</ele>
        <time>2017-12-08T13:33:58Z</time>
      </trkpt>
      <trkpt lat="45.7643" lon="-0.17183">
        <ele>50.03125</ele>
        <time>2017-12-08T13:33:59Z</time>
      </trkpt>
      <trkpt lat="45.76461" lon="-0.17175">
        <ele>49.5078125</ele>
        <time>2017-12-08T13:34:06Z</time>
      </trkpt>
      <trkpt lat="45.76498" lon="-0.17162">
        <ele>48.984375</ele>
        <time>2017-12-08T13:34:14Z</time>
      </trkpt>
      <trkpt lat="45.76512" lon="-0.17159">
        <ele>48.98046875</ele>
        <time>2017-12-08T13:34:18Z</time>
      </trkpt>
      <trkpt lat="45.76513" lon="-0.17162">
        <ele>48.953125</ele>
        <time>2017-12-08T13:34:19Z</time>
      </trkpt>
      <trkpt lat="45.7652" lon="-0.17181">
        <ele>48.7578125</ele>
        <time>2017-12-08T13:34:23Z</time>
      </trkpt>
      <trkpt lat="45.76526" lon="-0.17206">
        <ele>48.4140625</ele>
        <time>2017-12-08T13:34:27Z</time>
      </trkpt>
      <trkpt lat="45.76529" lon="-0.17227">
        <ele>48.00390625</ele>
        <time>2017-12-08T13:34:30Z</time>
      </trkpt>
      <trkpt lat="45.76529" lon="-0.17235">
        <ele>47.87109375</ele>
        <time>2017-12-08T13:34:31Z</time>
      </trkpt>
      <trkpt lat="45.76528" lon="-0.17241">
        <ele>47.7734375</ele>
        <time>2017-12-08T13:34:32Z</time>
      </trkpt>
      <trkpt lat="45.76525" lon="-0.17254">
        <ele>47.59765625</ele>
        <time>2017-12-08T13:34:34Z</time>
      </trkpt>
      <trkpt lat="45.76525" lon="-0.1726">
        <ele>47.484375</ele>
        <time>2017-12-08T13:34:35Z</time>
      </trkpt>
      <trkpt lat="45.76526" lon="-0.17266">
        <ele>47.36328125</ele>
        <time>2017-12-08T13:34:36Z</time>
      </trkpt>
      <trkpt lat="45.76537" lon="-0.17314">
        <ele>47.0234375</ele>
        <time>2017-12-08T13:34:43Z</time>
      </trkpt>
      <trkpt lat="45.76545" lon="-0.17375">
        <ele>46.0546875</ele>
        <time>2017-12-08T13:34:51Z</time>
      </trkpt>
      <trkpt lat="45.76558" lon="-0.17458">
        <ele>45.32421875</ele>
        <time>2017-12-08T13:35:02Z</time>
      </trkpt>
      <trkpt lat="45.76583" lon="-0.17557">
        <ele>44</ele>
        <time>2017-12-08T13:35:15Z</time>
      </trkpt>
      <trkpt lat="45.76603" lon="-0.17635">
        <ele>43.40234375</ele>
        <time>2017-12-08T13:35:25Z</time>
      </trkpt>
      <trkpt lat="45.76625" lon="-0.17714">
        <ele>42.9765625</ele>
        <time>2017-12-08T13:35:35Z</time>
      </trkpt>
      <trkpt lat="45.76648" lon="-0.17795">
        <ele>42.42578125</ele>
        <time>2017-12-08T13:35:45Z</time>
      </trkpt>
      <trkpt lat="45.76665" lon="-0.17853">
        <ele>42</ele>
        <time>2017-12-08T13:35:52Z</time>
      </trkpt>
      <trkpt lat="45.76684" lon="-0.1792">
        <ele>42</ele>
        <time>2017-12-08T13:36:00Z</time>
      </trkpt>
      <trkpt lat="45.767" lon="-0.17983">
        <ele>41.109375</ele>
        <time>2017-12-08T13:36:09Z</time>
      </trkpt>
      <trkpt lat="45.76711" lon="-0.1802">
        <ele>41</ele>
        <time>2017-12-08T13:36:15Z</time>
      </trkpt>
      <trkpt lat="45.76713" lon="-0.18026">
        <ele>41.01171875</ele>
        <time>2017-12-08T13:36:16Z</time>
      </trkpt>
      <trkpt lat="45.76716" lon="-0.18031">
        <ele>41.01953125</ele>
        <time>2017-12-08T13:36:17Z</time>
      </trkpt>
      <trkpt lat="45.7672" lon="-0.18035">
        <ele>41.02734375</ele>
        <time>2017-12-08T13:36:18Z</time>
      </trkpt>
      <trkpt lat="45.76724" lon="-0.18037">
        <ele>41.03125</ele>
        <time>2017-12-08T13:36:19Z</time>
      </trkpt>
      <trkpt lat="45.76729" lon="-0.18037">
        <ele>41.0390625</ele>
        <time>2017-12-08T13:36:20Z</time>
      </trkpt>
      <trkpt lat="45.76733" lon="-0.18036">
        <ele>41.05859375</ele>
        <time>2017-12-08T13:36:21Z</time>
      </trkpt>
      <trkpt lat="45.76737" lon="-0.18035">
        <ele>41.078125</ele>
        <time>2017-12-08T13:36:22Z</time>
      </trkpt>
      <trkpt lat="45.76757" lon="-0.18029">
        <ele>41.234375</ele>
        <time>2017-12-08T13:36:28Z</time>
      </trkpt>
      <trkpt lat="45.7676" lon="-0.1803">
        <ele>41.234375</ele>
        <time>2017-12-08T13:36:29Z</time>
      </trkpt>
      <trkpt lat="45.76763" lon="-0.18032">
        <ele>41.20703125</ele>
        <time>2017-12-08T13:36:30Z</time>
      </trkpt>
      <trkpt lat="45.76765" lon="-0.18035">
        <ele>41.15625</ele>
        <time>2017-12-08T13:36:31Z</time>
      </trkpt>
      <trkpt lat="45.76766" lon="-0.18039">
        <ele>41.1015625</ele>
        <time>2017-12-08T13:36:32Z</time>
      </trkpt>
      <trkpt lat="45.76768" lon="-0.18045">
        <ele>41</ele>
        <time>2017-12-08T13:36:34Z</time>
      </trkpt>
      <trkpt lat="45.76767" lon="-0.18048">
        <ele>41</ele>
        <time>2017-12-08T13:36:35Z</time>
      </trkpt>
      <trkpt lat="45.76767" lon="-0.18051">
        <ele>41</ele>
        <time>2017-12-08T13:36:36Z</time>
      </trkpt>
      <trkpt lat="45.76767" lon="-0.18053">
        <ele>41</ele>
        <time>2017-12-08T13:36:37Z</time>
      </trkpt>
      <trkpt lat="45.76767" lon="-0.18056">
        <ele>41</ele>
        <time>2017-12-08T13:36:38Z</time>
      </trkpt>
      <trkpt lat="45.76767" lon="-0.18058">
        <ele>41</ele>
        <time>2017-12-08T13:36:39Z</time>
      </trkpt>
      <trkpt lat="45.76768" lon="-0.1806">
        <ele>41</ele>
        <time>2017-12-08T13:36:40Z</time>
      </trkpt>
      <trkpt lat="45.76769" lon="-0.18062">
        <ele>41</ele>
        <time>2017-12-08T13:36:41Z</time>
      </trkpt>
      <trkpt lat="45.76769" lon="-0.18064">
        <ele>41</ele>
        <time>2017-12-08T13:36:42Z</time>
      </trkpt>
      <trkpt lat="45.7677" lon="-0.18067">
        <ele>41</ele>
        <time>2017-12-08T13:36:43Z</time>
      </trkpt>
      <trkpt lat="45.7677" lon="-0.1807">
        <ele>41</ele>
        <time>2017-12-08T13:36:44Z</time>
      </trkpt>
      <trkpt lat="45.76779" lon="-0.18096">
        <ele>41</ele>
        <time>2017-12-08T13:36:52Z</time>
      </trkpt>
      <trkpt lat="45.7679" lon="-0.18123">
        <ele>40.59375</ele>
        <time>2017-12-08T13:36:59Z</time>
      </trkpt>
      <trkpt lat="45.76791" lon="-0.18131">
        <ele>40.4453125</ele>
        <time>2017-12-08T13:37:01Z</time>
      </trkpt>
      <trkpt lat="45.76791" lon="-0.18135">
        <ele>40.37109375</ele>
        <time>2017-12-08T13:37:02Z</time>
      </trkpt>
      <trkpt lat="45.76789" lon="-0.18139">
        <ele>40.30078125</ele>
        <time>2017-12-08T13:37:03Z</time>
      </trkpt>
      <trkpt lat="45.76787" lon="-0.18143">
        <ele>40.234375</ele>
        <time>2017-12-08T13:37:04Z</time>
      </trkpt>
      <trkpt lat="45.76784" lon="-0.18146">
        <ele>40.171875</ele>
        <time>2017-12-08T13:37:05Z</time>
      </trkpt>
      <trkpt lat="45.76756" lon="-0.18177">
        <ele>40</ele>
        <time>2017-12-08T13:37:13Z</time>
      </trkpt>
      <trkpt lat="45.76736" lon="-0.18196">
        <ele>40</ele>
        <time>2017-12-08T13:37:18Z</time>
      </trkpt>
      <trkpt lat="45.76733" lon="-0.182">
        <ele>40</ele>
        <time>2017-12-08T13:37:19Z</time>
      </trkpt>
      <trkpt lat="45.76729" lon="-0.18203">
        <ele>40</ele>
        <time>2017-12-08T13:37:20Z</time>
      </trkpt>
      <trkpt lat="45.76716" lon="-0.18218">
        <ele>39.98828125</ele>
        <time>2017-12-08T13:37:24Z</time>
      </trkpt>
      <trkpt lat="45.76716" lon="-0.18224">
        <ele>39.984375</ele>
        <time>2017-12-08T13:37:25Z</time>
      </trkpt>
      <trkpt lat="45.76716" lon="-0.18229">
        <ele>39.97265625</ele>
        <time>2017-12-08T13:37:26Z</time>
      </trkpt>
      <trkpt lat="45.76718" lon="-0.18234">
        <ele>39.953125</ele>
        <time>2017-12-08T13:37:27Z</time>
      </trkpt>
      <trkpt lat="45.7672" lon="-0.18239">
        <ele>39.92578125</ele>
        <time>2017-12-08T13:37:28Z</time>
      </trkpt>
      <trkpt lat="45.76731" lon="-0.18266">
        <ele>39.66015625</ele>
        <time>2017-12-08T13:37:33Z</time>
      </trkpt>
      <trkpt lat="45.76754" lon="-0.18323">
        <ele>39</ele>
        <time>2017-12-08T13:37:42Z</time>
      </trkpt>
      <trkpt lat="45.76767" lon="-0.18354">
        <ele>39</ele>
        <time>2017-12-08T13:37:47Z</time>
      </trkpt>
      <trkpt lat="45.7677" lon="-0.1836">
        <ele>39</ele>
        <time>2017-12-08T13:37:48Z</time>
      </trkpt>
      <trkpt lat="45.76799" lon="-0.18422">
        <ele>38.65625</ele>
        <time>2017-12-08T13:37:58Z</time>
      </trkpt>
      <trkpt lat="45.76801" lon="-0.18429">
        <ele>38.64453125</ele>
        <time>2017-12-08T13:37:59Z</time>
      </trkpt>
      <trkpt lat="45.76803" lon="-0.18437">
        <ele>38.64453125</ele>
        <time>2017-12-08T13:38:00Z</time>
      </trkpt>
      <trkpt lat="45.76815" lon="-0.185">
        <ele>38.859375</ele>
        <time>2017-12-08T13:38:08Z</time>
      </trkpt>
      <trkpt lat="45.76816" lon="-0.18522">
        <ele>38.8828125</ele>
        <time>2017-12-08T13:38:11Z</time>
      </trkpt>
      <trkpt lat="45.76816" lon="-0.1853">
        <ele>38.875</ele>
        <time>2017-12-08T13:38:12Z</time>
      </trkpt>
      <trkpt lat="45.76815" lon="-0.18537">
        <ele>38.859375</ele>
        <time>2017-12-08T13:38:13Z</time>
      </trkpt>
      <trkpt lat="45.76814" lon="-0.18545">
        <ele>38.83984375</ele>
        <time>2017-12-08T13:38:14Z</time>
      </trkpt>
      <trkpt lat="45.76812" lon="-0.18552">
        <ele>38.81640625</ele>
        <time>2017-12-08T13:38:15Z</time>
      </trkpt>
      <trkpt lat="45.76797" lon="-0.18635">
        <ele>38.83203125</ele>
        <time>2017-12-08T13:38:26Z</time>
      </trkpt>
      <trkpt lat="45.76796" lon="-0.1865">
        <ele>38.95703125</ele>
        <time>2017-12-08T13:38:28Z</time>
      </trkpt>
      <trkpt lat="45.76796" lon="-0.18658">
        <ele>39</ele>
        <time>2017-12-08T13:38:29Z</time>
      </trkpt>
      <trkpt lat="45.76802" lon="-0.18711">
        <ele>39</ele>
        <time>2017-12-08T13:38:36Z</time>
      </trkpt>
      <trkpt lat="45.76811" lon="-0.18748">
        <ele>38.859375</ele>
        <time>2017-12-08T13:38:41Z</time>
      </trkpt>
      <trkpt lat="45.76831" lon="-0.18802">
        <ele>39.30078125</ele>
        <time>2017-12-08T13:38:49Z</time>
      </trkpt>
      <trkpt lat="45.76856" lon="-0.1887">
        <ele>40.22265625</ele>
        <time>2017-12-08T13:39:00Z</time>
      </trkpt>
      <trkpt lat="45.76879" lon="-0.18932">
        <ele>40.03125</ele>
        <time>2017-12-08T13:39:10Z</time>
      </trkpt>
      <trkpt lat="45.76888" lon="-0.18958">
        <ele>40.171875</ele>
        <time>2017-12-08T13:39:14Z</time>
      </trkpt>
      <trkpt lat="45.76906" lon="-0.19018">
        <ele>39.69921875</ele>
        <time>2017-12-08T13:39:23Z</time>
      </trkpt>
      <trkpt lat="45.76913" lon="-0.19038">
        <ele>39.16796875</ele>
        <time>2017-12-08T13:39:26Z</time>
      </trkpt>
      <trkpt lat="45.76935" lon="-0.19111">
        <ele>39.0234375</ele>
        <time>2017-12-08T13:39:37Z</time>
      </trkpt>
      <trkpt lat="45.76941" lon="-0.19169">
        <ele>39.1328125</ele>
        <time>2017-12-08T13:39:45Z</time>
      </trkpt>
      <trkpt lat="45.7694" lon="-0.19183">
        <ele>39.12109375</ele>
        <time>2017-12-08T13:39:47Z</time>
      </trkpt>
      <trkpt lat="45.76935" lon="-0.19227">
        <ele>39.3046875</ele>
        <time>2017-12-08T13:39:53Z</time>
      </trkpt>
      <trkpt lat="45.76932" lon="-0.19233">
        <ele>39.38671875</ele>
        <time>2017-12-08T13:39:54Z</time>
      </trkpt>
      <trkpt lat="45.76928" lon="-0.19238">
        <ele>39.4453125</ele>
        <time>2017-12-08T13:39:55Z</time>
      </trkpt>
      <trkpt lat="45.76924" lon="-0.19242">
        <ele>39.46875</ele>
        <time>2017-12-08T13:39:56Z</time>
      </trkpt>
      <trkpt lat="45.76919" lon="-0.19245">
        <ele>39.46484375</ele>
        <time>2017-12-08T13:39:57Z</time>
      </trkpt>
      <trkpt lat="45.76914" lon="-0.19248">
        <ele>39.4453125</ele>
        <time>2017-12-08T13:39:58Z</time>
      </trkpt>
      <trkpt lat="45.76859" lon="-0.19283">
        <ele>38.66015625</ele>
        <time>2017-12-08T13:40:08Z</time>
      </trkpt>
      <trkpt lat="45.76798" lon="-0.1932">
        <ele>37.55078125</ele>
        <time>2017-12-08T13:40:18Z</time>
      </trkpt>
      <trkpt lat="45.76736" lon="-0.19357">
        <ele>37</ele>
        <time>2017-12-08T13:40:28Z</time>
      </trkpt>
      <trkpt lat="45.76688" lon="-0.19394">
        <ele>37</ele>
        <time>2017-12-08T13:40:36Z</time>
      </trkpt>
      <trkpt lat="45.76642" lon="-0.19438">
        <ele>37</ele>
        <time>2017-12-08T13:40:44Z</time>
      </trkpt>
      <trkpt lat="45.76604" lon="-0.19473">
        <ele>37</ele>
        <time>2017-12-08T13:40:51Z</time>
      </trkpt>
      <trkpt lat="45.76569" lon="-0.19497">
        <ele>37.0703125</ele>
        <time>2017-12-08T13:40:57Z</time>
      </trkpt>
      <trkpt lat="45.76525" lon="-0.19521">
        <ele>37</ele>
        <time>2017-12-08T13:41:04Z</time>
      </trkpt>
      <trkpt lat="45.76454" lon="-0.19556">
        <ele>36.36328125</ele>
        <time>2017-12-08T13:41:15Z</time>
      </trkpt>
      <trkpt lat="45.76397" lon="-0.19593">
        <ele>36</ele>
        <time>2017-12-08T13:41:24Z</time>
      </trkpt>
      <trkpt lat="45.76392" lon="-0.19598">
        <ele>36</ele>
        <time>2017-12-08T13:41:25Z</time>
      </trkpt>
      <trkpt lat="45.76334" lon="-0.19649">
        <ele>35.20703125</ele>
        <time>2017-12-08T13:41:35Z</time>
      </trkpt>
      <trkpt lat="45.76323" lon="-0.19658">
        <ele>34.99609375</ele>
        <time>2017-12-08T13:41:37Z</time>
      </trkpt>
      <trkpt lat="45.76264" lon="-0.19683">
        <ele>34.484375</ele>
        <time>2017-12-08T13:41:46Z</time>
      </trkpt>
      <trkpt lat="45.76195" lon="-0.19691">
        <ele>34</ele>
        <time>2017-12-08T13:41:56Z</time>
      </trkpt>
      <trkpt lat="45.76162" lon="-0.19702">
        <ele>34</ele>
        <time>2017-12-08T13:42:01Z</time>
      </trkpt>
      <trkpt lat="45.76156" lon="-0.19706">
        <ele>33.99609375</ele>
        <time>2017-12-08T13:42:02Z</time>
      </trkpt>
      <trkpt lat="45.76152" lon="-0.19712">
        <ele>33.921875</ele>
        <time>2017-12-08T13:42:03Z</time>
      </trkpt>
      <trkpt lat="45.76149" lon="-0.1972">
        <ele>33.8984375</ele>
        <time>2017-12-08T13:42:04Z</time>
      </trkpt>
      <trkpt lat="45.76149" lon="-0.19729">
        <ele>33.91015625</ele>
        <time>2017-12-08T13:42:05Z</time>
      </trkpt>
      <trkpt lat="45.76149" lon="-0.19738">
        <ele>33.9375</ele>
        <time>2017-12-08T13:42:06Z</time>
      </trkpt>
      <trkpt lat="45.7615" lon="-0.19747">
        <ele>33.9609375</ele>
        <time>2017-12-08T13:42:07Z</time>
      </trkpt>
      <trkpt lat="45.76153" lon="-0.1977">
        <ele>34</ele>
        <time>2017-12-08T13:42:10Z</time>
      </trkpt>
      <trkpt lat="45.76158" lon="-0.19826">
        <ele>34.11328125</ele>
        <time>2017-12-08T13:42:18Z</time>
      </trkpt>
      <trkpt lat="45.76162" lon="-0.19873">
        <ele>35.046875</ele>
        <time>2017-12-08T13:42:25Z</time>
      </trkpt>
      <trkpt lat="45.76159" lon="-0.19925">
        <ele>35.91015625</ele>
        <time>2017-12-08T13:42:33Z</time>
      </trkpt>
      <trkpt lat="45.76147" lon="-0.19982">
        <ele>35.83203125</ele>
        <time>2017-12-08T13:42:42Z</time>
      </trkpt>
      <trkpt lat="45.76142" lon="-0.20001">
        <ele>35.921875</ele>
        <time>2017-12-08T13:42:45Z</time>
      </trkpt>
      <trkpt lat="45.7614" lon="-0.20007">
        <ele>35.9609375</ele>
        <time>2017-12-08T13:42:46Z</time>
      </trkpt>
      <trkpt lat="45.76136" lon="-0.20019">
        <ele>36</ele>
        <time>2017-12-08T13:42:48Z</time>
      </trkpt>
      <trkpt lat="45.76134" lon="-0.20025">
        <ele>35.984375</ele>
        <time>2017-12-08T13:42:49Z</time>
      </trkpt>
      <trkpt lat="45.76111" lon="-0.20067">
        <ele>35.72265625</ele>
        <time>2017-12-08T13:42:57Z</time>
      </trkpt>
      <trkpt lat="45.76086" lon="-0.20123">
        <ele>36.046875</ele>
        <time>2017-12-08T13:43:07Z</time>
      </trkpt>
      <trkpt lat="45.76073" lon="-0.20175">
        <ele>35.81640625</ele>
        <time>2017-12-08T13:43:14Z</time>
      </trkpt>
      <trkpt lat="45.76059" lon="-0.20223">
        <ele>35.08203125</ele>
        <time>2017-12-08T13:43:20Z</time>
      </trkpt>
      <trkpt lat="45.76056" lon="-0.20229">
        <ele>34.90625</ele>
        <time>2017-12-08T13:43:21Z</time>
      </trkpt>
      <trkpt lat="45.76051" lon="-0.20235">
        <ele>34.69921875</ele>
        <time>2017-12-08T13:43:22Z</time>
      </trkpt>
      <trkpt lat="45.76047" lon="-0.20241">
        <ele>34.4765625</ele>
        <time>2017-12-08T13:43:23Z</time>
      </trkpt>
      <trkpt lat="45.76037" lon="-0.20253">
        <ele>34.19921875</ele>
        <time>2017-12-08T13:43:25Z</time>
      </trkpt>
      <trkpt lat="45.76024" lon="-0.2027">
        <ele>34</ele>
        <time>2017-12-08T13:43:28Z</time>
      </trkpt>
      <trkpt lat="45.75989" lon="-0.20314">
        <ele>34</ele>
        <time>2017-12-08T13:43:36Z</time>
      </trkpt>
      <trkpt lat="45.75984" lon="-0.20319">
        <ele>34</ele>
        <time>2017-12-08T13:43:37Z</time>
      </trkpt>
      <trkpt lat="45.75961" lon="-0.20344">
        <ele>33.58984375</ele>
        <time>2017-12-08T13:43:42Z</time>
      </trkpt>
      <trkpt lat="45.75942" lon="-0.20363">
        <ele>33.23828125</ele>
        <time>2017-12-08T13:43:46Z</time>
      </trkpt>
      <trkpt lat="45.75937" lon="-0.20367">
        <ele>33.1796875</ele>
        <time>2017-12-08T13:43:47Z</time>
      </trkpt>
      <trkpt lat="45.75932" lon="-0.20369">
        <ele>33.140625</ele>
        <time>2017-12-08T13:43:48Z</time>
      </trkpt>
      <trkpt lat="45.75926" lon="-0.20369">
        <ele>33.125</ele>
        <time>2017-12-08T13:43:49Z</time>
      </trkpt>
      <trkpt lat="45.7592" lon="-0.20368">
        <ele>33.14453125</ele>
        <time>2017-12-08T13:43:50Z</time>
      </trkpt>
      <trkpt lat="45.75915" lon="-0.20366">
        <ele>33.1953125</ele>
        <time>2017-12-08T13:43:51Z</time>
      </trkpt>
      <trkpt lat="45.7591" lon="-0.20362">
        <ele>33.2578125</ele>
        <time>2017-12-08T13:43:52Z</time>
      </trkpt>
      <trkpt lat="45.75872" lon="-0.20345">
        <ele>33.56640625</ele>
        <time>2017-12-08T13:43:59Z</time>
      </trkpt>
      <trkpt lat="45.75843" lon="-0.20334">
        <ele>33.76953125</ele>
        <time>2017-12-08T13:44:05Z</time>
      </trkpt>
      <trkpt lat="45.75839" lon="-0.2033">
        <ele>33.83984375</ele>
        <time>2017-12-08T13:44:06Z</time>
      </trkpt>
      <trkpt lat="45.75835" lon="-0.20325">
        <ele>33.92578125</ele>
        <time>2017-12-08T13:44:07Z</time>
      </trkpt>
      <trkpt lat="45.75832" lon="-0.20319">
        <ele>34</ele>
        <time>2017-12-08T13:44:08Z</time>
      </trkpt>
      <trkpt lat="45.75829" lon="-0.20313">
        <ele>34</ele>
        <time>2017-12-08T13:44:09Z</time>
      </trkpt>
      <trkpt lat="45.7582" lon="-0.20294">
        <ele>34.0234375</ele>
        <time>2017-12-08T13:44:12Z</time>
      </trkpt>
      <trkpt lat="45.75818" lon="-0.20287">
        <ele>34.0546875</ele>
        <time>2017-12-08T13:44:13Z</time>
      </trkpt>
      <trkpt lat="45.75812" lon="-0.20265">
        <ele>34.203125</ele>
        <time>2017-12-08T13:44:16Z</time>
      </trkpt>
      <trkpt lat="45.75808" lon="-0.20251">
        <ele>34.453125</ele>
        <time>2017-12-08T13:44:18Z</time>
      </trkpt>
      <trkpt lat="45.75806" lon="-0.20244">
        <ele>34.57421875</ele>
        <time>2017-12-08T13:44:19Z</time>
      </trkpt>
      <trkpt lat="45.75802" lon="-0.20238">
        <ele>34.68359375</ele>
        <time>2017-12-08T13:44:20Z</time>
      </trkpt>
      <trkpt lat="45.75798" lon="-0.20234">
        <ele>34.765625</ele>
        <time>2017-12-08T13:44:21Z</time>
      </trkpt>
      <trkpt lat="45.75793" lon="-0.20232">
        <ele>34.8125</ele>
        <time>2017-12-08T13:44:22Z</time>
      </trkpt>
      <trkpt lat="45.75789" lon="-0.20233">
        <ele>34.84375</ele>
        <time>2017-12-08T13:44:23Z</time>
      </trkpt>
      <trkpt lat="45.75784" lon="-0.20234">
        <ele>34.87109375</ele>
        <time>2017-12-08T13:44:24Z</time>
      </trkpt>
      <trkpt lat="45.75735" lon="-0.20246">
        <ele>35</ele>
        <time>2017-12-08T13:44:33Z</time>
      </trkpt>
      <trkpt lat="45.75673" lon="-0.20258">
        <ele>35</ele>
        <time>2017-12-08T13:44:43Z</time>
      </trkpt>
      <trkpt lat="45.75629" lon="-0.20253">
        <ele>35</ele>
        <time>2017-12-08T13:44:50Z</time>
      </trkpt>
      <trkpt lat="45.75557" lon="-0.20221">
        <ele>35</ele>
        <time>2017-12-08T13:45:02Z</time>
      </trkpt>
      <trkpt lat="45.75502" lon="-0.20192">
        <ele>35.25</ele>
        <time>2017-12-08T13:45:11Z</time>
      </trkpt>
      <trkpt lat="45.75438" lon="-0.20173">
        <ele>35.04296875</ele>
        <time>2017-12-08T13:45:21Z</time>
      </trkpt>
      <trkpt lat="45.75404" lon="-0.20162">
        <ele>35</ele>
        <time>2017-12-08T13:45:27Z</time>
      </trkpt>
      <trkpt lat="45.75399" lon="-0.20159">
        <ele>35</ele>
        <time>2017-12-08T13:45:28Z</time>
      </trkpt>
      <trkpt lat="45.75395" lon="-0.20154">
        <ele>34.99609375</ele>
        <time>2017-12-08T13:45:29Z</time>
      </trkpt>
      <trkpt lat="45.75392" lon="-0.20149">
        <ele>34.92578125</ele>
        <time>2017-12-08T13:45:30Z</time>
      </trkpt>
      <trkpt lat="45.75388" lon="-0.20146">
        <ele>34.87109375</ele>
        <time>2017-12-08T13:45:31Z</time>
      </trkpt>
      <trkpt lat="45.75383" lon="-0.20145">
        <ele>34.84765625</ele>
        <time>2017-12-08T13:45:32Z</time>
      </trkpt>
      <trkpt lat="45.75377" lon="-0.20146">
        <ele>34.82421875</ele>
        <time>2017-12-08T13:45:33Z</time>
      </trkpt>
      <trkpt lat="45.75372" lon="-0.20147">
        <ele>34.7578125</ele>
        <time>2017-12-08T13:45:34Z</time>
      </trkpt>
      <trkpt lat="45.75366" lon="-0.20148">
        <ele>34.68359375</ele>
        <time>2017-12-08T13:45:35Z</time>
      </trkpt>
      <trkpt lat="45.75361" lon="-0.20149">
        <ele>34.609375</ele>
        <time>2017-12-08T13:45:36Z</time>
      </trkpt>
      <trkpt lat="45.75349" lon="-0.20153">
        <ele>34.4453125</ele>
        <time>2017-12-08T13:45:38Z</time>
      </trkpt>
      <trkpt lat="45.75293" lon="-0.20168">
        <ele>33.45703125</ele>
        <time>2017-12-08T13:45:47Z</time>
      </trkpt>
      <trkpt lat="45.75211" lon="-0.2019">
        <ele>32.98046875</ele>
        <time>2017-12-08T13:46:00Z</time>
      </trkpt>
      <trkpt lat="45.75205" lon="-0.20191">
        <ele>32.91015625</ele>
        <time>2017-12-08T13:46:01Z</time>
      </trkpt>
      <trkpt lat="45.75199" lon="-0.20188">
        <ele>32.8515625</ele>
        <time>2017-12-08T13:46:02Z</time>
      </trkpt>
      <trkpt lat="45.75195" lon="-0.20183">
        <ele>32.8359375</ele>
        <time>2017-12-08T13:46:03Z</time>
      </trkpt>
      <trkpt lat="45.75192" lon="-0.20176">
        <ele>32.85546875</ele>
        <time>2017-12-08T13:46:04Z</time>
      </trkpt>
      <trkpt lat="45.75191" lon="-0.20168">
        <ele>32.90234375</ele>
        <time>2017-12-08T13:46:05Z</time>
      </trkpt>
      <trkpt lat="45.7519" lon="-0.2016">
        <ele>32.9609375</ele>
        <time>2017-12-08T13:46:06Z</time>
      </trkpt>
      <trkpt lat="45.75182" lon="-0.20085">
        <ele>32.203125</ele>
        <time>2017-12-08T13:46:14Z</time>
      </trkpt>
      <trkpt lat="45.75176" lon="-0.20022">
        <ele>30.94921875</ele>
        <time>2017-12-08T13:46:21Z</time>
      </trkpt>
      <trkpt lat="45.75173" lon="-0.20014">
        <ele>30.7578125</ele>
        <time>2017-12-08T13:46:22Z</time>
      </trkpt>
      <trkpt lat="45.75169" lon="-0.20007">
        <ele>30.56640625</ele>
        <time>2017-12-08T13:46:23Z</time>
      </trkpt>
      <trkpt lat="45.75164" lon="-0.20002">
        <ele>30.37890625</ele>
        <time>2017-12-08T13:46:24Z</time>
      </trkpt>
      <trkpt lat="45.75158" lon="-0.19999">
        <ele>30.2109375</ele>
        <time>2017-12-08T13:46:25Z</time>
      </trkpt>
      <trkpt lat="45.75151" lon="-0.19997">
        <ele>30.1640625</ele>
        <time>2017-12-08T13:46:26Z</time>
      </trkpt>
      <trkpt lat="45.75144" lon="-0.19995">
        <ele>30.13671875</ele>
        <time>2017-12-08T13:46:27Z</time>
      </trkpt>
      <trkpt lat="45.75089" lon="-0.19985">
        <ele>30</ele>
        <time>2017-12-08T13:46:35Z</time>
      </trkpt>
      <trkpt lat="45.75038" lon="-0.19971">
        <ele>30</ele>
        <time>2017-12-08T13:46:43Z</time>
      </trkpt>
      <trkpt lat="45.74987" lon="-0.19957">
        <ele>30.02734375</ele>
        <time>2017-12-08T13:46:51Z</time>
      </trkpt>
      <trkpt lat="45.74935" lon="-0.19944">
        <ele>30.203125</ele>
        <time>2017-12-08T13:46:59Z</time>
      </trkpt>
      <trkpt lat="45.74878" lon="-0.19915">
        <ele>29.3515625</ele>
        <time>2017-12-08T13:47:08Z</time>
      </trkpt>
      <trkpt lat="45.74839" lon="-0.19879">
        <ele>28.0234375</ele>
        <time>2017-12-08T13:47:14Z</time>
      </trkpt>
      <trkpt lat="45.74826" lon="-0.19868">
        <ele>28</ele>
        <time>2017-12-08T13:47:16Z</time>
      </trkpt>
      <trkpt lat="45.74806" lon="-0.19856">
        <ele>27.921875</ele>
        <time>2017-12-08T13:47:19Z</time>
      </trkpt>
      <trkpt lat="45.74787" lon="-0.19847">
        <ele>28.0390625</ele>
        <time>2017-12-08T13:47:22Z</time>
      </trkpt>
      <trkpt lat="45.74782" lon="-0.19849">
        <ele>28</ele>
        <time>2017-12-08T13:47:23Z</time>
      </trkpt>
      <trkpt lat="45.7478" lon="-0.19854">
        <ele>27.8515625</ele>
        <time>2017-12-08T13:47:24Z</time>
      </trkpt>
      <trkpt lat="45.74779" lon="-0.19861">
        <ele>27.64453125</ele>
        <time>2017-12-08T13:47:25Z</time>
      </trkpt>
      <trkpt lat="45.74778" lon="-0.19869">
        <ele>27.42578125</ele>
        <time>2017-12-08T13:47:26Z</time>
      </trkpt>
      <trkpt lat="45.74778" lon="-0.19877">
        <ele>27.19140625</ele>
        <time>2017-12-08T13:47:27Z</time>
      </trkpt>
      <trkpt lat="45.74779" lon="-0.19893">
        <ele>27.1953125</ele>
        <time>2017-12-08T13:47:29Z</time>
      </trkpt>
      <trkpt lat="45.7478" lon="-0.19901">
        <ele>27.21875</ele>
        <time>2017-12-08T13:47:30Z</time>
      </trkpt>
      <trkpt lat="45.74783" lon="-0.19954">
        <ele>27.37109375</ele>
        <time>2017-12-08T13:47:36Z</time>
      </trkpt>
      <trkpt lat="45.74782" lon="-0.19963">
        <ele>27.37890625</ele>
        <time>2017-12-08T13:47:37Z</time>
      </trkpt>
      <trkpt lat="45.7478" lon="-0.19972">
        <ele>27.3515625</ele>
        <time>2017-12-08T13:47:38Z</time>
      </trkpt>
      <trkpt lat="45.74754" lon="-0.20036">
        <ele>27.30078125</ele>
        <time>2017-12-08T13:47:46Z</time>
      </trkpt>
      <trkpt lat="45.74726" lon="-0.20094">
        <ele>26.8515625</ele>
        <time>2017-12-08T13:47:54Z</time>
      </trkpt>
      <trkpt lat="45.74692" lon="-0.20173">
        <ele>26.62109375</ele>
        <time>2017-12-08T13:48:04Z</time>
      </trkpt>
      <trkpt lat="45.74675" lon="-0.20225">
        <ele>26.4921875</ele>
        <time>2017-12-08T13:48:10Z</time>
      </trkpt>
      <trkpt lat="45.74653" lon="-0.20277">
        <ele>26.0546875</ele>
        <time>2017-12-08T13:48:17Z</time>
      </trkpt>
      <trkpt lat="45.74649" lon="-0.20282">
        <ele>26.1015625</ele>
        <time>2017-12-08T13:48:18Z</time>
      </trkpt>
      <trkpt lat="45.74645" lon="-0.20285">
        <ele>26.14453125</ele>
        <time>2017-12-08T13:48:19Z</time>
      </trkpt>
      <trkpt lat="45.7464" lon="-0.20287">
        <ele>26.18359375</ele>
        <time>2017-12-08T13:48:20Z</time>
      </trkpt>
      <trkpt lat="45.74637" lon="-0.20291">
        <ele>26.1953125</ele>
        <time>2017-12-08T13:48:21Z</time>
      </trkpt>
      <trkpt lat="45.74636" lon="-0.20296">
        <ele>26.171875</ele>
        <time>2017-12-08T13:48:22Z</time>
      </trkpt>
      <trkpt lat="45.74636" lon="-0.20301">
        <ele>26.13671875</ele>
        <time>2017-12-08T13:48:23Z</time>
      </trkpt>
      <trkpt lat="45.74637" lon="-0.20306">
        <ele>26.09765625</ele>
        <time>2017-12-08T13:48:24Z</time>
      </trkpt>
      <trkpt lat="45.74638" lon="-0.20311">
        <ele>26.0625</ele>
        <time>2017-12-08T13:48:25Z</time>
      </trkpt>
      <trkpt lat="45.74647" lon="-0.20341">
        <ele>26</ele>
        <time>2017-12-08T13:48:32Z</time>
      </trkpt>
      <trkpt lat="45.74651" lon="-0.20346">
        <ele>26</ele>
        <time>2017-12-08T13:48:37Z</time>
      </trkpt>
      <trkpt lat="45.74652" lon="-0.20347">
        <ele>26</ele>
        <time>2017-12-08T13:48:52Z</time>
      </trkpt>
      <trkpt lat="45.7465" lon="-0.20348">
        <ele>26</ele>
        <time>2017-12-08T13:49:21Z</time>
      </trkpt>
      <trkpt lat="45.7465" lon="-0.20348">
        <ele>26</ele>
        <time>2017-12-08T13:49:50Z</time>
      </trkpt>
      <trkpt lat="45.74649" lon="-0.20351">
        <ele>26</ele>
        <time>2017-12-08T13:50:20Z</time>
      </trkpt>
      <trkpt lat="45.74649" lon="-0.20353">
        <ele>26</ele>
        <time>2017-12-08T13:50:42Z</time>
      </trkpt>
      <trkpt lat="45.7465" lon="-0.20354">
        <ele>26</ele>
        <time>2017-12-08T13:50:52Z</time>
      </trkpt>
      <trkpt lat="45.74656" lon="-0.20362">
        <ele>26</ele>
        <time>2017-12-08T13:50:58Z</time>
      </trkpt>
      <trkpt lat="45.74673" lon="-0.20387">
        <ele>26.0546875</ele>
        <time>2017-12-08T13:51:06Z</time>
      </trkpt>
      <trkpt lat="45.7468" lon="-0.20399">
        <ele>26.16796875</ele>
        <time>2017-12-08T13:51:09Z</time>
      </trkpt>
      <trkpt lat="45.74706" lon="-0.2044">
        <ele>26.87109375</ele>
        <time>2017-12-08T13:51:18Z</time>
      </trkpt>
      <trkpt lat="45.74715" lon="-0.20454">
        <ele>27.015625</ele>
        <time>2017-12-08T13:51:21Z</time>
      </trkpt>
      <trkpt lat="45.74746" lon="-0.20503">
        <ele>27.7734375</ele>
        <time>2017-12-08T13:51:31Z</time>
      </trkpt>
      <trkpt lat="45.74774" lon="-0.20545">
        <ele>29.1015625</ele>
        <time>2017-12-08T13:51:40Z</time>
      </trkpt>
      <trkpt lat="45.7478" lon="-0.20555">
        <ele>29.21484375</ele>
        <time>2017-12-08T13:51:42Z</time>
      </trkpt>
      <trkpt lat="45.74811" lon="-0.20603">
        <ele>29.765625</ele>
        <time>2017-12-08T13:51:52Z</time>
      </trkpt>
      <trkpt lat="45.74841" lon="-0.20651">
        <ele>30.6328125</ele>
        <time>2017-12-08T13:52:02Z</time>
      </trkpt>
      <trkpt lat="45.74869" lon="-0.20694">
        <ele>31.05078125</ele>
        <time>2017-12-08T13:52:11Z</time>
      </trkpt>
      <trkpt lat="45.74875" lon="-0.20702">
        <ele>31.046875</ele>
        <time>2017-12-08T13:52:13Z</time>
      </trkpt>
      <trkpt lat="45.74878" lon="-0.20707">
        <ele>31.02734375</ele>
        <time>2017-12-08T13:52:14Z</time>
      </trkpt>
      <trkpt lat="45.74881" lon="-0.20711">
        <ele>31.02734375</ele>
        <time>2017-12-08T13:52:15Z</time>
      </trkpt>
      <trkpt lat="45.74906" lon="-0.20754">
        <ele>31.47265625</ele>
        <time>2017-12-08T13:52:24Z</time>
      </trkpt>
      <trkpt lat="45.74908" lon="-0.20759">
        <ele>31.5234375</ele>
        <time>2017-12-08T13:52:25Z</time>
      </trkpt>
      <trkpt lat="45.74925" lon="-0.20788">
        <ele>31.8203125</ele>
        <time>2017-12-08T13:52:31Z</time>
      </trkpt>
      <trkpt lat="45.74941" lon="-0.20828">
        <ele>31.98828125</ele>
        <time>2017-12-08T13:52:37Z</time>
      </trkpt>
      <trkpt lat="45.74955" lon="-0.20871">
        <ele>31.453125</ele>
        <time>2017-12-08T13:52:38Z</time>
      </trkpt>
      <trkpt lat="45.7497" lon="-0.20911">
        <ele>31.01171875</ele>
        <time>2017-12-08T13:52:52Z</time>
      </trkpt>
      <trkpt lat="45.74993" lon="-0.20952">
        <ele>30.66015625</ele>
      </trkpt>
      <trkpt lat="45.75009" lon="-0.2099">
        <ele>30</ele>
        <time>2017-12-08T13:53:05Z</time>
      </trkpt>
      <trkpt lat="45.75043" lon="-0.21069">
        <ele>29.98046875</ele>
      </trkpt>
      <trkpt lat="45.75074" lon="-0.21137">
        <ele>29.65234375</ele>
        <time>2017-12-08T13:53:14Z</time>
      </trkpt>
      <trkpt lat="45.7508" lon="-0.21149">
        <ele>29.65625</ele>
        <time>2017-12-08T13:53:23Z</time>
      </trkpt>
      <trkpt lat="45.75087" lon="-0.2116">
        <ele>29.66796875</ele>
        <time>2018-04-06T12:02:07Z</time>
      </trkpt>
      <trkpt lat="45.75036" lon="-0.2123">
        <ele>28.51953125</ele>
        <time>2018-04-06T12:02:09Z</time>
      </trkpt>
      <trkpt lat="45.75026" lon="-0.21252">
        <ele>28.15625</ele>
        <time>2018-04-06T12:02:10Z</time>
      </trkpt>
      <trkpt lat="45.75012" lon="-0.21299">
        <ele>28</ele>
        <time>2018-04-06T12:02:19Z</time>
      </trkpt>
      <trkpt lat="45.75009" lon="-0.2131">
        <ele>28</ele>
        <time>2018-04-06T12:02:21Z</time>
      </trkpt>
      <trkpt lat="45.75006" lon="-0.21323">
        <ele>27.9609375</ele>
        <time>2018-04-06T12:02:23Z</time>
      </trkpt>
      <trkpt lat="45.74989" lon="-0.21395">
        <ele>27</ele>
        <time>2018-04-06T12:02:33Z</time>
      </trkpt>
      <trkpt lat="45.74968" lon="-0.2148">
        <ele>27</ele>
        <time>2018-04-06T12:02:44Z</time>
      </trkpt>
      <trkpt lat="45.74961" lon="-0.21531">
        <ele>26.578125</ele>
        <time>2018-04-06T12:02:50Z</time>
      </trkpt>
      <trkpt lat="45.74956" lon="-0.21598">
        <ele>26</ele>
        <time>2018-04-06T12:02:58Z</time>
      </trkpt>
      <trkpt lat="45.74955" lon="-0.21687">
        <ele>25</ele>
        <time>2018-04-06T12:03:09Z</time>
      </trkpt>
      <trkpt lat="45.74951" lon="-0.21727">
        <ele>24.671875</ele>
        <time>2018-04-06T12:03:14Z</time>
      </trkpt>
      <trkpt lat="45.7495" lon="-0.21735">
        <ele>24.5390625</ele>
        <time>2018-04-06T12:03:15Z</time>
      </trkpt>
      <trkpt lat="45.74947" lon="-0.21742">
        <ele>24.40625</ele>
        <time>2018-04-06T12:03:16Z</time>
      </trkpt>
      <trkpt lat="45.74945" lon="-0.21749">
        <ele>24.28515625</ele>
        <time>2018-04-06T12:03:17Z</time>
      </trkpt>
      <trkpt lat="45.74942" lon="-0.21755">
        <ele>24.1640625</ele>
        <time>2018-04-06T12:03:18Z</time>
      </trkpt>
      <trkpt lat="45.74936" lon="-0.21768">
        <ele>23.9375</ele>
        <time>2018-04-06T12:03:20Z</time>
      </trkpt>
      <trkpt lat="45.74902" lon="-0.21815">
        <ele>23.625</ele>
        <time>2018-04-06T12:03:29Z</time>
      </trkpt>
      <trkpt lat="45.74871" lon="-0.21861">
        <ele>23.4140625</ele>
        <time>2018-04-06T12:03:37Z</time>
      </trkpt>
      <trkpt lat="45.74836" lon="-0.21913">
        <ele>23.2578125</ele>
        <time>2018-04-06T12:03:46Z</time>
      </trkpt>
      <trkpt lat="45.74818" lon="-0.21941">
        <ele>22.71484375</ele>
        <time>2018-04-06T12:03:51Z</time>
      </trkpt>
      <trkpt lat="45.74816" lon="-0.21948">
        <ele>22.55859375</ele>
        <time>2018-04-06T12:03:52Z</time>
      </trkpt>
      <trkpt lat="45.74815" lon="-0.21955">
        <ele>22.41796875</ele>
        <time>2018-04-06T12:03:53Z</time>
      </trkpt>
      <trkpt lat="45.74816" lon="-0.21962">
        <ele>22.3046875</ele>
        <time>2018-04-06T12:03:54Z</time>
      </trkpt>
      <trkpt lat="45.74818" lon="-0.21969">
        <ele>22.2109375</ele>
        <time>2018-04-06T12:03:55Z</time>
      </trkpt>
      <trkpt lat="45.7482" lon="-0.21977">
        <ele>22.125</ele>
        <time>2018-04-06T12:03:56Z</time>
      </trkpt>
      <trkpt lat="45.74824" lon="-0.21984">
        <ele>22.046875</ele>
        <time>2018-04-06T12:03:57Z</time>
      </trkpt>
      <trkpt lat="45.74835" lon="-0.22013">
        <ele>21.62109375</ele>
        <time>2018-04-06T12:04:01Z</time>
      </trkpt>
      <trkpt lat="45.74836" lon="-0.22021">
        <ele>21.51171875</ele>
        <time>2018-04-06T12:04:02Z</time>
      </trkpt>
      <trkpt lat="45.74834" lon="-0.22028">
        <ele>21.3828125</ele>
        <time>2018-04-06T12:04:03Z</time>
      </trkpt>
      <trkpt lat="45.7483" lon="-0.22034">
        <ele>21.24609375</ele>
        <time>2018-04-06T12:04:04Z</time>
      </trkpt>
      <trkpt lat="45.74826" lon="-0.22038">
        <ele>21.109375</ele>
        <time>2018-04-06T12:04:05Z</time>
      </trkpt>
      <trkpt lat="45.74821" lon="-0.22042">
        <ele>21.01171875</ele>
        <time>2018-04-06T12:04:06Z</time>
      </trkpt>
      <trkpt lat="45.74816" lon="-0.22045">
        <ele>20.9921875</ele>
        <time>2018-04-06T12:04:07Z</time>
      </trkpt>
      <trkpt lat="45.74793" lon="-0.22065">
        <ele>20.76953125</ele>
        <time>2018-04-06T12:04:12Z</time>
      </trkpt>
      <trkpt lat="45.74788" lon="-0.2207">
        <ele>20.6796875</ele>
        <time>2018-04-06T12:04:13Z</time>
      </trkpt>
      <trkpt lat="45.74784" lon="-0.22076">
        <ele>20.5703125</ele>
        <time>2018-04-06T12:04:14Z</time>
      </trkpt>
      <trkpt lat="45.74765" lon="-0.22114">
        <ele>20</ele>
        <time>2018-04-06T12:04:20Z</time>
      </trkpt>
      <trkpt lat="45.74763" lon="-0.22121">
        <ele>20</ele>
        <time>2018-04-06T12:04:21Z</time>
      </trkpt>
      <trkpt lat="45.74761" lon="-0.22129">
        <ele>20</ele>
        <time>2018-04-06T12:04:22Z</time>
      </trkpt>
      <trkpt lat="45.74761" lon="-0.22137">
        <ele>20</ele>
        <time>2018-04-06T12:04:23Z</time>
      </trkpt>
      <trkpt lat="45.74761" lon="-0.22145">
        <ele>20</ele>
        <time>2018-04-06T12:04:24Z</time>
      </trkpt>
      <trkpt lat="45.74761" lon="-0.22154">
        <ele>20</ele>
        <time>2018-04-06T12:04:25Z</time>
      </trkpt>
      <trkpt lat="45.74763" lon="-0.22162">
        <ele>20</ele>
        <time>2018-04-06T12:04:26Z</time>
      </trkpt>
      <trkpt lat="45.74765" lon="-0.22169">
        <ele>20</ele>
        <time>2018-04-06T12:04:27Z</time>
      </trkpt>
      <trkpt lat="45.74767" lon="-0.22177">
        <ele>20</ele>
        <time>2018-04-06T12:04:28Z</time>
      </trkpt>
      <trkpt lat="45.7477" lon="-0.22184">
        <ele>20</ele>
        <time>2018-04-06T12:04:29Z</time>
      </trkpt>
      <trkpt lat="45.74773" lon="-0.22191">
        <ele>20</ele>
        <time>2018-04-06T12:04:30Z</time>
      </trkpt>
      <trkpt lat="45.74777" lon="-0.22198">
        <ele>20</ele>
        <time>2018-04-06T12:04:31Z</time>
      </trkpt>
      <trkpt lat="45.74815" lon="-0.22261">
        <ele>20</ele>
        <time>2018-04-06T12:04:41Z</time>
      </trkpt>
      <trkpt lat="45.7486" lon="-0.22333">
        <ele>19</ele>
        <time>2018-04-06T12:04:52Z</time>
      </trkpt>
      <trkpt lat="45.74906" lon="-0.22394">
        <ele>19</ele>
        <time>2018-04-06T12:05:02Z</time>
      </trkpt>
      <trkpt lat="45.74929" lon="-0.22436">
        <ele>19</ele>
        <time>2018-04-06T12:05:08Z</time>
      </trkpt>
      <trkpt lat="45.74931" lon="-0.22445">
        <ele>19</ele>
        <time>2018-04-06T12:05:09Z</time>
      </trkpt>
      <trkpt lat="45.74933" lon="-0.22454">
        <ele>19</ele>
        <time>2018-04-06T12:05:10Z</time>
      </trkpt>
      <trkpt lat="45.74934" lon="-0.22463">
        <ele>19</ele>
        <time>2018-04-06T12:05:11Z</time>
      </trkpt>
      <trkpt lat="45.74934" lon="-0.22471">
        <ele>19</ele>
        <time>2018-04-06T12:05:12Z</time>
      </trkpt>
      <trkpt lat="45.74933" lon="-0.2248">
        <ele>19</ele>
        <time>2018-04-06T12:05:13Z</time>
      </trkpt>
      <trkpt lat="45.74932" lon="-0.22488">
        <ele>19</ele>
        <time>2018-04-06T12:05:14Z</time>
      </trkpt>
      <trkpt lat="45.74931" lon="-0.22496">
        <ele>19</ele>
        <time>2018-04-06T12:05:15Z</time>
      </trkpt>
      <trkpt lat="45.74928" lon="-0.22503">
        <ele>19</ele>
        <time>2018-04-06T12:05:16Z</time>
      </trkpt>
      <trkpt lat="45.74924" lon="-0.22509">
        <ele>19</ele>
        <time>2018-04-06T12:05:17Z</time>
      </trkpt>
      <trkpt lat="45.74919" lon="-0.22513">
        <ele>19</ele>
        <time>2018-04-06T12:05:18Z</time>
      </trkpt>
      <trkpt lat="45.74914" lon="-0.22517">
        <ele>19</ele>
        <time>2018-04-06T12:05:19Z</time>
      </trkpt>
      <trkpt lat="45.74869" lon="-0.22546">
        <ele>19.0234375</ele>
        <time>2018-04-06T12:05:28Z</time>
      </trkpt>
      <trkpt lat="45.74831" lon="-0.22577">
        <ele>20.125</ele>
        <time>2018-04-06T12:05:37Z</time>
      </trkpt>
      <trkpt lat="45.74827" lon="-0.2258">
        <ele>20.2890625</ele>
        <time>2018-04-06T12:05:38Z</time>
      </trkpt>
      <trkpt lat="45.74822" lon="-0.22585">
        <ele>20.58203125</ele>
        <time>2018-04-06T12:05:40Z</time>
      </trkpt>
      <trkpt lat="45.74821" lon="-0.22588">
        <ele>20.7109375</ele>
        <time>2018-04-06T12:05:41Z</time>
      </trkpt>
      <trkpt lat="45.74822" lon="-0.22592">
        <ele>20.83203125</ele>
        <time>2018-04-06T12:05:42Z</time>
      </trkpt>
      <trkpt lat="45.74824" lon="-0.22595">
        <ele>20.9296875</ele>
        <time>2018-04-06T12:05:43Z</time>
      </trkpt>
      <trkpt lat="45.74826" lon="-0.22599">
        <ele>20.9609375</ele>
        <time>2018-04-06T12:05:44Z</time>
      </trkpt>
      <trkpt lat="45.74828" lon="-0.22603">
        <ele>20.94921875</ele>
        <time>2018-04-06T12:05:45Z</time>
      </trkpt>
      <trkpt lat="45.74831" lon="-0.22608">
        <ele>20.93359375</ele>
        <time>2018-04-06T12:05:46Z</time>
      </trkpt>
      <trkpt lat="45.7485" lon="-0.22645">
        <ele>20.90234375</ele>
        <time>2018-04-06T12:05:53Z</time>
      </trkpt>
      <trkpt lat="45.7486" lon="-0.227">
        <ele>21.2421875</ele>
        <time>2018-04-06T12:06:01Z</time>
      </trkpt>
      <trkpt lat="45.74871" lon="-0.22771">
        <ele>21.03125</ele>
        <time>2018-04-06T12:06:10Z</time>
      </trkpt>
      <trkpt lat="45.74871" lon="-0.22779">
        <ele>20.87890625</ele>
        <time>2018-04-06T12:06:11Z</time>
      </trkpt>
      <trkpt lat="45.74869" lon="-0.22788">
        <ele>20.75</ele>
        <time>2018-04-06T12:06:12Z</time>
      </trkpt>
      <trkpt lat="45.74864" lon="-0.2281">
        <ele>20.43359375</ele>
        <time>2018-04-06T12:06:15Z</time>
      </trkpt>
      <trkpt lat="45.74862" lon="-0.22817">
        <ele>20.33984375</ele>
        <time>2018-04-06T12:06:16Z</time>
      </trkpt>
      <trkpt lat="45.74845" lon="-0.22895">
        <ele>20.62109375</ele>
        <time>2018-04-06T12:06:26Z</time>
      </trkpt>
      <trkpt lat="45.74832" lon="-0.22968">
        <ele>20.8515625</ele>
        <time>2018-04-06T12:06:35Z</time>
      </trkpt>
      <trkpt lat="45.74819" lon="-0.23046">
        <ele>19.91796875</ele>
        <time>2018-04-06T12:06:44Z</time>
      </trkpt>
      <trkpt lat="45.74802" lon="-0.23144">
        <ele>19.0625</ele>
        <time>2018-04-06T12:06:55Z</time>
      </trkpt>
      <trkpt lat="45.74785" lon="-0.23235">
        <ele>17.5234375</ele>
        <time>2018-04-06T12:07:05Z</time>
      </trkpt>
      <trkpt lat="45.74767" lon="-0.23334">
        <ele>17.296875</ele>
        <time>2018-04-06T12:07:16Z</time>
      </trkpt>
      <trkpt lat="45.74749" lon="-0.23436">
        <ele>18.37890625</ele>
        <time>2018-04-06T12:07:28Z</time>
      </trkpt>
      <trkpt lat="45.74743" lon="-0.23473">
        <ele>18.79296875</ele>
        <time>2018-04-06T12:07:33Z</time>
      </trkpt>
      <trkpt lat="45.74744" lon="-0.2348">
        <ele>18.83984375</ele>
        <time>2018-04-06T12:07:34Z</time>
      </trkpt>
      <trkpt lat="45.74746" lon="-0.23486">
        <ele>18.8125</ele>
        <time>2018-04-06T12:07:35Z</time>
      </trkpt>
      <trkpt lat="45.74749" lon="-0.2349">
        <ele>18.70703125</ele>
        <time>2018-04-06T12:07:36Z</time>
      </trkpt>
      <trkpt lat="45.74754" lon="-0.23493">
        <ele>18.5859375</ele>
        <time>2018-04-06T12:07:37Z</time>
      </trkpt>
      <trkpt lat="45.74758" lon="-0.23496">
        <ele>18.4765625</ele>
        <time>2018-04-06T12:07:38Z</time>
      </trkpt>
      <trkpt lat="45.74763" lon="-0.235">
        <ele>18.38671875</ele>
        <time>2018-04-06T12:07:39Z</time>
      </trkpt>
      <trkpt lat="45.74768" lon="-0.23503">
        <ele>18.30078125</ele>
        <time>2018-04-06T12:07:40Z</time>
      </trkpt>
      <trkpt lat="45.74773" lon="-0.23506">
        <ele>18.265625</ele>
        <time>2018-04-06T12:07:41Z</time>
      </trkpt>
      <trkpt lat="45.74779" lon="-0.23509">
        <ele>18.234375</ele>
        <time>2018-04-06T12:07:42Z</time>
      </trkpt>
      <trkpt lat="45.74836" lon="-0.23544">
        <ele>17.77734375</ele>
        <time>2018-04-06T12:07:53Z</time>
      </trkpt>
      <trkpt lat="45.74878" lon="-0.23573">
        <ele>17.01953125</ele>
        <time>2018-04-06T12:08:01Z</time>
      </trkpt>
      <trkpt lat="45.74924" lon="-0.23608">
        <ele>17</ele>
        <time>2018-04-06T12:08:09Z</time>
      </trkpt>
      <trkpt lat="45.7493" lon="-0.23613">
        <ele>17</ele>
        <time>2018-04-06T12:08:10Z</time>
      </trkpt>
      <trkpt lat="45.74948" lon="-0.23629">
        <ele>16.90234375</ele>
        <time>2018-04-06T12:08:13Z</time>
      </trkpt>
      <trkpt lat="45.74952" lon="-0.23636">
        <ele>16.91015625</ele>
        <time>2018-04-06T12:08:14Z</time>
      </trkpt>
      <trkpt lat="45.74956" lon="-0.23645">
        <ele>16.9453125</ele>
        <time>2018-04-06T12:08:15Z</time>
      </trkpt>
      <trkpt lat="45.74959" lon="-0.23653">
        <ele>17</ele>
        <time>2018-04-06T12:08:16Z</time>
      </trkpt>
      <trkpt lat="45.74961" lon="-0.23662">
        <ele>17</ele>
        <time>2018-04-06T12:08:17Z</time>
      </trkpt>
      <trkpt lat="45.74963" lon="-0.2367">
        <ele>17</ele>
        <time>2018-04-06T12:08:18Z</time>
      </trkpt>
      <trkpt lat="45.74972" lon="-0.23736">
        <ele>16.83203125</ele>
        <time>2018-04-06T12:08:26Z</time>
      </trkpt>
      <trkpt lat="45.74976" lon="-0.23772">
        <ele>16.7421875</ele>
        <time>2018-04-06T12:08:31Z</time>
      </trkpt>
      <trkpt lat="45.74978" lon="-0.23777">
        <ele>16.78125</ele>
        <time>2018-04-06T12:08:32Z</time>
      </trkpt>
      <trkpt lat="45.74981" lon="-0.23781">
        <ele>16.83984375</ele>
        <time>2018-04-06T12:08:33Z</time>
      </trkpt>
      <trkpt lat="45.74986" lon="-0.23784">
        <ele>16.9140625</ele>
        <time>2018-04-06T12:08:34Z</time>
      </trkpt>
      <trkpt lat="45.7499" lon="-0.23786">
        <ele>17</ele>
        <time>2018-04-06T12:08:35Z</time>
      </trkpt>
      <trkpt lat="45.74995" lon="-0.23788">
        <ele>17</ele>
        <time>2018-04-06T12:08:36Z</time>
      </trkpt>
      <trkpt lat="45.75028" lon="-0.23814">
        <ele>17</ele>
        <time>2018-04-06T12:08:44Z</time>
      </trkpt>
      <trkpt lat="45.75049" lon="-0.23837">
        <ele>17.0546875</ele>
        <time>2018-04-06T12:08:49Z</time>
      </trkpt>
      <trkpt lat="45.75053" lon="-0.23842">
        <ele>17.12890625</ele>
        <time>2018-04-06T12:08:50Z</time>
      </trkpt>
      <trkpt lat="45.75057" lon="-0.23846">
        <ele>17.19921875</ele>
        <time>2018-04-06T12:08:51Z</time>
      </trkpt>
      <trkpt lat="45.75087" lon="-0.23881">
        <ele>17.6328125</ele>
        <time>2018-04-06T12:08:58Z</time>
      </trkpt>
      <trkpt lat="45.75122" lon="-0.23906">
        <ele>17.640625</ele>
        <time>2018-04-06T12:09:05Z</time>
      </trkpt>
      <trkpt lat="45.75154" lon="-0.23917">
        <ele>17.9609375</ele>
        <time>2018-04-06T12:09:11Z</time>
      </trkpt>
      <trkpt lat="45.7516" lon="-0.23917">
        <ele>18</ele>
        <time>2018-04-06T12:09:12Z</time>
      </trkpt>
      <trkpt lat="45.75198" lon="-0.23914">
        <ele>18</ele>
        <time>2018-04-06T12:09:19Z</time>
      </trkpt>
      <trkpt lat="45.75237" lon="-0.23915">
        <ele>18</ele>
        <time>2018-04-06T12:09:27Z</time>
      </trkpt>
      <trkpt lat="45.75241" lon="-0.23918">
        <ele>18</ele>
        <time>2018-04-06T12:09:28Z</time>
      </trkpt>
      <trkpt lat="45.75243" lon="-0.23922">
        <ele>18</ele>
        <time>2018-04-06T12:09:29Z</time>
      </trkpt>
      <trkpt lat="45.75245" lon="-0.23926">
        <ele>18</ele>
        <time>2018-04-06T12:09:30Z</time>
      </trkpt>
      <trkpt lat="45.75247" lon="-0.23929">
        <ele>18</ele>
        <time>2018-04-06T12:09:31Z</time>
      </trkpt>
      <trkpt lat="45.75264" lon="-0.23954">
        <ele>17.96875</ele>
        <time>2018-04-06T12:09:38Z</time>
      </trkpt>
      <trkpt lat="45.75278" lon="-0.23974">
        <ele>18</ele>
        <time>2018-04-06T12:09:44Z</time>
      </trkpt>
      <trkpt lat="45.75279" lon="-0.23985">
        <ele>18</ele>
        <time>2018-04-06T12:09:46Z</time>
      </trkpt>
      <trkpt lat="45.75278" lon="-0.23991">
        <ele>17.9140625</ele>
        <time>2018-04-06T12:09:47Z</time>
      </trkpt>
      <trkpt lat="45.75272" lon="-0.24032">
        <ele>17.23046875</ele>
        <time>2018-04-06T12:09:53Z</time>
      </trkpt>
      <trkpt lat="45.75274" lon="-0.24038">
        <ele>17.1484375</ele>
        <time>2018-04-06T12:09:54Z</time>
      </trkpt>
      <trkpt lat="45.75277" lon="-0.24043">
        <ele>17.1328125</ele>
        <time>2018-04-06T12:09:55Z</time>
      </trkpt>
      <trkpt lat="45.75281" lon="-0.24044">
        <ele>17.171875</ele>
        <time>2018-04-06T12:09:56Z</time>
      </trkpt>
      <trkpt lat="45.75286" lon="-0.24045">
        <ele>17.23828125</ele>
        <time>2018-04-06T12:09:57Z</time>
      </trkpt>
      <trkpt lat="45.75318" lon="-0.24058">
        <ele>17.6015625</ele>
        <time>2018-04-06T12:10:04Z</time>
      </trkpt>
      <trkpt lat="45.75346" lon="-0.24081">
        <ele>17.57421875</ele>
        <time>2018-04-06T12:10:10Z</time>
      </trkpt>
      <trkpt lat="45.75387" lon="-0.24101">
        <ele>17.91796875</ele>
        <time>2018-04-06T12:10:18Z</time>
      </trkpt>
      <trkpt lat="45.75427" lon="-0.24116">
        <ele>17.640625</ele>
        <time>2018-04-06T12:10:26Z</time>
      </trkpt>
      <trkpt lat="45.75475" lon="-0.24142">
        <ele>17.05078125</ele>
        <time>2018-04-06T12:10:35Z</time>
      </trkpt>
      <trkpt lat="45.7551" lon="-0.24173">
        <ele>17</ele>
        <time>2018-04-06T12:10:42Z</time>
      </trkpt>
      <trkpt lat="45.75521" lon="-0.24184">
        <ele>17</ele>
        <time>2018-04-06T12:10:44Z</time>
      </trkpt>
      <trkpt lat="45.75575" lon="-0.24242">
        <ele>17</ele>
        <time>2018-04-06T12:10:54Z</time>
      </trkpt>
      <trkpt lat="45.75612" lon="-0.24275">
        <ele>17</ele>
        <time>2018-04-06T12:11:01Z</time>
      </trkpt>
      <trkpt lat="45.75665" lon="-0.24319">
        <ele>17</ele>
        <time>2018-04-06T12:11:11Z</time>
      </trkpt>
      <trkpt lat="45.75734" lon="-0.24372">
        <ele>17</ele>
        <time>2018-04-06T12:11:24Z</time>
      </trkpt>
      <trkpt lat="45.75755" lon="-0.24388">
        <ele>17</ele>
        <time>2018-04-06T12:11:28Z</time>
      </trkpt>
      <trkpt lat="45.75819" lon="-0.24437">
        <ele>17</ele>
        <time>2018-04-06T12:11:40Z</time>
      </trkpt>
      <trkpt lat="45.75858" lon="-0.24485">
        <ele>17.625</ele>
        <time>2018-04-06T12:11:49Z</time>
      </trkpt>
      <trkpt lat="45.75911" lon="-0.24542">
        <ele>17.55859375</ele>
        <time>2018-04-06T12:12:01Z</time>
      </trkpt>
      <trkpt lat="45.75958" lon="-0.24579">
        <ele>17.171875</ele>
        <time>2018-04-06T12:12:10Z</time>
      </trkpt>
      <trkpt lat="45.75964" lon="-0.24581">
        <ele>17.12109375</ele>
        <time>2018-04-06T12:12:11Z</time>
      </trkpt>
      <trkpt lat="45.75971" lon="-0.24583">
        <ele>17.08203125</ele>
        <time>2018-04-06T12:12:12Z</time>
      </trkpt>
      <trkpt lat="45.76018" lon="-0.24587">
        <ele>17</ele>
        <time>2018-04-06T12:12:19Z</time>
      </trkpt>
      <trkpt lat="45.76062" lon="-0.24611">
        <ele>17</ele>
        <time>2018-04-06T12:12:26Z</time>
      </trkpt>
      <trkpt lat="45.76116" lon="-0.24643">
        <ele>17</ele>
        <time>2018-04-06T12:12:35Z</time>
      </trkpt>
      <trkpt lat="45.76177" lon="-0.24668">
        <ele>17</ele>
        <time>2018-04-06T12:12:45Z</time>
      </trkpt>
      <trkpt lat="45.76217" lon="-0.24695">
        <ele>17</ele>
        <time>2018-04-06T12:12:52Z</time>
      </trkpt>
      <trkpt lat="45.76257" lon="-0.24738">
        <ele>17</ele>
        <time>2018-04-06T12:13:00Z</time>
      </trkpt>
      <trkpt lat="45.76278" lon="-0.24769">
        <ele>16.80078125</ele>
        <time>2018-04-06T12:13:05Z</time>
      </trkpt>
      <trkpt lat="45.76284" lon="-0.24774">
        <ele>16.703125</ele>
        <time>2018-04-06T12:13:06Z</time>
      </trkpt>
      <trkpt lat="45.7629" lon="-0.24778">
        <ele>16.6015625</ele>
        <time>2018-04-06T12:13:07Z</time>
      </trkpt>
      <trkpt lat="45.76295" lon="-0.2478">
        <ele>16.4921875</ele>
        <time>2018-04-06T12:13:08Z</time>
      </trkpt>
      <trkpt lat="45.76301" lon="-0.24783">
        <ele>16.38671875</ele>
        <time>2018-04-06T12:13:09Z</time>
      </trkpt>
      <trkpt lat="45.76313" lon="-0.24787">
        <ele>16.18359375</ele>
        <time>2018-04-06T12:13:11Z</time>
      </trkpt>
      <trkpt lat="45.76317" lon="-0.24791">
        <ele>16.1015625</ele>
        <time>2018-04-06T12:13:12Z</time>
      </trkpt>
      <trkpt lat="45.76321" lon="-0.24798">
        <ele>16.04296875</ele>
        <time>2018-04-06T12:13:13Z</time>
      </trkpt>
      <trkpt lat="45.76322" lon="-0.24805">
        <ele>16.01953125</ele>
        <time>2018-04-06T12:13:14Z</time>
      </trkpt>
      <trkpt lat="45.76322" lon="-0.24811">
        <ele>16.015625</ele>
        <time>2018-04-06T12:13:15Z</time>
      </trkpt>
      <trkpt lat="45.76322" lon="-0.24818">
        <ele>16.0234375</ele>
        <time>2018-04-06T12:13:16Z</time>
      </trkpt>
      <trkpt lat="45.76321" lon="-0.24823">
        <ele>16.03125</ele>
        <time>2018-04-06T12:13:17Z</time>
      </trkpt>
      <trkpt lat="45.76322" lon="-0.24846">
        <ele>16.015625</ele>
        <time>2018-04-06T12:13:21Z</time>
      </trkpt>
      <trkpt lat="45.76326" lon="-0.24889">
        <ele>16.27734375</ele>
        <time>2018-04-06T12:13:27Z</time>
      </trkpt>
      <trkpt lat="45.76326" lon="-0.24896">
        <ele>16.40234375</ele>
        <time>2018-04-06T12:13:28Z</time>
      </trkpt>
      <trkpt lat="45.76326" lon="-0.24903">
        <ele>16.53125</ele>
        <time>2018-04-06T12:13:29Z</time>
      </trkpt>
      <trkpt lat="45.76326" lon="-0.24968">
        <ele>17.69140625</ele>
        <time>2018-04-06T12:13:38Z</time>
      </trkpt>
      <trkpt lat="45.76327" lon="-0.24974">
        <ele>17.80859375</ele>
        <time>2018-04-06T12:13:39Z</time>
      </trkpt>
      <trkpt lat="45.76328" lon="-0.24981">
        <ele>17.93359375</ele>
        <time>2018-04-06T12:13:40Z</time>
      </trkpt>
      <trkpt lat="45.76329" lon="-0.24988">
        <ele>18.05078125</ele>
        <time>2018-04-06T12:13:41Z</time>
      </trkpt>
      <trkpt lat="45.76331" lon="-0.24994">
        <ele>18.1640625</ele>
        <time>2018-04-06T12:13:42Z</time>
      </trkpt>
      <trkpt lat="45.76333" lon="-0.25">
        <ele>18.27734375</ele>
        <time>2018-04-06T12:13:43Z</time>
      </trkpt>
      <trkpt lat="45.76336" lon="-0.25006">
        <ele>18.3828125</ele>
        <time>2018-04-06T12:13:44Z</time>
      </trkpt>
      <trkpt lat="45.76339" lon="-0.25012">
        <ele>18.48046875</ele>
        <time>2018-04-06T12:13:45Z</time>
      </trkpt>
      <trkpt lat="45.76342" lon="-0.25017">
        <ele>18.578125</ele>
        <time>2018-04-06T12:13:46Z</time>
      </trkpt>
      <trkpt lat="45.76381" lon="-0.25071">
        <ele>18.9765625</ele>
        <time>2018-04-06T12:13:57Z</time>
      </trkpt>
      <trkpt lat="45.76402" lon="-0.25093">
        <ele>18.9765625</ele>
        <time>2018-04-06T12:14:02Z</time>
      </trkpt>
      <trkpt lat="45.76407" lon="-0.25098">
        <ele>19</ele>
        <time>2018-04-06T12:14:03Z</time>
      </trkpt>
      <trkpt lat="45.76451" lon="-0.25143">
        <ele>18.953125</ele>
        <time>2018-04-06T12:14:13Z</time>
      </trkpt>
      <trkpt lat="45.76496" lon="-0.2519">
        <ele>19.5859375</ele>
        <time>2018-04-06T12:14:23Z</time>
      </trkpt>
      <trkpt lat="45.76499" lon="-0.25196">
        <ele>19.62890625</ele>
        <time>2018-04-06T12:14:24Z</time>
      </trkpt>
      <trkpt lat="45.76502" lon="-0.25202">
        <ele>19.6875</ele>
        <time>2018-04-06T12:14:25Z</time>
      </trkpt>
      <trkpt lat="45.76536" lon="-0.25283">
        <ele>20.4765625</ele>
        <time>2018-04-06T12:14:37Z</time>
      </trkpt>
      <trkpt lat="45.7654" lon="-0.2529">
        <ele>20.53125</ele>
        <time>2018-04-06T12:14:38Z</time>
      </trkpt>
      <trkpt lat="45.76545" lon="-0.25295">
        <ele>20.59375</ele>
        <time>2018-04-06T12:14:39Z</time>
      </trkpt>
      <trkpt lat="45.76597" lon="-0.25362">
        <ele>21.7890625</ele>
        <time>2018-04-06T12:14:51Z</time>
      </trkpt>
      <trkpt lat="45.7664" lon="-0.25414">
        <ele>21.28515625</ele>
        <time>2018-04-06T12:15:01Z</time>
      </trkpt>
      <trkpt lat="45.76687" lon="-0.25458">
        <ele>21.23046875</ele>
        <time>2018-04-06T12:15:11Z</time>
      </trkpt>
      <trkpt lat="45.76722" lon="-0.2549">
        <ele>21.078125</ele>
        <time>2018-04-06T12:15:18Z</time>
      </trkpt>
      <trkpt lat="45.76771" lon="-0.25536">
        <ele>20.921875</ele>
        <time>2018-04-06T12:15:28Z</time>
      </trkpt>
      <trkpt lat="45.76796" lon="-0.25559">
        <ele>20.46875</ele>
        <time>2018-04-06T12:15:33Z</time>
      </trkpt>
      <trkpt lat="45.768" lon="-0.25567">
        <ele>20.41015625</ele>
        <time>2018-04-06T12:15:34Z</time>
      </trkpt>
      <trkpt lat="45.76801" lon="-0.25576">
        <ele>20.39453125</ele>
        <time>2018-04-06T12:15:35Z</time>
      </trkpt>
      <trkpt lat="45.768" lon="-0.25584">
        <ele>20.41015625</ele>
        <time>2018-04-06T12:15:36Z</time>
      </trkpt>
      <trkpt lat="45.76797" lon="-0.25591">
        <ele>20.453125</ele>
        <time>2018-04-06T12:15:37Z</time>
      </trkpt>
      <trkpt lat="45.76795" lon="-0.25598">
        <ele>20.54296875</ele>
        <time>2018-04-06T12:15:38Z</time>
      </trkpt>
      <trkpt lat="45.7677" lon="-0.25663">
        <ele>21.953125</ele>
        <time>2018-04-06T12:15:47Z</time>
      </trkpt>
      <trkpt lat="45.76757" lon="-0.257">
        <ele>22</ele>
        <time>2018-04-06T12:15:52Z</time>
      </trkpt>
      <trkpt lat="45.76756" lon="-0.25707">
        <ele>22</ele>
        <time>2018-04-06T12:15:53Z</time>
      </trkpt>
      <trkpt lat="45.76758" lon="-0.25715">
        <ele>22</ele>
        <time>2018-04-06T12:15:54Z</time>
      </trkpt>
      <trkpt lat="45.76761" lon="-0.25721">
        <ele>22</ele>
        <time>2018-04-06T12:15:55Z</time>
      </trkpt>
      <trkpt lat="45.76765" lon="-0.25725">
        <ele>22</ele>
        <time>2018-04-06T12:15:56Z</time>
      </trkpt>
      <trkpt lat="45.7677" lon="-0.25728">
        <ele>22</ele>
        <time>2018-04-06T12:15:57Z</time>
      </trkpt>
      <trkpt lat="45.76776" lon="-0.2573">
        <ele>22</ele>
        <time>2018-04-06T12:15:58Z</time>
      </trkpt>
      <trkpt lat="45.76808" lon="-0.25752">
        <ele>22</ele>
        <time>2018-04-06T12:16:04Z</time>
      </trkpt>
      <trkpt lat="45.76853" lon="-0.25792">
        <ele>22</ele>
        <time>2018-04-06T12:16:13Z</time>
      </trkpt>
      <trkpt lat="45.7691" lon="-0.25832">
        <ele>21.5703125</ele>
        <time>2018-04-06T12:16:24Z</time>
      </trkpt>
      <trkpt lat="45.76926" lon="-0.25844">
        <ele>21.55078125</ele>
        <time>2018-04-06T12:16:27Z</time>
      </trkpt>
      <trkpt lat="45.7693" lon="-0.2585">
        <ele>21.6171875</ele>
        <time>2018-04-06T12:16:28Z</time>
      </trkpt>
      <trkpt lat="45.76931" lon="-0.25858">
        <ele>21.73828125</ele>
        <time>2018-04-06T12:16:29Z</time>
      </trkpt>
      <trkpt lat="45.76931" lon="-0.25866">
        <ele>21.875</ele>
        <time>2018-04-06T12:16:30Z</time>
      </trkpt>
      <trkpt lat="45.76929" lon="-0.25874">
        <ele>22</ele>
        <time>2018-04-06T12:16:31Z</time>
      </trkpt>
      <trkpt lat="45.76928" lon="-0.25881">
        <ele>22</ele>
        <time>2018-04-06T12:16:32Z</time>
      </trkpt>
      <trkpt lat="45.76928" lon="-0.25889">
        <ele>22</ele>
        <time>2018-04-06T12:16:33Z</time>
      </trkpt>
      <trkpt lat="45.76929" lon="-0.25897">
        <ele>22</ele>
        <time>2018-04-06T12:16:34Z</time>
      </trkpt>
      <trkpt lat="45.76932" lon="-0.25904">
        <ele>22</ele>
        <time>2018-04-06T12:16:35Z</time>
      </trkpt>
      <trkpt lat="45.76936" lon="-0.2591">
        <ele>22.0234375</ele>
        <time>2018-04-06T12:16:36Z</time>
      </trkpt>
      <trkpt lat="45.7694" lon="-0.25914">
        <ele>22.08984375</ele>
        <time>2018-04-06T12:16:37Z</time>
      </trkpt>
      <trkpt lat="45.76945" lon="-0.25918">
        <ele>22.17578125</ele>
        <time>2018-04-06T12:16:38Z</time>
      </trkpt>
      <trkpt lat="45.76983" lon="-0.25954">
        <ele>22.9453125</ele>
        <time>2018-04-06T12:16:46Z</time>
      </trkpt>
      <trkpt lat="45.7703" lon="-0.25998">
        <ele>23</ele>
        <time>2018-04-06T12:16:56Z</time>
      </trkpt>
      <trkpt lat="45.7707" lon="-0.26031">
        <ele>23.38671875</ele>
        <time>2018-04-06T12:17:04Z</time>
      </trkpt>
      <trkpt lat="45.77123" lon="-0.2607">
        <ele>23.58984375</ele>
        <time>2018-04-06T12:17:14Z</time>
      </trkpt>
      <trkpt lat="45.77139" lon="-0.26081">
        <ele>23.30078125</ele>
        <time>2018-04-06T12:17:17Z</time>
      </trkpt>
      <trkpt lat="45.77144" lon="-0.26086">
        <ele>23.21484375</ele>
        <time>2018-04-06T12:17:18Z</time>
      </trkpt>
      <trkpt lat="45.77192" lon="-0.2615">
        <ele>23.98828125</ele>
        <time>2018-04-06T12:17:29Z</time>
      </trkpt>
      <trkpt lat="45.77246" lon="-0.26224">
        <ele>24</ele>
        <time>2018-04-06T12:17:42Z</time>
      </trkpt>
      <trkpt lat="45.77296" lon="-0.26291">
        <ele>24.53515625</ele>
        <time>2018-04-06T12:17:54Z</time>
      </trkpt>
      <trkpt lat="45.77343" lon="-0.26333">
        <ele>25</ele>
        <time>2018-04-06T12:18:04Z</time>
      </trkpt>
      <trkpt lat="45.77346" lon="-0.26339">
        <ele>25</ele>
        <time>2018-04-06T12:18:05Z</time>
      </trkpt>
      <trkpt lat="45.77345" lon="-0.26346">
        <ele>25</ele>
        <time>2018-04-06T12:18:06Z</time>
      </trkpt>
      <trkpt lat="45.77343" lon="-0.26353">
        <ele>25</ele>
        <time>2018-04-06T12:18:07Z</time>
      </trkpt>
      <trkpt lat="45.7734" lon="-0.26359">
        <ele>25</ele>
        <time>2018-04-06T12:18:08Z</time>
      </trkpt>
      <trkpt lat="45.77337" lon="-0.26365">
        <ele>25</ele>
        <time>2018-04-06T12:18:09Z</time>
      </trkpt>
      <trkpt lat="45.77305" lon="-0.26429">
        <ele>22.99609375</ele>
        <time>2018-04-06T12:18:18Z</time>
      </trkpt>
      <trkpt lat="45.77293" lon="-0.26452">
        <ele>22.78125</ele>
        <time>2018-04-06T12:18:21Z</time>
      </trkpt>
      <trkpt lat="45.77248" lon="-0.26534">
        <ele>20.765625</ele>
        <time>2018-04-06T12:18:32Z</time>
      </trkpt>
      <trkpt lat="45.77207" lon="-0.26604">
        <ele>20</ele>
        <time>2018-04-06T12:18:42Z</time>
      </trkpt>
      <trkpt lat="45.77168" lon="-0.26652">
        <ele>20.02734375</ele>
        <time>2018-04-06T12:18:51Z</time>
      </trkpt>
      <trkpt lat="45.77161" lon="-0.26662">
        <ele>20.18359375</ele>
        <time>2018-04-06T12:18:53Z</time>
      </trkpt>
      <trkpt lat="45.77159" lon="-0.26667">
        <ele>20.28515625</ele>
        <time>2018-04-06T12:18:54Z</time>
      </trkpt>
      <trkpt lat="45.77159" lon="-0.26673">
        <ele>20.3828125</ele>
        <time>2018-04-06T12:18:55Z</time>
      </trkpt>
      <trkpt lat="45.77161" lon="-0.26679">
        <ele>20.453125</ele>
        <time>2018-04-06T12:18:56Z</time>
      </trkpt>
      <trkpt lat="45.77164" lon="-0.26684">
        <ele>20.5078125</ele>
        <time>2018-04-06T12:18:57Z</time>
      </trkpt>
      <trkpt lat="45.77167" lon="-0.26689">
        <ele>20.5546875</ele>
        <time>2018-04-06T12:18:58Z</time>
      </trkpt>
      <trkpt lat="45.77169" lon="-0.26694">
        <ele>20.59765625</ele>
        <time>2018-04-06T12:18:59Z</time>
      </trkpt>
      <trkpt lat="45.77192" lon="-0.26744">
        <ele>20.3359375</ele>
        <time>2018-04-06T12:19:07Z</time>
      </trkpt>
      <trkpt lat="45.77218" lon="-0.26798">
        <ele>20.65625</ele>
        <time>2018-04-06T12:19:15Z</time>
      </trkpt>
      <trkpt lat="45.77233" lon="-0.26836">
        <ele>21.1328125</ele>
        <time>2018-04-06T12:19:20Z</time>
      </trkpt>
      <trkpt lat="45.77255" lon="-0.2691">
        <ele>21.796875</ele>
        <time>2018-04-06T12:19:29Z</time>
      </trkpt>
      <trkpt lat="45.77281" lon="-0.26972">
        <ele>22</ele>
        <time>2018-04-06T12:19:37Z</time>
      </trkpt>
      <trkpt lat="45.77301" lon="-0.27043">
        <ele>22.97265625</ele>
        <time>2018-04-06T12:19:40Z</time>
      </trkpt>
      <trkpt lat="45.77311" lon="-0.27068">
        <ele>22.890625</ele>
        <time>2018-04-06T12:19:50Z</time>
      </trkpt>
      <trkpt lat="45.77322" lon="-0.27084">
        <ele>23</ele>
        <time>2018-04-06T12:19:51Z</time>
      </trkpt>
      <trkpt lat="45.7734" lon="-0.27102">
        <ele>23.44921875</ele>
        <time>2018-04-06T12:19:58Z</time>
      </trkpt>
      <trkpt lat="45.77391" lon="-0.27135">
        <ele>24.72265625</ele>
        <time>2018-04-06T12:20:09Z</time>
      </trkpt>
      <trkpt lat="45.7743" lon="-0.27163">
        <ele>25</ele>
        <time>2018-04-06T12:20:13Z</time>
      </trkpt>
      <trkpt lat="45.77432" lon="-0.27208">
        <ele>25</ele>
        <time>2018-04-06T12:20:14Z</time>
      </trkpt>
      <trkpt lat="45.77437" lon="-0.27239">
        <ele>25</ele>
        <time>2018-04-06T12:20:15Z</time>
      </trkpt>
      <trkpt lat="45.77427" lon="-0.27243">
        <ele>25</ele>
        <time>2018-04-06T12:20:37Z</time>
      </trkpt>
      <trkpt lat="45.77407" lon="-0.27263">
        <ele>24.984375</ele>
        <time>2018-04-06T12:20:42Z</time>
      </trkpt>
      <trkpt lat="45.77391" lon="-0.27289">
        <ele>24.6171875</ele>
        <time>2018-04-06T12:20:46Z</time>
      </trkpt>
      <trkpt lat="45.77384" lon="-0.27305">
        <ele>24.3046875</ele>
        <time>2018-04-06T12:20:48Z</time>
      </trkpt>
      <trkpt lat="45.7736" lon="-0.27363">
        <ele>21.97265625</ele>
        <time>2018-04-06T12:20:55Z</time>
      </trkpt>
      <trkpt lat="45.7736" lon="-0.27371">
        <ele>21.71875</ele>
        <time>2018-04-06T12:20:56Z</time>
      </trkpt>
      <trkpt lat="45.77362" lon="-0.27379">
        <ele>21.4921875</ele>
        <time>2018-04-06T12:20:57Z</time>
      </trkpt>
      <trkpt lat="45.77366" lon="-0.27385">
        <ele>21.32421875</ele>
        <time>2018-04-06T12:20:58Z</time>
      </trkpt>
      <trkpt lat="45.77369" lon="-0.2739">
        <ele>21.19140625</ele>
        <time>2018-04-06T12:20:59Z</time>
      </trkpt>
      <trkpt lat="45.77372" lon="-0.27396">
        <ele>21.0546875</ele>
        <time>2018-04-06T12:21:00Z</time>
      </trkpt>
      <trkpt lat="45.77374" lon="-0.27401">
        <ele>20.89453125</ele>
        <time>2018-04-06T12:21:01Z</time>
      </trkpt>
      <trkpt lat="45.77374" lon="-0.27406">
        <ele>20.71875</ele>
        <time>2018-04-06T12:21:02Z</time>
      </trkpt>
      <trkpt lat="45.77371" lon="-0.27408">
        <ele>20.58984375</ele>
        <time>2018-04-06T12:21:03Z</time>
      </trkpt>
      <trkpt lat="45.77368" lon="-0.27408">
        <ele>20.515625</ele>
        <time>2018-04-06T12:21:04Z</time>
      </trkpt>
      <trkpt lat="45.77364" lon="-0.27409">
        <ele>20.421875</ele>
        <time>2018-04-06T12:21:05Z</time>
      </trkpt>
      <trkpt lat="45.7736" lon="-0.27411">
        <ele>20.27734375</ele>
        <time>2018-04-06T12:21:06Z</time>
      </trkpt>
      <trkpt lat="45.77357" lon="-0.27414">
        <ele>20.09765625</ele>
        <time>2018-04-06T12:21:07Z</time>
      </trkpt>
      <trkpt lat="45.77353" lon="-0.27418">
        <ele>19.91015625</ele>
        <time>2018-04-06T12:21:08Z</time>
      </trkpt>
      <trkpt lat="45.77321" lon="-0.27445">
        <ele>18.6796875</ele>
        <time>2018-04-06T12:21:15Z</time>
      </trkpt>
      <trkpt lat="45.77316" lon="-0.27448">
        <ele>18.5625</ele>
        <time>2018-04-06T12:21:16Z</time>
      </trkpt>
      <trkpt lat="45.7728" lon="-0.27475">
        <ele>18.03515625</ele>
        <time>2018-04-06T12:21:23Z</time>
      </trkpt>
      <trkpt lat="45.77233" lon="-0.27515">
        <ele>18</ele>
        <time>2018-04-06T12:21:33Z</time>
      </trkpt>
      <trkpt lat="45.77204" lon="-0.27543">
        <ele>18.20703125</ele>
        <time>2018-04-06T12:22:27Z</time>
      </trkpt>
      <trkpt lat="45.77182" lon="-0.27567">
        <ele>18.76953125</ele>
        <time>2018-04-06T12:22:36Z</time>
      </trkpt>
      <trkpt lat="45.7717" lon="-0.27581">
        <ele>18.9375</ele>
        <time>2018-04-06T12:22:38Z</time>
      </trkpt>
      <trkpt lat="45.77161" lon="-0.27589">
        <ele>18.98828125</ele>
        <time>2018-04-06T12:22:39Z</time>
      </trkpt>
      <trkpt lat="45.7715" lon="-0.27602">
        <ele>19</ele>
        <time>2018-04-06T12:22:42Z</time>
      </trkpt>
      <trkpt lat="45.77131" lon="-0.27627">
        <ele>19</ele>
        <time>2018-04-06T12:22:47Z</time>
      </trkpt>
      <trkpt lat="45.77089" lon="-0.27697">
        <ele>19</ele>
        <time>2018-04-06T12:22:59Z</time>
      </trkpt>
      <trkpt lat="45.77058" lon="-0.27764">
        <ele>19</ele>
        <time>2018-04-06T12:23:09Z</time>
      </trkpt>
      <trkpt lat="45.77028" lon="-0.2783">
        <ele>19.30078125</ele>
        <time>2018-04-06T12:23:19Z</time>
      </trkpt>
      <trkpt lat="45.77012" lon="-0.2786">
        <ele>19.578125</ele>
        <time>2018-04-06T12:23:24Z</time>
      </trkpt>
      <trkpt lat="45.77001" lon="-0.27881">
        <ele>19.78515625</ele>
        <time>2018-04-06T12:23:28Z</time>
      </trkpt>
      <trkpt lat="45.7697" lon="-0.27934">
        <ele>20</ele>
        <time>2018-04-06T12:23:38Z</time>
      </trkpt>
      <trkpt lat="45.76942" lon="-0.27985">
        <ele>20</ele>
        <time>2018-04-06T12:23:47Z</time>
      </trkpt>
      <trkpt lat="45.76924" lon="-0.28013">
        <ele>20</ele>
        <time>2018-04-06T12:23:54Z</time>
      </trkpt>
      <trkpt lat="45.7691" lon="-0.28035">
        <ele>20</ele>
        <time>2018-04-06T12:24:01Z</time>
      </trkpt>
      <trkpt lat="45.76895" lon="-0.28057">
        <ele>20</ele>
        <time>2018-04-06T12:24:08Z</time>
      </trkpt>
      <trkpt lat="45.76876" lon="-0.2809">
        <ele>20</ele>
        <time>2018-04-06T12:24:18Z</time>
      </trkpt>
      <trkpt lat="45.76858" lon="-0.28116">
        <ele>19.75</ele>
        <time>2018-04-06T12:24:27Z</time>
      </trkpt>
      <trkpt lat="45.76841" lon="-0.2813">
        <ele>19.78515625</ele>
        <time>2018-04-06T12:24:35Z</time>
      </trkpt>
      <trkpt lat="45.76829" lon="-0.28139">
        <ele>19.8984375</ele>
        <time>2018-04-06T12:24:41Z</time>
      </trkpt>
      <trkpt lat="45.76828" lon="-0.2814">
        <ele>19.91796875</ele>
        <time>2018-04-06T12:24:46Z</time>
      </trkpt>
      <trkpt lat="45.76826" lon="-0.28141">
        <ele>19.9453125</ele>
        <time>2018-04-06T12:24:54Z</time>
      </trkpt>
      <trkpt lat="45.76819" lon="-0.28147">
        <ele>20</ele>
        <time>2018-04-06T12:25:02Z</time>
      </trkpt>
      <trkpt lat="45.76806" lon="-0.28157">
        <ele>20.04296875</ele>
        <time>2018-04-06T12:25:13Z</time>
      </trkpt>
      <trkpt lat="45.76799" lon="-0.28161">
        <ele>20.08203125</ele>
        <time>2018-04-06T12:25:18Z</time>
      </trkpt>
      <trkpt lat="45.76794" lon="-0.28165">
        <ele>20.14453125</ele>
        <time>2018-04-06T12:25:25Z</time>
      </trkpt>
      <trkpt lat="45.7679" lon="-0.28165">
        <ele>20.1640625</ele>
        <time>2018-04-06T12:25:32Z</time>
      </trkpt>
      <trkpt lat="45.76783" lon="-0.2817">
        <ele>20.26953125</ele>
        <time>2018-04-06T12:25:42Z</time>
      </trkpt>
      <trkpt lat="45.76782" lon="-0.28171">
        <ele>20.28515625</ele>
        <time>2018-04-06T12:25:43Z</time>
      </trkpt>
      <trkpt lat="45.76774" lon="-0.28175">
        <ele>20.40625</ele>
        <time>2018-04-06T12:25:52Z</time>
      </trkpt>
      <trkpt lat="45.76767" lon="-0.2818">
        <ele>20.5390625</ele>
        <time>2018-04-06T12:26:01Z</time>
      </trkpt>
      <trkpt lat="45.76759" lon="-0.28184">
        <ele>20.671875</ele>
        <time>2018-04-06T12:26:10Z</time>
      </trkpt>
      <trkpt lat="45.76755" lon="-0.28189">
        <ele>20.7734375</ele>
        <time>2018-04-06T12:26:17Z</time>
      </trkpt>
      <trkpt lat="45.76754" lon="-0.28192">
        <ele>20.8125</ele>
        <time>2018-04-06T12:26:19Z</time>
      </trkpt>
      <trkpt lat="45.76747" lon="-0.28198">
        <ele>20.91796875</ele>
        <time>2018-04-06T12:26:27Z</time>
      </trkpt>
      <trkpt lat="45.76739" lon="-0.28201">
        <ele>20.96484375</ele>
        <time>2018-04-06T12:26:35Z</time>
      </trkpt>
      <trkpt lat="45.76731" lon="-0.28198">
        <ele>20.95703125</ele>
        <time>2018-04-06T12:26:43Z</time>
      </trkpt>
      <trkpt lat="45.76725" lon="-0.28199">
        <ele>20.97265625</ele>
        <time>2018-04-06T12:26:49Z</time>
      </trkpt>
      <trkpt lat="45.7672" lon="-0.282">
        <ele>20.984375</ele>
        <time>2018-04-06T12:26:56Z</time>
      </trkpt>
      <trkpt lat="45.76709" lon="-0.28209">
        <ele>21.0390625</ele>
        <time>2018-04-06T12:27:03Z</time>
      </trkpt>
      <trkpt lat="45.76696" lon="-0.28218">
        <ele>21.27734375</ele>
        <time>2018-04-06T12:27:09Z</time>
      </trkpt>
      <trkpt lat="45.76685" lon="-0.28227">
        <ele>21.47265625</ele>
        <time>2018-04-06T12:27:15Z</time>
      </trkpt>
      <trkpt lat="45.76684" lon="-0.28228">
        <ele>21.5</ele>
        <time>2018-04-06T12:27:16Z</time>
      </trkpt>
      <trkpt lat="45.76682" lon="-0.2823">
        <ele>21.52734375</ele>
        <time>2018-04-06T12:27:17Z</time>
      </trkpt>
      <trkpt lat="45.76681" lon="-0.28232">
        <ele>21.55078125</ele>
        <time>2018-04-06T12:27:18Z</time>
      </trkpt>
      <trkpt lat="45.76679" lon="-0.28233">
        <ele>21.58203125</ele>
        <time>2018-04-06T12:27:19Z</time>
      </trkpt>
      <trkpt lat="45.76677" lon="-0.28234">
        <ele>21.6171875</ele>
        <time>2018-04-06T12:27:20Z</time>
      </trkpt>
      <trkpt lat="45.76663" lon="-0.28243">
        <ele>21.8828125</ele>
        <time>2018-04-06T12:27:27Z</time>
      </trkpt>
      <trkpt lat="45.7665" lon="-0.28252">
        <ele>22.109375</ele>
        <time>2018-04-06T12:27:33Z</time>
      </trkpt>
      <trkpt lat="45.76633" lon="-0.28266">
        <ele>22.421875</ele>
        <time>2018-04-06T12:27:41Z</time>
      </trkpt>
      <trkpt lat="45.76619" lon="-0.28282">
        <ele>22.66015625</ele>
        <time>2018-04-06T12:27:47Z</time>
      </trkpt>
      <trkpt lat="45.76603" lon="-0.283">
        <ele>22.9609375</ele>
        <time>2018-04-06T12:27:54Z</time>
      </trkpt>
      <trkpt lat="45.76583" lon="-0.28314">
        <ele>23</ele>
        <time>2018-04-06T12:28:02Z</time>
      </trkpt>
      <trkpt lat="45.76566" lon="-0.28324">
        <ele>23</ele>
        <time>2018-04-06T12:28:09Z</time>
      </trkpt>
      <trkpt lat="45.76541" lon="-0.28328">
        <ele>22.92578125</ele>
        <time>2018-04-06T12:28:17Z</time>
      </trkpt>
      <trkpt lat="45.7653" lon="-0.28334">
        <ele>22.73828125</ele>
        <time>2018-04-06T12:28:21Z</time>
      </trkpt>
      <trkpt lat="45.76523" lon="-0.28337">
        <ele>22.6015625</ele>
        <time>2018-04-06T12:28:24Z</time>
      </trkpt>
      <trkpt lat="45.7652" lon="-0.28337">
        <ele>22.5546875</ele>
        <time>2018-04-06T12:28:25Z</time>
      </trkpt>
      <trkpt lat="45.76518" lon="-0.28338">
        <ele>22.515625</ele>
        <time>2018-04-06T12:28:26Z</time>
      </trkpt>
      <trkpt lat="45.76516" lon="-0.2834">
        <ele>22.48046875</ele>
        <time>2018-04-06T12:28:27Z</time>
      </trkpt>
      <trkpt lat="45.76514" lon="-0.28341">
        <ele>22.44140625</ele>
        <time>2018-04-06T12:28:28Z</time>
      </trkpt>
      <trkpt lat="45.76494" lon="-0.28348">
        <ele>22.08984375</ele>
        <time>2018-04-06T12:28:35Z</time>
      </trkpt>
      <trkpt lat="45.76475" lon="-0.28355">
        <ele>22</ele>
        <time>2018-04-06T12:28:41Z</time>
      </trkpt>
      <trkpt lat="45.76456" lon="-0.28362">
        <ele>22</ele>
        <time>2018-04-06T12:28:47Z</time>
      </trkpt>
      <trkpt lat="45.76433" lon="-0.28372">
        <ele>22.01171875</ele>
        <time>2018-04-06T12:28:55Z</time>
      </trkpt>
      <trkpt lat="45.76411" lon="-0.28384">
        <ele>22.4140625</ele>
        <time>2018-04-06T12:29:02Z</time>
      </trkpt>
      <trkpt lat="45.76394" lon="-0.28391">
        <ele>22.72265625</ele>
        <time>2018-04-06T12:29:09Z</time>
      </trkpt>
      <trkpt lat="45.76383" lon="-0.28391">
        <ele>22.91796875</ele>
        <time>2018-04-06T12:29:18Z</time>
      </trkpt>
      <trkpt lat="45.76373" lon="-0.28394">
        <ele>23.18359375</ele>
        <time>2018-04-06T12:29:26Z</time>
      </trkpt>
      <trkpt lat="45.76368" lon="-0.28396">
        <ele>23.38671875</ele>
        <time>2018-04-06T12:29:32Z</time>
      </trkpt>
      <trkpt lat="45.76361" lon="-0.28399">
        <ele>23.62890625</ele>
        <time>2018-04-06T12:29:40Z</time>
      </trkpt>
      <trkpt lat="45.76345" lon="-0.2841">
        <ele>24.203125</ele>
        <time>2018-04-06T12:29:47Z</time>
      </trkpt>
      <trkpt lat="45.76324" lon="-0.28424">
        <ele>24.96875</ele>
        <time>2018-04-06T12:29:55Z</time>
      </trkpt>
      <trkpt lat="45.7631" lon="-0.28435">
        <ele>25.4296875</ele>
        <time>2018-04-06T12:30:01Z</time>
      </trkpt>
      <trkpt lat="45.76296" lon="-0.28458">
        <ele>25.703125</ele>
        <time>2018-04-06T12:30:08Z</time>
      </trkpt>
      <trkpt lat="45.76282" lon="-0.28492">
        <ele>25.51953125</ele>
        <time>2018-04-06T12:30:16Z</time>
      </trkpt>
      <trkpt lat="45.76261" lon="-0.28544">
        <ele>24.8984375</ele>
        <time>2018-04-06T12:30:27Z</time>
      </trkpt>
      <trkpt lat="45.76244" lon="-0.28592">
        <ele>23.5</ele>
        <time>2018-04-06T12:30:35Z</time>
      </trkpt>
      <trkpt lat="45.76241" lon="-0.28598">
        <ele>23.31640625</ele>
        <time>2018-04-06T12:30:36Z</time>
      </trkpt>
      <trkpt lat="45.76225" lon="-0.28638">
        <ele>22.16796875</ele>
        <time>2018-04-06T12:30:42Z</time>
      </trkpt>
      <trkpt lat="45.76223" lon="-0.28645">
        <ele>21.9375</ele>
        <time>2018-04-06T12:30:43Z</time>
      </trkpt>
      <trkpt lat="45.76222" lon="-0.28653">
        <ele>21.671875</ele>
        <time>2018-04-06T12:30:44Z</time>
      </trkpt>
      <trkpt lat="45.76213" lon="-0.28698">
        <ele>20.23828125</ele>
        <time>2018-04-06T12:30:49Z</time>
      </trkpt>
      <trkpt lat="45.76186" lon="-0.2877">
        <ele>18.82421875</ele>
        <time>2018-04-06T12:30:57Z</time>
      </trkpt>
      <trkpt lat="45.76152" lon="-0.28846">
        <ele>17.95703125</ele>
        <time>2018-04-06T12:31:06Z</time>
      </trkpt>
      <trkpt lat="45.76109" lon="-0.28921">
        <ele>16.12890625</ele>
        <time>2018-04-06T12:31:16Z</time>
      </trkpt>
      <trkpt lat="45.76092" lon="-0.28939">
        <ele>15.77734375</ele>
        <time>2018-04-06T12:31:19Z</time>
      </trkpt>
      <trkpt lat="45.76086" lon="-0.28944">
        <ele>15.6875</ele>
        <time>2018-04-06T12:31:20Z</time>
      </trkpt>
      <trkpt lat="45.76016" lon="-0.28992">
        <ele>14.83203125</ele>
        <time>2018-04-06T12:31:31Z</time>
      </trkpt>
      <trkpt lat="45.75967" lon="-0.29026">
        <ele>14.20703125</ele>
        <time>2018-04-06T12:31:39Z</time>
      </trkpt>
      <trkpt lat="45.75908" lon="-0.29072">
        <ele>14</ele>
        <time>2018-04-06T12:31:49Z</time>
      </trkpt>
      <trkpt lat="45.75875" lon="-0.29101">
        <ele>14</ele>
        <time>2018-04-06T12:31:55Z</time>
      </trkpt>
      <trkpt lat="45.75816" lon="-0.29155">
        <ele>14</ele>
        <time>2018-04-06T12:32:06Z</time>
      </trkpt>
      <trkpt lat="45.75759" lon="-0.29208">
        <ele>14</ele>
        <time>2018-04-06T12:32:17Z</time>
      </trkpt>
      <trkpt lat="45.75716" lon="-0.29248">
        <ele>14</ele>
        <time>2018-04-06T12:32:26Z</time>
      </trkpt>
      <trkpt lat="45.75691" lon="-0.29272">
        <ele>14</ele>
        <time>2018-04-06T12:32:33Z</time>
      </trkpt>
      <trkpt lat="45.7569" lon="-0.29274">
        <ele>14</ele>
        <time>2018-04-06T12:32:34Z</time>
      </trkpt>
      <trkpt lat="45.7569" lon="-0.29275">
        <ele>14</ele>
        <time>2018-04-06T12:32:35Z</time>
      </trkpt>
      <trkpt lat="45.7569" lon="-0.29276">
        <ele>14</ele>
        <time>2018-04-06T12:32:41Z</time>
      </trkpt>
      <trkpt lat="45.7569" lon="-0.29281">
        <ele>14</ele>
        <time>2018-04-06T12:32:45Z</time>
      </trkpt>
      <trkpt lat="45.75691" lon="-0.29284">
        <ele>14</ele>
        <time>2018-04-06T12:32:46Z</time>
      </trkpt>
      <trkpt lat="45.75691" lon="-0.29287">
        <ele>14</ele>
        <time>2018-04-06T12:32:47Z</time>
      </trkpt>
      <trkpt lat="45.75697" lon="-0.29315">
        <ele>14</ele>
        <time>2018-04-06T12:32:52Z</time>
      </trkpt>
      <trkpt lat="45.7571" lon="-0.29371">
        <ele>13.9609375</ele>
        <time>2018-04-06T12:33:01Z</time>
      </trkpt>
      <trkpt lat="45.75717" lon="-0.29409">
        <ele>14</ele>
        <time>2018-04-06T12:33:08Z</time>
      </trkpt>
      <trkpt lat="45.7573" lon="-0.29451">
        <ele>14</ele>
        <time>2018-04-06T12:33:16Z</time>
      </trkpt>
      <trkpt lat="45.75739" lon="-0.29471">
        <ele>14</ele>
        <time>2018-04-06T12:33:20Z</time>
      </trkpt>
      <trkpt lat="45.75741" lon="-0.29477">
        <ele>14</ele>
        <time>2018-04-06T12:33:21Z</time>
      </trkpt>
      <trkpt lat="45.75762" lon="-0.29523">
        <ele>14</ele>
        <time>2018-04-06T12:33:29Z</time>
      </trkpt>
      <trkpt lat="45.75794" lon="-0.29594">
        <ele>14.53125</ele>
        <time>2018-04-06T12:33:40Z</time>
      </trkpt>
      <trkpt lat="45.75804" lon="-0.29621">
        <ele>14.67578125</ele>
        <time>2018-04-06T12:33:44Z</time>
      </trkpt>
      <trkpt lat="45.75806" lon="-0.29629">
        <ele>14.75</ele>
        <time>2018-04-06T12:33:45Z</time>
      </trkpt>
      <trkpt lat="45.75817" lon="-0.29671">
        <ele>15.3671875</ele>
        <time>2018-04-06T12:33:51Z</time>
      </trkpt>
      <trkpt lat="45.75841" lon="-0.29711">
        <ele>16</ele>
        <time>2018-04-06T12:33:58Z</time>
      </trkpt>
      <trkpt lat="45.75873" lon="-0.29763">
        <ele>16</ele>
        <time>2018-04-06T12:34:07Z</time>
      </trkpt>
      <trkpt lat="45.75881" lon="-0.29782">
        <ele>16</ele>
        <time>2018-04-06T12:34:10Z</time>
      </trkpt>
      <trkpt lat="45.75903" lon="-0.29846">
        <ele>16</ele>
        <time>2018-04-06T12:34:19Z</time>
      </trkpt>
      <trkpt lat="45.75925" lon="-0.29912">
        <ele>16</ele>
        <time>2018-04-06T12:34:28Z</time>
      </trkpt>
      <trkpt lat="45.75963" lon="-0.30032">
        <ele>16.43359375</ele>
        <time>2018-04-06T12:34:44Z</time>
      </trkpt>
      <trkpt lat="45.75989" lon="-0.30114">
        <ele>17</ele>
        <time>2018-04-06T12:34:55Z</time>
      </trkpt>
      <trkpt lat="45.76013" lon="-0.30187">
        <ele>16.46484375</ele>
        <time>2018-04-06T12:35:05Z</time>
      </trkpt>
      <trkpt lat="45.76042" lon="-0.30279">
        <ele>16.05859375</ele>
        <time>2018-04-06T12:35:17Z</time>
      </trkpt>
      <trkpt lat="45.7606" lon="-0.30344">
        <ele>15.73046875</ele>
        <time>2018-04-06T12:35:26Z</time>
      </trkpt>
      <trkpt lat="45.76061" lon="-0.30351">
        <ele>15.72265625</ele>
        <time>2018-04-06T12:35:27Z</time>
      </trkpt>
      <trkpt lat="45.76059" lon="-0.30358">
        <ele>15.75</ele>
        <time>2018-04-06T12:35:28Z</time>
      </trkpt>
      <trkpt lat="45.76055" lon="-0.30363">
        <ele>15.81640625</ele>
        <time>2018-04-06T12:35:29Z</time>
      </trkpt>
      <trkpt lat="45.76051" lon="-0.30368">
        <ele>15.8984375</ele>
        <time>2018-04-06T12:35:30Z</time>
      </trkpt>
      <trkpt lat="45.76046" lon="-0.30372">
        <ele>15.984375</ele>
        <time>2018-04-06T12:35:31Z</time>
      </trkpt>
      <trkpt lat="45.75997" lon="-0.30411">
        <ele>15.37109375</ele>
        <time>2018-04-06T12:35:41Z</time>
      </trkpt>
      <trkpt lat="45.75944" lon="-0.30454">
        <ele>14.5859375</ele>
        <time>2018-04-06T12:35:51Z</time>
      </trkpt>
      <trkpt lat="45.75922" lon="-0.30472">
        <ele>13.921875</ele>
        <time>2018-04-06T12:35:55Z</time>
      </trkpt>
      <trkpt lat="45.75861" lon="-0.30522">
        <ele>12.6875</ele>
        <time>2018-04-06T12:36:06Z</time>
      </trkpt>
      <trkpt lat="45.75807" lon="-0.30562">
        <ele>12</ele>
        <time>2018-04-06T12:36:16Z</time>
      </trkpt>
      <trkpt lat="45.75752" lon="-0.30616">
        <ele>12.2890625</ele>
        <time>2018-04-06T12:36:27Z</time>
      </trkpt>
      <trkpt lat="45.7572" lon="-0.30671">
        <ele>12.921875</ele>
        <time>2018-04-06T12:36:35Z</time>
      </trkpt>
      <trkpt lat="45.75683" lon="-0.30742">
        <ele>11.7890625</ele>
        <time>2018-04-06T12:36:45Z</time>
      </trkpt>
      <trkpt lat="45.75643" lon="-0.30789">
        <ele>10.87109375</ele>
        <time>2018-04-06T12:36:54Z</time>
      </trkpt>
      <trkpt lat="45.75623" lon="-0.30811">
        <ele>10.43359375</ele>
        <time>2018-04-06T12:36:59Z</time>
      </trkpt>
      <trkpt lat="45.75619" lon="-0.30815">
        <ele>10.328125</ele>
        <time>2018-04-06T12:37:00Z</time>
      </trkpt>
      <trkpt lat="45.75615" lon="-0.30819">
        <ele>10.2578125</ele>
        <time>2018-04-06T12:37:01Z</time>
      </trkpt>
      <trkpt lat="45.75599" lon="-0.30838">
        <ele>10.01953125</ele>
        <time>2018-04-06T12:37:06Z</time>
      </trkpt>
      <trkpt lat="45.7557" lon="-0.3087">
        <ele>10.5625</ele>
        <time>2018-04-06T12:37:14Z</time>
      </trkpt>
      <trkpt lat="45.75535" lon="-0.30904">
        <ele>11.22265625</ele>
        <time>2018-04-06T12:37:23Z</time>
      </trkpt>
      <trkpt lat="45.75504" lon="-0.30932">
        <ele>12.515625</ele>
        <time>2018-04-06T12:37:30Z</time>
      </trkpt>
      <trkpt lat="45.75471" lon="-0.30963">
        <ele>13.33984375</ele>
        <time>2018-04-06T12:37:37Z</time>
      </trkpt>
      <trkpt lat="45.7543" lon="-0.31">
        <ele>13.97265625</ele>
        <time>2018-04-06T12:37:46Z</time>
      </trkpt>
      <trkpt lat="45.75405" lon="-0.31023">
        <ele>13.59765625</ele>
        <time>2018-04-06T12:37:51Z</time>
      </trkpt>
      <trkpt lat="45.75368" lon="-0.31055">
        <ele>12.8046875</ele>
        <time>2018-04-06T12:37:58Z</time>
      </trkpt>
      <trkpt lat="45.75365" lon="-0.3106">
        <ele>12.74609375</ele>
        <time>2018-04-06T12:37:59Z</time>
      </trkpt>
      <trkpt lat="45.75363" lon="-0.31065">
        <ele>12.71484375</ele>
        <time>2018-04-06T12:38:00Z</time>
      </trkpt>
      <trkpt lat="45.75364" lon="-0.31071">
        <ele>12.7265625</ele>
        <time>2018-04-06T12:38:01Z</time>
      </trkpt>
      <trkpt lat="45.75366" lon="-0.31077">
        <ele>12.765625</ele>
        <time>2018-04-06T12:38:02Z</time>
      </trkpt>
      <trkpt lat="45.75368" lon="-0.31083">
        <ele>12.8046875</ele>
        <time>2018-04-06T12:38:03Z</time>
      </trkpt>
      <trkpt lat="45.75387" lon="-0.31137">
        <ele>13.02734375</ele>
        <time>2018-04-06T12:38:11Z</time>
      </trkpt>
      <trkpt lat="45.7539" lon="-0.31144">
        <ele>13.015625</ele>
        <time>2018-04-06T12:38:12Z</time>
      </trkpt>
      <trkpt lat="45.75414" lon="-0.31193">
        <ele>12.69921875</ele>
        <time>2018-04-06T12:38:19Z</time>
      </trkpt>
      <trkpt lat="45.75418" lon="-0.31198">
        <ele>12.73046875</ele>
        <time>2018-04-06T12:38:20Z</time>
      </trkpt>
      <trkpt lat="45.75462" lon="-0.31257">
        <ele>13</ele>
        <time>2018-04-06T12:38:30Z</time>
      </trkpt>
      <trkpt lat="45.75489" lon="-0.31313">
        <ele>12.9765625</ele>
        <time>2018-04-06T12:38:38Z</time>
      </trkpt>
      <trkpt lat="45.75515" lon="-0.31383">
        <ele>12.453125</ele>
        <time>2018-04-06T12:38:47Z</time>
      </trkpt>
      <trkpt lat="45.75533" lon="-0.31458">
        <ele>12.1796875</ele>
        <time>2018-04-06T12:38:56Z</time>
      </trkpt>
      <trkpt lat="45.75539" lon="-0.31484">
        <ele>11.890625</ele>
        <time>2018-04-06T12:38:59Z</time>
      </trkpt>
      <trkpt lat="45.75565" lon="-0.31566">
        <ele>12.0078125</ele>
        <time>2018-04-06T12:39:09Z</time>
      </trkpt>
      <trkpt lat="45.75568" lon="-0.31574">
        <ele>12.00390625</ele>
        <time>2018-04-06T12:39:10Z</time>
      </trkpt>
      <trkpt lat="45.75572" lon="-0.31581">
        <ele>12.0390625</ele>
        <time>2018-04-06T12:39:11Z</time>
      </trkpt>
      <trkpt lat="45.75597" lon="-0.31642">
        <ele>11.1875</ele>
        <time>2018-04-06T12:39:19Z</time>
      </trkpt>
      <trkpt lat="45.75625" lon="-0.31719">
        <ele>11.73046875</ele>
        <time>2018-04-06T12:39:29Z</time>
      </trkpt>
      <trkpt lat="45.75645" lon="-0.31801">
        <ele>11.79296875</ele>
        <time>2018-04-06T12:39:39Z</time>
      </trkpt>
      <trkpt lat="45.75648" lon="-0.31868">
        <ele>12.66015625</ele>
        <time>2018-04-06T12:39:47Z</time>
      </trkpt>
      <trkpt lat="45.75647" lon="-0.31916">
        <ele>12.796875</ele>
        <time>2018-04-06T12:39:53Z</time>
      </trkpt>
      <trkpt lat="45.75648" lon="-0.31976">
        <ele>12.84375</ele>
        <time>2018-04-06T12:40:01Z</time>
      </trkpt>
      <trkpt lat="45.75647" lon="-0.31984">
        <ele>12.83203125</ele>
        <time>2018-04-06T12:40:02Z</time>
      </trkpt>
      <trkpt lat="45.75646" lon="-0.31991">
        <ele>12.80078125</ele>
        <time>2018-04-06T12:40:03Z</time>
      </trkpt>
      <trkpt lat="45.75642" lon="-0.31997">
        <ele>12.7421875</ele>
        <time>2018-04-06T12:40:04Z</time>
      </trkpt>
      <trkpt lat="45.75638" lon="-0.32001">
        <ele>12.6640625</ele>
        <time>2018-04-06T12:40:05Z</time>
      </trkpt>
      <trkpt lat="45.75633" lon="-0.32005">
        <ele>12.578125</ele>
        <time>2018-04-06T12:40:06Z</time>
      </trkpt>
      <trkpt lat="45.75629" lon="-0.32008">
        <ele>12.49609375</ele>
        <time>2018-04-06T12:40:07Z</time>
      </trkpt>
      <trkpt lat="45.7561" lon="-0.32021">
        <ele>12.15625</ele>
        <time>2018-04-06T12:40:12Z</time>
      </trkpt>
      <trkpt lat="45.75589" lon="-0.32031">
        <ele>12</ele>
        <time>2018-04-06T12:40:18Z</time>
      </trkpt>
      <trkpt lat="45.75576" lon="-0.32038">
        <ele>12</ele>
        <time>2018-04-06T12:40:24Z</time>
      </trkpt>
      <trkpt lat="45.75556" lon="-0.32054">
        <ele>12</ele>
        <time>2018-04-06T12:40:34Z</time>
      </trkpt>
      <trkpt lat="45.75536" lon="-0.3207">
        <ele>12.2734375</ele>
        <time>2018-04-06T12:40:41Z</time>
      </trkpt>
      <trkpt lat="45.75513" lon="-0.32092">
        <ele>13.1640625</ele>
        <time>2018-04-06T12:40:48Z</time>
      </trkpt>
      <trkpt lat="45.75474" lon="-0.32125">
        <ele>14.47265625</ele>
        <time>2018-04-06T12:41:01Z</time>
      </trkpt>
      <trkpt lat="45.75441" lon="-0.32153">
        <ele>15.68359375</ele>
        <time>2018-04-06T12:41:12Z</time>
      </trkpt>
      <trkpt lat="45.75408" lon="-0.3218">
        <ele>15.6875</ele>
        <time>2018-04-06T12:41:23Z</time>
      </trkpt>
      <trkpt lat="45.7539" lon="-0.32195">
        <ele>15.828125</ele>
        <time>2018-04-06T12:41:31Z</time>
      </trkpt>
      <trkpt lat="45.75373" lon="-0.32211">
        <ele>16</ele>
        <time>2018-04-06T12:41:40Z</time>
      </trkpt>
      <trkpt lat="45.75356" lon="-0.32226">
        <ele>16</ele>
        <time>2018-04-06T12:41:48Z</time>
      </trkpt>
      <trkpt lat="45.75344" lon="-0.32236">
        <ele>16</ele>
        <time>2018-04-06T12:41:54Z</time>
      </trkpt>
      <trkpt lat="45.75318" lon="-0.32257">
        <ele>16</ele>
        <time>2018-04-06T12:42:03Z</time>
      </trkpt>
      <trkpt lat="45.75295" lon="-0.32275">
        <ele>16.16015625</ele>
        <time>2018-04-06T12:42:13Z</time>
      </trkpt>
      <trkpt lat="45.75279" lon="-0.32295">
        <ele>16.53125</ele>
        <time>2018-04-06T12:42:21Z</time>
      </trkpt>
      <trkpt lat="45.75269" lon="-0.3232">
        <ele>17.09375</ele>
        <time>2018-04-06T12:42:29Z</time>
      </trkpt>
      <trkpt lat="45.75251" lon="-0.32349">
        <ele>18.26171875</ele>
        <time>2018-04-06T12:42:40Z</time>
      </trkpt>
      <trkpt lat="45.75233" lon="-0.32379">
        <ele>19.265625</ele>
        <time>2018-04-06T12:42:50Z</time>
      </trkpt>
      <trkpt lat="45.75215" lon="-0.32397">
        <ele>19.89453125</ele>
        <time>2018-04-06T12:42:57Z</time>
      </trkpt>
      <trkpt lat="45.75202" lon="-0.32413">
        <ele>20</ele>
        <time>2018-04-06T12:43:04Z</time>
      </trkpt>
      <trkpt lat="45.75187" lon="-0.32429">
        <ele>20</ele>
        <time>2018-04-06T12:43:12Z</time>
      </trkpt>
      <trkpt lat="45.75173" lon="-0.32444">
        <ele>20</ele>
        <time>2018-04-06T12:43:19Z</time>
      </trkpt>
      <trkpt lat="45.75159" lon="-0.3246">
        <ele>20</ele>
        <time>2018-04-06T12:43:26Z</time>
      </trkpt>
      <trkpt lat="45.75149" lon="-0.32484">
        <ele>20</ele>
        <time>2018-04-06T12:43:34Z</time>
      </trkpt>
      <trkpt lat="45.75147" lon="-0.32507">
        <ele>20</ele>
        <time>2018-04-06T12:43:40Z</time>
      </trkpt>
      <trkpt lat="45.75145" lon="-0.32534">
        <ele>20</ele>
        <time>2018-04-06T12:43:47Z</time>
      </trkpt>
      <trkpt lat="45.75137" lon="-0.32567">
        <ele>19.79296875</ele>
        <time>2018-04-06T12:43:55Z</time>
      </trkpt>
      <trkpt lat="45.7513" lon="-0.32589">
        <ele>19.53515625</ele>
        <time>2018-04-06T12:44:01Z</time>
      </trkpt>
      <trkpt lat="45.75123" lon="-0.32612">
        <ele>19.0078125</ele>
        <time>2018-04-06T12:44:08Z</time>
      </trkpt>
      <trkpt lat="45.75114" lon="-0.32649">
        <ele>18.22265625</ele>
        <time>2018-04-06T12:44:18Z</time>
      </trkpt>
      <trkpt lat="45.75108" lon="-0.3269">
        <ele>18.1171875</ele>
        <time>2018-04-06T12:44:28Z</time>
      </trkpt>
      <trkpt lat="45.75114" lon="-0.3272">
        <ele>18.23046875</ele>
        <time>2018-04-06T12:44:35Z</time>
      </trkpt>
      <trkpt lat="45.75116" lon="-0.32742">
        <ele>18.26953125</ele>
        <time>2018-04-06T12:44:41Z</time>
      </trkpt>
      <trkpt lat="45.75123" lon="-0.32766">
        <ele>18.38671875</ele>
        <time>2018-04-06T12:44:48Z</time>
      </trkpt>
      <trkpt lat="45.75128" lon="-0.32793">
        <ele>18.4765625</ele>
        <time>2018-04-06T12:44:57Z</time>
      </trkpt>
      <trkpt lat="45.75129" lon="-0.32794">
        <ele>18.4921875</ele>
        <time>2018-04-06T12:44:58Z</time>
      </trkpt>
      <trkpt lat="45.7513" lon="-0.32795">
        <ele>18.5078125</ele>
        <time>2018-04-06T12:44:59Z</time>
      </trkpt>
      <trkpt lat="45.7513" lon="-0.32797">
        <ele>18.5234375</ele>
        <time>2018-04-06T12:45:00Z</time>
      </trkpt>
      <trkpt lat="45.75131" lon="-0.32799">
        <ele>18.53515625</ele>
        <time>2018-04-06T12:45:01Z</time>
      </trkpt>
      <trkpt lat="45.75132" lon="-0.32803">
        <ele>18.55078125</ele>
        <time>2018-04-06T12:45:02Z</time>
      </trkpt>
      <trkpt lat="45.75138" lon="-0.32833">
        <ele>18.41796875</ele>
        <time>2018-04-06T12:45:10Z</time>
      </trkpt>
      <trkpt lat="45.7514" lon="-0.3286">
        <ele>18.10546875</ele>
        <time>2018-04-06T12:45:18Z</time>
      </trkpt>
      <trkpt lat="45.75144" lon="-0.32896">
        <ele>18</ele>
        <time>2018-04-06T12:45:28Z</time>
      </trkpt>
      <trkpt lat="45.75146" lon="-0.32935">
        <ele>18</ele>
        <time>2018-04-06T12:45:39Z</time>
      </trkpt>
      <trkpt lat="45.75142" lon="-0.32962">
        <ele>18</ele>
        <time>2018-04-06T12:45:47Z</time>
      </trkpt>
      <trkpt lat="45.75134" lon="-0.32984">
        <ele>18.03125</ele>
        <time>2018-04-06T12:45:53Z</time>
      </trkpt>
      <trkpt lat="45.75125" lon="-0.33008">
        <ele>18.2890625</ele>
        <time>2018-04-06T12:45:59Z</time>
      </trkpt>
      <trkpt lat="45.75115" lon="-0.33039">
        <ele>18.75390625</ele>
        <time>2018-04-06T12:46:07Z</time>
      </trkpt>
      <trkpt lat="45.75106" lon="-0.33077">
        <ele>18.90625</ele>
        <time>2018-04-06T12:46:15Z</time>
      </trkpt>
      <trkpt lat="45.75095" lon="-0.33112">
        <ele>19.484375</ele>
        <time>2018-04-06T12:46:23Z</time>
      </trkpt>
      <trkpt lat="45.75083" lon="-0.3314">
        <ele>20.22265625</ele>
        <time>2018-04-06T12:46:31Z</time>
      </trkpt>
      <trkpt lat="45.75063" lon="-0.33172">
        <ele>21.01171875</ele>
        <time>2018-04-06T12:46:42Z</time>
      </trkpt>
      <trkpt lat="45.7504" lon="-0.33207">
        <ele>22.19140625</ele>
        <time>2018-04-06T12:46:55Z</time>
      </trkpt>
      <trkpt lat="45.75028" lon="-0.33226">
        <ele>22.61328125</ele>
        <time>2018-04-06T12:47:02Z</time>
      </trkpt>
      <trkpt lat="45.75013" lon="-0.33256">
        <ele>22.98828125</ele>
        <time>2018-04-06T12:47:13Z</time>
      </trkpt>
      <trkpt lat="45.74994" lon="-0.33291">
        <ele>23</ele>
        <time>2018-04-06T12:47:25Z</time>
      </trkpt>
      <trkpt lat="45.74981" lon="-0.33311">
        <ele>23</ele>
        <time>2018-04-06T12:47:33Z</time>
      </trkpt>
      <trkpt lat="45.74969" lon="-0.33329">
        <ele>12.1640625</ele>
        <time>2018-04-06T12:47:40Z</time>
      </trkpt>
      <trkpt lat="45.74956" lon="-0.33345">
        <ele>16.62890625</ele>
        <time>2018-04-06T12:47:48Z</time>
      </trkpt>
      <trkpt lat="45.74941" lon="-0.33358">
        <ele>20.203125</ele>
        <time>2018-04-06T12:47:56Z</time>
      </trkpt>
      <trkpt lat="45.74921" lon="-0.33379">
        <ele>23</ele>
        <time>2018-04-06T12:48:05Z</time>
      </trkpt>
      <trkpt lat="45.74896" lon="-0.33402">
        <ele>23</ele>
        <time>2018-04-06T12:48:14Z</time>
      </trkpt>
      <trkpt lat="45.74869" lon="-0.33438">
        <ele>23</ele>
        <time>2018-04-06T12:48:25Z</time>
      </trkpt>
      <trkpt lat="45.74844" lon="-0.33482">
        <ele>23</ele>
        <time>2018-04-06T12:48:37Z</time>
      </trkpt>
      <trkpt lat="45.7483" lon="-0.33508">
        <ele>23</ele>
        <time>2018-04-06T12:48:44Z</time>
      </trkpt>
      <trkpt lat="45.74813" lon="-0.33537">
        <ele>23</ele>
        <time>2018-04-06T12:48:52Z</time>
      </trkpt>
      <trkpt lat="45.74797" lon="-0.33567">
        <ele>23</ele>
        <time>2018-04-06T12:49:00Z</time>
      </trkpt>
      <trkpt lat="45.74787" lon="-0.33597">
        <ele>23</ele>
        <time>2018-04-06T12:49:07Z</time>
      </trkpt>
      <trkpt lat="45.7478" lon="-0.33637">
        <ele>23</ele>
        <time>2018-04-06T12:49:15Z</time>
      </trkpt>
      <trkpt lat="45.74775" lon="-0.33679">
        <ele>22.9296875</ele>
        <time>2018-04-06T12:49:23Z</time>
      </trkpt>
      <trkpt lat="45.74761" lon="-0.33722">
        <ele>23</ele>
        <time>2018-04-06T12:49:32Z</time>
      </trkpt>
      <trkpt lat="45.74753" lon="-0.33735">
        <ele>23</ele>
        <time>2018-04-06T12:49:35Z</time>
      </trkpt>
      <trkpt lat="45.74751" lon="-0.3374">
        <ele>23</ele>
        <time>2018-04-06T12:49:36Z</time>
      </trkpt>
      <trkpt lat="45.74747" lon="-0.33743">
        <ele>23</ele>
        <time>2018-04-06T12:49:37Z</time>
      </trkpt>
      <trkpt lat="45.74744" lon="-0.33747">
        <ele>23</ele>
        <time>2018-04-06T12:49:38Z</time>
      </trkpt>
      <trkpt lat="45.74741" lon="-0.33751">
        <ele>23</ele>
        <time>2018-04-06T12:49:39Z</time>
      </trkpt>
      <trkpt lat="45.74738" lon="-0.33755">
        <ele>23</ele>
        <time>2018-04-06T12:49:40Z</time>
      </trkpt>
      <trkpt lat="45.74734" lon="-0.33758">
        <ele>23</ele>
        <time>2018-04-06T12:49:41Z</time>
      </trkpt>
      <trkpt lat="45.74698" lon="-0.33778">
        <ele>23</ele>
        <time>2018-04-06T12:49:49Z</time>
      </trkpt>
      <trkpt lat="45.74693" lon="-0.3378">
        <ele>23</ele>
        <time>2018-04-06T12:49:50Z</time>
      </trkpt>
      <trkpt lat="45.74666" lon="-0.33796">
        <ele>23</ele>
        <time>2018-04-06T12:49:57Z</time>
      </trkpt>
      <trkpt lat="45.74658" lon="-0.33817">
        <ele>22.91796875</ele>
        <time>2018-04-06T12:50:02Z</time>
      </trkpt>
      <trkpt lat="45.74654" lon="-0.33891">
        <ele>21.5546875</ele>
        <time>2018-04-06T12:50:13Z</time>
      </trkpt>
      <trkpt lat="45.7465" lon="-0.33974">
        <ele>21</ele>
        <time>2018-04-06T12:50:24Z</time>
      </trkpt>
      <trkpt lat="45.74643" lon="-0.34078">
        <ele>21</ele>
        <time>2018-04-06T12:50:38Z</time>
      </trkpt>
      <trkpt lat="45.74627" lon="-0.34149">
        <ele>21.5703125</ele>
        <time>2018-04-06T12:50:48Z</time>
      </trkpt>
      <trkpt lat="45.74618" lon="-0.34176">
        <ele>21.86328125</ele>
        <time>2018-04-06T12:50:52Z</time>
      </trkpt>
      <trkpt lat="45.74591" lon="-0.34238">
        <ele>22.77734375</ele>
        <time>2018-04-06T12:51:02Z</time>
      </trkpt>
      <trkpt lat="45.74585" lon="-0.34248">
        <ele>23.09375</ele>
        <time>2018-04-06T12:51:04Z</time>
      </trkpt>
      <trkpt lat="45.74554" lon="-0.34301">
        <ele>24.65625</ele>
        <time>2018-04-06T12:51:15Z</time>
      </trkpt>
      <trkpt lat="45.74526" lon="-0.34347">
        <ele>26.34375</ele>
        <time>2018-04-06T12:51:26Z</time>
      </trkpt>
      <trkpt lat="45.74499" lon="-0.34392">
        <ele>28.1484375</ele>
        <time>2018-04-06T12:51:37Z</time>
      </trkpt>
      <trkpt lat="45.74463" lon="-0.34451">
        <ele>30.5078125</ele>
        <time>2018-04-06T12:51:51Z</time>
      </trkpt>
      <trkpt lat="45.7443" lon="-0.34505">
        <ele>31.47265625</ele>
        <time>2018-04-06T12:52:04Z</time>
      </trkpt>
      <trkpt lat="45.74404" lon="-0.34553">
        <ele>32.32421875</ele>
        <time>2018-04-06T12:52:15Z</time>
      </trkpt>
      <trkpt lat="45.74401" lon="-0.3459">
        <ele>32.99609375</ele>
        <time>2018-04-06T12:52:22Z</time>
      </trkpt>
      <trkpt lat="45.74398" lon="-0.34606">
        <ele>33.56640625</ele>
        <time>2018-04-06T12:52:25Z</time>
      </trkpt>
      <trkpt lat="45.74396" lon="-0.3461">
        <ele>33.73046875</ele>
        <time>2018-04-06T12:52:26Z</time>
      </trkpt>
      <trkpt lat="45.74392" lon="-0.34614">
        <ele>33.86328125</ele>
        <time>2018-04-06T12:52:27Z</time>
      </trkpt>
      <trkpt lat="45.74388" lon="-0.34616">
        <ele>33.94921875</ele>
        <time>2018-04-06T12:52:28Z</time>
      </trkpt>
      <trkpt lat="45.74384" lon="-0.34618">
        <ele>34.0078125</ele>
        <time>2018-04-06T12:52:29Z</time>
      </trkpt>
      <trkpt lat="45.7438" lon="-0.34619">
        <ele>34.05859375</ele>
        <time>2018-04-06T12:52:30Z</time>
      </trkpt>
      <trkpt lat="45.74342" lon="-0.3464">
        <ele>35.3828125</ele>
        <time>2018-04-06T12:52:40Z</time>
      </trkpt>
      <trkpt lat="45.74319" lon="-0.34662">
        <ele>36.8359375</ele>
        <time>2018-04-06T12:52:48Z</time>
      </trkpt>
      <trkpt lat="45.74291" lon="-0.34695">
        <ele>38.59765625</ele>
        <time>2018-04-06T12:52:57Z</time>
      </trkpt>
      <trkpt lat="45.74307" lon="-0.34702">
        <ele>39.05859375</ele>
        <time>2018-04-06T12:53:04Z</time>
      </trkpt>
      <trkpt lat="45.74343" lon="-0.34723">
        <ele>39.50390625</ele>
        <time>2018-04-06T12:53:08Z</time>
      </trkpt>
      <trkpt lat="45.74393" lon="-0.34745">
        <ele>39.1328125</ele>
        <time>2018-04-06T12:53:21Z</time>
      </trkpt>
      <trkpt lat="45.74451" lon="-0.34767">
        <ele>38.94140625</ele>
      </trkpt>
      <trkpt lat="45.74509" lon="-0.34787">
        <ele>37.421875</ele>
      </trkpt>
      <trkpt lat="45.7455" lon="-0.34818">
        <ele>36.890625</ele>
      </trkpt>
      <trkpt lat="45.74577" lon="-0.3485">
        <ele>35.61328125</ele>
      </trkpt>
      <trkpt lat="45.74601" lon="-0.34876">
        <ele>34.22265625</ele>
      </trkpt>
      <trkpt lat="45.74616" lon="-0.34901">
        <ele>34.24609375</ele>
      </trkpt>
      <trkpt lat="45.7463" lon="-0.34918">
        <ele>34.3515625</ele>
      </trkpt>
      <trkpt lat="45.74648" lon="-0.34945">
        <ele>34.94140625</ele>
      </trkpt>
      <trkpt lat="45.74664" lon="-0.34957">
        <ele>35.10546875</ele>
      </trkpt>
      <trkpt lat="45.74679" lon="-0.34972">
        <ele>35.36328125</ele>
      </trkpt>
      <trkpt lat="45.74708" lon="-0.34986">
        <ele>35.3203125</ele>
      </trkpt>
      <trkpt lat="45.74744" lon="-0.34997">
        <ele>35.11328125</ele>
      </trkpt>
      <trkpt lat="45.74763" lon="-0.34999">
        <ele>34.828125</ele>
      </trkpt>
      <trkpt lat="45.74778" lon="-0.34999">
        <ele>34.734375</ele>
      </trkpt>
      <trkpt lat="45.74804" lon="-0.34997">
        <ele>34.6484375</ele>
      </trkpt>
      <trkpt lat="45.74849" lon="-0.34987">
        <ele>33.84375</ele>
      </trkpt>
      <trkpt lat="45.74914" lon="-0.34971">
        <ele>32.78515625</ele>
      </trkpt>
      <trkpt lat="45.74946" lon="-0.34983">
        <ele>32.69140625</ele>
      </trkpt>
      <trkpt lat="45.74976" lon="-0.34993">
        <ele>31.96875</ele>
      </trkpt>
      <trkpt lat="45.75009" lon="-0.35022">
        <ele>31.953125</ele>
      </trkpt>
      <trkpt lat="45.75029" lon="-0.35073">
        <ele>32.078125</ele>
      </trkpt>
      <trkpt lat="45.75046" lon="-0.35121">
        <ele>32.57421875</ele>
      </trkpt>
      <trkpt lat="45.75104" lon="-0.35371">
        <ele>29.9375</ele>
      </trkpt>
      <trkpt lat="45.75166" lon="-0.3563">
        <ele>23.53515625</ele>
      </trkpt>
      <trkpt lat="45.75207" lon="-0.35762">
        <ele>22.1953125</ele>
      </trkpt>
      <trkpt lat="45.75275" lon="-0.3595">
        <ele>20.87890625</ele>
      </trkpt>
      <trkpt lat="45.75322" lon="-0.36082">
        <ele>20.8828125</ele>
      </trkpt>
      <trkpt lat="45.7542" lon="-0.36355">
        <ele>23.47265625</ele>
      </trkpt>
      <trkpt lat="45.75371" lon="-0.36362">
        <ele>25.18359375</ele>
      </trkpt>
      <trkpt lat="45.7531" lon="-0.36382">
        <ele>28.3046875</ele>
      </trkpt>
      <trkpt lat="45.75248" lon="-0.36403">
        <ele>33.06640625</ele>
      </trkpt>
      <trkpt lat="45.75222" lon="-0.36407">
        <ele>35.21875</ele>
      </trkpt>
      <trkpt lat="45.75205" lon="-0.36403">
        <ele>35.6484375</ele>
      </trkpt>
      <trkpt lat="45.75166" lon="-0.36371">
        <ele>33.91796875</ele>
      </trkpt>
      <trkpt lat="45.75021" lon="-0.36317">
        <ele>45.51953125</ele>
      </trkpt>
      <trkpt lat="45.7498" lon="-0.36292">
        <ele>49.73046875</ele>
      </trkpt>
      <trkpt lat="45.74965" lon="-0.36237">
        <ele>50.015625</ele>
      </trkpt>
      <trkpt lat="45.74958" lon="-0.36217">
        <ele>50.265625</ele>
      </trkpt>
      <trkpt lat="45.74954" lon="-0.36211">
        <ele>50.4921875</ele>
      </trkpt>
      <trkpt lat="45.74947" lon="-0.36202">
        <ele>51.2578125</ele>
      </trkpt>
      <trkpt lat="45.74914" lon="-0.36182">
        <ele>54.19921875</ele>
      </trkpt>
      <trkpt lat="45.74897" lon="-0.36169">
        <ele>55.1328125</ele>
      </trkpt>
      <trkpt lat="45.74889" lon="-0.36161">
        <ele>55.58203125</ele>
      </trkpt>
      <trkpt lat="45.74885" lon="-0.36156">
        <ele>55.79296875</ele>
      </trkpt>
      <trkpt lat="45.74888" lon="-0.3617">
        <ele>55.8515625</ele>
      </trkpt>
      <trkpt lat="45.74888" lon="-0.36179">
        <ele>56.01953125</ele>
      </trkpt>
      <trkpt lat="45.74886" lon="-0.36188">
        <ele>56.296875</ele>
      </trkpt>
      <trkpt lat="45.7488" lon="-0.36205">
        <ele>56.98046875</ele>
      </trkpt>
      <trkpt lat="45.7487" lon="-0.36219">
        <ele>57</ele>
      </trkpt>
      <trkpt lat="45.74852" lon="-0.36237">
        <ele>57</ele>
      </trkpt>
      <trkpt lat="45.74816" lon="-0.36261">
        <ele>56.95703125</ele>
      </trkpt>
      <trkpt lat="45.74773" lon="-0.36277">
        <ele>56.46484375</ele>
      </trkpt>
      <trkpt lat="45.74735" lon="-0.36296">
        <ele>55.546875</ele>
      </trkpt>
      <trkpt lat="45.74726" lon="-0.36304">
        <ele>55.359375</ele>
      </trkpt>
      <trkpt lat="45.74716" lon="-0.36317">
        <ele>55.12890625</ele>
      </trkpt>
      <trkpt lat="45.74695" lon="-0.36337">
        <ele>54.19140625</ele>
      </trkpt>
      <trkpt lat="45.74684" lon="-0.36344">
        <ele>53.7578125</ele>
      </trkpt>
      <trkpt lat="45.74672" lon="-0.3635">
        <ele>53.2890625</ele>
      </trkpt>
      <trkpt lat="45.74665" lon="-0.36351">
        <ele>53.015625</ele>
      </trkpt>
      <trkpt lat="45.74652" lon="-0.36349">
        <ele>52.50390625</ele>
      </trkpt>
      <trkpt lat="45.74645" lon="-0.36348">
        <ele>52.21875</ele>
      </trkpt>
      <trkpt lat="45.74619" lon="-0.36342">
        <ele>51.17578125</ele>
      </trkpt>
      <trkpt lat="45.74586" lon="-0.36336">
        <ele>49.859375</ele>
      </trkpt>
      <trkpt lat="45.74561" lon="-0.36329">
        <ele>48.84765625</ele>
      </trkpt>
      <trkpt lat="45.74546" lon="-0.3632">
        <ele>48.16796875</ele>
      </trkpt>
      <trkpt lat="45.74537" lon="-0.36312">
        <ele>47.359375</ele>
      </trkpt>
      <trkpt lat="45.74524" lon="-0.36295">
        <ele>46.0390625</ele>
      </trkpt>
      <trkpt lat="45.74506" lon="-0.36272">
        <ele>44.73828125</ele>
      </trkpt>
      <trkpt lat="45.74504" lon="-0.36268">
        <ele>44.5703125</ele>
      </trkpt>
      <trkpt lat="45.74507" lon="-0.36285">
        <ele>44.8828125</ele>
      </trkpt>
      <trkpt lat="45.74508" lon="-0.36304">
        <ele>45.14453125</ele>
      </trkpt>
      <trkpt lat="45.74508" lon="-0.36329">
        <ele>45.53125</ele>
      </trkpt>
      <trkpt lat="45.74506" lon="-0.36355">
        <ele>45.859375</ele>
      </trkpt>
      <trkpt lat="45.74499" lon="-0.36395">
        <ele>46.06640625</ele>
      </trkpt>
      <trkpt lat="45.74495" lon="-0.36422">
        <ele>46.23046875</ele>
      </trkpt>
      <trkpt lat="45.74492" lon="-0.36438">
        <ele>46.37890625</ele>
      </trkpt>
      <trkpt lat="45.74493" lon="-0.36444">
        <ele>46.48046875</ele>
      </trkpt>
      <trkpt lat="45.74491" lon="-0.36476">
        <ele>46.96484375</ele>
      </trkpt>
      <trkpt lat="45.74488" lon="-0.36518">
        <ele>46.125</ele>
      </trkpt>
      <trkpt lat="45.74488" lon="-0.3656">
        <ele>45.3515625</ele>
      </trkpt>
      <trkpt lat="45.74487" lon="-0.36583">
        <ele>44.9296875</ele>
      </trkpt>
      <trkpt lat="45.74488" lon="-0.36606">
        <ele>44.83984375</ele>
      </trkpt>
      <trkpt lat="45.74486" lon="-0.36628">
        <ele>44.76953125</ele>
      </trkpt>
      <trkpt lat="45.74479" lon="-0.36675">
        <ele>44.48828125</ele>
      </trkpt>
      <trkpt lat="45.74475" lon="-0.36703">
        <ele>44.48828125</ele>
      </trkpt>
      <trkpt lat="45.74472" lon="-0.36722">
        <ele>44.7265625</ele>
      </trkpt>
      <trkpt lat="45.74469" lon="-0.36758">
        <ele>45.23046875</ele>
      </trkpt>
      <trkpt lat="45.74466" lon="-0.36797">
        <ele>45.12890625</ele>
      </trkpt>
      <trkpt lat="45.74465" lon="-0.36817">
        <ele>45.03515625</ele>
      </trkpt>
      <trkpt lat="45.74466" lon="-0.36842">
        <ele>44.80078125</ele>
      </trkpt>
      <trkpt lat="45.74465" lon="-0.36875">
        <ele>44.453125</ele>
      </trkpt>
      <trkpt lat="45.74466" lon="-0.36904">
        <ele>44.1796875</ele>
      </trkpt>
      <trkpt lat="45.74462" lon="-0.36951">
        <ele>43.2109375</ele>
      </trkpt>
      <trkpt lat="45.74462" lon="-0.36988">
        <ele>42.21484375</ele>
      </trkpt>
      <trkpt lat="45.74462" lon="-0.3704">
        <ele>40.73828125</ele>
      </trkpt>
      <trkpt lat="45.74456" lon="-0.37094">
        <ele>38.7890625</ele>
      </trkpt>
      <trkpt lat="45.74451" lon="-0.37129">
        <ele>37.54296875</ele>
      </trkpt>
      <trkpt lat="45.74449" lon="-0.37144">
        <ele>36.99609375</ele>
      </trkpt>
      <trkpt lat="45.74443" lon="-0.37164">
        <ele>36.58203125</ele>
      </trkpt>
      <trkpt lat="45.7444" lon="-0.37186">
        <ele>36.17578125</ele>
      </trkpt>
      <trkpt lat="45.7444" lon="-0.37205">
        <ele>35.80859375</ele>
      </trkpt>
      <trkpt lat="45.7444" lon="-0.3722">
        <ele>35.546875</ele>
      </trkpt>
      <trkpt lat="45.74441" lon="-0.37234">
        <ele>35.27734375</ele>
      </trkpt>
      <trkpt lat="45.74443" lon="-0.37244">
        <ele>35.0625</ele>
      </trkpt>
      <trkpt lat="45.74447" lon="-0.37256">
        <ele>34.765625</ele>
      </trkpt>
      <trkpt lat="45.74453" lon="-0.3727">
        <ele>34.2265625</ele>
      </trkpt>
      <trkpt lat="45.74455" lon="-0.37287">
        <ele>33.69921875</ele>
      </trkpt>
      <trkpt lat="45.74456" lon="-0.37305">
        <ele>33.1640625</ele>
      </trkpt>
      <trkpt lat="45.74456" lon="-0.37322">
        <ele>32.390625</ele>
      </trkpt>
      <trkpt lat="45.74443" lon="-0.37311">
        <ele>32.98046875</ele>
      </trkpt>
      <trkpt lat="45.74427" lon="-0.37297">
        <ele>33.25390625</ele>
      </trkpt>
      <trkpt lat="45.74413" lon="-0.37284">
        <ele>33.33203125</ele>
      </trkpt>
      <trkpt lat="45.74375" lon="-0.37252">
        <ele>33.80078125</ele>
      </trkpt>
      <trkpt lat="45.74354" lon="-0.37234">
        <ele>33.17578125</ele>
      </trkpt>
      <trkpt lat="45.74338" lon="-0.37219">
        <ele>32.87890625</ele>
      </trkpt>
      <trkpt lat="45.74329" lon="-0.37207">
        <ele>32.9375</ele>
      </trkpt>
      <trkpt lat="45.74323" lon="-0.37196">
        <ele>33.04296875</ele>
      </trkpt>
      <trkpt lat="45.74319" lon="-0.37183">
        <ele>33.234375</ele>
      </trkpt>
      <trkpt lat="45.74314" lon="-0.37175">
        <ele>33.2265625</ele>
      </trkpt>
      <trkpt lat="45.74308" lon="-0.37173">
        <ele>32.921875</ele>
      </trkpt>
      <trkpt lat="45.74304" lon="-0.37173">
        <ele>32.63671875</ele>
      </trkpt>
      <trkpt lat="45.74299" lon="-0.37177">
        <ele>32.2265625</ele>
      </trkpt>
      <trkpt lat="45.74295" lon="-0.37183">
        <ele>31.61328125</ele>
      </trkpt>
      <trkpt lat="45.7429" lon="-0.3719">
        <ele>31.01171875</ele>
      </trkpt>
      <trkpt lat="45.7429" lon="-0.37204">
        <ele>30.48828125</ele>
      </trkpt>
      <trkpt lat="45.74281" lon="-0.37217">
        <ele>29.73828125</ele>
      </trkpt>
      <trkpt lat="45.74268" lon="-0.3723">
        <ele>28.984375</ele>
      </trkpt>
      <trkpt lat="45.74266" lon="-0.37237">
        <ele>28.9140625</ele>
      </trkpt>
      <trkpt lat="45.74266" lon="-0.37257">
        <ele>28.8359375</ele>
      </trkpt>
      <trkpt lat="45.74267" lon="-0.37289">
        <ele>27.7265625</ele>
      </trkpt>
      <trkpt lat="45.74273" lon="-0.37368">
        <ele>26.13671875</ele>
      </trkpt>
      <trkpt lat="45.74278" lon="-0.37435">
        <ele>24.99609375</ele>
      </trkpt>
      <trkpt lat="45.74282" lon="-0.37479">
        <ele>23.5625</ele>
      </trkpt>
      <trkpt lat="45.74288" lon="-0.375">
        <ele>21.8515625</ele>
      </trkpt>
      <trkpt lat="45.74283" lon="-0.375">
        <ele>21.640625</ele>
      </trkpt>
      <trkpt lat="45.74275" lon="-0.37498">
        <ele>21.3984375</ele>
      </trkpt>
      <trkpt lat="45.74266" lon="-0.37493">
        <ele>21.46875</ele>
      </trkpt>
      <trkpt lat="45.7426" lon="-0.37486">
        <ele>21.953125</ele>
      </trkpt>
      <trkpt lat="45.74251" lon="-0.37475">
        <ele>22.453125</ele>
      </trkpt>
      <trkpt lat="45.74239" lon="-0.37463">
        <ele>22.41796875</ele>
      </trkpt>
      <trkpt lat="45.74219" lon="-0.3745">
        <ele>22.20703125</ele>
      </trkpt>
      <trkpt lat="45.74202" lon="-0.37439">
        <ele>21.9921875</ele>
      </trkpt>
      <trkpt lat="45.74197" lon="-0.37436">
        <ele>21.89453125</ele>
      </trkpt>
      <trkpt lat="45.74183" lon="-0.37424">
        <ele>21.83984375</ele>
      </trkpt>
      <trkpt lat="45.74172" lon="-0.37411">
        <ele>21.86328125</ele>
      </trkpt>
      <trkpt lat="45.74161" lon="-0.37393">
        <ele>22.11328125</ele>
      </trkpt>
      <trkpt lat="45.74152" lon="-0.37375">
        <ele>22.484375</ele>
      </trkpt>
      <trkpt lat="45.74131" lon="-0.37334">
        <ele>22.62890625</ele>
      </trkpt>
      <trkpt lat="45.74114" lon="-0.37297">
        <ele>22.6875</ele>
      </trkpt>
      <trkpt lat="45.74102" lon="-0.37269">
        <ele>22.7578125</ele>
      </trkpt>
      <trkpt lat="45.74094" lon="-0.37242">
        <ele>22.73828125</ele>
      </trkpt>
      <trkpt lat="45.74086" lon="-0.37218">
        <ele>22.625</ele>
      </trkpt>
      <trkpt lat="45.74081" lon="-0.372">
        <ele>22.625</ele>
      </trkpt>
      <trkpt lat="45.74075" lon="-0.37167">
        <ele>22.80078125</ele>
      </trkpt>
      <trkpt lat="45.74067" lon="-0.37135">
        <ele>22.796875</ele>
      </trkpt>
      <trkpt lat="45.74066" lon="-0.3713">
        <ele>22.80859375</ele>
      </trkpt>
      <trkpt lat="45.74062" lon="-0.37117">
        <ele>22.6953125</ele>
      </trkpt>
      <trkpt lat="45.74056" lon="-0.37098">
        <ele>22.5078125</ele>
      </trkpt>
      <trkpt lat="45.74048" lon="-0.37076">
        <ele>22.32421875</ele>
      </trkpt>
      <trkpt lat="45.74044" lon="-0.37063">
        <ele>22.390625</ele>
      </trkpt>
      <trkpt lat="45.7403" lon="-0.37034">
        <ele>22.38671875</ele>
      </trkpt>
      <trkpt lat="45.7402" lon="-0.37016">
        <ele>22.34765625</ele>
      </trkpt>
      <trkpt lat="45.74009" lon="-0.36995">
        <ele>22.33203125</ele>
      </trkpt>
      <trkpt lat="45.74002" lon="-0.36984">
        <ele>22.27734375</ele>
      </trkpt>
      <trkpt lat="45.73995" lon="-0.36972">
        <ele>22.2265625</ele>
      </trkpt>
      <trkpt lat="45.73987" lon="-0.36961">
        <ele>22.21875</ele>
      </trkpt>
      <trkpt lat="45.73982" lon="-0.36982">
        <ele>21.7734375</ele>
      </trkpt>
      <trkpt lat="45.7397" lon="-0.37026">
        <ele>20.76171875</ele>
      </trkpt>
      <trkpt lat="45.73951" lon="-0.371">
        <ele>18.57421875</ele>
      </trkpt>
      <trkpt lat="45.7394" lon="-0.37142">
        <ele>18.1640625</ele>
      </trkpt>
      <trkpt lat="45.73933" lon="-0.3718">
        <ele>17.90625</ele>
      </trkpt>
      <trkpt lat="45.73929" lon="-0.37211">
        <ele>17.5546875</ele>
      </trkpt>
      <trkpt lat="45.73925" lon="-0.37243">
        <ele>16.86328125</ele>
      </trkpt>
      <trkpt lat="45.7392" lon="-0.37267">
        <ele>16.4609375</ele>
      </trkpt>
      <trkpt lat="45.73914" lon="-0.37289">
        <ele>16.23046875</ele>
      </trkpt>
      <trkpt lat="45.73907" lon="-0.37311">
        <ele>15.94921875</ele>
      </trkpt>
      <trkpt lat="45.73897" lon="-0.37338">
        <ele>15.140625</ele>
      </trkpt>
      <trkpt lat="45.73895" lon="-0.37345">
        <ele>14.921875</ele>
      </trkpt>
      <trkpt lat="45.73892" lon="-0.37359">
        <ele>14.55078125</ele>
      </trkpt>
      <trkpt lat="45.73886" lon="-0.37377">
        <ele>14.00390625</ele>
      </trkpt>
      <trkpt lat="45.73894" lon="-0.37381">
        <ele>14.171875</ele>
      </trkpt>
      <trkpt lat="45.73904" lon="-0.3739">
        <ele>14.25</ele>
      </trkpt>
      <trkpt lat="45.73918" lon="-0.37409">
        <ele>14.07421875</ele>
      </trkpt>
      <trkpt lat="45.73923" lon="-0.37418">
        <ele>13.90234375</ele>
      </trkpt>
      <trkpt lat="45.73921" lon="-0.37428">
        <ele>13.65234375</ele>
      </trkpt>
      <trkpt lat="45.73916" lon="-0.37438">
        <ele>13.4609375</ele>
      </trkpt>
      <trkpt lat="45.73908" lon="-0.37446">
        <ele>13.28515625</ele>
      </trkpt>
      <trkpt lat="45.73899" lon="-0.37456">
        <ele>13.12890625</ele>
      </trkpt>
      <trkpt lat="45.73894" lon="-0.37461">
        <ele>13.07421875</ele>
      </trkpt>
      <trkpt lat="45.73889" lon="-0.3746">
        <ele>13.05078125</ele>
      </trkpt>
      <trkpt lat="45.73884" lon="-0.37453">
        <ele>13.03125</ele>
      </trkpt>
      <trkpt lat="45.73881" lon="-0.37448">
        <ele>13.0078125</ele>
      </trkpt>
      <trkpt lat="45.73878" lon="-0.37444">
        <ele>13</ele>
      </trkpt>
      <trkpt lat="45.73869" lon="-0.37451">
        <ele>13</ele>
      </trkpt>
      <trkpt lat="45.73868" lon="-0.37456">
        <ele>13</ele>
      </trkpt>
      <trkpt lat="45.73868" lon="-0.37462">
        <ele>13</ele>
      </trkpt>
      <trkpt lat="45.73882" lon="-0.37492">
        <ele>13</ele>
      </trkpt>
      <trkpt lat="45.73898" lon="-0.37533">
        <ele>13.00390625</ele>
      </trkpt>
      <trkpt lat="45.73914" lon="-0.37575">
        <ele>12.828125</ele>
      </trkpt>
      <trkpt lat="45.73917" lon="-0.37588">
        <ele>12.65234375</ele>
      </trkpt>
      <trkpt lat="45.73918" lon="-0.37604">
        <ele>13.1875</ele>
      </trkpt>
      <trkpt lat="45.73917" lon="-0.37609">
        <ele>13.41796875</ele>
      </trkpt>
      <trkpt lat="45.73912" lon="-0.37619">
        <ele>13.94140625</ele>
      </trkpt>
      <trkpt lat="45.73901" lon="-0.37632">
        <ele>14.8203125</ele>
      </trkpt>
      <trkpt lat="45.73885" lon="-0.37647">
        <ele>16.0234375</ele>
      </trkpt>
      <trkpt lat="45.73872" lon="-0.3766">
        <ele>17.3984375</ele>
      </trkpt>
      <trkpt lat="45.73863" lon="-0.3767">
        <ele>18.23046875</ele>
      </trkpt>
      <trkpt lat="45.7384" lon="-0.37652">
        <ele>17.81640625</ele>
      </trkpt>
      <trkpt lat="45.7383" lon="-0.37643">
        <ele>17.75</ele>
      </trkpt>
      <trkpt lat="45.73815" lon="-0.37633">
        <ele>18.16796875</ele>
      </trkpt>
      <trkpt lat="45.73806" lon="-0.37622">
        <ele>18.44140625</ele>
      </trkpt>
      <trkpt lat="45.73774" lon="-0.376">
        <ele>20.5546875</ele>
      </trkpt>
      <trkpt lat="45.73756" lon="-0.37576">
        <ele>22.203125</ele>
      </trkpt>
      <trkpt lat="45.73733" lon="-0.37537">
        <ele>23.3515625</ele>
      </trkpt>
      <trkpt lat="45.73711" lon="-0.37507">
        <ele>23.90625</ele>
      </trkpt>
      <trkpt lat="45.73687" lon="-0.3748">
        <ele>24.03125</ele>
      </trkpt>
      <trkpt lat="45.73672" lon="-0.37453">
        <ele>22.66796875</ele>
      </trkpt>
      <trkpt lat="45.73665" lon="-0.37435">
        <ele>21.2421875</ele>
      </trkpt>
      <trkpt lat="45.73645" lon="-0.37413">
        <ele>19.29296875</ele>
      </trkpt>
      <trkpt lat="45.73631" lon="-0.37393">
        <ele>18.1796875</ele>
      </trkpt>
      <trkpt lat="45.73626" lon="-0.37383">
        <ele>17.74609375</ele>
      </trkpt>
      <trkpt lat="45.73623" lon="-0.37366">
        <ele>16.8984375</ele>
      </trkpt>
      <trkpt lat="45.73623" lon="-0.37343">
        <ele>16.3359375</ele>
      </trkpt>
      <trkpt lat="45.73622" lon="-0.37323">
        <ele>15.88671875</ele>
      </trkpt>
      <trkpt lat="45.73618" lon="-0.37297">
        <ele>15.71484375</ele>
      </trkpt>
      <trkpt lat="45.73603" lon="-0.37255">
        <ele>15.984375</ele>
      </trkpt>
      <trkpt lat="45.73578" lon="-0.37191">
        <ele>16.7890625</ele>
      </trkpt>
      <trkpt lat="45.73567" lon="-0.37146">
        <ele>15.6171875</ele>
      </trkpt>
      <trkpt lat="45.73551" lon="-0.37101">
        <ele>15.19140625</ele>
      </trkpt>
      <trkpt lat="45.73537" lon="-0.37064">
        <ele>15.1484375</ele>
      </trkpt>
      <trkpt lat="45.73527" lon="-0.3702">
        <ele>14.99609375</ele>
      </trkpt>
      <trkpt lat="45.73515" lon="-0.36987">
        <ele>15.2265625</ele>
      </trkpt>
      <trkpt lat="45.73507" lon="-0.36969">
        <ele>15.421875</ele>
      </trkpt>
      <trkpt lat="45.73495" lon="-0.36948">
        <ele>15.875</ele>
      </trkpt>
      <trkpt lat="45.73494" lon="-0.36947">
        <ele>15.8984375</ele>
      </trkpt>
      <trkpt lat="45.73498" lon="-0.36934">
        <ele>15.75</ele>
      </trkpt>
      <trkpt lat="45.73498" lon="-0.36928">
        <ele>15.76171875</ele>
      </trkpt>
      <trkpt lat="45.73497" lon="-0.36908">
        <ele>15.765625</ele>
      </trkpt>
      <trkpt lat="45.73495" lon="-0.36893">
        <ele>15.80859375</ele>
      </trkpt>
      <trkpt lat="45.73488" lon="-0.36839">
        <ele>16.65234375</ele>
      </trkpt>
      <trkpt lat="45.73482" lon="-0.36792">
        <ele>17.515625</ele>
      </trkpt>
      <trkpt lat="45.73477" lon="-0.36749">
        <ele>17.8046875</ele>
      </trkpt>
      <trkpt lat="45.73473" lon="-0.3671">
        <ele>18.23046875</ele>
      </trkpt>
      <trkpt lat="45.73469" lon="-0.36659">
        <ele>18.59765625</ele>
      </trkpt>
      <trkpt lat="45.73462" lon="-0.36599">
        <ele>19.125</ele>
      </trkpt>
      <trkpt lat="45.73456" lon="-0.3657">
        <ele>19.16796875</ele>
      </trkpt>
      <trkpt lat="45.73453" lon="-0.36552">
        <ele>19.09765625</ele>
      </trkpt>
      <trkpt lat="45.73447" lon="-0.36529">
        <ele>19.2109375</ele>
      </trkpt>
      <trkpt lat="45.73438" lon="-0.36497">
        <ele>19.8515625</ele>
      </trkpt>
      <trkpt lat="45.73417" lon="-0.36434">
        <ele>19.5625</ele>
      </trkpt>
      <trkpt lat="45.73409" lon="-0.36396">
        <ele>19.015625</ele>
      </trkpt>
      <trkpt lat="45.73403" lon="-0.36367">
        <ele>18.5859375</ele>
      </trkpt>
      <trkpt lat="45.73396" lon="-0.3632">
        <ele>17.88671875</ele>
      </trkpt>
      <trkpt lat="45.73387" lon="-0.3627">
        <ele>17.12890625</ele>
      </trkpt>
      <trkpt lat="45.73384" lon="-0.36251">
        <ele>16.7578125</ele>
      </trkpt>
      <trkpt lat="45.73382" lon="-0.36235">
        <ele>16.24609375</ele>
      </trkpt>
      <trkpt lat="45.73378" lon="-0.36221">
        <ele>15.70703125</ele>
      </trkpt>
      <trkpt lat="45.73374" lon="-0.36214">
        <ele>15.38671875</ele>
      </trkpt>
      <trkpt lat="45.7337" lon="-0.36207">
        <ele>15.078125</ele>
      </trkpt>
      <trkpt lat="45.73361" lon="-0.36197">
        <ele>14.5546875</ele>
      </trkpt>
      <trkpt lat="45.73346" lon="-0.36183">
        <ele>13.94921875</ele>
      </trkpt>
      <trkpt lat="45.73333" lon="-0.36171">
        <ele>13.546875</ele>
      </trkpt>
      <trkpt lat="45.73317" lon="-0.36158">
        <ele>13.3125</ele>
      </trkpt>
      <trkpt lat="45.73303" lon="-0.36146">
        <ele>13.3984375</ele>
      </trkpt>
      <trkpt lat="45.73288" lon="-0.36135">
        <ele>13.890625</ele>
      </trkpt>
      <trkpt lat="45.73271" lon="-0.36123">
        <ele>14.7265625</ele>
      </trkpt>
      <trkpt lat="45.73255" lon="-0.36113">
        <ele>15.6640625</ele>
      </trkpt>
      <trkpt lat="45.73228" lon="-0.36099">
        <ele>17.12890625</ele>
      </trkpt>
      <trkpt lat="45.73203" lon="-0.36087">
        <ele>18.61328125</ele>
      </trkpt>
      <trkpt lat="45.73194" lon="-0.36083">
        <ele>19.1328125</ele>
      </trkpt>
      <trkpt lat="45.73176" lon="-0.36078">
        <ele>20.1015625</ele>
      </trkpt>
      <trkpt lat="45.73167" lon="-0.36072">
        <ele>20.58203125</ele>
      </trkpt>
      <trkpt lat="45.73162" lon="-0.36068">
        <ele>20.828125</ele>
      </trkpt>
      <trkpt lat="45.73158" lon="-0.36063">
        <ele>21.0078125</ele>
      </trkpt>
      <trkpt lat="45.73151" lon="-0.36049">
        <ele>21.3515625</ele>
      </trkpt>
      <trkpt lat="45.73144" lon="-0.36035">
        <ele>21.77734375</ele>
      </trkpt>
      <trkpt lat="45.73137" lon="-0.36029">
        <ele>22.15234375</ele>
      </trkpt>
      <trkpt lat="45.73135" lon="-0.36026">
        <ele>22.23046875</ele>
        <time>2018-04-06T13:02:57Z</time>
      </trkpt>
      <trkpt lat="45.73133" lon="-0.36032">
        <ele>22.34765625</ele>
        <time>2018-04-06T13:02:58Z</time>
      </trkpt>
      <trkpt lat="45.7313" lon="-0.36038">
        <ele>22.44921875</ele>
        <time>2018-04-06T13:02:59Z</time>
      </trkpt>
      <trkpt lat="45.73128" lon="-0.36044">
        <ele>22.546875</ele>
        <time>2018-04-06T13:03:00Z</time>
      </trkpt>
      <trkpt lat="45.73124" lon="-0.3605">
        <ele>22.6484375</ele>
        <time>2018-04-06T13:03:01Z</time>
      </trkpt>
      <trkpt lat="45.73107" lon="-0.36076">
        <ele>23.05859375</ele>
        <time>2018-04-06T13:03:06Z</time>
      </trkpt>
      <trkpt lat="45.73103" lon="-0.3608">
        <ele>23.15234375</ele>
        <time>2018-04-06T13:03:07Z</time>
      </trkpt>
      <trkpt lat="45.73099" lon="-0.36083">
        <ele>23.17578125</ele>
        <time>2018-04-06T13:03:08Z</time>
      </trkpt>
      <trkpt lat="45.73062" lon="-0.36105">
        <ele>23.44140625</ele>
        <time>2018-04-06T13:03:16Z</time>
      </trkpt>
      <trkpt lat="45.73029" lon="-0.36135">
        <ele>23.7265625</ele>
        <time>2018-04-06T13:03:24Z</time>
      </trkpt>
      <trkpt lat="45.72986" lon="-0.36179">
        <ele>25.19921875</ele>
        <time>2018-04-06T13:03:35Z</time>
      </trkpt>
      <trkpt lat="45.72974" lon="-0.36192">
        <ele>25.8203125</ele>
        <time>2018-04-06T13:03:39Z</time>
      </trkpt>
      <trkpt lat="45.72971" lon="-0.36191">
        <ele>25.9296875</ele>
        <time>2018-04-06T13:03:40Z</time>
      </trkpt>
      <trkpt lat="45.72945" lon="-0.36183">
        <ele>26.73046875</ele>
        <time>2018-04-06T13:03:47Z</time>
      </trkpt>
      <trkpt lat="45.72906" lon="-0.3617">
        <ele>25.30078125</ele>
        <time>2018-04-06T13:03:55Z</time>
      </trkpt>
      <trkpt lat="45.72879" lon="-0.36163">
        <ele>23.93359375</ele>
        <time>2018-04-06T13:04:00Z</time>
      </trkpt>
      <trkpt lat="45.72862" lon="-0.36163">
        <ele>23.21875</ele>
        <time>2018-04-06T13:04:03Z</time>
      </trkpt>
      <trkpt lat="45.72834" lon="-0.36172">
        <ele>22.41015625</ele>
        <time>2018-04-06T13:04:08Z</time>
      </trkpt>
      <trkpt lat="45.72794" lon="-0.36189">
        <ele>20.91015625</ele>
        <time>2018-04-06T13:04:14Z</time>
      </trkpt>
      <trkpt lat="45.72751" lon="-0.36182">
        <ele>20.47265625</ele>
        <time>2018-04-06T13:04:21Z</time>
      </trkpt>
      <trkpt lat="45.72721" lon="-0.36178">
        <ele>22.171875</ele>
        <time>2018-04-06T13:04:27Z</time>
      </trkpt>
      <trkpt lat="45.72708" lon="-0.36179">
        <ele>23.2578125</ele>
        <time>2018-04-06T13:04:30Z</time>
      </trkpt>
      <trkpt lat="45.72682" lon="-0.36185">
        <ele>25.984375</ele>
        <time>2018-04-06T13:04:37Z</time>
      </trkpt>
      <trkpt lat="45.72664" lon="-0.36188">
        <ele>27.92578125</ele>
        <time>2018-04-06T13:04:43Z</time>
      </trkpt>
      <trkpt lat="45.72637" lon="-0.36193">
        <ele>29.5546875</ele>
        <time>2018-04-06T13:04:53Z</time>
      </trkpt>
      <trkpt lat="45.72616" lon="-0.36198">
        <ele>30.4765625</ele>
        <time>2018-04-06T13:05:01Z</time>
      </trkpt>
      <trkpt lat="45.72593" lon="-0.3621">
        <ele>31.359375</ele>
        <time>2018-04-06T13:05:10Z</time>
      </trkpt>
      <trkpt lat="45.72565" lon="-0.36224">
        <ele>31.87109375</ele>
        <time>2018-04-06T13:05:19Z</time>
      </trkpt>
      <trkpt lat="45.72535" lon="-0.36247">
        <ele>32.69921875</ele>
        <time>2018-04-06T13:05:28Z</time>
      </trkpt>
      <trkpt lat="45.72504" lon="-0.36261">
        <ele>33.203125</ele>
        <time>2018-04-06T13:05:37Z</time>
      </trkpt>
      <trkpt lat="45.72467" lon="-0.36272">
        <ele>33.4453125</ele>
        <time>2018-04-06T13:05:47Z</time>
      </trkpt>
      <trkpt lat="45.72439" lon="-0.36273">
        <ele>33.3203125</ele>
        <time>2018-04-06T13:05:55Z</time>
      </trkpt>
      <trkpt lat="45.7241" lon="-0.36264">
        <ele>32.80859375</ele>
        <time>2018-04-06T13:06:03Z</time>
      </trkpt>
      <trkpt lat="45.72407" lon="-0.36265">
        <ele>32.81640625</ele>
        <time>2018-04-06T13:06:04Z</time>
      </trkpt>
      <trkpt lat="45.72373" lon="-0.3628">
        <ele>33.3203125</ele>
        <time>2018-04-06T13:06:14Z</time>
      </trkpt>
      <trkpt lat="45.7235" lon="-0.36291">
        <ele>34.5546875</ele>
        <time>2018-04-06T13:06:21Z</time>
      </trkpt>
      <trkpt lat="45.72329" lon="-0.36304">
        <ele>36.7734375</ele>
        <time>2018-04-06T13:06:28Z</time>
      </trkpt>
      <trkpt lat="45.72303" lon="-0.36328">
        <ele>39.22265625</ele>
        <time>2018-04-06T13:06:38Z</time>
      </trkpt>
      <trkpt lat="45.72274" lon="-0.36358">
        <ele>40.74609375</ele>
        <time>2018-04-06T13:06:49Z</time>
      </trkpt>
      <trkpt lat="45.72253" lon="-0.36379">
        <ele>41.9765625</ele>
        <time>2018-04-06T13:06:59Z</time>
      </trkpt>
      <trkpt lat="45.7224" lon="-0.36371">
        <ele>42.625</ele>
        <time>2018-04-06T13:07:09Z</time>
      </trkpt>
      <trkpt lat="45.72187" lon="-0.36351">
        <ele>44.703125</ele>
        <time>2018-04-06T13:07:18Z</time>
      </trkpt>
      <trkpt lat="45.7217" lon="-0.36337">
        <ele>44.74609375</ele>
        <time>2018-04-06T13:07:26Z</time>
      </trkpt>
      <trkpt lat="45.72141" lon="-0.36325">
        <ele>44.65625</ele>
      </trkpt>
      <trkpt lat="45.7213" lon="-0.36322">
        <ele>44.7109375</ele>
      </trkpt>
      <trkpt lat="45.72106" lon="-0.36316">
        <ele>44.96484375</ele>
      </trkpt>
      <trkpt lat="45.72088" lon="-0.36307">
        <ele>43.625</ele>
      </trkpt>
      <trkpt lat="45.7207" lon="-0.36292">
        <ele>41.890625</ele>
      </trkpt>
      <trkpt lat="45.72052" lon="-0.36269">
        <ele>41.015625</ele>
      </trkpt>
      <trkpt lat="45.72036" lon="-0.36256">
        <ele>39.58203125</ele>
      </trkpt>
      <trkpt lat="45.72021" lon="-0.3623">
        <ele>35.9765625</ele>
      </trkpt>
      <trkpt lat="45.72016" lon="-0.36226">
        <ele>35.27734375</ele>
      </trkpt>
      <trkpt lat="45.72001" lon="-0.36217">
        <ele>33.875</ele>
      </trkpt>
      <trkpt lat="45.71993" lon="-0.36203">
        <ele>33.05859375</ele>
      </trkpt>
      <trkpt lat="45.71973" lon="-0.36181">
        <ele>29.83984375</ele>
      </trkpt>
      <trkpt lat="45.71931" lon="-0.36143">
        <ele>26.6484375</ele>
      </trkpt>
      <trkpt lat="45.71901" lon="-0.36115">
        <ele>24.90234375</ele>
      </trkpt>
      <trkpt lat="45.71877" lon="-0.36085">
        <ele>24.05078125</ele>
      </trkpt>
      <trkpt lat="45.71883" lon="-0.36077">
        <ele>24.43359375</ele>
      </trkpt>
      <trkpt lat="45.71884" lon="-0.36068">
        <ele>24.71484375</ele>
        <time>2018-04-06T13:08:59Z</time>
      </trkpt>
      <trkpt lat="45.71897" lon="-0.36065">
        <ele>24.44140625</ele>
        <time>2018-04-06T13:09:06Z</time>
      </trkpt>
      <trkpt lat="45.71907" lon="-0.36062">
        <ele>24.1015625</ele>
        <time>2018-04-06T13:09:13Z</time>
      </trkpt>
      <trkpt lat="45.71923" lon="-0.3605">
        <ele>22.65234375</ele>
        <time>2018-04-06T13:09:18Z</time>
      </trkpt>
      <trkpt lat="45.71931" lon="-0.36029">
        <ele>19.9453125</ele>
        <time>2018-04-06T13:09:22Z</time>
      </trkpt>
      <trkpt lat="45.71932" lon="-0.36019">
        <ele>18.4375</ele>
        <time>2018-04-06T13:09:24Z</time>
      </trkpt>
      <trkpt lat="45.71927" lon="-0.36004">
        <ele>17.05859375</ele>
        <time>2018-04-06T13:09:26Z</time>
      </trkpt>
      <trkpt lat="45.71923" lon="-0.35989">
        <ele>15.6484375</ele>
        <time>2018-04-06T13:09:28Z</time>
      </trkpt>
      <trkpt lat="45.71918" lon="-0.35974">
        <ele>14.765625</ele>
        <time>2018-04-06T13:09:30Z</time>
      </trkpt>
      <trkpt lat="45.71917" lon="-0.3596">
        <ele>13.8359375</ele>
        <time>2018-04-06T13:09:31Z</time>
      </trkpt>
      <trkpt lat="45.71917" lon="-0.35953">
        <ele>13.30859375</ele>
        <time>2018-04-06T13:09:32Z</time>
      </trkpt>
      <trkpt lat="45.71918" lon="-0.35948">
        <ele>12.7890625</ele>
        <time>2018-04-06T13:09:33Z</time>
      </trkpt>
      <trkpt lat="45.7192" lon="-0.35945">
        <ele>12.37890625</ele>
        <time>2018-04-06T13:09:34Z</time>
      </trkpt>
      <trkpt lat="45.71922" lon="-0.35944">
        <ele>12.0234375</ele>
        <time>2018-04-06T13:09:35Z</time>
      </trkpt>
      <trkpt lat="45.71925" lon="-0.35943">
        <ele>11.65625</ele>
        <time>2018-04-06T13:09:36Z</time>
      </trkpt>
      <trkpt lat="45.71928" lon="-0.35944">
        <ele>11.2890625</ele>
        <time>2018-04-06T13:09:37Z</time>
      </trkpt>
      <trkpt lat="45.71931" lon="-0.35945">
        <ele>11.02734375</ele>
        <time>2018-04-06T13:09:38Z</time>
      </trkpt>
      <trkpt lat="45.71933" lon="-0.35947">
        <ele>10.73046875</ele>
        <time>2018-04-06T13:09:39Z</time>
      </trkpt>
      <trkpt lat="45.71937" lon="-0.35949">
        <ele>10.40625</ele>
        <time>2018-04-06T13:09:40Z</time>
      </trkpt>
      <trkpt lat="45.71962" lon="-0.35952">
        <ele>9.6328125</ele>
        <time>2018-04-06T13:09:47Z</time>
      </trkpt>
      <trkpt lat="45.71989" lon="-0.35958">
        <ele>8.49609375</ele>
        <time>2018-04-06T13:09:56Z</time>
      </trkpt>
      <trkpt lat="45.7201" lon="-0.35959">
        <ele>8.8828125</ele>
        <time>2018-04-06T13:10:03Z</time>
      </trkpt>
      <trkpt lat="45.72035" lon="-0.35962">
        <ele>9.5234375</ele>
        <time>2018-04-06T13:10:11Z</time>
      </trkpt>
      <trkpt lat="45.72048" lon="-0.3595">
        <ele>10.5625</ele>
        <time>2018-04-06T13:10:17Z</time>
      </trkpt>
      <trkpt lat="45.7205" lon="-0.35944">
        <ele>10.96484375</ele>
        <time>2018-04-06T13:10:19Z</time>
      </trkpt>
      <trkpt lat="45.7205" lon="-0.35942">
        <ele>11.09765625</ele>
        <time>2018-04-06T13:10:20Z</time>
      </trkpt>
      <trkpt lat="45.72048" lon="-0.35936">
        <ele>11.31640625</ele>
        <time>2018-04-06T13:10:25Z</time>
      </trkpt>
      <trkpt lat="45.72042" lon="-0.3592">
        <ele>11.796875</ele>
        <time>2018-04-06T13:10:33Z</time>
      </trkpt>
      <trkpt lat="45.72037" lon="-0.35917">
        <ele>11.69140625</ele>
        <time>2018-04-06T13:10:37Z</time>
      </trkpt>
      <trkpt lat="45.72035" lon="-0.35918">
        <ele>11.5546875</ele>
        <time>2018-04-06T13:10:38Z</time>
      </trkpt>
      <trkpt lat="45.72033" lon="-0.35918">
        <ele>11.43359375</ele>
        <time>2018-04-06T13:10:39Z</time>
      </trkpt>
      <trkpt lat="45.72031" lon="-0.35917">
        <ele>11.34375</ele>
        <time>2018-04-06T13:10:40Z</time>
      </trkpt>
      <trkpt lat="45.72029" lon="-0.35916">
        <ele>11.3046875</ele>
        <time>2018-04-06T13:10:41Z</time>
      </trkpt>
      <trkpt lat="45.72028" lon="-0.35915">
        <ele>11.3046875</ele>
        <time>2018-04-06T13:10:42Z</time>
      </trkpt>
      <trkpt lat="45.72027" lon="-0.35913">
        <ele>11.30859375</ele>
        <time>2018-04-06T13:10:43Z</time>
      </trkpt>
      <trkpt lat="45.72025" lon="-0.35912">
        <ele>11.28515625</ele>
        <time>2018-04-06T13:10:44Z</time>
      </trkpt>
      <trkpt lat="45.72024" lon="-0.35908">
        <ele>11.37890625</ele>
        <time>2018-04-06T13:10:56Z</time>
      </trkpt>
      <trkpt lat="45.72019" lon="-0.35901">
        <ele>11.41015625</ele>
        <time>2018-04-06T13:11:06Z</time>
      </trkpt>
      <trkpt lat="45.72014" lon="-0.35896">
        <ele>11.33203125</ele>
        <time>2018-04-06T13:11:09Z</time>
      </trkpt>
      <trkpt lat="45.72012" lon="-0.35895">
        <ele>11.2578125</ele>
        <time>2018-04-06T13:11:10Z</time>
      </trkpt>
      <trkpt lat="45.7201" lon="-0.35893">
        <ele>11.20703125</ele>
        <time>2018-04-06T13:11:11Z</time>
      </trkpt>
      <trkpt lat="45.72008" lon="-0.35892">
        <ele>11.1484375</ele>
        <time>2018-04-06T13:11:12Z</time>
      </trkpt>
      <trkpt lat="45.72006" lon="-0.3589">
        <ele>11.10546875</ele>
        <time>2018-04-06T13:11:13Z</time>
      </trkpt>
      <trkpt lat="45.72004" lon="-0.35888">
        <ele>11.0546875</ele>
        <time>2018-04-06T13:11:14Z</time>
      </trkpt>
      <trkpt lat="45.71991" lon="-0.35872">
        <ele>10.765625</ele>
        <time>2018-04-06T13:11:21Z</time>
      </trkpt>
      <trkpt lat="45.71975" lon="-0.35852">
        <ele>11.01953125</ele>
        <time>2018-04-06T13:11:28Z</time>
      </trkpt>
      <trkpt lat="45.71964" lon="-0.35839">
        <ele>11</ele>
        <time>2018-04-06T13:11:33Z</time>
      </trkpt>
      <trkpt lat="45.71946" lon="-0.35813">
        <ele>10.671875</ele>
        <time>2018-04-06T13:11:40Z</time>
      </trkpt>
      <trkpt lat="45.71933" lon="-0.35793">
        <ele>10.51953125</ele>
        <time>2018-04-06T13:11:46Z</time>
      </trkpt>
      <trkpt lat="45.71922" lon="-0.35774">
        <ele>10.625</ele>
        <time>2018-04-06T13:11:52Z</time>
      </trkpt>
      <trkpt lat="45.71906" lon="-0.35742">
        <ele>10.84765625</ele>
        <time>2018-04-06T13:12:00Z</time>
      </trkpt>
      <trkpt lat="45.71899" lon="-0.35716">
        <ele>11.39453125</ele>
        <time>2018-04-06T13:12:06Z</time>
      </trkpt>
      <trkpt lat="45.7189" lon="-0.3569">
        <ele>11.5078125</ele>
        <time>2018-04-06T13:12:12Z</time>
      </trkpt>
      <trkpt lat="45.71884" lon="-0.35668">
        <ele>11.16796875</ele>
        <time>2018-04-06T13:12:18Z</time>
      </trkpt>
      <trkpt lat="45.71875" lon="-0.35638">
        <ele>10.80859375</ele>
        <time>2018-04-06T13:12:25Z</time>
      </trkpt>
      <trkpt lat="45.71873" lon="-0.35602">
        <ele>11.3359375</ele>
        <time>2018-04-06T13:12:32Z</time>
      </trkpt>
      <trkpt lat="45.71872" lon="-0.35565">
        <ele>11.48828125</ele>
        <time>2018-04-06T13:12:39Z</time>
      </trkpt>
      <trkpt lat="45.71871" lon="-0.35539">
        <ele>11.46484375</ele>
        <time>2018-04-06T13:12:45Z</time>
      </trkpt>
      <trkpt lat="45.71876" lon="-0.35505">
        <ele>11.7265625</ele>
        <time>2018-04-06T13:12:52Z</time>
      </trkpt>
      <trkpt lat="45.71881" lon="-0.3547">
        <ele>11.99609375</ele>
        <time>2018-04-06T13:12:59Z</time>
      </trkpt>
      <trkpt lat="45.71886" lon="-0.35436">
        <ele>12.45703125</ele>
        <time>2018-04-06T13:13:05Z</time>
      </trkpt>
      <trkpt lat="45.71892" lon="-0.35409">
        <ele>13.01171875</ele>
        <time>2018-04-06T13:13:11Z</time>
      </trkpt>
      <trkpt lat="45.71898" lon="-0.3537">
        <ele>13.8203125</ele>
        <time>2018-04-06T13:13:19Z</time>
      </trkpt>
      <trkpt lat="45.71905" lon="-0.35334">
        <ele>14.453125</ele>
        <time>2018-04-06T13:13:26Z</time>
      </trkpt>
      <trkpt lat="45.71911" lon="-0.353">
        <ele>15.48046875</ele>
        <time>2018-04-06T13:13:33Z</time>
      </trkpt>
      <trkpt lat="45.71916" lon="-0.35268">
        <ele>16.59375</ele>
        <time>2018-04-06T13:13:40Z</time>
      </trkpt>
      <trkpt lat="45.71917" lon="-0.3524">
        <ele>17.12890625</ele>
        <time>2018-04-06T13:13:46Z</time>
      </trkpt>
      <trkpt lat="45.71917" lon="-0.35215">
        <ele>17.81640625</ele>
        <time>2018-04-06T13:13:52Z</time>
      </trkpt>
      <trkpt lat="45.71921" lon="-0.35182">
        <ele>19.3125</ele>
        <time>2018-04-06T13:14:00Z</time>
      </trkpt>
      <trkpt lat="45.71925" lon="-0.35148">
        <ele>20.6328125</ele>
        <time>2018-04-06T13:14:07Z</time>
      </trkpt>
      <trkpt lat="45.71932" lon="-0.35107">
        <ele>22.0234375</ele>
        <time>2018-04-06T13:14:15Z</time>
      </trkpt>
      <trkpt lat="45.71938" lon="-0.35072">
        <ele>23.2109375</ele>
        <time>2018-04-06T13:14:22Z</time>
      </trkpt>
      <trkpt lat="45.71945" lon="-0.35034">
        <ele>24.83984375</ele>
        <time>2018-04-06T13:14:29Z</time>
      </trkpt>
      <trkpt lat="45.71943" lon="-0.34996">
        <ele>24.21875</ele>
        <time>2018-04-06T13:14:36Z</time>
      </trkpt>
      <trkpt lat="45.7194" lon="-0.34963">
        <ele>23.4140625</ele>
        <time>2018-04-06T13:14:42Z</time>
      </trkpt>
      <trkpt lat="45.71942" lon="-0.34929">
        <ele>23.05078125</ele>
        <time>2018-04-06T13:14:49Z</time>
      </trkpt>
      <trkpt lat="45.71947" lon="-0.34895">
        <ele>22.01171875</ele>
        <time>2018-04-06T13:14:57Z</time>
      </trkpt>
      <trkpt lat="45.71955" lon="-0.34868">
        <ele>21.734375</ele>
        <time>2018-04-06T13:15:04Z</time>
      </trkpt>
      <trkpt lat="45.71964" lon="-0.34854">
        <ele>23.15625</ele>
        <time>2018-04-06T13:15:10Z</time>
      </trkpt>
      <trkpt lat="45.71974" lon="-0.34843">
        <ele>24.453125</ele>
        <time>2018-04-06T13:15:16Z</time>
      </trkpt>
      <trkpt lat="45.71975" lon="-0.34839">
        <ele>24.58203125</ele>
        <time>2018-04-06T13:15:18Z</time>
      </trkpt>
      <trkpt lat="45.71977" lon="-0.34836">
        <ele>24.671875</ele>
        <time>2018-04-06T13:15:19Z</time>
      </trkpt>
      <trkpt lat="45.71978" lon="-0.34833">
        <ele>24.79296875</ele>
        <time>2018-04-06T13:15:20Z</time>
      </trkpt>
      <trkpt lat="45.7198" lon="-0.3483">
        <ele>24.96875</ele>
        <time>2018-04-06T13:15:21Z</time>
      </trkpt>
      <trkpt lat="45.71981" lon="-0.34827">
        <ele>25.015625</ele>
        <time>2018-04-06T13:15:22Z</time>
      </trkpt>
      <trkpt lat="45.71981" lon="-0.34824">
        <ele>24.94140625</ele>
        <time>2018-04-06T13:15:23Z</time>
      </trkpt>
      <trkpt lat="45.71982" lon="-0.34821">
        <ele>24.98828125</ele>
        <time>2018-04-06T13:15:24Z</time>
      </trkpt>
      <trkpt lat="45.71984" lon="-0.34818">
        <ele>25.0390625</ele>
        <time>2018-04-06T13:15:25Z</time>
      </trkpt>
      <trkpt lat="45.71985" lon="-0.34814">
        <ele>25.046875</ele>
        <time>2018-04-06T13:15:26Z</time>
      </trkpt>
      <trkpt lat="45.71986" lon="-0.3481">
        <ele>25.109375</ele>
        <time>2018-04-06T13:15:27Z</time>
      </trkpt>
      <trkpt lat="45.71986" lon="-0.34807">
        <ele>25.12890625</ele>
        <time>2018-04-06T13:15:28Z</time>
      </trkpt>
      <trkpt lat="45.71989" lon="-0.3479">
        <ele>25.2578125</ele>
        <time>2018-04-06T13:15:34Z</time>
      </trkpt>
      <trkpt lat="45.71991" lon="-0.3477">
        <ele>25.1328125</ele>
        <time>2018-04-06T13:15:41Z</time>
      </trkpt>
      <trkpt lat="45.71991" lon="-0.34765">
        <ele>25.0546875</ele>
        <time>2018-04-06T13:15:43Z</time>
      </trkpt>
      <trkpt lat="45.7199" lon="-0.34755">
        <ele>24.90625</ele>
        <time>2018-04-06T13:15:47Z</time>
      </trkpt>
      <trkpt lat="45.71991" lon="-0.34742">
        <ele>25.234375</ele>
        <time>2018-04-06T13:15:52Z</time>
      </trkpt>
      <trkpt lat="45.71992" lon="-0.34739">
        <ele>25.3046875</ele>
        <time>2018-04-06T13:15:53Z</time>
      </trkpt>
      <trkpt lat="45.71995" lon="-0.34721">
        <ele>25.9453125</ele>
        <time>2018-04-06T13:15:59Z</time>
      </trkpt>
      <trkpt lat="45.72003" lon="-0.34702">
        <ele>27.1328125</ele>
        <time>2018-04-06T13:16:06Z</time>
      </trkpt>
      <trkpt lat="45.72006" lon="-0.34692">
        <ele>27.3828125</ele>
        <time>2018-04-06T13:16:10Z</time>
      </trkpt>
      <trkpt lat="45.72007" lon="-0.34689">
        <ele>27.44140625</ele>
        <time>2018-04-06T13:16:11Z</time>
      </trkpt>
      <trkpt lat="45.72008" lon="-0.34688">
        <ele>27.53125</ele>
        <time>2018-04-06T13:16:12Z</time>
      </trkpt>
      <trkpt lat="45.72009" lon="-0.34685">
        <ele>27.546875</ele>
        <time>2018-04-06T13:16:13Z</time>
      </trkpt>
      <trkpt lat="45.7201" lon="-0.34683">
        <ele>27.5703125</ele>
        <time>2018-04-06T13:16:14Z</time>
      </trkpt>
      <trkpt lat="45.72011" lon="-0.34681">
        <ele>27.66015625</ele>
        <time>2018-04-06T13:16:15Z</time>
      </trkpt>
      <trkpt lat="45.72012" lon="-0.3468">
        <ele>27.7421875</ele>
        <time>2018-04-06T13:16:16Z</time>
      </trkpt>
      <trkpt lat="45.72029" lon="-0.3466">
        <ele>28.48828125</ele>
        <time>2018-04-06T13:16:24Z</time>
      </trkpt>
      <trkpt lat="45.72038" lon="-0.34645">
        <ele>28.48828125</ele>
        <time>2018-04-06T13:16:29Z</time>
      </trkpt>
      <trkpt lat="45.72042" lon="-0.34638">
        <ele>28.4765625</ele>
        <time>2018-04-06T13:16:32Z</time>
      </trkpt>
      <trkpt lat="45.72043" lon="-0.34635">
        <ele>28.44921875</ele>
        <time>2018-04-06T13:16:33Z</time>
      </trkpt>
      <trkpt lat="45.72057" lon="-0.34618">
        <ele>28.74609375</ele>
        <time>2018-04-06T13:16:41Z</time>
      </trkpt>
      <trkpt lat="45.72059" lon="-0.34615">
        <ele>28.78125</ele>
        <time>2018-04-06T13:16:42Z</time>
      </trkpt>
      <trkpt lat="45.7206" lon="-0.34612">
        <ele>28.79296875</ele>
        <time>2018-04-06T13:16:43Z</time>
      </trkpt>
      <trkpt lat="45.72062" lon="-0.3461">
        <ele>28.8203125</ele>
        <time>2018-04-06T13:16:44Z</time>
      </trkpt>
      <trkpt lat="45.72063" lon="-0.34607">
        <ele>28.83984375</ele>
        <time>2018-04-06T13:16:45Z</time>
      </trkpt>
      <trkpt lat="45.72065" lon="-0.34605">
        <ele>28.8359375</ele>
        <time>2018-04-06T13:16:46Z</time>
      </trkpt>
      <trkpt lat="45.72067" lon="-0.34602">
        <ele>28.89453125</ele>
        <time>2018-04-06T13:16:47Z</time>
      </trkpt>
      <trkpt lat="45.72069" lon="-0.34599">
        <ele>28.8828125</ele>
        <time>2018-04-06T13:16:48Z</time>
      </trkpt>
      <trkpt lat="45.7208" lon="-0.34579">
        <ele>28.84765625</ele>
        <time>2018-04-06T13:16:55Z</time>
      </trkpt>
      <trkpt lat="45.72092" lon="-0.34563">
        <ele>28.63671875</ele>
        <time>2018-04-06T13:17:02Z</time>
      </trkpt>
      <trkpt lat="45.72104" lon="-0.3455">
        <ele>28.13671875</ele>
        <time>2018-04-06T13:17:08Z</time>
      </trkpt>
      <trkpt lat="45.72113" lon="-0.34533">
        <ele>27.30078125</ele>
        <time>2018-04-06T13:17:15Z</time>
      </trkpt>
      <trkpt lat="45.72123" lon="-0.34517">
        <ele>27.20703125</ele>
        <time>2018-04-06T13:17:21Z</time>
      </trkpt>
      <trkpt lat="45.72123" lon="-0.34514">
        <ele>27.12109375</ele>
        <time>2018-04-06T13:17:22Z</time>
      </trkpt>
      <trkpt lat="45.72123" lon="-0.34512">
        <ele>27.03515625</ele>
        <time>2018-04-06T13:17:23Z</time>
      </trkpt>
      <trkpt lat="45.72122" lon="-0.3451">
        <ele>26.93359375</ele>
        <time>2018-04-06T13:17:24Z</time>
      </trkpt>
      <trkpt lat="45.7212" lon="-0.34509">
        <ele>26.8046875</ele>
        <time>2018-04-06T13:17:25Z</time>
      </trkpt>
      <trkpt lat="45.72118" lon="-0.34507">
        <ele>26.6796875</ele>
        <time>2018-04-06T13:17:26Z</time>
      </trkpt>
      <trkpt lat="45.72116" lon="-0.34505">
        <ele>26.53125</ele>
        <time>2018-04-06T13:17:27Z</time>
      </trkpt>
      <trkpt lat="45.72115" lon="-0.34503">
        <ele>26.37890625</ele>
        <time>2018-04-06T13:17:28Z</time>
      </trkpt>
      <trkpt lat="45.72113" lon="-0.345">
        <ele>26.21875</ele>
        <time>2018-04-06T13:17:29Z</time>
      </trkpt>
      <trkpt lat="45.72096" lon="-0.34475">
        <ele>25.48828125</ele>
        <time>2018-04-06T13:17:38Z</time>
      </trkpt>
      <trkpt lat="45.72086" lon="-0.34467">
        <ele>26.21875</ele>
        <time>2018-04-06T13:17:44Z</time>
      </trkpt>
      <trkpt lat="45.72085" lon="-0.34465">
        <ele>26.3046875</ele>
        <time>2018-04-06T13:17:45Z</time>
      </trkpt>
      <trkpt lat="45.72084" lon="-0.34464">
        <ele>26.390625</ele>
        <time>2018-04-06T13:17:46Z</time>
      </trkpt>
      <trkpt lat="45.72079" lon="-0.34453">
        <ele>27.00390625</ele>
        <time>2018-04-06T13:17:53Z</time>
      </trkpt>
      <trkpt lat="45.72072" lon="-0.34443">
        <ele>27.671875</ele>
        <time>2018-04-06T13:17:59Z</time>
      </trkpt>
      <trkpt lat="45.72066" lon="-0.34435">
        <ele>28.31640625</ele>
        <time>2018-04-06T13:18:06Z</time>
      </trkpt>
      <trkpt lat="45.72059" lon="-0.34425">
        <ele>29.140625</ele>
        <time>2018-04-06T13:18:13Z</time>
      </trkpt>
      <trkpt lat="45.72051" lon="-0.34413">
        <ele>30.10546875</ele>
        <time>2018-04-06T13:18:20Z</time>
      </trkpt>
      <trkpt lat="45.7205" lon="-0.34412">
        <ele>30.22265625</ele>
        <time>2018-04-06T13:18:21Z</time>
      </trkpt>
      <trkpt lat="45.72049" lon="-0.3441">
        <ele>30.3515625</ele>
        <time>2018-04-06T13:18:22Z</time>
      </trkpt>
      <trkpt lat="45.72048" lon="-0.34409">
        <ele>30.5</ele>
        <time>2018-04-06T13:18:23Z</time>
      </trkpt>
      <trkpt lat="45.72046" lon="-0.34408">
        <ele>30.67578125</ele>
        <time>2018-04-06T13:18:24Z</time>
      </trkpt>
      <trkpt lat="45.72039" lon="-0.34395">
        <ele>31.82421875</ele>
        <time>2018-04-06T13:18:32Z</time>
      </trkpt>
      <trkpt lat="45.72031" lon="-0.34382">
        <ele>33</ele>
        <time>2018-04-06T13:18:40Z</time>
      </trkpt>
      <trkpt lat="45.72021" lon="-0.3437">
        <ele>34.375</ele>
        <time>2018-04-06T13:18:47Z</time>
      </trkpt>
      <trkpt lat="45.72007" lon="-0.34363">
        <ele>35.76171875</ele>
        <time>2018-04-06T13:18:55Z</time>
      </trkpt>
      <trkpt lat="45.71994" lon="-0.34355">
        <ele>37.046875</ele>
        <time>2018-04-06T13:19:03Z</time>
      </trkpt>
      <trkpt lat="45.71987" lon="-0.3435">
        <ele>37.59375</ele>
        <time>2018-04-06T13:19:07Z</time>
      </trkpt>
      <trkpt lat="45.71972" lon="-0.34342">
        <ele>38.5703125</ele>
        <time>2018-04-06T13:19:15Z</time>
      </trkpt>
      <trkpt lat="45.71962" lon="-0.34332">
        <ele>39.27734375</ele>
        <time>2018-04-06T13:19:22Z</time>
      </trkpt>
      <trkpt lat="45.71955" lon="-0.34322">
        <ele>39.84375</ele>
        <time>2018-04-06T13:19:27Z</time>
      </trkpt>
      <trkpt lat="45.71946" lon="-0.34319">
        <ele>40.3984375</ele>
        <time>2018-04-06T13:19:33Z</time>
      </trkpt>
      <trkpt lat="45.7193" lon="-0.34318">
        <ele>41.046875</ele>
        <time>2018-04-06T13:19:41Z</time>
      </trkpt>
      <trkpt lat="45.71918" lon="-0.34319">
        <ele>41.24609375</ele>
        <time>2018-04-06T13:19:48Z</time>
      </trkpt>
      <trkpt lat="45.7191" lon="-0.34312">
        <ele>41.484375</ele>
        <time>2018-04-06T13:19:53Z</time>
      </trkpt>
      <trkpt lat="45.71908" lon="-0.34312">
        <ele>41.51953125</ele>
        <time>2018-04-06T13:19:54Z</time>
      </trkpt>
      <trkpt lat="45.71906" lon="-0.34312">
        <ele>41.55078125</ele>
        <time>2018-04-06T13:19:55Z</time>
      </trkpt>
      <trkpt lat="45.71904" lon="-0.3431">
        <ele>41.609375</ele>
        <time>2018-04-06T13:19:57Z</time>
      </trkpt>
      <trkpt lat="45.71902" lon="-0.34311">
        <ele>41.6328125</ele>
        <time>2018-04-06T13:19:58Z</time>
      </trkpt>
      <trkpt lat="45.71901" lon="-0.34311">
        <ele>41.66015625</ele>
        <time>2018-04-06T13:19:59Z</time>
      </trkpt>
      <trkpt lat="45.71899" lon="-0.34312">
        <ele>41.6875</ele>
        <time>2018-04-06T13:20:00Z</time>
      </trkpt>
      <trkpt lat="45.71897" lon="-0.34311">
        <ele>41.72265625</ele>
        <time>2018-04-06T13:20:01Z</time>
      </trkpt>
      <trkpt lat="45.71895" lon="-0.34311">
        <ele>41.76171875</ele>
        <time>2018-04-06T13:20:02Z</time>
      </trkpt>
      <trkpt lat="45.71891" lon="-0.34311">
        <ele>41.83984375</ele>
        <time>2018-04-06T13:20:04Z</time>
      </trkpt>
      <trkpt lat="45.71889" lon="-0.34311">
        <ele>41.8828125</ele>
        <time>2018-04-06T13:20:05Z</time>
      </trkpt>
      <trkpt lat="45.71887" lon="-0.34311">
        <ele>41.9140625</ele>
        <time>2018-04-06T13:20:06Z</time>
      </trkpt>
      <trkpt lat="45.71886" lon="-0.3431">
        <ele>41.953125</ele>
        <time>2018-04-06T13:20:07Z</time>
      </trkpt>
      <trkpt lat="45.71883" lon="-0.3431">
        <ele>42.00390625</ele>
        <time>2018-04-06T13:20:08Z</time>
      </trkpt>
      <trkpt lat="45.71881" lon="-0.3431">
        <ele>42.05078125</ele>
        <time>2018-04-06T13:20:09Z</time>
      </trkpt>
      <trkpt lat="45.71871" lon="-0.34312">
        <ele>42.203125</ele>
        <time>2018-04-06T13:20:14Z</time>
      </trkpt>
      <trkpt lat="45.71853" lon="-0.34312">
        <ele>42.51953125</ele>
        <time>2018-04-06T13:20:21Z</time>
      </trkpt>
      <trkpt lat="45.71837" lon="-0.34313">
        <ele>42.78515625</ele>
        <time>2018-04-06T13:20:28Z</time>
      </trkpt>
      <trkpt lat="45.7182" lon="-0.34324">
        <ele>43.07421875</ele>
        <time>2018-04-06T13:20:35Z</time>
      </trkpt>
      <trkpt lat="45.71812" lon="-0.34332">
        <ele>43.15625</ele>
        <time>2018-04-06T13:20:40Z</time>
      </trkpt>
      <trkpt lat="45.71798" lon="-0.34347">
        <ele>43.1875</ele>
        <time>2018-04-06T13:20:47Z</time>
      </trkpt>
      <trkpt lat="45.71782" lon="-0.34348">
        <ele>43.27734375</ele>
        <time>2018-04-06T13:20:53Z</time>
      </trkpt>
      <trkpt lat="45.7177" lon="-0.34335">
        <ele>43.6015625</ele>
        <time>2018-04-06T13:21:01Z</time>
      </trkpt>
      <trkpt lat="45.71755" lon="-0.34325">
        <ele>44.0546875</ele>
        <time>2018-04-06T13:21:07Z</time>
      </trkpt>
      <trkpt lat="45.71747" lon="-0.34327">
        <ele>44.1484375</ele>
        <time>2018-04-06T13:21:11Z</time>
      </trkpt>
      <trkpt lat="45.71737" lon="-0.34361">
        <ele>43.71875</ele>
        <time>2018-04-06T13:21:19Z</time>
      </trkpt>
      <trkpt lat="45.7173" lon="-0.34387">
        <ele>43.14453125</ele>
        <time>2018-04-06T13:21:25Z</time>
      </trkpt>
      <trkpt lat="45.7172" lon="-0.34413">
        <ele>42.34765625</ele>
        <time>2018-04-06T13:21:30Z</time>
      </trkpt>
      <trkpt lat="45.71708" lon="-0.34429">
        <ele>41.9453125</ele>
        <time>2018-04-06T13:21:35Z</time>
      </trkpt>
      <trkpt lat="45.71695" lon="-0.3443">
        <ele>42.15625</ele>
        <time>2018-04-06T13:21:39Z</time>
      </trkpt>
      <trkpt lat="45.71689" lon="-0.34429">
        <ele>42.30078125</ele>
        <time>2018-04-06T13:21:41Z</time>
      </trkpt>
      <trkpt lat="45.71685" lon="-0.34429">
        <ele>42.40234375</ele>
        <time>2018-04-06T13:21:43Z</time>
      </trkpt>
      <trkpt lat="45.71683" lon="-0.3443">
        <ele>42.41015625</ele>
        <time>2018-04-06T13:21:44Z</time>
      </trkpt>
      <trkpt lat="45.71667" lon="-0.34431">
        <ele>42.69921875</ele>
        <time>2018-04-06T13:21:50Z</time>
      </trkpt>
      <trkpt lat="45.7166" lon="-0.34436">
        <ele>42.76953125</ele>
        <time>2018-04-06T13:21:53Z</time>
      </trkpt>
      <trkpt lat="45.71658" lon="-0.34437">
        <ele>42.7890625</ele>
        <time>2018-04-06T13:21:54Z</time>
      </trkpt>
      <trkpt lat="45.71655" lon="-0.34438">
        <ele>42.86328125</ele>
        <time>2018-04-06T13:21:55Z</time>
      </trkpt>
      <trkpt lat="45.71649" lon="-0.34443">
        <ele>42.9375</ele>
        <time>2018-04-06T13:21:56Z</time>
      </trkpt>
      <trkpt lat="45.71647" lon="-0.34448">
        <ele>42.890625</ele>
        <time>2018-04-06T13:21:57Z</time>
      </trkpt>
      <trkpt lat="45.71645" lon="-0.34457">
        <ele>42.73828125</ele>
        <time>2018-04-06T13:22:00Z</time>
      </trkpt>
      <trkpt lat="45.71645" lon="-0.34463">
        <ele>42.6171875</ele>
        <time>2018-04-06T13:22:01Z</time>
      </trkpt>
      <trkpt lat="45.71642" lon="-0.34465">
        <ele>42.62890625</ele>
        <time>2018-04-06T13:22:02Z</time>
      </trkpt>
      <trkpt lat="45.7164" lon="-0.34472">
        <ele>42.51171875</ele>
        <time>2018-04-06T13:22:03Z</time>
      </trkpt>
      <trkpt lat="45.7164" lon="-0.34485">
        <ele>41.91015625</ele>
        <time>2018-04-06T13:22:25Z</time>
      </trkpt>
      <trkpt lat="45.71641" lon="-0.34489">
        <ele>41.62890625</ele>
        <time>2018-04-06T13:22:26Z</time>
      </trkpt>
      <trkpt lat="45.71642" lon="-0.34493">
        <ele>41.296875</ele>
        <time>2018-04-06T13:22:27Z</time>
      </trkpt>
      <trkpt lat="45.71641" lon="-0.34498">
        <ele>40.96484375</ele>
        <time>2018-04-06T13:22:28Z</time>
      </trkpt>
      <trkpt lat="45.7164" lon="-0.34503">
        <ele>40.59765625</ele>
        <time>2018-04-06T13:22:29Z</time>
      </trkpt>
      <trkpt lat="45.71639" lon="-0.34509">
        <ele>40.2265625</ele>
        <time>2018-04-06T13:22:30Z</time>
      </trkpt>
      <trkpt lat="45.71637" lon="-0.34515">
        <ele>39.79296875</ele>
        <time>2018-04-06T13:22:31Z</time>
      </trkpt>
      <trkpt lat="45.71635" lon="-0.34528">
        <ele>38.921875</ele>
        <time>2018-04-06T13:22:33Z</time>
      </trkpt>
      <trkpt lat="45.71634" lon="-0.34535">
        <ele>38.44140625</ele>
        <time>2018-04-06T13:22:34Z</time>
      </trkpt>
      <trkpt lat="45.7163" lon="-0.34547">
        <ele>36.7578125</ele>
        <time>2018-04-06T13:22:36Z</time>
      </trkpt>
      <trkpt lat="45.71626" lon="-0.3455">
        <ele>36.35546875</ele>
        <time>2018-04-06T13:22:37Z</time>
      </trkpt>
      <trkpt lat="45.71623" lon="-0.34552">
        <ele>36.12109375</ele>
        <time>2018-04-06T13:22:38Z</time>
      </trkpt>
      <trkpt lat="45.71619" lon="-0.34552">
        <ele>36.16015625</ele>
        <time>2018-04-06T13:22:39Z</time>
      </trkpt>
      <trkpt lat="45.71614" lon="-0.34551">
        <ele>36.37890625</ele>
        <time>2018-04-06T13:22:40Z</time>
      </trkpt>
      <trkpt lat="45.71609" lon="-0.34552">
        <ele>36.44140625</ele>
        <time>2018-04-06T13:22:41Z</time>
      </trkpt>
      <trkpt lat="45.71588" lon="-0.34551">
        <ele>36.79296875</ele>
        <time>2018-04-06T13:22:46Z</time>
      </trkpt>
      <trkpt lat="45.7157" lon="-0.3456">
        <ele>35.59765625</ele>
        <time>2018-04-06T13:22:50Z</time>
      </trkpt>
      <trkpt lat="45.71542" lon="-0.34573">
        <ele>33.75</ele>
        <time>2018-04-06T13:22:56Z</time>
      </trkpt>
      <trkpt lat="45.71513" lon="-0.34581">
        <ele>32.38671875</ele>
        <time>2018-04-06T13:23:02Z</time>
      </trkpt>
      <trkpt lat="45.71495" lon="-0.34591">
        <ele>30.75390625</ele>
        <time>2018-04-06T13:23:05Z</time>
      </trkpt>
      <trkpt lat="45.71455" lon="-0.34606">
        <ele>28.078125</ele>
        <time>2018-04-06T13:23:11Z</time>
      </trkpt>
      <trkpt lat="45.71449" lon="-0.34608">
        <ele>27.8515625</ele>
        <time>2018-04-06T13:23:12Z</time>
      </trkpt>
      <trkpt lat="45.71443" lon="-0.3461">
        <ele>27.5703125</ele>
        <time>2018-04-06T13:23:13Z</time>
      </trkpt>
      <trkpt lat="45.71437" lon="-0.34613">
        <ele>27.32421875</ele>
        <time>2018-04-06T13:23:14Z</time>
      </trkpt>
      <trkpt lat="45.7143" lon="-0.34615">
        <ele>27.2734375</ele>
        <time>2018-04-06T13:23:15Z</time>
      </trkpt>
      <trkpt lat="45.71417" lon="-0.34618">
        <ele>27.44921875</ele>
        <time>2018-04-06T13:23:17Z</time>
      </trkpt>
      <trkpt lat="45.7141" lon="-0.34619">
        <ele>27.55859375</ele>
        <time>2018-04-06T13:23:18Z</time>
      </trkpt>
      <trkpt lat="45.71403" lon="-0.34623">
        <ele>27.33203125</ele>
        <time>2018-04-06T13:23:19Z</time>
      </trkpt>
      <trkpt lat="45.71391" lon="-0.34631">
        <ele>27.03515625</ele>
        <time>2018-04-06T13:23:21Z</time>
      </trkpt>
      <trkpt lat="45.71384" lon="-0.34633">
        <ele>27.1328125</ele>
        <time>2018-04-06T13:23:22Z</time>
      </trkpt>
      <trkpt lat="45.71379" lon="-0.34635">
        <ele>27.23046875</ele>
        <time>2018-04-06T13:23:23Z</time>
      </trkpt>
      <trkpt lat="45.71359" lon="-0.3464">
        <ele>26.953125</ele>
        <time>2018-04-06T13:23:26Z</time>
      </trkpt>
      <trkpt lat="45.71354" lon="-0.34644">
        <ele>26.6796875</ele>
        <time>2018-04-06T13:23:27Z</time>
      </trkpt>
      <trkpt lat="45.71348" lon="-0.34648">
        <ele>26.08984375</ele>
        <time>2018-04-06T13:23:28Z</time>
      </trkpt>
      <trkpt lat="45.71342" lon="-0.34654">
        <ele>25.33203125</ele>
        <time>2018-04-06T13:23:29Z</time>
      </trkpt>
      <trkpt lat="45.71335" lon="-0.34658">
        <ele>24.7109375</ele>
        <time>2018-04-06T13:23:30Z</time>
      </trkpt>
      <trkpt lat="45.71328" lon="-0.34662">
        <ele>24.26171875</ele>
        <time>2018-04-06T13:23:31Z</time>
      </trkpt>
      <trkpt lat="45.71321" lon="-0.34665">
        <ele>23.71875</ele>
        <time>2018-04-06T13:23:32Z</time>
      </trkpt>
      <trkpt lat="45.71312" lon="-0.34667">
        <ele>23.2109375</ele>
        <time>2018-04-06T13:23:33Z</time>
      </trkpt>
      <trkpt lat="45.71304" lon="-0.34669">
        <ele>22.80859375</ele>
        <time>2018-04-06T13:23:34Z</time>
      </trkpt>
      <trkpt lat="45.7128" lon="-0.34671">
        <ele>22.0390625</ele>
        <time>2018-04-06T13:23:37Z</time>
      </trkpt>
      <trkpt lat="45.71271" lon="-0.34672">
        <ele>21.71484375</ele>
        <time>2018-04-06T13:23:38Z</time>
      </trkpt>
      <trkpt lat="45.71229" lon="-0.34672">
        <ele>20.13671875</ele>
        <time>2018-04-06T13:23:43Z</time>
      </trkpt>
      <trkpt lat="45.71188" lon="-0.34659">
        <ele>20.14453125</ele>
        <time>2018-04-06T13:23:48Z</time>
      </trkpt>
      <trkpt lat="45.71173" lon="-0.34653">
        <ele>20.04296875</ele>
        <time>2018-04-06T13:23:50Z</time>
      </trkpt>
      <trkpt lat="45.71153" lon="-0.34652">
        <ele>19.3359375</ele>
        <time>2018-04-06T13:23:53Z</time>
      </trkpt>
      <trkpt lat="45.71136" lon="-0.34654">
        <ele>18.8359375</ele>
        <time>2018-04-06T13:23:56Z</time>
      </trkpt>
      <trkpt lat="45.71121" lon="-0.34652">
        <ele>18.73828125</ele>
        <time>2018-04-06T13:23:59Z</time>
      </trkpt>
      <trkpt lat="45.71116" lon="-0.3465">
        <ele>18.82421875</ele>
        <time>2018-04-06T13:24:00Z</time>
      </trkpt>
      <trkpt lat="45.71111" lon="-0.34648">
        <ele>18.8828125</ele>
        <time>2018-04-06T13:24:01Z</time>
      </trkpt>
      <trkpt lat="45.71106" lon="-0.34647">
        <ele>18.875</ele>
        <time>2018-04-06T13:24:02Z</time>
      </trkpt>
      <trkpt lat="45.71101" lon="-0.34647">
        <ele>18.83203125</ele>
        <time>2018-04-06T13:24:03Z</time>
      </trkpt>
      <trkpt lat="45.7107" lon="-0.34647">
        <ele>18.265625</ele>
        <time>2018-04-06T13:24:10Z</time>
      </trkpt>
      <trkpt lat="45.71053" lon="-0.34647">
        <ele>17.9765625</ele>
        <time>2018-04-06T13:24:15Z</time>
      </trkpt>
      <trkpt lat="45.71023" lon="-0.34643">
        <ele>17.8671875</ele>
        <time>2018-04-06T13:24:23Z</time>
      </trkpt>
      <trkpt lat="45.71015" lon="-0.34643">
        <ele>17.75</ele>
        <time>2018-04-06T13:24:25Z</time>
      </trkpt>
      <trkpt lat="45.7101" lon="-0.34642">
        <ele>17.734375</ele>
        <time>2018-04-06T13:24:26Z</time>
      </trkpt>
      <trkpt lat="45.71006" lon="-0.34641">
        <ele>17.765625</ele>
        <time>2018-04-06T13:24:27Z</time>
      </trkpt>
      <trkpt lat="45.70983" lon="-0.34635">
        <ele>18.2109375</ele>
        <time>2018-04-06T13:24:32Z</time>
      </trkpt>
      <trkpt lat="45.70978" lon="-0.34634">
        <ele>18.1953125</ele>
        <time>2018-04-06T13:24:33Z</time>
      </trkpt>
      <trkpt lat="45.70973" lon="-0.34634">
        <ele>18.1875</ele>
        <time>2018-04-06T13:24:34Z</time>
      </trkpt>
      <trkpt lat="45.70968" lon="-0.34633">
        <ele>18.2578125</ele>
        <time>2018-04-06T13:24:35Z</time>
      </trkpt>
      <trkpt lat="45.70964" lon="-0.34633">
        <ele>18.2421875</ele>
        <time>2018-04-06T13:24:36Z</time>
      </trkpt>
      <trkpt lat="45.70959" lon="-0.34633">
        <ele>18.11328125</ele>
        <time>2018-04-06T13:24:37Z</time>
      </trkpt>
      <trkpt lat="45.70936" lon="-0.34636">
        <ele>17.43359375</ele>
        <time>2018-04-06T13:24:41Z</time>
      </trkpt>
      <trkpt lat="45.70905" lon="-0.34635">
        <ele>17.09375</ele>
        <time>2018-04-06T13:24:48Z</time>
      </trkpt>
      <trkpt lat="45.70895" lon="-0.34634">
        <ele>17.0625</ele>
        <time>2018-04-06T13:24:51Z</time>
      </trkpt>
      <trkpt lat="45.70874" lon="-0.34632">
        <ele>17.16015625</ele>
        <time>2018-04-06T13:24:58Z</time>
      </trkpt>
      <trkpt lat="45.7085" lon="-0.34629">
        <ele>17.23828125</ele>
        <time>2018-04-06T13:25:07Z</time>
      </trkpt>
      <trkpt lat="45.70828" lon="-0.34626">
        <ele>17.51953125</ele>
        <time>2018-04-06T13:25:15Z</time>
      </trkpt>
      <trkpt lat="45.70801" lon="-0.34616">
        <ele>19.26171875</ele>
        <time>2018-04-06T13:25:25Z</time>
      </trkpt>
      <trkpt lat="45.70791" lon="-0.34614">
        <ele>19.52734375</ele>
      </trkpt>
      <trkpt lat="45.70781" lon="-0.34606">
        <ele>20.7421875</ele>
      </trkpt>
      <trkpt lat="45.70777" lon="-0.34599">
        <ele>21.74609375</ele>
        <time>2018-04-06T13:25:35Z</time>
      </trkpt>
      <trkpt lat="45.70757" lon="-0.34576">
        <ele>24.2265625</ele>
        <time>2018-04-06T13:25:44Z</time>
      </trkpt>
      <trkpt lat="45.70751" lon="-0.34568">
        <ele>25.0234375</ele>
      </trkpt>
      <trkpt lat="45.70733" lon="-0.34556">
        <ele>26.05078125</ele>
        <time>2018-04-06T13:25:53Z</time>
      </trkpt>
      <trkpt lat="45.70706" lon="-0.34536">
        <ele>28.03515625</ele>
        <time>2018-04-06T13:26:02Z</time>
      </trkpt>
      <trkpt lat="45.70677" lon="-0.34506">
        <ele>30.2109375</ele>
        <time>2018-04-06T13:26:13Z</time>
      </trkpt>
      <trkpt lat="45.70647" lon="-0.34467">
        <ele>32.41796875</ele>
        <time>2018-04-06T13:26:25Z</time>
      </trkpt>
      <trkpt lat="45.70635" lon="-0.34469">
        <ele>32.359375</ele>
        <time>2018-04-06T13:26:28Z</time>
      </trkpt>
      <trkpt lat="45.70626" lon="-0.34471">
        <ele>32.296875</ele>
        <time>2018-04-06T13:26:29Z</time>
      </trkpt>
      <trkpt lat="45.70613" lon="-0.34476">
        <ele>32.12109375</ele>
        <time>2018-04-06T13:26:35Z</time>
      </trkpt>
      <trkpt lat="45.70596" lon="-0.3448">
        <ele>32.109375</ele>
        <time>2018-04-06T13:26:42Z</time>
      </trkpt>
      <trkpt lat="45.70577" lon="-0.34489">
        <ele>32.1328125</ele>
        <time>2018-04-06T13:26:43Z</time>
      </trkpt>
      <trkpt lat="45.70556" lon="-0.34494">
        <ele>32.32421875</ele>
        <time>2018-04-06T13:26:51Z</time>
      </trkpt>
      <trkpt lat="45.70537" lon="-0.34493">
        <ele>32.4921875</ele>
        <time>2018-04-06T13:26:52Z</time>
      </trkpt>
      <trkpt lat="45.70527" lon="-0.34489">
        <ele>32.63671875</ele>
        <time>2018-04-06T13:26:58Z</time>
      </trkpt>
      <trkpt lat="45.7049" lon="-0.34477">
        <ele>32.875</ele>
        <time>2018-04-06T13:27:07Z</time>
      </trkpt>
      <trkpt lat="45.70471" lon="-0.34474">
        <ele>32.1640625</ele>
        <time>2018-04-06T13:27:11Z</time>
      </trkpt>
      <trkpt lat="45.70466" lon="-0.34474">
        <ele>31.98828125</ele>
        <time>2018-04-06T13:27:12Z</time>
      </trkpt>
      <trkpt lat="45.70442" lon="-0.34479">
        <ele>31.15234375</ele>
        <time>2018-04-06T13:27:17Z</time>
      </trkpt>
      <trkpt lat="45.70435" lon="-0.34481">
        <ele>30.83203125</ele>
        <time>2018-04-06T13:27:18Z</time>
      </trkpt>
      <trkpt lat="45.7043" lon="-0.34482">
        <ele>30.55859375</ele>
        <time>2018-04-06T13:27:19Z</time>
      </trkpt>
      <trkpt lat="45.70426" lon="-0.34482">
        <ele>30.33984375</ele>
        <time>2018-04-06T13:27:20Z</time>
      </trkpt>
      <trkpt lat="45.70421" lon="-0.34482">
        <ele>30.05859375</ele>
        <time>2018-04-06T13:27:21Z</time>
      </trkpt>
      <trkpt lat="45.70415" lon="-0.34483">
        <ele>29.7578125</ele>
        <time>2018-04-06T13:27:22Z</time>
      </trkpt>
      <trkpt lat="45.70387" lon="-0.34484">
        <ele>28.26953125</ele>
        <time>2018-04-06T13:27:27Z</time>
      </trkpt>
      <trkpt lat="45.70382" lon="-0.34484">
        <ele>27.984375</ele>
        <time>2018-04-06T13:27:28Z</time>
      </trkpt>
      <trkpt lat="45.70377" lon="-0.34484">
        <ele>27.828125</ele>
      </trkpt>
      <trkpt lat="45.70378" lon="-0.3447">
        <ele>28.0078125</ele>
        <time>2018-04-06T13:28:13Z</time>
      </trkpt>
      <trkpt lat="45.70369" lon="-0.34458">
        <ele>28.01953125</ele>
        <time>2018-04-06T13:28:14Z</time>
      </trkpt>
      <trkpt lat="45.7035" lon="-0.34429">
        <ele>28.25</ele>
        <time>2018-04-06T13:28:15Z</time>
      </trkpt>
      <trkpt lat="45.70329" lon="-0.34405">
        <ele>28.35546875</ele>
        <time>2018-04-06T13:28:16Z</time>
      </trkpt>
      <trkpt lat="45.7031" lon="-0.34376">
        <ele>29.14453125</ele>
        <time>2018-04-06T13:28:17Z</time>
      </trkpt>
      <trkpt lat="45.70285" lon="-0.34327">
        <ele>31.0234375</ele>
        <time>2018-04-06T13:28:18Z</time>
      </trkpt>
      <trkpt lat="45.70263" lon="-0.34292">
        <ele>32.546875</ele>
        <time>2018-04-06T13:28:28Z</time>
      </trkpt>
      <trkpt lat="45.70246" lon="-0.34267">
        <ele>33.62109375</ele>
        <time>2018-04-06T13:28:37Z</time>
      </trkpt>
      <trkpt lat="45.70234" lon="-0.34249">
        <ele>34.38671875</ele>
        <time>2018-04-06T13:28:38Z</time>
      </trkpt>
      <trkpt lat="45.70224" lon="-0.34236">
        <ele>34.75</ele>
        <time>2018-04-06T13:29:12Z</time>
      </trkpt>
      <trkpt lat="45.70214" lon="-0.34218">
        <ele>35</ele>
      </trkpt>
      <trkpt lat="45.70211" lon="-0.34202">
        <ele>35</ele>
        <time>2018-04-06T13:29:43Z</time>
      </trkpt>
      <trkpt lat="45.70203" lon="-0.34178">
        <ele>35.42578125</ele>
        <time>2018-04-06T13:29:53Z</time>
      </trkpt>
      <trkpt lat="45.70197" lon="-0.34156">
        <ele>35.82421875</ele>
        <time>2018-04-06T13:30:00Z</time>
      </trkpt>
      <trkpt lat="45.70187" lon="-0.34126">
        <ele>36.36328125</ele>
        <time>2018-04-06T13:30:10Z</time>
      </trkpt>
      <trkpt lat="45.70177" lon="-0.34097">
        <ele>36.87890625</ele>
        <time>2018-04-06T13:30:17Z</time>
      </trkpt>
      <trkpt lat="45.7016" lon="-0.34067">
        <ele>36.99609375</ele>
        <time>2018-04-06T13:30:24Z</time>
      </trkpt>
      <trkpt lat="45.70133" lon="-0.3403">
        <ele>36.4609375</ele>
        <time>2018-04-06T13:30:34Z</time>
      </trkpt>
      <trkpt lat="45.70115" lon="-0.34006">
        <ele>36.0859375</ele>
        <time>2018-04-06T13:30:42Z</time>
      </trkpt>
      <trkpt lat="45.701" lon="-0.33994">
        <ele>36</ele>
        <time>2018-04-06T13:30:49Z</time>
      </trkpt>
      <trkpt lat="45.70081" lon="-0.33982">
        <ele>36</ele>
        <time>2018-04-06T13:30:50Z</time>
      </trkpt>
      <trkpt lat="45.70076" lon="-0.33976">
        <ele>35.93359375</ele>
        <time>2018-04-06T13:30:51Z</time>
      </trkpt>
      <trkpt lat="45.70071" lon="-0.33968">
        <ele>35.7890625</ele>
        <time>2018-04-06T13:30:52Z</time>
      </trkpt>
      <trkpt lat="45.70068" lon="-0.33961">
        <ele>35.6640625</ele>
        <time>2018-04-06T13:30:53Z</time>
      </trkpt>
      <trkpt lat="45.70068" lon="-0.33952">
        <ele>35.50390625</ele>
        <time>2018-04-06T13:31:00Z</time>
      </trkpt>
      <trkpt lat="45.70066" lon="-0.3394">
        <ele>35.28515625</ele>
        <time>2018-04-06T13:31:08Z</time>
      </trkpt>
      <trkpt lat="45.70056" lon="-0.3392">
        <ele>34.9921875</ele>
        <time>2018-04-06T13:31:10Z</time>
      </trkpt>
      <trkpt lat="45.70041" lon="-0.33897">
        <ele>34.80078125</ele>
        <time>2018-04-06T13:31:11Z</time>
      </trkpt>
      <trkpt lat="45.70047" lon="-0.33898">
        <ele>34.94921875</ele>
      </trkpt>
      <trkpt lat="45.70073" lon="-0.33888">
        <ele>34.71484375</ele>
        <time>2018-04-06T13:31:13Z</time>
      </trkpt>
      <trkpt lat="45.70071" lon="-0.33882">
        <ele>34.69921875</ele>
        <time>2018-04-06T13:32:13Z</time>
      </trkpt>
      <trkpt lat="45.70065" lon="-0.33865">
        <ele>34.61328125</ele>
        <time>2018-04-06T13:32:59Z</time>
      </trkpt>
      <trkpt lat="45.70021" lon="-0.3375">
        <ele>30.15234375</ele>
        <time>2018-04-06T13:33:24Z</time>
      </trkpt>
      <trkpt lat="45.69992" lon="-0.33703">
        <ele>27.921875</ele>
        <time>2018-04-06T13:33:30Z</time>
      </trkpt>
      <trkpt lat="45.69983" lon="-0.33689">
        <ele>26.609375</ele>
        <time>2018-04-06T13:33:32Z</time>
      </trkpt>
      <trkpt lat="45.69971" lon="-0.33668">
        <ele>24.76171875</ele>
        <time>2018-04-06T13:33:35Z</time>
      </trkpt>
      <trkpt lat="45.69914" lon="-0.33578">
        <ele>18.1171875</ele>
        <time>2018-04-06T13:33:47Z</time>
      </trkpt>
      <trkpt lat="45.69896" lon="-0.33553">
        <ele>16.21875</ele>
        <time>2018-04-06T13:33:55Z</time>
      </trkpt>
      <trkpt lat="45.69912" lon="-0.33504">
        <ele>14.359375</ele>
        <time>2018-04-06T13:34:03Z</time>
      </trkpt>
      <trkpt lat="45.69918" lon="-0.33487">
        <ele>13.66015625</ele>
        <time>2018-04-06T13:34:10Z</time>
      </trkpt>
      <trkpt lat="45.69927" lon="-0.33461">
        <ele>12.9375</ele>
        <time>2018-04-06T13:34:16Z</time>
      </trkpt>
      <trkpt lat="45.69935" lon="-0.33439">
        <ele>12.4375</ele>
        <time>2018-04-06T13:34:20Z</time>
      </trkpt>
      <trkpt lat="45.69941" lon="-0.33422">
        <ele>12.04296875</ele>
        <time>2018-04-06T13:34:21Z</time>
      </trkpt>
      <trkpt lat="45.69948" lon="-0.33402">
        <ele>11.5703125</ele>
        <time>2018-04-06T13:34:25Z</time>
      </trkpt>
      <trkpt lat="45.69951" lon="-0.33393">
        <ele>11.33984375</ele>
        <time>2018-04-06T13:34:26Z</time>
      </trkpt>
      <trkpt lat="45.69953" lon="-0.33388">
        <ele>11.21875</ele>
        <time>2018-04-06T13:34:27Z</time>
      </trkpt>
      <trkpt lat="45.69962" lon="-0.33373">
        <ele>11.015625</ele>
        <time>2018-04-06T13:34:30Z</time>
      </trkpt>
      <trkpt lat="45.6996" lon="-0.33363">
        <ele>10.23046875</ele>
        <time>2018-04-06T13:34:33Z</time>
      </trkpt>
      <trkpt lat="45.69963" lon="-0.33355">
        <ele>9.51171875</ele>
        <time>2018-04-06T13:35:11Z</time>
      </trkpt>
      <trkpt lat="45.69968" lon="-0.33351">
        <ele>9.2109375</ele>
        <time>2018-04-06T13:35:12Z</time>
      </trkpt>
      <trkpt lat="45.69972" lon="-0.33352">
        <ele>9.3359375</ele>
        <time>2018-04-06T13:35:13Z</time>
      </trkpt>
      <trkpt lat="45.69972" lon="-0.33342">
        <ele>8.203125</ele>
        <time>2018-04-06T13:35:20Z</time>
      </trkpt>
      <trkpt lat="45.69958" lon="-0.33274">
        <ele>8.39453125</ele>
        <time>2018-04-06T13:35:25Z</time>
      </trkpt>
      <trkpt lat="45.69951" lon="-0.33248">
        <ele>8</ele>
        <time>2018-04-06T13:35:27Z</time>
      </trkpt>
      <trkpt lat="45.69941" lon="-0.3321">
        <ele>8</ele>
        <time>2018-04-06T13:35:35Z</time>
      </trkpt>
      <trkpt lat="45.69903" lon="-0.33053">
        <ele>8</ele>
        <time>2018-04-06T13:36:04Z</time>
      </trkpt>
      <trkpt lat="45.69891" lon="-0.33004">
        <ele>8</ele>
        <time>2018-04-06T13:36:14Z</time>
      </trkpt>
      <trkpt lat="45.69886" lon="-0.32983">
        <ele>8</ele>
        <time>2018-04-06T13:36:15Z</time>
      </trkpt>
      <trkpt lat="45.69879" lon="-0.32954">
        <ele>8.140625</ele>
        <time>2018-04-06T13:36:23Z</time>
      </trkpt>
      <trkpt lat="45.69869" lon="-0.32963">
        <ele>8.453125</ele>
        <time>2018-04-06T13:36:26Z</time>
      </trkpt>
      <trkpt lat="45.69856" lon="-0.32977">
        <ele>8.5390625</ele>
        <time>2018-04-06T13:36:33Z</time>
      </trkpt>
      <trkpt lat="45.69844" lon="-0.3299">
        <ele>8.5625</ele>
        <time>2018-04-06T13:36:34Z</time>
      </trkpt>
      <trkpt lat="45.69828" lon="-0.33009">
        <ele>8.4609375</ele>
      </trkpt>
      <trkpt lat="45.69844" lon="-0.33035">
        <ele>8.01171875</ele>
      </trkpt>
      <trkpt lat="45.69863" lon="-0.33021">
        <ele>8.08984375</ele>
      </trkpt>
      <trkpt lat="45.69873" lon="-0.33018">
        <ele>8.0546875</ele>
      </trkpt>
      <trkpt lat="45.6989" lon="-0.33011">
        <ele>8</ele>
      </trkpt>
      <trkpt lat="45.69898" lon="-0.33007">
        <ele>8</ele>
      </trkpt>
      <trkpt lat="45.69906" lon="-0.32999">
        <ele>8</ele>
      </trkpt>
      <trkpt lat="45.69913" lon="-0.32989">
        <ele>8</ele>
      </trkpt>
      <trkpt lat="45.69923" lon="-0.32964">
        <ele>8</ele>
      </trkpt>
      <trkpt lat="45.69928" lon="-0.32947">
        <ele>8</ele>
      </trkpt>
      <trkpt lat="45.69926" lon="-0.32932">
        <ele>8</ele>
      </trkpt>
      <trkpt lat="45.69922" lon="-0.32922">
        <ele>8.078125</ele>
      </trkpt>
      <trkpt lat="45.69957" lon="-0.32898">
        <ele>8.31640625</ele>
      </trkpt>
      <trkpt lat="45.69983" lon="-0.32879">
        <ele>8.15234375</ele>
      </trkpt>
      <trkpt lat="45.70016" lon="-0.32852">
        <ele>8.8515625</ele>
      </trkpt>
      <trkpt lat="45.70054" lon="-0.32823">
        <ele>8.75</ele>
      </trkpt>
      <trkpt lat="45.70087" lon="-0.32798">
        <ele>8.82421875</ele>
      </trkpt>
      <trkpt lat="45.70089" lon="-0.32796">
        <ele>8.8515625</ele>
      </trkpt>
      <trkpt lat="45.70073" lon="-0.3275">
        <ele>12.1640625</ele>
      </trkpt>
      <trkpt lat="45.70079" lon="-0.32739">
        <ele>12.83203125</ele>
        <time>2018-04-06T13:37:11Z</time>
      </trkpt>
      <trkpt lat="45.70126" lon="-0.32706">
        <ele>12.1875</ele>
        <time>2018-04-06T13:37:18Z</time>
      </trkpt>
      <trkpt lat="45.70168" lon="-0.32676">
        <ele>11.62109375</ele>
        <time>2018-04-06T13:37:25Z</time>
      </trkpt>
      <trkpt lat="45.7021" lon="-0.32647">
        <ele>11.26171875</ele>
        <time>2018-04-06T13:37:33Z</time>
      </trkpt>
      <trkpt lat="45.7023" lon="-0.32633">
        <ele>11.38671875</ele>
        <time>2018-04-06T13:37:38Z</time>
      </trkpt>
      <trkpt lat="45.70233" lon="-0.32631">
        <ele>11.35546875</ele>
        <time>2018-04-06T13:37:39Z</time>
      </trkpt>
      <trkpt lat="45.70236" lon="-0.3263">
        <ele>11.23046875</ele>
        <time>2018-04-06T13:37:40Z</time>
      </trkpt>
      <trkpt lat="45.7024" lon="-0.32629">
        <ele>11.1015625</ele>
        <time>2018-04-06T13:37:41Z</time>
      </trkpt>
      <trkpt lat="45.70256" lon="-0.32623">
        <ele>10.60546875</ele>
        <time>2018-04-06T13:37:45Z</time>
      </trkpt>
      <trkpt lat="45.70259" lon="-0.3262">
        <ele>10.61328125</ele>
        <time>2018-04-06T13:37:46Z</time>
      </trkpt>
      <trkpt lat="45.70261" lon="-0.32617">
        <ele>10.6484375</ele>
        <time>2018-04-06T13:37:47Z</time>
      </trkpt>
      <trkpt lat="45.70263" lon="-0.32613">
        <ele>10.66796875</ele>
        <time>2018-04-06T13:37:48Z</time>
      </trkpt>
      <trkpt lat="45.70265" lon="-0.3261">
        <ele>10.6796875</ele>
        <time>2018-04-06T13:37:49Z</time>
      </trkpt>
      <trkpt lat="45.70278" lon="-0.32602">
        <ele>10.40234375</ele>
        <time>2018-04-06T13:37:50Z</time>
      </trkpt>
      <trkpt lat="45.70288" lon="-0.32594">
        <ele>10.30078125</ele>
        <time>2018-04-06T13:37:54Z</time>
      </trkpt>
      <trkpt lat="45.70301" lon="-0.32584">
        <ele>10.28125</ele>
        <time>2018-04-06T13:37:55Z</time>
      </trkpt>
      <trkpt lat="45.70361" lon="-0.3254">
        <ele>9.65234375</ele>
        <time>2018-04-06T13:38:02Z</time>
      </trkpt>
      <trkpt lat="45.70365" lon="-0.32539">
        <ele>9.53125</ele>
        <time>2018-04-06T13:38:09Z</time>
      </trkpt>
      <trkpt lat="45.70371" lon="-0.32537">
        <ele>9.390625</ele>
        <time>2018-04-06T13:38:10Z</time>
      </trkpt>
      <trkpt lat="45.70376" lon="-0.32535">
        <ele>9.265625</ele>
        <time>2018-04-06T13:38:11Z</time>
      </trkpt>
      <trkpt lat="45.70386" lon="-0.3253">
        <ele>9.13671875</ele>
        <time>2018-04-06T13:38:13Z</time>
      </trkpt>
      <trkpt lat="45.70391" lon="-0.32537">
        <ele>8.8125</ele>
        <time>2018-04-06T13:38:14Z</time>
      </trkpt>
      <trkpt lat="45.70396" lon="-0.32535">
        <ele>8.7578125</ele>
        <time>2018-04-06T13:38:15Z</time>
      </trkpt>
      <trkpt lat="45.70423" lon="-0.32513">
        <ele>8.77734375</ele>
        <time>2018-04-06T13:38:21Z</time>
      </trkpt>
      <trkpt lat="45.70459" lon="-0.32488">
        <ele>8.52734375</ele>
        <time>2018-04-06T13:38:30Z</time>
      </trkpt>
      <trkpt lat="45.70482" lon="-0.32473">
        <ele>8.359375</ele>
        <time>2018-04-06T13:38:38Z</time>
      </trkpt>
      <trkpt lat="45.70508" lon="-0.32459">
        <ele>8.2734375</ele>
        <time>2018-04-06T13:38:45Z</time>
      </trkpt>
      <trkpt lat="45.70545" lon="-0.32448">
        <ele>8.0390625</ele>
        <time>2018-04-06T13:38:49Z</time>
      </trkpt>
      <trkpt lat="45.70576" lon="-0.32447">
        <ele>8</ele>
        <time>2018-04-06T13:38:50Z</time>
      </trkpt>
      <trkpt lat="45.70613" lon="-0.32447">
        <ele>8</ele>
        <time>2018-04-06T13:38:58Z</time>
      </trkpt>
      <trkpt lat="45.7063" lon="-0.32447">
        <ele>8</ele>
        <time>2018-04-06T13:39:05Z</time>
      </trkpt>
      <trkpt lat="45.70639" lon="-0.32445">
        <ele>8</ele>
        <time>2018-04-06T13:39:09Z</time>
      </trkpt>
      <trkpt lat="45.70652" lon="-0.32442">
        <ele>8</ele>
        <time>2018-04-06T13:39:12Z</time>
      </trkpt>
      <trkpt lat="45.70667" lon="-0.32441">
        <ele>8</ele>
        <time>2018-04-06T13:39:17Z</time>
      </trkpt>
      <trkpt lat="45.70687" lon="-0.32438">
        <ele>8</ele>
        <time>2018-04-06T13:39:22Z</time>
      </trkpt>
      <trkpt lat="45.7072" lon="-0.32432">
        <ele>8</ele>
        <time>2018-04-06T13:39:29Z</time>
      </trkpt>
      <trkpt lat="45.70726" lon="-0.3243">
        <ele>8</ele>
        <time>2018-04-06T13:39:30Z</time>
      </trkpt>
      <trkpt lat="45.70733" lon="-0.32431">
        <ele>8</ele>
        <time>2018-04-06T13:39:31Z</time>
      </trkpt>
      <trkpt lat="45.70741" lon="-0.32433">
        <ele>8</ele>
        <time>2018-04-06T13:39:32Z</time>
      </trkpt>
      <trkpt lat="45.70747" lon="-0.32436">
        <ele>8</ele>
        <time>2018-04-06T13:39:33Z</time>
      </trkpt>
      <trkpt lat="45.70759" lon="-0.32441">
        <ele>8</ele>
        <time>2018-04-06T13:39:34Z</time>
      </trkpt>
      <trkpt lat="45.70774" lon="-0.32447">
        <ele>8</ele>
        <time>2018-04-06T13:39:37Z</time>
      </trkpt>
      <trkpt lat="45.70779" lon="-0.32447">
        <ele>8</ele>
        <time>2018-04-06T13:39:38Z</time>
      </trkpt>
      <trkpt lat="45.70805" lon="-0.32447">
        <ele>8</ele>
        <time>2018-04-06T13:39:43Z</time>
      </trkpt>
      <trkpt lat="45.7081" lon="-0.32447">
        <ele>8</ele>
        <time>2018-04-06T13:39:44Z</time>
      </trkpt>
      <trkpt lat="45.70816" lon="-0.32445">
        <ele>8</ele>
        <time>2018-04-06T13:39:45Z</time>
      </trkpt>
      <trkpt lat="45.7082" lon="-0.32441">
        <ele>8</ele>
        <time>2018-04-06T13:39:46Z</time>
      </trkpt>
      <trkpt lat="45.70825" lon="-0.32437">
        <ele>8</ele>
        <time>2018-04-06T13:39:47Z</time>
      </trkpt>
      <trkpt lat="45.70859" lon="-0.32404">
        <ele>8</ele>
        <time>2018-04-06T13:39:55Z</time>
      </trkpt>
      <trkpt lat="45.70892" lon="-0.3237">
        <ele>8</ele>
        <time>2018-04-06T13:40:03Z</time>
      </trkpt>
      <trkpt lat="45.7091" lon="-0.32346">
        <ele>8.42578125</ele>
        <time>2018-04-06T13:40:09Z</time>
      </trkpt>
      <trkpt lat="45.7092" lon="-0.32329">
        <ele>8.72265625</ele>
        <time>2018-04-06T13:40:13Z</time>
      </trkpt>
      <trkpt lat="45.70927" lon="-0.32316">
        <ele>8.96484375</ele>
        <time>2018-04-06T13:40:14Z</time>
      </trkpt>
      <trkpt lat="45.70935" lon="-0.32301">
        <ele>9.234375</ele>
        <time>2018-04-06T13:40:20Z</time>
      </trkpt>
      <trkpt lat="45.70938" lon="-0.32294">
        <ele>9.34765625</ele>
        <time>2018-04-06T13:40:21Z</time>
      </trkpt>
      <trkpt lat="45.7094" lon="-0.32285">
        <ele>9.4609375</ele>
        <time>2018-04-06T13:40:22Z</time>
      </trkpt>
      <trkpt lat="45.70942" lon="-0.32277">
        <ele>9.57421875</ele>
        <time>2018-04-06T13:40:24Z</time>
      </trkpt>
      <trkpt lat="45.70943" lon="-0.32273">
        <ele>9.640625</ele>
        <time>2018-04-06T13:40:25Z</time>
      </trkpt>
      <trkpt lat="45.70945" lon="-0.32267">
        <ele>9.7109375</ele>
        <time>2018-04-06T13:40:26Z</time>
      </trkpt>
      <trkpt lat="45.70952" lon="-0.32242">
        <ele>9.73046875</ele>
        <time>2018-04-06T13:40:31Z</time>
      </trkpt>
      <trkpt lat="45.70963" lon="-0.32212">
        <ele>9.54296875</ele>
        <time>2018-04-06T13:40:38Z</time>
      </trkpt>
      <trkpt lat="45.70964" lon="-0.32197">
        <ele>9.51171875</ele>
        <time>2018-04-06T13:40:44Z</time>
      </trkpt>
      <trkpt lat="45.70969" lon="-0.32163">
        <ele>9.43359375</ele>
        <time>2018-04-06T13:40:51Z</time>
      </trkpt>
      <trkpt lat="45.7097" lon="-0.32157">
        <ele>9.40625</ele>
        <time>2018-04-06T13:40:52Z</time>
      </trkpt>
      <trkpt lat="45.70981" lon="-0.32099">
        <ele>9.8984375</ele>
        <time>2018-04-06T13:41:01Z</time>
      </trkpt>
      <trkpt lat="45.70988" lon="-0.32051">
        <ele>10</ele>
        <time>2018-04-06T13:41:08Z</time>
      </trkpt>
      <trkpt lat="45.70995" lon="-0.31998">
        <ele>9.91015625</ele>
        <time>2018-04-06T13:41:16Z</time>
      </trkpt>
      <trkpt lat="45.70998" lon="-0.31968">
        <ele>9.8046875</ele>
        <time>2018-04-06T13:41:22Z</time>
      </trkpt>
      <trkpt lat="45.70999" lon="-0.31949">
        <ele>9.78515625</ele>
        <time>2018-04-06T13:41:26Z</time>
      </trkpt>
      <trkpt lat="45.70998" lon="-0.31932">
        <ele>9.82421875</ele>
        <time>2018-04-06T13:41:27Z</time>
      </trkpt>
      <trkpt lat="45.70996" lon="-0.31911">
        <ele>9.63671875</ele>
        <time>2018-04-06T13:41:28Z</time>
      </trkpt>
      <trkpt lat="45.70996" lon="-0.31892">
        <ele>9.32421875</ele>
        <time>2018-04-06T13:41:29Z</time>
      </trkpt>
      <trkpt lat="45.70995" lon="-0.31867">
        <ele>9</ele>
        <time>2018-04-06T13:41:30Z</time>
      </trkpt>
      <trkpt lat="45.70992" lon="-0.31844">
        <ele>9.4609375</ele>
      </trkpt>
      <trkpt lat="45.70988" lon="-0.3182">
        <ele>9.80078125</ele>
      </trkpt>
      <trkpt lat="45.70982" lon="-0.31806">
        <ele>9.8359375</ele>
      </trkpt>
      <trkpt lat="45.70978" lon="-0.3179">
        <ele>9.84765625</ele>
      </trkpt>
      <trkpt lat="45.70978" lon="-0.3178">
        <ele>9.89453125</ele>
      </trkpt>
      <trkpt lat="45.7098" lon="-0.31739">
        <ele>9.65234375</ele>
      </trkpt>
      <trkpt lat="45.70982" lon="-0.31699">
        <ele>9</ele>
      </trkpt>
      <trkpt lat="45.70981" lon="-0.31679">
        <ele>9</ele>
      </trkpt>
      <trkpt lat="45.70975" lon="-0.31652">
        <ele>9</ele>
      </trkpt>
      <trkpt lat="45.70968" lon="-0.31631">
        <ele>8.8359375</ele>
      </trkpt>
      <trkpt lat="45.70957" lon="-0.31606">
        <ele>8.734375</ele>
      </trkpt>
      <trkpt lat="45.70948" lon="-0.31574">
        <ele>8.546875</ele>
      </trkpt>
      <trkpt lat="45.70943" lon="-0.31552">
        <ele>8.25</ele>
      </trkpt>
      <trkpt lat="45.7094" lon="-0.31545">
        <ele>8.140625</ele>
      </trkpt>
      <trkpt lat="45.70935" lon="-0.31536">
        <ele>8.046875</ele>
      </trkpt>
      <trkpt lat="45.7093" lon="-0.31525">
        <ele>8.1328125</ele>
      </trkpt>
      <trkpt lat="45.70923" lon="-0.31511">
        <ele>8.26171875</ele>
      </trkpt>
      <trkpt lat="45.70914" lon="-0.315">
        <ele>8.42578125</ele>
      </trkpt>
      <trkpt lat="45.7087" lon="-0.31445">
        <ele>9.20703125</ele>
      </trkpt>
      <trkpt lat="45.70854" lon="-0.31425">
        <ele>9.4921875</ele>
      </trkpt>
      <trkpt lat="45.70844" lon="-0.31413">
        <ele>9.68359375</ele>
      </trkpt>
      <trkpt lat="45.70837" lon="-0.31403">
        <ele>9.80859375</ele>
      </trkpt>
      <trkpt lat="45.70833" lon="-0.314">
        <ele>9.8828125</ele>
      </trkpt>
      <trkpt lat="45.70827" lon="-0.31397">
        <ele>9.98828125</ele>
      </trkpt>
      <trkpt lat="45.70825" lon="-0.31399">
        <ele>10</ele>
      </trkpt>
      <trkpt lat="45.70812" lon="-0.31415">
        <ele>10</ele>
      </trkpt>
      <trkpt lat="45.70794" lon="-0.31436">
        <ele>10</ele>
      </trkpt>
      <trkpt lat="45.70773" lon="-0.31454">
        <ele>10</ele>
      </trkpt>
      <trkpt lat="45.70752" lon="-0.31473">
        <ele>10</ele>
      </trkpt>
      <trkpt lat="45.70731" lon="-0.31492">
        <ele>9.9453125</ele>
      </trkpt>
      <trkpt lat="45.70719" lon="-0.31507">
        <ele>9.96875</ele>
      </trkpt>
      <trkpt lat="45.70705" lon="-0.3152">
        <ele>10.375</ele>
      </trkpt>
      <trkpt lat="45.70697" lon="-0.31534">
        <ele>10.6640625</ele>
      </trkpt>
      <trkpt lat="45.70679" lon="-0.31567">
        <ele>11.296875</ele>
      </trkpt>
      <trkpt lat="45.7067" lon="-0.3158">
        <ele>11.62890625</ele>
      </trkpt>
      <trkpt lat="45.70653" lon="-0.31599">
        <ele>12.71875</ele>
      </trkpt>
      <trkpt lat="45.7064" lon="-0.31613">
        <ele>14.04296875</ele>
      </trkpt>
      <trkpt lat="45.70627" lon="-0.31625">
        <ele>15.1796875</ele>
      </trkpt>
      <trkpt lat="45.70617" lon="-0.3163">
        <ele>15.9140625</ele>
      </trkpt>
      <trkpt lat="45.70602" lon="-0.31628">
        <ele>16.93359375</ele>
      </trkpt>
      <trkpt lat="45.7059" lon="-0.31623">
        <ele>18.09765625</ele>
      </trkpt>
      <trkpt lat="45.70585" lon="-0.31616">
        <ele>18.49609375</ele>
        <time>2018-04-06T13:46:34Z</time>
      </trkpt>
      <trkpt lat="45.70578" lon="-0.31608">
        <ele>19.109375</ele>
        <time>2018-04-06T13:46:40Z</time>
      </trkpt>
      <trkpt lat="45.70569" lon="-0.31594">
        <ele>19.8046875</ele>
        <time>2018-04-06T13:46:42Z</time>
      </trkpt>
      <trkpt lat="45.70563" lon="-0.31599">
        <ele>20.58203125</ele>
        <time>2018-04-06T13:46:51Z</time>
      </trkpt>
      <trkpt lat="45.70554" lon="-0.3161">
        <ele>21.703125</ele>
        <time>2018-04-06T13:46:52Z</time>
      </trkpt>
      <trkpt lat="45.70547" lon="-0.31617">
        <ele>22.54296875</ele>
        <time>2018-04-06T13:46:53Z</time>
      </trkpt>
      <trkpt lat="45.70534" lon="-0.31633">
        <ele>23.5859375</ele>
        <time>2018-04-06T13:47:04Z</time>
      </trkpt>
      <trkpt lat="45.70517" lon="-0.31652">
        <ele>24.79296875</ele>
        <time>2018-04-06T13:47:13Z</time>
      </trkpt>
      <trkpt lat="45.70502" lon="-0.3167">
        <ele>25.93359375</ele>
        <time>2018-04-06T13:47:21Z</time>
      </trkpt>
      <trkpt lat="45.70474" lon="-0.31702">
        <ele>27.66796875</ele>
        <time>2018-04-06T13:47:31Z</time>
      </trkpt>
      <trkpt lat="45.70471" lon="-0.31702">
        <ele>27.78515625</ele>
        <time>2018-04-06T13:47:35Z</time>
      </trkpt>
      <trkpt lat="45.70468" lon="-0.31701">
        <ele>27.90234375</ele>
        <time>2018-04-06T13:47:36Z</time>
      </trkpt>
      <trkpt lat="45.70463" lon="-0.31696">
        <ele>28.07421875</ele>
        <time>2018-04-06T13:47:37Z</time>
      </trkpt>
      <trkpt lat="45.70442" lon="-0.31661">
        <ele>29.5</ele>
        <time>2018-04-06T13:47:48Z</time>
      </trkpt>
      <trkpt lat="45.70417" lon="-0.31621">
        <ele>30.93359375</ele>
        <time>2018-04-06T13:47:59Z</time>
      </trkpt>
      <trkpt lat="45.70401" lon="-0.31597">
        <ele>31.8984375</ele>
        <time>2018-04-06T13:48:07Z</time>
      </trkpt>
      <trkpt lat="45.70385" lon="-0.31573">
        <ele>32.8203125</ele>
        <time>2018-04-06T13:48:15Z</time>
      </trkpt>
      <trkpt lat="45.70366" lon="-0.31544">
        <ele>33.80859375</ele>
        <time>2018-04-06T13:48:24Z</time>
      </trkpt>
      <trkpt lat="45.7035" lon="-0.31518">
        <ele>34.93359375</ele>
        <time>2018-04-06T13:48:32Z</time>
      </trkpt>
      <trkpt lat="45.70328" lon="-0.31486">
        <ele>36.78515625</ele>
        <time>2018-04-06T13:48:42Z</time>
      </trkpt>
      <trkpt lat="45.70307" lon="-0.31454">
        <ele>37.53515625</ele>
        <time>2018-04-06T13:48:51Z</time>
      </trkpt>
      <trkpt lat="45.7029" lon="-0.31426">
        <ele>38.640625</ele>
        <time>2018-04-06T13:49:00Z</time>
      </trkpt>
      <trkpt lat="45.70278" lon="-0.31404">
        <ele>39.50390625</ele>
        <time>2018-04-06T13:49:07Z</time>
      </trkpt>
      <trkpt lat="45.70261" lon="-0.31376">
        <ele>40.3671875</ele>
        <time>2018-04-06T13:49:15Z</time>
      </trkpt>
      <trkpt lat="45.7024" lon="-0.31343">
        <ele>40.63671875</ele>
        <time>2018-04-06T13:49:24Z</time>
      </trkpt>
      <trkpt lat="45.70219" lon="-0.3131">
        <ele>40.7734375</ele>
        <time>2018-04-06T13:49:33Z</time>
      </trkpt>
      <trkpt lat="45.70198" lon="-0.31275">
        <ele>40.9375</ele>
        <time>2018-04-06T13:49:42Z</time>
      </trkpt>
      <trkpt lat="45.7018" lon="-0.31245">
        <ele>40.55859375</ele>
        <time>2018-04-06T13:49:49Z</time>
      </trkpt>
      <trkpt lat="45.70163" lon="-0.31217">
        <ele>39.63671875</ele>
        <time>2018-04-06T13:49:56Z</time>
      </trkpt>
      <trkpt lat="45.70145" lon="-0.31187">
        <ele>39.28515625</ele>
        <time>2018-04-06T13:49:59Z</time>
      </trkpt>
      <trkpt lat="45.70138" lon="-0.31163">
        <ele>39.0546875</ele>
        <time>2018-04-06T13:50:05Z</time>
      </trkpt>
      <trkpt lat="45.70142" lon="-0.31162">
        <ele>38.7109375</ele>
        <time>2018-04-06T13:50:06Z</time>
      </trkpt>
      <trkpt lat="45.70145" lon="-0.31161">
        <ele>38.4609375</ele>
        <time>2018-04-06T13:50:07Z</time>
      </trkpt>
      <trkpt lat="45.70158" lon="-0.31156">
        <ele>37.453125</ele>
        <time>2018-04-06T13:50:08Z</time>
      </trkpt>
      <trkpt lat="45.70169" lon="-0.31151">
        <ele>36.45703125</ele>
        <time>2018-04-06T13:50:09Z</time>
      </trkpt>
      <trkpt lat="45.70179" lon="-0.31151">
        <ele>35.74609375</ele>
        <time>2018-04-06T13:50:10Z</time>
      </trkpt>
      <trkpt lat="45.70208" lon="-0.31152">
        <ele>33.8203125</ele>
        <time>2018-04-06T13:50:11Z</time>
      </trkpt>
      <trkpt lat="45.70221" lon="-0.31149">
        <ele>32.7578125</ele>
        <time>2018-04-06T13:50:19Z</time>
      </trkpt>
      <trkpt lat="45.70228" lon="-0.31143">
        <ele>32.23046875</ele>
        <time>2018-04-06T13:50:21Z</time>
      </trkpt>
      <trkpt lat="45.70256" lon="-0.31121">
        <ele>29.0390625</ele>
        <time>2018-04-06T13:50:25Z</time>
      </trkpt>
      <trkpt lat="45.7027" lon="-0.31106">
        <ele>26.37109375</ele>
        <time>2018-04-06T13:50:26Z</time>
      </trkpt>
      <trkpt lat="45.70287" lon="-0.3109">
        <ele>23.72265625</ele>
        <time>2018-04-06T13:50:29Z</time>
      </trkpt>
      <trkpt lat="45.70311" lon="-0.31065">
        <ele>20.83203125</ele>
        <time>2018-04-06T13:50:32Z</time>
      </trkpt>
      <trkpt lat="45.70317" lon="-0.31056">
        <ele>19.80859375</ele>
        <time>2018-04-06T13:50:33Z</time>
      </trkpt>
      <trkpt lat="45.7032" lon="-0.31049">
        <ele>19.234375</ele>
        <time>2018-04-06T13:50:34Z</time>
      </trkpt>
      <trkpt lat="45.70321" lon="-0.31042">
        <ele>18.82421875</ele>
        <time>2018-04-06T13:50:35Z</time>
      </trkpt>
      <trkpt lat="45.7032" lon="-0.31036">
        <ele>18.51953125</ele>
        <time>2018-04-06T13:50:36Z</time>
      </trkpt>
      <trkpt lat="45.70318" lon="-0.31028">
        <ele>18.453125</ele>
        <time>2018-04-06T13:50:37Z</time>
      </trkpt>
      <trkpt lat="45.70309" lon="-0.31009">
        <ele>18.70703125</ele>
        <time>2018-04-06T13:50:38Z</time>
      </trkpt>
      <trkpt lat="45.7027" lon="-0.30942">
        <ele>18.59765625</ele>
        <time>2018-04-06T13:50:48Z</time>
      </trkpt>
      <trkpt lat="45.70251" lon="-0.30913">
        <ele>19.04296875</ele>
        <time>2018-04-06T13:50:56Z</time>
      </trkpt>
      <trkpt lat="45.70242" lon="-0.30894">
        <ele>18.5859375</ele>
        <time>2018-04-06T13:50:57Z</time>
      </trkpt>
      <trkpt lat="45.70231" lon="-0.30865">
        <ele>16.97265625</ele>
        <time>2018-04-06T13:51:00Z</time>
      </trkpt>
      <trkpt lat="45.70223" lon="-0.30851">
        <ele>16.62890625</ele>
        <time>2018-04-06T13:51:01Z</time>
      </trkpt>
      <trkpt lat="45.70204" lon="-0.30826">
        <ele>16.578125</ele>
        <time>2018-04-06T13:51:02Z</time>
      </trkpt>
      <trkpt lat="45.70184" lon="-0.30799">
        <ele>16.57421875</ele>
        <time>2018-04-06T13:51:07Z</time>
      </trkpt>
      <trkpt lat="45.7017" lon="-0.30764">
        <ele>14.62109375</ele>
        <time>2018-04-06T13:51:09Z</time>
      </trkpt>
      <trkpt lat="45.70157" lon="-0.30741">
        <ele>13.87109375</ele>
        <time>2018-04-06T13:51:15Z</time>
      </trkpt>
      <trkpt lat="45.70141" lon="-0.30708">
        <ele>12.84375</ele>
        <time>2018-04-06T13:51:17Z</time>
      </trkpt>
      <trkpt lat="45.70138" lon="-0.30702">
        <ele>12.69921875</ele>
        <time>2018-04-06T13:51:18Z</time>
      </trkpt>
      <trkpt lat="45.70131" lon="-0.30695">
        <ele>12.9921875</ele>
      </trkpt>
      <trkpt lat="45.70129" lon="-0.30693">
        <ele>13.171875</ele>
      </trkpt>
      <trkpt lat="45.70128" lon="-0.30685">
        <ele>12.5859375</ele>
      </trkpt>
      <trkpt lat="45.70123" lon="-0.30671">
        <ele>11.953125</ele>
        <time>2018-04-06T13:51:22Z</time>
      </trkpt>
      <trkpt lat="45.70076" lon="-0.30608">
        <ele>11.54296875</ele>
        <time>2018-04-06T13:51:31Z</time>
      </trkpt>
      <trkpt lat="45.70031" lon="-0.30561">
        <ele>12.4296875</ele>
        <time>2018-04-06T13:51:39Z</time>
      </trkpt>
      <trkpt lat="45.7001" lon="-0.30541">
        <ele>12.29296875</ele>
        <time>2018-04-06T13:51:43Z</time>
      </trkpt>
      <trkpt lat="45.69975" lon="-0.30508">
        <ele>13.390625</ele>
        <time>2018-04-06T13:51:50Z</time>
      </trkpt>
      <trkpt lat="45.6997" lon="-0.30504">
        <ele>13.55859375</ele>
        <time>2018-04-06T13:51:51Z</time>
      </trkpt>
      <trkpt lat="45.69958" lon="-0.30492">
        <ele>13.1171875</ele>
        <time>2018-04-06T13:51:53Z</time>
      </trkpt>
      <trkpt lat="45.69938" lon="-0.30449">
        <ele>10.09765625</ele>
        <time>2018-04-06T13:51:57Z</time>
      </trkpt>
      <trkpt lat="45.6993" lon="-0.30441">
        <ele>10.3671875</ele>
        <time>2018-04-06T13:51:58Z</time>
      </trkpt>
      <trkpt lat="45.69918" lon="-0.30435">
        <ele>11.328125</ele>
        <time>2018-04-06T13:52:05Z</time>
      </trkpt>
      <trkpt lat="45.69896" lon="-0.30418">
        <ele>11.95703125</ele>
        <time>2018-04-06T13:52:06Z</time>
      </trkpt>
      <trkpt lat="45.69883" lon="-0.30408">
        <ele>12.3515625</ele>
        <time>2018-04-06T13:52:08Z</time>
      </trkpt>
      <trkpt lat="45.69862" lon="-0.30388">
        <ele>12.18359375</ele>
      </trkpt>
      <trkpt lat="45.69851" lon="-0.30374">
        <ele>11.140625</ele>
      </trkpt>
      <trkpt lat="45.69845" lon="-0.30367">
        <ele>10.89453125</ele>
      </trkpt>
      <trkpt lat="45.69836" lon="-0.30362">
        <ele>11.09765625</ele>
      </trkpt>
      <trkpt lat="45.69831" lon="-0.30361">
        <ele>11.30078125</ele>
      </trkpt>
      <trkpt lat="45.69825" lon="-0.30359">
        <ele>11.671875</ele>
      </trkpt>
      <trkpt lat="45.69821" lon="-0.30344">
        <ele>11.71875</ele>
      </trkpt>
      <trkpt lat="45.698" lon="-0.30308">
        <ele>12.9296875</ele>
      </trkpt>
      <trkpt lat="45.69788" lon="-0.30289">
        <ele>13.265625</ele>
      </trkpt>
      <trkpt lat="45.69764" lon="-0.30256">
        <ele>13.24609375</ele>
      </trkpt>
      <trkpt lat="45.69724" lon="-0.30206">
        <ele>12.77734375</ele>
      </trkpt>
      <trkpt lat="45.69655" lon="-0.30123">
        <ele>12.65625</ele>
        <time>2018-04-06T13:52:56Z</time>
      </trkpt>
      <trkpt lat="45.69607" lon="-0.30069">
        <ele>14.19140625</ele>
        <time>2018-04-06T13:53:31Z</time>
      </trkpt>
      <trkpt lat="45.69544" lon="-0.29998">
        <ele>14.88671875</ele>
        <time>2018-04-06T13:53:54Z</time>
      </trkpt>
      <trkpt lat="45.6951" lon="-0.29959">
        <ele>15.55859375</ele>
        <time>2018-04-06T13:54:14Z</time>
      </trkpt>
      <trkpt lat="45.69501" lon="-0.29947">
        <ele>14.92578125</ele>
        <time>2018-04-06T13:54:30Z</time>
      </trkpt>
      <trkpt lat="45.6947" lon="-0.2992">
        <ele>15.94140625</ele>
        <time>2018-04-06T13:54:38Z</time>
      </trkpt>
      <trkpt lat="45.69444" lon="-0.29895">
        <ele>16.1171875</ele>
        <time>2018-04-06T13:54:45Z</time>
      </trkpt>
      <trkpt lat="45.69424" lon="-0.29876">
        <ele>15.8828125</ele>
        <time>2018-04-06T13:54:52Z</time>
      </trkpt>
      <trkpt lat="45.69362" lon="-0.29816">
        <ele>15.03515625</ele>
        <time>2018-04-06T13:54:54Z</time>
      </trkpt>
      <trkpt lat="45.69317" lon="-0.29766">
        <ele>14.265625</ele>
        <time>2018-04-06T13:55:18Z</time>
      </trkpt>
      <trkpt lat="45.6926" lon="-0.29703">
        <ele>14.57421875</ele>
        <time>2018-04-06T13:55:35Z</time>
      </trkpt>
      <trkpt lat="45.69231" lon="-0.29673">
        <ele>16.0234375</ele>
        <time>2018-04-06T13:55:40Z</time>
      </trkpt>
      <trkpt lat="45.69234" lon="-0.29669">
        <ele>14.80859375</ele>
        <time>2018-04-06T13:55:41Z</time>
      </trkpt>
      <trkpt lat="45.69237" lon="-0.29658">
        <ele>12.5703125</ele>
        <time>2018-04-06T13:55:42Z</time>
      </trkpt>
      <trkpt lat="45.69253" lon="-0.29634">
        <ele>9.30078125</ele>
        <time>2018-04-06T13:55:43Z</time>
      </trkpt>
      <trkpt lat="45.69257" lon="-0.2963">
        <ele>8.95703125</ele>
        <time>2018-04-06T13:56:01Z</time>
      </trkpt>
      <trkpt lat="45.69246" lon="-0.2961">
        <ele>9.03515625</ele>
        <time>2018-04-06T13:56:02Z</time>
      </trkpt>
      <trkpt lat="45.69228" lon="-0.29571">
        <ele>8.47265625</ele>
        <time>2018-04-06T13:56:06Z</time>
      </trkpt>
      <trkpt lat="45.69198" lon="-0.29521">
        <ele>8.22265625</ele>
        <time>2018-04-06T13:56:14Z</time>
      </trkpt>
      <trkpt lat="45.69185" lon="-0.29499">
        <ele>8.171875</ele>
        <time>2018-04-06T13:56:19Z</time>
      </trkpt>
      <trkpt lat="45.6917" lon="-0.29475">
        <ele>8</ele>
        <time>2018-04-06T14:14:47Z</time>
      </trkpt>
      <trkpt lat="45.69152" lon="-0.29455">
        <ele>8.15234375</ele>
        <time>2018-04-06T14:14:49Z</time>
      </trkpt>
      <trkpt lat="45.69137" lon="-0.29431">
        <ele>8.0625</ele>
        <time>2018-04-06T14:14:56Z</time>
      </trkpt>
      <trkpt lat="45.69118" lon="-0.29402">
        <ele>8</ele>
        <time>2018-04-06T14:15:06Z</time>
      </trkpt>
      <trkpt lat="45.691" lon="-0.29373">
        <ele>8.10546875</ele>
        <time>2018-04-06T14:15:15Z</time>
      </trkpt>
      <trkpt lat="45.69082" lon="-0.29342">
        <ele>8.1953125</ele>
        <time>2018-04-06T14:15:18Z</time>
      </trkpt>
      <trkpt lat="45.69069" lon="-0.29307">
        <ele>8</ele>
        <time>2018-04-06T14:15:28Z</time>
      </trkpt>
      <trkpt lat="45.69051" lon="-0.29271">
        <ele>8</ele>
        <time>2018-04-06T14:15:33Z</time>
      </trkpt>
      <trkpt lat="45.69034" lon="-0.29235">
        <ele>8</ele>
        <time>2018-04-06T14:15:43Z</time>
      </trkpt>
      <trkpt lat="45.69007" lon="-0.29177">
        <ele>8</ele>
        <time>2018-04-06T14:15:59Z</time>
      </trkpt>
      <trkpt lat="45.68981" lon="-0.29119">
        <ele>8</ele>
        <time>2018-04-06T14:16:06Z</time>
      </trkpt>
      <trkpt lat="45.68971" lon="-0.29096">
        <ele>8</ele>
        <time>2018-04-06T14:16:14Z</time>
      </trkpt>
      <trkpt lat="45.68956" lon="-0.29056">
        <ele>8</ele>
        <time>2018-04-06T14:16:15Z</time>
      </trkpt>
      <trkpt lat="45.68936" lon="-0.29008">
        <ele>8</ele>
        <time>2018-04-06T14:16:31Z</time>
      </trkpt>
      <trkpt lat="45.68909" lon="-0.28942">
        <ele>8</ele>
        <time>2018-04-06T14:16:41Z</time>
      </trkpt>
      <trkpt lat="45.68895" lon="-0.28901">
        <ele>8</ele>
        <time>2018-04-06T14:16:50Z</time>
      </trkpt>
      <trkpt lat="45.68878" lon="-0.28845">
        <ele>8</ele>
        <time>2018-04-06T14:17:01Z</time>
      </trkpt>
      <trkpt lat="45.68869" lon="-0.28814">
        <ele>8</ele>
        <time>2018-04-06T14:17:02Z</time>
      </trkpt>
      <trkpt lat="45.68857" lon="-0.28774">
        <ele>8</ele>
        <time>2018-04-06T14:17:14Z</time>
      </trkpt>
      <trkpt lat="45.68839" lon="-0.28721">
        <ele>8</ele>
        <time>2018-04-06T14:17:24Z</time>
      </trkpt>
      <trkpt lat="45.68829" lon="-0.28695">
        <ele>8</ele>
        <time>2018-04-06T14:17:29Z</time>
      </trkpt>
      <trkpt lat="45.68824" lon="-0.28687">
        <ele>8</ele>
        <time>2018-04-06T14:17:30Z</time>
      </trkpt>
      <trkpt lat="45.68822" lon="-0.28683">
        <ele>8</ele>
        <time>2018-04-06T14:17:31Z</time>
      </trkpt>
      <trkpt lat="45.68821" lon="-0.28671">
        <ele>8</ele>
        <time>2018-04-06T14:17:32Z</time>
      </trkpt>
      <trkpt lat="45.68814" lon="-0.28624">
        <ele>8</ele>
        <time>2018-04-06T14:17:33Z</time>
      </trkpt>
      <trkpt lat="45.68814" lon="-0.2861">
        <ele>8</ele>
        <time>2018-04-06T14:17:39Z</time>
      </trkpt>
      <trkpt lat="45.68807" lon="-0.28578">
        <ele>8</ele>
        <time>2018-04-06T14:17:50Z</time>
      </trkpt>
      <trkpt lat="45.68801" lon="-0.28559">
        <ele>8</ele>
        <time>2018-04-06T14:17:56Z</time>
      </trkpt>
      <trkpt lat="45.68795" lon="-0.28532">
        <ele>8</ele>
        <time>2018-04-06T14:17:59Z</time>
      </trkpt>
      <trkpt lat="45.68791" lon="-0.28527">
        <ele>8</ele>
        <time>2018-04-06T14:18:00Z</time>
      </trkpt>
      <trkpt lat="45.68787" lon="-0.28524">
        <ele>8</ele>
        <time>2018-04-06T14:18:01Z</time>
      </trkpt>
      <trkpt lat="45.68783" lon="-0.28523">
        <ele>8</ele>
        <time>2018-04-06T14:18:02Z</time>
      </trkpt>
      <trkpt lat="45.68779" lon="-0.28525">
        <ele>8</ele>
        <time>2018-04-06T14:18:03Z</time>
      </trkpt>
      <trkpt lat="45.68775" lon="-0.28535">
        <ele>8</ele>
        <time>2018-04-06T14:18:04Z</time>
      </trkpt>
      <trkpt lat="45.68769" lon="-0.28545">
        <ele>8</ele>
        <time>2018-04-06T14:18:05Z</time>
      </trkpt>
      <trkpt lat="45.68765" lon="-0.2855">
        <ele>8</ele>
        <time>2018-04-06T14:18:06Z</time>
      </trkpt>
      <trkpt lat="45.68751" lon="-0.28566">
        <ele>8</ele>
        <time>2018-04-06T14:18:11Z</time>
      </trkpt>
      <trkpt lat="45.68745" lon="-0.28574">
        <ele>8</ele>
        <time>2018-04-18T12:06:51Z</time>
      </trkpt>
      <trkpt lat="45.68749" lon="-0.2858">
        <ele>8</ele>
        <time>2018-04-18T12:06:52Z</time>
      </trkpt>
      <trkpt lat="45.68757" lon="-0.28573">
        <ele>8</ele>
        <time>2018-04-18T12:06:53Z</time>
      </trkpt>
      <trkpt lat="45.68762" lon="-0.28567">
        <ele>8</ele>
        <time>2018-04-18T12:07:01Z</time>
      </trkpt>
      <trkpt lat="45.68793" lon="-0.28538">
        <ele>8</ele>
        <time>2018-04-18T12:07:05Z</time>
      </trkpt>
      <trkpt lat="45.68824" lon="-0.28508">
        <ele>8</ele>
        <time>2018-04-18T12:07:13Z</time>
      </trkpt>
      <trkpt lat="45.68856" lon="-0.28479">
        <ele>9.0859375</ele>
        <time>2018-04-18T12:07:25Z</time>
      </trkpt>
      <trkpt lat="45.68885" lon="-0.28451">
        <ele>10.640625</ele>
        <time>2018-04-18T12:07:33Z</time>
      </trkpt>
      <trkpt lat="45.6888" lon="-0.28428">
        <ele>10.87890625</ele>
        <time>2018-04-18T12:07:38Z</time>
      </trkpt>
      <trkpt lat="45.68871" lon="-0.28398">
        <ele>10.9765625</ele>
        <time>2018-04-18T12:07:44Z</time>
      </trkpt>
      <trkpt lat="45.68869" lon="-0.28389">
        <ele>11.03515625</ele>
        <time>2018-04-18T12:07:46Z</time>
      </trkpt>
      <trkpt lat="45.68857" lon="-0.28352">
        <ele>10.96875</ele>
        <time>2018-04-18T12:07:53Z</time>
      </trkpt>
      <trkpt lat="45.68841" lon="-0.28313">
        <ele>10.8515625</ele>
        <time>2018-04-18T12:07:55Z</time>
      </trkpt>
      <trkpt lat="45.6883" lon="-0.2828">
        <ele>11.44140625</ele>
        <time>2018-04-18T12:08:03Z</time>
      </trkpt>
      <trkpt lat="45.68826" lon="-0.28266">
        <ele>11.76953125</ele>
        <time>2018-04-18T12:08:06Z</time>
      </trkpt>
      <trkpt lat="45.68823" lon="-0.28243">
        <ele>12.0703125</ele>
        <time>2018-04-18T12:08:08Z</time>
      </trkpt>
      <trkpt lat="45.68822" lon="-0.28222">
        <ele>12.390625</ele>
        <time>2018-04-18T12:08:14Z</time>
      </trkpt>
      <trkpt lat="45.68824" lon="-0.28173">
        <ele>12.828125</ele>
        <time>2018-04-18T12:08:17Z</time>
      </trkpt>
      <trkpt lat="45.6883" lon="-0.28149">
        <ele>13.2109375</ele>
        <time>2018-04-18T12:08:27Z</time>
      </trkpt>
      <trkpt lat="45.6883" lon="-0.28141">
        <ele>13.2109375</ele>
        <time>2018-04-18T12:08:32Z</time>
      </trkpt>
      <trkpt lat="45.68832" lon="-0.28133">
        <ele>13.35546875</ele>
        <time>2018-04-18T12:08:34Z</time>
      </trkpt>
      <trkpt lat="45.68816" lon="-0.2809">
        <ele>12.40625</ele>
        <time>2018-04-18T12:08:36Z</time>
      </trkpt>
      <trkpt lat="45.688" lon="-0.2804">
        <ele>11.5078125</ele>
        <time>2018-04-18T12:08:40Z</time>
      </trkpt>
      <trkpt lat="45.68823" lon="-0.28026">
        <ele>13.01171875</ele>
        <time>2018-04-18T12:08:51Z</time>
      </trkpt>
      <trkpt lat="45.68833" lon="-0.28017">
        <ele>13.63671875</ele>
        <time>2018-04-18T12:09:00Z</time>
      </trkpt>
      <trkpt lat="45.68851" lon="-0.27992">
        <ele>14.76171875</ele>
      </trkpt>
      <trkpt lat="45.68856" lon="-0.27991">
        <ele>14.97265625</ele>
      </trkpt>
      <trkpt lat="45.68859" lon="-0.27983">
        <ele>15.1328125</ele>
      </trkpt>
      <trkpt lat="45.68895" lon="-0.27935">
        <ele>18.015625</ele>
      </trkpt>
      <trkpt lat="45.68898" lon="-0.27928">
        <ele>18.24609375</ele>
      </trkpt>
      <trkpt lat="45.68899" lon="-0.27922">
        <ele>18.4765625</ele>
      </trkpt>
      <trkpt lat="45.68899" lon="-0.27916">
        <ele>18.69921875</ele>
      </trkpt>
      <trkpt lat="45.68897" lon="-0.27893">
        <ele>19.5</ele>
        <time>2018-04-18T12:09:23Z</time>
      </trkpt>
      <trkpt lat="45.68887" lon="-0.27855">
        <ele>20.67578125</ele>
        <time>2018-04-18T12:09:33Z</time>
      </trkpt>
      <trkpt lat="45.68876" lon="-0.27816">
        <ele>21.671875</ele>
        <time>2018-04-18T12:09:41Z</time>
      </trkpt>
      <trkpt lat="45.68864" lon="-0.27792">
        <ele>21.859375</ele>
        <time>2018-04-18T12:09:50Z</time>
      </trkpt>
      <trkpt lat="45.68841" lon="-0.27749">
        <ele>22.18359375</ele>
        <time>2018-04-18T12:10:00Z</time>
      </trkpt>
      <trkpt lat="45.68816" lon="-0.27697">
        <ele>22.5078125</ele>
        <time>2018-04-18T12:10:07Z</time>
      </trkpt>
      <trkpt lat="45.68851" lon="-0.27667">
        <ele>25.28125</ele>
        <time>2018-04-18T12:10:12Z</time>
      </trkpt>
      <trkpt lat="45.68859" lon="-0.27659">
        <ele>26.04296875</ele>
        <time>2018-04-18T12:10:31Z</time>
      </trkpt>
      <trkpt lat="45.68873" lon="-0.27652">
        <ele>27.2109375</ele>
        <time>2018-04-18T12:10:38Z</time>
      </trkpt>
      <trkpt lat="45.68896" lon="-0.2765">
        <ele>28.48828125</ele>
      </trkpt>
      <trkpt lat="45.68914" lon="-0.27649">
        <ele>29.13671875</ele>
      </trkpt>
      <trkpt lat="45.68933" lon="-0.27645">
        <ele>29.984375</ele>
        <time>2018-04-18T12:10:50Z</time>
      </trkpt>
      <trkpt lat="45.68987" lon="-0.27623">
        <ele>31.4140625</ele>
        <time>2018-04-18T12:11:03Z</time>
      </trkpt>
      <trkpt lat="45.69022" lon="-0.2761">
        <ele>32.078125</ele>
        <time>2018-04-18T12:11:15Z</time>
      </trkpt>
      <trkpt lat="45.69047" lon="-0.27599">
        <ele>32.8046875</ele>
        <time>2018-04-18T12:11:26Z</time>
      </trkpt>
      <trkpt lat="45.69088" lon="-0.27574">
        <ele>33.71875</ele>
        <time>2018-04-18T12:11:36Z</time>
      </trkpt>
      <trkpt lat="45.69126" lon="-0.27556">
        <ele>34.75390625</ele>
        <time>2018-04-18T12:11:50Z</time>
      </trkpt>
      <trkpt lat="45.69174" lon="-0.27536">
        <ele>36.6171875</ele>
        <time>2018-04-18T12:12:03Z</time>
      </trkpt>
      <trkpt lat="45.69242" lon="-0.27512">
        <ele>39.1953125</ele>
        <time>2018-04-18T12:12:14Z</time>
      </trkpt>
      <trkpt lat="45.69276" lon="-0.27501">
        <ele>39.625</ele>
        <time>2018-04-18T12:12:26Z</time>
      </trkpt>
      <trkpt lat="45.69323" lon="-0.27487">
        <ele>39.07421875</ele>
        <time>2018-04-18T12:12:34Z</time>
      </trkpt>
      <trkpt lat="45.69339" lon="-0.27483">
        <ele>39.01171875</ele>
        <time>2018-04-18T12:12:35Z</time>
      </trkpt>
      <trkpt lat="45.69351" lon="-0.27482">
        <ele>39.015625</ele>
        <time>2018-04-18T12:12:44Z</time>
      </trkpt>
      <trkpt lat="45.69428" lon="-0.27489">
        <ele>38.91796875</ele>
        <time>2018-04-18T12:12:51Z</time>
      </trkpt>
      <trkpt lat="45.69439" lon="-0.27488">
        <ele>38.90625</ele>
        <time>2018-04-18T12:12:53Z</time>
      </trkpt>
      <trkpt lat="45.69458" lon="-0.27485">
        <ele>38.2734375</ele>
        <time>2018-04-18T12:13:01Z</time>
      </trkpt>
      <trkpt lat="45.69484" lon="-0.27483">
        <ele>37.34375</ele>
        <time>2018-04-18T12:13:08Z</time>
      </trkpt>
      <trkpt lat="45.6951" lon="-0.27485">
        <ele>36.39453125</ele>
        <time>2018-04-18T12:13:15Z</time>
      </trkpt>
      <trkpt lat="45.69521" lon="-0.27489">
        <ele>36.0078125</ele>
        <time>2018-04-18T12:13:16Z</time>
      </trkpt>
      <trkpt lat="45.69535" lon="-0.27503">
        <ele>35.5234375</ele>
        <time>2018-04-18T12:13:22Z</time>
      </trkpt>
      <trkpt lat="45.69549" lon="-0.27478">
        <ele>34.89453125</ele>
      </trkpt>
      <trkpt lat="45.69567" lon="-0.2744">
        <ele>32.6875</ele>
        <time>2018-04-18T12:13:28Z</time>
      </trkpt>
      <trkpt lat="45.69577" lon="-0.27406">
        <ele>31.3046875</ele>
        <time>2018-04-18T12:13:30Z</time>
      </trkpt>
      <trkpt lat="45.69585" lon="-0.27358">
        <ele>30.12890625</ele>
        <time>2018-04-18T12:13:36Z</time>
      </trkpt>
      <trkpt lat="45.69589" lon="-0.27283">
        <ele>29.234375</ele>
        <time>2018-04-18T12:13:44Z</time>
      </trkpt>
      <trkpt lat="45.69598" lon="-0.27162">
        <ele>26.53125</ele>
        <time>2018-04-18T12:13:55Z</time>
      </trkpt>
      <trkpt lat="45.69595" lon="-0.27099">
        <ele>24.84375</ele>
        <time>2018-04-18T12:14:00Z</time>
      </trkpt>
      <trkpt lat="45.69591" lon="-0.27067">
        <ele>24.375</ele>
        <time>2018-04-18T12:14:01Z</time>
      </trkpt>
      <trkpt lat="45.69584" lon="-0.27027">
        <ele>23.61328125</ele>
        <time>2018-04-18T12:14:03Z</time>
      </trkpt>
      <trkpt lat="45.69577" lon="-0.2701">
        <ele>23.18359375</ele>
        <time>2018-04-18T12:14:08Z</time>
      </trkpt>
      <trkpt lat="45.69563" lon="-0.26956">
        <ele>21.11328125</ele>
        <time>2018-04-18T12:14:12Z</time>
      </trkpt>
      <trkpt lat="45.69546" lon="-0.26894">
        <ele>18.95703125</ele>
        <time>2018-04-18T12:14:20Z</time>
      </trkpt>
      <trkpt lat="45.69532" lon="-0.26867">
        <ele>18.73828125</ele>
        <time>2018-04-18T12:14:31Z</time>
      </trkpt>
      <trkpt lat="45.69522" lon="-0.26852">
        <ele>18.7109375</ele>
        <time>2018-04-18T12:14:36Z</time>
      </trkpt>
      <trkpt lat="45.69512" lon="-0.26842">
        <ele>18.87109375</ele>
        <time>2018-04-18T12:14:41Z</time>
      </trkpt>
      <trkpt lat="45.69497" lon="-0.26814">
        <ele>18.7734375</ele>
        <time>2018-04-18T12:14:47Z</time>
      </trkpt>
      <trkpt lat="45.69483" lon="-0.26778">
        <ele>18.9453125</ele>
        <time>2018-04-18T12:14:54Z</time>
      </trkpt>
      <trkpt lat="45.69476" lon="-0.26742">
        <ele>18.71875</ele>
        <time>2018-04-18T12:15:01Z</time>
      </trkpt>
      <trkpt lat="45.6947" lon="-0.26712">
        <ele>18.78515625</ele>
        <time>2018-04-18T12:15:07Z</time>
      </trkpt>
      <trkpt lat="45.69462" lon="-0.26684">
        <ele>19.05859375</ele>
        <time>2018-04-18T12:15:12Z</time>
      </trkpt>
      <trkpt lat="45.69453" lon="-0.26646">
        <ele>19.13671875</ele>
        <time>2018-04-18T12:15:19Z</time>
      </trkpt>
      <trkpt lat="45.6945" lon="-0.26634">
        <ele>19.1171875</ele>
        <time>2018-04-18T12:15:21Z</time>
      </trkpt>
      <trkpt lat="45.69449" lon="-0.26628">
        <ele>19.09765625</ele>
        <time>2018-04-18T12:15:22Z</time>
      </trkpt>
      <trkpt lat="45.69448" lon="-0.26622">
        <ele>19.06640625</ele>
        <time>2018-04-18T12:15:23Z</time>
      </trkpt>
      <trkpt lat="45.69446" lon="-0.26617">
        <ele>19.046875</ele>
        <time>2018-04-18T12:15:24Z</time>
      </trkpt>
      <trkpt lat="45.69444" lon="-0.26611">
        <ele>19.03125</ele>
        <time>2018-04-18T12:15:25Z</time>
      </trkpt>
      <trkpt lat="45.69441" lon="-0.26599">
        <ele>18.9453125</ele>
        <time>2018-04-18T12:15:27Z</time>
      </trkpt>
      <trkpt lat="45.6944" lon="-0.26593">
        <ele>18.94140625</ele>
        <time>2018-04-18T12:15:28Z</time>
      </trkpt>
      <trkpt lat="45.69428" lon="-0.26559">
        <ele>19.734375</ele>
        <time>2018-04-18T12:15:35Z</time>
      </trkpt>
      <trkpt lat="45.69421" lon="-0.2653">
        <ele>20.1640625</ele>
        <time>2018-04-18T12:15:41Z</time>
      </trkpt>
      <trkpt lat="45.69397" lon="-0.26439">
        <ele>19.81640625</ele>
        <time>2018-04-18T12:16:04Z</time>
      </trkpt>
      <trkpt lat="45.6939" lon="-0.26412">
        <ele>19.45703125</ele>
        <time>2018-04-18T12:16:10Z</time>
      </trkpt>
      <trkpt lat="45.69381" lon="-0.26375">
        <ele>19.15625</ele>
        <time>2018-04-18T12:16:17Z</time>
      </trkpt>
      <trkpt lat="45.69369" lon="-0.26341">
        <ele>19.5546875</ele>
        <time>2018-04-18T12:16:24Z</time>
      </trkpt>
      <trkpt lat="45.69357" lon="-0.26315">
        <ele>19.75</ele>
        <time>2018-04-18T12:16:31Z</time>
      </trkpt>
      <trkpt lat="45.69349" lon="-0.26294">
        <ele>19.76953125</ele>
        <time>2018-04-18T12:16:37Z</time>
      </trkpt>
      <trkpt lat="45.69339" lon="-0.26278">
        <ele>19.859375</ele>
        <time>2018-04-18T12:16:42Z</time>
      </trkpt>
      <trkpt lat="45.69322" lon="-0.26243">
        <ele>20.09765625</ele>
        <time>2018-04-18T12:16:57Z</time>
      </trkpt>
      <trkpt lat="45.69314" lon="-0.26222">
        <ele>20.5</ele>
        <time>2018-04-18T12:17:04Z</time>
      </trkpt>
      <trkpt lat="45.69304" lon="-0.26199">
        <ele>20.94921875</ele>
        <time>2018-04-18T12:17:10Z</time>
      </trkpt>
      <trkpt lat="45.69293" lon="-0.26169">
        <ele>21.2734375</ele>
        <time>2018-04-18T12:17:16Z</time>
      </trkpt>
      <trkpt lat="45.69277" lon="-0.26124">
        <ele>20.83984375</ele>
        <time>2018-04-18T12:17:23Z</time>
      </trkpt>
      <trkpt lat="45.69277" lon="-0.26098">
        <ele>19.9921875</ele>
        <time>2018-04-18T12:17:30Z</time>
      </trkpt>
      <trkpt lat="45.69279" lon="-0.26038">
        <ele>18.8671875</ele>
        <time>2018-04-18T12:17:35Z</time>
      </trkpt>
      <trkpt lat="45.69279" lon="-0.25995">
        <ele>18.8671875</ele>
        <time>2018-04-18T12:17:43Z</time>
      </trkpt>
      <trkpt lat="45.69279" lon="-0.25952">
        <ele>18.36328125</ele>
        <time>2018-04-18T12:17:50Z</time>
      </trkpt>
      <trkpt lat="45.69279" lon="-0.25948">
        <ele>18.296875</ele>
      </trkpt>
      <trkpt lat="45.69279" lon="-0.25942">
        <ele>18.21484375</ele>
      </trkpt>
      <trkpt lat="45.69268" lon="-0.25946">
        <ele>18.53125</ele>
      </trkpt>
      <trkpt lat="45.69258" lon="-0.25942">
        <ele>18.98046875</ele>
      </trkpt>
      <trkpt lat="45.6925" lon="-0.25935">
        <ele>19.2578125</ele>
      </trkpt>
      <trkpt lat="45.69243" lon="-0.25935">
        <ele>19.6484375</ele>
      </trkpt>
      <trkpt lat="45.69232" lon="-0.2592">
        <ele>20.16015625</ele>
      </trkpt>
      <trkpt lat="45.69222" lon="-0.25913">
        <ele>20.67578125</ele>
      </trkpt>
      <trkpt lat="45.69211" lon="-0.25913">
        <ele>21.33203125</ele>
      </trkpt>
      <trkpt lat="45.69199" lon="-0.25919">
        <ele>22.20703125</ele>
      </trkpt>
      <trkpt lat="45.69184" lon="-0.25928">
        <ele>23.296875</ele>
      </trkpt>
      <trkpt lat="45.69174" lon="-0.25933">
        <ele>24.203125</ele>
      </trkpt>
      <trkpt lat="45.69166" lon="-0.25933">
        <ele>24.7890625</ele>
      </trkpt>
      <trkpt lat="45.69155" lon="-0.25928">
        <ele>25.62890625</ele>
      </trkpt>
      <trkpt lat="45.69127" lon="-0.25871">
        <ele>28.63671875</ele>
      </trkpt>
      <trkpt lat="45.69117" lon="-0.25837">
        <ele>29.75</ele>
      </trkpt>
      <trkpt lat="45.69103" lon="-0.25807">
        <ele>31.015625</ele>
      </trkpt>
      <trkpt lat="45.69096" lon="-0.25804">
        <ele>31.8984375</ele>
      </trkpt>
      <trkpt lat="45.69084" lon="-0.25806">
        <ele>33.50390625</ele>
      </trkpt>
      <trkpt lat="45.69071" lon="-0.25816">
        <ele>35.203125</ele>
      </trkpt>
      <trkpt lat="45.69054" lon="-0.25834">
        <ele>37.46875</ele>
      </trkpt>
      <trkpt lat="45.69029" lon="-0.25852">
        <ele>40.39453125</ele>
      </trkpt>
      <trkpt lat="45.69019" lon="-0.2585">
        <ele>41.62109375</ele>
      </trkpt>
      <trkpt lat="45.68986" lon="-0.25837">
        <ele>44.9140625</ele>
      </trkpt>
      <trkpt lat="45.68976" lon="-0.2585">
        <ele>45.85546875</ele>
        <time>2018-04-18T12:21:00Z</time>
      </trkpt>
      <trkpt lat="45.68955" lon="-0.25873">
        <ele>47.82421875</ele>
        <time>2018-04-18T12:21:09Z</time>
      </trkpt>
      <trkpt lat="45.6894" lon="-0.2589">
        <ele>49.515625</ele>
        <time>2018-04-18T12:21:18Z</time>
      </trkpt>
      <trkpt lat="45.68919" lon="-0.25909">
        <ele>50.890625</ele>
        <time>2018-04-18T12:21:27Z</time>
      </trkpt>
      <trkpt lat="45.68909" lon="-0.2592">
        <ele>51.3671875</ele>
        <time>2018-04-18T12:21:33Z</time>
      </trkpt>
      <trkpt lat="45.68902" lon="-0.25929">
        <ele>51.6484375</ele>
        <time>2018-04-18T12:21:41Z</time>
      </trkpt>
      <trkpt lat="45.68898" lon="-0.25954">
        <ele>52.3046875</ele>
        <time>2018-04-18T12:21:49Z</time>
      </trkpt>
      <trkpt lat="45.68903" lon="-0.25979">
        <ele>52.875</ele>
        <time>2018-04-18T12:21:59Z</time>
      </trkpt>
      <trkpt lat="45.68911" lon="-0.2601">
        <ele>52.76953125</ele>
        <time>2018-04-18T12:22:07Z</time>
      </trkpt>
      <trkpt lat="45.68905" lon="-0.26011">
        <ele>52.70703125</ele>
      </trkpt>
      <trkpt lat="45.68891" lon="-0.26021">
        <ele>52.4296875</ele>
        <time>2018-04-18T12:22:34Z</time>
      </trkpt>
      <trkpt lat="45.68819" lon="-0.26072">
        <ele>49.359375</ele>
        <time>2018-04-18T12:22:47Z</time>
      </trkpt>
      <trkpt lat="45.68783" lon="-0.26096">
        <ele>48.9921875</ele>
        <time>2018-04-18T12:22:58Z</time>
      </trkpt>
      <trkpt lat="45.68738" lon="-0.26126">
        <ele>48.171875</ele>
        <time>2018-04-18T12:23:07Z</time>
      </trkpt>
      <trkpt lat="45.6869" lon="-0.26158">
        <ele>47.33203125</ele>
        <time>2018-04-18T12:23:16Z</time>
      </trkpt>
      <trkpt lat="45.68683" lon="-0.2616">
        <ele>47.1171875</ele>
        <time>2018-04-18T12:23:17Z</time>
      </trkpt>
      <trkpt lat="45.68678" lon="-0.26148">
        <ele>47.30859375</ele>
        <time>2018-04-18T12:23:18Z</time>
      </trkpt>
      <trkpt lat="45.68666" lon="-0.26118">
        <ele>47.0859375</ele>
        <time>2018-04-18T12:23:19Z</time>
      </trkpt>
      <trkpt lat="45.68639" lon="-0.26076">
        <ele>46.0078125</ele>
        <time>2018-04-18T12:23:32Z</time>
      </trkpt>
      <trkpt lat="45.6861" lon="-0.26028">
        <ele>45.08203125</ele>
        <time>2018-04-18T12:23:36Z</time>
      </trkpt>
      <trkpt lat="45.68558" lon="-0.25943">
        <ele>41.8203125</ele>
        <time>2018-04-18T12:23:46Z</time>
      </trkpt>
      <trkpt lat="45.68526" lon="-0.25889">
        <ele>39.8671875</ele>
        <time>2018-04-18T12:23:55Z</time>
      </trkpt>
      <trkpt lat="45.68508" lon="-0.25857">
        <ele>39.32421875</ele>
        <time>2018-04-18T12:24:04Z</time>
      </trkpt>
      <trkpt lat="45.68475" lon="-0.25807">
        <ele>39.390625</ele>
        <time>2018-04-18T12:24:12Z</time>
      </trkpt>
      <trkpt lat="45.6847" lon="-0.25799">
        <ele>39.65625</ele>
        <time>2018-04-18T12:24:13Z</time>
      </trkpt>
      <trkpt lat="45.68429" lon="-0.25771">
        <ele>40.6953125</ele>
        <time>2018-04-18T12:24:17Z</time>
      </trkpt>
      <trkpt lat="45.68406" lon="-0.25756">
        <ele>41.16796875</ele>
        <time>2018-04-18T12:24:18Z</time>
      </trkpt>
      <trkpt lat="45.68379" lon="-0.25737">
        <ele>41.234375</ele>
        <time>2018-04-18T12:24:29Z</time>
      </trkpt>
      <trkpt lat="45.68369" lon="-0.25731">
        <ele>40.92578125</ele>
        <time>2018-04-18T12:24:38Z</time>
      </trkpt>
      <trkpt lat="45.68336" lon="-0.2571">
        <ele>40.203125</ele>
        <time>2018-04-18T12:24:42Z</time>
      </trkpt>
      <trkpt lat="45.68308" lon="-0.25692">
        <ele>38.53125</ele>
        <time>2018-04-18T12:24:52Z</time>
      </trkpt>
      <trkpt lat="45.68293" lon="-0.25683">
        <ele>37.30859375</ele>
        <time>2018-04-18T12:24:56Z</time>
      </trkpt>
      <trkpt lat="45.6829" lon="-0.25684">
        <ele>36.98046875</ele>
        <time>2018-04-18T12:24:57Z</time>
      </trkpt>
      <trkpt lat="45.6828" lon="-0.25668">
        <ele>36.4375</ele>
        <time>2018-04-18T12:24:58Z</time>
      </trkpt>
      <trkpt lat="45.68262" lon="-0.25634">
        <ele>34.703125</ele>
        <time>2018-04-18T12:24:59Z</time>
      </trkpt>
      <trkpt lat="45.68245" lon="-0.25597">
        <ele>33.00390625</ele>
        <time>2018-04-18T12:25:00Z</time>
      </trkpt>
      <trkpt lat="45.68238" lon="-0.2558">
        <ele>32.1015625</ele>
        <time>2018-04-18T12:25:01Z</time>
      </trkpt>
      <trkpt lat="45.68257" lon="-0.25567">
        <ele>34.57421875</ele>
        <time>2018-04-18T12:25:15Z</time>
      </trkpt>
      <trkpt lat="45.6829" lon="-0.25544">
        <ele>37.38671875</ele>
        <time>2018-04-18T12:25:25Z</time>
      </trkpt>
      <trkpt lat="45.68294" lon="-0.25542">
        <ele>37.609375</ele>
        <time>2018-04-18T12:25:26Z</time>
      </trkpt>
      <trkpt lat="45.68326" lon="-0.25521">
        <ele>39.53515625</ele>
        <time>2018-04-18T12:25:35Z</time>
      </trkpt>
      <trkpt lat="45.6836" lon="-0.25501">
        <ele>41.19140625</ele>
        <time>2018-04-18T12:25:45Z</time>
      </trkpt>
      <trkpt lat="45.68371" lon="-0.25497">
        <ele>41.7265625</ele>
        <time>2018-04-18T12:25:48Z</time>
      </trkpt>
      <trkpt lat="45.68396" lon="-0.25501">
        <ele>43.203125</ele>
        <time>2018-04-18T12:25:56Z</time>
      </trkpt>
      <trkpt lat="45.6842" lon="-0.255">
        <ele>44.3515625</ele>
        <time>2018-04-18T12:26:04Z</time>
      </trkpt>
      <trkpt lat="45.68438" lon="-0.25494">
        <ele>45.109375</ele>
        <time>2018-04-18T12:26:10Z</time>
      </trkpt>
      <trkpt lat="45.68472" lon="-0.25483">
        <ele>45.5703125</ele>
        <time>2018-04-18T12:26:21Z</time>
      </trkpt>
      <trkpt lat="45.68508" lon="-0.25474">
        <ele>46.05078125</ele>
        <time>2018-04-18T12:26:31Z</time>
      </trkpt>
      <trkpt lat="45.68542" lon="-0.25456">
        <ele>46.34375</ele>
        <time>2018-04-18T12:26:41Z</time>
      </trkpt>
      <trkpt lat="45.68573" lon="-0.25436">
        <ele>46.1171875</ele>
        <time>2018-04-18T12:26:50Z</time>
      </trkpt>
      <trkpt lat="45.68607" lon="-0.25411">
        <ele>45.67578125</ele>
        <time>2018-04-18T12:26:59Z</time>
      </trkpt>
      <trkpt lat="45.68647" lon="-0.2538">
        <ele>45.11328125</ele>
        <time>2018-04-18T12:27:09Z</time>
      </trkpt>
      <trkpt lat="45.68669" lon="-0.25364">
        <ele>44.39453125</ele>
        <time>2018-04-18T12:27:14Z</time>
      </trkpt>
      <trkpt lat="45.68688" lon="-0.25349">
        <ele>43.1640625</ele>
        <time>2018-04-18T12:27:19Z</time>
      </trkpt>
      <trkpt lat="45.68696" lon="-0.25344">
        <ele>42.6796875</ele>
        <time>2018-04-18T12:27:21Z</time>
      </trkpt>
      <trkpt lat="45.687" lon="-0.25341">
        <ele>42.43359375</ele>
        <time>2018-04-18T12:27:22Z</time>
      </trkpt>
      <trkpt lat="45.68704" lon="-0.25339">
        <ele>42.1796875</ele>
        <time>2018-04-18T12:27:23Z</time>
      </trkpt>
      <trkpt lat="45.68709" lon="-0.25336">
        <ele>41.92578125</ele>
        <time>2018-04-18T12:27:24Z</time>
      </trkpt>
      <trkpt lat="45.68713" lon="-0.25333">
        <ele>41.6640625</ele>
        <time>2018-04-18T12:27:25Z</time>
      </trkpt>
      <trkpt lat="45.68718" lon="-0.2533">
        <ele>41.390625</ele>
        <time>2018-04-18T12:27:26Z</time>
      </trkpt>
      <trkpt lat="45.6874" lon="-0.25316">
        <ele>40.51953125</ele>
        <time>2018-04-18T12:27:30Z</time>
      </trkpt>
      <trkpt lat="45.68747" lon="-0.25315">
        <ele>40.36328125</ele>
        <time>2018-04-18T12:27:31Z</time>
      </trkpt>
      <trkpt lat="45.68773" lon="-0.25312">
        <ele>39.9140625</ele>
        <time>2018-04-18T12:27:35Z</time>
      </trkpt>
      <trkpt lat="45.68819" lon="-0.25312">
        <ele>40.7421875</ele>
        <time>2018-04-18T12:27:43Z</time>
      </trkpt>
      <trkpt lat="45.6886" lon="-0.25311">
        <ele>41.53515625</ele>
        <time>2018-04-18T12:27:51Z</time>
      </trkpt>
      <trkpt lat="45.68872" lon="-0.25311">
        <ele>41.77734375</ele>
        <time>2018-04-18T12:27:54Z</time>
      </trkpt>
      <trkpt lat="45.68893" lon="-0.2531">
        <ele>41.65625</ele>
        <time>2018-04-18T12:28:00Z</time>
      </trkpt>
      <trkpt lat="45.68906" lon="-0.25312">
        <ele>41.2265625</ele>
        <time>2018-04-18T12:28:05Z</time>
      </trkpt>
      <trkpt lat="45.68926" lon="-0.25331">
        <ele>40.46484375</ele>
        <time>2018-04-18T12:28:12Z</time>
      </trkpt>
      <trkpt lat="45.6895" lon="-0.25354">
        <ele>39.5859375</ele>
        <time>2018-04-18T12:28:19Z</time>
      </trkpt>
      <trkpt lat="45.68962" lon="-0.25358">
        <ele>39.13671875</ele>
        <time>2018-04-18T12:28:22Z</time>
      </trkpt>
      <trkpt lat="45.68967" lon="-0.25356">
        <ele>38.96484375</ele>
        <time>2018-04-18T12:28:23Z</time>
      </trkpt>
      <trkpt lat="45.68972" lon="-0.25353">
        <ele>38.78515625</ele>
        <time>2018-04-18T12:28:24Z</time>
      </trkpt>
      <trkpt lat="45.68977" lon="-0.25349">
        <ele>38.61328125</ele>
        <time>2018-04-18T12:28:25Z</time>
      </trkpt>
      <trkpt lat="45.68981" lon="-0.25345">
        <ele>38.4765625</ele>
        <time>2018-04-18T12:28:26Z</time>
      </trkpt>
      <trkpt lat="45.68989" lon="-0.25336">
        <ele>38.1875</ele>
        <time>2018-04-18T12:28:28Z</time>
      </trkpt>
      <trkpt lat="45.69016" lon="-0.25313">
        <ele>37.85546875</ele>
        <time>2018-04-18T12:28:33Z</time>
      </trkpt>
      <trkpt lat="45.69038" lon="-0.25299">
        <ele>38.234375</ele>
        <time>2018-04-18T12:28:37Z</time>
      </trkpt>
      <trkpt lat="45.69042" lon="-0.25294">
        <ele>38.40625</ele>
        <time>2018-04-18T12:28:38Z</time>
      </trkpt>
      <trkpt lat="45.69049" lon="-0.25286">
        <ele>38.72265625</ele>
        <time>2018-04-18T12:28:40Z</time>
      </trkpt>
      <trkpt lat="45.69054" lon="-0.25283">
        <ele>38.75</ele>
        <time>2018-04-18T12:28:41Z</time>
      </trkpt>
      <trkpt lat="45.69078" lon="-0.25272">
        <ele>38.55859375</ele>
        <time>2018-04-18T12:28:47Z</time>
      </trkpt>
      <trkpt lat="45.69107" lon="-0.25251">
        <ele>38.11328125</ele>
        <time>2018-04-18T12:28:54Z</time>
      </trkpt>
      <trkpt lat="45.69114" lon="-0.25244">
        <ele>37.79296875</ele>
        <time>2018-04-18T12:28:56Z</time>
      </trkpt>
      <trkpt lat="45.69125" lon="-0.25232">
        <ele>37.265625</ele>
        <time>2018-04-18T12:28:59Z</time>
      </trkpt>
      <trkpt lat="45.6914" lon="-0.2521">
        <ele>36.4375</ele>
        <time>2018-04-18T12:29:03Z</time>
      </trkpt>
      <trkpt lat="45.69154" lon="-0.25184">
        <ele>35.91015625</ele>
        <time>2018-04-18T12:29:07Z</time>
      </trkpt>
      <trkpt lat="45.69182" lon="-0.25143">
        <ele>34.078125</ele>
        <time>2018-04-18T12:29:14Z</time>
      </trkpt>
      <trkpt lat="45.692" lon="-0.25123">
        <ele>32.48828125</ele>
        <time>2018-04-18T12:29:17Z</time>
      </trkpt>
      <trkpt lat="45.69221" lon="-0.25099">
        <ele>30.67578125</ele>
        <time>2018-04-18T12:29:20Z</time>
      </trkpt>
      <trkpt lat="45.69236" lon="-0.25083">
        <ele>29.5859375</ele>
        <time>2018-04-18T12:29:22Z</time>
      </trkpt>
      <trkpt lat="45.6925" lon="-0.25067">
        <ele>28.53125</ele>
        <time>2018-04-18T12:29:24Z</time>
      </trkpt>
      <trkpt lat="45.69283" lon="-0.25027">
        <ele>26.421875</ele>
        <time>2018-04-18T12:29:29Z</time>
      </trkpt>
      <trkpt lat="45.69287" lon="-0.25019">
        <ele>26.2890625</ele>
        <time>2018-04-18T12:29:30Z</time>
      </trkpt>
      <trkpt lat="45.69288" lon="-0.25011">
        <ele>26.28125</ele>
        <time>2018-04-18T12:29:31Z</time>
      </trkpt>
      <trkpt lat="45.69287" lon="-0.25002">
        <ele>26.3515625</ele>
        <time>2018-04-18T12:29:32Z</time>
      </trkpt>
      <trkpt lat="45.69285" lon="-0.24993">
        <ele>26.47265625</ele>
        <time>2018-04-18T12:29:33Z</time>
      </trkpt>
      <trkpt lat="45.69282" lon="-0.24986">
        <ele>26.6171875</ele>
        <time>2018-04-18T12:29:34Z</time>
      </trkpt>
      <trkpt lat="45.69279" lon="-0.24978">
        <ele>26.8671875</ele>
        <time>2018-04-18T12:29:35Z</time>
      </trkpt>
      <trkpt lat="45.69275" lon="-0.24971">
        <ele>27.13671875</ele>
        <time>2018-04-18T12:29:36Z</time>
      </trkpt>
      <trkpt lat="45.69252" lon="-0.2492">
        <ele>28.703125</ele>
        <time>2018-04-18T12:29:43Z</time>
      </trkpt>
      <trkpt lat="45.69232" lon="-0.24876">
        <ele>29.4453125</ele>
        <time>2018-04-18T12:29:50Z</time>
      </trkpt>
      <trkpt lat="45.69203" lon="-0.24821">
        <ele>29.52734375</ele>
        <time>2018-04-18T12:30:00Z</time>
      </trkpt>
      <trkpt lat="45.69174" lon="-0.24774">
        <ele>29.7265625</ele>
        <time>2018-04-18T12:30:09Z</time>
      </trkpt>
      <trkpt lat="45.69145" lon="-0.24726">
        <ele>30.26171875</ele>
        <time>2018-04-18T12:30:18Z</time>
      </trkpt>
      <trkpt lat="45.69117" lon="-0.2468">
        <ele>31.453125</ele>
        <time>2018-04-18T12:30:27Z</time>
      </trkpt>
      <trkpt lat="45.69101" lon="-0.24655">
        <ele>32.13671875</ele>
        <time>2018-04-18T12:30:32Z</time>
      </trkpt>
      <trkpt lat="45.69082" lon="-0.24627">
        <ele>32.6484375</ele>
        <time>2018-04-18T12:30:38Z</time>
      </trkpt>
      <trkpt lat="45.6905" lon="-0.24579">
        <ele>32.99609375</ele>
        <time>2018-04-18T12:30:48Z</time>
      </trkpt>
      <trkpt lat="45.69019" lon="-0.24538">
        <ele>33</ele>
        <time>2018-04-18T12:30:57Z</time>
      </trkpt>
      <trkpt lat="45.69011" lon="-0.2453">
        <ele>33</ele>
        <time>2018-04-18T12:30:59Z</time>
      </trkpt>
      <trkpt lat="45.68998" lon="-0.24522">
        <ele>33</ele>
        <time>2018-04-18T12:31:02Z</time>
      </trkpt>
      <trkpt lat="45.68993" lon="-0.2452">
        <ele>33.0390625</ele>
        <time>2018-04-18T12:31:03Z</time>
      </trkpt>
      <trkpt lat="45.68988" lon="-0.24518">
        <ele>33.1875</ele>
        <time>2018-04-18T12:31:04Z</time>
      </trkpt>
      <trkpt lat="45.68974" lon="-0.24513">
        <ele>33.5546875</ele>
        <time>2018-04-18T12:31:07Z</time>
      </trkpt>
      <trkpt lat="45.68969" lon="-0.24511">
        <ele>33.625</ele>
        <time>2018-04-18T12:31:08Z</time>
      </trkpt>
      <trkpt lat="45.68935" lon="-0.24488">
        <ele>33.296875</ele>
        <time>2018-04-18T12:31:15Z</time>
      </trkpt>
      <trkpt lat="45.68899" lon="-0.24455">
        <ele>33.81640625</ele>
        <time>2018-04-18T12:31:24Z</time>
      </trkpt>
      <trkpt lat="45.6887" lon="-0.24424">
        <ele>33.76953125</ele>
        <time>2018-04-18T12:31:32Z</time>
      </trkpt>
      <trkpt lat="45.68833" lon="-0.24407">
        <ele>35.421875</ele>
        <time>2018-04-18T12:31:41Z</time>
      </trkpt>
      <trkpt lat="45.68793" lon="-0.2439">
        <ele>36.7421875</ele>
        <time>2018-04-18T12:31:51Z</time>
      </trkpt>
      <trkpt lat="45.68766" lon="-0.24374">
        <ele>37.32421875</ele>
        <time>2018-04-18T12:31:58Z</time>
      </trkpt>
      <trkpt lat="45.68731" lon="-0.24346">
        <ele>37.30859375</ele>
        <time>2018-04-18T12:32:07Z</time>
      </trkpt>
      <trkpt lat="45.68699" lon="-0.24325">
        <ele>37.28515625</ele>
        <time>2018-04-18T12:32:15Z</time>
      </trkpt>
      <trkpt lat="45.68674" lon="-0.24321">
        <ele>38.37890625</ele>
        <time>2018-04-18T12:32:22Z</time>
      </trkpt>
      <trkpt lat="45.68652" lon="-0.24315">
        <ele>38.9453125</ele>
        <time>2018-04-18T12:32:29Z</time>
      </trkpt>
      <trkpt lat="45.68628" lon="-0.24296">
        <ele>38.41015625</ele>
        <time>2018-04-18T12:32:37Z</time>
      </trkpt>
      <trkpt lat="45.68612" lon="-0.24254">
        <ele>37.18359375</ele>
        <time>2018-04-18T12:32:45Z</time>
      </trkpt>
      <trkpt lat="45.68607" lon="-0.24243">
        <ele>36.7890625</ele>
        <time>2018-04-18T12:32:47Z</time>
      </trkpt>
      <trkpt lat="45.68605" lon="-0.24237">
        <ele>36.62109375</ele>
        <time>2018-04-18T12:32:48Z</time>
      </trkpt>
      <trkpt lat="45.68587" lon="-0.24192">
        <ele>36.08984375</ele>
        <time>2018-04-18T12:32:56Z</time>
      </trkpt>
      <trkpt lat="45.68578" lon="-0.24177">
        <ele>36.328125</ele>
        <time>2018-04-18T12:32:59Z</time>
      </trkpt>
      <trkpt lat="45.68568" lon="-0.24159">
        <ele>36.5703125</ele>
        <time>2018-04-18T12:33:02Z</time>
      </trkpt>
      <trkpt lat="45.68562" lon="-0.24146">
        <ele>36.59375</ele>
        <time>2018-04-18T12:33:04Z</time>
      </trkpt>
      <trkpt lat="45.68558" lon="-0.24139">
        <ele>36.51953125</ele>
        <time>2018-04-18T12:33:05Z</time>
      </trkpt>
      <trkpt lat="45.68546" lon="-0.24113">
        <ele>36.26953125</ele>
        <time>2018-04-18T12:33:09Z</time>
      </trkpt>
      <trkpt lat="45.68543" lon="-0.24106">
        <ele>36.1484375</ele>
        <time>2018-04-18T12:33:10Z</time>
      </trkpt>
      <trkpt lat="45.68523" lon="-0.24069">
        <ele>35.6796875</ele>
        <time>2018-04-18T12:33:17Z</time>
      </trkpt>
      <trkpt lat="45.6852" lon="-0.24065">
        <ele>35.71875</ele>
        <time>2018-04-18T12:33:18Z</time>
      </trkpt>
      <trkpt lat="45.68517" lon="-0.24061">
        <ele>35.796875</ele>
        <time>2018-04-18T12:33:19Z</time>
      </trkpt>
      <trkpt lat="45.68514" lon="-0.24058">
        <ele>35.890625</ele>
        <time>2018-04-18T12:33:20Z</time>
      </trkpt>
      <trkpt lat="45.68511" lon="-0.24054">
        <ele>36.02734375</ele>
        <time>2018-04-18T12:33:21Z</time>
      </trkpt>
      <trkpt lat="45.68507" lon="-0.24052">
        <ele>36.23828125</ele>
        <time>2018-04-18T12:33:22Z</time>
      </trkpt>
      <trkpt lat="45.68492" lon="-0.24042">
        <ele>37.3515625</ele>
        <time>2018-04-18T12:33:26Z</time>
      </trkpt>
      <trkpt lat="45.68489" lon="-0.24039">
        <ele>37.64453125</ele>
        <time>2018-04-18T12:33:27Z</time>
      </trkpt>
      <trkpt lat="45.68469" lon="-0.24024">
        <ele>39.734375</ele>
        <time>2018-04-18T12:33:34Z</time>
      </trkpt>
      <trkpt lat="45.68451" lon="-0.24001">
        <ele>41.5625</ele>
        <time>2018-04-18T12:33:42Z</time>
      </trkpt>
      <trkpt lat="45.68442" lon="-0.23985">
        <ele>42.51171875</ele>
        <time>2018-04-18T12:33:47Z</time>
      </trkpt>
      <trkpt lat="45.68433" lon="-0.2397">
        <ele>42.890625</ele>
        <time>2018-04-18T12:33:51Z</time>
      </trkpt>
      <trkpt lat="45.68421" lon="-0.23938">
        <ele>43.16796875</ele>
        <time>2018-04-18T12:33:59Z</time>
      </trkpt>
      <trkpt lat="45.68404" lon="-0.23902">
        <ele>44.05078125</ele>
        <time>2018-04-18T12:34:07Z</time>
      </trkpt>
      <trkpt lat="45.68387" lon="-0.2387">
        <ele>45.453125</ele>
        <time>2018-04-18T12:34:14Z</time>
      </trkpt>
      <trkpt lat="45.68367" lon="-0.23824">
        <ele>45.63671875</ele>
        <time>2018-04-18T12:34:23Z</time>
      </trkpt>
      <trkpt lat="45.68343" lon="-0.23764">
        <ele>45.44921875</ele>
        <time>2018-04-18T12:34:35Z</time>
      </trkpt>
      <trkpt lat="45.68337" lon="-0.23735">
        <ele>45.234375</ele>
        <time>2018-04-18T12:34:41Z</time>
      </trkpt>
      <trkpt lat="45.68335" lon="-0.23731">
        <ele>45.2421875</ele>
        <time>2018-04-18T12:34:42Z</time>
      </trkpt>
      <trkpt lat="45.68315" lon="-0.23711">
        <ele>44.8203125</ele>
        <time>2018-04-18T12:34:48Z</time>
      </trkpt>
      <trkpt lat="45.68291" lon="-0.2369">
        <ele>44.01953125</ele>
        <time>2018-04-18T12:34:54Z</time>
      </trkpt>
      <trkpt lat="45.6826" lon="-0.23666">
        <ele>42.8125</ele>
        <time>2018-04-18T12:35:02Z</time>
      </trkpt>
      <trkpt lat="45.68256" lon="-0.23662">
        <ele>42.6015625</ele>
        <time>2018-04-18T12:35:03Z</time>
      </trkpt>
      <trkpt lat="45.68252" lon="-0.23659">
        <ele>42.37890625</ele>
        <time>2018-04-18T12:35:04Z</time>
      </trkpt>
      <trkpt lat="45.68243" lon="-0.2365">
        <ele>41.9453125</ele>
        <time>2018-04-18T12:35:06Z</time>
      </trkpt>
      <trkpt lat="45.68235" lon="-0.23643">
        <ele>41.60546875</ele>
        <time>2018-04-18T12:35:08Z</time>
      </trkpt>
      <trkpt lat="45.68231" lon="-0.23639">
        <ele>41.453125</ele>
        <time>2018-04-18T12:35:09Z</time>
      </trkpt>
      <trkpt lat="45.6822" lon="-0.23623">
        <ele>41.078125</ele>
        <time>2018-04-18T12:35:12Z</time>
      </trkpt>
      <trkpt lat="45.68196" lon="-0.23588">
        <ele>39.68359375</ele>
        <time>2018-04-18T12:35:19Z</time>
      </trkpt>
      <trkpt lat="45.68194" lon="-0.23582">
        <ele>39.4375</ele>
        <time>2018-04-18T12:35:20Z</time>
      </trkpt>
      <trkpt lat="45.68191" lon="-0.23576">
        <ele>39.21875</ele>
        <time>2018-04-18T12:35:21Z</time>
      </trkpt>
      <trkpt lat="45.68173" lon="-0.23513">
        <ele>37.58984375</ele>
        <time>2018-04-18T12:35:31Z</time>
      </trkpt>
      <trkpt lat="45.68156" lon="-0.23454">
        <ele>36.390625</ele>
        <time>2018-04-18T12:35:40Z</time>
      </trkpt>
      <trkpt lat="45.68145" lon="-0.23395">
        <ele>35.734375</ele>
        <time>2018-04-18T12:35:49Z</time>
      </trkpt>
      <trkpt lat="45.68139" lon="-0.2334">
        <ele>35.1875</ele>
        <time>2018-04-18T12:35:58Z</time>
      </trkpt>
      <trkpt lat="45.68138" lon="-0.23335">
        <ele>35.1015625</ele>
        <time>2018-04-18T12:35:59Z</time>
      </trkpt>
      <trkpt lat="45.68138" lon="-0.23329">
        <ele>35.015625</ele>
        <time>2018-04-18T12:36:00Z</time>
      </trkpt>
      <trkpt lat="45.68138" lon="-0.23323">
        <ele>34.92578125</ele>
        <time>2018-04-18T12:36:01Z</time>
      </trkpt>
      <trkpt lat="45.68137" lon="-0.23318">
        <ele>34.8359375</ele>
        <time>2018-04-18T12:36:02Z</time>
      </trkpt>
      <trkpt lat="45.68137" lon="-0.23313">
        <ele>34.74609375</ele>
        <time>2018-04-18T12:36:03Z</time>
      </trkpt>
      <trkpt lat="45.68137" lon="-0.23307">
        <ele>34.671875</ele>
        <time>2018-04-18T12:36:04Z</time>
      </trkpt>
      <trkpt lat="45.68136" lon="-0.23302">
        <ele>34.6015625</ele>
        <time>2018-04-18T12:36:05Z</time>
      </trkpt>
      <trkpt lat="45.68133" lon="-0.23293">
        <ele>34.55078125</ele>
        <time>2018-04-18T12:36:07Z</time>
      </trkpt>
      <trkpt lat="45.6813" lon="-0.23291">
        <ele>34.62109375</ele>
        <time>2018-04-18T12:36:08Z</time>
      </trkpt>
      <trkpt lat="45.68126" lon="-0.23291">
        <ele>34.74609375</ele>
        <time>2018-04-18T12:36:09Z</time>
      </trkpt>
      <trkpt lat="45.68121" lon="-0.23292">
        <ele>34.97265625</ele>
        <time>2018-04-18T12:36:11Z</time>
      </trkpt>
      <trkpt lat="45.68094" lon="-0.23302">
        <ele>35.62890625</ele>
        <time>2018-04-18T12:36:18Z</time>
      </trkpt>
      <trkpt lat="45.68075" lon="-0.23313">
        <ele>35.828125</ele>
        <time>2018-04-18T12:36:23Z</time>
      </trkpt>
      <trkpt lat="45.6807" lon="-0.23316">
        <ele>35.91015625</ele>
        <time>2018-04-18T12:36:24Z</time>
      </trkpt>
      <trkpt lat="45.68033" lon="-0.23344">
        <ele>35.3671875</ele>
        <time>2018-04-18T12:36:33Z</time>
      </trkpt>
      <trkpt lat="45.68006" lon="-0.23357">
        <ele>34.41015625</ele>
        <time>2018-04-18T12:36:38Z</time>
      </trkpt>
      <trkpt lat="45.67965" lon="-0.2336">
        <ele>32.9453125</ele>
        <time>2018-04-18T12:36:45Z</time>
      </trkpt>
      <trkpt lat="45.6796" lon="-0.23358">
        <ele>32.73828125</ele>
        <time>2018-04-18T12:36:46Z</time>
      </trkpt>
      <trkpt lat="45.67954" lon="-0.23356">
        <ele>32.5390625</ele>
        <time>2018-04-18T12:36:47Z</time>
      </trkpt>
      <trkpt lat="45.67949" lon="-0.23353">
        <ele>32.3515625</ele>
        <time>2018-04-18T12:36:48Z</time>
      </trkpt>
      <trkpt lat="45.67944" lon="-0.23349">
        <ele>32.1640625</ele>
        <time>2018-04-18T12:36:49Z</time>
      </trkpt>
      <trkpt lat="45.67938" lon="-0.23345">
        <ele>31.98828125</ele>
        <time>2018-04-18T12:36:50Z</time>
      </trkpt>
      <trkpt lat="45.67934" lon="-0.23341">
        <ele>31.8984375</ele>
        <time>2018-04-18T12:36:51Z</time>
      </trkpt>
      <trkpt lat="45.67915" lon="-0.23328">
        <ele>31.5625</ele>
        <time>2018-04-18T12:36:55Z</time>
      </trkpt>
      <trkpt lat="45.67893" lon="-0.23307">
        <ele>31.12890625</ele>
        <time>2018-04-18T12:37:00Z</time>
      </trkpt>
      <trkpt lat="45.67889" lon="-0.23301">
        <ele>31.06640625</ele>
        <time>2018-04-18T12:37:01Z</time>
      </trkpt>
      <trkpt lat="45.67876" lon="-0.23279">
        <ele>31</ele>
        <time>2018-04-18T12:37:05Z</time>
      </trkpt>
      <trkpt lat="45.67873" lon="-0.23273">
        <ele>31</ele>
        <time>2018-04-18T12:37:06Z</time>
      </trkpt>
      <trkpt lat="45.67846" lon="-0.23228">
        <ele>30.7890625</ele>
        <time>2018-04-18T12:37:15Z</time>
      </trkpt>
      <trkpt lat="45.6782" lon="-0.23182">
        <ele>30.85546875</ele>
        <time>2018-04-18T12:37:23Z</time>
      </trkpt>
      <trkpt lat="45.67809" lon="-0.23157">
        <ele>30.6484375</ele>
        <time>2018-04-18T12:37:27Z</time>
      </trkpt>
      <trkpt lat="45.67808" lon="-0.2315">
        <ele>30.66015625</ele>
        <time>2018-04-18T12:37:28Z</time>
      </trkpt>
      <trkpt lat="45.6781" lon="-0.23145">
        <ele>30.7265625</ele>
        <time>2018-04-18T12:37:29Z</time>
      </trkpt>
      <trkpt lat="45.67831" lon="-0.23113">
        <ele>30.90625</ele>
        <time>2018-04-18T12:37:36Z</time>
      </trkpt>
      <trkpt lat="45.67833" lon="-0.23108">
        <ele>30.8515625</ele>
        <time>2018-04-18T12:37:37Z</time>
      </trkpt>
      <trkpt lat="45.67833" lon="-0.23102">
        <ele>30.84765625</ele>
        <time>2018-04-18T12:37:38Z</time>
      </trkpt>
      <trkpt lat="45.67831" lon="-0.23097">
        <ele>30.8984375</ele>
        <time>2018-04-18T12:37:39Z</time>
      </trkpt>
      <trkpt lat="45.67829" lon="-0.23092">
        <ele>30.7109375</ele>
        <time>2018-04-18T12:37:40Z</time>
      </trkpt>
      <trkpt lat="45.67827" lon="-0.23087">
        <ele>30.4765625</ele>
        <time>2018-04-18T12:37:41Z</time>
      </trkpt>
      <trkpt lat="45.67825" lon="-0.23082">
        <ele>30.2265625</ele>
        <time>2018-04-18T12:37:42Z</time>
      </trkpt>
      <trkpt lat="45.67824" lon="-0.23076">
        <ele>29.98046875</ele>
        <time>2018-04-18T12:37:43Z</time>
      </trkpt>
      <trkpt lat="45.67819" lon="-0.23038">
        <ele>28.62109375</ele>
        <time>2018-04-18T12:37:49Z</time>
      </trkpt>
      <trkpt lat="45.67817" lon="-0.23032">
        <ele>28.62109375</ele>
        <time>2018-04-18T12:37:50Z</time>
      </trkpt>
      <trkpt lat="45.67812" lon="-0.23015">
        <ele>28.83203125</ele>
        <time>2018-04-18T12:37:53Z</time>
      </trkpt>
      <trkpt lat="45.67809" lon="-0.2301">
        <ele>28.95703125</ele>
        <time>2018-04-18T12:37:54Z</time>
      </trkpt>
      <trkpt lat="45.67807" lon="-0.23005">
        <ele>29.0703125</ele>
        <time>2018-04-18T12:37:55Z</time>
      </trkpt>
      <trkpt lat="45.67803" lon="-0.22994">
        <ele>29.29296875</ele>
        <time>2018-04-18T12:37:57Z</time>
      </trkpt>
      <trkpt lat="45.67801" lon="-0.22978">
        <ele>29.3828125</ele>
        <time>2018-04-18T12:38:00Z</time>
      </trkpt>
      <trkpt lat="45.678" lon="-0.22966">
        <ele>29.37109375</ele>
        <time>2018-04-18T12:38:02Z</time>
      </trkpt>
      <trkpt lat="45.678" lon="-0.2296">
        <ele>29.32421875</ele>
        <time>2018-04-18T12:38:03Z</time>
      </trkpt>
      <trkpt lat="45.67796" lon="-0.22893">
        <ele>27.421875</ele>
        <time>2018-04-18T12:38:14Z</time>
      </trkpt>
      <trkpt lat="45.67794" lon="-0.22867">
        <ele>26.2421875</ele>
        <time>2018-04-18T12:38:18Z</time>
      </trkpt>
      <trkpt lat="45.67791" lon="-0.22847">
        <ele>25.46875</ele>
        <time>2018-04-18T12:38:21Z</time>
      </trkpt>
      <trkpt lat="45.67789" lon="-0.22841">
        <ele>25.33203125</ele>
        <time>2018-04-18T12:38:22Z</time>
      </trkpt>
      <trkpt lat="45.67787" lon="-0.22835">
        <ele>25.296875</ele>
        <time>2018-04-18T12:38:23Z</time>
      </trkpt>
      <trkpt lat="45.67783" lon="-0.2283">
        <ele>25.3671875</ele>
        <time>2018-04-18T12:38:24Z</time>
      </trkpt>
      <trkpt lat="45.6778" lon="-0.22825">
        <ele>25.48828125</ele>
        <time>2018-04-18T12:38:25Z</time>
      </trkpt>
      <trkpt lat="45.67777" lon="-0.22819">
        <ele>25.50390625</ele>
        <time>2018-04-18T12:38:26Z</time>
      </trkpt>
      <trkpt lat="45.67776" lon="-0.22813">
        <ele>25.12890625</ele>
        <time>2018-04-18T12:38:27Z</time>
      </trkpt>
      <trkpt lat="45.67778" lon="-0.22806">
        <ele>24.4296875</ele>
        <time>2018-04-18T12:38:28Z</time>
      </trkpt>
      <trkpt lat="45.67783" lon="-0.22802">
        <ele>23.72265625</ele>
        <time>2018-04-18T12:38:29Z</time>
      </trkpt>
      <trkpt lat="45.67788" lon="-0.228">
        <ele>23.02734375</ele>
        <time>2018-04-18T12:38:30Z</time>
      </trkpt>
      <trkpt lat="45.67793" lon="-0.22796">
        <ele>22.2109375</ele>
        <time>2018-04-18T12:38:31Z</time>
      </trkpt>
      <trkpt lat="45.67799" lon="-0.22791">
        <ele>21.32421875</ele>
        <time>2018-04-18T12:38:32Z</time>
      </trkpt>
      <trkpt lat="45.67803" lon="-0.22784">
        <ele>20.48046875</ele>
        <time>2018-04-18T12:38:33Z</time>
      </trkpt>
      <trkpt lat="45.67806" lon="-0.22775">
        <ele>19.6875</ele>
        <time>2018-04-18T12:38:34Z</time>
      </trkpt>
      <trkpt lat="45.67807" lon="-0.22766">
        <ele>19.00390625</ele>
        <time>2018-04-18T12:38:35Z</time>
      </trkpt>
      <trkpt lat="45.67806" lon="-0.22757">
        <ele>18.734375</ele>
        <time>2018-04-18T12:38:36Z</time>
      </trkpt>
      <trkpt lat="45.67804" lon="-0.22747">
        <ele>18.5703125</ele>
        <time>2018-04-18T12:38:37Z</time>
      </trkpt>
      <trkpt lat="45.67802" lon="-0.22738">
        <ele>18.421875</ele>
        <time>2018-04-18T12:38:38Z</time>
      </trkpt>
      <trkpt lat="45.6779" lon="-0.22678">
        <ele>16.55859375</ele>
        <time>2018-04-18T12:38:44Z</time>
      </trkpt>
      <trkpt lat="45.67788" lon="-0.22667">
        <ele>16.140625</ele>
        <time>2018-04-18T12:38:45Z</time>
      </trkpt>
      <trkpt lat="45.67782" lon="-0.22633">
        <ele>13.65625</ele>
        <time>2018-04-18T12:38:48Z</time>
      </trkpt>
      <trkpt lat="45.67773" lon="-0.22595">
        <ele>9.90234375</ele>
        <time>2018-04-18T12:38:52Z</time>
      </trkpt>
      <trkpt lat="45.67771" lon="-0.22586">
        <ele>9.69140625</ele>
        <time>2018-04-18T12:38:53Z</time>
      </trkpt>
      <trkpt lat="45.67768" lon="-0.22578">
        <ele>9.5078125</ele>
        <time>2018-04-18T12:38:54Z</time>
      </trkpt>
      <trkpt lat="45.67763" lon="-0.22571">
        <ele>9.38671875</ele>
        <time>2018-04-18T12:38:55Z</time>
      </trkpt>
      <trkpt lat="45.67758" lon="-0.22566">
        <ele>9.33984375</ele>
        <time>2018-04-18T12:38:56Z</time>
      </trkpt>
      <trkpt lat="45.67752" lon="-0.22562">
        <ele>9.328125</ele>
        <time>2018-04-18T12:38:57Z</time>
      </trkpt>
      <trkpt lat="45.67736" lon="-0.22551">
        <ele>9.18359375</ele>
        <time>2018-04-18T12:39:00Z</time>
      </trkpt>
      <trkpt lat="45.67718" lon="-0.22539">
        <ele>8.9296875</ele>
        <time>2018-04-18T12:39:03Z</time>
      </trkpt>
      <trkpt lat="45.67713" lon="-0.22533">
        <ele>8.90234375</ele>
        <time>2018-04-18T12:39:04Z</time>
      </trkpt>
      <trkpt lat="45.6771" lon="-0.22527">
        <ele>8.82421875</ele>
        <time>2018-04-18T12:39:05Z</time>
      </trkpt>
      <trkpt lat="45.67707" lon="-0.2252">
        <ele>8.70703125</ele>
        <time>2018-04-18T12:39:06Z</time>
      </trkpt>
      <trkpt lat="45.67705" lon="-0.22512">
        <ele>8.56640625</ele>
        <time>2018-04-18T12:39:07Z</time>
      </trkpt>
      <trkpt lat="45.67704" lon="-0.22505">
        <ele>8.40625</ele>
        <time>2018-04-18T12:39:08Z</time>
      </trkpt>
      <trkpt lat="45.67692" lon="-0.22469">
        <ele>8</ele>
        <time>2018-04-18T12:39:13Z</time>
      </trkpt>
      <trkpt lat="45.67688" lon="-0.22464">
        <ele>8</ele>
        <time>2018-04-18T12:39:14Z</time>
      </trkpt>
      <trkpt lat="45.67684" lon="-0.2246">
        <ele>8</ele>
        <time>2018-04-18T12:39:15Z</time>
      </trkpt>
      <trkpt lat="45.67679" lon="-0.22456">
        <ele>8</ele>
        <time>2018-04-18T12:39:16Z</time>
      </trkpt>
      <trkpt lat="45.67674" lon="-0.22453">
        <ele>8</ele>
        <time>2018-04-18T12:39:17Z</time>
      </trkpt>
      <trkpt lat="45.6767" lon="-0.2245">
        <ele>8</ele>
        <time>2018-04-18T12:39:18Z</time>
      </trkpt>
      <trkpt lat="45.67665" lon="-0.22447">
        <ele>8</ele>
        <time>2018-04-18T12:39:19Z</time>
      </trkpt>
      <trkpt lat="45.67623" lon="-0.2243">
        <ele>8</ele>
        <time>2018-04-18T12:39:27Z</time>
      </trkpt>
      <trkpt lat="45.67576" lon="-0.22418">
        <ele>8</ele>
        <time>2018-04-18T12:39:36Z</time>
      </trkpt>
      <trkpt lat="45.67561" lon="-0.22415">
        <ele>8</ele>
        <time>2018-04-18T12:39:39Z</time>
      </trkpt>
      <trkpt lat="45.67537" lon="-0.22402">
        <ele>8</ele>
        <time>2018-04-18T12:39:45Z</time>
      </trkpt>
      <trkpt lat="45.67534" lon="-0.22398">
        <ele>8</ele>
        <time>2018-04-18T12:39:46Z</time>
      </trkpt>
      <trkpt lat="45.6753" lon="-0.22395">
        <ele>8</ele>
        <time>2018-04-18T12:39:47Z</time>
      </trkpt>
      <trkpt lat="45.67525" lon="-0.22393">
        <ele>8</ele>
        <time>2018-04-18T12:39:48Z</time>
      </trkpt>
      <trkpt lat="45.6752" lon="-0.2239">
        <ele>8</ele>
        <time>2018-04-18T12:39:49Z</time>
      </trkpt>
      <trkpt lat="45.67504" lon="-0.22382">
        <ele>8</ele>
        <time>2018-04-18T12:39:52Z</time>
      </trkpt>
      <trkpt lat="45.675" lon="-0.22377">
        <ele>8</ele>
        <time>2018-04-18T12:39:53Z</time>
      </trkpt>
      <trkpt lat="45.67497" lon="-0.22371">
        <ele>8</ele>
        <time>2018-04-18T12:39:54Z</time>
      </trkpt>
      <trkpt lat="45.67496" lon="-0.22364">
        <ele>8</ele>
        <time>2018-04-18T12:39:55Z</time>
      </trkpt>
      <trkpt lat="45.67497" lon="-0.22356">
        <ele>8</ele>
        <time>2018-04-18T12:39:56Z</time>
      </trkpt>
      <trkpt lat="45.67498" lon="-0.22349">
        <ele>8</ele>
        <time>2018-04-18T12:39:57Z</time>
      </trkpt>
      <trkpt lat="45.67499" lon="-0.22342">
        <ele>8</ele>
        <time>2018-04-18T12:39:58Z</time>
      </trkpt>
      <trkpt lat="45.67501" lon="-0.2232">
        <ele>8</ele>
        <time>2018-04-18T12:40:01Z</time>
      </trkpt>
      <trkpt lat="45.67502" lon="-0.22313">
        <ele>8.015625</ele>
        <time>2018-04-18T12:40:02Z</time>
      </trkpt>
      <trkpt lat="45.67504" lon="-0.223">
        <ele>8.0546875</ele>
        <time>2018-04-18T12:40:04Z</time>
      </trkpt>
      <trkpt lat="45.67509" lon="-0.22271">
        <ele>8.22265625</ele>
        <time>2018-04-18T12:40:08Z</time>
      </trkpt>
      <trkpt lat="45.6751" lon="-0.22263">
        <ele>8.27734375</ele>
        <time>2018-04-18T12:40:09Z</time>
      </trkpt>
      <trkpt lat="45.67512" lon="-0.22255">
        <ele>8.3046875</ele>
        <time>2018-04-18T12:40:10Z</time>
      </trkpt>
      <trkpt lat="45.67514" lon="-0.22248">
        <ele>8.3359375</ele>
        <time>2018-04-18T12:40:11Z</time>
      </trkpt>
      <trkpt lat="45.67515" lon="-0.2224">
        <ele>8.37109375</ele>
        <time>2018-04-18T12:40:12Z</time>
      </trkpt>
      <trkpt lat="45.67517" lon="-0.22232">
        <ele>8.39453125</ele>
        <time>2018-04-18T12:40:13Z</time>
      </trkpt>
      <trkpt lat="45.67517" lon="-0.22224">
        <ele>8.40625</ele>
        <time>2018-04-18T12:40:14Z</time>
      </trkpt>
      <trkpt lat="45.67521" lon="-0.22201">
        <ele>8.546875</ele>
        <time>2018-04-18T12:40:17Z</time>
      </trkpt>
      <trkpt lat="45.67522" lon="-0.22193">
        <ele>8.63671875</ele>
        <time>2018-04-18T12:40:18Z</time>
      </trkpt>
      <trkpt lat="45.67523" lon="-0.22185">
        <ele>8.71484375</ele>
        <time>2018-04-18T12:40:19Z</time>
      </trkpt>
      <trkpt lat="45.67529" lon="-0.22137">
        <ele>9</ele>
        <time>2018-04-18T12:40:25Z</time>
      </trkpt>
      <trkpt lat="45.67532" lon="-0.22114">
        <ele>9</ele>
        <time>2018-04-18T12:40:28Z</time>
      </trkpt>
      <trkpt lat="45.67533" lon="-0.22107">
        <ele>9</ele>
        <time>2018-04-18T12:40:29Z</time>
      </trkpt>
      <trkpt lat="45.67534" lon="-0.221">
        <ele>9</ele>
        <time>2018-04-18T12:40:30Z</time>
      </trkpt>
      <trkpt lat="45.67539" lon="-0.22078">
        <ele>9</ele>
        <time>2018-04-18T12:40:33Z</time>
      </trkpt>
      <trkpt lat="45.67541" lon="-0.22072">
        <ele>9</ele>
        <time>2018-04-18T12:40:34Z</time>
      </trkpt>
      <trkpt lat="45.67544" lon="-0.22065">
        <ele>9</ele>
        <time>2018-04-18T12:40:35Z</time>
      </trkpt>
      <trkpt lat="45.67565" lon="-0.2201">
        <ele>9</ele>
        <time>2018-04-18T12:40:43Z</time>
      </trkpt>
      <trkpt lat="45.67581" lon="-0.21952">
        <ele>9</ele>
        <time>2018-04-18T12:40:51Z</time>
      </trkpt>
      <trkpt lat="45.67589" lon="-0.21882">
        <ele>9</ele>
        <time>2018-04-18T12:41:00Z</time>
      </trkpt>
      <trkpt lat="45.67589" lon="-0.21858">
        <ele>9</ele>
        <time>2018-04-18T12:41:03Z</time>
      </trkpt>
      <trkpt lat="45.67588" lon="-0.21835">
        <ele>9</ele>
        <time>2018-04-18T12:41:06Z</time>
      </trkpt>
      <trkpt lat="45.67592" lon="-0.21807">
        <ele>9.0625</ele>
        <time>2018-04-18T12:41:10Z</time>
      </trkpt>
      <trkpt lat="45.67602" lon="-0.21754">
        <ele>9.0703125</ele>
        <time>2018-04-18T12:41:17Z</time>
      </trkpt>
      <trkpt lat="45.67603" lon="-0.21747">
        <ele>9.046875</ele>
        <time>2018-04-18T12:41:18Z</time>
      </trkpt>
      <trkpt lat="45.67605" lon="-0.21739">
        <ele>9.01953125</ele>
        <time>2018-04-18T12:41:19Z</time>
      </trkpt>
      <trkpt lat="45.67607" lon="-0.21732">
        <ele>9</ele>
        <time>2018-04-18T12:41:20Z</time>
      </trkpt>
      <trkpt lat="45.67608" lon="-0.21724">
        <ele>9</ele>
        <time>2018-04-18T12:41:21Z</time>
      </trkpt>
      <trkpt lat="45.67609" lon="-0.21717">
        <ele>9</ele>
        <time>2018-04-18T12:41:22Z</time>
      </trkpt>
      <trkpt lat="45.6761" lon="-0.21709">
        <ele>9</ele>
        <time>2018-04-18T12:41:23Z</time>
      </trkpt>
      <trkpt lat="45.67611" lon="-0.21701">
        <ele>9</ele>
        <time>2018-04-18T12:41:24Z</time>
      </trkpt>
      <trkpt lat="45.67621" lon="-0.2165">
        <ele>9</ele>
        <time>2018-04-18T12:41:31Z</time>
      </trkpt>
      <trkpt lat="45.67623" lon="-0.21642">
        <ele>9</ele>
        <time>2018-04-18T12:41:32Z</time>
      </trkpt>
      <trkpt lat="45.67625" lon="-0.21635">
        <ele>9</ele>
        <time>2018-04-18T12:41:33Z</time>
      </trkpt>
      <trkpt lat="45.67627" lon="-0.21628">
        <ele>9</ele>
        <time>2018-04-18T12:41:34Z</time>
      </trkpt>
      <trkpt lat="45.67629" lon="-0.21613">
        <ele>9</ele>
        <time>2018-04-18T12:41:36Z</time>
      </trkpt>
      <trkpt lat="45.67639" lon="-0.21551">
        <ele>9</ele>
        <time>2018-04-18T12:41:45Z</time>
      </trkpt>
      <trkpt lat="45.6764" lon="-0.21545">
        <ele>9</ele>
        <time>2018-04-18T12:41:46Z</time>
      </trkpt>
      <trkpt lat="45.67642" lon="-0.21539">
        <ele>9</ele>
        <time>2018-04-18T12:41:47Z</time>
      </trkpt>
      <trkpt lat="45.67644" lon="-0.21527">
        <ele>9</ele>
        <time>2018-04-18T12:41:49Z</time>
      </trkpt>
      <trkpt lat="45.67648" lon="-0.215">
        <ele>9</ele>
        <time>2018-04-18T12:41:53Z</time>
      </trkpt>
      <trkpt lat="45.67651" lon="-0.21487">
        <ele>9</ele>
        <time>2018-04-18T12:41:55Z</time>
      </trkpt>
      <trkpt lat="45.6766" lon="-0.21441">
        <ele>9</ele>
        <time>2018-04-18T12:42:02Z</time>
      </trkpt>
      <trkpt lat="45.67663" lon="-0.21426">
        <ele>9.0234375</ele>
        <time>2018-04-18T12:42:04Z</time>
      </trkpt>
      <trkpt lat="45.67664" lon="-0.21419">
        <ele>9.0546875</ele>
        <time>2018-04-18T12:42:05Z</time>
      </trkpt>
      <trkpt lat="45.67668" lon="-0.21398">
        <ele>9.1171875</ele>
        <time>2018-04-18T12:42:08Z</time>
      </trkpt>
      <trkpt lat="45.6767" lon="-0.21385">
        <ele>9.1484375</ele>
        <time>2018-04-18T12:42:10Z</time>
      </trkpt>
      <trkpt lat="45.67671" lon="-0.21378">
        <ele>9.17578125</ele>
        <time>2018-04-18T12:42:11Z</time>
      </trkpt>
      <trkpt lat="45.67673" lon="-0.2137">
        <ele>9.28515625</ele>
        <time>2018-04-18T12:42:12Z</time>
      </trkpt>
      <trkpt lat="45.67674" lon="-0.21362">
        <ele>9.41796875</ele>
        <time>2018-04-18T12:42:13Z</time>
      </trkpt>
      <trkpt lat="45.67675" lon="-0.21355">
        <ele>9.53515625</ele>
        <time>2018-04-18T12:42:14Z</time>
      </trkpt>
      <trkpt lat="45.67676" lon="-0.21347">
        <ele>9.64453125</ele>
        <time>2018-04-18T12:42:15Z</time>
      </trkpt>
      <trkpt lat="45.67677" lon="-0.2134">
        <ele>9.75</ele>
        <time>2018-04-18T12:42:16Z</time>
      </trkpt>
      <trkpt lat="45.6768" lon="-0.21318">
        <ele>10</ele>
        <time>2018-04-18T12:42:19Z</time>
      </trkpt>
      <trkpt lat="45.67685" lon="-0.21272">
        <ele>10</ele>
        <time>2018-04-18T12:42:26Z</time>
      </trkpt>
      <trkpt lat="45.67688" lon="-0.21259">
        <ele>10</ele>
        <time>2018-04-18T12:42:28Z</time>
      </trkpt>
      <trkpt lat="45.67691" lon="-0.21253">
        <ele>10</ele>
        <time>2018-04-18T12:42:29Z</time>
      </trkpt>
      <trkpt lat="45.67694" lon="-0.21246">
        <ele>10</ele>
        <time>2018-04-18T12:42:30Z</time>
      </trkpt>
      <trkpt lat="45.67696" lon="-0.2124">
        <ele>10</ele>
        <time>2018-04-18T12:42:31Z</time>
      </trkpt>
      <trkpt lat="45.67698" lon="-0.21233">
        <ele>10</ele>
        <time>2018-04-18T12:42:32Z</time>
      </trkpt>
      <trkpt lat="45.67701" lon="-0.21219">
        <ele>10</ele>
        <time>2018-04-18T12:42:34Z</time>
      </trkpt>
      <trkpt lat="45.67701" lon="-0.21212">
        <ele>10</ele>
        <time>2018-04-18T12:42:35Z</time>
      </trkpt>
      <trkpt lat="45.67702" lon="-0.21205">
        <ele>10</ele>
        <time>2018-04-18T12:42:36Z</time>
      </trkpt>
      <trkpt lat="45.67708" lon="-0.21175">
        <ele>10</ele>
        <time>2018-04-18T12:42:40Z</time>
      </trkpt>
      <trkpt lat="45.67711" lon="-0.21161">
        <ele>10</ele>
        <time>2018-04-18T12:42:42Z</time>
      </trkpt>
      <trkpt lat="45.67712" lon="-0.21155">
        <ele>10</ele>
        <time>2018-04-18T12:42:43Z</time>
      </trkpt>
      <trkpt lat="45.67712" lon="-0.21148">
        <ele>10</ele>
        <time>2018-04-18T12:42:44Z</time>
      </trkpt>
      <trkpt lat="45.6771" lon="-0.21112">
        <ele>10</ele>
        <time>2018-04-18T12:42:49Z</time>
      </trkpt>
      <trkpt lat="45.67707" lon="-0.21099">
        <ele>10</ele>
        <time>2018-04-18T12:42:51Z</time>
      </trkpt>
      <trkpt lat="45.67706" lon="-0.21092">
        <ele>10</ele>
        <time>2018-04-18T12:42:52Z</time>
      </trkpt>
      <trkpt lat="45.67705" lon="-0.21085">
        <ele>10</ele>
        <time>2018-04-18T12:42:53Z</time>
      </trkpt>
      <trkpt lat="45.67703" lon="-0.21079">
        <ele>10</ele>
        <time>2018-04-18T12:42:54Z</time>
      </trkpt>
      <trkpt lat="45.67702" lon="-0.21072">
        <ele>10</ele>
        <time>2018-04-18T12:42:55Z</time>
      </trkpt>
      <trkpt lat="45.67696" lon="-0.2104">
        <ele>10</ele>
        <time>2018-04-18T12:43:00Z</time>
      </trkpt>
      <trkpt lat="45.67695" lon="-0.21033">
        <ele>10</ele>
        <time>2018-04-18T12:43:01Z</time>
      </trkpt>
      <trkpt lat="45.67693" lon="-0.2102">
        <ele>10</ele>
        <time>2018-04-18T12:43:03Z</time>
      </trkpt>
      <trkpt lat="45.67693" lon="-0.21014">
        <ele>10</ele>
        <time>2018-04-18T12:43:04Z</time>
      </trkpt>
      <trkpt lat="45.67691" lon="-0.21007">
        <ele>10</ele>
        <time>2018-04-18T12:43:05Z</time>
      </trkpt>
      <trkpt lat="45.67689" lon="-0.20988">
        <ele>10</ele>
        <time>2018-04-18T12:43:08Z</time>
      </trkpt>
      <trkpt lat="45.67684" lon="-0.20928">
        <ele>10</ele>
        <time>2018-04-18T12:43:17Z</time>
      </trkpt>
      <trkpt lat="45.67684" lon="-0.20921">
        <ele>10</ele>
        <time>2018-04-18T12:43:18Z</time>
      </trkpt>
      <trkpt lat="45.67686" lon="-0.20913">
        <ele>10</ele>
        <time>2018-04-18T12:43:19Z</time>
      </trkpt>
      <trkpt lat="45.67685" lon="-0.20906">
        <ele>10</ele>
        <time>2018-04-18T12:43:20Z</time>
      </trkpt>
      <trkpt lat="45.67684" lon="-0.20891">
        <ele>10</ele>
        <time>2018-04-18T12:43:22Z</time>
      </trkpt>
      <trkpt lat="45.67678" lon="-0.20848">
        <ele>10</ele>
        <time>2018-04-18T12:43:28Z</time>
      </trkpt>
      <trkpt lat="45.67677" lon="-0.2078">
        <ele>10</ele>
        <time>2018-04-18T12:43:37Z</time>
      </trkpt>
      <trkpt lat="45.67678" lon="-0.20723">
        <ele>10</ele>
        <time>2018-04-18T12:43:45Z</time>
      </trkpt>
      <trkpt lat="45.67677" lon="-0.20708">
        <ele>10</ele>
        <time>2018-04-18T12:43:48Z</time>
      </trkpt>
      <trkpt lat="45.67675" lon="-0.20695">
        <ele>10</ele>
        <time>2018-04-18T12:43:50Z</time>
      </trkpt>
      <trkpt lat="45.67673" lon="-0.20681">
        <ele>10</ele>
        <time>2018-04-18T12:43:51Z</time>
      </trkpt>
      <trkpt lat="45.67668" lon="-0.20649">
        <ele>10</ele>
        <time>2018-04-18T12:43:59Z</time>
      </trkpt>
      <trkpt lat="45.67665" lon="-0.2062">
        <ele>10</ele>
        <time>2018-04-18T12:44:03Z</time>
      </trkpt>
      <trkpt lat="45.67663" lon="-0.20601">
        <ele>10</ele>
        <time>2018-04-18T12:44:05Z</time>
      </trkpt>
      <trkpt lat="45.67661" lon="-0.20586">
        <ele>10</ele>
        <time>2018-04-18T12:44:06Z</time>
      </trkpt>
      <trkpt lat="45.6766" lon="-0.20561">
        <ele>10</ele>
        <time>2018-04-18T12:44:10Z</time>
      </trkpt>
      <trkpt lat="45.67656" lon="-0.20547">
        <ele>10</ele>
        <time>2018-04-18T12:44:11Z</time>
      </trkpt>
      <trkpt lat="45.67651" lon="-0.20522">
        <ele>10</ele>
        <time>2018-04-18T12:44:12Z</time>
      </trkpt>
      <trkpt lat="45.67646" lon="-0.20498">
        <ele>10</ele>
        <time>2018-04-18T12:44:19Z</time>
      </trkpt>
      <trkpt lat="45.67638" lon="-0.20455">
        <ele>10</ele>
        <time>2018-04-18T12:44:26Z</time>
      </trkpt>
      <trkpt lat="45.67633" lon="-0.20415">
        <ele>10</ele>
        <time>2018-04-18T12:44:28Z</time>
      </trkpt>
      <trkpt lat="45.67631" lon="-0.20365">
        <ele>10</ele>
        <time>2018-04-18T12:44:37Z</time>
      </trkpt>
      <trkpt lat="45.67635" lon="-0.20297">
        <ele>10</ele>
        <time>2018-04-18T12:44:44Z</time>
      </trkpt>
      <trkpt lat="45.67638" lon="-0.20252">
        <ele>10</ele>
        <time>2018-04-18T12:44:50Z</time>
      </trkpt>
      <trkpt lat="45.67638" lon="-0.20245">
        <ele>10</ele>
        <time>2018-04-18T12:44:51Z</time>
      </trkpt>
      <trkpt lat="45.67639" lon="-0.20238">
        <ele>10</ele>
        <time>2018-04-18T12:44:52Z</time>
      </trkpt>
      <trkpt lat="45.6764" lon="-0.2023">
        <ele>10</ele>
        <time>2018-04-18T12:44:53Z</time>
      </trkpt>
      <trkpt lat="45.6764" lon="-0.20223">
        <ele>10</ele>
        <time>2018-04-18T12:44:54Z</time>
      </trkpt>
      <trkpt lat="45.67641" lon="-0.20215">
        <ele>10</ele>
        <time>2018-04-18T12:44:55Z</time>
      </trkpt>
      <trkpt lat="45.67641" lon="-0.20208">
        <ele>10</ele>
        <time>2018-04-18T12:44:56Z</time>
      </trkpt>
      <trkpt lat="45.67643" lon="-0.20193">
        <ele>10</ele>
        <time>2018-04-18T12:44:58Z</time>
      </trkpt>
      <trkpt lat="45.67644" lon="-0.20185">
        <ele>10</ele>
        <time>2018-04-18T12:44:59Z</time>
      </trkpt>
      <trkpt lat="45.67647" lon="-0.2017">
        <ele>10</ele>
        <time>2018-04-18T12:45:01Z</time>
      </trkpt>
      <trkpt lat="45.6766" lon="-0.20119">
        <ele>10</ele>
        <time>2018-04-18T12:45:08Z</time>
      </trkpt>
      <trkpt lat="45.67661" lon="-0.20112">
        <ele>10</ele>
        <time>2018-04-18T12:45:09Z</time>
      </trkpt>
      <trkpt lat="45.67664" lon="-0.20097">
        <ele>10</ele>
        <time>2018-04-18T12:45:11Z</time>
      </trkpt>
      <trkpt lat="45.67666" lon="-0.20084">
        <ele>10</ele>
        <time>2018-04-18T12:45:13Z</time>
      </trkpt>
      <trkpt lat="45.67667" lon="-0.20077">
        <ele>10</ele>
        <time>2018-04-18T12:45:14Z</time>
      </trkpt>
      <trkpt lat="45.67669" lon="-0.20063">
        <ele>10</ele>
        <time>2018-04-18T12:45:16Z</time>
      </trkpt>
      <trkpt lat="45.67673" lon="-0.20002">
        <ele>10</ele>
        <time>2018-04-18T12:45:24Z</time>
      </trkpt>
      <trkpt lat="45.67673" lon="-0.19991">
        <ele>10</ele>
        <time>2018-04-18T12:45:25Z</time>
      </trkpt>
      <trkpt lat="45.67674" lon="-0.19976">
        <ele>9.7890625</ele>
        <time>2018-04-18T12:45:26Z</time>
      </trkpt>
      <trkpt lat="45.67675" lon="-0.19958">
        <ele>9.45703125</ele>
        <time>2018-04-18T12:45:29Z</time>
      </trkpt>
      <trkpt lat="45.67676" lon="-0.19937">
        <ele>9.09375</ele>
        <time>2018-04-18T12:45:30Z</time>
      </trkpt>
      <trkpt lat="45.67677" lon="-0.1989">
        <ele>9</ele>
        <time>2018-04-18T12:45:38Z</time>
      </trkpt>
      <trkpt lat="45.67678" lon="-0.19853">
        <ele>9</ele>
        <time>2018-04-18T12:45:43Z</time>
      </trkpt>
      <trkpt lat="45.6768" lon="-0.19827">
        <ele>9</ele>
        <time>2018-04-18T12:45:44Z</time>
      </trkpt>
      <trkpt lat="45.6768" lon="-0.19783">
        <ele>9</ele>
        <time>2018-04-18T12:45:52Z</time>
      </trkpt>
      <trkpt lat="45.67682" lon="-0.19754">
        <ele>9</ele>
        <time>2018-04-18T12:45:56Z</time>
      </trkpt>
      <trkpt lat="45.67682" lon="-0.19738">
        <ele>9</ele>
        <time>2018-04-18T12:45:57Z</time>
      </trkpt>
      <trkpt lat="45.67684" lon="-0.19716">
        <ele>9</ele>
        <time>2018-04-18T12:45:59Z</time>
      </trkpt>
      <trkpt lat="45.67691" lon="-0.19665">
        <ele>9</ele>
        <time>2018-04-18T12:46:08Z</time>
      </trkpt>
      <trkpt lat="45.67695" lon="-0.19635">
        <ele>9</ele>
      </trkpt>
      <trkpt lat="45.67703" lon="-0.19597">
        <ele>9.04296875</ele>
        <time>2018-04-18T12:46:18Z</time>
      </trkpt>
      <trkpt lat="45.67715" lon="-0.19558">
        <ele>9.74609375</ele>
      </trkpt>
      <trkpt lat="45.67728" lon="-0.19526">
        <ele>10</ele>
        <time>2018-04-18T12:46:28Z</time>
      </trkpt>
      <trkpt lat="45.67738" lon="-0.19501">
        <ele>10</ele>
      </trkpt>
      <trkpt lat="45.67751" lon="-0.1948">
        <ele>10</ele>
        <time>2018-04-18T12:46:36Z</time>
      </trkpt>
      <trkpt lat="45.67757" lon="-0.1947">
        <ele>10</ele>
        <time>2018-04-18T12:46:38Z</time>
      </trkpt>
      <trkpt lat="45.67761" lon="-0.19465">
        <ele>10</ele>
        <time>2018-04-18T12:46:39Z</time>
      </trkpt>
      <trkpt lat="45.67792" lon="-0.19417">
        <ele>10.34765625</ele>
        <time>2018-04-18T12:46:48Z</time>
      </trkpt>
      <trkpt lat="45.67823" lon="-0.19353">
        <ele>10.90625</ele>
        <time>2018-04-18T12:46:59Z</time>
      </trkpt>
      <trkpt lat="45.6784" lon="-0.19295">
        <ele>10.625</ele>
        <time>2018-04-18T12:47:08Z</time>
      </trkpt>
      <trkpt lat="45.67847" lon="-0.19268">
        <ele>10.36328125</ele>
      </trkpt>
      <trkpt lat="45.67856" lon="-0.1924">
        <ele>10.51171875</ele>
        <time>2018-04-18T12:47:17Z</time>
      </trkpt>
      <trkpt lat="45.67858" lon="-0.19234">
        <ele>10.54296875</ele>
        <time>2018-04-18T12:47:18Z</time>
      </trkpt>
      <trkpt lat="45.6786" lon="-0.19229">
        <ele>10.578125</ele>
        <time>2018-04-18T12:47:19Z</time>
      </trkpt>
      <trkpt lat="45.67863" lon="-0.19224">
        <ele>10.625</ele>
        <time>2018-04-18T12:47:20Z</time>
      </trkpt>
      <trkpt lat="45.67865" lon="-0.19219">
        <ele>10.671875</ele>
        <time>2018-04-18T12:47:21Z</time>
      </trkpt>
      <trkpt lat="45.67867" lon="-0.19213">
        <ele>10.7109375</ele>
        <time>2018-04-18T12:47:22Z</time>
      </trkpt>
      <trkpt lat="45.67869" lon="-0.19207">
        <ele>10.7421875</ele>
        <time>2018-04-18T12:47:23Z</time>
      </trkpt>
      <trkpt lat="45.67871" lon="-0.19202">
        <ele>10.77734375</ele>
        <time>2018-04-18T12:47:24Z</time>
      </trkpt>
      <trkpt lat="45.67873" lon="-0.19197">
        <ele>10.8046875</ele>
        <time>2018-04-18T12:47:25Z</time>
      </trkpt>
      <trkpt lat="45.67874" lon="-0.19191">
        <ele>10.8359375</ele>
        <time>2018-04-18T12:47:26Z</time>
      </trkpt>
      <trkpt lat="45.67881" lon="-0.19175">
        <ele>10.9453125</ele>
        <time>2018-04-18T12:47:29Z</time>
      </trkpt>
      <trkpt lat="45.67883" lon="-0.19169">
        <ele>11</ele>
        <time>2018-04-18T12:47:30Z</time>
      </trkpt>
      <trkpt lat="45.67898" lon="-0.19131">
        <ele>10.9453125</ele>
        <time>2018-04-18T12:47:36Z</time>
      </trkpt>
      <trkpt lat="45.67912" lon="-0.19098">
        <ele>11.0078125</ele>
        <time>2018-04-18T12:47:42Z</time>
      </trkpt>
      <trkpt lat="45.67919" lon="-0.19081">
        <ele>10.859375</ele>
        <time>2018-04-18T12:47:45Z</time>
      </trkpt>
      <trkpt lat="45.67929" lon="-0.19059">
        <ele>10.44921875</ele>
        <time>2018-04-18T12:47:46Z</time>
      </trkpt>
      <trkpt lat="45.67941" lon="-0.19033">
        <ele>10.046875</ele>
        <time>2018-04-18T12:47:53Z</time>
      </trkpt>
      <trkpt lat="45.6795" lon="-0.19009">
        <ele>10.27734375</ele>
        <time>2018-04-18T12:47:54Z</time>
      </trkpt>
      <trkpt lat="45.67957" lon="-0.18997">
        <ele>10.3671875</ele>
        <time>2018-04-18T12:47:58Z</time>
      </trkpt>
      <trkpt lat="45.67964" lon="-0.18983">
        <ele>10.41015625</ele>
        <time>2018-04-18T12:48:00Z</time>
      </trkpt>
      <trkpt lat="45.67971" lon="-0.18973">
        <ele>10.421875</ele>
        <time>2018-04-18T12:48:04Z</time>
      </trkpt>
      <trkpt lat="45.67977" lon="-0.18967">
        <ele>10.42578125</ele>
        <time>2018-04-18T12:48:05Z</time>
      </trkpt>
      <trkpt lat="45.67982" lon="-0.18963">
        <ele>10.41796875</ele>
        <time>2018-04-18T12:48:06Z</time>
      </trkpt>
      <trkpt lat="45.67997" lon="-0.18944">
        <ele>10.23046875</ele>
        <time>2018-04-18T12:48:11Z</time>
      </trkpt>
      <trkpt lat="45.68006" lon="-0.18933">
        <ele>10.19921875</ele>
        <time>2018-04-18T12:48:12Z</time>
      </trkpt>
      <trkpt lat="45.6801" lon="-0.18927">
        <ele>10.2578125</ele>
        <time>2018-04-18T12:48:13Z</time>
      </trkpt>
      <trkpt lat="45.68015" lon="-0.18922">
        <ele>10.296875</ele>
        <time>2018-04-18T12:48:14Z</time>
      </trkpt>
      <trkpt lat="45.6802" lon="-0.18917">
        <ele>10.32421875</ele>
        <time>2018-04-18T12:48:15Z</time>
      </trkpt>
      <trkpt lat="45.68026" lon="-0.18909">
        <ele>10.31640625</ele>
        <time>2018-04-18T12:48:17Z</time>
      </trkpt>
      <trkpt lat="45.68033" lon="-0.18899">
        <ele>10.26953125</ele>
        <time>2018-04-18T12:48:19Z</time>
      </trkpt>
      <trkpt lat="45.6805" lon="-0.18866">
        <ele>10.0078125</ele>
        <time>2018-04-18T12:48:26Z</time>
      </trkpt>
      <trkpt lat="45.68057" lon="-0.18849">
        <ele>10.12109375</ele>
        <time>2018-04-18T12:48:31Z</time>
      </trkpt>
      <trkpt lat="45.68061" lon="-0.18836">
        <ele>10.203125</ele>
        <time>2018-04-18T12:48:33Z</time>
      </trkpt>
      <trkpt lat="45.68064" lon="-0.18828">
        <ele>10.25390625</ele>
        <time>2018-04-18T12:48:34Z</time>
      </trkpt>
      <trkpt lat="45.68068" lon="-0.18818">
        <ele>10.36328125</ele>
        <time>2018-04-18T12:48:35Z</time>
      </trkpt>
      <trkpt lat="45.68072" lon="-0.18803">
        <ele>10.609375</ele>
        <time>2018-04-18T12:48:42Z</time>
      </trkpt>
      <trkpt lat="45.68078" lon="-0.18786">
        <ele>10.82421875</ele>
        <time>2018-04-18T12:48:43Z</time>
      </trkpt>
      <trkpt lat="45.68086" lon="-0.1876">
        <ele>11</ele>
        <time>2018-04-18T12:48:49Z</time>
      </trkpt>
      <trkpt lat="45.68087" lon="-0.18753">
        <ele>11</ele>
        <time>2018-04-18T12:48:50Z</time>
      </trkpt>
      <trkpt lat="45.68087" lon="-0.18747">
        <ele>11</ele>
        <time>2018-04-18T12:48:51Z</time>
      </trkpt>
      <trkpt lat="45.68087" lon="-0.1874">
        <ele>11</ele>
        <time>2018-04-18T12:48:52Z</time>
      </trkpt>
      <trkpt lat="45.68087" lon="-0.18735">
        <ele>11</ele>
        <time>2018-04-18T12:48:53Z</time>
      </trkpt>
      <trkpt lat="45.68087" lon="-0.18729">
        <ele>11</ele>
        <time>2018-04-18T12:48:54Z</time>
      </trkpt>
      <trkpt lat="45.68087" lon="-0.18722">
        <ele>11</ele>
        <time>2018-04-18T12:48:55Z</time>
      </trkpt>
      <trkpt lat="45.68087" lon="-0.18716">
        <ele>11</ele>
        <time>2018-04-18T12:48:56Z</time>
      </trkpt>
      <trkpt lat="45.68087" lon="-0.18711">
        <ele>11</ele>
        <time>2018-04-18T12:48:57Z</time>
      </trkpt>
      <trkpt lat="45.68087" lon="-0.18704">
        <ele>11</ele>
        <time>2018-04-18T12:48:58Z</time>
      </trkpt>
      <trkpt lat="45.68087" lon="-0.18697">
        <ele>11</ele>
        <time>2018-04-18T12:48:59Z</time>
      </trkpt>
      <trkpt lat="45.68087" lon="-0.18691">
        <ele>11</ele>
        <time>2018-04-18T12:49:00Z</time>
      </trkpt>
      <trkpt lat="45.68086" lon="-0.18673">
        <ele>11</ele>
        <time>2018-04-18T12:49:03Z</time>
      </trkpt>
      <trkpt lat="45.68086" lon="-0.18644">
        <ele>11.203125</ele>
        <time>2018-04-18T12:49:04Z</time>
      </trkpt>
      <trkpt lat="45.68089" lon="-0.18617">
        <ele>11.69921875</ele>
        <time>2018-04-18T12:49:11Z</time>
      </trkpt>
      <trkpt lat="45.68097" lon="-0.18548">
        <ele>12</ele>
        <time>2018-04-18T12:49:21Z</time>
      </trkpt>
      <trkpt lat="45.681" lon="-0.18494">
        <ele>12</ele>
        <time>2018-04-18T12:49:29Z</time>
      </trkpt>
      <trkpt lat="45.681" lon="-0.1848">
        <ele>12.15625</ele>
        <time>2018-04-18T12:49:31Z</time>
      </trkpt>
      <trkpt lat="45.681" lon="-0.18461">
        <ele>12.5</ele>
        <time>2018-04-18T12:49:33Z</time>
      </trkpt>
      <trkpt lat="45.681" lon="-0.18442">
        <ele>12.8515625</ele>
        <time>2018-04-18T12:49:36Z</time>
      </trkpt>
      <trkpt lat="45.681" lon="-0.18423">
        <ele>13</ele>
        <time>2018-04-18T12:49:37Z</time>
      </trkpt>
      <trkpt lat="45.68097" lon="-0.18393">
        <ele>13</ele>
        <time>2018-04-18T12:49:46Z</time>
      </trkpt>
      <trkpt lat="45.68094" lon="-0.18365">
        <ele>13</ele>
        <time>2018-04-18T12:49:53Z</time>
      </trkpt>
      <trkpt lat="45.68092" lon="-0.18346">
        <ele>13</ele>
        <time>2018-04-18T12:49:54Z</time>
      </trkpt>
      <trkpt lat="45.68087" lon="-0.18326">
        <ele>13</ele>
        <time>2018-04-18T12:50:00Z</time>
      </trkpt>
      <trkpt lat="45.68081" lon="-0.18297">
        <ele>13.453125</ele>
        <time>2018-04-18T12:50:03Z</time>
      </trkpt>
      <trkpt lat="45.68079" lon="-0.18281">
        <ele>13.73828125</ele>
        <time>2018-04-18T12:50:05Z</time>
      </trkpt>
      <trkpt lat="45.68076" lon="-0.18263">
        <ele>14</ele>
        <time>2018-04-18T12:50:06Z</time>
      </trkpt>
      <trkpt lat="45.68074" lon="-0.18245">
        <ele>14</ele>
        <time>2018-04-18T12:50:09Z</time>
      </trkpt>
      <trkpt lat="45.68071" lon="-0.18232">
        <ele>14</ele>
        <time>2018-04-18T12:50:11Z</time>
      </trkpt>
      <trkpt lat="45.6807" lon="-0.18224">
        <ele>14</ele>
        <time>2018-04-18T12:50:12Z</time>
      </trkpt>
      <trkpt lat="45.68069" lon="-0.18213">
        <ele>14</ele>
        <time>2018-04-18T12:50:17Z</time>
      </trkpt>
      <trkpt lat="45.68068" lon="-0.18204">
        <ele>14</ele>
        <time>2018-04-18T12:50:18Z</time>
      </trkpt>
      <trkpt lat="45.68064" lon="-0.18191">
        <ele>14</ele>
        <time>2018-04-18T12:50:19Z</time>
      </trkpt>
      <trkpt lat="45.68059" lon="-0.18175">
        <ele>14</ele>
        <time>2018-04-18T12:50:25Z</time>
      </trkpt>
      <trkpt lat="45.68052" lon="-0.1816">
        <ele>14</ele>
        <time>2018-04-18T12:50:27Z</time>
      </trkpt>
      <trkpt lat="45.68035" lon="-0.18117">
        <ele>14</ele>
        <time>2018-04-18T12:50:37Z</time>
      </trkpt>
      <trkpt lat="45.68027" lon="-0.18097">
        <ele>14</ele>
        <time>2018-04-18T12:50:38Z</time>
      </trkpt>
      <trkpt lat="45.68012" lon="-0.18058">
        <ele>14</ele>
        <time>2018-04-18T12:50:47Z</time>
      </trkpt>
      <trkpt lat="45.67988" lon="-0.17994">
        <ele>14</ele>
        <time>2018-04-18T12:50:57Z</time>
      </trkpt>
      <trkpt lat="45.6798" lon="-0.17972">
        <ele>14.23046875</ele>
        <time>2018-04-18T12:51:03Z</time>
      </trkpt>
      <trkpt lat="45.67976" lon="-0.17962">
        <ele>14.3203125</ele>
        <time>2018-04-18T12:51:04Z</time>
      </trkpt>
      <trkpt lat="45.67962" lon="-0.17909">
        <ele>14.66796875</ele>
        <time>2018-04-18T12:51:11Z</time>
      </trkpt>
      <trkpt lat="45.67948" lon="-0.17853">
        <ele>15</ele>
        <time>2018-04-18T12:51:20Z</time>
      </trkpt>
      <trkpt lat="45.67934" lon="-0.17799">
        <ele>15</ele>
        <time>2018-04-18T12:51:31Z</time>
      </trkpt>
      <trkpt lat="45.67914" lon="-0.17743">
        <ele>15.23828125</ele>
        <time>2018-04-18T12:51:40Z</time>
      </trkpt>
      <trkpt lat="45.67909" lon="-0.17733">
        <ele>15.28125</ele>
        <time>2018-04-18T12:51:42Z</time>
      </trkpt>
      <trkpt lat="45.6789" lon="-0.17671">
        <ele>15.19140625</ele>
        <time>2018-04-18T12:51:51Z</time>
      </trkpt>
      <trkpt lat="45.67884" lon="-0.17651">
        <ele>15.09375</ele>
        <time>2018-04-18T12:52:01Z</time>
      </trkpt>
      <trkpt lat="45.67872" lon="-0.17591">
        <ele>15.734375</ele>
      </trkpt>
      <trkpt lat="45.67869" lon="-0.17579">
        <ele>15.84375</ele>
      </trkpt>
      <trkpt lat="45.67865" lon="-0.1754">
        <ele>16.31640625</ele>
        <time>2018-04-18T12:52:12Z</time>
      </trkpt>
      <trkpt lat="45.67852" lon="-0.17471">
        <ele>16.21875</ele>
        <time>2018-04-18T12:52:22Z</time>
      </trkpt>
      <trkpt lat="45.6785" lon="-0.17453">
        <ele>16.453125</ele>
        <time>2018-04-18T12:52:23Z</time>
      </trkpt>
      <trkpt lat="45.67847" lon="-0.17442">
        <ele>16.54296875</ele>
        <time>2018-04-18T12:52:30Z</time>
      </trkpt>
      <trkpt lat="45.67844" lon="-0.17435">
        <ele>16.54296875</ele>
        <time>2018-04-18T12:52:31Z</time>
      </trkpt>
      <trkpt lat="45.67836" lon="-0.17441">
        <ele>16.16015625</ele>
        <time>2018-04-18T12:52:32Z</time>
      </trkpt>
      <trkpt lat="45.67829" lon="-0.17445">
        <ele>15.84375</ele>
        <time>2018-04-18T12:52:33Z</time>
      </trkpt>
      <trkpt lat="45.67811" lon="-0.17457">
        <ele>15.0859375</ele>
        <time>2018-04-18T12:52:34Z</time>
      </trkpt>
      <trkpt lat="45.67776" lon="-0.17482">
        <ele>14.0703125</ele>
        <time>2018-04-18T12:52:44Z</time>
      </trkpt>
      <trkpt lat="45.6777" lon="-0.17485">
        <ele>13.95703125</ele>
        <time>2018-04-18T12:52:51Z</time>
      </trkpt>
      <trkpt lat="45.67773" lon="-0.17493">
        <ele>13.94921875</ele>
        <time>2018-04-18T12:52:52Z</time>
      </trkpt>
      <trkpt lat="45.67778" lon="-0.17506">
        <ele>13.83984375</ele>
        <time>2018-04-18T12:52:53Z</time>
      </trkpt>
      <trkpt lat="45.67783" lon="-0.17521">
        <ele>13.73046875</ele>
        <time>2018-04-18T12:52:55Z</time>
      </trkpt>
      <trkpt lat="45.67794" lon="-0.17555">
        <ele>13.6875</ele>
        <time>2018-04-18T12:52:58Z</time>
      </trkpt>
      <trkpt lat="45.67797" lon="-0.17569">
        <ele>13.69921875</ele>
        <time>2018-04-18T12:53:01Z</time>
      </trkpt>
      <trkpt lat="45.67799" lon="-0.17579">
        <ele>13.65234375</ele>
        <time>2018-04-18T12:53:02Z</time>
      </trkpt>
      <trkpt lat="45.678" lon="-0.17623">
        <ele>13.5</ele>
        <time>2018-04-18T12:53:10Z</time>
      </trkpt>
      <trkpt lat="45.67804" lon="-0.17667">
        <ele>13.6640625</ele>
        <time>2018-04-18T12:53:11Z</time>
      </trkpt>
      <trkpt lat="45.67807" lon="-0.17704">
        <ele>13.94921875</ele>
        <time>2018-04-18T12:53:18Z</time>
      </trkpt>
      <trkpt lat="45.67815" lon="-0.1773">
        <ele>14</ele>
        <time>2018-04-18T12:53:19Z</time>
      </trkpt>
      <trkpt lat="45.6782" lon="-0.17733">
        <ele>14</ele>
        <time>2018-04-18T12:53:20Z</time>
      </trkpt>
      <trkpt lat="45.67826" lon="-0.17736">
        <ele>14</ele>
        <time>2018-04-18T12:53:21Z</time>
      </trkpt>
      <trkpt lat="45.67834" lon="-0.17741">
        <ele>14.11328125</ele>
        <time>2018-04-18T12:53:22Z</time>
      </trkpt>
      <trkpt lat="45.67837" lon="-0.17747">
        <ele>14.15234375</ele>
        <time>2018-04-18T12:53:23Z</time>
      </trkpt>
      <trkpt lat="45.6784" lon="-0.17753">
        <ele>14.21484375</ele>
        <time>2018-04-18T12:53:24Z</time>
      </trkpt>
      <trkpt lat="45.67843" lon="-0.17759">
        <ele>14.265625</ele>
        <time>2018-04-18T12:53:25Z</time>
      </trkpt>
      <trkpt lat="45.67846" lon="-0.17766">
        <ele>14.31640625</ele>
        <time>2018-04-18T12:53:26Z</time>
      </trkpt>
      <trkpt lat="45.67869" lon="-0.17832">
        <ele>14.6171875</ele>
        <time>2018-04-18T12:53:37Z</time>
      </trkpt>
      <trkpt lat="45.67872" lon="-0.17844">
        <ele>14.484375</ele>
        <time>2018-04-18T12:53:38Z</time>
      </trkpt>
      <trkpt lat="45.67871" lon="-0.17851">
        <ele>14.3828125</ele>
        <time>2018-04-18T12:53:39Z</time>
      </trkpt>
      <trkpt lat="45.67877" lon="-0.17871">
        <ele>14.11328125</ele>
        <time>2018-04-18T12:53:40Z</time>
      </trkpt>
      <trkpt lat="45.67879" lon="-0.1788">
        <ele>14</ele>
        <time>2018-04-18T12:53:41Z</time>
      </trkpt>
      <trkpt lat="45.67883" lon="-0.17895">
        <ele>14</ele>
        <time>2018-04-18T12:53:42Z</time>
      </trkpt>
      <trkpt lat="45.679" lon="-0.17956">
        <ele>14</ele>
        <time>2018-04-18T12:53:50Z</time>
      </trkpt>
      <trkpt lat="45.67917" lon="-0.1801">
        <ele>14</ele>
        <time>2018-04-18T12:53:58Z</time>
      </trkpt>
      <trkpt lat="45.67936" lon="-0.18067">
        <ele>14</ele>
        <time>2018-04-18T12:54:07Z</time>
      </trkpt>
      <trkpt lat="45.67953" lon="-0.18109">
        <ele>14</ele>
      </trkpt>
      <trkpt lat="45.67965" lon="-0.18141">
        <ele>14</ele>
      </trkpt>
      <trkpt lat="45.67979" lon="-0.18167">
        <ele>13.94140625</ele>
      </trkpt>
      <trkpt lat="45.67991" lon="-0.18191">
        <ele>13.95703125</ele>
        <time>2018-04-18T12:54:15Z</time>
      </trkpt>
      <trkpt lat="45.68002" lon="-0.18222">
        <ele>13.83203125</ele>
        <time>2018-04-18T12:54:26Z</time>
      </trkpt>
      <trkpt lat="45.68013" lon="-0.18262">
        <ele>13.40234375</ele>
        <time>2018-04-18T12:54:31Z</time>
      </trkpt>
      <trkpt lat="45.68014" lon="-0.18275">
        <ele>13.3046875</ele>
        <time>2018-04-18T12:54:40Z</time>
      </trkpt>
      <trkpt lat="45.68019" lon="-0.18312">
        <ele>13.08203125</ele>
        <time>2018-04-18T12:54:49Z</time>
      </trkpt>
      <trkpt lat="45.68021" lon="-0.18348">
        <ele>13</ele>
        <time>2018-04-18T12:54:50Z</time>
      </trkpt>
      <trkpt lat="45.68021" lon="-0.18406">
        <ele>13</ele>
        <time>2018-04-18T12:54:59Z</time>
      </trkpt>
      <trkpt lat="45.68023" lon="-0.18435">
        <ele>12.9765625</ele>
        <time>2018-04-18T12:55:07Z</time>
      </trkpt>
      <trkpt lat="45.68033" lon="-0.18504">
        <ele>12</ele>
        <time>2018-04-18T12:55:14Z</time>
      </trkpt>
      <trkpt lat="45.68034" lon="-0.18539">
        <ele>12</ele>
        <time>2018-04-18T12:55:21Z</time>
      </trkpt>
      <trkpt lat="45.68035" lon="-0.18575">
        <ele>12</ele>
        <time>2018-04-18T12:55:29Z</time>
      </trkpt>
      <trkpt lat="45.68032" lon="-0.18604">
        <ele>11.9296875</ele>
        <time>2018-04-18T12:55:35Z</time>
      </trkpt>
      <trkpt lat="45.68027" lon="-0.1865">
        <ele>11.09765625</ele>
        <time>2018-04-18T12:55:42Z</time>
      </trkpt>
      <trkpt lat="45.68027" lon="-0.18657">
        <ele>11</ele>
      </trkpt>
      <trkpt lat="45.68029" lon="-0.18664">
        <ele>11</ele>
      </trkpt>
      <trkpt lat="45.68032" lon="-0.18669">
        <ele>11</ele>
      </trkpt>
      <trkpt lat="45.68033" lon="-0.18677">
        <ele>11</ele>
      </trkpt>
      <trkpt lat="45.68029" lon="-0.18702">
        <ele>11</ele>
      </trkpt>
      <trkpt lat="45.68027" lon="-0.18722">
        <ele>11</ele>
      </trkpt>
      <trkpt lat="45.68027" lon="-0.18733">
        <ele>11</ele>
      </trkpt>
      <trkpt lat="45.68025" lon="-0.18751">
        <ele>11</ele>
      </trkpt>
      <trkpt lat="45.68024" lon="-0.18762">
        <ele>11</ele>
      </trkpt>
      <trkpt lat="45.68022" lon="-0.18776">
        <ele>10.82421875</ele>
        <time>2018-04-18T12:55:50Z</time>
      </trkpt>
      <trkpt lat="45.68007" lon="-0.18833">
        <ele>10</ele>
        <time>2018-04-18T12:55:59Z</time>
      </trkpt>
      <trkpt lat="45.68002" lon="-0.18842">
        <ele>10</ele>
        <time>2018-04-18T12:56:09Z</time>
      </trkpt>
      <trkpt lat="45.67981" lon="-0.18871">
        <ele>10</ele>
        <time>2018-04-18T12:56:18Z</time>
      </trkpt>
      <trkpt lat="45.67951" lon="-0.1891">
        <ele>10</ele>
        <time>2018-04-18T12:56:28Z</time>
      </trkpt>
      <trkpt lat="45.6793" lon="-0.18933">
        <ele>10</ele>
        <time>2018-04-18T12:56:36Z</time>
      </trkpt>
      <trkpt lat="45.67906" lon="-0.18964">
        <ele>10</ele>
        <time>2018-04-18T12:56:43Z</time>
      </trkpt>
      <trkpt lat="45.67889" lon="-0.18985">
        <ele>10</ele>
        <time>2018-04-18T12:56:49Z</time>
      </trkpt>
      <trkpt lat="45.67877" lon="-0.19007">
        <ele>10</ele>
        <time>2018-04-18T12:56:55Z</time>
      </trkpt>
      <trkpt lat="45.67872" lon="-0.19019">
        <ele>10</ele>
        <time>2018-04-18T12:56:58Z</time>
      </trkpt>
      <trkpt lat="45.67857" lon="-0.19048">
        <ele>10</ele>
        <time>2018-04-18T12:57:05Z</time>
      </trkpt>
      <trkpt lat="45.67847" lon="-0.19072">
        <ele>10</ele>
        <time>2018-04-18T12:57:11Z</time>
      </trkpt>
      <trkpt lat="45.6783" lon="-0.19115">
        <ele>10.0078125</ele>
        <time>2018-04-18T12:57:17Z</time>
      </trkpt>
      <trkpt lat="45.67822" lon="-0.19152">
        <ele>10</ele>
        <time>2018-04-18T12:57:23Z</time>
      </trkpt>
      <trkpt lat="45.6782" lon="-0.19179">
        <ele>10</ele>
        <time>2018-04-18T12:57:30Z</time>
      </trkpt>
      <trkpt lat="45.67806" lon="-0.19213">
        <ele>10</ele>
        <time>2018-04-18T12:57:37Z</time>
      </trkpt>
      <trkpt lat="45.67793" lon="-0.19244">
        <ele>10</ele>
        <time>2018-04-18T12:57:43Z</time>
      </trkpt>
      <trkpt lat="45.67779" lon="-0.19276">
        <ele>10.0234375</ele>
        <time>2018-04-18T12:57:50Z</time>
      </trkpt>
      <trkpt lat="45.67765" lon="-0.19307">
        <ele>10</ele>
        <time>2018-04-18T12:57:56Z</time>
      </trkpt>
      <trkpt lat="45.67738" lon="-0.19372">
        <ele>10</ele>
        <time>2018-04-18T12:58:03Z</time>
      </trkpt>
      <trkpt lat="45.67731" lon="-0.19386">
        <ele>10</ele>
      </trkpt>
      <trkpt lat="45.67709" lon="-0.19421">
        <ele>10.03125</ele>
        <time>2018-04-18T13:01:26Z</time>
      </trkpt>
      <trkpt lat="45.67704" lon="-0.19426">
        <ele>10.02734375</ele>
        <time>2018-04-18T13:01:33Z</time>
      </trkpt>
      <trkpt lat="45.67697" lon="-0.19434">
        <ele>10</ele>
        <time>2018-04-18T13:01:39Z</time>
      </trkpt>
      <trkpt lat="45.67681" lon="-0.19473">
        <ele>10</ele>
        <time>2018-04-18T13:01:45Z</time>
      </trkpt>
      <trkpt lat="45.6767" lon="-0.195">
        <ele>10</ele>
        <time>2018-04-18T13:01:50Z</time>
      </trkpt>
      <trkpt lat="45.67658" lon="-0.19536">
        <ele>10.0546875</ele>
        <time>2018-04-18T13:01:57Z</time>
      </trkpt>
      <trkpt lat="45.67649" lon="-0.19566">
        <ele>9.828125</ele>
        <time>2018-04-18T13:02:05Z</time>
      </trkpt>
      <trkpt lat="45.67639" lon="-0.19603">
        <ele>9.40234375</ele>
        <time>2018-04-18T13:02:12Z</time>
      </trkpt>
      <trkpt lat="45.67633" lon="-0.19614">
        <ele>9.51171875</ele>
        <time>2018-04-18T13:02:18Z</time>
      </trkpt>
      <trkpt lat="45.67627" lon="-0.19623">
        <ele>9.62109375</ele>
        <time>2018-04-18T13:02:24Z</time>
      </trkpt>
      <trkpt lat="45.67624" lon="-0.19643">
        <ele>9.671875</ele>
        <time>2018-04-18T13:02:31Z</time>
      </trkpt>
      <trkpt lat="45.67624" lon="-0.19684">
        <ele>9.32421875</ele>
        <time>2018-04-18T13:02:36Z</time>
      </trkpt>
      <trkpt lat="45.67618" lon="-0.19716">
        <ele>9</ele>
        <time>2018-04-18T13:02:44Z</time>
      </trkpt>
      <trkpt lat="45.67614" lon="-0.19752">
        <ele>9</ele>
        <time>2018-04-18T13:03:21Z</time>
      </trkpt>
      <trkpt lat="45.67616" lon="-0.19767">
        <ele>9</ele>
        <time>2018-04-18T13:03:29Z</time>
      </trkpt>
      <trkpt lat="45.67616" lon="-0.1977">
        <ele>9</ele>
        <time>2018-04-18T13:03:30Z</time>
      </trkpt>
      <trkpt lat="45.67617" lon="-0.19774">
        <ele>9</ele>
        <time>2018-04-18T13:03:31Z</time>
      </trkpt>
      <trkpt lat="45.67617" lon="-0.19778">
        <ele>9</ele>
        <time>2018-04-18T13:03:32Z</time>
      </trkpt>
      <trkpt lat="45.67617" lon="-0.19782">
        <ele>9</ele>
        <time>2018-04-18T13:03:33Z</time>
      </trkpt>
      <trkpt lat="45.67617" lon="-0.19786">
        <ele>9</ele>
        <time>2018-04-18T13:03:34Z</time>
      </trkpt>
      <trkpt lat="45.67617" lon="-0.1979">
        <ele>9</ele>
        <time>2018-04-18T13:03:35Z</time>
      </trkpt>
      <trkpt lat="45.67616" lon="-0.1982">
        <ele>9</ele>
        <time>2018-04-18T13:03:41Z</time>
      </trkpt>
      <trkpt lat="45.67617" lon="-0.1985">
        <ele>9</ele>
        <time>2018-04-18T13:03:48Z</time>
      </trkpt>
      <trkpt lat="45.67617" lon="-0.19884">
        <ele>9</ele>
        <time>2018-04-18T13:03:54Z</time>
      </trkpt>
      <trkpt lat="45.67618" lon="-0.19921">
        <ele>9</ele>
        <time>2018-04-18T13:04:02Z</time>
      </trkpt>
      <trkpt lat="45.67616" lon="-0.19958">
        <ele>9.45703125</ele>
        <time>2018-04-18T13:04:09Z</time>
      </trkpt>
      <trkpt lat="45.67616" lon="-0.19992">
        <ele>10</ele>
        <time>2018-04-18T13:04:16Z</time>
      </trkpt>
      <trkpt lat="45.67614" lon="-0.20024">
        <ele>10</ele>
        <time>2018-04-18T13:04:23Z</time>
      </trkpt>
      <trkpt lat="45.67612" lon="-0.20047">
        <ele>10</ele>
        <time>2018-04-18T13:04:29Z</time>
      </trkpt>
      <trkpt lat="45.67609" lon="-0.2007">
        <ele>10</ele>
        <time>2018-04-18T13:04:35Z</time>
      </trkpt>
      <trkpt lat="45.67605" lon="-0.20098">
        <ele>9.98828125</ele>
        <time>2018-04-18T13:04:42Z</time>
      </trkpt>
      <trkpt lat="45.67602" lon="-0.2012">
        <ele>9.92578125</ele>
        <time>2018-04-18T13:04:48Z</time>
      </trkpt>
      <trkpt lat="45.67595" lon="-0.20156">
        <ele>9.796875</ele>
        <time>2018-04-18T13:04:54Z</time>
      </trkpt>
      <trkpt lat="45.67589" lon="-0.20195">
        <ele>9.6953125</ele>
        <time>2018-04-18T13:05:01Z</time>
      </trkpt>
      <trkpt lat="45.67586" lon="-0.20229">
        <ele>9.64453125</ele>
        <time>2018-04-18T13:05:08Z</time>
      </trkpt>
      <trkpt lat="45.67585" lon="-0.20274">
        <ele>9.6171875</ele>
        <time>2018-04-18T13:05:15Z</time>
      </trkpt>
      <trkpt lat="45.67582" lon="-0.20301">
        <ele>9.57421875</ele>
        <time>2018-04-18T13:05:22Z</time>
      </trkpt>
      <trkpt lat="45.6758" lon="-0.20317">
        <ele>9.53515625</ele>
        <time>2018-04-18T13:05:28Z</time>
      </trkpt>
      <trkpt lat="45.67576" lon="-0.20385">
        <ele>9.46875</ele>
        <time>2018-04-18T13:05:35Z</time>
      </trkpt>
      <trkpt lat="45.67578" lon="-0.20406">
        <ele>9.5</ele>
        <time>2018-04-18T13:05:41Z</time>
      </trkpt>
      <trkpt lat="45.67586" lon="-0.20448">
        <ele>9.6484375</ele>
        <time>2018-04-18T13:05:47Z</time>
      </trkpt>
      <trkpt lat="45.67593" lon="-0.20496">
        <ele>9.796875</ele>
        <time>2018-04-18T13:05:55Z</time>
      </trkpt>
      <trkpt lat="45.676" lon="-0.20554">
        <ele>10</ele>
        <time>2018-04-18T13:06:03Z</time>
      </trkpt>
      <trkpt lat="45.67614" lon="-0.20645">
        <ele>10</ele>
        <time>2018-04-18T13:06:13Z</time>
      </trkpt>
      <trkpt lat="45.67617" lon="-0.20687">
        <ele>10</ele>
        <time>2018-04-18T13:06:23Z</time>
      </trkpt>
      <trkpt lat="45.6762" lon="-0.20766">
        <ele>10</ele>
        <time>2018-04-18T13:06:35Z</time>
      </trkpt>
      <trkpt lat="45.67621" lon="-0.20851">
        <ele>10</ele>
        <time>2018-04-18T13:06:44Z</time>
      </trkpt>
      <trkpt lat="45.67626" lon="-0.20895">
        <ele>10</ele>
        <time>2018-04-18T13:06:54Z</time>
      </trkpt>
      <trkpt lat="45.67631" lon="-0.2093">
        <ele>10</ele>
        <time>2018-04-18T13:07:01Z</time>
      </trkpt>
      <trkpt lat="45.67637" lon="-0.20966">
        <ele>10</ele>
        <time>2018-04-18T13:07:07Z</time>
      </trkpt>
      <trkpt lat="45.67637" lon="-0.20974">
        <ele>10</ele>
        <time>2018-04-18T13:07:08Z</time>
      </trkpt>
      <trkpt lat="45.67635" lon="-0.20977">
        <ele>10</ele>
        <time>2018-04-18T13:07:09Z</time>
      </trkpt>
      <trkpt lat="45.67633" lon="-0.20979">
        <ele>10</ele>
        <time>2018-04-18T13:07:10Z</time>
      </trkpt>
      <trkpt lat="45.67629" lon="-0.20981">
        <ele>10</ele>
        <time>2018-04-18T13:07:11Z</time>
      </trkpt>
      <trkpt lat="45.67626" lon="-0.20982">
        <ele>10</ele>
        <time>2018-04-18T13:07:12Z</time>
      </trkpt>
      <trkpt lat="45.67619" lon="-0.20984">
        <ele>10</ele>
        <time>2018-04-18T13:07:13Z</time>
      </trkpt>
      <trkpt lat="45.67592" lon="-0.20991">
        <ele>9.7421875</ele>
        <time>2018-04-18T13:07:20Z</time>
      </trkpt>
      <trkpt lat="45.6757" lon="-0.20993">
        <ele>9.3515625</ele>
        <time>2018-04-18T13:07:25Z</time>
      </trkpt>
      <trkpt lat="45.67535" lon="-0.21003">
        <ele>9</ele>
        <time>2018-04-18T13:07:33Z</time>
      </trkpt>
      <trkpt lat="45.67495" lon="-0.21021">
        <ele>9</ele>
        <time>2018-04-18T13:07:42Z</time>
      </trkpt>
      <trkpt lat="45.67469" lon="-0.21031">
        <ele>9</ele>
        <time>2018-04-18T13:07:48Z</time>
      </trkpt>
      <trkpt lat="45.67466" lon="-0.21034">
        <ele>9</ele>
        <time>2018-04-18T13:07:49Z</time>
      </trkpt>
      <trkpt lat="45.67465" lon="-0.21037">
        <ele>9</ele>
        <time>2018-04-18T13:07:50Z</time>
      </trkpt>
      <trkpt lat="45.67464" lon="-0.21042">
        <ele>9</ele>
        <time>2018-04-18T13:07:51Z</time>
      </trkpt>
      <trkpt lat="45.67463" lon="-0.21047">
        <ele>9</ele>
        <time>2018-04-18T13:07:52Z</time>
      </trkpt>
      <trkpt lat="45.67463" lon="-0.21052">
        <ele>9</ele>
        <time>2018-04-18T13:07:53Z</time>
      </trkpt>
      <trkpt lat="45.67461" lon="-0.21062">
        <ele>9</ele>
        <time>2018-04-18T13:07:54Z</time>
      </trkpt>
      <trkpt lat="45.67459" lon="-0.2107">
        <ele>9</ele>
        <time>2018-04-18T13:07:55Z</time>
      </trkpt>
      <trkpt lat="45.67456" lon="-0.21077">
        <ele>9</ele>
        <time>2018-04-18T13:07:56Z</time>
      </trkpt>
      <trkpt lat="45.67448" lon="-0.21084">
        <ele>9</ele>
        <time>2018-04-18T13:08:02Z</time>
      </trkpt>
      <trkpt lat="45.6742" lon="-0.21098">
        <ele>9.34765625</ele>
        <time>2018-04-18T13:08:08Z</time>
      </trkpt>
      <trkpt lat="45.67394" lon="-0.21112">
        <ele>9.86328125</ele>
        <time>2018-04-18T13:08:14Z</time>
      </trkpt>
      <trkpt lat="45.67352" lon="-0.2113">
        <ele>10.56640625</ele>
        <time>2018-04-18T13:08:24Z</time>
      </trkpt>
      <trkpt lat="45.67326" lon="-0.21146">
        <ele>11.0390625</ele>
      </trkpt>
      <trkpt lat="45.67297" lon="-0.21166">
        <ele>11.6796875</ele>
      </trkpt>
      <trkpt lat="45.67305" lon="-0.21202">
        <ele>11.8046875</ele>
      </trkpt>
      <trkpt lat="45.67311" lon="-0.21248">
        <ele>11.8515625</ele>
      </trkpt>
      <trkpt lat="45.67317" lon="-0.21271">
        <ele>11.609375</ele>
      </trkpt>
      <trkpt lat="45.67295" lon="-0.21278">
        <ele>12.8203125</ele>
      </trkpt>
      <trkpt lat="45.67282" lon="-0.21284">
        <ele>13.4765625</ele>
        <time>2018-04-18T13:21:24Z</time>
      </trkpt>
      <trkpt lat="45.67271" lon="-0.21292">
        <ele>14.0703125</ele>
        <time>2018-04-18T13:21:25Z</time>
      </trkpt>
      <trkpt lat="45.67254" lon="-0.21304">
        <ele>14.78515625</ele>
        <time>2018-04-18T13:21:30Z</time>
      </trkpt>
      <trkpt lat="45.67245" lon="-0.21308">
        <ele>15.09765625</ele>
      </trkpt>
      <trkpt lat="45.67239" lon="-0.21308">
        <ele>15.34375</ele>
        <time>2018-04-18T13:21:36Z</time>
      </trkpt>
      <trkpt lat="45.67229" lon="-0.213">
        <ele>15.859375</ele>
        <time>2018-04-18T13:21:38Z</time>
      </trkpt>
      <trkpt lat="45.67211" lon="-0.21279">
        <ele>17.05078125</ele>
        <time>2018-04-18T13:21:46Z</time>
      </trkpt>
      <trkpt lat="45.67198" lon="-0.21262">
        <ele>18.015625</ele>
      </trkpt>
      <trkpt lat="45.67191" lon="-0.21251">
        <ele>18.421875</ele>
      </trkpt>
      <trkpt lat="45.67187" lon="-0.21235">
        <ele>18.671875</ele>
        <time>2018-04-18T13:21:56Z</time>
      </trkpt>
      <trkpt lat="45.67188" lon="-0.21224">
        <ele>18.5859375</ele>
        <time>2018-04-18T13:22:02Z</time>
      </trkpt>
      <trkpt lat="45.67195" lon="-0.21199">
        <ele>18.046875</ele>
        <time>2018-04-18T13:22:09Z</time>
      </trkpt>
      <trkpt lat="45.67194" lon="-0.21188">
        <ele>18.25390625</ele>
      </trkpt>
      <trkpt lat="45.67189" lon="-0.21178">
        <ele>18.875</ele>
        <time>2018-04-18T13:22:16Z</time>
      </trkpt>
      <trkpt lat="45.67165" lon="-0.21155">
        <ele>21.60546875</ele>
        <time>2018-04-18T13:22:20Z</time>
      </trkpt>
      <trkpt lat="45.67159" lon="-0.21155">
        <ele>22.15234375</ele>
        <time>2018-04-18T13:22:21Z</time>
      </trkpt>
      <trkpt lat="45.6715" lon="-0.21157">
        <ele>22.5703125</ele>
        <time>2018-04-18T13:22:22Z</time>
      </trkpt>
      <trkpt lat="45.67139" lon="-0.21161">
        <ele>22.97265625</ele>
        <time>2018-04-18T13:22:25Z</time>
      </trkpt>
      <trkpt lat="45.67134" lon="-0.21161">
        <ele>23.20703125</ele>
        <time>2018-04-18T13:22:26Z</time>
      </trkpt>
      <trkpt lat="45.67129" lon="-0.2116">
        <ele>23.4765625</ele>
        <time>2018-04-18T13:22:27Z</time>
      </trkpt>
      <trkpt lat="45.67125" lon="-0.21158">
        <ele>23.78515625</ele>
        <time>2018-04-18T13:22:28Z</time>
      </trkpt>
      <trkpt lat="45.67121" lon="-0.21155">
        <ele>24.1484375</ele>
        <time>2018-04-18T13:22:29Z</time>
      </trkpt>
      <trkpt lat="45.67117" lon="-0.21152">
        <ele>24.52734375</ele>
        <time>2018-04-18T13:22:30Z</time>
      </trkpt>
      <trkpt lat="45.67114" lon="-0.21148">
        <ele>24.90625</ele>
        <time>2018-04-18T13:22:31Z</time>
      </trkpt>
      <trkpt lat="45.67096" lon="-0.21127">
        <ele>26.078125</ele>
        <time>2018-04-18T13:22:38Z</time>
      </trkpt>
      <trkpt lat="45.67093" lon="-0.21129">
        <ele>25.84375</ele>
        <time>2018-04-18T13:22:39Z</time>
      </trkpt>
      <trkpt lat="45.67091" lon="-0.21134">
        <ele>25.45703125</ele>
        <time>2018-04-18T13:22:40Z</time>
      </trkpt>
      <trkpt lat="45.67089" lon="-0.2114">
        <ele>24.94921875</ele>
        <time>2018-04-18T13:22:41Z</time>
      </trkpt>
      <trkpt lat="45.67086" lon="-0.21148">
        <ele>24.31640625</ele>
        <time>2018-04-18T13:22:42Z</time>
      </trkpt>
      <trkpt lat="45.67082" lon="-0.21156">
        <ele>23.58984375</ele>
        <time>2018-04-18T13:22:43Z</time>
      </trkpt>
      <trkpt lat="45.67079" lon="-0.21165">
        <ele>22.83203125</ele>
        <time>2018-04-18T13:22:44Z</time>
      </trkpt>
      <trkpt lat="45.67071" lon="-0.21185">
        <ele>21.22265625</ele>
        <time>2018-04-18T13:22:46Z</time>
      </trkpt>
      <trkpt lat="45.67057" lon="-0.21217">
        <ele>18.80859375</ele>
        <time>2018-04-18T13:22:49Z</time>
      </trkpt>
      <trkpt lat="45.67053" lon="-0.21229">
        <ele>18.02734375</ele>
        <time>2018-04-18T13:22:50Z</time>
      </trkpt>
      <trkpt lat="45.67038" lon="-0.21266">
        <ele>15.53515625</ele>
        <time>2018-04-18T13:22:54Z</time>
      </trkpt>
      <trkpt lat="45.67035" lon="-0.21271">
        <ele>15.2109375</ele>
        <time>2018-04-18T13:22:55Z</time>
      </trkpt>
      <trkpt lat="45.6703" lon="-0.21273">
        <ele>14.953125</ele>
        <time>2018-04-18T13:22:56Z</time>
      </trkpt>
      <trkpt lat="45.67024" lon="-0.21273">
        <ele>14.7578125</ele>
        <time>2018-04-18T13:22:57Z</time>
      </trkpt>
      <trkpt lat="45.67019" lon="-0.21271">
        <ele>14.64453125</ele>
        <time>2018-04-18T13:22:58Z</time>
      </trkpt>
      <trkpt lat="45.67014" lon="-0.21268">
        <ele>14.57421875</ele>
        <time>2018-04-18T13:22:59Z</time>
      </trkpt>
      <trkpt lat="45.66974" lon="-0.21239">
        <ele>14.54296875</ele>
        <time>2018-04-18T13:23:08Z</time>
      </trkpt>
      <trkpt lat="45.66953" lon="-0.21229">
        <ele>14.53125</ele>
        <time>2018-04-18T13:23:13Z</time>
      </trkpt>
      <trkpt lat="45.66941" lon="-0.21225">
        <ele>14.453125</ele>
        <time>2018-04-18T13:23:16Z</time>
      </trkpt>
      <trkpt lat="45.66937" lon="-0.21224">
        <ele>14.4609375</ele>
        <time>2018-04-18T13:23:17Z</time>
      </trkpt>
      <trkpt lat="45.66933" lon="-0.21224">
        <ele>14.484375</ele>
        <time>2018-04-18T13:23:18Z</time>
      </trkpt>
      <trkpt lat="45.66929" lon="-0.21223">
        <ele>14.50390625</ele>
        <time>2018-04-18T13:23:19Z</time>
      </trkpt>
      <trkpt lat="45.66925" lon="-0.21222">
        <ele>14.53125</ele>
        <time>2018-04-18T13:23:20Z</time>
      </trkpt>
      <trkpt lat="45.66912" lon="-0.21222">
        <ele>14.5546875</ele>
        <time>2018-04-18T13:23:23Z</time>
      </trkpt>
      <trkpt lat="45.66908" lon="-0.21222">
        <ele>14.5546875</ele>
        <time>2018-04-18T13:23:24Z</time>
      </trkpt>
      <trkpt lat="45.66876" lon="-0.21225">
        <ele>14.58984375</ele>
        <time>2018-04-18T13:23:31Z</time>
      </trkpt>
      <trkpt lat="45.66872" lon="-0.21227">
        <ele>14.5859375</ele>
        <time>2018-04-18T13:23:32Z</time>
      </trkpt>
      <trkpt lat="45.66869" lon="-0.21231">
        <ele>14.50390625</ele>
        <time>2018-04-18T13:23:33Z</time>
      </trkpt>
      <trkpt lat="45.66866" lon="-0.21235">
        <ele>14.39453125</ele>
        <time>2018-04-18T13:23:34Z</time>
      </trkpt>
      <trkpt lat="45.66864" lon="-0.2124">
        <ele>14.24609375</ele>
        <time>2018-04-18T13:23:35Z</time>
      </trkpt>
      <trkpt lat="45.66862" lon="-0.21246">
        <ele>14.08203125</ele>
        <time>2018-04-18T13:23:36Z</time>
      </trkpt>
      <trkpt lat="45.66861" lon="-0.21252">
        <ele>13.8984375</ele>
        <time>2018-04-18T13:23:37Z</time>
      </trkpt>
      <trkpt lat="45.66859" lon="-0.21258">
        <ele>13.703125</ele>
        <time>2018-04-18T13:23:38Z</time>
      </trkpt>
      <trkpt lat="45.66851" lon="-0.21295">
        <ele>13.2734375</ele>
        <time>2018-04-18T13:23:44Z</time>
      </trkpt>
      <trkpt lat="45.66848" lon="-0.213">
        <ele>13.23046875</ele>
        <time>2018-04-18T13:23:45Z</time>
      </trkpt>
      <trkpt lat="45.66845" lon="-0.21304">
        <ele>13.20703125</ele>
        <time>2018-04-18T13:23:46Z</time>
      </trkpt>
      <trkpt lat="45.66841" lon="-0.21307">
        <ele>13.1953125</ele>
        <time>2018-04-18T13:23:47Z</time>
      </trkpt>
      <trkpt lat="45.66836" lon="-0.21307">
        <ele>13.2109375</ele>
        <time>2018-04-18T13:23:48Z</time>
      </trkpt>
      <trkpt lat="45.66832" lon="-0.21306">
        <ele>13.24609375</ele>
        <time>2018-04-18T13:23:49Z</time>
      </trkpt>
      <trkpt lat="45.66828" lon="-0.21304">
        <ele>13.29296875</ele>
        <time>2018-04-18T13:23:50Z</time>
      </trkpt>
      <trkpt lat="45.66824" lon="-0.21302">
        <ele>13.33203125</ele>
        <time>2018-04-18T13:23:51Z</time>
      </trkpt>
      <trkpt lat="45.66802" lon="-0.2129">
        <ele>13.546875</ele>
        <time>2018-04-18T13:23:56Z</time>
      </trkpt>
      <trkpt lat="45.66798" lon="-0.21288">
        <ele>13.58984375</ele>
        <time>2018-04-18T13:23:57Z</time>
      </trkpt>
      <trkpt lat="45.66791" lon="-0.21281">
        <ele>13.71484375</ele>
        <time>2018-04-18T13:23:59Z</time>
      </trkpt>
      <trkpt lat="45.66788" lon="-0.21275">
        <ele>13.80859375</ele>
        <time>2018-04-18T13:24:00Z</time>
      </trkpt>
      <trkpt lat="45.66787" lon="-0.21269">
        <ele>13.91796875</ele>
        <time>2018-04-18T13:24:01Z</time>
      </trkpt>
      <trkpt lat="45.66786" lon="-0.21263">
        <ele>14.0546875</ele>
        <time>2018-04-18T13:24:02Z</time>
      </trkpt>
      <trkpt lat="45.66785" lon="-0.21257">
        <ele>14.28125</ele>
        <time>2018-04-18T13:24:03Z</time>
      </trkpt>
      <trkpt lat="45.66785" lon="-0.21251">
        <ele>14.49609375</ele>
        <time>2018-04-18T13:24:04Z</time>
      </trkpt>
      <trkpt lat="45.66784" lon="-0.21245">
        <ele>14.70703125</ele>
        <time>2018-04-18T13:24:05Z</time>
      </trkpt>
      <trkpt lat="45.66782" lon="-0.2124">
        <ele>14.87890625</ele>
        <time>2018-04-18T13:24:06Z</time>
      </trkpt>
      <trkpt lat="45.66778" lon="-0.21238">
        <ele>14.98046875</ele>
        <time>2018-04-18T13:24:07Z</time>
      </trkpt>
      <trkpt lat="45.66774" lon="-0.21236">
        <ele>15.03125</ele>
        <time>2018-04-18T13:24:08Z</time>
      </trkpt>
      <trkpt lat="45.6677" lon="-0.21235">
        <ele>15.109375</ele>
        <time>2018-04-18T13:24:09Z</time>
      </trkpt>
      <trkpt lat="45.66749" lon="-0.21224">
        <ele>15.92578125</ele>
        <time>2018-04-18T13:24:15Z</time>
      </trkpt>
      <trkpt lat="45.66735" lon="-0.21216">
        <ele>16.44921875</ele>
        <time>2018-04-18T13:24:19Z</time>
      </trkpt>
      <trkpt lat="45.66709" lon="-0.21209">
        <ele>16.87890625</ele>
        <time>2018-04-18T13:24:27Z</time>
      </trkpt>
      <trkpt lat="45.66705" lon="-0.21209">
        <ele>16.76953125</ele>
        <time>2018-04-18T13:24:29Z</time>
      </trkpt>
      <trkpt lat="45.66703" lon="-0.21212">
        <ele>16.640625</ele>
        <time>2018-04-18T13:24:30Z</time>
      </trkpt>
      <trkpt lat="45.66701" lon="-0.21216">
        <ele>16.484375</ele>
        <time>2018-04-18T13:24:31Z</time>
      </trkpt>
      <trkpt lat="45.66698" lon="-0.2122">
        <ele>16.328125</ele>
        <time>2018-04-18T13:24:32Z</time>
      </trkpt>
      <trkpt lat="45.66693" lon="-0.21222">
        <ele>16.2109375</ele>
        <time>2018-04-18T13:24:33Z</time>
      </trkpt>
      <trkpt lat="45.66689" lon="-0.21222">
        <ele>16.1484375</ele>
        <time>2018-04-18T13:24:34Z</time>
      </trkpt>
      <trkpt lat="45.66684" lon="-0.21222">
        <ele>16.08984375</ele>
        <time>2018-04-18T13:24:35Z</time>
      </trkpt>
      <trkpt lat="45.6668" lon="-0.21223">
        <ele>16</ele>
        <time>2018-04-18T13:24:36Z</time>
      </trkpt>
      <trkpt lat="45.66675" lon="-0.21225">
        <ele>15.88671875</ele>
        <time>2018-04-18T13:24:37Z</time>
      </trkpt>
      <trkpt lat="45.6667" lon="-0.21226">
        <ele>15.8125</ele>
        <time>2018-04-18T13:24:38Z</time>
      </trkpt>
      <trkpt lat="45.66666" lon="-0.21226">
        <ele>15.76171875</ele>
        <time>2018-04-18T13:24:39Z</time>
      </trkpt>
      <trkpt lat="45.66663" lon="-0.21226">
        <ele>15.70703125</ele>
        <time>2018-04-18T13:24:40Z</time>
      </trkpt>
      <trkpt lat="45.6666" lon="-0.21228">
        <ele>15.68359375</ele>
        <time>2018-04-18T13:24:41Z</time>
      </trkpt>
      <trkpt lat="45.66659" lon="-0.2123">
        <ele>15.640625</ele>
        <time>2018-04-18T13:24:42Z</time>
      </trkpt>
      <trkpt lat="45.66658" lon="-0.21235">
        <ele>15.58203125</ele>
        <time>2018-04-18T13:24:43Z</time>
      </trkpt>
      <trkpt lat="45.6665" lon="-0.21243">
        <ele>15.51953125</ele>
        <time>2018-04-18T13:24:47Z</time>
      </trkpt>
      <trkpt lat="45.66642" lon="-0.21243">
        <ele>15.6171875</ele>
        <time>2018-04-18T13:24:50Z</time>
      </trkpt>
      <trkpt lat="45.66615" lon="-0.21239">
        <ele>15.91796875</ele>
        <time>2018-04-18T13:24:59Z</time>
      </trkpt>
      <trkpt lat="45.66612" lon="-0.21238">
        <ele>15.94921875</ele>
        <time>2018-04-18T13:25:00Z</time>
      </trkpt>
      <trkpt lat="45.66599" lon="-0.21249">
        <ele>16.39453125</ele>
        <time>2018-04-18T13:25:05Z</time>
      </trkpt>
      <trkpt lat="45.66597" lon="-0.21247">
        <ele>16.546875</ele>
        <time>2018-04-18T13:25:06Z</time>
      </trkpt>
      <trkpt lat="45.66581" lon="-0.21237">
        <ele>17.1328125</ele>
        <time>2018-04-18T13:25:12Z</time>
      </trkpt>
      <trkpt lat="45.66575" lon="-0.21229">
        <ele>17.171875</ele>
        <time>2018-04-18T13:25:15Z</time>
      </trkpt>
      <trkpt lat="45.66572" lon="-0.21203">
        <ele>16.71484375</ele>
        <time>2018-04-18T13:25:21Z</time>
      </trkpt>
      <trkpt lat="45.6657" lon="-0.21198">
        <ele>16.796875</ele>
        <time>2018-04-18T13:25:22Z</time>
      </trkpt>
      <trkpt lat="45.66568" lon="-0.21194">
        <ele>16.86328125</ele>
        <time>2018-04-18T13:25:23Z</time>
      </trkpt>
      <trkpt lat="45.66565" lon="-0.21191">
        <ele>16.9140625</ele>
        <time>2018-04-18T13:25:24Z</time>
      </trkpt>
      <trkpt lat="45.66546" lon="-0.21167">
        <ele>17.22265625</ele>
        <time>2018-04-18T13:25:33Z</time>
      </trkpt>
      <trkpt lat="45.66531" lon="-0.21157">
        <ele>17.765625</ele>
        <time>2018-04-18T13:25:40Z</time>
      </trkpt>
      <trkpt lat="45.66519" lon="-0.21143">
        <ele>18.05078125</ele>
        <time>2018-04-18T13:25:47Z</time>
      </trkpt>
      <trkpt lat="45.66503" lon="-0.21106">
        <ele>17.98046875</ele>
        <time>2018-04-18T13:25:55Z</time>
      </trkpt>
      <trkpt lat="45.66496" lon="-0.21063">
        <ele>17.99609375</ele>
        <time>2018-04-18T13:26:03Z</time>
      </trkpt>
      <trkpt lat="45.66496" lon="-0.21056">
        <ele>18</ele>
        <time>2018-04-18T13:26:04Z</time>
      </trkpt>
      <trkpt lat="45.66496" lon="-0.2105">
        <ele>18</ele>
        <time>2018-04-18T13:26:05Z</time>
      </trkpt>
      <trkpt lat="45.66496" lon="-0.21043">
        <ele>18</ele>
        <time>2018-04-18T13:26:06Z</time>
      </trkpt>
      <trkpt lat="45.66495" lon="-0.2099">
        <ele>17.0546875</ele>
        <time>2018-04-18T13:26:14Z</time>
      </trkpt>
      <trkpt lat="45.66494" lon="-0.20983">
        <ele>17.0234375</ele>
        <time>2018-04-18T13:26:15Z</time>
      </trkpt>
      <trkpt lat="45.66493" lon="-0.20976">
        <ele>17.0390625</ele>
        <time>2018-04-18T13:26:16Z</time>
      </trkpt>
      <trkpt lat="45.66491" lon="-0.2097">
        <ele>17.0546875</ele>
        <time>2018-04-18T13:26:17Z</time>
      </trkpt>
      <trkpt lat="45.66489" lon="-0.20963">
        <ele>17.06640625</ele>
        <time>2018-04-18T13:26:18Z</time>
      </trkpt>
      <trkpt lat="45.66487" lon="-0.20957">
        <ele>17.07421875</ele>
        <time>2018-04-18T13:26:19Z</time>
      </trkpt>
      <trkpt lat="45.66484" lon="-0.20952">
        <ele>17.078125</ele>
        <time>2018-04-18T13:26:20Z</time>
      </trkpt>
      <trkpt lat="45.66481" lon="-0.20947">
        <ele>17.07421875</ele>
        <time>2018-04-18T13:26:21Z</time>
      </trkpt>
      <trkpt lat="45.66477" lon="-0.20942">
        <ele>17.0625</ele>
        <time>2018-04-18T13:26:22Z</time>
      </trkpt>
      <trkpt lat="45.66473" lon="-0.20938">
        <ele>17.04296875</ele>
        <time>2018-04-18T13:26:23Z</time>
      </trkpt>
      <trkpt lat="45.6647" lon="-0.20934">
        <ele>17.01953125</ele>
        <time>2018-04-18T13:26:24Z</time>
      </trkpt>
      <trkpt lat="45.66466" lon="-0.20931">
        <ele>16.98828125</ele>
        <time>2018-04-18T13:26:25Z</time>
      </trkpt>
      <trkpt lat="45.66423" lon="-0.20902">
        <ele>16.6328125</ele>
        <time>2018-04-18T13:26:35Z</time>
      </trkpt>
      <trkpt lat="45.66405" lon="-0.20893">
        <ele>16.7421875</ele>
        <time>2018-04-18T13:26:39Z</time>
      </trkpt>
      <trkpt lat="45.664" lon="-0.20892">
        <ele>16.796875</ele>
        <time>2018-04-18T13:26:40Z</time>
      </trkpt>
      <trkpt lat="45.66395" lon="-0.20891">
        <ele>16.85546875</ele>
        <time>2018-04-18T13:26:41Z</time>
      </trkpt>
      <trkpt lat="45.6639" lon="-0.20891">
        <ele>16.921875</ele>
        <time>2018-04-18T13:26:42Z</time>
      </trkpt>
      <trkpt lat="45.66385" lon="-0.20891">
        <ele>16.98828125</ele>
        <time>2018-04-18T13:26:43Z</time>
      </trkpt>
      <trkpt lat="45.6638" lon="-0.20892">
        <ele>17</ele>
        <time>2018-04-18T13:26:44Z</time>
      </trkpt>
      <trkpt lat="45.66365" lon="-0.20897">
        <ele>17</ele>
        <time>2018-04-18T13:26:47Z</time>
      </trkpt>
      <trkpt lat="45.66349" lon="-0.20898">
        <ele>17</ele>
        <time>2018-04-18T13:26:50Z</time>
      </trkpt>
      <trkpt lat="45.66344" lon="-0.20897">
        <ele>17</ele>
        <time>2018-04-18T13:26:51Z</time>
      </trkpt>
      <trkpt lat="45.66339" lon="-0.20895">
        <ele>17</ele>
        <time>2018-04-18T13:26:52Z</time>
      </trkpt>
      <trkpt lat="45.66335" lon="-0.20891">
        <ele>17</ele>
        <time>2018-04-18T13:26:53Z</time>
      </trkpt>
      <trkpt lat="45.66331" lon="-0.20886">
        <ele>17</ele>
        <time>2018-04-18T13:26:54Z</time>
      </trkpt>
      <trkpt lat="45.66328" lon="-0.20881">
        <ele>17.02734375</ele>
        <time>2018-04-18T13:26:55Z</time>
      </trkpt>
      <trkpt lat="45.66325" lon="-0.20875">
        <ele>17.078125</ele>
        <time>2018-04-18T13:26:56Z</time>
      </trkpt>
      <trkpt lat="45.66322" lon="-0.20868">
        <ele>17.10546875</ele>
        <time>2018-04-18T13:26:57Z</time>
      </trkpt>
      <trkpt lat="45.6632" lon="-0.20861">
        <ele>17.11328125</ele>
        <time>2018-04-18T13:26:58Z</time>
      </trkpt>
      <trkpt lat="45.66318" lon="-0.20855">
        <ele>17.1171875</ele>
        <time>2018-04-18T13:26:59Z</time>
      </trkpt>
      <trkpt lat="45.66316" lon="-0.20848">
        <ele>17.11328125</ele>
        <time>2018-04-18T13:27:00Z</time>
      </trkpt>
      <trkpt lat="45.66314" lon="-0.20842">
        <ele>17.109375</ele>
        <time>2018-04-18T13:27:01Z</time>
      </trkpt>
      <trkpt lat="45.6631" lon="-0.20837">
        <ele>17.09765625</ele>
        <time>2018-04-18T13:27:02Z</time>
      </trkpt>
      <trkpt lat="45.66306" lon="-0.20832">
        <ele>17.08203125</ele>
        <time>2018-04-18T13:27:03Z</time>
      </trkpt>
      <trkpt lat="45.66302" lon="-0.20828">
        <ele>17.0625</ele>
        <time>2018-04-18T13:27:04Z</time>
      </trkpt>
      <trkpt lat="45.66298" lon="-0.20825">
        <ele>17.04296875</ele>
        <time>2018-04-18T13:27:05Z</time>
      </trkpt>
      <trkpt lat="45.66294" lon="-0.20823">
        <ele>17.0234375</ele>
        <time>2018-04-18T13:27:06Z</time>
      </trkpt>
      <trkpt lat="45.66289" lon="-0.20822">
        <ele>17.015625</ele>
        <time>2018-04-18T13:27:07Z</time>
      </trkpt>
      <trkpt lat="45.66284" lon="-0.20822">
        <ele>17.01953125</ele>
        <time>2018-04-18T13:27:08Z</time>
      </trkpt>
      <trkpt lat="45.6628" lon="-0.20823">
        <ele>17.03515625</ele>
        <time>2018-04-18T13:27:09Z</time>
      </trkpt>
      <trkpt lat="45.66243" lon="-0.20827">
        <ele>17.1171875</ele>
        <time>2018-04-18T13:27:17Z</time>
      </trkpt>
      <trkpt lat="45.66239" lon="-0.20828">
        <ele>17.1328125</ele>
        <time>2018-04-18T13:27:18Z</time>
      </trkpt>
      <trkpt lat="45.66202" lon="-0.20834">
        <ele>17.30078125</ele>
        <time>2018-04-18T13:27:26Z</time>
      </trkpt>
      <trkpt lat="45.66198" lon="-0.20832">
        <ele>17.27734375</ele>
        <time>2018-04-18T13:27:27Z</time>
      </trkpt>
      <trkpt lat="45.66194" lon="-0.2083">
        <ele>17.23828125</ele>
        <time>2018-04-18T13:27:28Z</time>
      </trkpt>
      <trkpt lat="45.6619" lon="-0.20827">
        <ele>17.171875</ele>
        <time>2018-04-18T13:27:29Z</time>
      </trkpt>
      <trkpt lat="45.66187" lon="-0.20824">
        <ele>17.09375</ele>
        <time>2018-04-18T13:27:30Z</time>
      </trkpt>
      <trkpt lat="45.66174" lon="-0.20815">
        <ele>17</ele>
        <time>2018-04-18T13:27:33Z</time>
      </trkpt>
      <trkpt lat="45.6617" lon="-0.20812">
        <ele>17</ele>
        <time>2018-04-18T13:27:34Z</time>
      </trkpt>
      <trkpt lat="45.66149" lon="-0.20797">
        <ele>17.24609375</ele>
        <time>2018-04-18T13:27:39Z</time>
      </trkpt>
      <trkpt lat="45.66115" lon="-0.20759">
        <ele>17.75</ele>
        <time>2018-04-18T13:27:48Z</time>
      </trkpt>
      <trkpt lat="45.6609" lon="-0.20727">
        <ele>17.51953125</ele>
        <time>2018-04-18T13:27:56Z</time>
      </trkpt>
      <trkpt lat="45.66062" lon="-0.20712">
        <ele>17.80859375</ele>
        <time>2018-04-18T13:28:04Z</time>
      </trkpt>
      <trkpt lat="45.66051" lon="-0.20717">
        <ele>17.99609375</ele>
        <time>2018-04-18T13:28:08Z</time>
      </trkpt>
      <trkpt lat="45.66049" lon="-0.20719">
        <ele>18.0078125</ele>
        <time>2018-04-18T13:28:09Z</time>
      </trkpt>
      <trkpt lat="45.66016" lon="-0.20742">
        <ele>18.3671875</ele>
        <time>2018-04-18T13:28:20Z</time>
      </trkpt>
      <trkpt lat="45.65982" lon="-0.20766">
        <ele>19.265625</ele>
        <time>2018-04-18T13:28:31Z</time>
      </trkpt>
      <trkpt lat="45.65948" lon="-0.20789">
        <ele>20.2890625</ele>
        <time>2018-04-18T13:28:42Z</time>
      </trkpt>
      <trkpt lat="45.65916" lon="-0.2081">
        <ele>20.81640625</ele>
        <time>2018-04-18T13:28:53Z</time>
      </trkpt>
      <trkpt lat="45.65895" lon="-0.20824">
        <ele>21.0859375</ele>
        <time>2018-04-18T13:29:01Z</time>
      </trkpt>
      <trkpt lat="45.65878" lon="-0.20833">
        <ele>21.40234375</ele>
        <time>2018-04-18T13:29:07Z</time>
      </trkpt>
      <trkpt lat="45.65848" lon="-0.20854">
        <ele>21.40625</ele>
        <time>2018-04-18T13:29:17Z</time>
      </trkpt>
      <trkpt lat="45.65839" lon="-0.20861">
        <ele>21.26171875</ele>
        <time>2018-04-18T13:29:20Z</time>
      </trkpt>
      <trkpt lat="45.65837" lon="-0.20865">
        <ele>21.23046875</ele>
        <time>2018-04-18T13:29:21Z</time>
      </trkpt>
      <trkpt lat="45.65837" lon="-0.20871">
        <ele>21.24609375</ele>
        <time>2018-04-18T13:29:22Z</time>
      </trkpt>
      <trkpt lat="45.65838" lon="-0.20876">
        <ele>21.3125</ele>
        <time>2018-04-18T13:29:23Z</time>
      </trkpt>
      <trkpt lat="45.65839" lon="-0.20881">
        <ele>21.51171875</ele>
        <time>2018-04-18T13:29:24Z</time>
      </trkpt>
      <trkpt lat="45.65856" lon="-0.20932">
        <ele>23.48828125</ele>
        <time>2018-04-18T13:29:35Z</time>
      </trkpt>
      <trkpt lat="45.65854" lon="-0.20955">
        <ele>23.85546875</ele>
        <time>2018-04-18T13:29:39Z</time>
      </trkpt>
      <trkpt lat="45.6584" lon="-0.21017">
        <ele>24.6171875</ele>
        <time>2018-04-18T13:29:49Z</time>
      </trkpt>
      <trkpt lat="45.65821" lon="-0.211">
        <ele>25.58984375</ele>
        <time>2018-04-18T13:30:01Z</time>
      </trkpt>
      <trkpt lat="45.65812" lon="-0.21157">
        <ele>26.0625</ele>
        <time>2018-04-18T13:30:09Z</time>
      </trkpt>
      <trkpt lat="45.65809" lon="-0.2122">
        <ele>26.328125</ele>
        <time>2018-04-18T13:30:18Z</time>
      </trkpt>
      <trkpt lat="45.65814" lon="-0.21281">
        <ele>26.7265625</ele>
        <time>2018-04-18T13:30:27Z</time>
      </trkpt>
      <trkpt lat="45.6582" lon="-0.21349">
        <ele>26.828125</ele>
        <time>2018-04-18T13:30:37Z</time>
      </trkpt>
      <trkpt lat="45.65811" lon="-0.21404">
        <ele>26.32421875</ele>
        <time>2018-04-18T13:30:45Z</time>
      </trkpt>
      <trkpt lat="45.65805" lon="-0.21438">
        <ele>26</ele>
        <time>2018-04-18T13:30:50Z</time>
      </trkpt>
      <trkpt lat="45.65805" lon="-0.21445">
        <ele>26</ele>
        <time>2018-04-18T13:30:51Z</time>
      </trkpt>
      <trkpt lat="45.65806" lon="-0.21452">
        <ele>26</ele>
        <time>2018-04-18T13:30:52Z</time>
      </trkpt>
      <trkpt lat="45.65808" lon="-0.21503">
        <ele>26</ele>
        <time>2018-04-18T13:31:00Z</time>
      </trkpt>
      <trkpt lat="45.65805" lon="-0.21507">
        <ele>26</ele>
        <time>2018-04-18T13:31:01Z</time>
      </trkpt>
      <trkpt lat="45.65801" lon="-0.21506">
        <ele>26</ele>
        <time>2018-04-18T13:31:02Z</time>
      </trkpt>
      <trkpt lat="45.65797" lon="-0.21503">
        <ele>26</ele>
        <time>2018-04-18T13:31:03Z</time>
      </trkpt>
      <trkpt lat="45.65794" lon="-0.215">
        <ele>26</ele>
        <time>2018-04-18T13:31:04Z</time>
      </trkpt>
      <trkpt lat="45.6579" lon="-0.21496">
        <ele>26</ele>
        <time>2018-04-18T13:31:05Z</time>
      </trkpt>
      <trkpt lat="45.65786" lon="-0.21493">
        <ele>26</ele>
        <time>2018-04-18T13:31:06Z</time>
      </trkpt>
      <trkpt lat="45.65766" lon="-0.21479">
        <ele>25.7109375</ele>
        <time>2018-04-18T13:31:11Z</time>
      </trkpt>
      <trkpt lat="45.65753" lon="-0.21473">
        <ele>25.234375</ele>
        <time>2018-04-18T13:31:14Z</time>
      </trkpt>
      <trkpt lat="45.65713" lon="-0.21452">
        <ele>23.90625</ele>
        <time>2018-04-18T13:31:23Z</time>
      </trkpt>
      <trkpt lat="45.65699" lon="-0.21447">
        <ele>23.65234375</ele>
        <time>2018-04-18T13:31:26Z</time>
      </trkpt>
      <trkpt lat="45.65694" lon="-0.21446">
        <ele>23.5625</ele>
        <time>2018-04-18T13:31:27Z</time>
      </trkpt>
      <trkpt lat="45.65689" lon="-0.21446">
        <ele>23.46875</ele>
        <time>2018-04-18T13:31:28Z</time>
      </trkpt>
      <trkpt lat="45.65669" lon="-0.21449">
        <ele>23.1171875</ele>
        <time>2018-04-18T13:31:33Z</time>
      </trkpt>
      <trkpt lat="45.65644" lon="-0.21454">
        <ele>22.453125</ele>
        <time>2018-04-18T13:31:40Z</time>
      </trkpt>
      <trkpt lat="45.6562" lon="-0.21457">
        <ele>21.8046875</ele>
        <time>2018-04-18T13:31:45Z</time>
      </trkpt>
      <trkpt lat="45.6561" lon="-0.2146">
        <ele>21.58203125</ele>
        <time>2018-04-18T13:31:47Z</time>
      </trkpt>
      <trkpt lat="45.65552" lon="-0.21462">
        <ele>21.1015625</ele>
        <time>2018-04-18T13:31:59Z</time>
      </trkpt>
      <trkpt lat="45.65547" lon="-0.21461">
        <ele>21.03515625</ele>
        <time>2018-04-18T13:32:00Z</time>
      </trkpt>
      <trkpt lat="45.65543" lon="-0.21461">
        <ele>20.97265625</ele>
        <time>2018-04-18T13:32:01Z</time>
      </trkpt>
      <trkpt lat="45.65538" lon="-0.21461">
        <ele>20.93359375</ele>
        <time>2018-04-18T13:32:02Z</time>
      </trkpt>
      <trkpt lat="45.65514" lon="-0.21463">
        <ele>20.765625</ele>
        <time>2018-04-18T13:32:07Z</time>
      </trkpt>
      <trkpt lat="45.65475" lon="-0.2147">
        <ele>20.69921875</ele>
        <time>2018-04-18T13:32:16Z</time>
      </trkpt>
      <trkpt lat="45.65449" lon="-0.21476">
        <ele>20.796875</ele>
        <time>2018-04-18T13:32:23Z</time>
      </trkpt>
      <trkpt lat="45.65445" lon="-0.21477">
        <ele>20.81640625</ele>
        <time>2018-04-18T13:32:24Z</time>
      </trkpt>
      <trkpt lat="45.65427" lon="-0.21487">
        <ele>20.9921875</ele>
        <time>2018-04-18T13:32:30Z</time>
      </trkpt>
      <trkpt lat="45.65407" lon="-0.21498">
        <ele>21</ele>
        <time>2018-04-18T13:32:36Z</time>
      </trkpt>
      <trkpt lat="45.65378" lon="-0.21508">
        <ele>20.92578125</ele>
        <time>2018-04-18T13:32:44Z</time>
      </trkpt>
      <trkpt lat="45.65354" lon="-0.21517">
        <ele>20.73828125</ele>
        <time>2018-04-18T13:32:51Z</time>
      </trkpt>
      <trkpt lat="45.65328" lon="-0.21522">
        <ele>20.62109375</ele>
        <time>2018-04-18T13:32:57Z</time>
      </trkpt>
      <trkpt lat="45.65315" lon="-0.21527">
        <ele>20.54296875</ele>
        <time>2018-04-18T13:33:00Z</time>
      </trkpt>
      <trkpt lat="45.65311" lon="-0.21529">
        <ele>20.50390625</ele>
        <time>2018-04-18T13:33:01Z</time>
      </trkpt>
      <trkpt lat="45.65306" lon="-0.21531">
        <ele>20.46484375</ele>
        <time>2018-04-18T13:33:02Z</time>
      </trkpt>
      <trkpt lat="45.65285" lon="-0.21538">
        <ele>20.1875</ele>
        <time>2018-04-18T13:33:07Z</time>
      </trkpt>
      <trkpt lat="45.65256" lon="-0.21545">
        <ele>20.03515625</ele>
        <time>2018-04-18T13:33:14Z</time>
      </trkpt>
      <trkpt lat="45.65252" lon="-0.21547">
        <ele>20.046875</ele>
        <time>2018-04-18T13:33:15Z</time>
      </trkpt>
      <trkpt lat="45.65248" lon="-0.21548">
        <ele>20.0546875</ele>
        <time>2018-04-18T13:33:16Z</time>
      </trkpt>
      <trkpt lat="45.65233" lon="-0.21552">
        <ele>20.046875</ele>
        <time>2018-04-18T13:33:19Z</time>
      </trkpt>
      <trkpt lat="45.65229" lon="-0.21553">
        <ele>20.03515625</ele>
        <time>2018-04-18T13:33:20Z</time>
      </trkpt>
      <trkpt lat="45.65225" lon="-0.21555">
        <ele>20.02734375</ele>
        <time>2018-04-18T13:33:21Z</time>
      </trkpt>
      <trkpt lat="45.65209" lon="-0.21564">
        <ele>19.828125</ele>
        <time>2018-04-18T13:33:25Z</time>
      </trkpt>
      <trkpt lat="45.65205" lon="-0.21565">
        <ele>19.75</ele>
        <time>2018-04-18T13:33:26Z</time>
      </trkpt>
      <trkpt lat="45.65201" lon="-0.21566">
        <ele>19.67578125</ele>
        <time>2018-04-18T13:33:27Z</time>
      </trkpt>
      <trkpt lat="45.65196" lon="-0.21566">
        <ele>19.6015625</ele>
        <time>2018-04-18T13:33:28Z</time>
      </trkpt>
      <trkpt lat="45.65192" lon="-0.21565">
        <ele>19.51953125</ele>
        <time>2018-04-18T13:33:29Z</time>
      </trkpt>
      <trkpt lat="45.65188" lon="-0.21564">
        <ele>19.44921875</ele>
        <time>2018-04-18T13:33:30Z</time>
      </trkpt>
      <trkpt lat="45.65184" lon="-0.21564">
        <ele>19.375</ele>
        <time>2018-04-18T13:33:31Z</time>
      </trkpt>
      <trkpt lat="45.65164" lon="-0.21558">
        <ele>19.0234375</ele>
        <time>2018-04-18T13:33:36Z</time>
      </trkpt>
      <trkpt lat="45.65144" lon="-0.21551">
        <ele>19</ele>
        <time>2018-04-18T13:33:41Z</time>
      </trkpt>
      <trkpt lat="45.65117" lon="-0.21536">
        <ele>19</ele>
        <time>2018-04-18T13:33:47Z</time>
      </trkpt>
      <trkpt lat="45.6509" lon="-0.21521">
        <ele>19</ele>
        <time>2018-04-18T13:33:53Z</time>
      </trkpt>
      <trkpt lat="45.65081" lon="-0.21512">
        <ele>19</ele>
        <time>2018-04-18T13:33:57Z</time>
      </trkpt>
      <trkpt lat="45.6508" lon="-0.21508">
        <ele>19</ele>
        <time>2018-04-18T13:33:59Z</time>
      </trkpt>
      <trkpt lat="45.65078" lon="-0.21505">
        <ele>19</ele>
        <time>2018-04-18T13:34:00Z</time>
      </trkpt>
      <trkpt lat="45.65076" lon="-0.21503">
        <ele>19</ele>
        <time>2018-04-18T13:34:01Z</time>
      </trkpt>
      <trkpt lat="45.65058" lon="-0.21482">
        <ele>19</ele>
        <time>2018-04-18T13:34:09Z</time>
      </trkpt>
      <trkpt lat="45.65038" lon="-0.21471">
        <ele>19</ele>
        <time>2018-04-18T13:34:17Z</time>
      </trkpt>
      <trkpt lat="45.65026" lon="-0.21474">
        <ele>19</ele>
        <time>2018-04-18T13:34:22Z</time>
      </trkpt>
      <trkpt lat="45.65015" lon="-0.21474">
        <ele>19</ele>
        <time>2018-04-18T13:34:28Z</time>
      </trkpt>
      <trkpt lat="45.65013" lon="-0.21473">
        <ele>19</ele>
        <time>2018-04-18T13:34:29Z</time>
      </trkpt>
      <trkpt lat="45.65003" lon="-0.21464">
        <ele>19</ele>
        <time>2018-04-18T13:34:36Z</time>
      </trkpt>
      <trkpt lat="45.64995" lon="-0.2145">
        <ele>19</ele>
        <time>2018-04-18T13:34:43Z</time>
      </trkpt>
      <trkpt lat="45.6499" lon="-0.21434">
        <ele>19</ele>
        <time>2018-04-18T13:34:49Z</time>
      </trkpt>
      <trkpt lat="45.64975" lon="-0.21409">
        <ele>19.41015625</ele>
        <time>2018-04-18T13:34:56Z</time>
      </trkpt>
      <trkpt lat="45.64959" lon="-0.21397">
        <ele>19.61328125</ele>
        <time>2018-04-18T13:35:03Z</time>
      </trkpt>
      <trkpt lat="45.64941" lon="-0.21399">
        <ele>19.58984375</ele>
        <time>2018-04-18T13:35:09Z</time>
      </trkpt>
      <trkpt lat="45.6492" lon="-0.21411">
        <ele>19.609375</ele>
        <time>2018-04-18T13:35:17Z</time>
      </trkpt>
      <trkpt lat="45.64898" lon="-0.21419">
        <ele>19.81640625</ele>
        <time>2018-04-18T13:35:23Z</time>
      </trkpt>
      <trkpt lat="45.64883" lon="-0.21432">
        <ele>19.99609375</ele>
        <time>2018-04-18T13:35:29Z</time>
      </trkpt>
      <trkpt lat="45.64865" lon="-0.2144">
        <ele>19.8515625</ele>
        <time>2018-04-18T13:35:35Z</time>
      </trkpt>
      <trkpt lat="45.6484" lon="-0.2144">
        <ele>19.84765625</ele>
        <time>2018-04-18T13:35:42Z</time>
      </trkpt>
      <trkpt lat="45.64818" lon="-0.2143">
        <ele>20.01953125</ele>
        <time>2018-04-18T13:35:49Z</time>
      </trkpt>
      <trkpt lat="45.648" lon="-0.21416">
        <ele>20.26953125</ele>
        <time>2018-04-18T13:35:55Z</time>
      </trkpt>
      <trkpt lat="45.64775" lon="-0.21398">
        <ele>20.6015625</ele>
        <time>2018-04-18T13:36:03Z</time>
      </trkpt>
      <trkpt lat="45.64755" lon="-0.21392">
        <ele>20.703125</ele>
        <time>2018-04-18T13:36:09Z</time>
      </trkpt>
      <trkpt lat="45.6473" lon="-0.2139">
        <ele>20.73828125</ele>
        <time>2018-04-18T13:36:16Z</time>
      </trkpt>
      <trkpt lat="45.64704" lon="-0.21389">
        <ele>20.83203125</ele>
        <time>2018-04-18T13:36:23Z</time>
      </trkpt>
      <trkpt lat="45.64678" lon="-0.21388">
        <ele>20.9453125</ele>
        <time>2018-04-18T13:36:30Z</time>
      </trkpt>
      <trkpt lat="45.64653" lon="-0.21393">
        <ele>21.125</ele>
        <time>2018-04-18T13:36:36Z</time>
      </trkpt>
      <trkpt lat="45.64622" lon="-0.21395">
        <ele>21.484375</ele>
        <time>2018-04-18T13:36:43Z</time>
      </trkpt>
      <trkpt lat="45.646" lon="-0.21401">
        <ele>21.55078125</ele>
        <time>2018-04-18T13:36:49Z</time>
      </trkpt>
      <trkpt lat="45.6458" lon="-0.21403">
        <ele>21.5078125</ele>
        <time>2018-04-18T13:36:55Z</time>
      </trkpt>
      <trkpt lat="45.64547" lon="-0.21406">
        <ele>21.50390625</ele>
        <time>2018-04-18T13:37:03Z</time>
      </trkpt>
      <trkpt lat="45.64516" lon="-0.21412">
        <ele>21.7734375</ele>
        <time>2018-04-18T13:37:11Z</time>
      </trkpt>
      <trkpt lat="45.64488" lon="-0.21422">
        <ele>22</ele>
        <time>2018-04-18T13:37:18Z</time>
      </trkpt>
      <trkpt lat="45.64457" lon="-0.21425">
        <ele>22</ele>
        <time>2018-04-18T13:37:26Z</time>
      </trkpt>
      <trkpt lat="45.6442" lon="-0.21418">
        <ele>22</ele>
        <time>2018-04-18T13:37:35Z</time>
      </trkpt>
      <trkpt lat="45.64385" lon="-0.21414">
        <ele>22.00390625</ele>
        <time>2018-04-18T13:37:44Z</time>
      </trkpt>
      <trkpt lat="45.64351" lon="-0.21407">
        <ele>22.26953125</ele>
        <time>2018-04-18T13:37:53Z</time>
      </trkpt>
      <trkpt lat="45.64311" lon="-0.21402">
        <ele>22.52734375</ele>
        <time>2018-04-18T13:38:03Z</time>
      </trkpt>
      <trkpt lat="45.64271" lon="-0.21401">
        <ele>22.56640625</ele>
        <time>2018-04-18T13:38:13Z</time>
      </trkpt>
      <trkpt lat="45.64239" lon="-0.214">
        <ele>22.84375</ele>
        <time>2018-04-18T13:38:21Z</time>
      </trkpt>
      <trkpt lat="45.64193" lon="-0.214">
        <ele>23.2578125</ele>
        <time>2018-04-18T13:38:33Z</time>
      </trkpt>
      <trkpt lat="45.64152" lon="-0.21405">
        <ele>23.47265625</ele>
        <time>2018-04-18T13:38:44Z</time>
      </trkpt>
      <trkpt lat="45.64133" lon="-0.21408">
        <ele>23.41796875</ele>
        <time>2018-04-18T13:38:49Z</time>
      </trkpt>
      <trkpt lat="45.64129" lon="-0.21409">
        <ele>23.3984375</ele>
        <time>2018-04-18T13:38:50Z</time>
      </trkpt>
      <trkpt lat="45.64089" lon="-0.21415">
        <ele>23.296875</ele>
        <time>2018-04-18T13:39:00Z</time>
      </trkpt>
      <trkpt lat="45.64051" lon="-0.21423">
        <ele>23.16796875</ele>
        <time>2018-04-18T13:39:10Z</time>
      </trkpt>
      <trkpt lat="45.64014" lon="-0.21442">
        <ele>23.56640625</ele>
        <time>2018-04-18T13:39:20Z</time>
      </trkpt>
      <trkpt lat="45.6401" lon="-0.21444">
        <ele>23.59765625</ele>
        <time>2018-04-18T13:39:21Z</time>
      </trkpt>
      <trkpt lat="45.63968" lon="-0.21474">
        <ele>23.75</ele>
        <time>2018-04-18T13:39:32Z</time>
      </trkpt>
      <trkpt lat="45.63964" lon="-0.21477">
        <ele>23.765625</ele>
        <time>2018-04-18T13:39:33Z</time>
      </trkpt>
      <trkpt lat="45.63961" lon="-0.2148">
        <ele>23.78515625</ele>
        <time>2018-04-18T13:39:34Z</time>
      </trkpt>
      <trkpt lat="45.63929" lon="-0.21509">
        <ele>24.21875</ele>
        <time>2018-04-18T13:39:44Z</time>
      </trkpt>
      <trkpt lat="45.6393" lon="-0.21513">
        <ele>24.21484375</ele>
        <time>2018-04-18T13:39:45Z</time>
      </trkpt>
      <trkpt lat="45.63931" lon="-0.21518">
        <ele>24.18359375</ele>
        <time>2018-04-18T13:39:46Z</time>
      </trkpt>
      <trkpt lat="45.63944" lon="-0.2156">
        <ele>23.66015625</ele>
        <time>2018-04-18T13:39:54Z</time>
      </trkpt>
      <trkpt lat="45.63969" lon="-0.21639">
        <ele>22.62890625</ele>
        <time>2018-04-18T13:40:06Z</time>
      </trkpt>
      <trkpt lat="45.63997" lon="-0.21727">
        <ele>22.00390625</ele>
        <time>2018-04-18T13:40:18Z</time>
      </trkpt>
      <trkpt lat="45.64023" lon="-0.21819">
        <ele>22</ele>
        <time>2018-04-18T13:40:30Z</time>
      </trkpt>
      <trkpt lat="45.64043" lon="-0.21889">
        <ele>22.0390625</ele>
        <time>2018-04-18T13:40:40Z</time>
      </trkpt>
      <trkpt lat="45.64046" lon="-0.21894">
        <ele>22.03515625</ele>
        <time>2018-04-18T13:40:41Z</time>
      </trkpt>
      <trkpt lat="45.64051" lon="-0.21897">
        <ele>22.01171875</ele>
        <time>2018-04-18T13:40:42Z</time>
      </trkpt>
      <trkpt lat="45.64055" lon="-0.21897">
        <ele>22</ele>
        <time>2018-04-18T13:40:43Z</time>
      </trkpt>
      <trkpt lat="45.6406" lon="-0.21896">
        <ele>22</ele>
        <time>2018-04-18T13:40:44Z</time>
      </trkpt>
      <trkpt lat="45.64064" lon="-0.21894">
        <ele>22</ele>
        <time>2018-04-18T13:40:45Z</time>
      </trkpt>
      <trkpt lat="45.64069" lon="-0.21891">
        <ele>22</ele>
        <time>2018-04-18T13:40:46Z</time>
      </trkpt>
      <trkpt lat="45.64087" lon="-0.21881">
        <ele>22</ele>
        <time>2018-04-18T13:40:50Z</time>
      </trkpt>
      <trkpt lat="45.64092" lon="-0.21882">
        <ele>22</ele>
        <time>2018-04-18T13:40:51Z</time>
      </trkpt>
      <trkpt lat="45.64095" lon="-0.21887">
        <ele>22</ele>
        <time>2018-04-18T13:40:52Z</time>
      </trkpt>
      <trkpt lat="45.64098" lon="-0.21894">
        <ele>22</ele>
        <time>2018-04-18T13:40:53Z</time>
      </trkpt>
      <trkpt lat="45.64099" lon="-0.21901">
        <ele>22</ele>
        <time>2018-04-18T13:40:54Z</time>
      </trkpt>
      <trkpt lat="45.64118" lon="-0.22008">
        <ele>22</ele>
        <time>2018-04-18T13:41:09Z</time>
      </trkpt>
      <trkpt lat="45.64132" lon="-0.221">
        <ele>22.5625</ele>
        <time>2018-04-18T13:41:22Z</time>
      </trkpt>
      <trkpt lat="45.6413" lon="-0.22159">
        <ele>22.609375</ele>
        <time>2018-04-18T13:41:30Z</time>
      </trkpt>
      <trkpt lat="45.64128" lon="-0.22231">
        <ele>22.64453125</ele>
        <time>2018-04-18T13:41:40Z</time>
      </trkpt>
      <trkpt lat="45.64136" lon="-0.22288">
        <ele>22.49609375</ele>
        <time>2018-04-18T13:41:48Z</time>
      </trkpt>
      <trkpt lat="45.64147" lon="-0.22344">
        <ele>22.29296875</ele>
        <time>2018-04-18T13:41:56Z</time>
      </trkpt>
      <trkpt lat="45.64151" lon="-0.22358">
        <ele>22.22265625</ele>
        <time>2018-04-18T13:41:58Z</time>
      </trkpt>
      <trkpt lat="45.64178" lon="-0.22458">
        <ele>22</ele>
        <time>2018-04-18T13:42:11Z</time>
      </trkpt>
      <trkpt lat="45.64199" lon="-0.22544">
        <ele>22</ele>
        <time>2018-04-18T13:42:22Z</time>
      </trkpt>
      <trkpt lat="45.64213" lon="-0.22623">
        <ele>22</ele>
        <time>2018-04-18T13:42:32Z</time>
      </trkpt>
      <trkpt lat="45.64224" lon="-0.22714">
        <ele>22</ele>
        <time>2018-04-18T13:42:43Z</time>
      </trkpt>
      <trkpt lat="45.64233" lon="-0.22774">
        <ele>22</ele>
        <time>2018-04-18T13:42:51Z</time>
      </trkpt>
      <trkpt lat="45.64233" lon="-0.22781">
        <ele>22</ele>
        <time>2018-04-18T13:42:52Z</time>
      </trkpt>
      <trkpt lat="45.64231" lon="-0.22786">
        <ele>22</ele>
        <time>2018-04-18T13:42:53Z</time>
      </trkpt>
      <trkpt lat="45.64228" lon="-0.22789">
        <ele>22</ele>
        <time>2018-04-18T13:42:54Z</time>
      </trkpt>
      <trkpt lat="45.64223" lon="-0.22791">
        <ele>22</ele>
        <time>2018-04-18T13:42:55Z</time>
      </trkpt>
      <trkpt lat="45.64219" lon="-0.22792">
        <ele>22</ele>
        <time>2018-04-18T13:42:56Z</time>
      </trkpt>
      <trkpt lat="45.64214" lon="-0.22793">
        <ele>22</ele>
        <time>2018-04-18T13:42:57Z</time>
      </trkpt>
      <trkpt lat="45.64158" lon="-0.22813">
        <ele>22</ele>
        <time>2018-04-18T13:43:09Z</time>
      </trkpt>
      <trkpt lat="45.64128" lon="-0.22821">
        <ele>22.01171875</ele>
        <time>2018-04-18T13:43:16Z</time>
      </trkpt>
      <trkpt lat="45.64125" lon="-0.22817">
        <ele>22</ele>
        <time>2018-04-18T13:43:17Z</time>
      </trkpt>
      <trkpt lat="45.64113" lon="-0.22783">
        <ele>22</ele>
        <time>2018-04-18T13:43:23Z</time>
      </trkpt>
      <trkpt lat="45.64109" lon="-0.22772">
        <ele>22</ele>
        <time>2018-04-18T13:43:25Z</time>
      </trkpt>
      <trkpt lat="45.641" lon="-0.22751">
        <ele>22</ele>
        <time>2018-04-18T13:43:29Z</time>
      </trkpt>
      <trkpt lat="45.6409" lon="-0.22723">
        <ele>22</ele>
        <time>2018-04-18T13:43:34Z</time>
      </trkpt>
      <trkpt lat="45.64081" lon="-0.22694">
        <ele>22</ele>
        <time>2018-04-18T13:43:39Z</time>
      </trkpt>
      <trkpt lat="45.64073" lon="-0.22671">
        <ele>22</ele>
        <time>2018-04-18T13:43:43Z</time>
      </trkpt>
      <trkpt lat="45.64062" lon="-0.22637">
        <ele>22.2421875</ele>
        <time>2018-04-18T13:43:49Z</time>
      </trkpt>
      <trkpt lat="45.6404" lon="-0.22594">
        <ele>23</ele>
        <time>2018-04-18T13:43:58Z</time>
      </trkpt>
      <trkpt lat="45.64022" lon="-0.22601">
        <ele>22.96875</ele>
        <time>2018-04-18T13:44:04Z</time>
      </trkpt>
      <trkpt lat="45.63987" lon="-0.22615">
        <ele>23</ele>
        <time>2018-04-18T13:44:13Z</time>
      </trkpt>
      <trkpt lat="45.63967" lon="-0.22623">
        <ele>23</ele>
        <time>2018-04-18T13:44:18Z</time>
      </trkpt>
      <trkpt lat="45.63942" lon="-0.22635">
        <ele>23</ele>
        <time>2018-04-18T13:44:25Z</time>
      </trkpt>
      <trkpt lat="45.63917" lon="-0.22647">
        <ele>23.44140625</ele>
        <time>2018-04-18T13:44:32Z</time>
      </trkpt>
      <trkpt lat="45.63883" lon="-0.22655">
        <ele>24.046875</ele>
        <time>2018-04-18T13:44:41Z</time>
      </trkpt>
      <trkpt lat="45.63853" lon="-0.22659">
        <ele>24.6015625</ele>
        <time>2018-04-18T13:44:49Z</time>
      </trkpt>
      <trkpt lat="45.63815" lon="-0.22666">
        <ele>25</ele>
        <time>2018-04-18T13:44:58Z</time>
      </trkpt>
      <trkpt lat="45.63772" lon="-0.22676">
        <ele>25</ele>
        <time>2018-04-18T13:45:09Z</time>
      </trkpt>
      <trkpt lat="45.63759" lon="-0.22676">
        <ele>25</ele>
        <time>2018-04-18T13:45:13Z</time>
      </trkpt>
      <trkpt lat="45.63756" lon="-0.22674">
        <ele>25</ele>
        <time>2018-04-18T13:45:14Z</time>
      </trkpt>
      <trkpt lat="45.63755" lon="-0.22671">
        <ele>25</ele>
        <time>2018-04-18T13:45:15Z</time>
      </trkpt>
      <trkpt lat="45.63754" lon="-0.22666">
        <ele>25</ele>
        <time>2018-04-18T13:45:16Z</time>
      </trkpt>
      <trkpt lat="45.63753" lon="-0.22661">
        <ele>25</ele>
        <time>2018-04-18T13:45:17Z</time>
      </trkpt>
      <trkpt lat="45.63753" lon="-0.22656">
        <ele>25</ele>
        <time>2018-04-18T13:45:18Z</time>
      </trkpt>
      <trkpt lat="45.63753" lon="-0.22651">
        <ele>25</ele>
        <time>2018-04-18T13:45:19Z</time>
      </trkpt>
      <trkpt lat="45.63748" lon="-0.22602">
        <ele>25</ele>
        <time>2018-04-18T13:45:28Z</time>
      </trkpt>
      <trkpt lat="45.63743" lon="-0.22573">
        <ele>25</ele>
        <time>2018-04-18T13:45:34Z</time>
      </trkpt>
      <trkpt lat="45.63741" lon="-0.22569">
        <ele>25</ele>
        <time>2018-04-18T13:45:35Z</time>
      </trkpt>
      <trkpt lat="45.63737" lon="-0.22567">
        <ele>25</ele>
        <time>2018-04-18T13:45:36Z</time>
      </trkpt>
      <trkpt lat="45.63734" lon="-0.22566">
        <ele>25</ele>
        <time>2018-04-18T13:45:37Z</time>
      </trkpt>
      <trkpt lat="45.63731" lon="-0.22566">
        <ele>25</ele>
        <time>2018-04-18T13:45:38Z</time>
      </trkpt>
      <trkpt lat="45.63726" lon="-0.22566">
        <ele>25</ele>
        <time>2018-04-18T13:45:39Z</time>
      </trkpt>
      <trkpt lat="45.63723" lon="-0.22565">
        <ele>25</ele>
        <time>2018-04-18T13:45:40Z</time>
      </trkpt>
      <trkpt lat="45.63719" lon="-0.22565">
        <ele>25.0078125</ele>
        <time>2018-04-18T13:45:41Z</time>
      </trkpt>
      <trkpt lat="45.63715" lon="-0.22565">
        <ele>25.078125</ele>
        <time>2018-04-18T13:45:42Z</time>
      </trkpt>
      <trkpt lat="45.63696" lon="-0.22561">
        <ele>25.42578125</ele>
        <time>2018-04-18T13:45:47Z</time>
      </trkpt>
      <trkpt lat="45.6368" lon="-0.22553">
        <ele>25.70703125</ele>
        <time>2018-04-18T13:45:51Z</time>
      </trkpt>
      <trkpt lat="45.63676" lon="-0.22549">
        <ele>25.78125</ele>
        <time>2018-04-18T13:45:52Z</time>
      </trkpt>
      <trkpt lat="45.63642" lon="-0.22509">
        <ele>26</ele>
        <time>2018-04-18T13:46:02Z</time>
      </trkpt>
      <trkpt lat="45.63636" lon="-0.22503">
        <ele>26</ele>
        <time>2018-04-18T13:46:04Z</time>
      </trkpt>
      <trkpt lat="45.63634" lon="-0.22504">
        <ele>26</ele>
        <time>2018-04-18T13:46:05Z</time>
      </trkpt>
      <trkpt lat="45.63632" lon="-0.22505">
        <ele>26</ele>
        <time>2018-04-18T13:46:06Z</time>
      </trkpt>
      <trkpt lat="45.6363" lon="-0.22506">
        <ele>26</ele>
        <time>2018-04-18T13:46:07Z</time>
      </trkpt>
      <trkpt lat="45.63626" lon="-0.22508">
        <ele>26</ele>
        <time>2018-04-18T13:46:22Z</time>
      </trkpt>
      <trkpt lat="45.63623" lon="-0.22509">
        <ele>26</ele>
        <time>2018-04-18T13:46:23Z</time>
      </trkpt>
      <trkpt lat="45.63619" lon="-0.2251">
        <ele>26</ele>
        <time>2018-04-18T13:46:24Z</time>
      </trkpt>
      <trkpt lat="45.6358" lon="-0.2252">
        <ele>26.5078125</ele>
        <time>2018-04-18T13:46:34Z</time>
      </trkpt>
      <trkpt lat="45.63542" lon="-0.22539">
        <ele>27</ele>
        <time>2018-04-18T13:46:43Z</time>
      </trkpt>
      <trkpt lat="45.63517" lon="-0.22555">
        <ele>27</ele>
        <time>2018-04-18T13:46:49Z</time>
      </trkpt>
      <trkpt lat="45.63512" lon="-0.22558">
        <ele>27</ele>
        <time>2018-04-18T13:46:50Z</time>
      </trkpt>
      <trkpt lat="45.63498" lon="-0.22565">
        <ele>27</ele>
        <time>2018-04-18T13:46:53Z</time>
      </trkpt>
      <trkpt lat="45.63493" lon="-0.22567">
        <ele>27</ele>
        <time>2018-04-18T13:46:54Z</time>
      </trkpt>
      <trkpt lat="45.63488" lon="-0.22569">
        <ele>27</ele>
        <time>2018-04-18T13:46:55Z</time>
      </trkpt>
      <trkpt lat="45.63483" lon="-0.22572">
        <ele>27</ele>
        <time>2018-04-18T13:46:56Z</time>
      </trkpt>
      <trkpt lat="45.63479" lon="-0.22574">
        <ele>27</ele>
        <time>2018-04-18T13:46:57Z</time>
      </trkpt>
      <trkpt lat="45.63474" lon="-0.22576">
        <ele>27</ele>
        <time>2018-04-18T13:46:58Z</time>
      </trkpt>
      <trkpt lat="45.63459" lon="-0.22582">
        <ele>27</ele>
        <time>2018-04-18T13:47:01Z</time>
      </trkpt>
      <trkpt lat="45.63429" lon="-0.22585">
        <ele>27.23046875</ele>
        <time>2018-04-18T13:47:07Z</time>
      </trkpt>
      <trkpt lat="45.63424" lon="-0.22585">
        <ele>27.32421875</ele>
        <time>2018-04-18T13:47:08Z</time>
      </trkpt>
      <trkpt lat="45.63382" lon="-0.22583">
        <ele>28</ele>
        <time>2018-04-18T13:47:16Z</time>
      </trkpt>
      <trkpt lat="45.63341" lon="-0.22571">
        <ele>28</ele>
        <time>2018-04-18T13:47:24Z</time>
      </trkpt>
      <trkpt lat="45.63337" lon="-0.22568">
        <ele>28</ele>
        <time>2018-04-18T13:47:25Z</time>
      </trkpt>
      <trkpt lat="45.63334" lon="-0.22563">
        <ele>28</ele>
        <time>2018-04-18T13:47:26Z</time>
      </trkpt>
      <trkpt lat="45.6333" lon="-0.22558">
        <ele>28.01171875</ele>
        <time>2018-04-18T13:47:27Z</time>
      </trkpt>
      <trkpt lat="45.63327" lon="-0.22552">
        <ele>28.0703125</ele>
        <time>2018-04-18T13:47:28Z</time>
      </trkpt>
      <trkpt lat="45.63324" lon="-0.22547">
        <ele>28.125</ele>
        <time>2018-04-18T13:47:29Z</time>
      </trkpt>
      <trkpt lat="45.63298" lon="-0.22503">
        <ele>28.58984375</ele>
        <time>2018-04-18T13:47:37Z</time>
      </trkpt>
      <trkpt lat="45.63292" lon="-0.22494">
        <ele>28.69921875</ele>
        <time>2018-04-18T13:47:39Z</time>
      </trkpt>
      <trkpt lat="45.63288" lon="-0.22492">
        <ele>28.765625</ele>
        <time>2018-04-18T13:47:40Z</time>
      </trkpt>
      <trkpt lat="45.63284" lon="-0.22491">
        <ele>28.83984375</ele>
        <time>2018-04-18T13:47:41Z</time>
      </trkpt>
      <trkpt lat="45.6328" lon="-0.22493">
        <ele>28.9140625</ele>
        <time>2018-04-18T13:47:42Z</time>
      </trkpt>
      <trkpt lat="45.63276" lon="-0.22495">
        <ele>28.984375</ele>
        <time>2018-04-18T13:47:43Z</time>
      </trkpt>
      <trkpt lat="45.63272" lon="-0.22498">
        <ele>29.046875</ele>
        <time>2018-04-18T13:47:44Z</time>
      </trkpt>
      <trkpt lat="45.63222" lon="-0.22533">
        <ele>29.14453125</ele>
        <time>2018-04-18T13:47:56Z</time>
      </trkpt>
      <trkpt lat="45.63218" lon="-0.22537">
        <ele>29.1171875</ele>
        <time>2018-04-18T13:47:57Z</time>
      </trkpt>
      <trkpt lat="45.63215" lon="-0.2254">
        <ele>29.11328125</ele>
        <time>2018-04-18T13:47:58Z</time>
      </trkpt>
      <trkpt lat="45.63212" lon="-0.22544">
        <ele>29.14453125</ele>
        <time>2018-04-18T13:47:59Z</time>
      </trkpt>
      <trkpt lat="45.63208" lon="-0.22547">
        <ele>29.20703125</ele>
        <time>2018-04-18T13:48:00Z</time>
      </trkpt>
      <trkpt lat="45.63205" lon="-0.2255">
        <ele>29.2734375</ele>
        <time>2018-04-18T13:48:01Z</time>
      </trkpt>
      <trkpt lat="45.6319" lon="-0.2256">
        <ele>29.53515625</ele>
        <time>2018-04-18T13:48:05Z</time>
      </trkpt>
      <trkpt lat="45.63186" lon="-0.22563">
        <ele>29.6015625</ele>
        <time>2018-04-18T13:48:06Z</time>
      </trkpt>
      <trkpt lat="45.63148" lon="-0.22592">
        <ele>30.296875</ele>
        <time>2018-04-18T13:48:17Z</time>
      </trkpt>
      <trkpt lat="45.63118" lon="-0.22618">
        <ele>30.52734375</ele>
        <time>2018-04-18T13:48:26Z</time>
      </trkpt>
      <trkpt lat="45.63106" lon="-0.22624">
        <ele>30.546875</ele>
        <time>2018-04-18T13:48:30Z</time>
      </trkpt>
      <trkpt lat="45.63104" lon="-0.22622">
        <ele>30.6015625</ele>
        <time>2018-04-18T13:48:31Z</time>
      </trkpt>
      <trkpt lat="45.63099" lon="-0.22615">
        <ele>30.73046875</ele>
        <time>2018-04-18T13:48:33Z</time>
      </trkpt>
      <trkpt lat="45.63074" lon="-0.22566">
        <ele>31</ele>
        <time>2018-04-18T13:48:45Z</time>
      </trkpt>
      <trkpt lat="45.63048" lon="-0.2252">
        <ele>31.09375</ele>
        <time>2018-04-18T13:48:56Z</time>
      </trkpt>
      <trkpt lat="45.63025" lon="-0.22484">
        <ele>31.5078125</ele>
        <time>2018-04-18T13:49:05Z</time>
      </trkpt>
      <trkpt lat="45.63022" lon="-0.22485">
        <ele>31.5703125</ele>
        <time>2018-04-18T13:49:06Z</time>
      </trkpt>
      <trkpt lat="45.63018" lon="-0.22487">
        <ele>31.625</ele>
        <time>2018-04-18T13:49:07Z</time>
      </trkpt>
      <trkpt lat="45.63016" lon="-0.22491">
        <ele>31.67578125</ele>
        <time>2018-04-18T13:49:08Z</time>
      </trkpt>
      <trkpt lat="45.63013" lon="-0.22495">
        <ele>31.72265625</ele>
        <time>2018-04-18T13:49:09Z</time>
      </trkpt>
      <trkpt lat="45.6301" lon="-0.22498">
        <ele>31.7734375</ele>
        <time>2018-04-18T13:49:10Z</time>
      </trkpt>
      <trkpt lat="45.63007" lon="-0.22501">
        <ele>31.828125</ele>
        <time>2018-04-18T13:49:11Z</time>
      </trkpt>
      <trkpt lat="45.63004" lon="-0.22505">
        <ele>31.87890625</ele>
        <time>2018-04-18T13:49:12Z</time>
      </trkpt>
      <trkpt lat="45.62984" lon="-0.22529">
        <ele>32.25390625</ele>
        <time>2018-04-18T13:49:20Z</time>
      </trkpt>
      <trkpt lat="45.62955" lon="-0.22561">
        <ele>32.76171875</ele>
        <time>2018-04-18T13:49:30Z</time>
      </trkpt>
      <trkpt lat="45.62919" lon="-0.226">
        <ele>33.796875</ele>
        <time>2018-04-18T13:49:42Z</time>
      </trkpt>
      <trkpt lat="45.62877" lon="-0.22646">
        <ele>34.26953125</ele>
        <time>2018-04-18T13:49:56Z</time>
      </trkpt>
      <trkpt lat="45.6285" lon="-0.22682">
        <ele>34.15234375</ele>
        <time>2018-04-18T13:50:05Z</time>
      </trkpt>
      <trkpt lat="45.62815" lon="-0.22728">
        <ele>33.75390625</ele>
        <time>2018-04-18T13:50:15Z</time>
      </trkpt>
      <trkpt lat="45.62779" lon="-0.22776">
        <ele>33.73046875</ele>
        <time>2018-04-18T13:50:25Z</time>
      </trkpt>
      <trkpt lat="45.62731" lon="-0.22831">
        <ele>33.84765625</ele>
        <time>2018-04-18T13:50:38Z</time>
      </trkpt>
      <trkpt lat="45.62689" lon="-0.2288">
        <ele>34.56640625</ele>
        <time>2018-04-18T13:50:50Z</time>
      </trkpt>
      <trkpt lat="45.62657" lon="-0.22915">
        <ele>35.140625</ele>
        <time>2018-04-18T13:50:59Z</time>
      </trkpt>
      <trkpt lat="45.62653" lon="-0.22917">
        <ele>35.2109375</ele>
        <time>2018-04-18T13:51:00Z</time>
      </trkpt>
      <trkpt lat="45.62649" lon="-0.2292">
        <ele>35.27734375</ele>
        <time>2018-04-18T13:51:01Z</time>
      </trkpt>
      <trkpt lat="45.6263" lon="-0.22942">
        <ele>35.62890625</ele>
        <time>2018-04-18T13:51:08Z</time>
      </trkpt>
      <trkpt lat="45.62629" lon="-0.22943">
        <ele>35.640625</ele>
        <time>2018-04-18T13:51:13Z</time>
      </trkpt>
      <trkpt lat="45.62629" lon="-0.22943">
        <ele>35.640625</ele>
        <time>2018-04-18T13:51:25Z</time>
      </trkpt>
      <trkpt lat="45.62626" lon="-0.22947">
        <ele>35.6953125</ele>
        <time>2018-04-18T13:51:40Z</time>
      </trkpt>
      <trkpt lat="45.62613" lon="-0.22964">
        <ele>35.9296875</ele>
        <time>2018-04-18T13:51:46Z</time>
      </trkpt>
      <trkpt lat="45.6259" lon="-0.22994">
        <ele>36.6875</ele>
        <time>2018-04-18T13:51:55Z</time>
      </trkpt>
      <trkpt lat="45.62564" lon="-0.23026">
        <ele>37.625</ele>
        <time>2018-04-18T13:52:05Z</time>
      </trkpt>
      <trkpt lat="45.62542" lon="-0.23061">
        <ele>38.61328125</ele>
        <time>2018-04-18T13:52:15Z</time>
      </trkpt>
      <trkpt lat="45.62524" lon="-0.23092">
        <ele>39.5859375</ele>
        <time>2018-04-18T13:52:24Z</time>
      </trkpt>
      <trkpt lat="45.62506" lon="-0.23122">
        <ele>40.61328125</ele>
        <time>2018-04-18T13:52:33Z</time>
      </trkpt>
      <trkpt lat="45.62488" lon="-0.23153">
        <ele>41.875</ele>
        <time>2018-04-18T13:52:43Z</time>
      </trkpt>
      <trkpt lat="45.62467" lon="-0.23188">
        <ele>43.7578125</ele>
        <time>2018-04-18T13:52:56Z</time>
      </trkpt>
      <trkpt lat="45.62451" lon="-0.23215">
        <ele>45.18359375</ele>
        <time>2018-04-18T13:53:06Z</time>
      </trkpt>
      <trkpt lat="45.62431" lon="-0.2325">
        <ele>46.93359375</ele>
        <time>2018-04-18T13:53:19Z</time>
      </trkpt>
      <trkpt lat="45.62415" lon="-0.23278">
        <ele>48.61328125</ele>
        <time>2018-04-18T13:53:30Z</time>
      </trkpt>
      <trkpt lat="45.62399" lon="-0.23303">
        <ele>50.45703125</ele>
        <time>2018-04-18T13:53:40Z</time>
      </trkpt>
      <trkpt lat="45.62383" lon="-0.23316">
        <ele>52.296875</ele>
        <time>2018-04-18T13:53:48Z</time>
      </trkpt>
      <trkpt lat="45.62362" lon="-0.23334">
        <ele>54.578125</ele>
        <time>2018-04-18T13:53:58Z</time>
      </trkpt>
      <trkpt lat="45.62341" lon="-0.23352">
        <ele>57.19921875</ele>
        <time>2018-04-18T13:54:08Z</time>
      </trkpt>
      <trkpt lat="45.62316" lon="-0.23374">
        <ele>59.78515625</ele>
        <time>2018-04-18T13:54:20Z</time>
      </trkpt>
      <trkpt lat="45.62291" lon="-0.23396">
        <ele>61.9296875</ele>
        <time>2018-04-18T13:54:32Z</time>
      </trkpt>
      <trkpt lat="45.62271" lon="-0.23417">
        <ele>63.51171875</ele>
        <time>2018-04-18T13:54:42Z</time>
      </trkpt>
      <trkpt lat="45.6225" lon="-0.23442">
        <ele>64.51953125</ele>
        <time>2018-04-18T13:54:53Z</time>
      </trkpt>
      <trkpt lat="45.62224" lon="-0.23469">
        <ele>66.046875</ele>
        <time>2018-04-18T13:55:03Z</time>
      </trkpt>
      <trkpt lat="45.62187" lon="-0.23504">
        <ele>67.140625</ele>
        <time>2018-04-18T13:55:13Z</time>
      </trkpt>
      <trkpt lat="45.62153" lon="-0.23537">
        <ele>67.625</ele>
        <time>2018-04-18T13:55:21Z</time>
      </trkpt>
      <trkpt lat="45.62122" lon="-0.23566">
        <ele>66.05078125</ele>
        <time>2018-04-18T13:55:28Z</time>
      </trkpt>
      <trkpt lat="45.62066" lon="-0.23623">
        <ele>63.90234375</ele>
        <time>2018-04-18T13:55:40Z</time>
      </trkpt>
      <trkpt lat="45.62026" lon="-0.23665">
        <ele>62.84375</ele>
        <time>2018-04-18T13:55:49Z</time>
      </trkpt>
      <trkpt lat="45.61997" lon="-0.23694">
        <ele>61.6953125</ele>
        <time>2018-04-18T13:55:55Z</time>
      </trkpt>
      <trkpt lat="45.61953" lon="-0.23734">
        <ele>60.47265625</ele>
        <time>2018-04-18T13:56:03Z</time>
      </trkpt>
      <trkpt lat="45.61895" lon="-0.23788">
        <ele>58.890625</ele>
        <time>2018-04-18T13:56:13Z</time>
      </trkpt>
      <trkpt lat="45.61867" lon="-0.23818">
        <ele>57.5625</ele>
        <time>2018-04-18T13:56:18Z</time>
      </trkpt>
      <trkpt lat="45.61861" lon="-0.23823">
        <ele>57.125</ele>
        <time>2018-04-18T13:56:19Z</time>
      </trkpt>
      <trkpt lat="45.61848" lon="-0.23831">
        <ele>56.18359375</ele>
        <time>2018-04-18T13:56:21Z</time>
      </trkpt>
      <trkpt lat="45.61822" lon="-0.23851">
        <ele>54.3046875</ele>
        <time>2018-04-18T13:56:25Z</time>
      </trkpt>
      <trkpt lat="45.61788" lon="-0.23878">
        <ele>51.8359375</ele>
        <time>2018-04-18T13:56:30Z</time>
      </trkpt>
      <trkpt lat="45.61754" lon="-0.23905">
        <ele>49.8125</ele>
        <time>2018-04-18T13:56:35Z</time>
      </trkpt>
      <trkpt lat="45.61698" lon="-0.23949">
        <ele>47.18359375</ele>
        <time>2018-04-18T13:56:44Z</time>
      </trkpt>
      <trkpt lat="45.6165" lon="-0.23986">
        <ele>45.44140625</ele>
        <time>2018-04-18T13:56:52Z</time>
      </trkpt>
      <trkpt lat="45.61618" lon="-0.24005">
        <ele>44.296875</ele>
        <time>2018-04-18T13:56:58Z</time>
      </trkpt>
      <trkpt lat="45.61616" lon="-0.24003">
        <ele>44.22265625</ele>
        <time>2018-04-18T13:56:59Z</time>
      </trkpt>
      <trkpt lat="45.61615" lon="-0.23999">
        <ele>44.1875</ele>
        <time>2018-04-18T13:57:00Z</time>
      </trkpt>
      <trkpt lat="45.61614" lon="-0.23995">
        <ele>44.15625</ele>
        <time>2018-04-18T13:57:01Z</time>
      </trkpt>
      <trkpt lat="45.61613" lon="-0.23992">
        <ele>44.12109375</ele>
        <time>2018-04-18T13:57:02Z</time>
      </trkpt>
      <trkpt lat="45.61612" lon="-0.23988">
        <ele>44.08984375</ele>
        <time>2018-04-18T13:57:03Z</time>
      </trkpt>
      <trkpt lat="45.61611" lon="-0.23984">
        <ele>44.04296875</ele>
        <time>2018-04-18T13:57:04Z</time>
      </trkpt>
      <trkpt lat="45.61591" lon="-0.23934">
        <ele>43.66796875</ele>
        <time>2018-04-18T13:57:14Z</time>
      </trkpt>
      <trkpt lat="45.61586" lon="-0.23924">
        <ele>43.62109375</ele>
        <time>2018-04-18T13:57:16Z</time>
      </trkpt>
      <trkpt lat="45.61584" lon="-0.23919">
        <ele>43.62890625</ele>
        <time>2018-04-18T13:57:17Z</time>
      </trkpt>
      <trkpt lat="45.61568" lon="-0.23879">
        <ele>43.93359375</ele>
        <time>2018-04-18T13:57:25Z</time>
      </trkpt>
      <trkpt lat="45.61549" lon="-0.23835">
        <ele>44</ele>
        <time>2018-04-18T13:57:35Z</time>
      </trkpt>
      <trkpt lat="45.61533" lon="-0.23795">
        <ele>44</ele>
        <time>2018-04-18T13:57:44Z</time>
      </trkpt>
      <trkpt lat="45.61514" lon="-0.2375">
        <ele>44</ele>
        <time>2018-04-18T13:57:55Z</time>
      </trkpt>
      <trkpt lat="45.61493" lon="-0.23709">
        <ele>44</ele>
        <time>2018-04-18T13:58:06Z</time>
      </trkpt>
      <trkpt lat="45.61473" lon="-0.23676">
        <ele>44</ele>
        <time>2018-04-18T13:58:15Z</time>
      </trkpt>
      <trkpt lat="45.61451" lon="-0.23634">
        <ele>44</ele>
        <time>2018-04-18T13:58:26Z</time>
      </trkpt>
      <trkpt lat="45.61436" lon="-0.23633">
        <ele>44.04296875</ele>
        <time>2018-04-18T13:58:31Z</time>
      </trkpt>
      <trkpt lat="45.61409" lon="-0.23648">
        <ele>44.04296875</ele>
        <time>2018-04-18T13:58:39Z</time>
      </trkpt>
      <trkpt lat="45.61365" lon="-0.23671">
        <ele>44</ele>
        <time>2018-04-18T13:58:52Z</time>
      </trkpt>
      <trkpt lat="45.61323" lon="-0.23697">
        <ele>44</ele>
        <time>2018-04-18T13:59:04Z</time>
      </trkpt>
      <trkpt lat="45.61295" lon="-0.23712">
        <ele>44</ele>
        <time>2018-04-18T13:59:12Z</time>
      </trkpt>
      <trkpt lat="45.61292" lon="-0.23711">
        <ele>44</ele>
        <time>2018-04-18T13:59:13Z</time>
      </trkpt>
      <trkpt lat="45.61289" lon="-0.23709">
        <ele>44</ele>
        <time>2018-04-18T13:59:14Z</time>
      </trkpt>
      <trkpt lat="45.61287" lon="-0.23706">
        <ele>44</ele>
        <time>2018-04-18T13:59:15Z</time>
      </trkpt>
      <trkpt lat="45.61285" lon="-0.23702">
        <ele>44</ele>
        <time>2018-04-18T13:59:16Z</time>
      </trkpt>
      <trkpt lat="45.61283" lon="-0.23698">
        <ele>44</ele>
        <time>2018-04-18T13:59:17Z</time>
      </trkpt>
      <trkpt lat="45.61282" lon="-0.23693">
        <ele>44</ele>
        <time>2018-04-18T13:59:18Z</time>
      </trkpt>
      <trkpt lat="45.61267" lon="-0.2366">
        <ele>44</ele>
        <time>2018-04-18T13:59:26Z</time>
      </trkpt>
      <trkpt lat="45.61252" lon="-0.2363">
        <ele>44</ele>
        <time>2018-04-18T13:59:33Z</time>
      </trkpt>
      <trkpt lat="45.61246" lon="-0.23621">
        <ele>44</ele>
        <time>2018-04-18T13:59:35Z</time>
      </trkpt>
      <trkpt lat="45.61244" lon="-0.23617">
        <ele>44</ele>
        <time>2018-04-18T13:59:36Z</time>
      </trkpt>
      <trkpt lat="45.61239" lon="-0.23607">
        <ele>44</ele>
        <time>2018-04-18T13:59:38Z</time>
      </trkpt>
      <trkpt lat="45.61222" lon="-0.23574">
        <ele>44.4140625</ele>
        <time>2018-04-18T13:59:45Z</time>
      </trkpt>
      <trkpt lat="45.61212" lon="-0.23555">
        <ele>44.640625</ele>
        <time>2018-04-18T13:59:49Z</time>
      </trkpt>
      <trkpt lat="45.61199" lon="-0.23527">
        <ele>44.70703125</ele>
        <time>2018-04-18T13:59:55Z</time>
      </trkpt>
      <trkpt lat="45.61177" lon="-0.23478">
        <ele>45.03125</ele>
        <time>2018-04-18T14:00:04Z</time>
      </trkpt>
      <trkpt lat="45.61156" lon="-0.23436">
        <ele>44.984375</ele>
        <time>2018-04-18T14:00:12Z</time>
      </trkpt>
      <trkpt lat="45.61154" lon="-0.23431">
        <ele>44.99609375</ele>
        <time>2018-04-18T14:00:13Z</time>
      </trkpt>
      <trkpt lat="45.61152" lon="-0.23426">
        <ele>45.05859375</ele>
        <time>2018-04-18T14:00:14Z</time>
      </trkpt>
      <trkpt lat="45.6115" lon="-0.2342">
        <ele>45.1328125</ele>
        <time>2018-04-18T14:00:15Z</time>
      </trkpt>
      <trkpt lat="45.61148" lon="-0.23414">
        <ele>45.19921875</ele>
        <time>2018-04-18T14:00:16Z</time>
      </trkpt>
      <trkpt lat="45.61138" lon="-0.23391">
        <ele>45.35546875</ele>
        <time>2018-04-18T14:00:20Z</time>
      </trkpt>
      <trkpt lat="45.61115" lon="-0.23332">
        <ele>45.796875</ele>
        <time>2018-04-18T14:00:30Z</time>
      </trkpt>
      <trkpt lat="45.61093" lon="-0.23278">
        <ele>45.921875</ele>
        <time>2018-04-18T14:00:39Z</time>
      </trkpt>
      <trkpt lat="45.61066" lon="-0.23235">
        <ele>46.515625</ele>
        <time>2018-04-18T14:00:48Z</time>
      </trkpt>
      <trkpt lat="45.61044" lon="-0.23196">
        <ele>46.8046875</ele>
        <time>2018-04-18T14:00:56Z</time>
      </trkpt>
      <trkpt lat="45.61022" lon="-0.23156">
        <ele>46.41015625</ele>
        <time>2018-04-18T14:01:04Z</time>
      </trkpt>
      <trkpt lat="45.61002" lon="-0.23117">
        <ele>46.65625</ele>
        <time>2018-04-18T14:01:13Z</time>
      </trkpt>
      <trkpt lat="45.60987" lon="-0.23091">
        <ele>46.89453125</ele>
        <time>2018-04-18T14:01:19Z</time>
      </trkpt>
      <trkpt lat="45.60984" lon="-0.23086">
        <ele>46.92578125</ele>
        <time>2018-04-18T14:01:20Z</time>
      </trkpt>
      <trkpt lat="45.60973" lon="-0.23068">
        <ele>47.0625</ele>
        <time>2018-04-18T14:01:24Z</time>
      </trkpt>
      <trkpt lat="45.6097" lon="-0.23064">
        <ele>47.08203125</ele>
        <time>2018-04-18T14:01:25Z</time>
      </trkpt>
      <trkpt lat="45.60967" lon="-0.2306">
        <ele>47.10546875</ele>
        <time>2018-04-18T14:01:26Z</time>
      </trkpt>
      <trkpt lat="45.60961" lon="-0.23051">
        <ele>47.1484375</ele>
        <time>2018-04-18T14:01:28Z</time>
      </trkpt>
      <trkpt lat="45.60933" lon="-0.23015">
        <ele>47</ele>
        <time>2018-04-18T14:01:37Z</time>
      </trkpt>
      <trkpt lat="45.60926" lon="-0.23008">
        <ele>47</ele>
        <time>2018-04-18T14:01:39Z</time>
      </trkpt>
      <trkpt lat="45.60923" lon="-0.23004">
        <ele>47</ele>
        <time>2018-04-18T14:01:40Z</time>
      </trkpt>
      <trkpt lat="45.60887" lon="-0.22962">
        <ele>47.4375</ele>
        <time>2018-04-18T14:01:51Z</time>
      </trkpt>
      <trkpt lat="45.60852" lon="-0.2292">
        <ele>47.55078125</ele>
        <time>2018-04-18T14:02:02Z</time>
      </trkpt>
      <trkpt lat="45.60811" lon="-0.22882">
        <ele>47.8671875</ele>
        <time>2018-04-18T14:02:14Z</time>
      </trkpt>
      <trkpt lat="45.60768" lon="-0.22848">
        <ele>47.83984375</ele>
        <time>2018-04-18T14:02:26Z</time>
      </trkpt>
      <trkpt lat="45.60761" lon="-0.22843">
        <ele>47.71484375</ele>
        <time>2018-04-18T14:02:28Z</time>
      </trkpt>
      <trkpt lat="45.6073" lon="-0.22807">
        <ele>47.37890625</ele>
        <time>2018-04-18T14:02:38Z</time>
      </trkpt>
      <trkpt lat="45.60719" lon="-0.22779">
        <ele>47.74609375</ele>
        <time>2018-04-18T14:02:44Z</time>
      </trkpt>
      <trkpt lat="45.60716" lon="-0.22745">
        <ele>49.234375</ele>
        <time>2018-04-18T14:02:51Z</time>
      </trkpt>
      <trkpt lat="45.60712" lon="-0.22726">
        <ele>50.30078125</ele>
        <time>2018-04-18T14:02:56Z</time>
      </trkpt>
      <trkpt lat="45.60702" lon="-0.22709">
        <ele>50.6015625</ele>
        <time>2018-04-18T14:03:02Z</time>
      </trkpt>
      <trkpt lat="45.60686" lon="-0.22686">
        <ele>50.92578125</ele>
        <time>2018-04-18T14:03:10Z</time>
      </trkpt>
      <trkpt lat="45.60665" lon="-0.22658">
        <ele>51.64453125</ele>
        <time>2018-04-18T14:03:19Z</time>
      </trkpt>
      <trkpt lat="45.60647" lon="-0.22628">
        <ele>52.21875</ele>
        <time>2018-04-18T14:03:27Z</time>
      </trkpt>
      <trkpt lat="45.60627" lon="-0.22598">
        <ele>52.5625</ele>
        <time>2018-04-18T14:03:36Z</time>
      </trkpt>
      <trkpt lat="45.60616" lon="-0.2259">
        <ele>52.62109375</ele>
        <time>2018-04-18T14:03:40Z</time>
      </trkpt>
      <trkpt lat="45.60613" lon="-0.22591">
        <ele>52.44921875</ele>
        <time>2018-04-18T14:03:41Z</time>
      </trkpt>
      <trkpt lat="45.60611" lon="-0.22593">
        <ele>52.234375</ele>
        <time>2018-04-18T14:03:42Z</time>
      </trkpt>
      <trkpt lat="45.60608" lon="-0.22596">
        <ele>52.02734375</ele>
        <time>2018-04-18T14:03:43Z</time>
      </trkpt>
      <trkpt lat="45.60605" lon="-0.22599">
        <ele>51.83984375</ele>
        <time>2018-04-18T14:03:44Z</time>
      </trkpt>
      <trkpt lat="45.60601" lon="-0.22602">
        <ele>51.6796875</ele>
        <time>2018-04-18T14:03:45Z</time>
      </trkpt>
      <trkpt lat="45.60582" lon="-0.2262">
        <ele>50.66015625</ele>
        <time>2018-04-18T14:03:51Z</time>
      </trkpt>
      <trkpt lat="45.6055" lon="-0.22662">
        <ele>48.85546875</ele>
        <time>2018-04-18T14:04:01Z</time>
      </trkpt>
      <trkpt lat="45.60509" lon="-0.22708">
        <ele>48.82421875</ele>
        <time>2018-04-18T14:04:13Z</time>
      </trkpt>
      <trkpt lat="45.60468" lon="-0.22737">
        <ele>50.625</ele>
        <time>2018-04-18T14:04:25Z</time>
      </trkpt>
      <trkpt lat="45.60437" lon="-0.2276">
        <ele>52.15234375</ele>
        <time>2018-04-18T14:04:34Z</time>
      </trkpt>
      <trkpt lat="45.60426" lon="-0.22731">
        <ele>52.046875</ele>
        <time>2018-04-18T14:04:47Z</time>
      </trkpt>
      <trkpt lat="45.60404" lon="-0.2268">
        <ele>51.92578125</ele>
        <time>2018-04-18T14:04:54Z</time>
      </trkpt>
      <trkpt lat="45.60387" lon="-0.22635">
        <ele>51.7265625</ele>
        <time>2018-04-18T14:05:06Z</time>
      </trkpt>
      <trkpt lat="45.60365" lon="-0.22577">
        <ele>51.62890625</ele>
        <time>2018-04-18T14:05:17Z</time>
      </trkpt>
      <trkpt lat="45.60336" lon="-0.2251">
        <ele>52.26953125</ele>
        <time>2018-04-18T14:05:31Z</time>
      </trkpt>
      <trkpt lat="45.60312" lon="-0.22464">
        <ele>52.33984375</ele>
        <time>2018-04-18T14:05:42Z</time>
      </trkpt>
      <trkpt lat="45.60283" lon="-0.22411">
        <ele>52.78125</ele>
        <time>2018-04-18T14:05:54Z</time>
      </trkpt>
      <trkpt lat="45.60266" lon="-0.22374">
        <ele>53.40234375</ele>
        <time>2018-04-18T14:06:02Z</time>
      </trkpt>
      <trkpt lat="45.6025" lon="-0.22324">
        <ele>53.98046875</ele>
        <time>2018-04-18T14:06:12Z</time>
      </trkpt>
      <trkpt lat="45.60237" lon="-0.22286">
        <ele>53.98828125</ele>
        <time>2018-04-18T14:06:20Z</time>
      </trkpt>
      <trkpt lat="45.60222" lon="-0.22237">
        <ele>53.4921875</ele>
        <time>2018-04-18T14:06:30Z</time>
      </trkpt>
      <trkpt lat="45.60209" lon="-0.22197">
        <ele>53.4609375</ele>
        <time>2018-04-18T14:06:38Z</time>
      </trkpt>
      <trkpt lat="45.60191" lon="-0.22154">
        <ele>54.10546875</ele>
        <time>2018-04-18T14:06:47Z</time>
      </trkpt>
      <trkpt lat="45.60163" lon="-0.22097">
        <ele>53.05859375</ele>
        <time>2018-04-18T14:06:59Z</time>
      </trkpt>
      <trkpt lat="45.60149" lon="-0.22077">
        <ele>53.19140625</ele>
        <time>2018-04-18T14:07:04Z</time>
      </trkpt>
      <trkpt lat="45.60127" lon="-0.22039">
        <ele>53.05859375</ele>
        <time>2018-04-18T14:07:13Z</time>
      </trkpt>
      <trkpt lat="45.60115" lon="-0.22017">
        <ele>53.4453125</ele>
        <time>2018-04-18T14:07:18Z</time>
      </trkpt>
      <trkpt lat="45.60092" lon="-0.21976">
        <ele>54.32421875</ele>
        <time>2018-04-18T14:07:28Z</time>
      </trkpt>
      <trkpt lat="45.60074" lon="-0.21946">
        <ele>54.99609375</ele>
        <time>2018-04-18T14:07:35Z</time>
      </trkpt>
      <trkpt lat="45.60064" lon="-0.21924">
        <ele>55.57421875</ele>
        <time>2018-04-18T14:07:42Z</time>
      </trkpt>
      <trkpt lat="45.60056" lon="-0.21905">
        <ele>56.3984375</ele>
        <time>2018-04-18T14:07:48Z</time>
      </trkpt>
      <trkpt lat="45.60052" lon="-0.21885">
        <ele>57.37109375</ele>
        <time>2018-04-18T14:07:54Z</time>
      </trkpt>
      <trkpt lat="45.60054" lon="-0.21853">
        <ele>59.20703125</ele>
        <time>2018-04-18T14:08:03Z</time>
      </trkpt>
      <trkpt lat="45.60056" lon="-0.21829">
        <ele>60.5390625</ele>
        <time>2018-04-18T14:08:10Z</time>
      </trkpt>
      <trkpt lat="45.60058" lon="-0.21798">
        <ele>61.8984375</ele>
        <time>2018-04-18T14:08:19Z</time>
      </trkpt>
      <trkpt lat="45.60053" lon="-0.21777">
        <ele>62.46484375</ele>
        <time>2018-04-18T14:08:26Z</time>
      </trkpt>
      <trkpt lat="45.60047" lon="-0.21756">
        <ele>62.84375</ele>
        <time>2018-04-18T14:08:33Z</time>
      </trkpt>
      <trkpt lat="45.60042" lon="-0.2173">
        <ele>62.9921875</ele>
        <time>2018-04-18T14:08:39Z</time>
      </trkpt>
      <trkpt lat="45.60038" lon="-0.21688">
        <ele>63.21875</ele>
        <time>2018-04-18T14:08:48Z</time>
      </trkpt>
      <trkpt lat="45.60025" lon="-0.21638">
        <ele>63.34375</ele>
        <time>2018-04-18T14:08:58Z</time>
      </trkpt>
      <trkpt lat="45.60002" lon="-0.21595">
        <ele>64.10546875</ele>
        <time>2018-04-18T14:09:08Z</time>
      </trkpt>
      <trkpt lat="45.5998" lon="-0.2156">
        <ele>63.40625</ele>
        <time>2018-04-18T14:09:16Z</time>
      </trkpt>
      <trkpt lat="45.59979" lon="-0.21554">
        <ele>63.39453125</ele>
        <time>2018-04-18T14:09:17Z</time>
      </trkpt>
      <trkpt lat="45.59978" lon="-0.21519">
        <ele>63.86328125</ele>
        <time>2018-04-18T14:09:24Z</time>
      </trkpt>
      <trkpt lat="45.59976" lon="-0.21467">
        <ele>64.32421875</ele>
        <time>2018-04-18T14:09:34Z</time>
      </trkpt>
      <trkpt lat="45.59973" lon="-0.21405">
        <ele>64.125</ele>
        <time>2018-04-18T14:09:45Z</time>
      </trkpt>
      <trkpt lat="45.59968" lon="-0.21331">
        <ele>63.7265625</ele>
        <time>2018-04-18T14:09:57Z</time>
      </trkpt>
      <trkpt lat="45.59966" lon="-0.21312">
        <ele>63.5859375</ele>
        <time>2018-04-18T14:10:00Z</time>
      </trkpt>
      <trkpt lat="45.5996" lon="-0.2126">
        <ele>63.0546875</ele>
        <time>2018-04-18T14:10:08Z</time>
      </trkpt>
      <trkpt lat="45.59951" lon="-0.21211">
        <ele>61.51953125</ele>
        <time>2018-04-18T14:10:15Z</time>
      </trkpt>
      <trkpt lat="45.59929" lon="-0.21136">
        <ele>61.40234375</ele>
        <time>2018-04-18T14:10:27Z</time>
      </trkpt>
      <trkpt lat="45.59927" lon="-0.21131">
        <ele>61.546875</ele>
        <time>2018-04-18T14:10:28Z</time>
      </trkpt>
      <trkpt lat="45.59917" lon="-0.21095">
        <ele>62.60546875</ele>
        <time>2018-04-18T14:10:35Z</time>
      </trkpt>
      <trkpt lat="45.59899" lon="-0.21047">
        <ele>64.66015625</ele>
        <time>2018-04-18T14:10:45Z</time>
      </trkpt>
      <trkpt lat="45.59883" lon="-0.21013">
        <ele>65.81640625</ele>
        <time>2018-04-18T14:10:53Z</time>
      </trkpt>
      <trkpt lat="45.5987" lon="-0.20984">
        <ele>66.40625</ele>
        <time>2018-04-18T14:11:00Z</time>
      </trkpt>
      <trkpt lat="45.59859" lon="-0.20952">
        <ele>66.55078125</ele>
        <time>2018-04-18T14:11:07Z</time>
      </trkpt>
      <trkpt lat="45.59849" lon="-0.2091">
        <ele>67.37890625</ele>
        <time>2018-04-18T14:11:16Z</time>
      </trkpt>
      <trkpt lat="45.59845" lon="-0.20866">
        <ele>68.7890625</ele>
        <time>2018-04-18T14:11:26Z</time>
      </trkpt>
      <trkpt lat="45.5984" lon="-0.20818">
        <ele>70.34375</ele>
        <time>2018-04-18T14:11:37Z</time>
      </trkpt>
      <trkpt lat="45.59836" lon="-0.20775">
        <ele>71.75390625</ele>
        <time>2018-04-18T14:11:47Z</time>
      </trkpt>
      <trkpt lat="45.59832" lon="-0.20727">
        <ele>73.29296875</ele>
        <time>2018-04-18T14:11:58Z</time>
      </trkpt>
      <trkpt lat="45.59825" lon="-0.20673">
        <ele>73.96875</ele>
        <time>2018-04-18T14:12:10Z</time>
      </trkpt>
      <trkpt lat="45.59817" lon="-0.20611">
        <ele>74.32421875</ele>
        <time>2018-04-18T14:12:24Z</time>
      </trkpt>
      <trkpt lat="45.59808" lon="-0.20576">
        <ele>74.3828125</ele>
        <time>2018-04-18T14:12:32Z</time>
      </trkpt>
      <trkpt lat="45.59797" lon="-0.2056">
        <ele>73.734375</ele>
        <time>2018-04-18T14:12:36Z</time>
      </trkpt>
      <trkpt lat="45.59793" lon="-0.20558">
        <ele>73.3828125</ele>
        <time>2018-04-18T14:12:37Z</time>
      </trkpt>
      <trkpt lat="45.59783" lon="-0.20554">
        <ele>72.43359375</ele>
        <time>2018-04-18T14:12:39Z</time>
      </trkpt>
      <trkpt lat="45.59778" lon="-0.20552">
        <ele>71.89453125</ele>
        <time>2018-04-18T14:12:40Z</time>
      </trkpt>
      <trkpt lat="45.59772" lon="-0.20551">
        <ele>71.390625</ele>
        <time>2018-04-18T14:12:41Z</time>
      </trkpt>
      <trkpt lat="45.5976" lon="-0.20549">
        <ele>70.328125</ele>
        <time>2018-04-18T14:12:43Z</time>
      </trkpt>
      <trkpt lat="45.59739" lon="-0.20546">
        <ele>68.44921875</ele>
        <time>2018-04-18T14:12:46Z</time>
      </trkpt>
      <trkpt lat="45.59714" lon="-0.20547">
        <ele>66.11328125</ele>
        <time>2018-04-18T14:12:49Z</time>
      </trkpt>
      <trkpt lat="45.59687" lon="-0.20549">
        <ele>63.1640625</ele>
        <time>2018-04-18T14:12:52Z</time>
      </trkpt>
      <trkpt lat="45.59669" lon="-0.2055">
        <ele>61.15625</ele>
        <time>2018-04-18T14:12:54Z</time>
      </trkpt>
      <trkpt lat="45.59624" lon="-0.20554">
        <ele>58.671875</ele>
        <time>2018-04-18T14:13:00Z</time>
      </trkpt>
      <trkpt lat="45.59618" lon="-0.20554">
        <ele>58.37109375</ele>
        <time>2018-04-18T14:13:01Z</time>
      </trkpt>
      <trkpt lat="45.59574" lon="-0.2056">
        <ele>59.7890625</ele>
        <time>2018-04-18T14:13:10Z</time>
      </trkpt>
      <trkpt lat="45.5957" lon="-0.20561">
        <ele>59.98828125</ele>
        <time>2018-04-18T14:13:11Z</time>
      </trkpt>
      <trkpt lat="45.59533" lon="-0.20561">
        <ele>61.4765625</ele>
        <time>2018-04-18T14:13:20Z</time>
      </trkpt>
      <trkpt lat="45.595" lon="-0.20553">
        <ele>62.796875</ele>
        <time>2018-04-18T14:13:28Z</time>
      </trkpt>
      <trkpt lat="45.59457" lon="-0.20545">
        <ele>64.453125</ele>
        <time>2018-04-18T14:13:39Z</time>
      </trkpt>
      <trkpt lat="45.59414" lon="-0.20547">
        <ele>65.91796875</ele>
        <time>2018-04-18T14:13:50Z</time>
      </trkpt>
      <trkpt lat="45.59365" lon="-0.20554">
        <ele>67.12109375</ele>
        <time>2018-04-18T14:14:03Z</time>
      </trkpt>
      <trkpt lat="45.59321" lon="-0.20561">
        <ele>68.359375</ele>
        <time>2018-04-18T14:14:15Z</time>
      </trkpt>
      <trkpt lat="45.59293" lon="-0.20565">
        <ele>69.75390625</ele>
        <time>2018-04-18T14:14:24Z</time>
      </trkpt>
      <trkpt lat="45.59258" lon="-0.2057">
        <ele>71.39453125</ele>
        <time>2018-04-18T14:14:36Z</time>
      </trkpt>
      <trkpt lat="45.59231" lon="-0.20572">
        <ele>72.6015625</ele>
        <time>2018-04-18T14:14:45Z</time>
      </trkpt>
      <trkpt lat="45.59228" lon="-0.2057">
        <ele>72.734375</ele>
        <time>2018-04-18T14:14:46Z</time>
      </trkpt>
      <trkpt lat="45.59226" lon="-0.20567">
        <ele>72.8359375</ele>
        <time>2018-04-18T14:14:47Z</time>
      </trkpt>
      <trkpt lat="45.59224" lon="-0.20564">
        <ele>72.90625</ele>
        <time>2018-04-18T14:14:48Z</time>
      </trkpt>
      <trkpt lat="45.59224" lon="-0.2056">
        <ele>72.94140625</ele>
        <time>2018-04-18T14:14:49Z</time>
      </trkpt>
      <trkpt lat="45.59223" lon="-0.20556">
        <ele>72.94921875</ele>
        <time>2018-04-18T14:14:50Z</time>
      </trkpt>
      <trkpt lat="45.59223" lon="-0.20551">
        <ele>72.94921875</ele>
        <time>2018-04-18T14:14:51Z</time>
      </trkpt>
      <trkpt lat="45.59224" lon="-0.20499">
        <ele>72.1328125</ele>
        <time>2018-04-18T14:15:03Z</time>
      </trkpt>
      <trkpt lat="45.59226" lon="-0.20452">
        <ele>71.234375</ele>
        <time>2018-04-18T14:15:12Z</time>
      </trkpt>
      <trkpt lat="45.59226" lon="-0.20433">
        <ele>70.8828125</ele>
        <time>2018-04-18T14:15:15Z</time>
      </trkpt>
      <trkpt lat="45.59228" lon="-0.2039">
        <ele>70.1015625</ele>
        <time>2018-04-18T14:15:21Z</time>
      </trkpt>
      <trkpt lat="45.59227" lon="-0.20382">
        <ele>70</ele>
        <time>2018-04-18T14:15:22Z</time>
      </trkpt>
      <trkpt lat="45.59224" lon="-0.20377">
        <ele>69.9765625</ele>
        <time>2018-04-18T14:15:23Z</time>
      </trkpt>
      <trkpt lat="45.59219" lon="-0.20375">
        <ele>70.12109375</ele>
        <time>2018-04-18T14:15:24Z</time>
      </trkpt>
      <trkpt lat="45.59214" lon="-0.20376">
        <ele>70.2890625</ele>
        <time>2018-04-18T14:15:25Z</time>
      </trkpt>
      <trkpt lat="45.5921" lon="-0.20377">
        <ele>70.4609375</ele>
        <time>2018-04-18T14:15:26Z</time>
      </trkpt>
      <trkpt lat="45.5917" lon="-0.20385">
        <ele>72.04296875</ele>
        <time>2018-04-18T14:15:36Z</time>
      </trkpt>
      <trkpt lat="45.59117" lon="-0.20397">
        <ele>73.265625</ele>
        <time>2018-04-18T14:15:50Z</time>
      </trkpt>
      <trkpt lat="45.59091" lon="-0.20402">
        <ele>74.16796875</ele>
        <time>2018-04-18T14:15:57Z</time>
      </trkpt>
      <trkpt lat="45.59052" lon="-0.20411">
        <ele>75.73828125</ele>
        <time>2018-04-18T14:16:09Z</time>
      </trkpt>
      <trkpt lat="45.59019" lon="-0.20414">
        <ele>76.98828125</ele>
        <time>2018-04-18T14:16:19Z</time>
      </trkpt>
      <trkpt lat="45.58986" lon="-0.20411">
        <ele>78.12109375</ele>
        <time>2018-04-18T14:16:29Z</time>
      </trkpt>
      <trkpt lat="45.58945" lon="-0.20407">
        <ele>79.51171875</ele>
        <time>2018-04-18T14:16:41Z</time>
      </trkpt>
      <trkpt lat="45.58928" lon="-0.20405">
        <ele>80.1015625</ele>
        <time>2018-04-18T14:16:46Z</time>
      </trkpt>
      <trkpt lat="45.58892" lon="-0.20402">
        <ele>81.2578125</ele>
        <time>2018-04-18T14:16:57Z</time>
      </trkpt>
      <trkpt lat="45.58857" lon="-0.20399">
        <ele>83.1796875</ele>
        <time>2018-04-18T14:17:08Z</time>
      </trkpt>
      <trkpt lat="45.58828" lon="-0.20396">
        <ele>84.6875</ele>
        <time>2018-04-18T14:17:18Z</time>
      </trkpt>
      <trkpt lat="45.58801" lon="-0.20388">
        <ele>85.609375</ele>
        <time>2018-04-18T14:17:28Z</time>
      </trkpt>
      <trkpt lat="45.58777" lon="-0.20376">
        <ele>86.0390625</ele>
        <time>2018-04-18T14:17:38Z</time>
      </trkpt>
      <trkpt lat="45.58748" lon="-0.20357">
        <ele>87.25</ele>
        <time>2018-04-18T14:17:51Z</time>
      </trkpt>
      <trkpt lat="45.58724" lon="-0.20342">
        <ele>87.68359375</ele>
        <time>2018-04-18T14:18:01Z</time>
      </trkpt>
      <trkpt lat="45.58696" lon="-0.20324">
        <ele>88.1484375</ele>
        <time>2018-04-18T14:18:12Z</time>
      </trkpt>
      <trkpt lat="45.58673" lon="-0.2031">
        <ele>89.02734375</ele>
        <time>2018-04-18T14:18:20Z</time>
      </trkpt>
      <trkpt lat="45.58665" lon="-0.20305">
        <ele>89.44140625</ele>
        <time>2018-04-18T14:18:23Z</time>
      </trkpt>
      <trkpt lat="45.58664" lon="-0.20303">
        <ele>89.53125</ele>
        <time>2018-04-18T14:18:28Z</time>
      </trkpt>
      <trkpt lat="45.58665" lon="-0.20302">
        <ele>89.5</ele>
        <time>2018-04-18T14:18:44Z</time>
      </trkpt>
      <trkpt lat="45.58665" lon="-0.20303">
        <ele>89.49609375</ele>
        <time>2018-04-18T14:19:08Z</time>
      </trkpt>
      <trkpt lat="45.58665" lon="-0.20303">
        <ele>89.4765625</ele>
        <time>2018-04-18T14:19:17Z</time>
      </trkpt>
      <trkpt lat="45.58666" lon="-0.20305">
        <ele>89.3984375</ele>
        <time>2018-04-18T14:19:38Z</time>
      </trkpt>
      <trkpt lat="45.58665" lon="-0.20305">
        <ele>89.4296875</ele>
        <time>2018-04-18T14:20:02Z</time>
      </trkpt>
      <trkpt lat="45.58664" lon="-0.20303">
        <ele>89.51171875</ele>
        <time>2018-04-18T14:20:21Z</time>
      </trkpt>
      <trkpt lat="45.58664" lon="-0.203">
        <ele>89.57421875</ele>
        <time>2018-04-18T14:20:22Z</time>
      </trkpt>
      <trkpt lat="45.58661" lon="-0.20284">
        <ele>90.10546875</ele>
        <time>2018-04-18T14:20:27Z</time>
      </trkpt>
      <trkpt lat="45.5866" lon="-0.2026">
        <ele>90.796875</ele>
        <time>2018-04-18T14:20:33Z</time>
      </trkpt>
      <trkpt lat="45.58672" lon="-0.20237">
        <ele>91.6484375</ele>
        <time>2018-04-18T14:20:41Z</time>
      </trkpt>
      <trkpt lat="45.58681" lon="-0.20222">
        <ele>92.73828125</ele>
        <time>2018-04-18T14:20:47Z</time>
      </trkpt>
      <trkpt lat="45.58697" lon="-0.20202">
        <ele>94.87890625</ele>
        <time>2018-04-18T14:20:55Z</time>
      </trkpt>
      <trkpt lat="45.58709" lon="-0.20184">
        <ele>97.46484375</ele>
        <time>2018-04-18T14:21:02Z</time>
      </trkpt>
      <trkpt lat="45.58716" lon="-0.20164">
        <ele>100.19921875</ele>
        <time>2018-04-18T14:21:11Z</time>
      </trkpt>
      <trkpt lat="45.58719" lon="-0.20148">
        <ele>102.1796875</ele>
        <time>2018-04-18T14:21:19Z</time>
      </trkpt>
      <trkpt lat="45.58722" lon="-0.20128">
        <ele>103.83984375</ele>
        <time>2018-04-18T14:21:29Z</time>
      </trkpt>
      <trkpt lat="45.58722" lon="-0.20126">
        <ele>103.99609375</ele>
        <time>2018-04-18T14:21:30Z</time>
      </trkpt>
      <trkpt lat="45.58724" lon="-0.20109">
        <ele>105.31640625</ele>
        <time>2018-04-18T14:21:39Z</time>
      </trkpt>
      <trkpt lat="45.5873" lon="-0.20093">
        <ele>106.3515625</ele>
        <time>2018-04-18T14:21:48Z</time>
      </trkpt>
      <trkpt lat="45.58737" lon="-0.20074">
        <ele>107.16015625</ele>
        <time>2018-04-18T14:21:58Z</time>
      </trkpt>
      <trkpt lat="45.58746" lon="-0.20053">
        <ele>108.08984375</ele>
        <time>2018-04-18T14:22:09Z</time>
      </trkpt>
      <trkpt lat="45.58757" lon="-0.2003">
        <ele>109.09765625</ele>
        <time>2018-04-18T14:22:20Z</time>
      </trkpt>
      <trkpt lat="45.58769" lon="-0.20009">
        <ele>110.09375</ele>
        <time>2018-04-18T14:22:31Z</time>
      </trkpt>
      <trkpt lat="45.58785" lon="-0.19983">
        <ele>110.74609375</ele>
        <time>2018-04-18T14:22:43Z</time>
      </trkpt>
      <trkpt lat="45.58796" lon="-0.19963">
        <ele>110.34375</ele>
        <time>2018-04-18T14:22:52Z</time>
      </trkpt>
      <trkpt lat="45.58796" lon="-0.19959">
        <ele>110.34375</ele>
        <time>2018-04-18T14:22:53Z</time>
      </trkpt>
      <trkpt lat="45.58795" lon="-0.19957">
        <ele>110.375</ele>
        <time>2018-04-18T14:22:54Z</time>
      </trkpt>
      <trkpt lat="45.58794" lon="-0.19954">
        <ele>110.4296875</ele>
        <time>2018-04-18T14:22:55Z</time>
      </trkpt>
      <trkpt lat="45.58792" lon="-0.19952">
        <ele>110.49609375</ele>
        <time>2018-04-18T14:22:56Z</time>
      </trkpt>
      <trkpt lat="45.5879" lon="-0.19949">
        <ele>110.578125</ele>
        <time>2018-04-18T14:22:57Z</time>
      </trkpt>
      <trkpt lat="45.58787" lon="-0.19947">
        <ele>110.6640625</ele>
        <time>2018-04-18T14:22:58Z</time>
      </trkpt>
      <trkpt lat="45.58762" lon="-0.19919">
        <ele>110.828125</ele>
        <time>2018-04-18T14:23:08Z</time>
      </trkpt>
      <trkpt lat="45.58738" lon="-0.19894">
        <ele>110.8125</ele>
        <time>2018-04-18T14:23:17Z</time>
      </trkpt>
      <trkpt lat="45.58701" lon="-0.19863">
        <ele>110.55078125</ele>
        <time>2018-04-18T14:23:29Z</time>
      </trkpt>
      <trkpt lat="45.5867" lon="-0.19839">
        <ele>110.88671875</ele>
        <time>2018-04-18T14:23:39Z</time>
      </trkpt>
      <trkpt lat="45.58636" lon="-0.19814">
        <ele>111.80859375</ele>
        <time>2018-04-18T14:23:50Z</time>
      </trkpt>
      <trkpt lat="45.58602" lon="-0.1979">
        <ele>112.13671875</ele>
        <time>2018-04-18T14:24:01Z</time>
      </trkpt>
      <trkpt lat="45.5857" lon="-0.1977">
        <ele>112.58984375</ele>
        <time>2018-04-18T14:24:11Z</time>
      </trkpt>
      <trkpt lat="45.58533" lon="-0.19743">
        <ele>113.1640625</ele>
        <time>2018-04-18T14:24:23Z</time>
      </trkpt>
      <trkpt lat="45.58504" lon="-0.19712">
        <ele>113.85546875</ele>
        <time>2018-04-18T14:24:34Z</time>
      </trkpt>
      <trkpt lat="45.58474" lon="-0.1968">
        <ele>113.83984375</ele>
        <time>2018-04-18T14:24:45Z</time>
      </trkpt>
      <trkpt lat="45.58465" lon="-0.19657">
        <ele>113.63671875</ele>
        <time>2018-04-18T14:24:51Z</time>
      </trkpt>
      <trkpt lat="45.5847" lon="-0.1961">
        <ele>112.46875</ele>
        <time>2018-04-18T14:24:59Z</time>
      </trkpt>
      <trkpt lat="45.58472" lon="-0.1959">
        <ele>112.06640625</ele>
        <time>2018-04-18T14:25:02Z</time>
      </trkpt>
      <trkpt lat="45.58476" lon="-0.19528">
        <ele>111.83984375</ele>
        <time>2018-04-18T14:25:11Z</time>
      </trkpt>
      <trkpt lat="45.58472" lon="-0.19454">
        <ele>112.82421875</ele>
        <time>2018-04-18T14:25:22Z</time>
      </trkpt>
      <trkpt lat="45.58473" lon="-0.19405">
        <ele>113.2421875</ele>
        <time>2018-04-18T14:25:30Z</time>
      </trkpt>
      <trkpt lat="45.58478" lon="-0.19334">
        <ele>113.55078125</ele>
        <time>2018-04-18T14:25:41Z</time>
      </trkpt>
      <trkpt lat="45.58486" lon="-0.19271">
        <ele>114.6640625</ele>
        <time>2018-04-18T14:25:51Z</time>
      </trkpt>
      <trkpt lat="45.58494" lon="-0.19197">
        <ele>115.78515625</ele>
        <time>2018-04-18T14:26:03Z</time>
      </trkpt>
      <trkpt lat="45.585" lon="-0.19153">
        <ele>115.99609375</ele>
        <time>2018-04-18T14:26:11Z</time>
      </trkpt>
      <trkpt lat="45.58507" lon="-0.19126">
        <ele>116.11328125</ele>
        <time>2018-04-18T14:26:16Z</time>
      </trkpt>
      <trkpt lat="45.58519" lon="-0.19089">
        <ele>116.40234375</ele>
        <time>2018-04-18T14:26:23Z</time>
      </trkpt>
      <trkpt lat="45.58539" lon="-0.19033">
        <ele>117.59375</ele>
        <time>2018-04-18T14:26:34Z</time>
      </trkpt>
      <trkpt lat="45.58555" lon="-0.18983">
        <ele>118.97265625</ele>
        <time>2018-04-18T14:26:44Z</time>
      </trkpt>
      <trkpt lat="45.58563" lon="-0.18944">
        <ele>119</ele>
        <time>2018-04-18T14:26:52Z</time>
      </trkpt>
      <trkpt lat="45.58566" lon="-0.18898">
        <ele>118.88671875</ele>
        <time>2018-04-18T14:27:01Z</time>
      </trkpt>
      <trkpt lat="45.58571" lon="-0.18847">
        <ele>119.80078125</ele>
        <time>2018-04-18T14:27:11Z</time>
      </trkpt>
      <trkpt lat="45.5858" lon="-0.18821">
        <ele>120.58203125</ele>
        <time>2018-04-18T14:27:17Z</time>
      </trkpt>
      <trkpt lat="45.58583" lon="-0.1878">
        <ele>121.265625</ele>
        <time>2018-04-18T14:27:26Z</time>
      </trkpt>
      <trkpt lat="45.58585" lon="-0.1875">
        <ele>121.7734375</ele>
        <time>2018-04-18T14:27:33Z</time>
      </trkpt>
      <trkpt lat="45.58591" lon="-0.18721">
        <ele>122.1875</ele>
        <time>2018-04-18T14:27:40Z</time>
      </trkpt>
      <trkpt lat="45.58598" lon="-0.1869">
        <ele>122.24609375</ele>
        <time>2018-04-18T14:27:47Z</time>
      </trkpt>
      <trkpt lat="45.58603" lon="-0.18653">
        <ele>122.19140625</ele>
        <time>2018-04-18T14:27:56Z</time>
      </trkpt>
      <trkpt lat="45.58601" lon="-0.18626">
        <ele>122.61328125</ele>
        <time>2018-04-18T14:28:02Z</time>
      </trkpt>
      <trkpt lat="45.58599" lon="-0.186">
        <ele>122.99609375</ele>
        <time>2018-04-18T14:28:08Z</time>
      </trkpt>
      <trkpt lat="45.58601" lon="-0.18575">
        <ele>123</ele>
        <time>2018-04-18T14:28:14Z</time>
      </trkpt>
      <trkpt lat="45.58604" lon="-0.18546">
        <ele>123</ele>
        <time>2018-04-18T14:28:20Z</time>
      </trkpt>
      <trkpt lat="45.58606" lon="-0.18514">
        <ele>123.4375</ele>
        <time>2018-04-18T14:28:26Z</time>
      </trkpt>
      <trkpt lat="45.58611" lon="-0.18481">
        <ele>124.140625</ele>
        <time>2018-04-18T14:28:32Z</time>
      </trkpt>
      <trkpt lat="45.58614" lon="-0.18451">
        <ele>124.60546875</ele>
        <time>2018-04-18T14:28:38Z</time>
      </trkpt>
      <trkpt lat="45.58623" lon="-0.18415">
        <ele>124.71484375</ele>
        <time>2018-04-18T14:28:45Z</time>
      </trkpt>
      <trkpt lat="45.58628" lon="-0.18381">
        <ele>124.96484375</ele>
        <time>2018-04-18T14:28:52Z</time>
      </trkpt>
      <trkpt lat="45.58631" lon="-0.18347">
        <ele>125.55078125</ele>
        <time>2018-04-18T14:28:58Z</time>
      </trkpt>
      <trkpt lat="45.58632" lon="-0.1831">
        <ele>126.2109375</ele>
        <time>2018-04-18T14:29:05Z</time>
      </trkpt>
      <trkpt lat="45.58637" lon="-0.18271">
        <ele>126.92578125</ele>
        <time>2018-04-18T14:29:13Z</time>
      </trkpt>
      <trkpt lat="45.58647" lon="-0.18239">
        <ele>127.1796875</ele>
        <time>2018-04-18T14:29:20Z</time>
      </trkpt>
      <trkpt lat="45.58654" lon="-0.18207">
        <ele>127.23046875</ele>
        <time>2018-04-18T14:29:26Z</time>
      </trkpt>
      <trkpt lat="45.58659" lon="-0.18172">
        <ele>127.14453125</ele>
        <time>2018-04-18T14:29:33Z</time>
      </trkpt>
      <trkpt lat="45.58656" lon="-0.18141">
        <ele>127.359375</ele>
        <time>2018-04-18T14:29:39Z</time>
      </trkpt>
      <trkpt lat="45.58648" lon="-0.18098">
        <ele>127.6640625</ele>
        <time>2018-04-18T14:29:46Z</time>
      </trkpt>
      <trkpt lat="45.58646" lon="-0.18092">
        <ele>127.67578125</ele>
        <time>2018-04-18T14:29:47Z</time>
      </trkpt>
      <trkpt lat="45.58636" lon="-0.18055">
        <ele>127.890625</ele>
        <time>2018-04-18T14:29:54Z</time>
      </trkpt>
      <trkpt lat="45.58631" lon="-0.18029">
        <ele>128</ele>
        <time>2018-04-18T14:29:59Z</time>
      </trkpt>
      <trkpt lat="45.58627" lon="-0.17999">
        <ele>128</ele>
        <time>2018-04-18T14:30:04Z</time>
      </trkpt>
      <trkpt lat="45.58627" lon="-0.17986">
        <ele>128</ele>
        <time>2018-04-18T14:30:06Z</time>
      </trkpt>
      <trkpt lat="45.58626" lon="-0.17987">
        <ele>128</ele>
        <time>2018-05-04T11:36:25Z</time>
      </trkpt>
      <trkpt lat="45.58624" lon="-0.17963">
        <ele>128</ele>
      </trkpt>
      <trkpt lat="45.58633" lon="-0.17951">
        <ele>128</ele>
        <time>2018-05-04T11:36:28Z</time>
      </trkpt>
      <trkpt lat="45.58635" lon="-0.17949">
        <ele>128</ele>
        <time>2018-05-04T11:36:29Z</time>
      </trkpt>
      <trkpt lat="45.58637" lon="-0.17946">
        <ele>128</ele>
        <time>2018-05-04T11:36:30Z</time>
      </trkpt>
      <trkpt lat="45.58639" lon="-0.17943">
        <ele>128</ele>
        <time>2018-05-04T11:36:31Z</time>
      </trkpt>
      <trkpt lat="45.58654" lon="-0.17915">
        <ele>127.671875</ele>
        <time>2018-05-04T11:36:38Z</time>
      </trkpt>
      <trkpt lat="45.58676" lon="-0.17872">
        <ele>126.78515625</ele>
        <time>2018-05-04T11:36:48Z</time>
      </trkpt>
      <trkpt lat="45.58679" lon="-0.17867">
        <ele>126.63671875</ele>
        <time>2018-05-04T11:36:49Z</time>
      </trkpt>
      <trkpt lat="45.58697" lon="-0.17849">
        <ele>126.23046875</ele>
        <time>2018-05-04T11:36:54Z</time>
      </trkpt>
      <trkpt lat="45.5873" lon="-0.17828">
        <ele>126.09765625</ele>
        <time>2018-05-04T11:37:03Z</time>
      </trkpt>
      <trkpt lat="45.58769" lon="-0.17828">
        <ele>126.09765625</ele>
        <time>2018-05-04T11:37:12Z</time>
      </trkpt>
      <trkpt lat="45.58792" lon="-0.17812">
        <ele>125.1328125</ele>
        <time>2018-05-04T11:37:18Z</time>
      </trkpt>
      <trkpt lat="45.58802" lon="-0.17792">
        <ele>124.04296875</ele>
        <time>2018-05-04T11:37:22Z</time>
      </trkpt>
      <trkpt lat="45.58817" lon="-0.17756">
        <ele>121.92578125</ele>
        <time>2018-05-04T11:37:29Z</time>
      </trkpt>
      <trkpt lat="45.58822" lon="-0.17744">
        <ele>121.0703125</ele>
        <time>2018-05-04T11:37:31Z</time>
      </trkpt>
      <trkpt lat="45.5883" lon="-0.1773">
        <ele>120.11328125</ele>
        <time>2018-05-04T11:37:33Z</time>
      </trkpt>
      <trkpt lat="45.5884" lon="-0.17718">
        <ele>119.20703125</ele>
        <time>2018-05-04T11:37:35Z</time>
      </trkpt>
      <trkpt lat="45.58852" lon="-0.17705">
        <ele>118.109375</ele>
        <time>2018-05-04T11:37:37Z</time>
      </trkpt>
      <trkpt lat="45.58878" lon="-0.17681">
        <ele>115.48046875</ele>
        <time>2018-05-04T11:37:41Z</time>
      </trkpt>
      <trkpt lat="45.58885" lon="-0.17674">
        <ele>114.6875</ele>
        <time>2018-05-04T11:37:42Z</time>
      </trkpt>
      <trkpt lat="45.58907" lon="-0.17653">
        <ele>112.359375</ele>
        <time>2018-05-04T11:37:45Z</time>
      </trkpt>
      <trkpt lat="45.58914" lon="-0.17646">
        <ele>111.56640625</ele>
        <time>2018-05-04T11:37:46Z</time>
      </trkpt>
      <trkpt lat="45.58929" lon="-0.17633">
        <ele>109.9609375</ele>
        <time>2018-05-04T11:37:48Z</time>
      </trkpt>
      <trkpt lat="45.58949" lon="-0.17617">
        <ele>107.69140625</ele>
        <time>2018-05-04T11:37:51Z</time>
      </trkpt>
      <trkpt lat="45.5896" lon="-0.17596">
        <ele>105.30078125</ele>
        <time>2018-05-04T11:37:55Z</time>
      </trkpt>
      <trkpt lat="45.58963" lon="-0.17591">
        <ele>104.81640625</ele>
        <time>2018-05-04T11:37:56Z</time>
      </trkpt>
      <trkpt lat="45.5897" lon="-0.17582">
        <ele>103.92578125</ele>
        <time>2018-05-04T11:37:58Z</time>
      </trkpt>
      <trkpt lat="45.58978" lon="-0.17565">
        <ele>102.1875</ele>
        <time>2018-05-04T11:38:02Z</time>
      </trkpt>
      <trkpt lat="45.58978" lon="-0.17559">
        <ele>101.625</ele>
        <time>2018-05-04T11:38:03Z</time>
      </trkpt>
      <trkpt lat="45.58992" lon="-0.17518">
        <ele>99.41015625</ele>
        <time>2018-05-04T11:38:08Z</time>
      </trkpt>
      <trkpt lat="45.59016" lon="-0.17489">
        <ele>97.71875</ele>
        <time>2018-05-04T11:38:12Z</time>
      </trkpt>
      <trkpt lat="45.59035" lon="-0.17473">
        <ele>97.83984375</ele>
        <time>2018-05-04T11:38:15Z</time>
      </trkpt>
      <trkpt lat="45.59041" lon="-0.17468">
        <ele>97.94140625</ele>
        <time>2018-05-04T11:38:16Z</time>
      </trkpt>
      <trkpt lat="45.59065" lon="-0.17443">
        <ele>99.4375</ele>
        <time>2018-05-04T11:38:21Z</time>
      </trkpt>
      <trkpt lat="45.59078" lon="-0.17432">
        <ele>101.2265625</ele>
        <time>2018-05-04T11:38:24Z</time>
      </trkpt>
      <trkpt lat="45.59085" lon="-0.17426">
        <ele>102.46484375</ele>
        <time>2018-05-04T11:38:26Z</time>
      </trkpt>
      <trkpt lat="45.5909" lon="-0.17422">
        <ele>103.3984375</ele>
        <time>2018-05-04T11:38:28Z</time>
      </trkpt>
      <trkpt lat="45.59116" lon="-0.17408">
        <ele>107.765625</ele>
        <time>2018-05-04T11:38:40Z</time>
      </trkpt>
      <trkpt lat="45.59128" lon="-0.17407">
        <ele>109.203125</ele>
        <time>2018-05-04T11:38:46Z</time>
      </trkpt>
      <trkpt lat="45.59155" lon="-0.17409">
        <ele>111.9765625</ele>
        <time>2018-05-04T11:38:58Z</time>
      </trkpt>
      <trkpt lat="45.59177" lon="-0.17406">
        <ele>113.88671875</ele>
        <time>2018-05-04T11:39:10Z</time>
      </trkpt>
      <trkpt lat="45.59188" lon="-0.174">
        <ele>114.8046875</ele>
        <time>2018-05-04T11:39:17Z</time>
      </trkpt>
      <trkpt lat="45.592" lon="-0.17393">
        <ele>115.90234375</ele>
        <time>2018-05-04T11:39:25Z</time>
      </trkpt>
      <trkpt lat="45.59233" lon="-0.17385">
        <ele>117.06640625</ele>
        <time>2018-05-04T11:39:44Z</time>
      </trkpt>
      <trkpt lat="45.59268" lon="-0.17377">
        <ele>116.3671875</ele>
        <time>2018-05-04T11:39:59Z</time>
      </trkpt>
      <trkpt lat="45.59304" lon="-0.17372">
        <ele>114.609375</ele>
        <time>2018-05-04T11:40:10Z</time>
      </trkpt>
      <trkpt lat="45.59316" lon="-0.17371">
        <ele>113.97265625</ele>
        <time>2018-05-04T11:40:13Z</time>
      </trkpt>
      <trkpt lat="45.59328" lon="-0.17369">
        <ele>113.2734375</ele>
        <time>2018-05-04T11:40:16Z</time>
      </trkpt>
      <trkpt lat="45.59333" lon="-0.17368">
        <ele>113.01953125</ele>
        <time>2018-05-04T11:40:17Z</time>
      </trkpt>
      <trkpt lat="45.59337" lon="-0.17365">
        <ele>112.61328125</ele>
        <time>2018-05-04T11:40:18Z</time>
      </trkpt>
      <trkpt lat="45.59341" lon="-0.17362">
        <ele>112.28125</ele>
        <time>2018-05-04T11:40:19Z</time>
      </trkpt>
      <trkpt lat="45.59344" lon="-0.17359">
        <ele>112.01171875</ele>
        <time>2018-05-04T11:40:20Z</time>
      </trkpt>
      <trkpt lat="45.59353" lon="-0.17351">
        <ele>111.18359375</ele>
        <time>2018-05-04T11:40:23Z</time>
      </trkpt>
      <trkpt lat="45.59357" lon="-0.1735">
        <ele>110.828125</ele>
        <time>2018-05-04T11:40:24Z</time>
      </trkpt>
      <trkpt lat="45.59362" lon="-0.17349">
        <ele>110.421875</ele>
        <time>2018-05-04T11:40:25Z</time>
      </trkpt>
      <trkpt lat="45.59367" lon="-0.1735">
        <ele>109.95703125</ele>
        <time>2018-05-04T11:40:26Z</time>
      </trkpt>
      <trkpt lat="45.59373" lon="-0.17352">
        <ele>109.40234375</ele>
        <time>2018-05-04T11:40:27Z</time>
      </trkpt>
      <trkpt lat="45.59378" lon="-0.17354">
        <ele>108.82421875</ele>
        <time>2018-05-04T11:40:28Z</time>
      </trkpt>
      <trkpt lat="45.59384" lon="-0.17357">
        <ele>108.2109375</ele>
        <time>2018-05-04T11:40:29Z</time>
      </trkpt>
      <trkpt lat="45.5939" lon="-0.1736">
        <ele>107.52734375</ele>
        <time>2018-05-04T11:40:30Z</time>
      </trkpt>
      <trkpt lat="45.59404" lon="-0.17365">
        <ele>105.8359375</ele>
        <time>2018-05-04T11:40:32Z</time>
      </trkpt>
      <trkpt lat="45.59427" lon="-0.17371">
        <ele>103.09375</ele>
        <time>2018-05-04T11:40:35Z</time>
      </trkpt>
      <trkpt lat="45.59443" lon="-0.17377">
        <ele>101.13671875</ele>
        <time>2018-05-04T11:40:37Z</time>
      </trkpt>
      <trkpt lat="45.5945" lon="-0.17381">
        <ele>100.51171875</ele>
        <time>2018-05-04T11:40:38Z</time>
      </trkpt>
      <trkpt lat="45.59456" lon="-0.17384">
        <ele>100.02734375</ele>
        <time>2018-05-04T11:40:39Z</time>
      </trkpt>
      <trkpt lat="45.59462" lon="-0.17384">
        <ele>99.64453125</ele>
        <time>2018-05-04T11:40:40Z</time>
      </trkpt>
      <trkpt lat="45.59466" lon="-0.17381">
        <ele>99.35546875</ele>
        <time>2018-05-04T11:40:41Z</time>
      </trkpt>
      <trkpt lat="45.5947" lon="-0.17376">
        <ele>99.2265625</ele>
        <time>2018-05-04T11:40:42Z</time>
      </trkpt>
      <trkpt lat="45.59473" lon="-0.17369">
        <ele>99.265625</ele>
        <time>2018-05-04T11:40:43Z</time>
      </trkpt>
      <trkpt lat="45.59475" lon="-0.17362">
        <ele>99.34765625</ele>
        <time>2018-05-04T11:40:44Z</time>
      </trkpt>
      <trkpt lat="45.59478" lon="-0.17354">
        <ele>99.4296875</ele>
        <time>2018-05-04T11:40:45Z</time>
      </trkpt>
      <trkpt lat="45.59481" lon="-0.17347">
        <ele>99.484375</ele>
        <time>2018-05-04T11:40:46Z</time>
      </trkpt>
      <trkpt lat="45.59488" lon="-0.1733">
        <ele>99.57421875</ele>
        <time>2018-05-04T11:40:48Z</time>
      </trkpt>
      <trkpt lat="45.59523" lon="-0.17268">
        <ele>100.2421875</ele>
        <time>2018-05-04T11:40:57Z</time>
      </trkpt>
      <trkpt lat="45.59529" lon="-0.17264">
        <ele>100.08984375</ele>
        <time>2018-05-04T11:40:58Z</time>
      </trkpt>
      <trkpt lat="45.59534" lon="-0.17262">
        <ele>99.77734375</ele>
        <time>2018-05-04T11:40:59Z</time>
      </trkpt>
      <trkpt lat="45.59541" lon="-0.17261">
        <ele>99.3203125</ele>
        <time>2018-05-04T11:41:00Z</time>
      </trkpt>
      <trkpt lat="45.59547" lon="-0.17262">
        <ele>98.80078125</ele>
        <time>2018-05-04T11:41:01Z</time>
      </trkpt>
      <trkpt lat="45.59554" lon="-0.17262">
        <ele>98.296875</ele>
        <time>2018-05-04T11:41:02Z</time>
      </trkpt>
      <trkpt lat="45.5956" lon="-0.17261">
        <ele>97.94921875</ele>
        <time>2018-05-04T11:41:03Z</time>
      </trkpt>
      <trkpt lat="45.59566" lon="-0.17259">
        <ele>97.69140625</ele>
        <time>2018-05-04T11:41:04Z</time>
      </trkpt>
      <trkpt lat="45.59572" lon="-0.17255">
        <ele>97.4765625</ele>
        <time>2018-05-04T11:41:05Z</time>
      </trkpt>
      <trkpt lat="45.59577" lon="-0.17251">
        <ele>97.2890625</ele>
        <time>2018-05-04T11:41:06Z</time>
      </trkpt>
      <trkpt lat="45.59582" lon="-0.17246">
        <ele>97.125</ele>
        <time>2018-05-04T11:41:07Z</time>
      </trkpt>
      <trkpt lat="45.59601" lon="-0.17225">
        <ele>96.4453125</ele>
        <time>2018-05-04T11:41:11Z</time>
      </trkpt>
      <trkpt lat="45.59604" lon="-0.17219">
        <ele>96.30859375</ele>
        <time>2018-05-04T11:41:12Z</time>
      </trkpt>
      <trkpt lat="45.59631" lon="-0.17172">
        <ele>95.390625</ele>
        <time>2018-05-04T11:41:21Z</time>
      </trkpt>
      <trkpt lat="45.59635" lon="-0.17163">
        <ele>95.19140625</ele>
        <time>2018-05-04T11:41:24Z</time>
      </trkpt>
      <trkpt lat="45.59638" lon="-0.17163">
        <ele>94.9921875</ele>
        <time>2018-05-04T11:41:25Z</time>
      </trkpt>
      <trkpt lat="45.59642" lon="-0.17164">
        <ele>94.71875</ele>
        <time>2018-05-04T11:41:26Z</time>
      </trkpt>
      <trkpt lat="45.59655" lon="-0.17174">
        <ele>93.74609375</ele>
        <time>2018-05-04T11:41:29Z</time>
      </trkpt>
      <trkpt lat="45.5966" lon="-0.17176">
        <ele>93.38671875</ele>
        <time>2018-05-04T11:41:30Z</time>
      </trkpt>
      <trkpt lat="45.59666" lon="-0.17178">
        <ele>93.02734375</ele>
        <time>2018-05-04T11:41:31Z</time>
      </trkpt>
      <trkpt lat="45.59671" lon="-0.17178">
        <ele>92.60546875</ele>
        <time>2018-05-04T11:41:32Z</time>
      </trkpt>
      <trkpt lat="45.59677" lon="-0.17176">
        <ele>92.1484375</ele>
        <time>2018-05-04T11:41:33Z</time>
      </trkpt>
      <trkpt lat="45.59682" lon="-0.17172">
        <ele>91.671875</ele>
        <time>2018-05-04T11:41:34Z</time>
      </trkpt>
      <trkpt lat="45.59687" lon="-0.17167">
        <ele>91.203125</ele>
        <time>2018-05-04T11:41:35Z</time>
      </trkpt>
      <trkpt lat="45.59703" lon="-0.17152">
        <ele>89.55859375</ele>
        <time>2018-05-04T11:41:38Z</time>
      </trkpt>
      <trkpt lat="45.59729" lon="-0.17127">
        <ele>87.3515625</ele>
        <time>2018-05-04T11:41:42Z</time>
      </trkpt>
      <trkpt lat="45.59736" lon="-0.17121">
        <ele>87.16796875</ele>
        <time>2018-05-04T11:41:43Z</time>
      </trkpt>
      <trkpt lat="45.59767" lon="-0.17079">
        <ele>87.95703125</ele>
        <time>2018-05-04T11:41:48Z</time>
      </trkpt>
      <trkpt lat="45.59771" lon="-0.17069">
        <ele>88.51953125</ele>
        <time>2018-05-04T11:41:49Z</time>
      </trkpt>
      <trkpt lat="45.59774" lon="-0.17059">
        <ele>89.1484375</ele>
        <time>2018-05-04T11:41:50Z</time>
      </trkpt>
      <trkpt lat="45.59777" lon="-0.17048">
        <ele>89.7890625</ele>
        <time>2018-05-04T11:41:51Z</time>
      </trkpt>
      <trkpt lat="45.59778" lon="-0.17038">
        <ele>90.40234375</ele>
        <time>2018-05-04T11:41:52Z</time>
      </trkpt>
      <trkpt lat="45.59779" lon="-0.17028">
        <ele>90.96875</ele>
        <time>2018-05-04T11:41:53Z</time>
      </trkpt>
      <trkpt lat="45.5978" lon="-0.17018">
        <ele>91.5</ele>
        <time>2018-05-04T11:41:54Z</time>
      </trkpt>
      <trkpt lat="45.59782" lon="-0.1701">
        <ele>91.96484375</ele>
        <time>2018-05-04T11:41:55Z</time>
      </trkpt>
      <trkpt lat="45.59784" lon="-0.17003">
        <ele>92.359375</ele>
        <time>2018-05-04T11:41:56Z</time>
      </trkpt>
      <trkpt lat="45.59786" lon="-0.16996">
        <ele>92.6796875</ele>
        <time>2018-05-04T11:41:57Z</time>
      </trkpt>
      <trkpt lat="45.5979" lon="-0.16986">
        <ele>93.11328125</ele>
        <time>2018-05-04T11:41:59Z</time>
      </trkpt>
      <trkpt lat="45.59793" lon="-0.16977">
        <ele>93.33203125</ele>
        <time>2018-05-04T11:42:01Z</time>
      </trkpt>
      <trkpt lat="45.5981" lon="-0.16939">
        <ele>93.73828125</ele>
        <time>2018-05-04T11:42:11Z</time>
      </trkpt>
      <trkpt lat="45.59824" lon="-0.16907">
        <ele>93.30859375</ele>
        <time>2018-05-04T11:42:18Z</time>
      </trkpt>
      <trkpt lat="45.59827" lon="-0.16902">
        <ele>93.1953125</ele>
        <time>2018-05-04T11:42:19Z</time>
      </trkpt>
      <trkpt lat="45.59837" lon="-0.16889">
        <ele>92.890625</ele>
        <time>2018-05-04T11:42:22Z</time>
      </trkpt>
      <trkpt lat="45.59884" lon="-0.16813">
        <ele>94.59375</ele>
        <time>2018-05-04T11:42:39Z</time>
      </trkpt>
      <trkpt lat="45.59904" lon="-0.16772">
        <ele>96.1953125</ele>
        <time>2018-05-04T11:42:49Z</time>
      </trkpt>
      <trkpt lat="45.59925" lon="-0.16736">
        <ele>96.79296875</ele>
        <time>2018-05-04T11:43:00Z</time>
      </trkpt>
      <trkpt lat="45.59956" lon="-0.16689">
        <ele>96.99609375</ele>
        <time>2018-05-04T11:43:15Z</time>
      </trkpt>
      <trkpt lat="45.59989" lon="-0.16643">
        <ele>96.4921875</ele>
        <time>2018-05-04T11:43:30Z</time>
      </trkpt>
      <trkpt lat="45.60024" lon="-0.16598">
        <ele>97.28125</ele>
        <time>2018-05-04T11:43:45Z</time>
      </trkpt>
      <trkpt lat="45.60053" lon="-0.16557">
        <ele>97.734375</ele>
        <time>2018-05-04T11:43:58Z</time>
      </trkpt>
      <trkpt lat="45.60099" lon="-0.16517">
        <ele>97.93359375</ele>
        <time>2018-05-04T11:44:15Z</time>
      </trkpt>
      <trkpt lat="45.60146" lon="-0.1649">
        <ele>97.35546875</ele>
        <time>2018-05-04T11:44:31Z</time>
      </trkpt>
      <trkpt lat="45.60172" lon="-0.16475">
        <ele>97.04296875</ele>
        <time>2018-05-04T11:44:40Z</time>
      </trkpt>
      <trkpt lat="45.60218" lon="-0.1643">
        <ele>96.28515625</ele>
        <time>2018-05-04T11:44:57Z</time>
      </trkpt>
      <trkpt lat="45.60221" lon="-0.16427">
        <ele>96.29296875</ele>
        <time>2018-05-04T11:44:58Z</time>
      </trkpt>
      <trkpt lat="45.60223" lon="-0.16425">
        <ele>96.3203125</ele>
        <time>2018-05-04T11:44:59Z</time>
      </trkpt>
      <trkpt lat="45.60255" lon="-0.16392">
        <ele>96.453125</ele>
        <time>2018-05-04T11:45:10Z</time>
      </trkpt>
      <trkpt lat="45.60292" lon="-0.16339">
        <ele>97.203125</ele>
        <time>2018-05-04T11:45:25Z</time>
      </trkpt>
      <trkpt lat="45.60309" lon="-0.16313">
        <ele>97.12109375</ele>
        <time>2018-05-04T11:45:32Z</time>
      </trkpt>
      <trkpt lat="45.60313" lon="-0.16305">
        <ele>97.0625</ele>
        <time>2018-05-04T11:45:34Z</time>
      </trkpt>
      <trkpt lat="45.6032" lon="-0.16295">
        <ele>96.97265625</ele>
        <time>2018-05-04T11:45:37Z</time>
      </trkpt>
      <trkpt lat="45.60322" lon="-0.16291">
        <ele>96.9375</ele>
        <time>2018-05-04T11:45:38Z</time>
      </trkpt>
      <trkpt lat="45.6037" lon="-0.16224">
        <ele>98.26953125</ele>
        <time>2018-05-04T11:45:57Z</time>
      </trkpt>
      <trkpt lat="45.60378" lon="-0.16215">
        <ele>98.38671875</ele>
        <time>2018-05-04T11:46:00Z</time>
      </trkpt>
      <trkpt lat="45.60413" lon="-0.16191">
        <ele>98.90625</ele>
        <time>2018-05-04T11:46:11Z</time>
      </trkpt>
      <trkpt lat="45.60438" lon="-0.16182">
        <ele>98.77734375</ele>
        <time>2018-05-04T11:46:18Z</time>
      </trkpt>
      <trkpt lat="45.60489" lon="-0.16168">
        <ele>98.1015625</ele>
        <time>2018-05-04T11:46:32Z</time>
      </trkpt>
      <trkpt lat="45.60524" lon="-0.16173">
        <ele>99.62890625</ele>
        <time>2018-05-04T11:46:42Z</time>
      </trkpt>
      <trkpt lat="45.60544" lon="-0.16181">
        <ele>101.15625</ele>
        <time>2018-05-04T11:46:49Z</time>
      </trkpt>
      <trkpt lat="45.60554" lon="-0.16183">
        <ele>101.9375</ele>
        <time>2018-05-04T11:46:53Z</time>
      </trkpt>
      <trkpt lat="45.60556" lon="-0.16182">
        <ele>102.1328125</ele>
        <time>2018-05-04T11:46:54Z</time>
      </trkpt>
      <trkpt lat="45.60557" lon="-0.16179">
        <ele>102.28515625</ele>
        <time>2018-05-04T11:46:55Z</time>
      </trkpt>
      <trkpt lat="45.60558" lon="-0.16175">
        <ele>102.40625</ele>
        <time>2018-05-04T11:46:56Z</time>
      </trkpt>
      <trkpt lat="45.60559" lon="-0.16171">
        <ele>102.51171875</ele>
        <time>2018-05-04T11:46:57Z</time>
      </trkpt>
      <trkpt lat="45.6056" lon="-0.16167">
        <ele>102.609375</ele>
        <time>2018-05-04T11:46:58Z</time>
      </trkpt>
      <trkpt lat="45.60566" lon="-0.16087">
        <ele>104.24609375</ele>
        <time>2018-05-04T11:47:15Z</time>
      </trkpt>
      <trkpt lat="45.60565" lon="-0.15992">
        <ele>105.0859375</ele>
        <time>2018-05-04T11:47:33Z</time>
      </trkpt>
      <trkpt lat="45.60565" lon="-0.15914">
        <ele>106.6328125</ele>
        <time>2018-05-04T11:47:47Z</time>
      </trkpt>
      <trkpt lat="45.60568" lon="-0.15835">
        <ele>109.7421875</ele>
        <time>2018-05-04T11:48:03Z</time>
      </trkpt>
      <trkpt lat="45.6057" lon="-0.15769">
        <ele>113.0625</ele>
        <time>2018-05-04T11:48:16Z</time>
      </trkpt>
      <trkpt lat="45.60572" lon="-0.15695">
        <ele>114.9296875</ele>
        <time>2018-05-04T11:48:31Z</time>
      </trkpt>
      <trkpt lat="45.60573" lon="-0.15669">
        <ele>115.9140625</ele>
        <time>2018-05-04T11:48:36Z</time>
      </trkpt>
      <trkpt lat="45.60575" lon="-0.15625">
        <ele>117.640625</ele>
        <time>2018-05-04T11:48:45Z</time>
      </trkpt>
      <trkpt lat="45.60579" lon="-0.15553">
        <ele>119.55859375</ele>
        <time>2018-05-04T11:49:01Z</time>
      </trkpt>
      <trkpt lat="45.60582" lon="-0.15528">
        <ele>120.58984375</ele>
        <time>2018-05-04T11:49:07Z</time>
      </trkpt>
      <trkpt lat="45.60585" lon="-0.15498">
        <ele>122.0625</ele>
        <time>2018-05-04T11:49:14Z</time>
      </trkpt>
      <trkpt lat="45.60588" lon="-0.1547">
        <ele>123.390625</ele>
        <time>2018-05-04T11:49:15Z</time>
      </trkpt>
      <trkpt lat="45.60592" lon="-0.15432">
        <ele>125.19140625</ele>
        <time>2018-05-04T11:49:16Z</time>
      </trkpt>
      <trkpt lat="45.60588" lon="-0.15389">
        <ele>127.12109375</ele>
        <time>2018-05-04T11:49:17Z</time>
      </trkpt>
      <trkpt lat="45.60581" lon="-0.15346">
        <ele>129.2890625</ele>
        <time>2018-05-04T11:49:18Z</time>
      </trkpt>
      <trkpt lat="45.60571" lon="-0.1531">
        <ele>131.21484375</ele>
        <time>2018-05-04T11:49:19Z</time>
      </trkpt>
      <trkpt lat="45.60564" lon="-0.15279">
        <ele>132.9453125</ele>
        <time>2018-05-04T11:49:25Z</time>
      </trkpt>
      <trkpt lat="45.60557" lon="-0.15255">
        <ele>134.33203125</ele>
      </trkpt>
      <trkpt lat="45.60535" lon="-0.15227">
        <ele>136.15234375</ele>
      </trkpt>
      <trkpt lat="45.60517" lon="-0.15203">
        <ele>137.29296875</ele>
      </trkpt>
      <trkpt lat="45.60492" lon="-0.15176">
        <ele>138.74609375</ele>
      </trkpt>
      <trkpt lat="45.60475" lon="-0.15159">
        <ele>140.296875</ele>
      </trkpt>
      <trkpt lat="45.60459" lon="-0.15141">
        <ele>141.234375</ele>
      </trkpt>
      <trkpt lat="45.60452" lon="-0.15134">
        <ele>141.62109375</ele>
      </trkpt>
      <trkpt lat="45.60444" lon="-0.15128">
        <ele>142.04296875</ele>
      </trkpt>
      <trkpt lat="45.60428" lon="-0.15109">
        <ele>142.75390625</ele>
      </trkpt>
      <trkpt lat="45.60409" lon="-0.1509">
        <ele>143.21484375</ele>
      </trkpt>
      <trkpt lat="45.60398" lon="-0.15077">
        <ele>143.44921875</ele>
      </trkpt>
      <trkpt lat="45.60391" lon="-0.15069">
        <ele>143.58984375</ele>
      </trkpt>
      <trkpt lat="45.60387" lon="-0.15059">
        <ele>143.76171875</ele>
      </trkpt>
      <trkpt lat="45.60383" lon="-0.15049">
        <ele>143.86328125</ele>
      </trkpt>
      <trkpt lat="45.60376" lon="-0.15043">
        <ele>143.70703125</ele>
        <time>2018-05-04T12:00:48Z</time>
      </trkpt>
      <trkpt lat="45.6037" lon="-0.15036">
        <ele>143.4296875</ele>
        <time>2018-05-04T12:00:57Z</time>
      </trkpt>
      <trkpt lat="45.60363" lon="-0.15026">
        <ele>142.9921875</ele>
      </trkpt>
      <trkpt lat="45.60353" lon="-0.15007">
        <ele>142.1953125</ele>
      </trkpt>
      <trkpt lat="45.60345" lon="-0.14991">
        <ele>141.4453125</ele>
      </trkpt>
      <trkpt lat="45.60342" lon="-0.14973">
        <ele>140.2109375</ele>
      </trkpt>
      <trkpt lat="45.60342" lon="-0.14961">
        <ele>139.46484375</ele>
      </trkpt>
      <trkpt lat="45.60345" lon="-0.14946">
        <ele>138.70703125</ele>
        <time>2018-05-04T12:15:34Z</time>
      </trkpt>
      <trkpt lat="45.60338" lon="-0.14938">
        <ele>137.63671875</ele>
        <time>2018-05-04T12:15:36Z</time>
      </trkpt>
      <trkpt lat="45.60336" lon="-0.14934">
        <ele>137.19921875</ele>
        <time>2018-05-04T12:15:38Z</time>
      </trkpt>
      <trkpt lat="45.60336" lon="-0.14931">
        <ele>136.84765625</ele>
        <time>2018-05-04T12:15:39Z</time>
      </trkpt>
      <trkpt lat="45.60335" lon="-0.14927">
        <ele>136.4453125</ele>
        <time>2018-05-04T12:15:40Z</time>
      </trkpt>
      <trkpt lat="45.60332" lon="-0.14904">
        <ele>134.1640625</ele>
        <time>2018-05-04T12:15:44Z</time>
      </trkpt>
      <trkpt lat="45.6033" lon="-0.14898">
        <ele>133.45703125</ele>
        <time>2018-05-04T12:15:45Z</time>
      </trkpt>
      <trkpt lat="45.60328" lon="-0.14887">
        <ele>132.19921875</ele>
        <time>2018-05-04T12:15:47Z</time>
      </trkpt>
      <trkpt lat="45.60326" lon="-0.14881">
        <ele>131.59765625</ele>
        <time>2018-05-04T12:15:48Z</time>
      </trkpt>
      <trkpt lat="45.6032" lon="-0.14862">
        <ele>130.23828125</ele>
        <time>2018-05-04T12:15:51Z</time>
      </trkpt>
      <trkpt lat="45.60319" lon="-0.14855">
        <ele>129.7265625</ele>
        <time>2018-05-04T12:15:52Z</time>
      </trkpt>
      <trkpt lat="45.60314" lon="-0.14832">
        <ele>127.9375</ele>
        <time>2018-05-04T12:15:55Z</time>
      </trkpt>
      <trkpt lat="45.60306" lon="-0.14806">
        <ele>125.4609375</ele>
        <time>2018-05-04T12:15:58Z</time>
      </trkpt>
      <trkpt lat="45.603" lon="-0.14789">
        <ele>123.4296875</ele>
        <time>2018-05-04T12:16:00Z</time>
      </trkpt>
      <trkpt lat="45.60293" lon="-0.14772">
        <ele>120.94140625</ele>
        <time>2018-05-04T12:16:02Z</time>
      </trkpt>
      <trkpt lat="45.60285" lon="-0.14751">
        <ele>118.26171875</ele>
        <time>2018-05-04T12:16:04Z</time>
      </trkpt>
      <trkpt lat="45.60277" lon="-0.14727">
        <ele>115.45703125</ele>
        <time>2018-05-04T12:16:06Z</time>
      </trkpt>
      <trkpt lat="45.60273" lon="-0.14714">
        <ele>114.50390625</ele>
        <time>2018-05-04T12:16:07Z</time>
      </trkpt>
      <trkpt lat="45.60262" lon="-0.14672">
        <ele>111.53515625</ele>
        <time>2018-05-04T12:16:10Z</time>
      </trkpt>
      <trkpt lat="45.60254" lon="-0.14643">
        <ele>109.2421875</ele>
        <time>2018-05-04T12:16:12Z</time>
      </trkpt>
      <trkpt lat="45.60245" lon="-0.14613">
        <ele>106.8046875</ele>
        <time>2018-05-04T12:16:14Z</time>
      </trkpt>
      <trkpt lat="45.60237" lon="-0.14583">
        <ele>104.2578125</ele>
        <time>2018-05-04T12:16:16Z</time>
      </trkpt>
      <trkpt lat="45.60211" lon="-0.14497">
        <ele>99.328125</ele>
        <time>2018-05-04T12:16:22Z</time>
      </trkpt>
      <trkpt lat="45.60207" lon="-0.14483">
        <ele>98.56640625</ele>
        <time>2018-05-04T12:16:23Z</time>
      </trkpt>
      <trkpt lat="45.60199" lon="-0.14454">
        <ele>96.75390625</ele>
        <time>2018-05-04T12:16:25Z</time>
      </trkpt>
      <trkpt lat="45.60189" lon="-0.14411">
        <ele>94.0234375</ele>
        <time>2018-05-04T12:16:28Z</time>
      </trkpt>
      <trkpt lat="45.60184" lon="-0.14365">
        <ele>91.75390625</ele>
        <time>2018-05-04T12:16:31Z</time>
      </trkpt>
      <trkpt lat="45.60183" lon="-0.1435">
        <ele>90.875</ele>
        <time>2018-05-04T12:16:32Z</time>
      </trkpt>
      <trkpt lat="45.60178" lon="-0.14291">
        <ele>86.734375</ele>
        <time>2018-05-04T12:16:36Z</time>
      </trkpt>
      <trkpt lat="45.60177" lon="-0.14278">
        <ele>85.81640625</ele>
        <time>2018-05-04T12:16:37Z</time>
      </trkpt>
      <trkpt lat="45.60176" lon="-0.14259">
        <ele>84.30859375</ele>
        <time>2018-05-04T12:16:39Z</time>
      </trkpt>
      <trkpt lat="45.60175" lon="-0.14251">
        <ele>83.62890625</ele>
        <time>2018-05-04T12:16:40Z</time>
      </trkpt>
      <trkpt lat="45.60173" lon="-0.14239">
        <ele>82.50390625</ele>
        <time>2018-05-04T12:16:42Z</time>
      </trkpt>
      <trkpt lat="45.60168" lon="-0.14204">
        <ele>79.76953125</ele>
        <time>2018-05-04T12:16:47Z</time>
      </trkpt>
      <trkpt lat="45.60166" lon="-0.14196">
        <ele>79.34375</ele>
        <time>2018-05-04T12:16:48Z</time>
      </trkpt>
      <trkpt lat="45.60163" lon="-0.14188">
        <ele>78.9765625</ele>
        <time>2018-05-04T12:16:49Z</time>
      </trkpt>
      <trkpt lat="45.60159" lon="-0.1418">
        <ele>78.60546875</ele>
        <time>2018-05-04T12:16:50Z</time>
      </trkpt>
      <trkpt lat="45.60155" lon="-0.14174">
        <ele>78.2421875</ele>
        <time>2018-05-04T12:16:51Z</time>
      </trkpt>
      <trkpt lat="45.60152" lon="-0.1417">
        <ele>77.95703125</ele>
        <time>2018-05-04T12:16:52Z</time>
      </trkpt>
      <trkpt lat="45.60149" lon="-0.14168">
        <ele>77.78515625</ele>
        <time>2018-05-04T12:16:53Z</time>
      </trkpt>
      <trkpt lat="45.60147" lon="-0.14168">
        <ele>77.7109375</ele>
        <time>2018-05-04T12:16:54Z</time>
      </trkpt>
      <trkpt lat="45.60145" lon="-0.14169">
        <ele>77.72265625</ele>
        <time>2018-05-04T12:16:55Z</time>
      </trkpt>
      <trkpt lat="45.60143" lon="-0.14172">
        <ele>77.78515625</ele>
        <time>2018-05-04T12:16:56Z</time>
      </trkpt>
      <trkpt lat="45.60141" lon="-0.14175">
        <ele>77.859375</ele>
        <time>2018-05-04T12:16:57Z</time>
      </trkpt>
      <trkpt lat="45.60119" lon="-0.14213">
        <ele>79.13671875</ele>
        <time>2018-05-04T12:17:08Z</time>
      </trkpt>
      <trkpt lat="45.60083" lon="-0.14264">
        <ele>80.8125</ele>
        <time>2018-05-04T12:17:23Z</time>
      </trkpt>
      <trkpt lat="45.60074" lon="-0.14276">
        <ele>81.19921875</ele>
        <time>2018-05-04T12:17:27Z</time>
      </trkpt>
      <trkpt lat="45.60072" lon="-0.14276">
        <ele>81.22265625</ele>
        <time>2018-05-04T12:17:28Z</time>
      </trkpt>
      <trkpt lat="45.60068" lon="-0.14275">
        <ele>81.18359375</ele>
        <time>2018-05-04T12:17:29Z</time>
      </trkpt>
      <trkpt lat="45.60065" lon="-0.14272">
        <ele>81.1015625</ele>
        <time>2018-05-04T12:17:30Z</time>
      </trkpt>
      <trkpt lat="45.60062" lon="-0.14269">
        <ele>80.99609375</ele>
        <time>2018-05-04T12:17:31Z</time>
      </trkpt>
      <trkpt lat="45.6005" lon="-0.14256">
        <ele>80.46875</ele>
        <time>2018-05-04T12:17:34Z</time>
      </trkpt>
      <trkpt lat="45.60045" lon="-0.14251">
        <ele>80.28515625</ele>
        <time>2018-05-04T12:17:35Z</time>
      </trkpt>
      <trkpt lat="45.60036" lon="-0.1424">
        <ele>79.97265625</ele>
        <time>2018-05-04T12:17:37Z</time>
      </trkpt>
      <trkpt lat="45.60027" lon="-0.14228">
        <ele>79.75390625</ele>
        <time>2018-05-04T12:17:39Z</time>
      </trkpt>
      <trkpt lat="45.59999" lon="-0.14171">
        <ele>80.0546875</ele>
        <time>2018-05-04T12:17:49Z</time>
      </trkpt>
      <trkpt lat="45.59996" lon="-0.14167">
        <ele>80.43359375</ele>
        <time>2018-05-04T12:17:50Z</time>
      </trkpt>
      <trkpt lat="45.5999" lon="-0.14158">
        <ele>81.375</ele>
        <time>2018-05-04T12:17:53Z</time>
      </trkpt>
      <trkpt lat="45.59984" lon="-0.14154">
        <ele>82.21484375</ele>
      </trkpt>
      <trkpt lat="45.59978" lon="-0.1412">
        <ele>83.3046875</ele>
        <time>2018-05-04T12:18:02Z</time>
      </trkpt>
      <trkpt lat="45.59971" lon="-0.14086">
        <ele>84.15234375</ele>
        <time>2018-05-04T12:18:14Z</time>
      </trkpt>
      <trkpt lat="45.59972" lon="-0.14076">
        <ele>83.8046875</ele>
        <time>2018-05-04T12:18:18Z</time>
      </trkpt>
      <trkpt lat="45.5998" lon="-0.14063">
        <ele>82.109375</ele>
      </trkpt>
      <trkpt lat="45.60001" lon="-0.14045">
        <ele>78.88671875</ele>
        <time>2018-05-04T12:18:26Z</time>
      </trkpt>
      <trkpt lat="45.60003" lon="-0.1404">
        <ele>78.6796875</ele>
        <time>2018-05-04T12:18:27Z</time>
      </trkpt>
      <trkpt lat="45.60005" lon="-0.14035">
        <ele>78.45703125</ele>
        <time>2018-05-04T12:18:28Z</time>
      </trkpt>
      <trkpt lat="45.6001" lon="-0.1402">
        <ele>77.96875</ele>
        <time>2018-05-04T12:18:30Z</time>
      </trkpt>
      <trkpt lat="45.60012" lon="-0.14012">
        <ele>77.71484375</ele>
        <time>2018-05-04T12:18:31Z</time>
      </trkpt>
      <trkpt lat="45.60019" lon="-0.13977">
        <ele>76.6953125</ele>
        <time>2018-05-04T12:18:35Z</time>
      </trkpt>
      <trkpt lat="45.60021" lon="-0.13967">
        <ele>76.390625</ele>
        <time>2018-05-04T12:18:36Z</time>
      </trkpt>
      <trkpt lat="45.60024" lon="-0.13958">
        <ele>76.0703125</ele>
        <time>2018-05-04T12:18:37Z</time>
      </trkpt>
      <trkpt lat="45.60028" lon="-0.13949">
        <ele>75.6953125</ele>
        <time>2018-05-04T12:18:38Z</time>
      </trkpt>
      <trkpt lat="45.60031" lon="-0.1394">
        <ele>75.34375</ele>
        <time>2018-05-04T12:18:39Z</time>
      </trkpt>
      <trkpt lat="45.60053" lon="-0.13887">
        <ele>75.77734375</ele>
        <time>2018-05-04T12:18:45Z</time>
      </trkpt>
      <trkpt lat="45.60088" lon="-0.13811">
        <ele>80.98828125</ele>
        <time>2018-05-04T12:18:56Z</time>
      </trkpt>
      <trkpt lat="45.60091" lon="-0.13804">
        <ele>81.71484375</ele>
        <time>2018-05-04T12:18:58Z</time>
      </trkpt>
      <trkpt lat="45.60093" lon="-0.13802">
        <ele>81.91015625</ele>
        <time>2018-05-04T12:18:59Z</time>
      </trkpt>
      <trkpt lat="45.60094" lon="-0.13801">
        <ele>82.03515625</ele>
        <time>2018-05-04T12:19:00Z</time>
      </trkpt>
      <trkpt lat="45.60096" lon="-0.138">
        <ele>82.0546875</ele>
        <time>2018-05-04T12:19:01Z</time>
      </trkpt>
      <trkpt lat="45.60099" lon="-0.138">
        <ele>81.94921875</ele>
        <time>2018-05-04T12:19:02Z</time>
      </trkpt>
      <trkpt lat="45.60101" lon="-0.13801">
        <ele>81.80078125</ele>
        <time>2018-05-04T12:19:03Z</time>
      </trkpt>
      <trkpt lat="45.60104" lon="-0.13802">
        <ele>81.6015625</ele>
        <time>2018-05-04T12:19:04Z</time>
      </trkpt>
      <trkpt lat="45.60114" lon="-0.13808">
        <ele>80.59765625</ele>
      </trkpt>
      <trkpt lat="45.60119" lon="-0.13802">
        <ele>80.78515625</ele>
        <time>2018-05-04T12:19:09Z</time>
      </trkpt>
      <trkpt lat="45.60122" lon="-0.138">
        <ele>80.87109375</ele>
        <time>2018-05-04T12:19:10Z</time>
      </trkpt>
      <trkpt lat="45.60123" lon="-0.13797">
        <ele>80.9609375</ele>
        <time>2018-05-04T12:19:11Z</time>
      </trkpt>
      <trkpt lat="45.60129" lon="-0.13787">
        <ele>81.35546875</ele>
        <time>2018-05-04T12:19:17Z</time>
      </trkpt>
      <trkpt lat="45.60128" lon="-0.13783">
        <ele>81.80859375</ele>
        <time>2018-05-04T12:19:18Z</time>
      </trkpt>
      <trkpt lat="45.60125" lon="-0.13779">
        <ele>82.44140625</ele>
        <time>2018-05-04T12:19:28Z</time>
      </trkpt>
      <trkpt lat="45.60121" lon="-0.13774">
        <ele>83.40625</ele>
        <time>2018-05-04T12:19:40Z</time>
      </trkpt>
      <trkpt lat="45.60118" lon="-0.13764">
        <ele>84.859375</ele>
        <time>2018-05-04T12:19:50Z</time>
      </trkpt>
      <trkpt lat="45.60114" lon="-0.13756">
        <ele>86.25</ele>
        <time>2018-05-04T12:20:00Z</time>
      </trkpt>
      <trkpt lat="45.6011" lon="-0.13745">
        <ele>88.0625</ele>
        <time>2018-05-04T12:20:15Z</time>
      </trkpt>
      <trkpt lat="45.60109" lon="-0.13738">
        <ele>89.07421875</ele>
        <time>2018-05-04T12:20:30Z</time>
      </trkpt>
      <trkpt lat="45.60106" lon="-0.13732">
        <ele>90.0625</ele>
        <time>2018-05-04T12:20:42Z</time>
      </trkpt>
      <trkpt lat="45.60103" lon="-0.13727">
        <ele>90.7890625</ele>
        <time>2018-05-04T12:20:45Z</time>
      </trkpt>
      <trkpt lat="45.60102" lon="-0.13727">
        <ele>90.92578125</ele>
        <time>2018-05-04T12:20:46Z</time>
      </trkpt>
      <trkpt lat="45.60101" lon="-0.13726">
        <ele>91.08984375</ele>
        <time>2018-05-04T12:20:47Z</time>
      </trkpt>
      <trkpt lat="45.60091" lon="-0.13721">
        <ele>92.3984375</ele>
        <time>2018-05-04T12:21:02Z</time>
      </trkpt>
      <trkpt lat="45.6008" lon="-0.13713">
        <ele>94.2421875</ele>
        <time>2018-05-04T12:21:09Z</time>
      </trkpt>
      <trkpt lat="45.60068" lon="-0.137">
        <ele>97.09765625</ele>
        <time>2018-05-04T12:21:20Z</time>
      </trkpt>
      <trkpt lat="45.60052" lon="-0.13683">
        <ele>100.8359375</ele>
        <time>2018-05-04T12:21:32Z</time>
      </trkpt>
      <trkpt lat="45.60024" lon="-0.13651">
        <ele>103.640625</ele>
        <time>2018-05-04T12:21:45Z</time>
      </trkpt>
      <trkpt lat="45.60003" lon="-0.13619">
        <ele>106.20703125</ele>
        <time>2018-05-04T12:21:57Z</time>
      </trkpt>
      <trkpt lat="45.59976" lon="-0.13567">
        <ele>105.40625</ele>
        <time>2018-05-04T12:22:12Z</time>
      </trkpt>
      <trkpt lat="45.59949" lon="-0.13517">
        <ele>103.06640625</ele>
        <time>2018-05-04T12:22:24Z</time>
      </trkpt>
      <trkpt lat="45.59941" lon="-0.13492">
        <ele>102.72265625</ele>
        <time>2018-05-04T12:22:35Z</time>
      </trkpt>
      <trkpt lat="45.59936" lon="-0.13483">
        <ele>101.50390625</ele>
        <time>2018-05-04T12:22:36Z</time>
      </trkpt>
      <trkpt lat="45.59935" lon="-0.13476">
        <ele>100.67578125</ele>
        <time>2018-05-04T12:25:55Z</time>
      </trkpt>
      <trkpt lat="45.59932" lon="-0.1347">
        <ele>100.01953125</ele>
      </trkpt>
      <trkpt lat="45.5993" lon="-0.13466">
        <ele>99.48828125</ele>
      </trkpt>
      <trkpt lat="45.59928" lon="-0.13463">
        <ele>99.2109375</ele>
        <time>2018-05-04T12:25:58Z</time>
      </trkpt>
      <trkpt lat="45.59927" lon="-0.1346">
        <ele>98.875</ele>
        <time>2018-05-04T12:25:59Z</time>
      </trkpt>
      <trkpt lat="45.59924" lon="-0.13455">
        <ele>98.4296875</ele>
        <time>2018-05-04T12:26:00Z</time>
      </trkpt>
      <trkpt lat="45.5991" lon="-0.13434">
        <ele>96.79296875</ele>
        <time>2018-05-04T12:26:08Z</time>
      </trkpt>
      <trkpt lat="45.59903" lon="-0.13437">
        <ele>97.015625</ele>
        <time>2018-05-04T12:26:09Z</time>
      </trkpt>
      <trkpt lat="45.59898" lon="-0.13442">
        <ele>97.1953125</ele>
        <time>2018-05-04T12:26:10Z</time>
      </trkpt>
      <trkpt lat="45.59891" lon="-0.13449">
        <ele>97.296875</ele>
        <time>2018-05-04T12:26:12Z</time>
      </trkpt>
      <trkpt lat="45.59887" lon="-0.13453">
        <ele>97.34375</ele>
        <time>2018-05-04T12:26:13Z</time>
      </trkpt>
      <trkpt lat="45.59882" lon="-0.13456">
        <ele>97.5546875</ele>
        <time>2018-05-04T12:26:14Z</time>
      </trkpt>
      <trkpt lat="45.59873" lon="-0.13462">
        <ele>97.80859375</ele>
        <time>2018-05-04T12:26:16Z</time>
      </trkpt>
      <trkpt lat="45.59868" lon="-0.13464">
        <ele>97.87109375</ele>
        <time>2018-05-04T12:26:17Z</time>
      </trkpt>
      <trkpt lat="45.59835" lon="-0.13474">
        <ele>97.63671875</ele>
        <time>2018-05-04T12:26:23Z</time>
      </trkpt>
      <trkpt lat="45.59771" lon="-0.13482">
        <ele>96.65234375</ele>
        <time>2018-05-04T12:26:32Z</time>
      </trkpt>
      <trkpt lat="45.59688" lon="-0.13489">
        <ele>96.16015625</ele>
        <time>2018-05-04T12:26:45Z</time>
      </trkpt>
      <trkpt lat="45.59635" lon="-0.13496">
        <ele>97.3359375</ele>
        <time>2018-05-04T12:26:55Z</time>
      </trkpt>
      <trkpt lat="45.59553" lon="-0.13511">
        <ele>99.9765625</ele>
        <time>2018-05-04T12:27:12Z</time>
      </trkpt>
      <trkpt lat="45.59528" lon="-0.13524">
        <ele>99.7734375</ele>
        <time>2018-05-04T12:27:18Z</time>
      </trkpt>
      <trkpt lat="45.59525" lon="-0.13528">
        <ele>99.5</ele>
        <time>2018-05-04T12:27:19Z</time>
      </trkpt>
      <trkpt lat="45.59523" lon="-0.13533">
        <ele>99.140625</ele>
        <time>2018-05-04T12:27:20Z</time>
      </trkpt>
      <trkpt lat="45.5952" lon="-0.13539">
        <ele>98.73828125</ele>
        <time>2018-05-04T12:27:21Z</time>
      </trkpt>
      <trkpt lat="45.59518" lon="-0.13544">
        <ele>98.35546875</ele>
        <time>2018-05-04T12:27:22Z</time>
      </trkpt>
      <trkpt lat="45.59515" lon="-0.13549">
        <ele>98.16796875</ele>
        <time>2018-05-04T12:27:23Z</time>
      </trkpt>
      <trkpt lat="45.59512" lon="-0.13553">
        <ele>98.34375</ele>
        <time>2018-05-04T12:27:24Z</time>
      </trkpt>
      <trkpt lat="45.59509" lon="-0.13557">
        <ele>98.51953125</ele>
        <time>2018-05-04T12:27:25Z</time>
      </trkpt>
      <trkpt lat="45.59471" lon="-0.13601">
        <ele>100.59765625</ele>
        <time>2018-05-04T12:27:38Z</time>
      </trkpt>
      <trkpt lat="45.59457" lon="-0.13617">
        <ele>101.9609375</ele>
        <time>2018-05-04T12:27:44Z</time>
      </trkpt>
      <trkpt lat="45.59432" lon="-0.13646">
        <ele>103.96484375</ele>
        <time>2018-05-04T12:27:59Z</time>
      </trkpt>
      <trkpt lat="45.5941" lon="-0.13665">
        <ele>105.04296875</ele>
        <time>2018-05-04T12:28:13Z</time>
      </trkpt>
      <trkpt lat="45.59406" lon="-0.13669">
        <ele>105.40625</ele>
        <time>2018-05-04T12:28:16Z</time>
      </trkpt>
      <trkpt lat="45.59384" lon="-0.13689">
        <ele>107.453125</ele>
        <time>2018-05-04T12:28:32Z</time>
      </trkpt>
      <trkpt lat="45.59368" lon="-0.13701">
        <ele>109.1640625</ele>
        <time>2018-05-04T12:28:45Z</time>
      </trkpt>
      <trkpt lat="45.59347" lon="-0.13712">
        <ele>111.12890625</ele>
        <time>2018-05-04T12:29:01Z</time>
      </trkpt>
      <trkpt lat="45.59328" lon="-0.13714">
        <ele>112.609375</ele>
        <time>2018-05-04T12:29:14Z</time>
      </trkpt>
      <trkpt lat="45.59307" lon="-0.13721">
        <ele>115.84375</ele>
        <time>2018-05-04T12:29:28Z</time>
      </trkpt>
      <trkpt lat="45.59298" lon="-0.13741">
        <ele>118.984375</ele>
        <time>2018-05-04T12:29:40Z</time>
      </trkpt>
      <trkpt lat="45.59296" lon="-0.1375">
        <ele>120.125</ele>
        <time>2018-05-04T12:29:45Z</time>
      </trkpt>
      <trkpt lat="45.59294" lon="-0.1377">
        <ele>122.41796875</ele>
        <time>2018-05-04T12:29:57Z</time>
      </trkpt>
      <trkpt lat="45.5929" lon="-0.13774">
        <ele>123.23046875</ele>
      </trkpt>
      <trkpt lat="45.59283" lon="-0.13768">
        <ele>124.00390625</ele>
        <time>2018-05-04T12:30:06Z</time>
      </trkpt>
      <trkpt lat="45.59264" lon="-0.13741">
        <ele>124.40234375</ele>
        <time>2018-05-04T12:30:22Z</time>
      </trkpt>
      <trkpt lat="45.59247" lon="-0.13715">
        <ele>125.76171875</ele>
        <time>2018-05-04T12:30:36Z</time>
      </trkpt>
      <trkpt lat="45.5923" lon="-0.13698">
        <ele>128.12890625</ele>
        <time>2018-05-04T12:30:47Z</time>
      </trkpt>
      <trkpt lat="45.59207" lon="-0.1369">
        <ele>132.1796875</ele>
        <time>2018-05-04T12:30:59Z</time>
      </trkpt>
      <trkpt lat="45.59193" lon="-0.13693">
        <ele>135.01953125</ele>
        <time>2018-05-04T12:31:07Z</time>
      </trkpt>
      <trkpt lat="45.59176" lon="-0.13706">
        <ele>138.38671875</ele>
        <time>2018-05-04T12:31:19Z</time>
      </trkpt>
      <trkpt lat="45.59153" lon="-0.13731">
        <ele>140.671875</ele>
        <time>2018-05-04T12:31:30Z</time>
      </trkpt>
      <trkpt lat="45.59126" lon="-0.13758">
        <ele>141.62890625</ele>
        <time>2018-05-04T12:31:42Z</time>
      </trkpt>
      <trkpt lat="45.59109" lon="-0.13772">
        <ele>141.90625</ele>
      </trkpt>
      <trkpt lat="45.59102" lon="-0.13771">
        <ele>141.8203125</ele>
        <time>2018-05-04T12:31:51Z</time>
      </trkpt>
      <trkpt lat="45.59088" lon="-0.13741">
        <ele>142.53125</ele>
        <time>2018-05-04T12:32:00Z</time>
      </trkpt>
      <trkpt lat="45.59068" lon="-0.13693">
        <ele>144.81640625</ele>
        <time>2018-05-04T12:32:14Z</time>
      </trkpt>
      <trkpt lat="45.59059" lon="-0.13653">
        <ele>147.078125</ele>
        <time>2018-05-04T12:32:27Z</time>
      </trkpt>
      <trkpt lat="45.59057" lon="-0.13615">
        <ele>148.48046875</ele>
        <time>2018-05-04T12:32:36Z</time>
      </trkpt>
      <trkpt lat="45.59057" lon="-0.13573">
        <ele>149.48828125</ele>
        <time>2018-05-04T12:32:50Z</time>
      </trkpt>
      <trkpt lat="45.59059" lon="-0.13547">
        <ele>149.84375</ele>
        <time>2018-05-04T12:33:00Z</time>
      </trkpt>
      <trkpt lat="45.59059" lon="-0.13544">
        <ele>149.8203125</ele>
        <time>2018-05-04T12:33:13Z</time>
      </trkpt>
      <trkpt lat="45.59023" lon="-0.13531">
        <ele>150</ele>
        <time>2018-05-04T12:33:22Z</time>
      </trkpt>
      <trkpt lat="45.58999" lon="-0.13522">
        <ele>149.98046875</ele>
      </trkpt>
      <trkpt lat="45.58987" lon="-0.13519">
        <ele>149.6640625</ele>
      </trkpt>
      <trkpt lat="45.58974" lon="-0.13515">
        <ele>149.32421875</ele>
      </trkpt>
      <trkpt lat="45.58966" lon="-0.13513">
        <ele>149.140625</ele>
      </trkpt>
      <trkpt lat="45.58949" lon="-0.13517">
        <ele>148.66015625</ele>
        <time>2018-05-04T12:33:25Z</time>
      </trkpt>
      <trkpt lat="45.58928" lon="-0.13523">
        <ele>147.72265625</ele>
        <time>2018-05-04T12:33:28Z</time>
      </trkpt>
      <trkpt lat="45.58917" lon="-0.13533">
        <ele>147.1328125</ele>
        <time>2018-05-04T12:33:30Z</time>
      </trkpt>
      <trkpt lat="45.58908" lon="-0.1354">
        <ele>146.71484375</ele>
        <time>2018-05-04T12:33:32Z</time>
      </trkpt>
      <trkpt lat="45.58898" lon="-0.13551">
        <ele>146.203125</ele>
        <time>2018-05-04T12:33:35Z</time>
      </trkpt>
      <trkpt lat="45.58892" lon="-0.13563">
        <ele>145.57421875</ele>
        <time>2018-05-04T12:33:36Z</time>
      </trkpt>
      <trkpt lat="45.58875" lon="-0.13579">
        <ele>143.95703125</ele>
        <time>2018-05-04T12:33:40Z</time>
      </trkpt>
      <trkpt lat="45.58852" lon="-0.13593">
        <ele>142.23828125</ele>
        <time>2018-05-04T12:33:44Z</time>
      </trkpt>
      <trkpt lat="45.58831" lon="-0.13603">
        <ele>140.78515625</ele>
        <time>2018-05-04T12:33:47Z</time>
      </trkpt>
      <trkpt lat="45.58814" lon="-0.1361">
        <ele>139.0703125</ele>
        <time>2018-05-04T12:33:49Z</time>
      </trkpt>
      <trkpt lat="45.58796" lon="-0.13617">
        <ele>137.3125</ele>
        <time>2018-05-04T12:33:51Z</time>
      </trkpt>
      <trkpt lat="45.58787" lon="-0.1362">
        <ele>136.3828125</ele>
        <time>2018-05-04T12:33:52Z</time>
      </trkpt>
      <trkpt lat="45.58739" lon="-0.1364">
        <ele>130.359375</ele>
        <time>2018-05-04T12:33:57Z</time>
      </trkpt>
      <trkpt lat="45.5873" lon="-0.13645">
        <ele>129.453125</ele>
        <time>2018-05-04T12:33:58Z</time>
      </trkpt>
      <trkpt lat="45.58702" lon="-0.13664">
        <ele>126.3125</ele>
        <time>2018-05-04T12:34:01Z</time>
      </trkpt>
      <trkpt lat="45.58693" lon="-0.13671">
        <ele>125.12109375</ele>
        <time>2018-05-04T12:34:02Z</time>
      </trkpt>
      <trkpt lat="45.58657" lon="-0.13704">
        <ele>121.6171875</ele>
        <time>2018-05-04T12:34:06Z</time>
      </trkpt>
      <trkpt lat="45.58639" lon="-0.13723">
        <ele>119.59765625</ele>
        <time>2018-05-04T12:34:08Z</time>
      </trkpt>
      <trkpt lat="45.58611" lon="-0.13751">
        <ele>117.21875</ele>
        <time>2018-05-04T12:34:11Z</time>
      </trkpt>
      <trkpt lat="45.58602" lon="-0.13761">
        <ele>116.453125</ele>
        <time>2018-05-04T12:34:12Z</time>
      </trkpt>
      <trkpt lat="45.58568" lon="-0.13806">
        <ele>112.9453125</ele>
        <time>2018-05-04T12:34:16Z</time>
      </trkpt>
      <trkpt lat="45.58552" lon="-0.13831">
        <ele>111.40625</ele>
        <time>2018-05-04T12:34:18Z</time>
      </trkpt>
      <trkpt lat="45.58544" lon="-0.13843">
        <ele>110.2890625</ele>
        <time>2018-05-04T12:34:19Z</time>
      </trkpt>
      <trkpt lat="45.58528" lon="-0.13867">
        <ele>108.44921875</ele>
        <time>2018-05-04T12:34:21Z</time>
      </trkpt>
      <trkpt lat="45.58496" lon="-0.13908">
        <ele>105.16796875</ele>
        <time>2018-05-04T12:34:25Z</time>
      </trkpt>
      <trkpt lat="45.58488" lon="-0.13914">
        <ele>104.515625</ele>
        <time>2018-05-04T12:34:26Z</time>
      </trkpt>
      <trkpt lat="45.5848" lon="-0.13917">
        <ele>103.87890625</ele>
        <time>2018-05-04T12:34:27Z</time>
      </trkpt>
      <trkpt lat="45.58472" lon="-0.13918">
        <ele>103.24609375</ele>
        <time>2018-05-04T12:34:28Z</time>
      </trkpt>
      <trkpt lat="45.58462" lon="-0.13918">
        <ele>102.59765625</ele>
        <time>2018-05-04T12:34:29Z</time>
      </trkpt>
      <trkpt lat="45.58453" lon="-0.13916">
        <ele>101.94140625</ele>
        <time>2018-05-04T12:34:30Z</time>
      </trkpt>
      <trkpt lat="45.58443" lon="-0.13914">
        <ele>101.40234375</ele>
        <time>2018-05-04T12:34:31Z</time>
      </trkpt>
      <trkpt lat="45.58434" lon="-0.13912">
        <ele>101.48828125</ele>
        <time>2018-05-04T12:34:32Z</time>
      </trkpt>
      <trkpt lat="45.58425" lon="-0.13912">
        <ele>101.53515625</ele>
        <time>2018-05-04T12:34:33Z</time>
      </trkpt>
      <trkpt lat="45.58416" lon="-0.13914">
        <ele>101.5</ele>
        <time>2018-05-04T12:34:34Z</time>
      </trkpt>
      <trkpt lat="45.58394" lon="-0.13923">
        <ele>100.9609375</ele>
        <time>2018-05-04T12:34:37Z</time>
      </trkpt>
      <trkpt lat="45.58354" lon="-0.13952">
        <ele>102.09375</ele>
        <time>2018-05-04T12:34:45Z</time>
      </trkpt>
      <trkpt lat="45.58294" lon="-0.13974">
        <ele>104.1171875</ele>
        <time>2018-05-04T12:34:57Z</time>
      </trkpt>
      <trkpt lat="45.58278" lon="-0.13981">
        <ele>104.12890625</ele>
        <time>2018-05-04T12:35:00Z</time>
      </trkpt>
      <trkpt lat="45.58272" lon="-0.13983">
        <ele>103.97265625</ele>
        <time>2018-05-04T12:35:01Z</time>
      </trkpt>
      <trkpt lat="45.58202" lon="-0.13989">
        <ele>102.87890625</ele>
        <time>2018-05-04T12:35:15Z</time>
      </trkpt>
      <trkpt lat="45.58113" lon="-0.13982">
        <ele>101.3671875</ele>
        <time>2018-05-04T12:35:33Z</time>
      </trkpt>
      <trkpt lat="45.58101" lon="-0.1398">
        <ele>100.38671875</ele>
        <time>2018-05-04T12:35:35Z</time>
      </trkpt>
      <trkpt lat="45.58056" lon="-0.13973">
        <ele>96.30078125</ele>
        <time>2018-05-04T12:35:42Z</time>
      </trkpt>
      <trkpt lat="45.58042" lon="-0.13971">
        <ele>94.51171875</ele>
        <time>2018-05-04T12:35:44Z</time>
      </trkpt>
      <trkpt lat="45.58035" lon="-0.13969">
        <ele>93.62890625</ele>
        <time>2018-05-04T12:35:45Z</time>
      </trkpt>
      <trkpt lat="45.58028" lon="-0.13965">
        <ele>92.7421875</ele>
        <time>2018-05-04T12:35:46Z</time>
      </trkpt>
      <trkpt lat="45.58021" lon="-0.1396">
        <ele>91.81640625</ele>
        <time>2018-05-04T12:35:47Z</time>
      </trkpt>
      <trkpt lat="45.57996" lon="-0.13946">
        <ele>88.62109375</ele>
        <time>2018-05-04T12:35:50Z</time>
      </trkpt>
      <trkpt lat="45.57987" lon="-0.13944">
        <ele>87.7578125</ele>
        <time>2018-05-04T12:35:51Z</time>
      </trkpt>
      <trkpt lat="45.57978" lon="-0.13945">
        <ele>86.984375</ele>
        <time>2018-05-04T12:35:52Z</time>
      </trkpt>
      <trkpt lat="45.57937" lon="-0.13955">
        <ele>83.95703125</ele>
        <time>2018-05-04T12:35:59Z</time>
      </trkpt>
      <trkpt lat="45.57904" lon="-0.13969">
        <ele>84.140625</ele>
        <time>2018-05-04T12:36:07Z</time>
      </trkpt>
      <trkpt lat="45.57841" lon="-0.14007">
        <ele>84.0703125</ele>
        <time>2018-05-04T12:36:24Z</time>
      </trkpt>
      <trkpt lat="45.57802" lon="-0.14034">
        <ele>83.6875</ele>
        <time>2018-05-04T12:36:34Z</time>
      </trkpt>
      <trkpt lat="45.57793" lon="-0.1404">
        <ele>83.49609375</ele>
        <time>2018-05-04T12:36:36Z</time>
      </trkpt>
      <trkpt lat="45.57784" lon="-0.14041">
        <ele>83.0859375</ele>
        <time>2018-05-04T12:36:38Z</time>
      </trkpt>
      <trkpt lat="45.57781" lon="-0.14038">
        <ele>82.77734375</ele>
        <time>2018-05-04T12:36:39Z</time>
      </trkpt>
      <trkpt lat="45.57778" lon="-0.14033">
        <ele>82.47265625</ele>
        <time>2018-05-04T12:36:40Z</time>
      </trkpt>
      <trkpt lat="45.57775" lon="-0.14027">
        <ele>82.23828125</ele>
        <time>2018-05-04T12:36:41Z</time>
      </trkpt>
      <trkpt lat="45.57773" lon="-0.1402">
        <ele>82.02734375</ele>
        <time>2018-05-04T12:36:42Z</time>
      </trkpt>
      <trkpt lat="45.57767" lon="-0.14001">
        <ele>81.6015625</ele>
        <time>2018-05-04T12:36:45Z</time>
      </trkpt>
      <trkpt lat="45.57756" lon="-0.1397">
        <ele>82.578125</ele>
        <time>2018-05-04T12:36:50Z</time>
      </trkpt>
      <trkpt lat="45.57753" lon="-0.13966">
        <ele>82.8515625</ele>
        <time>2018-05-04T12:36:51Z</time>
      </trkpt>
      <trkpt lat="45.57749" lon="-0.13962">
        <ele>83.1171875</ele>
        <time>2018-05-04T12:36:52Z</time>
      </trkpt>
      <trkpt lat="45.57744" lon="-0.1396">
        <ele>83.3671875</ele>
        <time>2018-05-04T12:36:53Z</time>
      </trkpt>
      <trkpt lat="45.57739" lon="-0.13959">
        <ele>83.578125</ele>
        <time>2018-05-04T12:36:54Z</time>
      </trkpt>
      <trkpt lat="45.57735" lon="-0.13959">
        <ele>83.7421875</ele>
        <time>2018-05-04T12:36:55Z</time>
      </trkpt>
      <trkpt lat="45.5773" lon="-0.13961">
        <ele>83.859375</ele>
        <time>2018-05-04T12:36:56Z</time>
      </trkpt>
      <trkpt lat="45.57725" lon="-0.13963">
        <ele>83.94140625</ele>
        <time>2018-05-04T12:36:57Z</time>
      </trkpt>
      <trkpt lat="45.57721" lon="-0.13966">
        <ele>84.01171875</ele>
        <time>2018-05-04T12:36:58Z</time>
      </trkpt>
      <trkpt lat="45.57716" lon="-0.13968">
        <ele>84.0625</ele>
        <time>2018-05-04T12:36:59Z</time>
      </trkpt>
      <trkpt lat="45.57711" lon="-0.1397">
        <ele>84.1328125</ele>
        <time>2018-05-04T12:37:00Z</time>
      </trkpt>
      <trkpt lat="45.57706" lon="-0.13972">
        <ele>84.23046875</ele>
        <time>2018-05-04T12:37:01Z</time>
      </trkpt>
      <trkpt lat="45.57662" lon="-0.13978">
        <ele>84.72265625</ele>
        <time>2018-05-04T12:37:10Z</time>
      </trkpt>
      <trkpt lat="45.57657" lon="-0.13976">
        <ele>84.6640625</ele>
        <time>2018-05-04T12:37:11Z</time>
      </trkpt>
      <trkpt lat="45.57654" lon="-0.13973">
        <ele>84.74609375</ele>
        <time>2018-05-04T12:37:12Z</time>
      </trkpt>
      <trkpt lat="45.57651" lon="-0.13968">
        <ele>84.98046875</ele>
        <time>2018-05-04T12:37:13Z</time>
      </trkpt>
      <trkpt lat="45.5765" lon="-0.13962">
        <ele>85.32421875</ele>
        <time>2018-05-04T12:37:14Z</time>
      </trkpt>
      <trkpt lat="45.57651" lon="-0.13956">
        <ele>85.73046875</ele>
        <time>2018-05-04T12:37:15Z</time>
      </trkpt>
      <trkpt lat="45.57651" lon="-0.1395">
        <ele>86.15625</ele>
        <time>2018-05-04T12:37:16Z</time>
      </trkpt>
      <trkpt lat="45.57652" lon="-0.13945">
        <ele>86.56640625</ele>
        <time>2018-05-04T12:37:17Z</time>
      </trkpt>
      <trkpt lat="45.57652" lon="-0.1392">
        <ele>88.3828125</ele>
        <time>2018-05-04T12:37:23Z</time>
      </trkpt>
      <trkpt lat="45.57643" lon="-0.13899">
        <ele>89.62890625</ele>
        <time>2018-05-04T12:37:30Z</time>
      </trkpt>
      <trkpt lat="45.57614" lon="-0.1385">
        <ele>93.31640625</ele>
        <time>2018-05-04T12:37:45Z</time>
      </trkpt>
      <trkpt lat="45.57568" lon="-0.1378">
        <ele>95.28515625</ele>
        <time>2018-05-04T12:38:01Z</time>
      </trkpt>
      <trkpt lat="45.5753" lon="-0.13723">
        <ele>95.37890625</ele>
        <time>2018-05-04T12:38:14Z</time>
      </trkpt>
      <trkpt lat="45.57485" lon="-0.13648">
        <ele>97.109375</ele>
        <time>2018-05-04T12:38:31Z</time>
      </trkpt>
      <trkpt lat="45.57454" lon="-0.13606">
        <ele>96.46484375</ele>
        <time>2018-05-04T12:38:39Z</time>
      </trkpt>
      <trkpt lat="45.57445" lon="-0.13594">
        <ele>95.84765625</ele>
        <time>2018-05-04T12:38:41Z</time>
      </trkpt>
      <trkpt lat="45.5744" lon="-0.13587">
        <ele>96.04296875</ele>
        <time>2018-05-04T12:38:42Z</time>
      </trkpt>
      <trkpt lat="45.57436" lon="-0.1358">
        <ele>96.3046875</ele>
        <time>2018-05-04T12:38:43Z</time>
      </trkpt>
      <trkpt lat="45.57433" lon="-0.13572">
        <ele>96.6015625</ele>
        <time>2018-05-04T12:38:44Z</time>
      </trkpt>
      <trkpt lat="45.5743" lon="-0.13564">
        <ele>96.88671875</ele>
        <time>2018-05-04T12:38:45Z</time>
      </trkpt>
      <trkpt lat="45.57424" lon="-0.13551">
        <ele>97.21484375</ele>
        <time>2018-05-04T12:38:47Z</time>
      </trkpt>
      <trkpt lat="45.57382" lon="-0.13469">
        <ele>97.44921875</ele>
        <time>2018-05-04T12:39:01Z</time>
      </trkpt>
      <trkpt lat="45.57345" lon="-0.13389">
        <ele>97.48828125</ele>
        <time>2018-05-04T12:39:14Z</time>
      </trkpt>
      <trkpt lat="45.57341" lon="-0.13385">
        <ele>97.0625</ele>
        <time>2018-05-04T12:39:15Z</time>
      </trkpt>
      <trkpt lat="45.57337" lon="-0.13383">
        <ele>96.3359375</ele>
        <time>2018-05-04T12:39:16Z</time>
      </trkpt>
      <trkpt lat="45.57333" lon="-0.13385">
        <ele>95.6640625</ele>
        <time>2018-05-04T12:39:17Z</time>
      </trkpt>
      <trkpt lat="45.5733" lon="-0.13389">
        <ele>95.21875</ele>
        <time>2018-05-04T12:39:18Z</time>
      </trkpt>
      <trkpt lat="45.57327" lon="-0.13394">
        <ele>94.7734375</ele>
        <time>2018-05-04T12:39:19Z</time>
      </trkpt>
      <trkpt lat="45.57286" lon="-0.13443">
        <ele>90.43359375</ele>
        <time>2018-05-04T12:39:31Z</time>
      </trkpt>
      <trkpt lat="45.57261" lon="-0.13442">
        <ele>91.08203125</ele>
        <time>2018-05-04T12:39:38Z</time>
      </trkpt>
      <trkpt lat="45.57224" lon="-0.13395">
        <ele>93.70703125</ele>
        <time>2018-05-04T12:39:51Z</time>
      </trkpt>
      <trkpt lat="45.57208" lon="-0.13373">
        <ele>95.43359375</ele>
        <time>2018-05-04T12:40:03Z</time>
      </trkpt>
      <trkpt lat="45.57207" lon="-0.13356">
        <ele>95.6484375</ele>
        <time>2018-05-04T12:40:17Z</time>
      </trkpt>
      <trkpt lat="45.57196" lon="-0.1329">
        <ele>96.98828125</ele>
        <time>2018-05-04T12:40:35Z</time>
      </trkpt>
      <trkpt lat="45.57194" lon="-0.13245">
        <ele>96.69140625</ele>
        <time>2018-05-04T12:40:42Z</time>
      </trkpt>
      <trkpt lat="45.57193" lon="-0.13226">
        <ele>96.375</ele>
        <time>2018-05-04T12:40:48Z</time>
      </trkpt>
      <trkpt lat="45.57192" lon="-0.13206">
        <ele>96.22265625</ele>
      </trkpt>
      <trkpt lat="45.57193" lon="-0.13186">
        <ele>96.1484375</ele>
      </trkpt>
      <trkpt lat="45.57195" lon="-0.13159">
        <ele>96.0234375</ele>
      </trkpt>
      <trkpt lat="45.57198" lon="-0.13131">
        <ele>96.359375</ele>
      </trkpt>
      <trkpt lat="45.57203" lon="-0.13111">
        <ele>96.36328125</ele>
      </trkpt>
      <trkpt lat="45.57202" lon="-0.13105">
        <ele>96.53515625</ele>
      </trkpt>
      <trkpt lat="45.57199" lon="-0.131">
        <ele>96.8515625</ele>
      </trkpt>
      <trkpt lat="45.57194" lon="-0.13096">
        <ele>97.39453125</ele>
      </trkpt>
      <trkpt lat="45.57171" lon="-0.13086">
        <ele>99.40625</ele>
      </trkpt>
      <trkpt lat="45.57166" lon="-0.13082">
        <ele>99.88671875</ele>
      </trkpt>
      <trkpt lat="45.57154" lon="-0.13075">
        <ele>100.90625</ele>
      </trkpt>
      <trkpt lat="45.57142" lon="-0.13061">
        <ele>102.4453125</ele>
      </trkpt>
      <trkpt lat="45.57134" lon="-0.13047">
        <ele>104.12890625</ele>
      </trkpt>
      <trkpt lat="45.5713" lon="-0.13035">
        <ele>105.2421875</ele>
      </trkpt>
      <trkpt lat="45.5713" lon="-0.13017">
        <ele>106.4296875</ele>
      </trkpt>
      <trkpt lat="45.5713" lon="-0.12988">
        <ele>108.4296875</ele>
      </trkpt>
      <trkpt lat="45.57127" lon="-0.12976">
        <ele>109.484375</ele>
      </trkpt>
      <trkpt lat="45.5712" lon="-0.12963">
        <ele>111.16796875</ele>
      </trkpt>
      <trkpt lat="45.5711" lon="-0.12953">
        <ele>112.81640625</ele>
      </trkpt>
      <trkpt lat="45.57088" lon="-0.12932">
        <ele>114.6640625</ele>
      </trkpt>
      <trkpt lat="45.5707" lon="-0.12913">
        <ele>116.25</ele>
      </trkpt>
      <trkpt lat="45.57049" lon="-0.12892">
        <ele>118.046875</ele>
      </trkpt>
      <trkpt lat="45.57011" lon="-0.12842">
        <ele>120.83984375</ele>
      </trkpt>
      <trkpt lat="45.56985" lon="-0.12813">
        <ele>121.5078125</ele>
      </trkpt>
      <trkpt lat="45.56974" lon="-0.128">
        <ele>121.4453125</ele>
      </trkpt>
      <trkpt lat="45.5696" lon="-0.12776">
        <ele>121.98046875</ele>
      </trkpt>
      <trkpt lat="45.56954" lon="-0.12758">
        <ele>122.359375</ele>
      </trkpt>
      <trkpt lat="45.56952" lon="-0.12749">
        <ele>122.49609375</ele>
      </trkpt>
      <trkpt lat="45.56952" lon="-0.12737">
        <ele>122.7109375</ele>
      </trkpt>
      <trkpt lat="45.56958" lon="-0.12713">
        <ele>123.25390625</ele>
      </trkpt>
      <trkpt lat="45.56959" lon="-0.12698">
        <ele>123.55859375</ele>
      </trkpt>
      <trkpt lat="45.56964" lon="-0.12677">
        <ele>123.7890625</ele>
      </trkpt>
      <trkpt lat="45.56975" lon="-0.12645">
        <ele>123.265625</ele>
      </trkpt>
      <trkpt lat="45.56978" lon="-0.1263">
        <ele>122.98828125</ele>
      </trkpt>
      <trkpt lat="45.56989" lon="-0.12594">
        <ele>121.640625</ele>
      </trkpt>
      <trkpt lat="45.56955" lon="-0.12563">
        <ele>124.10546875</ele>
      </trkpt>
      <trkpt lat="45.5693" lon="-0.12542">
        <ele>126.28515625</ele>
      </trkpt>
      <trkpt lat="45.56909" lon="-0.12525">
        <ele>127.796875</ele>
      </trkpt>
      <trkpt lat="45.56878" lon="-0.12506">
        <ele>130.0546875</ele>
      </trkpt>
      <trkpt lat="45.56856" lon="-0.12492">
        <ele>131.4296875</ele>
      </trkpt>
      <trkpt lat="45.56805" lon="-0.12475">
        <ele>133.61328125</ele>
      </trkpt>
      <trkpt lat="45.5677" lon="-0.1246">
        <ele>135.015625</ele>
      </trkpt>
      <trkpt lat="45.56735" lon="-0.12455">
        <ele>137.25390625</ele>
      </trkpt>
      <trkpt lat="45.56644" lon="-0.12443">
        <ele>140.9765625</ele>
      </trkpt>
      <trkpt lat="45.566" lon="-0.12444">
        <ele>142.8203125</ele>
      </trkpt>
      <trkpt lat="45.56548" lon="-0.12443">
        <ele>145.81640625</ele>
      </trkpt>
      <trkpt lat="45.56512" lon="-0.12429">
        <ele>148.1796875</ele>
      </trkpt>
      <trkpt lat="45.56462" lon="-0.12422">
        <ele>151.13671875</ele>
      </trkpt>
      <trkpt lat="45.56463" lon="-0.12432">
        <ele>151.1015625</ele>
      </trkpt>
      <trkpt lat="45.56458" lon="-0.12467">
        <ele>151.5859375</ele>
      </trkpt>
      <trkpt lat="45.56454" lon="-0.12486">
        <ele>151.81640625</ele>
      </trkpt>
      <trkpt lat="45.56449" lon="-0.12532">
        <ele>151.90625</ele>
      </trkpt>
      <trkpt lat="45.56441" lon="-0.12557">
        <ele>151.85546875</ele>
      </trkpt>
      <trkpt lat="45.56431" lon="-0.12577">
        <ele>151.6171875</ele>
      </trkpt>
      <trkpt lat="45.56423" lon="-0.12596">
        <ele>151.5</ele>
      </trkpt>
      <trkpt lat="45.56421" lon="-0.12604">
        <ele>151.453125</ele>
      </trkpt>
      <trkpt lat="45.56421" lon="-0.12621">
        <ele>151.58984375</ele>
      </trkpt>
      <trkpt lat="45.56421" lon="-0.12629">
        <ele>151.66015625</ele>
      </trkpt>
      <trkpt lat="45.56426" lon="-0.12652">
        <ele>151.68359375</ele>
      </trkpt>
      <trkpt lat="45.56429" lon="-0.12661">
        <ele>151.55078125</ele>
      </trkpt>
      <trkpt lat="45.56432" lon="-0.12672">
        <ele>151.109375</ele>
      </trkpt>
      <trkpt lat="45.56433" lon="-0.12681">
        <ele>150.76953125</ele>
      </trkpt>
      <trkpt lat="45.56433" lon="-0.12692">
        <ele>150.41796875</ele>
      </trkpt>
      <trkpt lat="45.5643" lon="-0.12704">
        <ele>150.19140625</ele>
      </trkpt>
      <trkpt lat="45.56429" lon="-0.12725">
        <ele>149.76171875</ele>
      </trkpt>
      <trkpt lat="45.56426" lon="-0.12732">
        <ele>149.78515625</ele>
      </trkpt>
      <trkpt lat="45.56423" lon="-0.12737">
        <ele>149.83984375</ele>
      </trkpt>
      <trkpt lat="45.56417" lon="-0.12739">
        <ele>150.1015625</ele>
      </trkpt>
      <trkpt lat="45.56412" lon="-0.12741">
        <ele>150.37890625</ele>
      </trkpt>
      <trkpt lat="45.56401" lon="-0.1274">
        <ele>150.97265625</ele>
      </trkpt>
      <trkpt lat="45.56385" lon="-0.12743">
        <ele>151.59765625</ele>
      </trkpt>
      <trkpt lat="45.56363" lon="-0.12748">
        <ele>151.9921875</ele>
      </trkpt>
      <trkpt lat="45.56347" lon="-0.12754">
        <ele>152.41015625</ele>
      </trkpt>
      <trkpt lat="45.5634" lon="-0.12759">
        <ele>152.66796875</ele>
      </trkpt>
      <trkpt lat="45.56333" lon="-0.12766">
        <ele>152.8125</ele>
      </trkpt>
      <trkpt lat="45.56329" lon="-0.12772">
        <ele>152.55078125</ele>
      </trkpt>
      <trkpt lat="45.56317" lon="-0.12779">
        <ele>151.625</ele>
      </trkpt>
      <trkpt lat="45.56295" lon="-0.12783">
        <ele>150.23828125</ele>
      </trkpt>
      <trkpt lat="45.56286" lon="-0.12784">
        <ele>149.66796875</ele>
      </trkpt>
      <trkpt lat="45.56271" lon="-0.12789">
        <ele>148.3515625</ele>
      </trkpt>
      <trkpt lat="45.56269" lon="-0.12791">
        <ele>148.08203125</ele>
      </trkpt>
      <trkpt lat="45.56261" lon="-0.12797">
        <ele>147.34375</ele>
      </trkpt>
      <trkpt lat="45.56258" lon="-0.12804">
        <ele>147.1796875</ele>
      </trkpt>
      <trkpt lat="45.56254" lon="-0.12824">
        <ele>147.22265625</ele>
      </trkpt>
      <trkpt lat="45.56252" lon="-0.12838">
        <ele>147.04296875</ele>
      </trkpt>
      <trkpt lat="45.56251" lon="-0.12845">
        <ele>146.97265625</ele>
      </trkpt>
      <trkpt lat="45.56253" lon="-0.12859">
        <ele>147.0703125</ele>
      </trkpt>
      <trkpt lat="45.56255" lon="-0.12874">
        <ele>147.2265625</ele>
      </trkpt>
      <trkpt lat="45.56259" lon="-0.12887">
        <ele>147.42578125</ele>
      </trkpt>
      <trkpt lat="45.56264" lon="-0.12898">
        <ele>147.55859375</ele>
      </trkpt>
      <trkpt lat="45.56272" lon="-0.12913">
        <ele>147.8515625</ele>
      </trkpt>
      <trkpt lat="45.5628" lon="-0.1293">
        <ele>148.12109375</ele>
      </trkpt>
      <trkpt lat="45.56285" lon="-0.12943">
        <ele>147.77734375</ele>
      </trkpt>
      <trkpt lat="45.56287" lon="-0.12954">
        <ele>147.34375</ele>
      </trkpt>
      <trkpt lat="45.56287" lon="-0.12961">
        <ele>147.0546875</ele>
      </trkpt>
      <trkpt lat="45.56285" lon="-0.12972">
        <ele>146.66015625</ele>
      </trkpt>
      <trkpt lat="45.56281" lon="-0.12981">
        <ele>146.37890625</ele>
      </trkpt>
      <trkpt lat="45.56273" lon="-0.12995">
        <ele>145.40234375</ele>
      </trkpt>
      <trkpt lat="45.56264" lon="-0.13009">
        <ele>144.109375</ele>
      </trkpt>
      <trkpt lat="45.5625" lon="-0.13037">
        <ele>142.31640625</ele>
      </trkpt>
      <trkpt lat="45.56239" lon="-0.13059">
        <ele>141.2734375</ele>
      </trkpt>
      <trkpt lat="45.56232" lon="-0.13068">
        <ele>140.875</ele>
      </trkpt>
      <trkpt lat="45.56223" lon="-0.13079">
        <ele>140.390625</ele>
      </trkpt>
      <trkpt lat="45.56219" lon="-0.13081">
        <ele>139.96875</ele>
      </trkpt>
      <trkpt lat="45.5621" lon="-0.1311">
        <ele>138.734375</ele>
      </trkpt>
      <trkpt lat="45.562" lon="-0.13134">
        <ele>137.15234375</ele>
      </trkpt>
      <trkpt lat="45.56186" lon="-0.13161">
        <ele>135.16796875</ele>
      </trkpt>
      <trkpt lat="45.56164" lon="-0.13203">
        <ele>131.90625</ele>
      </trkpt>
      <trkpt lat="45.56149" lon="-0.13226">
        <ele>129.53125</ele>
      </trkpt>
      <trkpt lat="45.56129" lon="-0.13256">
        <ele>127.10546875</ele>
      </trkpt>
      <trkpt lat="45.56106" lon="-0.13294">
        <ele>124.32421875</ele>
      </trkpt>
      <trkpt lat="45.56104" lon="-0.13304">
        <ele>123.7734375</ele>
      </trkpt>
      <trkpt lat="45.56104" lon="-0.13328">
        <ele>122.95703125</ele>
      </trkpt>
      <trkpt lat="45.561" lon="-0.13351">
        <ele>121.9140625</ele>
      </trkpt>
      <trkpt lat="45.56098" lon="-0.1336">
        <ele>121.4765625</ele>
      </trkpt>
      <trkpt lat="45.56091" lon="-0.13425">
        <ele>118.80859375</ele>
      </trkpt>
      <trkpt lat="45.56063" lon="-0.13499">
        <ele>113.0390625</ele>
      </trkpt>
      <trkpt lat="45.56029" lon="-0.13572">
        <ele>106.34375</ele>
      </trkpt>
      <trkpt lat="45.5602" lon="-0.13602">
        <ele>104.3046875</ele>
      </trkpt>
      <trkpt lat="45.56007" lon="-0.13652">
        <ele>100.671875</ele>
      </trkpt>
      <trkpt lat="45.55999" lon="-0.13675">
        <ele>99.54296875</ele>
      </trkpt>
      <trkpt lat="45.55993" lon="-0.13686">
        <ele>98.96484375</ele>
      </trkpt>
      <trkpt lat="45.55992" lon="-0.13691">
        <ele>98.77734375</ele>
      </trkpt>
      <trkpt lat="45.55987" lon="-0.13696">
        <ele>98.40625</ele>
      </trkpt>
      <trkpt lat="45.55984" lon="-0.137">
        <ele>98.1953125</ele>
      </trkpt>
      <trkpt lat="45.55978" lon="-0.13699">
        <ele>97.8671875</ele>
      </trkpt>
      <trkpt lat="45.55969" lon="-0.137">
        <ele>97.33984375</ele>
      </trkpt>
      <trkpt lat="45.55962" lon="-0.13699">
        <ele>96.90234375</ele>
      </trkpt>
      <trkpt lat="45.55953" lon="-0.13697">
        <ele>96.3984375</ele>
      </trkpt>
      <trkpt lat="45.55938" lon="-0.13701">
        <ele>95.796875</ele>
      </trkpt>
      <trkpt lat="45.55929" lon="-0.13708">
        <ele>95.47265625</ele>
      </trkpt>
      <trkpt lat="45.55918" lon="-0.13717">
        <ele>95.14453125</ele>
      </trkpt>
      <trkpt lat="45.55906" lon="-0.13734">
        <ele>95.21875</ele>
      </trkpt>
      <trkpt lat="45.55902" lon="-0.13738">
        <ele>95.125</ele>
      </trkpt>
      <trkpt lat="45.55889" lon="-0.13762">
        <ele>94.8125</ele>
      </trkpt>
      <trkpt lat="45.55867" lon="-0.13802">
        <ele>94.58203125</ele>
      </trkpt>
      <trkpt lat="45.55856" lon="-0.13827">
        <ele>93.92578125</ele>
      </trkpt>
      <trkpt lat="45.55854" lon="-0.1384">
        <ele>93.90234375</ele>
      </trkpt>
      <trkpt lat="45.55851" lon="-0.13852">
        <ele>93.734375</ele>
      </trkpt>
      <trkpt lat="45.5585" lon="-0.13882">
        <ele>93.86328125</ele>
      </trkpt>
      <trkpt lat="45.55849" lon="-0.13913">
        <ele>93.91015625</ele>
      </trkpt>
      <trkpt lat="45.55848" lon="-0.13937">
        <ele>93.875</ele>
      </trkpt>
      <trkpt lat="45.55845" lon="-0.13969">
        <ele>93.93359375</ele>
      </trkpt>
      <trkpt lat="45.55845" lon="-0.13973">
        <ele>93.90234375</ele>
      </trkpt>
      <trkpt lat="45.55841" lon="-0.13968">
        <ele>93.3984375</ele>
      </trkpt>
      <trkpt lat="45.55841" lon="-0.13965">
        <ele>93.2265625</ele>
        <time>2018-05-04T12:59:30Z</time>
      </trkpt>
      <trkpt lat="45.55837" lon="-0.13963">
        <ele>92.6875</ele>
        <time>2018-05-04T12:59:31Z</time>
      </trkpt>
      <trkpt lat="45.55833" lon="-0.13959">
        <ele>92.26171875</ele>
        <time>2018-05-04T12:59:32Z</time>
      </trkpt>
      <trkpt lat="45.55829" lon="-0.13956">
        <ele>91.9296875</ele>
        <time>2018-05-04T12:59:33Z</time>
      </trkpt>
      <trkpt lat="45.55824" lon="-0.13953">
        <ele>91.59375</ele>
        <time>2018-05-04T12:59:34Z</time>
      </trkpt>
      <trkpt lat="45.55819" lon="-0.13951">
        <ele>91.25390625</ele>
        <time>2018-05-04T12:59:35Z</time>
      </trkpt>
      <trkpt lat="45.55814" lon="-0.1395">
        <ele>90.90234375</ele>
        <time>2018-05-04T12:59:36Z</time>
      </trkpt>
      <trkpt lat="45.55802" lon="-0.13947">
        <ele>90.16796875</ele>
        <time>2018-05-04T12:59:38Z</time>
      </trkpt>
      <trkpt lat="45.55796" lon="-0.13947">
        <ele>89.79296875</ele>
        <time>2018-05-04T12:59:39Z</time>
      </trkpt>
      <trkpt lat="45.55784" lon="-0.13949">
        <ele>89.0234375</ele>
        <time>2018-05-04T12:59:41Z</time>
      </trkpt>
      <trkpt lat="45.55778" lon="-0.13952">
        <ele>88.765625</ele>
        <time>2018-05-04T12:59:42Z</time>
      </trkpt>
      <trkpt lat="45.55773" lon="-0.13955">
        <ele>88.86328125</ele>
        <time>2018-05-04T12:59:43Z</time>
      </trkpt>
      <trkpt lat="45.55768" lon="-0.13959">
        <ele>88.9140625</ele>
        <time>2018-05-04T12:59:44Z</time>
      </trkpt>
      <trkpt lat="45.55765" lon="-0.13962">
        <ele>88.94921875</ele>
        <time>2018-05-04T12:59:45Z</time>
      </trkpt>
      <trkpt lat="45.55763" lon="-0.13962">
        <ele>89.01171875</ele>
        <time>2018-05-04T12:59:46Z</time>
      </trkpt>
      <trkpt lat="45.55761" lon="-0.1396">
        <ele>89.10546875</ele>
        <time>2018-05-04T12:59:47Z</time>
      </trkpt>
      <trkpt lat="45.55759" lon="-0.13958">
        <ele>89.20703125</ele>
        <time>2018-05-04T12:59:48Z</time>
      </trkpt>
      <trkpt lat="45.55759" lon="-0.13955">
        <ele>89.29296875</ele>
        <time>2018-05-04T12:59:49Z</time>
      </trkpt>
      <trkpt lat="45.55759" lon="-0.13951">
        <ele>89.375</ele>
        <time>2018-05-04T12:59:50Z</time>
      </trkpt>
      <trkpt lat="45.55759" lon="-0.13948">
        <ele>89.453125</ele>
        <time>2018-05-04T12:59:51Z</time>
      </trkpt>
      <trkpt lat="45.55759" lon="-0.13944">
        <ele>89.53515625</ele>
        <time>2018-05-04T12:59:52Z</time>
      </trkpt>
      <trkpt lat="45.55767" lon="-0.13904">
        <ele>90.7578125</ele>
        <time>2018-05-04T13:00:04Z</time>
      </trkpt>
      <trkpt lat="45.5577" lon="-0.1387">
        <ele>92.0078125</ele>
        <time>2018-05-04T13:00:14Z</time>
      </trkpt>
      <trkpt lat="45.55778" lon="-0.13824">
        <ele>94.08984375</ele>
        <time>2018-05-04T13:00:26Z</time>
      </trkpt>
      <trkpt lat="45.55784" lon="-0.13789">
        <ele>95.7109375</ele>
        <time>2018-05-04T13:00:34Z</time>
      </trkpt>
      <trkpt lat="45.55799" lon="-0.13754">
        <ele>96.55859375</ele>
        <time>2018-05-04T13:00:44Z</time>
      </trkpt>
      <trkpt lat="45.55819" lon="-0.13724">
        <ele>97.203125</ele>
        <time>2018-05-04T13:00:54Z</time>
      </trkpt>
      <trkpt lat="45.55837" lon="-0.137">
        <ele>98.11328125</ele>
        <time>2018-05-04T13:01:02Z</time>
      </trkpt>
      <trkpt lat="45.55859" lon="-0.13664">
        <ele>99.4140625</ele>
        <time>2018-05-04T13:01:13Z</time>
      </trkpt>
      <trkpt lat="45.55872" lon="-0.13639">
        <ele>100.05078125</ele>
        <time>2018-05-04T13:01:21Z</time>
      </trkpt>
      <trkpt lat="45.55893" lon="-0.1361">
        <ele>100.4140625</ele>
        <time>2018-05-04T13:01:30Z</time>
      </trkpt>
      <trkpt lat="45.55908" lon="-0.1358">
        <ele>101.4921875</ele>
        <time>2018-05-04T13:01:40Z</time>
      </trkpt>
      <trkpt lat="45.55911" lon="-0.13571">
        <ele>101.7578125</ele>
        <time>2018-05-04T13:01:43Z</time>
      </trkpt>
      <trkpt lat="45.55918" lon="-0.13559">
        <ele>101.875</ele>
        <time>2018-05-04T13:01:47Z</time>
      </trkpt>
      <trkpt lat="45.55919" lon="-0.13557">
        <ele>101.93359375</ele>
        <time>2018-05-04T13:01:48Z</time>
      </trkpt>
      <trkpt lat="45.5592" lon="-0.13554">
        <ele>101.98046875</ele>
        <time>2018-05-04T13:01:49Z</time>
      </trkpt>
      <trkpt lat="45.55921" lon="-0.13552">
        <ele>102.0625</ele>
        <time>2018-05-04T13:01:50Z</time>
      </trkpt>
      <trkpt lat="45.55921" lon="-0.13549">
        <ele>102.1640625</ele>
        <time>2018-05-04T13:01:51Z</time>
      </trkpt>
      <trkpt lat="45.55924" lon="-0.13545">
        <ele>102.15234375</ele>
        <time>2018-05-04T13:01:52Z</time>
      </trkpt>
      <trkpt lat="45.55925" lon="-0.13543">
        <ele>102.203125</ele>
        <time>2018-05-04T13:01:53Z</time>
      </trkpt>
      <trkpt lat="45.55934" lon="-0.13516">
        <ele>102.80078125</ele>
        <time>2018-05-04T13:02:02Z</time>
      </trkpt>
      <trkpt lat="45.55936" lon="-0.13511">
        <ele>102.90625</ele>
        <time>2018-05-04T13:02:04Z</time>
      </trkpt>
      <trkpt lat="45.55937" lon="-0.13508">
        <ele>102.94140625</ele>
        <time>2018-05-04T13:02:05Z</time>
      </trkpt>
      <trkpt lat="45.55938" lon="-0.13505">
        <ele>103.02734375</ele>
        <time>2018-05-04T13:02:06Z</time>
      </trkpt>
      <trkpt lat="45.55939" lon="-0.13502">
        <ele>103.1328125</ele>
        <time>2018-05-04T13:02:07Z</time>
      </trkpt>
      <trkpt lat="45.55939" lon="-0.13499">
        <ele>103.27734375</ele>
        <time>2018-05-04T13:02:08Z</time>
      </trkpt>
      <trkpt lat="45.5594" lon="-0.13495">
        <ele>103.38671875</ele>
        <time>2018-05-04T13:02:09Z</time>
      </trkpt>
      <trkpt lat="45.5594" lon="-0.13493">
        <ele>103.515625</ele>
        <time>2018-05-04T13:02:10Z</time>
      </trkpt>
      <trkpt lat="45.5594" lon="-0.1349">
        <ele>103.625</ele>
        <time>2018-05-04T13:02:11Z</time>
      </trkpt>
      <trkpt lat="45.55942" lon="-0.1347">
        <ele>103.78125</ele>
        <time>2018-05-04T13:02:17Z</time>
      </trkpt>
      <trkpt lat="45.55943" lon="-0.13467">
        <ele>103.7578125</ele>
        <time>2018-05-04T13:02:18Z</time>
      </trkpt>
      <trkpt lat="45.55945" lon="-0.13464">
        <ele>103.65234375</ele>
        <time>2018-05-04T13:02:19Z</time>
      </trkpt>
      <trkpt lat="45.55946" lon="-0.1346">
        <ele>103.62109375</ele>
        <time>2018-05-04T13:02:20Z</time>
      </trkpt>
      <trkpt lat="45.55946" lon="-0.13457">
        <ele>103.63671875</ele>
        <time>2018-05-04T13:02:21Z</time>
      </trkpt>
      <trkpt lat="45.55947" lon="-0.13454">
        <ele>103.69921875</ele>
        <time>2018-05-04T13:02:22Z</time>
      </trkpt>
      <trkpt lat="45.55948" lon="-0.13451">
        <ele>103.8046875</ele>
        <time>2018-05-04T13:02:23Z</time>
      </trkpt>
      <trkpt lat="45.5595" lon="-0.13447">
        <ele>103.96484375</ele>
        <time>2018-05-04T13:02:24Z</time>
      </trkpt>
      <trkpt lat="45.55951" lon="-0.13442">
        <ele>104.13671875</ele>
        <time>2018-05-04T13:02:25Z</time>
      </trkpt>
      <trkpt lat="45.55952" lon="-0.13438">
        <ele>104.24609375</ele>
        <time>2018-05-04T13:02:26Z</time>
      </trkpt>
      <trkpt lat="45.55952" lon="-0.13432">
        <ele>104.4921875</ele>
        <time>2018-05-04T13:02:28Z</time>
      </trkpt>
      <trkpt lat="45.55952" lon="-0.13429">
        <ele>104.57421875</ele>
        <time>2018-05-04T13:02:29Z</time>
      </trkpt>
      <trkpt lat="45.55954" lon="-0.13397">
        <ele>105.80859375</ele>
        <time>2018-05-04T13:02:38Z</time>
      </trkpt>
      <trkpt lat="45.55953" lon="-0.13393">
        <ele>105.91796875</ele>
        <time>2018-05-04T13:02:39Z</time>
      </trkpt>
      <trkpt lat="45.55954" lon="-0.13389">
        <ele>106.12890625</ele>
        <time>2018-05-04T13:02:40Z</time>
      </trkpt>
      <trkpt lat="45.55954" lon="-0.13384">
        <ele>106.3203125</ele>
        <time>2018-05-04T13:02:41Z</time>
      </trkpt>
      <trkpt lat="45.55954" lon="-0.1338">
        <ele>106.4296875</ele>
        <time>2018-05-04T13:02:42Z</time>
      </trkpt>
      <trkpt lat="45.55954" lon="-0.13377">
        <ele>106.546875</ele>
        <time>2018-05-04T13:02:43Z</time>
      </trkpt>
      <trkpt lat="45.55954" lon="-0.13372">
        <ele>106.6796875</ele>
        <time>2018-05-04T13:02:44Z</time>
      </trkpt>
      <trkpt lat="45.55953" lon="-0.13367">
        <ele>106.828125</ele>
        <time>2018-05-04T13:02:45Z</time>
      </trkpt>
      <trkpt lat="45.55953" lon="-0.13363">
        <ele>106.984375</ele>
        <time>2018-05-04T13:02:46Z</time>
      </trkpt>
      <trkpt lat="45.55951" lon="-0.13321">
        <ele>108.25</ele>
        <time>2018-05-04T13:02:56Z</time>
      </trkpt>
      <trkpt lat="45.55951" lon="-0.13287">
        <ele>108.84765625</ele>
        <time>2018-05-04T13:03:05Z</time>
      </trkpt>
      <trkpt lat="45.55951" lon="-0.1328">
        <ele>108.9765625</ele>
        <time>2018-05-04T13:03:07Z</time>
      </trkpt>
      <trkpt lat="45.55952" lon="-0.13276">
        <ele>109.07421875</ele>
        <time>2018-05-04T13:03:08Z</time>
      </trkpt>
      <trkpt lat="45.55952" lon="-0.13272">
        <ele>109.16796875</ele>
        <time>2018-05-04T13:03:09Z</time>
      </trkpt>
      <trkpt lat="45.55954" lon="-0.13269">
        <ele>109.28515625</ele>
        <time>2018-05-04T13:03:10Z</time>
      </trkpt>
      <trkpt lat="45.55954" lon="-0.13266">
        <ele>109.40625</ele>
        <time>2018-05-04T13:03:11Z</time>
      </trkpt>
      <trkpt lat="45.55954" lon="-0.13261">
        <ele>109.5390625</ele>
        <time>2018-05-04T13:03:12Z</time>
      </trkpt>
      <trkpt lat="45.55954" lon="-0.13258">
        <ele>109.6484375</ele>
        <time>2018-05-04T13:03:13Z</time>
      </trkpt>
      <trkpt lat="45.55954" lon="-0.13254">
        <ele>109.78125</ele>
        <time>2018-05-04T13:03:14Z</time>
      </trkpt>
      <trkpt lat="45.55955" lon="-0.1325">
        <ele>109.8984375</ele>
        <time>2018-05-04T13:03:15Z</time>
      </trkpt>
      <trkpt lat="45.55955" lon="-0.13219">
        <ele>110.8671875</ele>
        <time>2018-05-04T13:03:25Z</time>
      </trkpt>
      <trkpt lat="45.55955" lon="-0.13215">
        <ele>110.97265625</ele>
        <time>2018-05-04T13:03:26Z</time>
      </trkpt>
      <trkpt lat="45.55955" lon="-0.13213">
        <ele>111.0546875</ele>
        <time>2018-05-04T13:03:27Z</time>
      </trkpt>
      <trkpt lat="45.55954" lon="-0.1321">
        <ele>111.15234375</ele>
        <time>2018-05-04T13:03:28Z</time>
      </trkpt>
      <trkpt lat="45.55953" lon="-0.13207">
        <ele>111.25390625</ele>
        <time>2018-05-04T13:03:29Z</time>
      </trkpt>
      <trkpt lat="45.55953" lon="-0.13205">
        <ele>111.33984375</ele>
        <time>2018-05-04T13:03:30Z</time>
      </trkpt>
      <trkpt lat="45.55953" lon="-0.13199">
        <ele>111.55078125</ele>
        <time>2018-05-04T13:03:32Z</time>
      </trkpt>
      <trkpt lat="45.55953" lon="-0.13197">
        <ele>111.625</ele>
        <time>2018-05-04T13:03:33Z</time>
      </trkpt>
      <trkpt lat="45.55953" lon="-0.13193">
        <ele>111.765625</ele>
        <time>2018-05-04T13:03:35Z</time>
      </trkpt>
      <trkpt lat="45.55953" lon="-0.13191">
        <ele>111.85546875</ele>
        <time>2018-05-04T13:03:36Z</time>
      </trkpt>
      <trkpt lat="45.55952" lon="-0.13174">
        <ele>112.4609375</ele>
        <time>2018-05-04T13:03:45Z</time>
      </trkpt>
      <trkpt lat="45.55947" lon="-0.13167">
        <ele>112.6953125</ele>
        <time>2018-05-04T13:03:55Z</time>
      </trkpt>
      <trkpt lat="45.55941" lon="-0.13175">
        <ele>113.2265625</ele>
        <time>2018-05-04T13:04:08Z</time>
      </trkpt>
      <trkpt lat="45.55936" lon="-0.13179">
        <ele>113.67578125</ele>
        <time>2018-05-04T13:04:21Z</time>
      </trkpt>
      <trkpt lat="45.55929" lon="-0.13189">
        <ele>114.28125</ele>
        <time>2018-05-04T13:04:30Z</time>
      </trkpt>
      <trkpt lat="45.5592" lon="-0.13194">
        <ele>115.19140625</ele>
        <time>2018-05-04T13:04:40Z</time>
      </trkpt>
      <trkpt lat="45.55915" lon="-0.13197">
        <ele>115.7578125</ele>
        <time>2018-05-04T13:04:55Z</time>
      </trkpt>
      <trkpt lat="45.55914" lon="-0.13197">
        <ele>115.91015625</ele>
        <time>2018-05-04T13:04:56Z</time>
      </trkpt>
      <trkpt lat="45.55895" lon="-0.13204">
        <ele>117.98828125</ele>
        <time>2018-05-04T13:05:07Z</time>
      </trkpt>
      <trkpt lat="45.55875" lon="-0.13211">
        <ele>119</ele>
        <time>2018-05-04T13:05:17Z</time>
      </trkpt>
      <trkpt lat="45.55842" lon="-0.13218">
        <ele>120.5234375</ele>
        <time>2018-05-04T13:05:28Z</time>
      </trkpt>
      <trkpt lat="45.55806" lon="-0.13227">
        <ele>120.1328125</ele>
        <time>2018-05-04T13:05:37Z</time>
      </trkpt>
      <trkpt lat="45.55783" lon="-0.13233">
        <ele>119.703125</ele>
        <time>2018-05-04T13:05:42Z</time>
      </trkpt>
      <trkpt lat="45.55748" lon="-0.13239">
        <ele>116.75</ele>
        <time>2018-05-04T13:05:48Z</time>
      </trkpt>
      <trkpt lat="45.55722" lon="-0.13242">
        <ele>114.421875</ele>
        <time>2018-05-04T13:05:51Z</time>
      </trkpt>
      <trkpt lat="45.55713" lon="-0.13243">
        <ele>114.05078125</ele>
        <time>2018-05-04T13:05:52Z</time>
      </trkpt>
      <trkpt lat="45.5569" lon="-0.13243">
        <ele>113.19921875</ele>
        <time>2018-05-04T13:05:55Z</time>
      </trkpt>
      <trkpt lat="45.55673" lon="-0.13245">
        <ele>112.5</ele>
        <time>2018-05-04T13:05:58Z</time>
      </trkpt>
      <trkpt lat="45.55669" lon="-0.13246">
        <ele>112.265625</ele>
        <time>2018-05-04T13:05:59Z</time>
      </trkpt>
      <trkpt lat="45.55657" lon="-0.13251">
        <ele>112.24609375</ele>
        <time>2018-05-04T13:06:02Z</time>
      </trkpt>
      <trkpt lat="45.55653" lon="-0.1325">
        <ele>112.33203125</ele>
        <time>2018-05-04T13:06:03Z</time>
      </trkpt>
      <trkpt lat="45.5565" lon="-0.13248">
        <ele>112.49609375</ele>
        <time>2018-05-04T13:06:04Z</time>
      </trkpt>
      <trkpt lat="45.55647" lon="-0.13246">
        <ele>112.69921875</ele>
        <time>2018-05-04T13:06:05Z</time>
      </trkpt>
      <trkpt lat="45.55645" lon="-0.13242">
        <ele>112.93359375</ele>
        <time>2018-05-04T13:06:06Z</time>
      </trkpt>
      <trkpt lat="45.55643" lon="-0.13238">
        <ele>113.18359375</ele>
        <time>2018-05-04T13:06:07Z</time>
      </trkpt>
      <trkpt lat="45.55642" lon="-0.13233">
        <ele>113.44921875</ele>
        <time>2018-05-04T13:06:08Z</time>
      </trkpt>
      <trkpt lat="45.55632" lon="-0.1317">
        <ele>117.046875</ele>
        <time>2018-05-04T13:06:21Z</time>
      </trkpt>
      <trkpt lat="45.55638" lon="-0.13157">
        <ele>117.66015625</ele>
        <time>2018-05-04T13:06:25Z</time>
      </trkpt>
      <trkpt lat="45.55656" lon="-0.13103">
        <ele>120.9921875</ele>
        <time>2018-05-04T13:06:42Z</time>
      </trkpt>
      <trkpt lat="45.55671" lon="-0.13058">
        <ele>122.625</ele>
        <time>2018-05-04T13:06:57Z</time>
      </trkpt>
      <trkpt lat="45.55676" lon="-0.13014">
        <ele>124.87890625</ele>
        <time>2018-05-04T13:07:11Z</time>
      </trkpt>
      <trkpt lat="45.55671" lon="-0.12973">
        <ele>127.0859375</ele>
        <time>2018-05-04T13:07:25Z</time>
      </trkpt>
      <trkpt lat="45.55671" lon="-0.1297">
        <ele>127.23828125</ele>
        <time>2018-05-04T13:07:26Z</time>
      </trkpt>
      <trkpt lat="45.55664" lon="-0.12919">
        <ele>129.49609375</ele>
        <time>2018-05-04T13:07:43Z</time>
      </trkpt>
      <trkpt lat="45.55659" lon="-0.12891">
        <ele>130.16796875</ele>
        <time>2018-05-04T13:07:53Z</time>
      </trkpt>
      <trkpt lat="45.55657" lon="-0.1289">
        <ele>130.10546875</ele>
        <time>2018-05-04T13:07:54Z</time>
      </trkpt>
      <trkpt lat="45.55655" lon="-0.12889">
        <ele>130.015625</ele>
        <time>2018-05-04T13:07:55Z</time>
      </trkpt>
      <trkpt lat="45.55653" lon="-0.12889">
        <ele>129.91015625</ele>
        <time>2018-05-04T13:07:56Z</time>
      </trkpt>
      <trkpt lat="45.5565" lon="-0.1289">
        <ele>129.796875</ele>
        <time>2018-05-04T13:07:57Z</time>
      </trkpt>
      <trkpt lat="45.55648" lon="-0.12891">
        <ele>129.67578125</ele>
        <time>2018-05-04T13:07:58Z</time>
      </trkpt>
      <trkpt lat="45.55646" lon="-0.12892">
        <ele>129.55078125</ele>
        <time>2018-05-04T13:07:59Z</time>
      </trkpt>
      <trkpt lat="45.55644" lon="-0.12894">
        <ele>129.42578125</ele>
        <time>2018-05-04T13:08:00Z</time>
      </trkpt>
      <trkpt lat="45.55642" lon="-0.12895">
        <ele>129.30859375</ele>
        <time>2018-05-04T13:08:01Z</time>
      </trkpt>
      <trkpt lat="45.55625" lon="-0.12906">
        <ele>128.43359375</ele>
        <time>2018-05-04T13:08:09Z</time>
      </trkpt>
      <trkpt lat="45.55616" lon="-0.12913">
        <ele>128.1015625</ele>
        <time>2018-05-04T13:08:12Z</time>
      </trkpt>
      <trkpt lat="45.55579" lon="-0.12927">
        <ele>126.78125</ele>
        <time>2018-05-04T13:08:22Z</time>
      </trkpt>
      <trkpt lat="45.55519" lon="-0.12942">
        <ele>126</ele>
        <time>2018-05-04T13:08:35Z</time>
      </trkpt>
      <trkpt lat="45.55453" lon="-0.12958">
        <ele>125.4453125</ele>
        <time>2018-05-04T13:08:48Z</time>
      </trkpt>
      <trkpt lat="45.55447" lon="-0.12959">
        <ele>125.41015625</ele>
        <time>2018-05-04T13:08:49Z</time>
      </trkpt>
      <trkpt lat="45.55407" lon="-0.12966">
        <ele>124.8046875</ele>
        <time>2018-05-04T13:08:56Z</time>
      </trkpt>
      <trkpt lat="45.55336" lon="-0.1298">
        <ele>123.59375</ele>
        <time>2018-05-04T13:09:07Z</time>
      </trkpt>
      <trkpt lat="45.55309" lon="-0.12987">
        <ele>122.8515625</ele>
        <time>2018-05-04T13:09:11Z</time>
      </trkpt>
      <trkpt lat="45.55302" lon="-0.12987">
        <ele>122.59375</ele>
        <time>2018-05-04T13:09:12Z</time>
      </trkpt>
      <trkpt lat="45.55255" lon="-0.12981">
        <ele>120.1796875</ele>
        <time>2018-05-04T13:09:18Z</time>
      </trkpt>
      <trkpt lat="45.55222" lon="-0.12975">
        <ele>117.9453125</ele>
        <time>2018-05-04T13:09:22Z</time>
      </trkpt>
      <trkpt lat="45.55204" lon="-0.12972">
        <ele>116.8359375</ele>
        <time>2018-05-04T13:09:24Z</time>
      </trkpt>
      <trkpt lat="45.55195" lon="-0.12972">
        <ele>116.3203125</ele>
        <time>2018-05-04T13:09:25Z</time>
      </trkpt>
      <trkpt lat="45.55186" lon="-0.12973">
        <ele>115.8671875</ele>
        <time>2018-05-04T13:09:26Z</time>
      </trkpt>
      <trkpt lat="45.55159" lon="-0.12979">
        <ele>114.70703125</ele>
        <time>2018-05-04T13:09:29Z</time>
      </trkpt>
      <trkpt lat="45.5514" lon="-0.12983">
        <ele>113.953125</ele>
        <time>2018-05-04T13:09:31Z</time>
      </trkpt>
      <trkpt lat="45.55045" lon="-0.13015">
        <ele>110.6328125</ele>
        <time>2018-05-04T13:09:42Z</time>
      </trkpt>
      <trkpt lat="45.55038" lon="-0.13019">
        <ele>110.578125</ele>
        <time>2018-05-04T13:09:43Z</time>
      </trkpt>
      <trkpt lat="45.55034" lon="-0.13025">
        <ele>110.64453125</ele>
        <time>2018-05-04T13:09:44Z</time>
      </trkpt>
      <trkpt lat="45.55031" lon="-0.13033">
        <ele>110.875</ele>
        <time>2018-05-04T13:09:45Z</time>
      </trkpt>
      <trkpt lat="45.5503" lon="-0.1304">
        <ele>111.1875</ele>
        <time>2018-05-04T13:09:46Z</time>
      </trkpt>
      <trkpt lat="45.55031" lon="-0.13048">
        <ele>111.51953125</ele>
        <time>2018-05-04T13:09:47Z</time>
      </trkpt>
      <trkpt lat="45.55031" lon="-0.13055">
        <ele>111.7421875</ele>
        <time>2018-05-04T13:09:48Z</time>
      </trkpt>
      <trkpt lat="45.55032" lon="-0.13068">
        <ele>112.12890625</ele>
        <time>2018-05-04T13:09:50Z</time>
      </trkpt>
      <trkpt lat="45.55031" lon="-0.13074">
        <ele>112.234375</ele>
        <time>2018-05-04T13:09:51Z</time>
      </trkpt>
      <trkpt lat="45.55028" lon="-0.1308">
        <ele>112.24609375</ele>
        <time>2018-05-04T13:09:52Z</time>
      </trkpt>
      <trkpt lat="45.55025" lon="-0.13084">
        <ele>112.1171875</ele>
        <time>2018-05-04T13:09:53Z</time>
      </trkpt>
      <trkpt lat="45.5502" lon="-0.13087">
        <ele>111.8671875</ele>
        <time>2018-05-04T13:09:54Z</time>
      </trkpt>
      <trkpt lat="45.55015" lon="-0.13089">
        <ele>111.57421875</ele>
        <time>2018-05-04T13:09:55Z</time>
      </trkpt>
      <trkpt lat="45.55009" lon="-0.13091">
        <ele>111.23828125</ele>
        <time>2018-05-04T13:09:56Z</time>
      </trkpt>
      <trkpt lat="45.55004" lon="-0.13092">
        <ele>110.8828125</ele>
        <time>2018-05-04T13:09:57Z</time>
      </trkpt>
      <trkpt lat="45.54971" lon="-0.13103">
        <ele>109.31640625</ele>
        <time>2018-05-04T13:10:02Z</time>
      </trkpt>
      <trkpt lat="45.54964" lon="-0.13105">
        <ele>108.94140625</ele>
        <time>2018-05-04T13:10:03Z</time>
      </trkpt>
      <trkpt lat="45.54948" lon="-0.1311">
        <ele>108.0859375</ele>
        <time>2018-05-04T13:10:05Z</time>
      </trkpt>
      <trkpt lat="45.54931" lon="-0.13115">
        <ele>106.55078125</ele>
        <time>2018-05-04T13:10:07Z</time>
      </trkpt>
      <trkpt lat="45.54902" lon="-0.13119">
        <ele>103.921875</ele>
        <time>2018-05-04T13:10:10Z</time>
      </trkpt>
      <trkpt lat="45.54893" lon="-0.13122">
        <ele>103.09765625</ele>
        <time>2018-05-04T13:10:11Z</time>
      </trkpt>
      <trkpt lat="45.54884" lon="-0.13125">
        <ele>102.140625</ele>
        <time>2018-05-04T13:10:12Z</time>
      </trkpt>
      <trkpt lat="45.54875" lon="-0.13126">
        <ele>101.1796875</ele>
        <time>2018-05-04T13:10:13Z</time>
      </trkpt>
      <trkpt lat="45.54857" lon="-0.13126">
        <ele>99.2421875</ele>
        <time>2018-05-04T13:10:15Z</time>
      </trkpt>
      <trkpt lat="45.54848" lon="-0.13127">
        <ele>98.3203125</ele>
        <time>2018-05-04T13:10:16Z</time>
      </trkpt>
      <trkpt lat="45.5484" lon="-0.1313">
        <ele>97.4375</ele>
        <time>2018-05-04T13:10:17Z</time>
      </trkpt>
      <trkpt lat="45.54832" lon="-0.13136">
        <ele>96.55859375</ele>
        <time>2018-05-04T13:10:18Z</time>
      </trkpt>
      <trkpt lat="45.54825" lon="-0.13143">
        <ele>95.71875</ele>
        <time>2018-05-04T13:10:19Z</time>
      </trkpt>
      <trkpt lat="45.54817" lon="-0.13149">
        <ele>94.8671875</ele>
        <time>2018-05-04T13:10:20Z</time>
      </trkpt>
      <trkpt lat="45.54808" lon="-0.1315">
        <ele>93.890625</ele>
        <time>2018-05-04T13:10:21Z</time>
      </trkpt>
      <trkpt lat="45.54798" lon="-0.13147">
        <ele>92.7890625</ele>
        <time>2018-05-04T13:10:22Z</time>
      </trkpt>
      <trkpt lat="45.54789" lon="-0.13144">
        <ele>91.65625</ele>
        <time>2018-05-04T13:10:23Z</time>
      </trkpt>
      <trkpt lat="45.54779" lon="-0.13142">
        <ele>90.6328125</ele>
        <time>2018-05-04T13:10:24Z</time>
      </trkpt>
      <trkpt lat="45.54769" lon="-0.13142">
        <ele>90.26953125</ele>
        <time>2018-05-04T13:10:25Z</time>
      </trkpt>
      <trkpt lat="45.54759" lon="-0.13144">
        <ele>89.9453125</ele>
        <time>2018-05-04T13:10:26Z</time>
      </trkpt>
      <trkpt lat="45.5475" lon="-0.13147">
        <ele>89.68359375</ele>
        <time>2018-05-04T13:10:27Z</time>
      </trkpt>
      <trkpt lat="45.54741" lon="-0.13152">
        <ele>89.46484375</ele>
        <time>2018-05-04T13:10:28Z</time>
      </trkpt>
      <trkpt lat="45.54733" lon="-0.13157">
        <ele>89.265625</ele>
        <time>2018-05-04T13:10:29Z</time>
      </trkpt>
      <trkpt lat="45.54712" lon="-0.13171">
        <ele>89.671875</ele>
        <time>2018-05-04T13:10:32Z</time>
      </trkpt>
      <trkpt lat="45.54694" lon="-0.13182">
        <ele>90.53125</ele>
        <time>2018-05-04T13:10:35Z</time>
      </trkpt>
      <trkpt lat="45.54679" lon="-0.13193">
        <ele>91.265625</ele>
        <time>2018-05-04T13:10:38Z</time>
      </trkpt>
      <trkpt lat="45.54661" lon="-0.13204">
        <ele>92.38671875</ele>
        <time>2018-05-04T13:10:42Z</time>
      </trkpt>
      <trkpt lat="45.54628" lon="-0.13226">
        <ele>95.07421875</ele>
        <time>2018-05-04T13:10:50Z</time>
      </trkpt>
      <trkpt lat="45.54624" lon="-0.13228">
        <ele>95.36328125</ele>
        <time>2018-05-04T13:10:51Z</time>
      </trkpt>
      <trkpt lat="45.54615" lon="-0.13231">
        <ele>95.9140625</ele>
        <time>2018-05-04T13:10:53Z</time>
      </trkpt>
      <trkpt lat="45.54611" lon="-0.13231">
        <ele>96.03125</ele>
        <time>2018-05-04T13:10:54Z</time>
      </trkpt>
      <trkpt lat="45.54607" lon="-0.13231">
        <ele>96.078125</ele>
        <time>2018-05-04T13:10:55Z</time>
      </trkpt>
      <trkpt lat="45.54602" lon="-0.1323">
        <ele>96.1171875</ele>
        <time>2018-05-04T13:10:56Z</time>
      </trkpt>
      <trkpt lat="45.54598" lon="-0.13229">
        <ele>96.14453125</ele>
        <time>2018-05-04T13:10:57Z</time>
      </trkpt>
      <trkpt lat="45.54594" lon="-0.13226">
        <ele>96.15625</ele>
        <time>2018-05-04T13:10:58Z</time>
      </trkpt>
      <trkpt lat="45.5459" lon="-0.13223">
        <ele>96.14453125</ele>
        <time>2018-05-04T13:10:59Z</time>
      </trkpt>
      <trkpt lat="45.54586" lon="-0.13221">
        <ele>96.1171875</ele>
        <time>2018-05-04T13:11:00Z</time>
      </trkpt>
      <trkpt lat="45.54528" lon="-0.13188">
        <ele>94.20703125</ele>
        <time>2018-05-04T13:11:11Z</time>
      </trkpt>
      <trkpt lat="45.54514" lon="-0.13186">
        <ele>93.48046875</ele>
        <time>2018-05-04T13:11:13Z</time>
      </trkpt>
      <trkpt lat="45.545" lon="-0.13185">
        <ele>92.81640625</ele>
        <time>2018-05-04T13:11:15Z</time>
      </trkpt>
      <trkpt lat="45.54488" lon="-0.13185">
        <ele>92.3203125</ele>
        <time>2018-05-04T13:11:17Z</time>
      </trkpt>
      <trkpt lat="45.54484" lon="-0.13186">
        <ele>92.16796875</ele>
        <time>2018-05-04T13:11:18Z</time>
      </trkpt>
      <trkpt lat="45.54473" lon="-0.13188">
        <ele>91.71875</ele>
        <time>2018-05-04T13:11:21Z</time>
      </trkpt>
      <trkpt lat="45.54469" lon="-0.13187">
        <ele>91.5</ele>
        <time>2018-05-04T13:11:22Z</time>
      </trkpt>
      <trkpt lat="45.54427" lon="-0.13174">
        <ele>90.63671875</ele>
        <time>2018-05-04T13:11:33Z</time>
      </trkpt>
      <trkpt lat="45.54414" lon="-0.13168">
        <ele>90.78515625</ele>
        <time>2018-05-04T13:11:38Z</time>
      </trkpt>
      <trkpt lat="45.54368" lon="-0.13154">
        <ele>91.2109375</ele>
        <time>2018-05-04T13:11:55Z</time>
      </trkpt>
      <trkpt lat="45.54341" lon="-0.13153">
        <ele>91.62109375</ele>
        <time>2018-05-04T13:12:05Z</time>
      </trkpt>
      <trkpt lat="45.54319" lon="-0.13161">
        <ele>92.75</ele>
        <time>2018-05-04T13:12:15Z</time>
      </trkpt>
      <trkpt lat="45.54291" lon="-0.1317">
        <ele>94.40234375</ele>
        <time>2018-05-04T13:12:28Z</time>
      </trkpt>
      <trkpt lat="45.54251" lon="-0.13185">
        <ele>96.12109375</ele>
        <time>2018-05-04T13:12:47Z</time>
      </trkpt>
      <trkpt lat="45.54216" lon="-0.132">
        <ele>97.66015625</ele>
        <time>2018-05-04T13:13:02Z</time>
      </trkpt>
      <trkpt lat="45.54182" lon="-0.13228">
        <ele>99.02734375</ele>
        <time>2018-05-04T13:13:17Z</time>
      </trkpt>
      <trkpt lat="45.54177" lon="-0.13246">
        <ele>99.8984375</ele>
        <time>2018-05-04T13:13:24Z</time>
      </trkpt>
      <trkpt lat="45.54178" lon="-0.1325">
        <ele>100.2109375</ele>
        <time>2018-05-04T13:13:26Z</time>
      </trkpt>
      <trkpt lat="45.5418" lon="-0.13252">
        <ele>100.37890625</ele>
        <time>2018-05-04T13:13:27Z</time>
      </trkpt>
      <trkpt lat="45.54182" lon="-0.13254">
        <ele>100.54296875</ele>
        <time>2018-05-04T13:13:28Z</time>
      </trkpt>
      <trkpt lat="45.54183" lon="-0.13256">
        <ele>100.7109375</ele>
        <time>2018-05-04T13:13:29Z</time>
      </trkpt>
      <trkpt lat="45.54214" lon="-0.13288">
        <ele>103</ele>
        <time>2018-05-04T13:13:45Z</time>
      </trkpt>
      <trkpt lat="45.54223" lon="-0.13295">
        <ele>103.37890625</ele>
        <time>2018-05-04T13:13:49Z</time>
      </trkpt>
      <trkpt lat="45.54223" lon="-0.13298">
        <ele>103.4609375</ele>
        <time>2018-05-04T13:13:50Z</time>
      </trkpt>
      <trkpt lat="45.54224" lon="-0.13302">
        <ele>103.53515625</ele>
        <time>2018-05-04T13:13:51Z</time>
      </trkpt>
      <trkpt lat="45.54223" lon="-0.13305">
        <ele>103.59765625</ele>
        <time>2018-05-04T13:13:52Z</time>
      </trkpt>
      <trkpt lat="45.54223" lon="-0.13309">
        <ele>103.65234375</ele>
        <time>2018-05-04T13:13:53Z</time>
      </trkpt>
      <trkpt lat="45.54223" lon="-0.13312">
        <ele>103.703125</ele>
        <time>2018-05-04T13:13:54Z</time>
      </trkpt>
      <trkpt lat="45.54207" lon="-0.1338">
        <ele>105.984375</ele>
        <time>2018-05-04T13:14:12Z</time>
      </trkpt>
      <trkpt lat="45.5419" lon="-0.13459">
        <ele>108.1875</ele>
        <time>2018-05-04T13:14:32Z</time>
      </trkpt>
      <trkpt lat="45.5417" lon="-0.13544">
        <ele>109.94140625</ele>
        <time>2018-05-04T13:14:49Z</time>
      </trkpt>
      <trkpt lat="45.54156" lon="-0.13642">
        <ele>110.0234375</ele>
        <time>2018-05-04T13:15:04Z</time>
      </trkpt>
      <trkpt lat="45.54153" lon="-0.13693">
        <ele>109.47265625</ele>
        <time>2018-05-04T13:15:11Z</time>
      </trkpt>
      <trkpt lat="45.54154" lon="-0.13701">
        <ele>109.4375</ele>
        <time>2018-05-04T13:15:12Z</time>
      </trkpt>
      <trkpt lat="45.54155" lon="-0.13708">
        <ele>109.47265625</ele>
        <time>2018-05-04T13:15:13Z</time>
      </trkpt>
      <trkpt lat="45.5418" lon="-0.13761">
        <ele>110.1796875</ele>
        <time>2018-05-04T13:15:23Z</time>
      </trkpt>
      <trkpt lat="45.54185" lon="-0.13771">
        <ele>109.90625</ele>
        <time>2018-05-04T13:15:25Z</time>
      </trkpt>
      <trkpt lat="45.54187" lon="-0.13777">
        <ele>109.578125</ele>
        <time>2018-05-04T13:15:26Z</time>
      </trkpt>
      <trkpt lat="45.54192" lon="-0.13801">
        <ele>108.09375</ele>
        <time>2018-05-04T13:15:30Z</time>
      </trkpt>
      <trkpt lat="45.54194" lon="-0.13807">
        <ele>107.68359375</ele>
        <time>2018-05-04T13:15:31Z</time>
      </trkpt>
      <trkpt lat="45.54198" lon="-0.1382">
        <ele>106.79296875</ele>
        <time>2018-05-04T13:15:33Z</time>
      </trkpt>
      <trkpt lat="45.54199" lon="-0.13827">
        <ele>106.30859375</ele>
        <time>2018-05-04T13:15:34Z</time>
      </trkpt>
      <trkpt lat="45.54199" lon="-0.13834">
        <ele>105.73828125</ele>
        <time>2018-05-04T13:15:35Z</time>
      </trkpt>
      <trkpt lat="45.54197" lon="-0.13842">
        <ele>105.16015625</ele>
        <time>2018-05-04T13:15:36Z</time>
      </trkpt>
      <trkpt lat="45.54194" lon="-0.13849">
        <ele>104.61328125</ele>
        <time>2018-05-04T13:15:37Z</time>
      </trkpt>
      <trkpt lat="45.5419" lon="-0.13857">
        <ele>104.12890625</ele>
        <time>2018-05-04T13:15:38Z</time>
      </trkpt>
      <trkpt lat="45.54186" lon="-0.13864">
        <ele>103.68359375</ele>
        <time>2018-05-04T13:15:39Z</time>
      </trkpt>
      <trkpt lat="45.54172" lon="-0.13884">
        <ele>102.640625</ele>
        <time>2018-05-04T13:15:42Z</time>
      </trkpt>
      <trkpt lat="45.54168" lon="-0.13888">
        <ele>102.44921875</ele>
        <time>2018-05-04T13:15:43Z</time>
      </trkpt>
      <trkpt lat="45.54163" lon="-0.13889">
        <ele>102.28125</ele>
        <time>2018-05-04T13:15:44Z</time>
      </trkpt>
      <trkpt lat="45.54159" lon="-0.13889">
        <ele>102.23828125</ele>
        <time>2018-05-04T13:15:45Z</time>
      </trkpt>
      <trkpt lat="45.54156" lon="-0.13888">
        <ele>102.265625</ele>
        <time>2018-05-04T13:15:46Z</time>
      </trkpt>
      <trkpt lat="45.54152" lon="-0.13886">
        <ele>102.328125</ele>
        <time>2018-05-04T13:15:47Z</time>
      </trkpt>
      <trkpt lat="45.54149" lon="-0.13884">
        <ele>102.3984375</ele>
        <time>2018-05-04T13:15:48Z</time>
      </trkpt>
      <trkpt lat="45.54145" lon="-0.13882">
        <ele>102.4765625</ele>
        <time>2018-05-04T13:15:49Z</time>
      </trkpt>
      <trkpt lat="45.54115" lon="-0.13863">
        <ele>102.3359375</ele>
        <time>2018-05-04T13:15:57Z</time>
      </trkpt>
      <trkpt lat="45.54101" lon="-0.13859">
        <ele>101.22265625</ele>
        <time>2018-05-04T13:16:00Z</time>
      </trkpt>
      <trkpt lat="45.54095" lon="-0.13858">
        <ele>100.77734375</ele>
        <time>2018-05-04T13:16:01Z</time>
      </trkpt>
      <trkpt lat="45.54078" lon="-0.13857">
        <ele>99.27734375</ele>
        <time>2018-05-04T13:16:04Z</time>
      </trkpt>
      <trkpt lat="45.54051" lon="-0.13851">
        <ele>96.76953125</ele>
        <time>2018-05-04T13:16:08Z</time>
      </trkpt>
      <trkpt lat="45.54043" lon="-0.13848">
        <ele>96.0390625</ele>
        <time>2018-05-04T13:16:09Z</time>
      </trkpt>
      <trkpt lat="45.54019" lon="-0.13839">
        <ele>93.68359375</ele>
        <time>2018-05-04T13:16:12Z</time>
      </trkpt>
      <trkpt lat="45.53992" lon="-0.13826">
        <ele>91.03515625</ele>
        <time>2018-05-04T13:16:15Z</time>
      </trkpt>
      <trkpt lat="45.53963" lon="-0.1381">
        <ele>88.15234375</ele>
        <time>2018-05-04T13:16:18Z</time>
      </trkpt>
      <trkpt lat="45.53954" lon="-0.13805">
        <ele>87.17578125</ele>
        <time>2018-05-04T13:16:19Z</time>
      </trkpt>
      <trkpt lat="45.53925" lon="-0.1379">
        <ele>84.62890625</ele>
        <time>2018-05-04T13:16:22Z</time>
      </trkpt>
      <trkpt lat="45.53909" lon="-0.13783">
        <ele>83.2734375</ele>
      </trkpt>
      <trkpt lat="45.53901" lon="-0.13797">
        <ele>82.73828125</ele>
        <time>2018-05-04T13:16:27Z</time>
      </trkpt>
      <trkpt lat="45.53887" lon="-0.13828">
        <ele>81.69140625</ele>
        <time>2018-05-04T13:16:36Z</time>
      </trkpt>
      <trkpt lat="45.53868" lon="-0.13863">
        <ele>81.0703125</ele>
        <time>2018-05-04T13:16:44Z</time>
      </trkpt>
      <trkpt lat="45.53855" lon="-0.13892">
        <ele>80.2265625</ele>
        <time>2018-05-04T13:17:01Z</time>
      </trkpt>
      <trkpt lat="45.53831" lon="-0.13943">
        <ele>78.80859375</ele>
        <time>2018-05-04T13:17:05Z</time>
      </trkpt>
      <trkpt lat="45.53818" lon="-0.13975">
        <ele>78.03515625</ele>
      </trkpt>
      <trkpt lat="45.53801" lon="-0.14014">
        <ele>76.46875</ele>
      </trkpt>
      <trkpt lat="45.53786" lon="-0.14047">
        <ele>74.734375</ele>
      </trkpt>
      <trkpt lat="45.5378" lon="-0.1406">
        <ele>73.95703125</ele>
      </trkpt>
      <trkpt lat="45.53775" lon="-0.14074">
        <ele>73.72265625</ele>
      </trkpt>
      <trkpt lat="45.53771" lon="-0.14102">
        <ele>73.30078125</ele>
      </trkpt>
      <trkpt lat="45.53772" lon="-0.14106">
        <ele>73.15234375</ele>
        <time>2018-05-04T13:19:39Z</time>
      </trkpt>
      <trkpt lat="45.53772" lon="-0.14109">
        <ele>72.99609375</ele>
        <time>2018-05-04T13:19:40Z</time>
      </trkpt>
      <trkpt lat="45.53771" lon="-0.14112">
        <ele>72.796875</ele>
        <time>2018-05-04T13:19:41Z</time>
      </trkpt>
      <trkpt lat="45.5377" lon="-0.14117">
        <ele>72.48828125</ele>
        <time>2018-05-04T13:19:42Z</time>
      </trkpt>
      <trkpt lat="45.53768" lon="-0.14122">
        <ele>72.1328125</ele>
        <time>2018-05-04T13:19:43Z</time>
      </trkpt>
      <trkpt lat="45.53765" lon="-0.14126">
        <ele>71.71484375</ele>
        <time>2018-05-04T13:19:44Z</time>
      </trkpt>
      <trkpt lat="45.53761" lon="-0.14136">
        <ele>70.96875</ele>
        <time>2018-05-04T13:19:46Z</time>
      </trkpt>
      <trkpt lat="45.53737" lon="-0.14181">
        <ele>68.87109375</ele>
        <time>2018-05-04T13:19:56Z</time>
      </trkpt>
      <trkpt lat="45.53733" lon="-0.1422">
        <ele>69.33203125</ele>
        <time>2018-05-04T13:20:03Z</time>
      </trkpt>
      <trkpt lat="45.53733" lon="-0.1423">
        <ele>69.6796875</ele>
        <time>2018-05-04T13:20:05Z</time>
      </trkpt>
      <trkpt lat="45.53731" lon="-0.14295">
        <ele>72.0234375</ele>
        <time>2018-05-04T13:20:20Z</time>
      </trkpt>
      <trkpt lat="45.5373" lon="-0.14354">
        <ele>74.73828125</ele>
        <time>2018-05-04T13:20:35Z</time>
      </trkpt>
      <trkpt lat="45.53728" lon="-0.14403">
        <ele>76.9375</ele>
        <time>2018-05-04T13:20:49Z</time>
      </trkpt>
      <trkpt lat="45.53729" lon="-0.14443">
        <ele>78.44140625</ele>
        <time>2018-05-04T13:21:01Z</time>
      </trkpt>
      <trkpt lat="45.53731" lon="-0.14489">
        <ele>80.25390625</ele>
        <time>2018-05-04T13:21:16Z</time>
      </trkpt>
      <trkpt lat="45.53735" lon="-0.14539">
        <ele>82.2421875</ele>
        <time>2018-05-04T13:21:33Z</time>
      </trkpt>
      <trkpt lat="45.53736" lon="-0.14555">
        <ele>83.05859375</ele>
        <time>2018-05-04T13:21:39Z</time>
      </trkpt>
      <trkpt lat="45.5374" lon="-0.14601">
        <ele>85.69140625</ele>
        <time>2018-05-04T13:21:55Z</time>
      </trkpt>
      <trkpt lat="45.53743" lon="-0.14637">
        <ele>87.37109375</ele>
        <time>2018-05-04T13:22:08Z</time>
      </trkpt>
      <trkpt lat="45.53747" lon="-0.14661">
        <ele>88.80859375</ele>
        <time>2018-05-04T13:22:18Z</time>
      </trkpt>
      <trkpt lat="45.53751" lon="-0.14675">
        <ele>90.06640625</ele>
        <time>2018-05-04T13:22:24Z</time>
      </trkpt>
      <trkpt lat="45.53762" lon="-0.14711">
        <ele>93.46875</ele>
        <time>2018-05-04T13:22:41Z</time>
      </trkpt>
      <trkpt lat="45.53771" lon="-0.14743">
        <ele>95.62890625</ele>
        <time>2018-05-04T13:22:56Z</time>
      </trkpt>
      <trkpt lat="45.53779" lon="-0.14784">
        <ele>97.7890625</ele>
        <time>2018-05-04T13:23:13Z</time>
      </trkpt>
      <trkpt lat="45.53784" lon="-0.14828">
        <ele>100.03515625</ele>
        <time>2018-05-04T13:23:28Z</time>
      </trkpt>
      <trkpt lat="45.53783" lon="-0.14838">
        <ele>99.8125</ele>
      </trkpt>
      <trkpt lat="45.5377" lon="-0.14841">
        <ele>99.44140625</ele>
        <time>2018-05-04T13:23:36Z</time>
      </trkpt>
      <trkpt lat="45.53716" lon="-0.14835">
        <ele>98.6484375</ele>
        <time>2018-05-04T13:23:52Z</time>
      </trkpt>
      <trkpt lat="45.53653" lon="-0.14825">
        <ele>99.60546875</ele>
        <time>2018-05-04T13:24:11Z</time>
      </trkpt>
      <trkpt lat="45.5365" lon="-0.14825">
        <ele>99.72265625</ele>
        <time>2018-05-04T13:24:12Z</time>
      </trkpt>
      <trkpt lat="45.53594" lon="-0.14829">
        <ele>100.94140625</ele>
        <time>2018-05-04T13:24:29Z</time>
      </trkpt>
      <trkpt lat="45.53567" lon="-0.14834">
        <ele>100.9765625</ele>
        <time>2018-05-04T13:24:36Z</time>
      </trkpt>
      <trkpt lat="45.53511" lon="-0.14854">
        <ele>101.53515625</ele>
        <time>2018-05-04T13:24:49Z</time>
      </trkpt>
      <trkpt lat="45.5346" lon="-0.14865">
        <ele>102.01171875</ele>
        <time>2018-05-04T13:24:59Z</time>
      </trkpt>
      <trkpt lat="45.53425" lon="-0.14871">
        <ele>101.1640625</ele>
        <time>2018-05-04T13:25:05Z</time>
      </trkpt>
      <trkpt lat="45.53343" lon="-0.1489">
        <ele>98.40234375</ele>
        <time>2018-05-04T13:25:18Z</time>
      </trkpt>
      <trkpt lat="45.53285" lon="-0.14906">
        <ele>97.08984375</ele>
        <time>2018-05-04T13:25:27Z</time>
      </trkpt>
      <trkpt lat="45.53269" lon="-0.1491">
        <ele>96.44921875</ele>
        <time>2018-05-04T13:25:29Z</time>
      </trkpt>
      <trkpt lat="45.53244" lon="-0.14915">
        <ele>95.23828125</ele>
        <time>2018-05-04T13:25:32Z</time>
      </trkpt>
      <trkpt lat="45.53235" lon="-0.14916">
        <ele>94.8046875</ele>
        <time>2018-05-04T13:25:33Z</time>
      </trkpt>
      <trkpt lat="45.53189" lon="-0.14922">
        <ele>91.765625</ele>
        <time>2018-05-04T13:25:38Z</time>
      </trkpt>
      <trkpt lat="45.5318" lon="-0.14924">
        <ele>91.0703125</ele>
        <time>2018-05-04T13:25:39Z</time>
      </trkpt>
      <trkpt lat="45.53151" lon="-0.14929">
        <ele>89.12890625</ele>
        <time>2018-05-04T13:25:42Z</time>
      </trkpt>
      <trkpt lat="45.5312" lon="-0.14934">
        <ele>87.33984375</ele>
        <time>2018-05-04T13:25:45Z</time>
      </trkpt>
      <trkpt lat="45.531" lon="-0.14934">
        <ele>86.484375</ele>
        <time>2018-05-04T13:25:47Z</time>
      </trkpt>
      <trkpt lat="45.53049" lon="-0.14929">
        <ele>84.8984375</ele>
        <time>2018-05-04T13:25:52Z</time>
      </trkpt>
      <trkpt lat="45.52927" lon="-0.14922">
        <ele>80.85546875</ele>
        <time>2018-05-04T13:26:04Z</time>
      </trkpt>
      <trkpt lat="45.52917" lon="-0.14922">
        <ele>80.68359375</ele>
        <time>2018-05-04T13:26:05Z</time>
      </trkpt>
      <trkpt lat="45.52896" lon="-0.14923">
        <ele>80.29296875</ele>
        <time>2018-05-04T13:26:09Z</time>
      </trkpt>
      <trkpt lat="45.52892" lon="-0.14924">
        <ele>80.1953125</ele>
        <time>2018-05-04T13:26:11Z</time>
      </trkpt>
      <trkpt lat="45.52891" lon="-0.14926">
        <ele>80.09765625</ele>
        <time>2018-05-04T13:26:12Z</time>
      </trkpt>
      <trkpt lat="45.5289" lon="-0.14929">
        <ele>80</ele>
        <time>2018-05-04T13:26:13Z</time>
      </trkpt>
      <trkpt lat="45.52889" lon="-0.14932">
        <ele>79.91796875</ele>
        <time>2018-05-04T13:26:14Z</time>
      </trkpt>
      <trkpt lat="45.52888" lon="-0.14935">
        <ele>79.8515625</ele>
        <time>2018-05-04T13:26:15Z</time>
      </trkpt>
      <trkpt lat="45.52888" lon="-0.14939">
        <ele>79.7890625</ele>
        <time>2018-05-04T13:26:16Z</time>
      </trkpt>
      <trkpt lat="45.52888" lon="-0.14942">
        <ele>79.73046875</ele>
        <time>2018-05-04T13:26:17Z</time>
      </trkpt>
      <trkpt lat="45.52889" lon="-0.14946">
        <ele>79.6640625</ele>
        <time>2018-05-04T13:26:18Z</time>
      </trkpt>
      <trkpt lat="45.52886" lon="-0.15">
        <ele>78.58984375</ele>
        <time>2018-05-04T13:26:28Z</time>
      </trkpt>
      <trkpt lat="45.52885" lon="-0.15022">
        <ele>77.890625</ele>
        <time>2018-05-04T13:26:32Z</time>
      </trkpt>
      <trkpt lat="45.5287" lon="-0.15087">
        <ele>75.81640625</ele>
        <time>2018-05-04T13:26:45Z</time>
      </trkpt>
      <trkpt lat="45.52867" lon="-0.15092">
        <ele>75.75</ele>
        <time>2018-05-04T13:26:46Z</time>
      </trkpt>
      <trkpt lat="45.52819" lon="-0.15171">
        <ele>75.41015625</ele>
        <time>2018-05-04T13:27:03Z</time>
      </trkpt>
      <trkpt lat="45.52784" lon="-0.15229">
        <ele>75.33203125</ele>
        <time>2018-05-04T13:27:14Z</time>
      </trkpt>
      <trkpt lat="45.52761" lon="-0.1528">
        <ele>73.67578125</ele>
        <time>2018-05-04T13:27:22Z</time>
      </trkpt>
      <trkpt lat="45.52758" lon="-0.15286">
        <ele>73.5078125</ele>
        <time>2018-05-04T13:27:23Z</time>
      </trkpt>
      <trkpt lat="45.52736" lon="-0.15326">
        <ele>72.80859375</ele>
        <time>2018-05-04T13:27:30Z</time>
      </trkpt>
      <trkpt lat="45.52733" lon="-0.15329">
        <ele>72.86328125</ele>
        <time>2018-05-04T13:27:31Z</time>
      </trkpt>
      <trkpt lat="45.5273" lon="-0.1533">
        <ele>72.92578125</ele>
        <time>2018-05-04T13:27:32Z</time>
      </trkpt>
      <trkpt lat="45.52727" lon="-0.15328">
        <ele>72.984375</ele>
        <time>2018-05-04T13:27:33Z</time>
      </trkpt>
      <trkpt lat="45.52724" lon="-0.15326">
        <ele>73</ele>
        <time>2018-05-04T13:27:34Z</time>
      </trkpt>
      <trkpt lat="45.52721" lon="-0.15324">
        <ele>73.00390625</ele>
        <time>2018-05-04T13:27:35Z</time>
      </trkpt>
      <trkpt lat="45.52685" lon="-0.15294">
        <ele>73.14453125</ele>
        <time>2018-05-04T13:27:46Z</time>
      </trkpt>
      <trkpt lat="45.52661" lon="-0.15279">
        <ele>72.34375</ele>
        <time>2018-05-04T13:27:53Z</time>
      </trkpt>
      <trkpt lat="45.52659" lon="-0.15281">
        <ele>72.1796875</ele>
        <time>2018-05-04T13:27:54Z</time>
      </trkpt>
      <trkpt lat="45.52657" lon="-0.15285">
        <ele>72.0234375</ele>
        <time>2018-05-04T13:27:55Z</time>
      </trkpt>
      <trkpt lat="45.52655" lon="-0.15289">
        <ele>71.87890625</ele>
        <time>2018-05-04T13:27:56Z</time>
      </trkpt>
      <trkpt lat="45.52653" lon="-0.15293">
        <ele>71.74609375</ele>
        <time>2018-05-04T13:27:57Z</time>
      </trkpt>
      <trkpt lat="45.52651" lon="-0.15298">
        <ele>71.609375</ele>
        <time>2018-05-04T13:27:58Z</time>
      </trkpt>
      <trkpt lat="45.52649" lon="-0.15304">
        <ele>71.44921875</ele>
        <time>2018-05-04T13:27:59Z</time>
      </trkpt>
      <trkpt lat="45.52616" lon="-0.15371">
        <ele>69.87109375</ele>
        <time>2018-05-04T13:28:11Z</time>
      </trkpt>
      <trkpt lat="45.52562" lon="-0.15439">
        <ele>68.23828125</ele>
        <time>2018-05-04T13:28:23Z</time>
      </trkpt>
      <trkpt lat="45.52521" lon="-0.15507">
        <ele>68.14453125</ele>
        <time>2018-05-04T13:28:35Z</time>
      </trkpt>
      <trkpt lat="45.52501" lon="-0.15536">
        <ele>67.69921875</ele>
        <time>2018-05-04T13:28:41Z</time>
      </trkpt>
      <trkpt lat="45.52495" lon="-0.15547">
        <ele>67.54296875</ele>
        <time>2018-05-04T13:28:43Z</time>
      </trkpt>
      <trkpt lat="45.52493" lon="-0.15553">
        <ele>67.4296875</ele>
        <time>2018-05-04T13:28:44Z</time>
      </trkpt>
      <trkpt lat="45.52489" lon="-0.15565">
        <ele>67.28515625</ele>
        <time>2018-05-04T13:28:46Z</time>
      </trkpt>
      <trkpt lat="45.52482" lon="-0.15608">
        <ele>67.13671875</ele>
        <time>2018-05-04T13:28:53Z</time>
      </trkpt>
      <trkpt lat="45.52479" lon="-0.1562">
        <ele>66.91796875</ele>
        <time>2018-05-04T13:28:55Z</time>
      </trkpt>
      <trkpt lat="45.52474" lon="-0.15644">
        <ele>66.5625</ele>
        <time>2018-05-04T13:28:59Z</time>
      </trkpt>
      <trkpt lat="45.52471" lon="-0.15655">
        <ele>66.41796875</ele>
        <time>2018-05-04T13:29:01Z</time>
      </trkpt>
      <trkpt lat="45.52454" lon="-0.15736">
        <ele>65.2109375</ele>
        <time>2018-05-04T13:29:13Z</time>
      </trkpt>
      <trkpt lat="45.52444" lon="-0.15797">
        <ele>63.4140625</ele>
        <time>2018-05-04T13:29:20Z</time>
      </trkpt>
      <trkpt lat="45.52443" lon="-0.15806">
        <ele>63.22265625</ele>
        <time>2018-05-04T13:29:21Z</time>
      </trkpt>
      <trkpt lat="45.52441" lon="-0.15822">
        <ele>62.89453125</ele>
        <time>2018-05-04T13:29:23Z</time>
      </trkpt>
      <trkpt lat="45.52441" lon="-0.15828">
        <ele>62.77734375</ele>
        <time>2018-05-04T13:29:24Z</time>
      </trkpt>
      <trkpt lat="45.52441" lon="-0.15833">
        <ele>62.6796875</ele>
        <time>2018-05-04T13:29:26Z</time>
      </trkpt>
      <trkpt lat="45.52436" lon="-0.15837">
        <ele>62.4765625</ele>
        <time>2018-05-04T13:29:45Z</time>
      </trkpt>
      <trkpt lat="45.5239" lon="-0.15833">
        <ele>61.609375</ele>
      </trkpt>
      <trkpt lat="45.52325" lon="-0.15835">
        <ele>60.421875</ele>
      </trkpt>
      <trkpt lat="45.52281" lon="-0.15833">
        <ele>59.83984375</ele>
      </trkpt>
      <trkpt lat="45.52227" lon="-0.15839">
        <ele>60</ele>
      </trkpt>
      <trkpt lat="45.52193" lon="-0.15843">
        <ele>59.79296875</ele>
      </trkpt>
      <trkpt lat="45.52169" lon="-0.15847">
        <ele>59.53125</ele>
      </trkpt>
      <trkpt lat="45.52132" lon="-0.15852">
        <ele>58.4453125</ele>
      </trkpt>
      <trkpt lat="45.521" lon="-0.15855">
        <ele>57.1640625</ele>
      </trkpt>
      <trkpt lat="45.52069" lon="-0.15855">
        <ele>55.5</ele>
      </trkpt>
      <trkpt lat="45.52047" lon="-0.15853">
        <ele>54.078125</ele>
      </trkpt>
      <trkpt lat="45.5203" lon="-0.15849">
        <ele>52.85546875</ele>
      </trkpt>
      <trkpt lat="45.51992" lon="-0.15838">
        <ele>49.921875</ele>
      </trkpt>
      <trkpt lat="45.51961" lon="-0.15827">
        <ele>47.08984375</ele>
      </trkpt>
      <trkpt lat="45.51932" lon="-0.15817">
        <ele>44.53515625</ele>
      </trkpt>
      <trkpt lat="45.51905" lon="-0.15809">
        <ele>41.8828125</ele>
      </trkpt>
      <trkpt lat="45.51872" lon="-0.15797">
        <ele>39.75390625</ele>
      </trkpt>
      <trkpt lat="45.51829" lon="-0.15786">
        <ele>38.10546875</ele>
      </trkpt>
      <trkpt lat="45.51791" lon="-0.1577">
        <ele>37.1640625</ele>
      </trkpt>
      <trkpt lat="45.5176" lon="-0.1576">
        <ele>37</ele>
      </trkpt>
      <trkpt lat="45.51726" lon="-0.15751">
        <ele>37</ele>
      </trkpt>
      <trkpt lat="45.51703" lon="-0.15747">
        <ele>37</ele>
      </trkpt>
      <trkpt lat="45.51684" lon="-0.15737">
        <ele>37</ele>
      </trkpt>
      <trkpt lat="45.51663" lon="-0.15732">
        <ele>37</ele>
      </trkpt>
      <trkpt lat="45.51639" lon="-0.15723">
        <ele>37</ele>
      </trkpt>
      <trkpt lat="45.51621" lon="-0.15719">
        <ele>37</ele>
      </trkpt>
      <trkpt lat="45.51612" lon="-0.15715">
        <ele>37.1484375</ele>
      </trkpt>
      <trkpt lat="45.51602" lon="-0.15712">
        <ele>37.5</ele>
      </trkpt>
      <trkpt lat="45.51593" lon="-0.15709">
        <ele>37.87890625</ele>
      </trkpt>
      <trkpt lat="45.51595" lon="-0.15725">
        <ele>37.73828125</ele>
      </trkpt>
      <trkpt lat="45.516" lon="-0.1574">
        <ele>37.57421875</ele>
      </trkpt>
      <trkpt lat="45.51604" lon="-0.15755">
        <ele>37.41796875</ele>
      </trkpt>
      <trkpt lat="45.51607" lon="-0.15764">
        <ele>37.3203125</ele>
      </trkpt>
      <trkpt lat="45.51607" lon="-0.15772">
        <ele>37.2578125</ele>
      </trkpt>
      <trkpt lat="45.51605" lon="-0.15787">
        <ele>37.125</ele>
      </trkpt>
      <trkpt lat="45.51604" lon="-0.15795">
        <ele>37.0234375</ele>
      </trkpt>
      <trkpt lat="45.51599" lon="-0.15813">
        <ele>37.03515625</ele>
      </trkpt>
      <trkpt lat="45.51594" lon="-0.15826">
        <ele>37.15234375</ele>
      </trkpt>
      <trkpt lat="45.51589" lon="-0.15843">
        <ele>37.4453125</ele>
      </trkpt>
      <trkpt lat="45.51584" lon="-0.15856">
        <ele>37.71875</ele>
      </trkpt>
      <trkpt lat="45.5158" lon="-0.15866">
        <ele>37.91015625</ele>
        <time>2018-05-04T13:29:51Z</time>
      </trkpt>
      <trkpt lat="45.51581" lon="-0.15865">
        <ele>37.87109375</ele>
      </trkpt>
      <trkpt lat="45.51578" lon="-0.15869">
        <ele>38.04296875</ele>
      </trkpt>
      <trkpt lat="45.51572" lon="-0.15872">
        <ele>38.33203125</ele>
      </trkpt>
      <trkpt lat="45.51566" lon="-0.1588">
        <ele>38.671875</ele>
      </trkpt>
      <trkpt lat="45.51562" lon="-0.15886">
        <ele>38.79296875</ele>
      </trkpt>
      <trkpt lat="45.51557" lon="-0.159">
        <ele>38.671875</ele>
      </trkpt>
      <trkpt lat="45.51555" lon="-0.15915">
        <ele>38.44140625</ele>
      </trkpt>
      <trkpt lat="45.51554" lon="-0.15929">
        <ele>38.20703125</ele>
      </trkpt>
      <trkpt lat="45.51554" lon="-0.15941">
        <ele>37.99609375</ele>
      </trkpt>
      <trkpt lat="45.51555" lon="-0.15952">
        <ele>37.78125</ele>
      </trkpt>
      <trkpt lat="45.51556" lon="-0.15965">
        <ele>37.53125</ele>
      </trkpt>
      <trkpt lat="45.51562" lon="-0.15985">
        <ele>37.09375</ele>
      </trkpt>
      <trkpt lat="45.51575" lon="-0.16034">
        <ele>37</ele>
      </trkpt>
      <trkpt lat="45.51578" lon="-0.16049">
        <ele>37.04296875</ele>
      </trkpt>
      <trkpt lat="45.51579" lon="-0.16061">
        <ele>37.18359375</ele>
      </trkpt>
      <trkpt lat="45.51578" lon="-0.16069">
        <ele>37.28125</ele>
      </trkpt>
      <trkpt lat="45.51576" lon="-0.16085">
        <ele>37.50390625</ele>
      </trkpt>
      <trkpt lat="45.51572" lon="-0.161">
        <ele>37.75390625</ele>
      </trkpt>
      <trkpt lat="45.51568" lon="-0.16114">
        <ele>37.85546875</ele>
      </trkpt>
      <trkpt lat="45.51566" lon="-0.16127">
        <ele>37.89453125</ele>
      </trkpt>
      <trkpt lat="45.51566" lon="-0.16139">
        <ele>37.89453125</ele>
      </trkpt>
      <trkpt lat="45.51565" lon="-0.16175">
        <ele>37.94140625</ele>
      </trkpt>
      <trkpt lat="45.51564" lon="-0.16194">
        <ele>37.9765625</ele>
      </trkpt>
      <trkpt lat="45.51563" lon="-0.16206">
        <ele>37.99609375</ele>
      </trkpt>
      <trkpt lat="45.51559" lon="-0.16221">
        <ele>38.0234375</ele>
      </trkpt>
      <trkpt lat="45.51554" lon="-0.16233">
        <ele>38.06640625</ele>
      </trkpt>
      <trkpt lat="45.51547" lon="-0.16249">
        <ele>38.08203125</ele>
      </trkpt>
      <trkpt lat="45.51512" lon="-0.16305">
        <ele>38</ele>
      </trkpt>
      <trkpt lat="45.51501" lon="-0.16327">
        <ele>38</ele>
      </trkpt>
      <trkpt lat="45.51491" lon="-0.16347">
        <ele>38</ele>
      </trkpt>
      <trkpt lat="45.51478" lon="-0.16375">
        <ele>38</ele>
      </trkpt>
      <trkpt lat="45.51464" lon="-0.16407">
        <ele>38</ele>
      </trkpt>
      <trkpt lat="45.51433" lon="-0.16478">
        <ele>38.05859375</ele>
      </trkpt>
      <trkpt lat="45.51405" lon="-0.16542">
        <ele>38</ele>
      </trkpt>
      <trkpt lat="45.51364" lon="-0.16632">
        <ele>38</ele>
      </trkpt>
      <trkpt lat="45.51354" lon="-0.16657">
        <ele>38</ele>
      </trkpt>
      <trkpt lat="45.51341" lon="-0.1664">
        <ele>38</ele>
      </trkpt>
      <trkpt lat="45.51326" lon="-0.16629">
        <ele>38.33203125</ele>
      </trkpt>
      <trkpt lat="45.51312" lon="-0.16623">
        <ele>38.7578125</ele>
      </trkpt>
      <trkpt lat="45.51297" lon="-0.16619">
        <ele>39.24609375</ele>
      </trkpt>
      <trkpt lat="45.5126" lon="-0.1661">
        <ele>40.6328125</ele>
      </trkpt>
      <trkpt lat="45.51238" lon="-0.16606">
        <ele>41.5234375</ele>
      </trkpt>
      <trkpt lat="45.51227" lon="-0.16605">
        <ele>41.92578125</ele>
      </trkpt>
      <trkpt lat="45.51215" lon="-0.16606">
        <ele>42.140625</ele>
      </trkpt>
      <trkpt lat="45.51166" lon="-0.16609">
        <ele>43.203125</ele>
      </trkpt>
      <trkpt lat="45.51077" lon="-0.16617">
        <ele>47.31640625</ele>
      </trkpt>
      <trkpt lat="45.51035" lon="-0.16619">
        <ele>49.55078125</ele>
      </trkpt>
      <trkpt lat="45.51025" lon="-0.1662">
        <ele>50.0234375</ele>
      </trkpt>
      <trkpt lat="45.51018" lon="-0.1663">
        <ele>50.42578125</ele>
      </trkpt>
      <trkpt lat="45.51015" lon="-0.16628">
        <ele>50.5625</ele>
      </trkpt>
      <trkpt lat="45.51008" lon="-0.16627">
        <ele>50.8515625</ele>
      </trkpt>
      <trkpt lat="45.50963" lon="-0.16639">
        <ele>51.75390625</ele>
      </trkpt>
      <trkpt lat="45.50909" lon="-0.16653">
        <ele>52.71875</ele>
      </trkpt>
      <trkpt lat="45.50869" lon="-0.16664">
        <ele>52.65625</ele>
      </trkpt>
      <trkpt lat="45.50843" lon="-0.16671">
        <ele>52.4765625</ele>
      </trkpt>
      <trkpt lat="45.50836" lon="-0.16672">
        <ele>52.4921875</ele>
      </trkpt>
      <trkpt lat="45.5083" lon="-0.16672">
        <ele>52.609375</ele>
      </trkpt>
      <trkpt lat="45.50824" lon="-0.16669">
        <ele>52.80078125</ele>
      </trkpt>
      <trkpt lat="45.50818" lon="-0.16665">
        <ele>53.0546875</ele>
      </trkpt>
      <trkpt lat="45.50811" lon="-0.16667">
        <ele>53.109375</ele>
      </trkpt>
      <trkpt lat="45.50804" lon="-0.16668">
        <ele>53.1875</ele>
      </trkpt>
      <trkpt lat="45.50796" lon="-0.16668">
        <ele>53.34375</ele>
      </trkpt>
      <trkpt lat="45.50782" lon="-0.16668">
        <ele>53.57421875</ele>
      </trkpt>
      <trkpt lat="45.50755" lon="-0.16664">
        <ele>53.73046875</ele>
      </trkpt>
      <trkpt lat="45.50737" lon="-0.1666">
        <ele>53.8828125</ele>
      </trkpt>
      <trkpt lat="45.50727" lon="-0.16657">
        <ele>53.9765625</ele>
      </trkpt>
      <trkpt lat="45.50721" lon="-0.16655">
        <ele>54.01953125</ele>
      </trkpt>
      <trkpt lat="45.50699" lon="-0.16647">
        <ele>54.17578125</ele>
      </trkpt>
      <trkpt lat="45.50679" lon="-0.16638">
        <ele>54.328125</ele>
      </trkpt>
      <trkpt lat="45.50661" lon="-0.16631">
        <ele>54.46484375</ele>
      </trkpt>
      <trkpt lat="45.50647" lon="-0.16628">
        <ele>54.5234375</ele>
      </trkpt>
      <trkpt lat="45.50646" lon="-0.16636">
        <ele>54.3671875</ele>
      </trkpt>
      <trkpt lat="45.50646" lon="-0.16645">
        <ele>54.2109375</ele>
      </trkpt>
      <trkpt lat="45.5065" lon="-0.16669">
        <ele>53.62890625</ele>
      </trkpt>
      <trkpt lat="45.50664" lon="-0.16756">
        <ele>50.55078125</ele>
      </trkpt>
      <trkpt lat="45.50666" lon="-0.16776">
        <ele>49.9609375</ele>
      </trkpt>
      <trkpt lat="45.50666" lon="-0.16786">
        <ele>49.76953125</ele>
      </trkpt>
      <trkpt lat="45.50667" lon="-0.16813">
        <ele>49.265625</ele>
      </trkpt>
      <trkpt lat="45.50666" lon="-0.16844">
        <ele>48.7265625</ele>
      </trkpt>
      <trkpt lat="45.50664" lon="-0.16897">
        <ele>47.86328125</ele>
      </trkpt>
      <trkpt lat="45.50662" lon="-0.16909">
        <ele>47.7421875</ele>
      </trkpt>
      <trkpt lat="45.50659" lon="-0.16913">
        <ele>47.7421875</ele>
      </trkpt>
      <trkpt lat="45.50654" lon="-0.16922">
        <ele>47.79296875</ele>
      </trkpt>
      <trkpt lat="45.50644" lon="-0.16932">
        <ele>48.00390625</ele>
      </trkpt>
      <trkpt lat="45.50637" lon="-0.16941">
        <ele>48.1796875</ele>
      </trkpt>
      <trkpt lat="45.50627" lon="-0.16955">
        <ele>48.3046875</ele>
      </trkpt>
      <trkpt lat="45.50617" lon="-0.16967">
        <ele>48.41015625</ele>
      </trkpt>
      <trkpt lat="45.5061" lon="-0.16974">
        <ele>48.390625</ele>
      </trkpt>
      <trkpt lat="45.50602" lon="-0.1698">
        <ele>48.44921875</ele>
      </trkpt>
      <trkpt lat="45.50593" lon="-0.16985">
        <ele>48.5078125</ele>
      </trkpt>
      <trkpt lat="45.50583" lon="-0.16991">
        <ele>48.546875</ele>
      </trkpt>
      <trkpt lat="45.50577" lon="-0.16995">
        <ele>48.5625</ele>
      </trkpt>
      <trkpt lat="45.5057" lon="-0.16997">
        <ele>48.59765625</ele>
      </trkpt>
      <trkpt lat="45.50555" lon="-0.16998">
        <ele>48.72265625</ele>
      </trkpt>
      <trkpt lat="45.50554" lon="-0.17027">
        <ele>47.7421875</ele>
      </trkpt>
      <trkpt lat="45.50553" lon="-0.17043">
        <ele>47.21484375</ele>
      </trkpt>
      <trkpt lat="45.50551" lon="-0.1705">
        <ele>46.9921875</ele>
      </trkpt>
      <trkpt lat="45.50548" lon="-0.17061">
        <ele>46.66015625</ele>
      </trkpt>
      <trkpt lat="45.50545" lon="-0.1707">
        <ele>46.41015625</ele>
      </trkpt>
      <trkpt lat="45.50544" lon="-0.17076">
        <ele>46.19921875</ele>
      </trkpt>
      <trkpt lat="45.50544" lon="-0.17087">
        <ele>45.8125</ele>
      </trkpt>
      <trkpt lat="45.50548" lon="-0.17126">
        <ele>44.66015625</ele>
      </trkpt>
      <trkpt lat="45.50552" lon="-0.17163">
        <ele>43.89453125</ele>
      </trkpt>
      <trkpt lat="45.50552" lon="-0.17167">
        <ele>43.83203125</ele>
      </trkpt>
      <trkpt lat="45.50558" lon="-0.17213">
        <ele>43</ele>
      </trkpt>
      <trkpt lat="45.50562" lon="-0.17249">
        <ele>41.6484375</ele>
      </trkpt>
      <trkpt lat="45.5055" lon="-0.17253">
        <ele>41.70703125</ele>
      </trkpt>
      <trkpt lat="45.50541" lon="-0.17255">
        <ele>41.78125</ele>
      </trkpt>
      <trkpt lat="45.50531" lon="-0.17256">
        <ele>41.9375</ele>
      </trkpt>
      <trkpt lat="45.50518" lon="-0.17258">
        <ele>42.08984375</ele>
      </trkpt>
      <trkpt lat="45.50507" lon="-0.1726">
        <ele>42.24609375</ele>
      </trkpt>
      <trkpt lat="45.50488" lon="-0.17262">
        <ele>42.80078125</ele>
      </trkpt>
      <trkpt lat="45.50459" lon="-0.17263">
        <ele>43.765625</ele>
      </trkpt>
      <trkpt lat="45.50444" lon="-0.17261">
        <ele>44.1328125</ele>
      </trkpt>
      <trkpt lat="45.50425" lon="-0.17257">
        <ele>44.26171875</ele>
      </trkpt>
      <trkpt lat="45.50377" lon="-0.17246">
        <ele>44.59765625</ele>
      </trkpt>
      <trkpt lat="45.50363" lon="-0.17242">
        <ele>44.59375</ele>
      </trkpt>
      <trkpt lat="45.50353" lon="-0.17241">
        <ele>44.5390625</ele>
      </trkpt>
      <trkpt lat="45.50343" lon="-0.17241">
        <ele>44.4453125</ele>
      </trkpt>
      <trkpt lat="45.50335" lon="-0.17241">
        <ele>44.40625</ele>
      </trkpt>
      <trkpt lat="45.50326" lon="-0.17242">
        <ele>44.34765625</ele>
      </trkpt>
      <trkpt lat="45.50323" lon="-0.17242">
        <ele>44.34765625</ele>
      </trkpt>
      <trkpt lat="45.50312" lon="-0.17246">
        <ele>44.17578125</ele>
      </trkpt>
      <trkpt lat="45.50296" lon="-0.17249">
        <ele>44</ele>
      </trkpt>
      <trkpt lat="45.50274" lon="-0.17252">
        <ele>43.984375</ele>
      </trkpt>
      <trkpt lat="45.50246" lon="-0.17256">
        <ele>44.2578125</ele>
      </trkpt>
      <trkpt lat="45.5024" lon="-0.17257">
        <ele>44.3125</ele>
      </trkpt>
      <trkpt lat="45.50234" lon="-0.17258">
        <ele>44.37109375</ele>
      </trkpt>
      <trkpt lat="45.50224" lon="-0.17258">
        <ele>44.46875</ele>
      </trkpt>
      <trkpt lat="45.50215" lon="-0.17258">
        <ele>44.44140625</ele>
      </trkpt>
      <trkpt lat="45.50201" lon="-0.17257">
        <ele>44.453125</ele>
      </trkpt>
      <trkpt lat="45.50106" lon="-0.17248">
        <ele>43.70703125</ele>
      </trkpt>
      <trkpt lat="45.50081" lon="-0.17246">
        <ele>43.78125</ele>
      </trkpt>
      <trkpt lat="45.50069" lon="-0.17243">
        <ele>43.859375</ele>
      </trkpt>
      <trkpt lat="45.5006" lon="-0.1724">
        <ele>43.98828125</ele>
      </trkpt>
      <trkpt lat="45.50039" lon="-0.17234">
        <ele>44.36328125</ele>
      </trkpt>
      <trkpt lat="45.50029" lon="-0.17229">
        <ele>44.546875</ele>
      </trkpt>
      <trkpt lat="45.50008" lon="-0.17218">
        <ele>44.88671875</ele>
      </trkpt>
      <trkpt lat="45.4998" lon="-0.17197">
        <ele>45.8046875</ele>
      </trkpt>
      <trkpt lat="45.4997" lon="-0.1723">
        <ele>44.6796875</ele>
      </trkpt>
      <trkpt lat="45.49956" lon="-0.17256">
        <ele>44.19921875</ele>
      </trkpt>
      <trkpt lat="45.49944" lon="-0.17284">
        <ele>44.03125</ele>
      </trkpt>
      <trkpt lat="45.49927" lon="-0.17315">
        <ele>44.34765625</ele>
      </trkpt>
      <trkpt lat="45.49921" lon="-0.17328">
        <ele>44.57421875</ele>
      </trkpt>
      <trkpt lat="45.49912" lon="-0.17339">
        <ele>44.88671875</ele>
      </trkpt>
      <trkpt lat="45.49897" lon="-0.17361">
        <ele>45.6015625</ele>
      </trkpt>
      <trkpt lat="45.49893" lon="-0.17367">
        <ele>45.8203125</ele>
      </trkpt>
      <trkpt lat="45.49882" lon="-0.17377">
        <ele>46.1953125</ele>
      </trkpt>
      <trkpt lat="45.49877" lon="-0.17383">
        <ele>46.2578125</ele>
      </trkpt>
      <trkpt lat="45.49872" lon="-0.17407">
        <ele>46.109375</ele>
      </trkpt>
      <trkpt lat="45.49868" lon="-0.17422">
        <ele>46.078125</ele>
      </trkpt>
      <trkpt lat="45.4986" lon="-0.17444">
        <ele>46.14453125</ele>
      </trkpt>
      <trkpt lat="45.49853" lon="-0.17469">
        <ele>46.03125</ele>
      </trkpt>
      <trkpt lat="45.49851" lon="-0.17487">
        <ele>45.8203125</ele>
      </trkpt>
      <trkpt lat="45.49848" lon="-0.17508">
        <ele>45.83203125</ele>
      </trkpt>
      <trkpt lat="45.49847" lon="-0.1754">
        <ele>45.86328125</ele>
      </trkpt>
      <trkpt lat="45.49847" lon="-0.17565">
        <ele>45.65234375</ele>
      </trkpt>
      <trkpt lat="45.49847" lon="-0.1759">
        <ele>45.40234375</ele>
      </trkpt>
      <trkpt lat="45.49851" lon="-0.17614">
        <ele>45.73828125</ele>
      </trkpt>
      <trkpt lat="45.49851" lon="-0.17629">
        <ele>46.0703125</ele>
      </trkpt>
      <trkpt lat="45.49847" lon="-0.17656">
        <ele>46.44921875</ele>
      </trkpt>
      <trkpt lat="45.49842" lon="-0.17665">
        <ele>46.4765625</ele>
      </trkpt>
      <trkpt lat="45.49824" lon="-0.17689">
        <ele>47.4140625</ele>
      </trkpt>
      <trkpt lat="45.49795" lon="-0.17722">
        <ele>48.23046875</ele>
      </trkpt>
      <trkpt lat="45.49767" lon="-0.17752">
        <ele>48.73046875</ele>
      </trkpt>
      <trkpt lat="45.4976" lon="-0.17767">
        <ele>49</ele>
      </trkpt>
      <trkpt lat="45.49756" lon="-0.17776">
        <ele>49.32421875</ele>
      </trkpt>
      <trkpt lat="45.49741" lon="-0.17777">
        <ele>49.36328125</ele>
      </trkpt>
      <trkpt lat="45.49727" lon="-0.17781">
        <ele>49.5078125</ele>
      </trkpt>
      <trkpt lat="45.49713" lon="-0.17789">
        <ele>49.953125</ele>
      </trkpt>
      <trkpt lat="45.49697" lon="-0.17794">
        <ele>50.265625</ele>
      </trkpt>
      <trkpt lat="45.49673" lon="-0.1785">
        <ele>51.4921875</ele>
      </trkpt>
      <trkpt lat="45.49655" lon="-0.17896">
        <ele>52.65234375</ele>
      </trkpt>
      <trkpt lat="45.49638" lon="-0.17941">
        <ele>54.2109375</ele>
      </trkpt>
      <trkpt lat="45.49626" lon="-0.17966">
        <ele>55.08203125</ele>
      </trkpt>
      <trkpt lat="45.49609" lon="-0.18001">
        <ele>56.23828125</ele>
      </trkpt>
      <trkpt lat="45.49608" lon="-0.18007">
        <ele>56.37890625</ele>
      </trkpt>
      <trkpt lat="45.49643" lon="-0.18083">
        <ele>57.20703125</ele>
      </trkpt>
      <trkpt lat="45.49606" lon="-0.18131">
        <ele>58.5546875</ele>
      </trkpt>
      <trkpt lat="45.49586" lon="-0.18158">
        <ele>59.0234375</ele>
      </trkpt>
      <trkpt lat="45.4956" lon="-0.18195">
        <ele>59.69921875</ele>
      </trkpt>
      <trkpt lat="45.4954" lon="-0.18223">
        <ele>59.69921875</ele>
      </trkpt>
      <trkpt lat="45.49523" lon="-0.18245">
        <ele>59.734375</ele>
      </trkpt>
      <trkpt lat="45.49485" lon="-0.1828">
        <ele>59.8671875</ele>
      </trkpt>
      <trkpt lat="45.49454" lon="-0.18306">
        <ele>59.78515625</ele>
      </trkpt>
      <trkpt lat="45.49421" lon="-0.1834">
        <ele>60.47265625</ele>
      </trkpt>
      <trkpt lat="45.49389" lon="-0.18373">
        <ele>60.90625</ele>
      </trkpt>
      <trkpt lat="45.49368" lon="-0.18396">
        <ele>61.328125</ele>
      </trkpt>
      <trkpt lat="45.49333" lon="-0.18464">
        <ele>62.43359375</ele>
      </trkpt>
      <trkpt lat="45.49293" lon="-0.1854">
        <ele>63.09375</ele>
      </trkpt>
      <trkpt lat="45.49262" lon="-0.18597">
        <ele>64.52734375</ele>
      </trkpt>
      <trkpt lat="45.49245" lon="-0.18626">
        <ele>64.625</ele>
      </trkpt>
      <trkpt lat="45.49229" lon="-0.18639">
        <ele>64.7109375</ele>
      </trkpt>
      <trkpt lat="45.492" lon="-0.18662">
        <ele>65.0625</ele>
      </trkpt>
      <trkpt lat="45.49152" lon="-0.18696">
        <ele>65.734375</ele>
      </trkpt>
      <trkpt lat="45.49117" lon="-0.18716">
        <ele>66</ele>
      </trkpt>
      <trkpt lat="45.49061" lon="-0.18749">
        <ele>66.00390625</ele>
      </trkpt>
      <trkpt lat="45.49018" lon="-0.18766">
        <ele>66.78125</ele>
      </trkpt>
      <trkpt lat="45.48976" lon="-0.18778">
        <ele>66.5703125</ele>
      </trkpt>
      <trkpt lat="45.48945" lon="-0.188">
        <ele>66.609375</ele>
      </trkpt>
      <trkpt lat="45.48915" lon="-0.18825">
        <ele>67.03515625</ele>
      </trkpt>
      <trkpt lat="45.48884" lon="-0.18844">
        <ele>67.6015625</ele>
      </trkpt>
      <trkpt lat="45.4886" lon="-0.18868">
        <ele>68.4609375</ele>
      </trkpt>
      <trkpt lat="45.48835" lon="-0.18887">
        <ele>69.0859375</ele>
      </trkpt>
      <trkpt lat="45.48817" lon="-0.18894">
        <ele>69.41015625</ele>
      </trkpt>
      <trkpt lat="45.48804" lon="-0.18903">
        <ele>69.63671875</ele>
      </trkpt>
      <trkpt lat="45.48781" lon="-0.18916">
        <ele>70.1484375</ele>
      </trkpt>
      <trkpt lat="45.4876" lon="-0.1888">
        <ele>70.87109375</ele>
      </trkpt>
      <trkpt lat="45.4874" lon="-0.18844">
        <ele>71.0078125</ele>
      </trkpt>
      <trkpt lat="45.4872" lon="-0.1886">
        <ele>72.15625</ele>
      </trkpt>
      <trkpt lat="45.48705" lon="-0.1887">
        <ele>73.16796875</ele>
      </trkpt>
      <trkpt lat="45.48682" lon="-0.18889">
        <ele>74.87890625</ele>
      </trkpt>
      <trkpt lat="45.48659" lon="-0.18913">
        <ele>76.8046875</ele>
      </trkpt>
      <trkpt lat="45.48634" lon="-0.18935">
        <ele>78.49609375</ele>
      </trkpt>
      <trkpt lat="45.48612" lon="-0.18963">
        <ele>80.3203125</ele>
      </trkpt>
      <trkpt lat="45.48581" lon="-0.1898">
        <ele>82.56640625</ele>
      </trkpt>
      <trkpt lat="45.48562" lon="-0.18976">
        <ele>83.32421875</ele>
      </trkpt>
      <trkpt lat="45.48536" lon="-0.18964">
        <ele>84.36328125</ele>
      </trkpt>
      <trkpt lat="45.48505" lon="-0.18945">
        <ele>84.953125</ele>
      </trkpt>
      <trkpt lat="45.48481" lon="-0.18932">
        <ele>86.2109375</ele>
      </trkpt>
      <trkpt lat="45.48464" lon="-0.18917">
        <ele>86.76953125</ele>
      </trkpt>
      <trkpt lat="45.48457" lon="-0.18902">
        <ele>86.28515625</ele>
      </trkpt>
      <trkpt lat="45.48445" lon="-0.18908">
        <ele>87.859375</ele>
      </trkpt>
      <trkpt lat="45.48435" lon="-0.18898">
        <ele>88.328125</ele>
      </trkpt>
      <trkpt lat="45.48419" lon="-0.1889">
        <ele>89.4375</ele>
      </trkpt>
      <trkpt lat="45.48404" lon="-0.18868">
        <ele>89.421875</ele>
      </trkpt>
      <trkpt lat="45.48391" lon="-0.18855">
        <ele>89.76953125</ele>
      </trkpt>
      <trkpt lat="45.48377" lon="-0.18847">
        <ele>90.27734375</ele>
      </trkpt>
      <trkpt lat="45.48369" lon="-0.18846">
        <ele>90.8203125</ele>
      </trkpt>
      <trkpt lat="45.48355" lon="-0.18837">
        <ele>91.19140625</ele>
      </trkpt>
      <trkpt lat="45.4835" lon="-0.18822">
        <ele>90.296875</ele>
      </trkpt>
      <trkpt lat="45.48346" lon="-0.188">
        <ele>88.71484375</ele>
      </trkpt>
      <trkpt lat="45.48355" lon="-0.18777">
        <ele>86.3125</ele>
      </trkpt>
      <trkpt lat="45.48366" lon="-0.18755">
        <ele>84.33984375</ele>
      </trkpt>
      <trkpt lat="45.48376" lon="-0.18725">
        <ele>82.19140625</ele>
      </trkpt>
      <trkpt lat="45.48393" lon="-0.18689">
        <ele>79.02734375</ele>
      </trkpt>
      <trkpt lat="45.48414" lon="-0.18657">
        <ele>75.82421875</ele>
      </trkpt>
      <trkpt lat="45.48395" lon="-0.18595">
        <ele>72.828125</ele>
      </trkpt>
      <trkpt lat="45.48376" lon="-0.18537">
        <ele>70.58203125</ele>
      </trkpt>
      <trkpt lat="45.48359" lon="-0.18477">
        <ele>67.56640625</ele>
      </trkpt>
      <trkpt lat="45.48337" lon="-0.18405">
        <ele>65.5234375</ele>
      </trkpt>
      <trkpt lat="45.48322" lon="-0.18349">
        <ele>64.8046875</ele>
      </trkpt>
      <trkpt lat="45.48314" lon="-0.18312">
        <ele>64.4609375</ele>
      </trkpt>
      <trkpt lat="45.48279" lon="-0.18338">
        <ele>65.37109375</ele>
      </trkpt>
      <trkpt lat="45.48229" lon="-0.18366">
        <ele>66.79296875</ele>
      </trkpt>
      <trkpt lat="45.4818" lon="-0.18392">
        <ele>67</ele>
      </trkpt>
      <trkpt lat="45.48132" lon="-0.18422">
        <ele>67.73828125</ele>
      </trkpt>
      <trkpt lat="45.48084" lon="-0.18455">
        <ele>68</ele>
      </trkpt>
      <trkpt lat="45.48052" lon="-0.18485">
        <ele>68.17578125</ele>
      </trkpt>
      <trkpt lat="45.48039" lon="-0.18499">
        <ele>68.78515625</ele>
      </trkpt>
      <trkpt lat="45.48012" lon="-0.18527">
        <ele>70.296875</ele>
      </trkpt>
      <trkpt lat="45.47983" lon="-0.18561">
        <ele>71.59765625</ele>
      </trkpt>
      <trkpt lat="45.47962" lon="-0.18581">
        <ele>71.93359375</ele>
      </trkpt>
      <trkpt lat="45.47942" lon="-0.186">
        <ele>72.17578125</ele>
      </trkpt>
      <trkpt lat="45.47908" lon="-0.18625">
        <ele>73.234375</ele>
      </trkpt>
      <trkpt lat="45.47923" lon="-0.1866">
        <ele>73.67578125</ele>
      </trkpt>
      <trkpt lat="45.47947" lon="-0.18737">
        <ele>76.46484375</ele>
      </trkpt>
      <trkpt lat="45.47962" lon="-0.18785">
        <ele>78.80078125</ele>
      </trkpt>
      <trkpt lat="45.47978" lon="-0.18828">
        <ele>81.03125</ele>
      </trkpt>
      <trkpt lat="45.47987" lon="-0.18854">
        <ele>83.2109375</ele>
      </trkpt>
      <trkpt lat="45.47998" lon="-0.18883">
        <ele>85.70703125</ele>
      </trkpt>
      <trkpt lat="45.47964" lon="-0.18912">
        <ele>88.87890625</ele>
      </trkpt>
      <trkpt lat="45.47934" lon="-0.18937">
        <ele>91</ele>
      </trkpt>
      <trkpt lat="45.47905" lon="-0.1896">
        <ele>91</ele>
      </trkpt>
      <trkpt lat="45.47882" lon="-0.18967">
        <ele>91.19921875</ele>
      </trkpt>
      <trkpt lat="45.47864" lon="-0.18969">
        <ele>91.3984375</ele>
      </trkpt>
      <trkpt lat="45.47825" lon="-0.18967">
        <ele>91.8984375</ele>
      </trkpt>
      <trkpt lat="45.47785" lon="-0.18959">
        <ele>92.59765625</ele>
      </trkpt>
      <trkpt lat="45.47738" lon="-0.18951">
        <ele>92.74609375</ele>
      </trkpt>
      <trkpt lat="45.47701" lon="-0.18943">
        <ele>92.74609375</ele>
      </trkpt>
      <trkpt lat="45.47668" lon="-0.18939">
        <ele>92.2578125</ele>
      </trkpt>
      <trkpt lat="45.47645" lon="-0.18934">
        <ele>91.3359375</ele>
      </trkpt>
      <trkpt lat="45.47645" lon="-0.1888">
        <ele>93.37109375</ele>
      </trkpt>
      <trkpt lat="45.47647" lon="-0.18843">
        <ele>94.16015625</ele>
      </trkpt>
      <trkpt lat="45.47649" lon="-0.18803">
        <ele>94.62890625</ele>
      </trkpt>
      <trkpt lat="45.47648" lon="-0.18768">
        <ele>94.5390625</ele>
      </trkpt>
      <trkpt lat="45.47648" lon="-0.18755">
        <ele>94.41796875</ele>
      </trkpt>
      <trkpt lat="45.47639" lon="-0.18714">
        <ele>94.0234375</ele>
      </trkpt>
      <trkpt lat="45.4763" lon="-0.1869">
        <ele>93.765625</ele>
      </trkpt>
      <trkpt lat="45.47614" lon="-0.18655">
        <ele>93.84765625</ele>
      </trkpt>
      <trkpt lat="45.47592" lon="-0.18612">
        <ele>92.6015625</ele>
      </trkpt>
      <trkpt lat="45.47575" lon="-0.1858">
        <ele>92.69140625</ele>
      </trkpt>
      <trkpt lat="45.47557" lon="-0.18526">
        <ele>92.515625</ele>
      </trkpt>
      <trkpt lat="45.4754" lon="-0.18479">
        <ele>91.41015625</ele>
      </trkpt>
      <trkpt lat="45.47519" lon="-0.18434">
        <ele>90.22265625</ele>
      </trkpt>
      <trkpt lat="45.47511" lon="-0.18416">
        <ele>89.75</ele>
      </trkpt>
      <trkpt lat="45.47506" lon="-0.18392">
        <ele>89.1484375</ele>
      </trkpt>
      <trkpt lat="45.47498" lon="-0.18357">
        <ele>87.703125</ele>
      </trkpt>
      <trkpt lat="45.47491" lon="-0.18326">
        <ele>86.26953125</ele>
      </trkpt>
      <trkpt lat="45.47483" lon="-0.18268">
        <ele>83.76953125</ele>
      </trkpt>
      <trkpt lat="45.47475" lon="-0.18204">
        <ele>82.1875</ele>
      </trkpt>
      <trkpt lat="45.47465" lon="-0.18143">
        <ele>81.30078125</ele>
      </trkpt>
      <trkpt lat="45.47466" lon="-0.18135">
        <ele>81.26953125</ele>
      </trkpt>
      <trkpt lat="45.47461" lon="-0.18127">
        <ele>80.9140625</ele>
      </trkpt>
      <trkpt lat="45.47459" lon="-0.18122">
        <ele>80.7265625</ele>
      </trkpt>
      <trkpt lat="45.47456" lon="-0.18102">
        <ele>80.2734375</ele>
      </trkpt>
      <trkpt lat="45.47453" lon="-0.18086">
        <ele>80.09375</ele>
      </trkpt>
      <trkpt lat="45.47432" lon="-0.18096">
        <ele>79.3125</ele>
      </trkpt>
      <trkpt lat="45.47389" lon="-0.18115">
        <ele>77.75390625</ele>
      </trkpt>
      <trkpt lat="45.47345" lon="-0.18129">
        <ele>76.1640625</ele>
      </trkpt>
      <trkpt lat="45.47313" lon="-0.18142">
        <ele>74.52734375</ele>
      </trkpt>
      <trkpt lat="45.47284" lon="-0.18148">
        <ele>73</ele>
      </trkpt>
      <trkpt lat="45.47231" lon="-0.18159">
        <ele>73.00390625</ele>
      </trkpt>
      <trkpt lat="45.47222" lon="-0.18156">
        <ele>72.87109375</ele>
      </trkpt>
      <trkpt lat="45.47183" lon="-0.18194">
        <ele>72.15625</ele>
      </trkpt>
      <trkpt lat="45.47134" lon="-0.18244">
        <ele>72</ele>
      </trkpt>
      <trkpt lat="45.47092" lon="-0.18286">
        <ele>71.8125</ele>
      </trkpt>
      <trkpt lat="45.47061" lon="-0.18321">
        <ele>72.04296875</ele>
      </trkpt>
      <trkpt lat="45.47054" lon="-0.18336">
        <ele>72.1640625</ele>
      </trkpt>
      <trkpt lat="45.47047" lon="-0.18344">
        <ele>72.29296875</ele>
      </trkpt>
      <trkpt lat="45.47016" lon="-0.18353">
        <ele>72.8515625</ele>
      </trkpt>
      <trkpt lat="45.46989" lon="-0.18365">
        <ele>73.4140625</ele>
      </trkpt>
      <trkpt lat="45.46949" lon="-0.18379">
        <ele>74.15234375</ele>
      </trkpt>
      <trkpt lat="45.469" lon="-0.18396">
        <ele>76.48046875</ele>
      </trkpt>
      <trkpt lat="45.46872" lon="-0.18406">
        <ele>78.69140625</ele>
      </trkpt>
      <trkpt lat="45.46839" lon="-0.18413">
        <ele>81.5546875</ele>
      </trkpt>
      <trkpt lat="45.46819" lon="-0.18417">
        <ele>83.68359375</ele>
      </trkpt>
      <trkpt lat="45.46778" lon="-0.1842">
        <ele>87.85546875</ele>
      </trkpt>
      <trkpt lat="45.4676" lon="-0.18444">
        <ele>89.0234375</ele>
      </trkpt>
      <trkpt lat="45.4675" lon="-0.18467">
        <ele>89.328125</ele>
      </trkpt>
      <trkpt lat="45.46742" lon="-0.1854">
        <ele>88.21875</ele>
      </trkpt>
      <trkpt lat="45.46734" lon="-0.18587">
        <ele>87.23046875</ele>
      </trkpt>
      <trkpt lat="45.4672" lon="-0.1864">
        <ele>86.15625</ele>
      </trkpt>
      <trkpt lat="45.46703" lon="-0.18692">
        <ele>85.453125</ele>
      </trkpt>
      <trkpt lat="45.46694" lon="-0.18728">
        <ele>84.8984375</ele>
      </trkpt>
      <trkpt lat="45.46683" lon="-0.18763">
        <ele>84.6015625</ele>
      </trkpt>
      <trkpt lat="45.46674" lon="-0.18778">
        <ele>84.80859375</ele>
      </trkpt>
      <trkpt lat="45.46625" lon="-0.18755">
        <ele>88.03515625</ele>
      </trkpt>
      <trkpt lat="45.46597" lon="-0.18741">
        <ele>90.4921875</ele>
      </trkpt>
      <trkpt lat="45.46563" lon="-0.18744">
        <ele>92.8203125</ele>
      </trkpt>
      <trkpt lat="45.46539" lon="-0.18746">
        <ele>93.609375</ele>
      </trkpt>
      <trkpt lat="45.46515" lon="-0.18742">
        <ele>94.62109375</ele>
      </trkpt>
      <trkpt lat="45.46519" lon="-0.18715">
        <ele>95.421875</ele>
      </trkpt>
      <trkpt lat="45.46483" lon="-0.18703">
        <ele>97.16015625</ele>
      </trkpt>
      <trkpt lat="45.46457" lon="-0.18696">
        <ele>98.34765625</ele>
      </trkpt>
      <trkpt lat="45.46422" lon="-0.18687">
        <ele>99.1796875</ele>
      </trkpt>
      <trkpt lat="45.46399" lon="-0.18685">
        <ele>99.43359375</ele>
      </trkpt>
      <trkpt lat="45.4637" lon="-0.18687">
        <ele>99.6484375</ele>
      </trkpt>
      <trkpt lat="45.46329" lon="-0.18695">
        <ele>99.56640625</ele>
      </trkpt>
      <trkpt lat="45.46289" lon="-0.18696">
        <ele>99.51953125</ele>
      </trkpt>
      <trkpt lat="45.46251" lon="-0.18686">
        <ele>101.15625</ele>
      </trkpt>
      <trkpt lat="45.46212" lon="-0.18679">
        <ele>102.921875</ele>
      </trkpt>
      <trkpt lat="45.46183" lon="-0.18669">
        <ele>104.40234375</ele>
      </trkpt>
      <trkpt lat="45.46156" lon="-0.18663">
        <ele>105.5703125</ele>
      </trkpt>
      <trkpt lat="45.46127" lon="-0.18657">
        <ele>106.70703125</ele>
      </trkpt>
      <trkpt lat="45.46095" lon="-0.18662">
        <ele>107.90234375</ele>
      </trkpt>
      <trkpt lat="45.46081" lon="-0.18667">
        <ele>108.5</ele>
      </trkpt>
      <trkpt lat="45.46059" lon="-0.18689">
        <ele>109.58203125</ele>
      </trkpt>
      <trkpt lat="45.46018" lon="-0.18727">
        <ele>110.19140625</ele>
      </trkpt>
      <trkpt lat="45.45998" lon="-0.18751">
        <ele>110.9765625</ele>
      </trkpt>
      <trkpt lat="45.45947" lon="-0.18771">
        <ele>112.9921875</ele>
      </trkpt>
      <trkpt lat="45.45937" lon="-0.18779">
        <ele>113.0078125</ele>
      </trkpt>
      <trkpt lat="45.45936" lon="-0.18797">
        <ele>113.421875</ele>
      </trkpt>
      <trkpt lat="45.45935" lon="-0.18847">
        <ele>114.28125</ele>
      </trkpt>
      <trkpt lat="45.45925" lon="-0.18881">
        <ele>114.9765625</ele>
      </trkpt>
      <trkpt lat="45.45899" lon="-0.18938">
        <ele>116.78515625</ele>
      </trkpt>
      <trkpt lat="45.45859" lon="-0.18975">
        <ele>117.9453125</ele>
      </trkpt>
      <trkpt lat="45.45823" lon="-0.19007">
        <ele>119.76953125</ele>
      </trkpt>
      <trkpt lat="45.4579" lon="-0.19032">
        <ele>121.5703125</ele>
      </trkpt>
      <trkpt lat="45.4576" lon="-0.19051">
        <ele>122.52734375</ele>
      </trkpt>
      <trkpt lat="45.45722" lon="-0.19066">
        <ele>123.51953125</ele>
      </trkpt>
      <trkpt lat="45.45687" lon="-0.19078">
        <ele>124.578125</ele>
      </trkpt>
      <trkpt lat="45.45656" lon="-0.19093">
        <ele>124.94140625</ele>
      </trkpt>
      <trkpt lat="45.45608" lon="-0.19112">
        <ele>123.8671875</ele>
      </trkpt>
      <trkpt lat="45.45578" lon="-0.19114">
        <ele>122.5078125</ele>
      </trkpt>
      <trkpt lat="45.45556" lon="-0.19129">
        <ele>122.13671875</ele>
      </trkpt>
      <trkpt lat="45.4554" lon="-0.19159">
        <ele>122.75390625</ele>
      </trkpt>
      <trkpt lat="45.45505" lon="-0.19182">
        <ele>122.01171875</ele>
      </trkpt>
      <trkpt lat="45.45473" lon="-0.19197">
        <ele>123.16015625</ele>
      </trkpt>
      <trkpt lat="45.45435" lon="-0.19212">
        <ele>124.3203125</ele>
      </trkpt>
      <trkpt lat="45.45402" lon="-0.19225">
        <ele>124.703125</ele>
      </trkpt>
      <trkpt lat="45.45367" lon="-0.19234">
        <ele>123.8125</ele>
      </trkpt>
      <trkpt lat="45.45341" lon="-0.19236">
        <ele>123.0625</ele>
      </trkpt>
      <trkpt lat="45.45316" lon="-0.19231">
        <ele>123.1171875</ele>
      </trkpt>
      <trkpt lat="45.45307" lon="-0.1923">
        <ele>123.078125</ele>
      </trkpt>
      <trkpt lat="45.45283" lon="-0.19231">
        <ele>122.90234375</ele>
      </trkpt>
      <trkpt lat="45.45267" lon="-0.19233">
        <ele>122.71484375</ele>
      </trkpt>
      <trkpt lat="45.45263" lon="-0.19247">
        <ele>122.171875</ele>
      </trkpt>
      <trkpt lat="45.45244" lon="-0.1929">
        <ele>120.703125</ele>
      </trkpt>
      <trkpt lat="45.45229" lon="-0.19328">
        <ele>119.87890625</ele>
      </trkpt>
      <trkpt lat="45.45218" lon="-0.19366">
        <ele>119.484375</ele>
      </trkpt>
      <trkpt lat="45.45214" lon="-0.19396">
        <ele>118.53515625</ele>
      </trkpt>
      <trkpt lat="45.45213" lon="-0.19429">
        <ele>117.09765625</ele>
      </trkpt>
      <trkpt lat="45.45208" lon="-0.19451">
        <ele>116.8125</ele>
      </trkpt>
      <trkpt lat="45.45199" lon="-0.19475">
        <ele>116.87109375</ele>
      </trkpt>
      <trkpt lat="45.45194" lon="-0.19489">
        <ele>116.94921875</ele>
      </trkpt>
      <trkpt lat="45.45189" lon="-0.19504">
        <ele>117.21484375</ele>
      </trkpt>
      <trkpt lat="45.4519" lon="-0.19517">
        <ele>116.8828125</ele>
      </trkpt>
      <trkpt lat="45.45194" lon="-0.19524">
        <ele>116.31640625</ele>
      </trkpt>
      <trkpt lat="45.45196" lon="-0.19538">
        <ele>115.8671875</ele>
      </trkpt>
      <trkpt lat="45.45191" lon="-0.19566">
        <ele>115.60546875</ele>
      </trkpt>
      <trkpt lat="45.45185" lon="-0.19597">
        <ele>115.15234375</ele>
      </trkpt>
      <trkpt lat="45.45183" lon="-0.19635">
        <ele>114.66796875</ele>
      </trkpt>
      <trkpt lat="45.45182" lon="-0.1965">
        <ele>114.48046875</ele>
      </trkpt>
      <trkpt lat="45.45198" lon="-0.19692">
        <ele>111.65234375</ele>
      </trkpt>
      <trkpt lat="45.45212" lon="-0.19718">
        <ele>109.3359375</ele>
      </trkpt>
      <trkpt lat="45.45221" lon="-0.1974">
        <ele>107.63671875</ele>
      </trkpt>
      <trkpt lat="45.45223" lon="-0.1977">
        <ele>106.23828125</ele>
      </trkpt>
      <trkpt lat="45.45223" lon="-0.19803">
        <ele>104.78125</ele>
      </trkpt>
      <trkpt lat="45.45247" lon="-0.19808">
        <ele>103.7578125</ele>
      </trkpt>
      <trkpt lat="45.45277" lon="-0.19818">
        <ele>102.3359375</ele>
      </trkpt>
      <trkpt lat="45.45301" lon="-0.19829">
        <ele>100.7578125</ele>
      </trkpt>
      <trkpt lat="45.45325" lon="-0.19839">
        <ele>99.015625</ele>
      </trkpt>
      <trkpt lat="45.45353" lon="-0.19851">
        <ele>97.50390625</ele>
      </trkpt>
      <trkpt lat="45.45369" lon="-0.19856">
        <ele>96.82421875</ele>
      </trkpt>
      <trkpt lat="45.45361" lon="-0.19898">
        <ele>97.0546875</ele>
      </trkpt>
      <trkpt lat="45.45355" lon="-0.19931">
        <ele>96.7734375</ele>
      </trkpt>
      <trkpt lat="45.45347" lon="-0.19963">
        <ele>95.87109375</ele>
      </trkpt>
      <trkpt lat="45.45326" lon="-0.19968">
        <ele>95.55078125</ele>
      </trkpt>
      <trkpt lat="45.45322" lon="-0.19985">
        <ele>94.76171875</ele>
      </trkpt>
      <trkpt lat="45.45316" lon="-0.20014">
        <ele>93.109375</ele>
      </trkpt>
      <trkpt lat="45.45307" lon="-0.20042">
        <ele>91.44140625</ele>
      </trkpt>
      <trkpt lat="45.45295" lon="-0.20088">
        <ele>88.75390625</ele>
      </trkpt>
      <trkpt lat="45.45277" lon="-0.20081">
        <ele>88.921875</ele>
      </trkpt>
      <trkpt lat="45.45266" lon="-0.20103">
        <ele>87.94921875</ele>
      </trkpt>
      <trkpt lat="45.45257" lon="-0.20127">
        <ele>87.75390625</ele>
      </trkpt>
      <trkpt lat="45.45261" lon="-0.20156">
        <ele>87.453125</ele>
      </trkpt>
      <trkpt lat="45.45249" lon="-0.20211">
        <ele>88.0234375</ele>
      </trkpt>
      <trkpt lat="45.45248" lon="-0.20262">
        <ele>89.640625</ele>
      </trkpt>
      <trkpt lat="45.45236" lon="-0.20281">
        <ele>90.625</ele>
      </trkpt>
      <trkpt lat="45.45226" lon="-0.20306">
        <ele>91.2890625</ele>
      </trkpt>
      <trkpt lat="45.45216" lon="-0.20332">
        <ele>91.78515625</ele>
      </trkpt>
      <trkpt lat="45.45212" lon="-0.2035">
        <ele>91.65234375</ele>
      </trkpt>
      <trkpt lat="45.45188" lon="-0.20346">
        <ele>93.30078125</ele>
      </trkpt>
      <trkpt lat="45.45163" lon="-0.20338">
        <ele>94.953125</ele>
      </trkpt>
      <trkpt lat="45.45147" lon="-0.20333">
        <ele>95.96875</ele>
      </trkpt>
      <trkpt lat="45.45128" lon="-0.20339">
        <ele>96.5859375</ele>
      </trkpt>
      <trkpt lat="45.45105" lon="-0.20338">
        <ele>97.6015625</ele>
      </trkpt>
      <trkpt lat="45.45088" lon="-0.20338">
        <ele>98.21484375</ele>
      </trkpt>
      <trkpt lat="45.45069" lon="-0.20335">
        <ele>99.1015625</ele>
      </trkpt>
      <trkpt lat="45.45052" lon="-0.20323">
        <ele>100.11328125</ele>
      </trkpt>
      <trkpt lat="45.45032" lon="-0.20306">
        <ele>101.42578125</ele>
      </trkpt>
      <trkpt lat="45.45014" lon="-0.20286">
        <ele>103.27734375</ele>
      </trkpt>
      <trkpt lat="45.44997" lon="-0.20278">
        <ele>104.70703125</ele>
      </trkpt>
      <trkpt lat="45.44977" lon="-0.20283">
        <ele>105.4375</ele>
      </trkpt>
      <trkpt lat="45.4496" lon="-0.20287">
        <ele>106.06640625</ele>
      </trkpt>
      <trkpt lat="45.4494" lon="-0.20291">
        <ele>107.35546875</ele>
      </trkpt>
      <trkpt lat="45.44922" lon="-0.20283">
        <ele>109.48046875</ele>
      </trkpt>
      <trkpt lat="45.44906" lon="-0.20265">
        <ele>112.265625</ele>
      </trkpt>
      <trkpt lat="45.44889" lon="-0.20247">
        <ele>113.5859375</ele>
      </trkpt>
      <trkpt lat="45.44874" lon="-0.20236">
        <ele>114.3984375</ele>
      </trkpt>
      <trkpt lat="45.44862" lon="-0.20269">
        <ele>113.42578125</ele>
      </trkpt>
      <trkpt lat="45.44849" lon="-0.20307">
        <ele>111.54296875</ele>
      </trkpt>
      <trkpt lat="45.44835" lon="-0.20348">
        <ele>108.59765625</ele>
      </trkpt>
      <trkpt lat="45.44827" lon="-0.20376">
        <ele>106.08203125</ele>
      </trkpt>
      <trkpt lat="45.44824" lon="-0.20396">
        <ele>104.7265625</ele>
      </trkpt>
      <trkpt lat="45.44826" lon="-0.20424">
        <ele>102.84765625</ele>
      </trkpt>
      <trkpt lat="45.44845" lon="-0.20464">
        <ele>99.640625</ele>
      </trkpt>
      <trkpt lat="45.44868" lon="-0.20505">
        <ele>97.0859375</ele>
      </trkpt>
      <trkpt lat="45.44891" lon="-0.20538">
        <ele>95.4296875</ele>
      </trkpt>
      <trkpt lat="45.44909" lon="-0.20571">
        <ele>94.09375</ele>
      </trkpt>
      <trkpt lat="45.4493" lon="-0.20603">
        <ele>92.84765625</ele>
      </trkpt>
      <trkpt lat="45.4492" lon="-0.20649">
        <ele>93.20703125</ele>
      </trkpt>
      <trkpt lat="45.44908" lon="-0.20702">
        <ele>93.6171875</ele>
      </trkpt>
      <trkpt lat="45.44902" lon="-0.20746">
        <ele>93.85546875</ele>
      </trkpt>
      <trkpt lat="45.44896" lon="-0.20787">
        <ele>94.03515625</ele>
      </trkpt>
      <trkpt lat="45.44898" lon="-0.20819">
        <ele>93.99609375</ele>
      </trkpt>
      <trkpt lat="45.44904" lon="-0.20847">
        <ele>93.72265625</ele>
      </trkpt>
      <trkpt lat="45.44911" lon="-0.20892">
        <ele>92.79296875</ele>
      </trkpt>
      <trkpt lat="45.44919" lon="-0.20931">
        <ele>91.265625</ele>
      </trkpt>
      <trkpt lat="45.44919" lon="-0.20959">
        <ele>90.4140625</ele>
      </trkpt>
      <trkpt lat="45.44911" lon="-0.20961">
        <ele>90.59765625</ele>
      </trkpt>
      <trkpt lat="45.44915" lon="-0.2101">
        <ele>89.69140625</ele>
      </trkpt>
      <trkpt lat="45.44917" lon="-0.21042">
        <ele>89.64453125</ele>
      </trkpt>
      <trkpt lat="45.44925" lon="-0.21103">
        <ele>88.54296875</ele>
      </trkpt>
      <trkpt lat="45.44935" lon="-0.2115">
        <ele>88.953125</ele>
      </trkpt>
      <trkpt lat="45.4495" lon="-0.21202">
        <ele>89.87109375</ele>
      </trkpt>
      <trkpt lat="45.44961" lon="-0.21245">
        <ele>91.28125</ele>
      </trkpt>
      <trkpt lat="45.44976" lon="-0.21275">
        <ele>92.53515625</ele>
      </trkpt>
      <trkpt lat="45.44992" lon="-0.21299">
        <ele>93.8203125</ele>
      </trkpt>
      <trkpt lat="45.45004" lon="-0.21326">
        <ele>95.2109375</ele>
      </trkpt>
      <trkpt lat="45.45007" lon="-0.21361">
        <ele>96.453125</ele>
      </trkpt>
      <trkpt lat="45.45009" lon="-0.21392">
        <ele>97.57421875</ele>
      </trkpt>
      <trkpt lat="45.45014" lon="-0.21427">
        <ele>98.76171875</ele>
      </trkpt>
      <trkpt lat="45.45017" lon="-0.21455">
        <ele>99.578125</ele>
      </trkpt>
      <trkpt lat="45.4502" lon="-0.21496">
        <ele>100.58984375</ele>
      </trkpt>
      <trkpt lat="45.45022" lon="-0.21533">
        <ele>101.296875</ele>
      </trkpt>
      <trkpt lat="45.45014" lon="-0.2156">
        <ele>102.12109375</ele>
      </trkpt>
      <trkpt lat="45.45" lon="-0.21585">
        <ele>103.08203125</ele>
      </trkpt>
      <trkpt lat="45.44994" lon="-0.21605">
        <ele>103.359375</ele>
      </trkpt>
      <trkpt lat="45.45003" lon="-0.21637">
        <ele>102.4140625</ele>
      </trkpt>
      <trkpt lat="45.45023" lon="-0.21706">
        <ele>101.3046875</ele>
      </trkpt>
      <trkpt lat="45.45028" lon="-0.2174">
        <ele>100.98046875</ele>
      </trkpt>
      <trkpt lat="45.45038" lon="-0.21793">
        <ele>100.05078125</ele>
      </trkpt>
      <trkpt lat="45.45055" lon="-0.21863">
        <ele>97.328125</ele>
      </trkpt>
      <trkpt lat="45.45066" lon="-0.21914">
        <ele>94.3203125</ele>
      </trkpt>
      <trkpt lat="45.4508" lon="-0.21946">
        <ele>91.56640625</ele>
      </trkpt>
      <trkpt lat="45.45095" lon="-0.2197">
        <ele>88.85546875</ele>
      </trkpt>
      <trkpt lat="45.45057" lon="-0.2201">
        <ele>85.76953125</ele>
      </trkpt>
      <trkpt lat="45.45009" lon="-0.22061">
        <ele>85.66015625</ele>
      </trkpt>
      <trkpt lat="45.44985" lon="-0.2208">
        <ele>86.5625</ele>
      </trkpt>
      <trkpt lat="45.44966" lon="-0.22109">
        <ele>87.31640625</ele>
      </trkpt>
      <trkpt lat="45.44956" lon="-0.22127">
        <ele>87.8515625</ele>
      </trkpt>
      <trkpt lat="45.44956" lon="-0.22156">
        <ele>87.89453125</ele>
      </trkpt>
      <trkpt lat="45.44953" lon="-0.22174">
        <ele>88.3671875</ele>
      </trkpt>
      <trkpt lat="45.4494" lon="-0.22192">
        <ele>88.9375</ele>
      </trkpt>
      <trkpt lat="45.44913" lon="-0.22231">
        <ele>90.015625</ele>
      </trkpt>
      <trkpt lat="45.44892" lon="-0.22258">
        <ele>91.1875</ele>
      </trkpt>
      <trkpt lat="45.44874" lon="-0.22287">
        <ele>91.86328125</ele>
      </trkpt>
      <trkpt lat="45.44864" lon="-0.22299">
        <ele>92.1640625</ele>
      </trkpt>
      <trkpt lat="45.44859" lon="-0.22317">
        <ele>92.125</ele>
      </trkpt>
      <trkpt lat="45.44852" lon="-0.22356">
        <ele>92.359375</ele>
      </trkpt>
      <trkpt lat="45.44842" lon="-0.22399">
        <ele>92.9765625</ele>
      </trkpt>
      <trkpt lat="45.44835" lon="-0.22436">
        <ele>93.85546875</ele>
      </trkpt>
      <trkpt lat="45.44829" lon="-0.22477">
        <ele>95.01953125</ele>
      </trkpt>
      <trkpt lat="45.44823" lon="-0.22485">
        <ele>95.65625</ele>
      </trkpt>
      <trkpt lat="45.44815" lon="-0.2249">
        <ele>96.36328125</ele>
      </trkpt>
      <trkpt lat="45.44808" lon="-0.22497">
        <ele>96.96875</ele>
      </trkpt>
      <trkpt lat="45.44808" lon="-0.22508">
        <ele>96.83984375</ele>
      </trkpt>
      <trkpt lat="45.4481" lon="-0.22525">
        <ele>96.51171875</ele>
      </trkpt>
      <trkpt lat="45.44814" lon="-0.22541">
        <ele>96.0234375</ele>
      </trkpt>
      <trkpt lat="45.44829" lon="-0.22583">
        <ele>94.19140625</ele>
      </trkpt>
      <trkpt lat="45.44842" lon="-0.22626">
        <ele>92.50390625</ele>
      </trkpt>
      <trkpt lat="45.44852" lon="-0.22662">
        <ele>90.9375</ele>
      </trkpt>
      <trkpt lat="45.44859" lon="-0.22686">
        <ele>90.39453125</ele>
      </trkpt>
      <trkpt lat="45.44856" lon="-0.22711">
        <ele>90.76953125</ele>
      </trkpt>
      <trkpt lat="45.4485" lon="-0.2273">
        <ele>91.37890625</ele>
      </trkpt>
      <trkpt lat="45.44843" lon="-0.22746">
        <ele>91.94140625</ele>
      </trkpt>
      <trkpt lat="45.44835" lon="-0.22754">
        <ele>92.390625</ele>
      </trkpt>
      <trkpt lat="45.44826" lon="-0.22763">
        <ele>92.86328125</ele>
      </trkpt>
      <trkpt lat="45.44822" lon="-0.22778">
        <ele>92.984375</ele>
      </trkpt>
      <trkpt lat="45.4483" lon="-0.22792">
        <ele>92.5390625</ele>
      </trkpt>
      <trkpt lat="45.44842" lon="-0.22819">
        <ele>92.00390625</ele>
      </trkpt>
      <trkpt lat="45.44841" lon="-0.22835">
        <ele>92.0390625</ele>
      </trkpt>
      <trkpt lat="45.44813" lon="-0.22861">
        <ele>92.26953125</ele>
      </trkpt>
      <trkpt lat="45.44788" lon="-0.22896">
        <ele>91.2734375</ele>
      </trkpt>
      <trkpt lat="45.44749" lon="-0.22943">
        <ele>89.01953125</ele>
      </trkpt>
      <trkpt lat="45.44722" lon="-0.22984">
        <ele>87.71875</ele>
      </trkpt>
      <trkpt lat="45.44695" lon="-0.23024">
        <ele>85.546875</ele>
      </trkpt>
      <trkpt lat="45.44669" lon="-0.23065">
        <ele>83.95703125</ele>
      </trkpt>
      <trkpt lat="45.44642" lon="-0.23105">
        <ele>82.2109375</ele>
      </trkpt>
      <trkpt lat="45.44614" lon="-0.23147">
        <ele>81.08203125</ele>
      </trkpt>
      <trkpt lat="45.44591" lon="-0.23181">
        <ele>80.49609375</ele>
      </trkpt>
      <trkpt lat="45.4457" lon="-0.23215">
        <ele>79.7421875</ele>
      </trkpt>
      <trkpt lat="45.44542" lon="-0.23246">
        <ele>78.09765625</ele>
      </trkpt>
      <trkpt lat="45.44521" lon="-0.23271">
        <ele>76.87890625</ele>
      </trkpt>
      <trkpt lat="45.44501" lon="-0.23298">
        <ele>75.48828125</ele>
      </trkpt>
      <trkpt lat="45.44486" lon="-0.23323">
        <ele>73.97265625</ele>
      </trkpt>
      <trkpt lat="45.44471" lon="-0.23352">
        <ele>72.07421875</ele>
      </trkpt>
      <trkpt lat="45.44468" lon="-0.23381">
        <ele>70.69140625</ele>
      </trkpt>
      <trkpt lat="45.44462" lon="-0.23416">
        <ele>68.89453125</ele>
      </trkpt>
      <trkpt lat="45.44454" lon="-0.23438">
        <ele>67.734375</ele>
      </trkpt>
      <trkpt lat="45.44444" lon="-0.23449">
        <ele>67.16015625</ele>
      </trkpt>
      <trkpt lat="45.4442" lon="-0.23453">
        <ele>66.59375</ele>
      </trkpt>
      <trkpt lat="45.44402" lon="-0.23456">
        <ele>66.14453125</ele>
      </trkpt>
      <trkpt lat="45.44394" lon="-0.23464">
        <ele>65.734375</ele>
      </trkpt>
      <trkpt lat="45.44392" lon="-0.23486">
        <ele>65</ele>
      </trkpt>
      <trkpt lat="45.44401" lon="-0.23526">
        <ele>65.01171875</ele>
      </trkpt>
      <trkpt lat="45.44394" lon="-0.23569">
        <ele>65.5</ele>
      </trkpt>
      <trkpt lat="45.44387" lon="-0.23612">
        <ele>66.60546875</ele>
      </trkpt>
      <trkpt lat="45.44381" lon="-0.2361">
        <ele>66.5625</ele>
      </trkpt>
      <trkpt lat="45.44362" lon="-0.23591">
        <ele>65.8984375</ele>
      </trkpt>
      <trkpt lat="45.44337" lon="-0.2356">
        <ele>65.5703125</ele>
      </trkpt>
      <trkpt lat="45.44295" lon="-0.23508">
        <ele>65.671875</ele>
      </trkpt>
      <trkpt lat="45.44258" lon="-0.23458">
        <ele>66.78515625</ele>
      </trkpt>
      <trkpt lat="45.44233" lon="-0.23421">
        <ele>66.80859375</ele>
      </trkpt>
      <trkpt lat="45.44219" lon="-0.23398">
        <ele>66.9765625</ele>
      </trkpt>
      <trkpt lat="45.44211" lon="-0.23394">
        <ele>67.19140625</ele>
      </trkpt>
      <trkpt lat="45.44206" lon="-0.23395">
        <ele>67.45703125</ele>
      </trkpt>
      <trkpt lat="45.44201" lon="-0.23396">
        <ele>67.66796875</ele>
      </trkpt>
      <trkpt lat="45.44184" lon="-0.23412">
        <ele>68.97265625</ele>
      </trkpt>
      <trkpt lat="45.44158" lon="-0.23436">
        <ele>71.3984375</ele>
      </trkpt>
      <trkpt lat="45.44134" lon="-0.23458">
        <ele>73.52734375</ele>
      </trkpt>
      <trkpt lat="45.44124" lon="-0.23466">
        <ele>74.33984375</ele>
      </trkpt>
      <trkpt lat="45.44118" lon="-0.23465">
        <ele>74.8515625</ele>
      </trkpt>
      <trkpt lat="45.44113" lon="-0.23458">
        <ele>75.0859375</ele>
      </trkpt>
      <trkpt lat="45.44107" lon="-0.23448">
        <ele>75.3046875</ele>
      </trkpt>
      <trkpt lat="45.44094" lon="-0.23397">
        <ele>74.9453125</ele>
      </trkpt>
      <trkpt lat="45.44084" lon="-0.23359">
        <ele>74.69140625</ele>
      </trkpt>
      <trkpt lat="45.44068" lon="-0.23317">
        <ele>74.60546875</ele>
      </trkpt>
      <trkpt lat="45.44055" lon="-0.23277">
        <ele>73.8515625</ele>
      </trkpt>
      <trkpt lat="45.4402" lon="-0.23151">
        <ele>71.578125</ele>
      </trkpt>
      <trkpt lat="45.44008" lon="-0.23118">
        <ele>70.7734375</ele>
      </trkpt>
      <trkpt lat="45.43983" lon="-0.23076">
        <ele>70.46875</ele>
      </trkpt>
      <trkpt lat="45.43928" lon="-0.22982">
        <ele>72.96875</ele>
      </trkpt>
      <trkpt lat="45.43881" lon="-0.22901">
        <ele>74.9296875</ele>
      </trkpt>
      <trkpt lat="45.4386" lon="-0.22807">
        <ele>73.13671875</ele>
      </trkpt>
      <trkpt lat="45.43828" lon="-0.2266">
        <ele>72.76953125</ele>
      </trkpt>
      <trkpt lat="45.43805" lon="-0.2255">
        <ele>73.16796875</ele>
      </trkpt>
      <trkpt lat="45.43798" lon="-0.22544">
        <ele>73.4765625</ele>
      </trkpt>
      <trkpt lat="45.43783" lon="-0.22548">
        <ele>74.32421875</ele>
      </trkpt>
      <trkpt lat="45.43719" lon="-0.22572">
        <ele>77.8828125</ele>
      </trkpt>
      <trkpt lat="45.43693" lon="-0.22582">
        <ele>78.94921875</ele>
      </trkpt>
      <trkpt lat="45.43644" lon="-0.22611">
        <ele>80.375</ele>
      </trkpt>
      <trkpt lat="45.43588" lon="-0.22644">
        <ele>81.59765625</ele>
      </trkpt>
      <trkpt lat="45.43577" lon="-0.22651">
        <ele>81.88671875</ele>
      </trkpt>
      <trkpt lat="45.43564" lon="-0.22652">
        <ele>81.953125</ele>
      </trkpt>
      <trkpt lat="45.43541" lon="-0.22655">
        <ele>81.69140625</ele>
      </trkpt>
      <trkpt lat="45.43517" lon="-0.22662">
        <ele>81.65234375</ele>
      </trkpt>
      <trkpt lat="45.43511" lon="-0.22623">
        <ele>79.9453125</ele>
      </trkpt>
      <trkpt lat="45.435" lon="-0.22574">
        <ele>79.1796875</ele>
      </trkpt>
      <trkpt lat="45.43486" lon="-0.22522">
        <ele>79.953125</ele>
      </trkpt>
      <trkpt lat="45.43481" lon="-0.22504">
        <ele>80.55078125</ele>
      </trkpt>
      <trkpt lat="45.43481" lon="-0.22477">
        <ele>81.1875</ele>
      </trkpt>
      <trkpt lat="45.43493" lon="-0.22431">
        <ele>81.58984375</ele>
      </trkpt>
      <trkpt lat="45.43503" lon="-0.22396">
        <ele>81.875</ele>
      </trkpt>
      <trkpt lat="45.43505" lon="-0.22381">
        <ele>82.06640625</ele>
      </trkpt>
      <trkpt lat="45.43507" lon="-0.22327">
        <ele>82.0859375</ele>
      </trkpt>
      <trkpt lat="45.4351" lon="-0.22301">
        <ele>81.3125</ele>
      </trkpt>
      <trkpt lat="45.43514" lon="-0.22297">
        <ele>81.01171875</ele>
      </trkpt>
      <trkpt lat="45.43516" lon="-0.22287">
        <ele>80.5625</ele>
      </trkpt>
      <trkpt lat="45.43516" lon="-0.2226">
        <ele>79.6796875</ele>
      </trkpt>
      <trkpt lat="45.4351" lon="-0.2221">
        <ele>79.02734375</ele>
      </trkpt>
      <trkpt lat="45.43501" lon="-0.22153">
        <ele>79.296875</ele>
      </trkpt>
      <trkpt lat="45.43496" lon="-0.22124">
        <ele>79.10546875</ele>
      </trkpt>
      <trkpt lat="45.43484" lon="-0.22081">
        <ele>79.36328125</ele>
      </trkpt>
      <trkpt lat="45.43475" lon="-0.22053">
        <ele>79.875</ele>
      </trkpt>
      <trkpt lat="45.43469" lon="-0.22028">
        <ele>79.94921875</ele>
      </trkpt>
      <trkpt lat="45.4346" lon="-0.21991">
        <ele>79.76953125</ele>
      </trkpt>
      <trkpt lat="45.43451" lon="-0.21956">
        <ele>80.76953125</ele>
      </trkpt>
      <trkpt lat="45.43439" lon="-0.21927">
        <ele>81.69140625</ele>
      </trkpt>
      <trkpt lat="45.43419" lon="-0.21892">
        <ele>82.328125</ele>
      </trkpt>
      <trkpt lat="45.43409" lon="-0.21867">
        <ele>82.39453125</ele>
      </trkpt>
      <trkpt lat="45.43403" lon="-0.21865">
        <ele>82.7109375</ele>
      </trkpt>
      <trkpt lat="45.43392" lon="-0.21876">
        <ele>84.21484375</ele>
      </trkpt>
      <trkpt lat="45.43386" lon="-0.21886">
        <ele>84.484375</ele>
      </trkpt>
      <trkpt lat="45.43363" lon="-0.21907">
        <ele>85.6484375</ele>
      </trkpt>
      <trkpt lat="45.43342" lon="-0.21934">
        <ele>87.11328125</ele>
      </trkpt>
      <trkpt lat="45.43322" lon="-0.21963">
        <ele>88.73828125</ele>
      </trkpt>
      <trkpt lat="45.433" lon="-0.22012">
        <ele>91.625</ele>
      </trkpt>
      <trkpt lat="45.43272" lon="-0.22065">
        <ele>95.3203125</ele>
      </trkpt>
      <trkpt lat="45.43258" lon="-0.22089">
        <ele>97.15234375</ele>
      </trkpt>
      <trkpt lat="45.43251" lon="-0.22098">
        <ele>97.9453125</ele>
      </trkpt>
      <trkpt lat="45.43239" lon="-0.22104">
        <ele>98.85546875</ele>
      </trkpt>
      <trkpt lat="45.43221" lon="-0.22114">
        <ele>99.4453125</ele>
      </trkpt>
      <trkpt lat="45.432" lon="-0.22128">
        <ele>99.85546875</ele>
      </trkpt>
      <trkpt lat="45.43189" lon="-0.22139">
        <ele>100.30859375</ele>
      </trkpt>
      <trkpt lat="45.43183" lon="-0.22149">
        <ele>100.80078125</ele>
      </trkpt>
      <trkpt lat="45.43174" lon="-0.22156">
        <ele>101.09375</ele>
      </trkpt>
      <trkpt lat="45.43148" lon="-0.22168">
        <ele>101.2578125</ele>
      </trkpt>
      <trkpt lat="45.43126" lon="-0.22179">
        <ele>101.51171875</ele>
      </trkpt>
      <trkpt lat="45.43116" lon="-0.22187">
        <ele>101.42578125</ele>
      </trkpt>
      <trkpt lat="45.43107" lon="-0.22195">
        <ele>101.1015625</ele>
      </trkpt>
      <trkpt lat="45.431" lon="-0.22202">
        <ele>100.80078125</ele>
      </trkpt>
      <trkpt lat="45.43089" lon="-0.22207">
        <ele>100.05859375</ele>
      </trkpt>
      <trkpt lat="45.43077" lon="-0.22199">
        <ele>98.625</ele>
      </trkpt>
      <trkpt lat="45.43064" lon="-0.22189">
        <ele>97.14453125</ele>
      </trkpt>
      <trkpt lat="45.43053" lon="-0.22189">
        <ele>96.40625</ele>
      </trkpt>
      <trkpt lat="45.43045" lon="-0.22195">
        <ele>96.05859375</ele>
      </trkpt>
      <trkpt lat="45.43033" lon="-0.222">
        <ele>95.39453125</ele>
      </trkpt>
      <trkpt lat="45.43022" lon="-0.22204">
        <ele>94.7109375</ele>
      </trkpt>
      <trkpt lat="45.42995" lon="-0.22207">
        <ele>93.66015625</ele>
      </trkpt>
      <trkpt lat="45.42976" lon="-0.22214">
        <ele>93.6640625</ele>
      </trkpt>
      <trkpt lat="45.42942" lon="-0.2223">
        <ele>94.6015625</ele>
      </trkpt>
      <trkpt lat="45.42915" lon="-0.22246">
        <ele>96.41015625</ele>
      </trkpt>
      <trkpt lat="45.42898" lon="-0.22259">
        <ele>97.7109375</ele>
      </trkpt>
      <trkpt lat="45.42871" lon="-0.22271">
        <ele>98.8125</ele>
      </trkpt>
      <trkpt lat="45.42855" lon="-0.22275">
        <ele>99.21484375</ele>
      </trkpt>
      <trkpt lat="45.42833" lon="-0.22283">
        <ele>99.4453125</ele>
      </trkpt>
      <trkpt lat="45.42824" lon="-0.22289">
        <ele>99.52734375</ele>
      </trkpt>
      <trkpt lat="45.42819" lon="-0.22293">
        <ele>99.625</ele>
      </trkpt>
      <trkpt lat="45.42806" lon="-0.22299">
        <ele>99.734375</ele>
      </trkpt>
      <trkpt lat="45.428" lon="-0.22291">
        <ele>99.171875</ele>
      </trkpt>
      <trkpt lat="45.42791" lon="-0.22245">
        <ele>96.06640625</ele>
      </trkpt>
      <trkpt lat="45.42778" lon="-0.22186">
        <ele>93.24609375</ele>
      </trkpt>
      <trkpt lat="45.4277" lon="-0.2215">
        <ele>92.35546875</ele>
      </trkpt>
      <trkpt lat="45.4276" lon="-0.22102">
        <ele>93.43359375</ele>
      </trkpt>
      <trkpt lat="45.42749" lon="-0.22097">
        <ele>94.1328125</ele>
      </trkpt>
      <trkpt lat="45.42747" lon="-0.22069">
        <ele>95.46484375</ele>
      </trkpt>
      <trkpt lat="45.42744" lon="-0.22037">
        <ele>97.08984375</ele>
      </trkpt>
      <trkpt lat="45.42748" lon="-0.22001">
        <ele>97.75</ele>
      </trkpt>
      <trkpt lat="45.42761" lon="-0.21958">
        <ele>97.69921875</ele>
      </trkpt>
      <trkpt lat="45.42767" lon="-0.21937">
        <ele>97.43359375</ele>
      </trkpt>
      <trkpt lat="45.42778" lon="-0.21898">
        <ele>96.58984375</ele>
      </trkpt>
      <trkpt lat="45.42783" lon="-0.21881">
        <ele>96.234375</ele>
      </trkpt>
      <trkpt lat="45.42792" lon="-0.21863">
        <ele>96.64453125</ele>
      </trkpt>
      <trkpt lat="45.42813" lon="-0.21841">
        <ele>97.7265625</ele>
      </trkpt>
      <trkpt lat="45.42833" lon="-0.21815">
        <ele>99.08984375</ele>
      </trkpt>
      <trkpt lat="45.42855" lon="-0.21773">
        <ele>99.04296875</ele>
      </trkpt>
      <trkpt lat="45.42872" lon="-0.2174">
        <ele>98.140625</ele>
      </trkpt>
      <trkpt lat="45.42886" lon="-0.21707">
        <ele>97.16015625</ele>
      </trkpt>
      <trkpt lat="45.42896" lon="-0.21658">
        <ele>96.26171875</ele>
      </trkpt>
      <trkpt lat="45.42909" lon="-0.21592">
        <ele>94.35546875</ele>
      </trkpt>
      <trkpt lat="45.42923" lon="-0.21534">
        <ele>92.90625</ele>
      </trkpt>
      <trkpt lat="45.4293" lon="-0.21496">
        <ele>91.55859375</ele>
      </trkpt>
      <trkpt lat="45.42929" lon="-0.21472">
        <ele>91.0859375</ele>
      </trkpt>
      <trkpt lat="45.42912" lon="-0.21421">
        <ele>91.41015625</ele>
      </trkpt>
      <trkpt lat="45.42909" lon="-0.2141">
        <ele>91.703125</ele>
      </trkpt>
      <trkpt lat="45.42907" lon="-0.214">
        <ele>91.9609375</ele>
      </trkpt>
      <trkpt lat="45.42905" lon="-0.21392">
        <ele>92.18359375</ele>
      </trkpt>
      <trkpt lat="45.42907" lon="-0.21376">
        <ele>92.234375</ele>
      </trkpt>
      <trkpt lat="45.42916" lon="-0.21364">
        <ele>91.41015625</ele>
      </trkpt>
      <trkpt lat="45.42934" lon="-0.21356">
        <ele>89.859375</ele>
      </trkpt>
      <trkpt lat="45.42937" lon="-0.21347">
        <ele>89.59375</ele>
      </trkpt>
      <trkpt lat="45.42939" lon="-0.21323">
        <ele>89.3671875</ele>
      </trkpt>
      <trkpt lat="45.4294" lon="-0.21272">
        <ele>89.03515625</ele>
      </trkpt>
      <trkpt lat="45.42942" lon="-0.21236">
        <ele>88.91015625</ele>
      </trkpt>
      <trkpt lat="45.42943" lon="-0.21196">
        <ele>88.78515625</ele>
      </trkpt>
      <trkpt lat="45.42943" lon="-0.21171">
        <ele>88.671875</ele>
      </trkpt>
      <trkpt lat="45.42943" lon="-0.21152">
        <ele>88.515625</ele>
      </trkpt>
      <trkpt lat="45.42924" lon="-0.21144">
        <ele>89.18359375</ele>
      </trkpt>
      <trkpt lat="45.42902" lon="-0.21134">
        <ele>89.75</ele>
      </trkpt>
      <trkpt lat="45.4288" lon="-0.21123">
        <ele>89.9921875</ele>
      </trkpt>
      <trkpt lat="45.42871" lon="-0.21119">
        <ele>90.0078125</ele>
      </trkpt>
      <trkpt lat="45.42855" lon="-0.21115">
        <ele>90.19921875</ele>
      </trkpt>
      <trkpt lat="45.42838" lon="-0.2111">
        <ele>90.31640625</ele>
      </trkpt>
      <trkpt lat="45.42818" lon="-0.21104">
        <ele>90.875</ele>
      </trkpt>
      <trkpt lat="45.428" lon="-0.21099">
        <ele>91.39453125</ele>
      </trkpt>
      <trkpt lat="45.42781" lon="-0.21093">
        <ele>92.07421875</ele>
      </trkpt>
      <trkpt lat="45.42772" lon="-0.21092">
        <ele>92.49609375</ele>
      </trkpt>
      <trkpt lat="45.42759" lon="-0.21094">
        <ele>93.24609375</ele>
      </trkpt>
      <trkpt lat="45.42737" lon="-0.21098">
        <ele>94.6875</ele>
      </trkpt>
      <trkpt lat="45.42716" lon="-0.21102">
        <ele>95.8828125</ele>
      </trkpt>
      <trkpt lat="45.42695" lon="-0.21105">
        <ele>96.91015625</ele>
      </trkpt>
      <trkpt lat="45.4269" lon="-0.21103">
        <ele>96.98046875</ele>
      </trkpt>
      <trkpt lat="45.42684" lon="-0.21104">
        <ele>97.2109375</ele>
      </trkpt>
      <trkpt lat="45.42678" lon="-0.21094">
        <ele>96.58203125</ele>
      </trkpt>
      <trkpt lat="45.42664" lon="-0.21099">
        <ele>97.48828125</ele>
      </trkpt>
      <trkpt lat="45.42654" lon="-0.21103">
        <ele>98.1875</ele>
      </trkpt>
      <trkpt lat="45.42632" lon="-0.21114">
        <ele>99.59375</ele>
      </trkpt>
      <trkpt lat="45.42617" lon="-0.2112">
        <ele>100.22265625</ele>
      </trkpt>
      <trkpt lat="45.42605" lon="-0.21124">
        <ele>100.69140625</ele>
      </trkpt>
      <trkpt lat="45.42589" lon="-0.21133">
        <ele>101.453125</ele>
      </trkpt>
      <trkpt lat="45.42573" lon="-0.21142">
        <ele>102.21484375</ele>
      </trkpt>
      <trkpt lat="45.42564" lon="-0.21145">
        <ele>102.51171875</ele>
      </trkpt>
      <trkpt lat="45.42557" lon="-0.2115">
        <ele>102.625</ele>
      </trkpt>
      <trkpt lat="45.42534" lon="-0.21174">
        <ele>103.140625</ele>
      </trkpt>
      <trkpt lat="45.42516" lon="-0.21191">
        <ele>103.44921875</ele>
      </trkpt>
      <trkpt lat="45.42487" lon="-0.21222">
        <ele>103.30078125</ele>
      </trkpt>
      <trkpt lat="45.42467" lon="-0.21251">
        <ele>103.73828125</ele>
      </trkpt>
      <trkpt lat="45.42451" lon="-0.21273">
        <ele>104.0546875</ele>
      </trkpt>
      <trkpt lat="45.42438" lon="-0.2129">
        <ele>103.75390625</ele>
      </trkpt>
      <trkpt lat="45.42432" lon="-0.213">
        <ele>103.671875</ele>
      </trkpt>
      <trkpt lat="45.42426" lon="-0.21306">
        <ele>103.44140625</ele>
      </trkpt>
      <trkpt lat="45.42425" lon="-0.21308">
        <ele>103.40625</ele>
      </trkpt>
      <trkpt lat="45.42421" lon="-0.2126">
        <ele>101.3359375</ele>
      </trkpt>
      <trkpt lat="45.4242" lon="-0.21204">
        <ele>98.3046875</ele>
      </trkpt>
      <trkpt lat="45.42421" lon="-0.21177">
        <ele>97.17578125</ele>
      </trkpt>
      <trkpt lat="45.42417" lon="-0.21154">
        <ele>95.98828125</ele>
      </trkpt>
      <trkpt lat="45.42417" lon="-0.21127">
        <ele>95.65234375</ele>
      </trkpt>
      <trkpt lat="45.42406" lon="-0.21111">
        <ele>95.1875</ele>
      </trkpt>
      <trkpt lat="45.42396" lon="-0.21095">
        <ele>95.4375</ele>
      </trkpt>
      <trkpt lat="45.42388" lon="-0.21082">
        <ele>96.65625</ele>
      </trkpt>
      <trkpt lat="45.42363" lon="-0.21062">
        <ele>99.5546875</ele>
      </trkpt>
      <trkpt lat="45.42351" lon="-0.21051">
        <ele>100.9921875</ele>
      </trkpt>
      <trkpt lat="45.42335" lon="-0.2103">
        <ele>103.08203125</ele>
      </trkpt>
      <trkpt lat="45.42323" lon="-0.21015">
        <ele>104.26953125</ele>
      </trkpt>
      <trkpt lat="45.42317" lon="-0.20989">
        <ele>105.3984375</ele>
      </trkpt>
      <trkpt lat="45.42316" lon="-0.2096">
        <ele>105.98828125</ele>
      </trkpt>
      <trkpt lat="45.42315" lon="-0.20926">
        <ele>106.60546875</ele>
      </trkpt>
      <trkpt lat="45.42316" lon="-0.20899">
        <ele>107.08203125</ele>
      </trkpt>
      <trkpt lat="45.42315" lon="-0.20884">
        <ele>107.359375</ele>
      </trkpt>
      <trkpt lat="45.42314" lon="-0.20869">
        <ele>107.53125</ele>
      </trkpt>
      <trkpt lat="45.42328" lon="-0.2084">
        <ele>107.2890625</ele>
      </trkpt>
      <trkpt lat="45.42345" lon="-0.20802">
        <ele>106.9453125</ele>
      </trkpt>
      <trkpt lat="45.42363" lon="-0.2076">
        <ele>105.82421875</ele>
      </trkpt>
      <trkpt lat="45.42373" lon="-0.20734">
        <ele>104.24609375</ele>
      </trkpt>
      <trkpt lat="45.42384" lon="-0.20706">
        <ele>102.18359375</ele>
      </trkpt>
      <trkpt lat="45.42391" lon="-0.2069">
        <ele>100.984375</ele>
      </trkpt>
      <trkpt lat="45.42395" lon="-0.20675">
        <ele>100.0859375</ele>
      </trkpt>
      <trkpt lat="45.42379" lon="-0.2068">
        <ele>101.546875</ele>
      </trkpt>
      <trkpt lat="45.42367" lon="-0.20687">
        <ele>102.7890625</ele>
      </trkpt>
      <trkpt lat="45.42358" lon="-0.20691">
        <ele>103.76171875</ele>
      </trkpt>
      <trkpt lat="45.42345" lon="-0.20693">
        <ele>104.95703125</ele>
      </trkpt>
      <trkpt lat="45.42323" lon="-0.20692">
        <ele>105.1640625</ele>
      </trkpt>
      <trkpt lat="45.42302" lon="-0.20692">
        <ele>105.28515625</ele>
      </trkpt>
      <trkpt lat="45.42281" lon="-0.20687">
        <ele>105.25390625</ele>
      </trkpt>
      <trkpt lat="45.42265" lon="-0.20685">
        <ele>105.29296875</ele>
      </trkpt>
      <trkpt lat="45.42252" lon="-0.20687">
        <ele>105.4453125</ele>
      </trkpt>
      <trkpt lat="45.42232" lon="-0.20694">
        <ele>105.71484375</ele>
      </trkpt>
      <trkpt lat="45.42212" lon="-0.20704">
        <ele>105.81640625</ele>
      </trkpt>
      <trkpt lat="45.42197" lon="-0.20712">
        <ele>106.08984375</ele>
      </trkpt>
      <trkpt lat="45.42183" lon="-0.2072">
        <ele>106.37109375</ele>
      </trkpt>
      <trkpt lat="45.42171" lon="-0.2073">
        <ele>106.62109375</ele>
      </trkpt>
      <trkpt lat="45.4216" lon="-0.20739">
        <ele>106.76953125</ele>
      </trkpt>
      <trkpt lat="45.42151" lon="-0.2075">
        <ele>107.0078125</ele>
      </trkpt>
      <trkpt lat="45.42145" lon="-0.20756">
        <ele>107.10546875</ele>
      </trkpt>
      <trkpt lat="45.42137" lon="-0.20759">
        <ele>107.0625</ele>
      </trkpt>
      <trkpt lat="45.42119" lon="-0.2076">
        <ele>106.734375</ele>
      </trkpt>
      <trkpt lat="45.42097" lon="-0.20746">
        <ele>105.44921875</ele>
      </trkpt>
      <trkpt lat="45.42062" lon="-0.20736">
        <ele>103.8359375</ele>
      </trkpt>
      <trkpt lat="45.4204" lon="-0.20742">
        <ele>103.21484375</ele>
      </trkpt>
      <trkpt lat="45.42022" lon="-0.20748">
        <ele>102.77734375</ele>
      </trkpt>
      <trkpt lat="45.42003" lon="-0.20753">
        <ele>102.36328125</ele>
      </trkpt>
      <trkpt lat="45.41977" lon="-0.20748">
        <ele>101.7421875</ele>
      </trkpt>
      <trkpt lat="45.41963" lon="-0.20747">
        <ele>101.46875</ele>
      </trkpt>
      <trkpt lat="45.41932" lon="-0.20745">
        <ele>102.05078125</ele>
      </trkpt>
      <trkpt lat="45.41908" lon="-0.20752">
        <ele>102.47265625</ele>
      </trkpt>
      <trkpt lat="45.41878" lon="-0.2076">
        <ele>103.76953125</ele>
      </trkpt>
      <trkpt lat="45.41848" lon="-0.20765">
        <ele>105.71875</ele>
      </trkpt>
      <trkpt lat="45.41814" lon="-0.20774">
        <ele>106.83984375</ele>
      </trkpt>
      <trkpt lat="45.41772" lon="-0.20788">
        <ele>107.7421875</ele>
      </trkpt>
      <trkpt lat="45.41735" lon="-0.20801">
        <ele>108.6328125</ele>
      </trkpt>
      <trkpt lat="45.417" lon="-0.20813">
        <ele>109.47265625</ele>
      </trkpt>
      <trkpt lat="45.41671" lon="-0.20823">
        <ele>110.37890625</ele>
      </trkpt>
      <trkpt lat="45.41649" lon="-0.20831">
        <ele>111.51171875</ele>
      </trkpt>
      <trkpt lat="45.4163" lon="-0.20781">
        <ele>113.34765625</ele>
      </trkpt>
      <trkpt lat="45.41621" lon="-0.20761">
        <ele>114.19140625</ele>
      </trkpt>
      <trkpt lat="45.41602" lon="-0.20708">
        <ele>116.38671875</ele>
      </trkpt>
      <trkpt lat="45.41587" lon="-0.20671">
        <ele>116.8828125</ele>
      </trkpt>
      <trkpt lat="45.4158" lon="-0.20656">
        <ele>116.9921875</ele>
      </trkpt>
      <trkpt lat="45.41574" lon="-0.20645">
        <ele>116.8125</ele>
      </trkpt>
      <trkpt lat="45.41566" lon="-0.20643">
        <ele>116.82421875</ele>
      </trkpt>
      <trkpt lat="45.4154" lon="-0.20649">
        <ele>117.91015625</ele>
      </trkpt>
      <trkpt lat="45.41521" lon="-0.20649">
        <ele>118.6015625</ele>
      </trkpt>
      <trkpt lat="45.41496" lon="-0.20653">
        <ele>119.265625</ele>
      </trkpt>
      <trkpt lat="45.41469" lon="-0.20654">
        <ele>119.75</ele>
      </trkpt>
      <trkpt lat="45.41453" lon="-0.20656">
        <ele>120</ele>
      </trkpt>
      <trkpt lat="45.41436" lon="-0.20651">
        <ele>120.40625</ele>
      </trkpt>
      <trkpt lat="45.41413" lon="-0.20642">
        <ele>121.1328125</ele>
      </trkpt>
      <trkpt lat="45.41394" lon="-0.20634">
        <ele>121.83203125</ele>
      </trkpt>
      <trkpt lat="45.4138" lon="-0.20619">
        <ele>122.63671875</ele>
      </trkpt>
      <trkpt lat="45.41362" lon="-0.20597">
        <ele>123.71875</ele>
      </trkpt>
      <trkpt lat="45.41346" lon="-0.20579">
        <ele>124.3203125</ele>
      </trkpt>
      <trkpt lat="45.41327" lon="-0.2056">
        <ele>124.921875</ele>
      </trkpt>
      <trkpt lat="45.41315" lon="-0.20546">
        <ele>125.44140625</ele>
      </trkpt>
      <trkpt lat="45.41303" lon="-0.20536">
        <ele>125.86328125</ele>
      </trkpt>
      <trkpt lat="45.41296" lon="-0.2052">
        <ele>126.28515625</ele>
      </trkpt>
      <trkpt lat="45.4129" lon="-0.20497">
        <ele>126.80859375</ele>
      </trkpt>
      <trkpt lat="45.41286" lon="-0.20478">
        <ele>127.0078125</ele>
      </trkpt>
      <trkpt lat="45.41284" lon="-0.20468">
        <ele>127.02734375</ele>
      </trkpt>
      <trkpt lat="45.41278" lon="-0.20459">
        <ele>127.1015625</ele>
      </trkpt>
      <trkpt lat="45.41268" lon="-0.20454">
        <ele>127.22265625</ele>
      </trkpt>
      <trkpt lat="45.41252" lon="-0.20453">
        <ele>127.4140625</ele>
      </trkpt>
      <trkpt lat="45.41232" lon="-0.20448">
        <ele>127.71875</ele>
      </trkpt>
      <trkpt lat="45.41212" lon="-0.20445">
        <ele>127.8515625</ele>
      </trkpt>
      <trkpt lat="45.41196" lon="-0.20443">
        <ele>127.9375</ele>
      </trkpt>
      <trkpt lat="45.41182" lon="-0.20442">
        <ele>127.98828125</ele>
      </trkpt>
      <trkpt lat="45.41169" lon="-0.20443">
        <ele>127.97265625</ele>
      </trkpt>
      <trkpt lat="45.41162" lon="-0.20444">
        <ele>127.94140625</ele>
      </trkpt>
      <trkpt lat="45.41147" lon="-0.20471">
        <ele>127.61328125</ele>
      </trkpt>
      <trkpt lat="45.41125" lon="-0.20513">
        <ele>126.609375</ele>
      </trkpt>
      <trkpt lat="45.41106" lon="-0.20549">
        <ele>125.6015625</ele>
      </trkpt>
      <trkpt lat="45.4109" lon="-0.20587">
        <ele>124.62890625</ele>
      </trkpt>
      <trkpt lat="45.41074" lon="-0.20623">
        <ele>123.26171875</ele>
      </trkpt>
      <trkpt lat="45.41058" lon="-0.20662">
        <ele>121.43359375</ele>
      </trkpt>
      <trkpt lat="45.41052" lon="-0.20679">
        <ele>120.6953125</ele>
      </trkpt>
      <trkpt lat="45.41046" lon="-0.20727">
        <ele>118.87890625</ele>
      </trkpt>
      <trkpt lat="45.41044" lon="-0.20746">
        <ele>117.9921875</ele>
      </trkpt>
      <trkpt lat="45.41035" lon="-0.20797">
        <ele>115.94921875</ele>
      </trkpt>
      <trkpt lat="45.41026" lon="-0.20837">
        <ele>114.578125</ele>
      </trkpt>
      <trkpt lat="45.41011" lon="-0.20883">
        <ele>113.02734375</ele>
      </trkpt>
      <trkpt lat="45.40996" lon="-0.2093">
        <ele>111.9375</ele>
      </trkpt>
      <trkpt lat="45.40986" lon="-0.20957">
        <ele>110.51171875</ele>
      </trkpt>
      <trkpt lat="45.40972" lon="-0.21014">
        <ele>108.40234375</ele>
      </trkpt>
      <trkpt lat="45.40959" lon="-0.21058">
        <ele>106.92578125</ele>
      </trkpt>
      <trkpt lat="45.40953" lon="-0.21078">
        <ele>106.30859375</ele>
      </trkpt>
      <trkpt lat="45.40941" lon="-0.21097">
        <ele>105.7578125</ele>
      </trkpt>
      <trkpt lat="45.40914" lon="-0.21125">
        <ele>104.91015625</ele>
      </trkpt>
      <trkpt lat="45.40867" lon="-0.21167">
        <ele>102.05859375</ele>
      </trkpt>
      <trkpt lat="45.40845" lon="-0.21199">
        <ele>100.24609375</ele>
      </trkpt>
      <trkpt lat="45.40825" lon="-0.21232">
        <ele>98.8359375</ele>
      </trkpt>
      <trkpt lat="45.40808" lon="-0.21257">
        <ele>97.703125</ele>
      </trkpt>
      <trkpt lat="45.40799" lon="-0.2126">
        <ele>96.84765625</ele>
      </trkpt>
      <trkpt lat="45.40781" lon="-0.21248">
        <ele>95.74609375</ele>
      </trkpt>
      <trkpt lat="45.40766" lon="-0.21236">
        <ele>95.390625</ele>
      </trkpt>
      <trkpt lat="45.40752" lon="-0.21232">
        <ele>95.0546875</ele>
      </trkpt>
      <trkpt lat="45.40749" lon="-0.21221">
        <ele>95.13671875</ele>
      </trkpt>
      <trkpt lat="45.40739" lon="-0.212">
        <ele>95.4453125</ele>
      </trkpt>
      <trkpt lat="45.40717" lon="-0.21165">
        <ele>97.203125</ele>
      </trkpt>
      <trkpt lat="45.40694" lon="-0.21127">
        <ele>99.37109375</ele>
      </trkpt>
      <trkpt lat="45.40672" lon="-0.21092">
        <ele>101.125</ele>
      </trkpt>
      <trkpt lat="45.40646" lon="-0.2106">
        <ele>102.1015625</ele>
      </trkpt>
      <trkpt lat="45.40624" lon="-0.21027">
        <ele>103.5234375</ele>
      </trkpt>
      <trkpt lat="45.40612" lon="-0.21001">
        <ele>104.55078125</ele>
      </trkpt>
      <trkpt lat="45.40596" lon="-0.20948">
        <ele>106.04296875</ele>
      </trkpt>
      <trkpt lat="45.40576" lon="-0.20862">
        <ele>108.13671875</ele>
      </trkpt>
      <trkpt lat="45.40554" lon="-0.20777">
        <ele>108.7734375</ele>
      </trkpt>
      <trkpt lat="45.40549" lon="-0.20784">
        <ele>108.671875</ele>
      </trkpt>
      <trkpt lat="45.40503" lon="-0.20805">
        <ele>107.8515625</ele>
      </trkpt>
      <trkpt lat="45.40481" lon="-0.20815">
        <ele>107.4609375</ele>
      </trkpt>
      <trkpt lat="45.40469" lon="-0.20825">
        <ele>107.29296875</ele>
      </trkpt>
      <trkpt lat="45.40452" lon="-0.20852">
        <ele>107.45703125</ele>
      </trkpt>
      <trkpt lat="45.40436" lon="-0.20879">
        <ele>107.26171875</ele>
      </trkpt>
      <trkpt lat="45.40421" lon="-0.20912">
        <ele>106.5078125</ele>
      </trkpt>
      <trkpt lat="45.40407" lon="-0.20941">
        <ele>106.08984375</ele>
      </trkpt>
      <trkpt lat="45.40395" lon="-0.20966">
        <ele>106</ele>
      </trkpt>
      <trkpt lat="45.40381" lon="-0.20984">
        <ele>106</ele>
      </trkpt>
      <trkpt lat="45.40371" lon="-0.21004">
        <ele>105.55859375</ele>
      </trkpt>
      <trkpt lat="45.40363" lon="-0.2104">
        <ele>104.734375</ele>
      </trkpt>
      <trkpt lat="45.4036" lon="-0.21087">
        <ele>103.94140625</ele>
      </trkpt>
      <trkpt lat="45.40356" lon="-0.2112">
        <ele>103.34375</ele>
      </trkpt>
      <trkpt lat="45.40354" lon="-0.21141">
        <ele>102.94140625</ele>
      </trkpt>
      <trkpt lat="45.4034" lon="-0.21174">
        <ele>102.96875</ele>
      </trkpt>
      <trkpt lat="45.40323" lon="-0.21204">
        <ele>102.65234375</ele>
      </trkpt>
      <trkpt lat="45.40312" lon="-0.21227">
        <ele>102.28515625</ele>
      </trkpt>
      <trkpt lat="45.40297" lon="-0.21261">
        <ele>102.0078125</ele>
      </trkpt>
      <trkpt lat="45.40284" lon="-0.21292">
        <ele>101.46875</ele>
      </trkpt>
      <trkpt lat="45.40269" lon="-0.21315">
        <ele>101.06640625</ele>
      </trkpt>
      <trkpt lat="45.4026" lon="-0.21346">
        <ele>100.296875</ele>
      </trkpt>
      <trkpt lat="45.4026" lon="-0.21361">
        <ele>99.8671875</ele>
      </trkpt>
      <trkpt lat="45.40257" lon="-0.21383">
        <ele>99.22265625</ele>
      </trkpt>
      <trkpt lat="45.40252" lon="-0.21403">
        <ele>98.5234375</ele>
      </trkpt>
      <trkpt lat="45.40244" lon="-0.21409">
        <ele>98.1015625</ele>
      </trkpt>
      <trkpt lat="45.4022" lon="-0.21406">
        <ele>97.6875</ele>
      </trkpt>
      <trkpt lat="45.40203" lon="-0.21403">
        <ele>97.47265625</ele>
      </trkpt>
      <trkpt lat="45.40173" lon="-0.21398">
        <ele>97.125</ele>
      </trkpt>
      <trkpt lat="45.40136" lon="-0.2138">
        <ele>97.1015625</ele>
      </trkpt>
      <trkpt lat="45.40118" lon="-0.21369">
        <ele>96.9453125</ele>
      </trkpt>
      <trkpt lat="45.40085" lon="-0.21358">
        <ele>95.98828125</ele>
      </trkpt>
      <trkpt lat="45.40051" lon="-0.21345">
        <ele>94.26171875</ele>
      </trkpt>
      <trkpt lat="45.40027" lon="-0.2133">
        <ele>92.33984375</ele>
      </trkpt>
      <trkpt lat="45.40003" lon="-0.21317">
        <ele>90.203125</ele>
      </trkpt>
      <trkpt lat="45.39968" lon="-0.21295">
        <ele>87.046875</ele>
      </trkpt>
      <trkpt lat="45.39974" lon="-0.21312">
        <ele>87.62109375</ele>
      </trkpt>
      <trkpt lat="45.39978" lon="-0.21332">
        <ele>88.12890625</ele>
      </trkpt>
      <trkpt lat="45.39984" lon="-0.21371">
        <ele>88.95703125</ele>
      </trkpt>
      <trkpt lat="45.39984" lon="-0.214">
        <ele>88.984375</ele>
      </trkpt>
      <trkpt lat="45.39986" lon="-0.21431">
        <ele>89.16796875</ele>
      </trkpt>
      <trkpt lat="45.39987" lon="-0.21446">
        <ele>89.06640625</ele>
      </trkpt>
      <trkpt lat="45.39997" lon="-0.21474">
        <ele>89.37109375</ele>
      </trkpt>
      <trkpt lat="45.40009" lon="-0.21509">
        <ele>89.0625</ele>
      </trkpt>
      <trkpt lat="45.40023" lon="-0.21543">
        <ele>88.14453125</ele>
      </trkpt>
      <trkpt lat="45.40041" lon="-0.21581">
        <ele>86.50390625</ele>
      </trkpt>
      <trkpt lat="45.40059" lon="-0.2162">
        <ele>86.453125</ele>
      </trkpt>
      <trkpt lat="45.40077" lon="-0.21652">
        <ele>87.73046875</ele>
      </trkpt>
      <trkpt lat="45.40093" lon="-0.2169">
        <ele>88.51953125</ele>
      </trkpt>
      <trkpt lat="45.40108" lon="-0.2172">
        <ele>88.77734375</ele>
      </trkpt>
      <trkpt lat="45.40128" lon="-0.21751">
        <ele>87.55078125</ele>
      </trkpt>
      <trkpt lat="45.4014" lon="-0.21767">
        <ele>86.8125</ele>
      </trkpt>
      <trkpt lat="45.40169" lon="-0.2179">
        <ele>87.1484375</ele>
      </trkpt>
      <trkpt lat="45.40202" lon="-0.21812">
        <ele>87.671875</ele>
      </trkpt>
      <trkpt lat="45.4023" lon="-0.21833">
        <ele>87.84765625</ele>
      </trkpt>
      <trkpt lat="45.40263" lon="-0.21857">
        <ele>86.68359375</ele>
      </trkpt>
      <trkpt lat="45.40296" lon="-0.21881">
        <ele>85.1953125</ele>
      </trkpt>
      <trkpt lat="45.40321" lon="-0.21899">
        <ele>82.91015625</ele>
      </trkpt>
      <trkpt lat="45.40343" lon="-0.21916">
        <ele>81.5546875</ele>
      </trkpt>
      <trkpt lat="45.40362" lon="-0.21929">
        <ele>81.953125</ele>
      </trkpt>
      <trkpt lat="45.40375" lon="-0.2194">
        <ele>82.4296875</ele>
      </trkpt>
      <trkpt lat="45.40379" lon="-0.21946">
        <ele>82.44921875</ele>
      </trkpt>
      <trkpt lat="45.40372" lon="-0.21962">
        <ele>81.62109375</ele>
      </trkpt>
      <trkpt lat="45.40364" lon="-0.21973">
        <ele>80.8125</ele>
      </trkpt>
      <trkpt lat="45.40353" lon="-0.21986">
        <ele>79.640625</ele>
      </trkpt>
      <trkpt lat="45.40343" lon="-0.21994">
        <ele>78.75</ele>
      </trkpt>
      <trkpt lat="45.40334" lon="-0.22002">
        <ele>78.45703125</ele>
      </trkpt>
      <trkpt lat="45.40326" lon="-0.2201">
        <ele>78.1640625</ele>
      </trkpt>
      <trkpt lat="45.40321" lon="-0.22027">
        <ele>77.5390625</ele>
      </trkpt>
      <trkpt lat="45.40319" lon="-0.22044">
        <ele>77.01953125</ele>
      </trkpt>
      <trkpt lat="45.40317" lon="-0.22064">
        <ele>77.203125</ele>
      </trkpt>
      <trkpt lat="45.40309" lon="-0.22097">
        <ele>77.63671875</ele>
      </trkpt>
      <trkpt lat="45.40304" lon="-0.22125">
        <ele>78.484375</ele>
      </trkpt>
      <trkpt lat="45.40295" lon="-0.22155">
        <ele>79.75390625</ele>
      </trkpt>
      <trkpt lat="45.40285" lon="-0.22192">
        <ele>81.58203125</ele>
      </trkpt>
      <trkpt lat="45.40275" lon="-0.22227">
        <ele>83.08984375</ele>
      </trkpt>
      <trkpt lat="45.40266" lon="-0.22258">
        <ele>84.23828125</ele>
      </trkpt>
      <trkpt lat="45.40256" lon="-0.22294">
        <ele>85.6640625</ele>
      </trkpt>
      <trkpt lat="45.40244" lon="-0.22321">
        <ele>86.8828125</ele>
      </trkpt>
      <trkpt lat="45.40225" lon="-0.22343">
        <ele>88.5625</ele>
      </trkpt>
      <trkpt lat="45.402" lon="-0.22364">
        <ele>90.59765625</ele>
      </trkpt>
      <trkpt lat="45.4017" lon="-0.2238">
        <ele>92.31640625</ele>
      </trkpt>
      <trkpt lat="45.40143" lon="-0.22402">
        <ele>93.6015625</ele>
      </trkpt>
      <trkpt lat="45.40115" lon="-0.22424">
        <ele>94.90625</ele>
      </trkpt>
      <trkpt lat="45.40088" lon="-0.22448">
        <ele>95.4296875</ele>
      </trkpt>
      <trkpt lat="45.40067" lon="-0.2247">
        <ele>95.29296875</ele>
      </trkpt>
      <trkpt lat="45.40052" lon="-0.22486">
        <ele>94.99609375</ele>
      </trkpt>
      <trkpt lat="45.40029" lon="-0.22506">
        <ele>94.02734375</ele>
      </trkpt>
      <trkpt lat="45.39999" lon="-0.22526">
        <ele>92.33203125</ele>
      </trkpt>
      <trkpt lat="45.39982" lon="-0.22536">
        <ele>91.19140625</ele>
      </trkpt>
      <trkpt lat="45.39971" lon="-0.22542">
        <ele>90.54296875</ele>
      </trkpt>
      <trkpt lat="45.39953" lon="-0.22554">
        <ele>90.33984375</ele>
      </trkpt>
      <trkpt lat="45.3994" lon="-0.22559">
        <ele>90.99609375</ele>
      </trkpt>
      <trkpt lat="45.39927" lon="-0.22566">
        <ele>91.74609375</ele>
      </trkpt>
      <trkpt lat="45.39901" lon="-0.22589">
        <ele>93.69921875</ele>
      </trkpt>
      <trkpt lat="45.39879" lon="-0.22611">
        <ele>94.88671875</ele>
      </trkpt>
      <trkpt lat="45.39857" lon="-0.2263">
        <ele>95.95703125</ele>
      </trkpt>
      <trkpt lat="45.39833" lon="-0.22649">
        <ele>96.8828125</ele>
      </trkpt>
      <trkpt lat="45.39811" lon="-0.2267">
        <ele>97.1875</ele>
      </trkpt>
      <trkpt lat="45.39786" lon="-0.22694">
        <ele>97.796875</ele>
      </trkpt>
      <trkpt lat="45.39776" lon="-0.22706">
        <ele>98.203125</ele>
      </trkpt>
      <trkpt lat="45.39768" lon="-0.22712">
        <ele>98.4609375</ele>
      </trkpt>
      <trkpt lat="45.39746" lon="-0.22728">
        <ele>99.1484375</ele>
      </trkpt>
      <trkpt lat="45.39725" lon="-0.22748">
        <ele>99.8828125</ele>
      </trkpt>
      <trkpt lat="45.39705" lon="-0.22766">
        <ele>100.49609375</ele>
      </trkpt>
      <trkpt lat="45.39675" lon="-0.2279">
        <ele>100.55859375</ele>
      </trkpt>
      <trkpt lat="45.39651" lon="-0.22804">
        <ele>100.64453125</ele>
      </trkpt>
      <trkpt lat="45.39631" lon="-0.22815">
        <ele>100.86328125</ele>
      </trkpt>
      <trkpt lat="45.39615" lon="-0.2282">
        <ele>101</ele>
      </trkpt>
      <trkpt lat="45.39608" lon="-0.22828">
        <ele>101</ele>
      </trkpt>
      <trkpt lat="45.39602" lon="-0.22833">
        <ele>101</ele>
      </trkpt>
      <trkpt lat="45.396" lon="-0.22847">
        <ele>101</ele>
      </trkpt>
      <trkpt lat="45.39601" lon="-0.22865">
        <ele>101</ele>
      </trkpt>
      <trkpt lat="45.39599" lon="-0.2289">
        <ele>101</ele>
      </trkpt>
      <trkpt lat="45.3957" lon="-0.22926">
        <ele>101</ele>
      </trkpt>
      <trkpt lat="45.39545" lon="-0.22972">
        <ele>100.25390625</ele>
      </trkpt>
      <trkpt lat="45.39519" lon="-0.23023">
        <ele>100</ele>
      </trkpt>
      <trkpt lat="45.3949" lon="-0.23094">
        <ele>100</ele>
      </trkpt>
      <trkpt lat="45.39468" lon="-0.23128">
        <ele>100</ele>
      </trkpt>
      <trkpt lat="45.39436" lon="-0.23136">
        <ele>100.36328125</ele>
      </trkpt>
      <trkpt lat="45.39414" lon="-0.23132">
        <ele>100.76953125</ele>
      </trkpt>
      <trkpt lat="45.39377" lon="-0.23132">
        <ele>101</ele>
      </trkpt>
      <trkpt lat="45.39333" lon="-0.2313">
        <ele>100.8671875</ele>
      </trkpt>
      <trkpt lat="45.39305" lon="-0.23122">
        <ele>100.671875</ele>
      </trkpt>
      <trkpt lat="45.39281" lon="-0.2312">
        <ele>100.4296875</ele>
      </trkpt>
      <trkpt lat="45.39263" lon="-0.23115">
        <ele>100.1875</ele>
      </trkpt>
      <trkpt lat="45.39222" lon="-0.23115">
        <ele>99.37890625</ele>
      </trkpt>
      <trkpt lat="45.3919" lon="-0.23114">
        <ele>98.67578125</ele>
      </trkpt>
      <trkpt lat="45.39166" lon="-0.23112">
        <ele>98.2109375</ele>
      </trkpt>
      <trkpt lat="45.39143" lon="-0.23122">
        <ele>97.44921875</ele>
      </trkpt>
      <trkpt lat="45.39117" lon="-0.23131">
        <ele>96.77734375</ele>
      </trkpt>
      <trkpt lat="45.39083" lon="-0.23146">
        <ele>96.234375</ele>
      </trkpt>
      <trkpt lat="45.39057" lon="-0.2316">
        <ele>95.56640625</ele>
      </trkpt>
      <trkpt lat="45.3903" lon="-0.23175">
        <ele>94.77734375</ele>
      </trkpt>
      <trkpt lat="45.39004" lon="-0.23197">
        <ele>94.046875</ele>
      </trkpt>
      <trkpt lat="45.38983" lon="-0.23218">
        <ele>93.12109375</ele>
      </trkpt>
      <trkpt lat="45.38962" lon="-0.23234">
        <ele>92.1484375</ele>
      </trkpt>
      <trkpt lat="45.38939" lon="-0.23249">
        <ele>91.13671875</ele>
      </trkpt>
      <trkpt lat="45.38919" lon="-0.23253">
        <ele>90.58984375</ele>
      </trkpt>
      <trkpt lat="45.38892" lon="-0.2328">
        <ele>89.46484375</ele>
      </trkpt>
      <trkpt lat="45.38867" lon="-0.23306">
        <ele>88.9375</ele>
      </trkpt>
      <trkpt lat="45.38849" lon="-0.23333">
        <ele>88.21875</ele>
      </trkpt>
      <trkpt lat="45.38828" lon="-0.2337">
        <ele>86.57421875</ele>
      </trkpt>
      <trkpt lat="45.38813" lon="-0.23392">
        <ele>85.79296875</ele>
      </trkpt>
      <trkpt lat="45.38786" lon="-0.23419">
        <ele>84.75390625</ele>
      </trkpt>
      <trkpt lat="45.3876" lon="-0.23448">
        <ele>84.27734375</ele>
      </trkpt>
      <trkpt lat="45.38742" lon="-0.23484">
        <ele>82.97265625</ele>
      </trkpt>
      <trkpt lat="45.38788" lon="-0.23485">
        <ele>82.08984375</ele>
      </trkpt>
      <trkpt lat="45.38825" lon="-0.23486">
        <ele>81.35546875</ele>
      </trkpt>
      <trkpt lat="45.38857" lon="-0.23488">
        <ele>80.921875</ele>
      </trkpt>
      <trkpt lat="45.38888" lon="-0.23491">
        <ele>80.8828125</ele>
      </trkpt>
      <trkpt lat="45.3891" lon="-0.2349">
        <ele>81.0859375</ele>
      </trkpt>
      <trkpt lat="45.3893" lon="-0.23491">
        <ele>81.48046875</ele>
      </trkpt>
      <trkpt lat="45.3895" lon="-0.23492">
        <ele>81.875</ele>
      </trkpt>
      <trkpt lat="45.38974" lon="-0.23493">
        <ele>82.34375</ele>
      </trkpt>
      <trkpt lat="45.38994" lon="-0.23492">
        <ele>82.7421875</ele>
      </trkpt>
      <trkpt lat="45.3901" lon="-0.23494">
        <ele>83.09765625</ele>
      </trkpt>
      <trkpt lat="45.3902" lon="-0.23495">
        <ele>83.30078125</ele>
      </trkpt>
      <trkpt lat="45.39033" lon="-0.23525">
        <ele>84.0859375</ele>
      </trkpt>
      <trkpt lat="45.3905" lon="-0.23566">
        <ele>85.88671875</ele>
      </trkpt>
      <trkpt lat="45.39061" lon="-0.23596">
        <ele>87.69140625</ele>
      </trkpt>
      <trkpt lat="45.39079" lon="-0.23636">
        <ele>89.66796875</ele>
      </trkpt>
      <trkpt lat="45.39086" lon="-0.23656">
        <ele>90.390625</ele>
      </trkpt>
      <trkpt lat="45.39095" lon="-0.2368">
        <ele>90.9921875</ele>
      </trkpt>
      <trkpt lat="45.39106" lon="-0.23708">
        <ele>91.6875</ele>
      </trkpt>
      <trkpt lat="45.39113" lon="-0.23733">
        <ele>92.1953125</ele>
      </trkpt>
      <trkpt lat="45.39126" lon="-0.23762">
        <ele>93.08984375</ele>
      </trkpt>
      <trkpt lat="45.39135" lon="-0.23786">
        <ele>93.43359375</ele>
      </trkpt>
      <trkpt lat="45.39149" lon="-0.23823">
        <ele>93.75390625</ele>
      </trkpt>
      <trkpt lat="45.39169" lon="-0.23868">
        <ele>92.87109375</ele>
      </trkpt>
      <trkpt lat="45.39178" lon="-0.23873">
        <ele>93.03515625</ele>
      </trkpt>
      <trkpt lat="45.39196" lon="-0.23903">
        <ele>90.96875</ele>
      </trkpt>
      <trkpt lat="45.39214" lon="-0.23929">
        <ele>89.06640625</ele>
      </trkpt>
      <trkpt lat="45.39232" lon="-0.23952">
        <ele>88.578125</ele>
      </trkpt>
      <trkpt lat="45.39257" lon="-0.23978">
        <ele>88.9296875</ele>
      </trkpt>
      <trkpt lat="45.39271" lon="-0.24001">
        <ele>89.32421875</ele>
      </trkpt>
      <trkpt lat="45.39279" lon="-0.2403">
        <ele>89.6015625</ele>
      </trkpt>
      <trkpt lat="45.39285" lon="-0.24072">
        <ele>90.39453125</ele>
      </trkpt>
      <trkpt lat="45.39292" lon="-0.24107">
        <ele>91.68359375</ele>
      </trkpt>
      <trkpt lat="45.39299" lon="-0.24138">
        <ele>93.78125</ele>
      </trkpt>
      <trkpt lat="45.39307" lon="-0.24165">
        <ele>95.140625</ele>
      </trkpt>
      <trkpt lat="45.39323" lon="-0.24187">
        <ele>96.39453125</ele>
      </trkpt>
      <trkpt lat="45.39338" lon="-0.24214">
        <ele>97.625</ele>
      </trkpt>
      <trkpt lat="45.39354" lon="-0.24237">
        <ele>98.25390625</ele>
      </trkpt>
      <trkpt lat="45.39374" lon="-0.24259">
        <ele>99</ele>
      </trkpt>
      <trkpt lat="45.39384" lon="-0.24264">
        <ele>99.3984375</ele>
      </trkpt>
      <trkpt lat="45.39391" lon="-0.24263">
        <ele>99.65234375</ele>
      </trkpt>
      <trkpt lat="45.39398" lon="-0.24257">
        <ele>99.7890625</ele>
      </trkpt>
      <trkpt lat="45.39402" lon="-0.2425">
        <ele>99.76953125</ele>
      </trkpt>
      <trkpt lat="45.39405" lon="-0.24237">
        <ele>99.5625</ele>
      </trkpt>
      <trkpt lat="45.39407" lon="-0.24231">
        <ele>99.49609375</ele>
      </trkpt>
      <trkpt lat="45.39411" lon="-0.24227">
        <ele>99.4765625</ele>
      </trkpt>
      <trkpt lat="45.39423" lon="-0.24222">
        <ele>99.546875</ele>
      </trkpt>
      <trkpt lat="45.39435" lon="-0.24217">
        <ele>99.68359375</ele>
      </trkpt>
      <trkpt lat="45.39443" lon="-0.24216">
        <ele>99.7890625</ele>
      </trkpt>
      <trkpt lat="45.39451" lon="-0.2422">
        <ele>99.92578125</ele>
      </trkpt>
      <trkpt lat="45.3946" lon="-0.24234">
        <ele>100</ele>
      </trkpt>
      <trkpt lat="45.39474" lon="-0.24254">
        <ele>100</ele>
      </trkpt>
      <trkpt lat="45.39485" lon="-0.24271">
        <ele>100.14453125</ele>
      </trkpt>
      <trkpt lat="45.39495" lon="-0.24286">
        <ele>100.4140625</ele>
      </trkpt>
      <trkpt lat="45.39505" lon="-0.243">
        <ele>100.65625</ele>
      </trkpt>
      <trkpt lat="45.39515" lon="-0.24315">
        <ele>100.88671875</ele>
      </trkpt>
      <trkpt lat="45.39521" lon="-0.24325">
        <ele>100.83203125</ele>
      </trkpt>
      <trkpt lat="45.39524" lon="-0.24328">
        <ele>100.78515625</ele>
      </trkpt>
      <trkpt lat="45.39515" lon="-0.24341">
        <ele>100.94140625</ele>
      </trkpt>
      <trkpt lat="45.39506" lon="-0.24351">
        <ele>101</ele>
      </trkpt>
      <trkpt lat="45.395" lon="-0.2436">
        <ele>101</ele>
      </trkpt>
      <trkpt lat="45.39495" lon="-0.24369">
        <ele>101</ele>
      </trkpt>
      <trkpt lat="45.39507" lon="-0.24379">
        <ele>100.9921875</ele>
      </trkpt>
      <trkpt lat="45.39522" lon="-0.24398">
        <ele>100.82421875</ele>
      </trkpt>
      <trkpt lat="45.39546" lon="-0.24432">
        <ele>100.37109375</ele>
      </trkpt>
      <trkpt lat="45.39558" lon="-0.24448">
        <ele>100.109375</ele>
      </trkpt>
      <trkpt lat="45.39569" lon="-0.24474">
        <ele>100</ele>
      </trkpt>
      <trkpt lat="45.39577" lon="-0.24494">
        <ele>99.69921875</ele>
      </trkpt>
      <trkpt lat="45.39586" lon="-0.24504">
        <ele>99.44140625</ele>
      </trkpt>
      <trkpt lat="45.39602" lon="-0.245">
        <ele>99.625</ele>
      </trkpt>
      <trkpt lat="45.39661" lon="-0.24464">
        <ele>99.58203125</ele>
      </trkpt>
      <trkpt lat="45.39678" lon="-0.24443">
        <ele>99.75390625</ele>
      </trkpt>
      <trkpt lat="45.39686" lon="-0.2443">
        <ele>99.984375</ele>
      </trkpt>
      <trkpt lat="45.39701" lon="-0.24413">
        <ele>100</ele>
      </trkpt>
      <trkpt lat="45.39714" lon="-0.24405">
        <ele>100</ele>
      </trkpt>
      <trkpt lat="45.39788" lon="-0.24375">
        <ele>99.984375</ele>
      </trkpt>
      <trkpt lat="45.39842" lon="-0.24341">
        <ele>99.05078125</ele>
      </trkpt>
      <trkpt lat="45.39869" lon="-0.2432">
        <ele>98.1328125</ele>
      </trkpt>
      <trkpt lat="45.39934" lon="-0.2429">
        <ele>95.79296875</ele>
      </trkpt>
      <trkpt lat="45.39948" lon="-0.24281">
        <ele>95.0234375</ele>
      </trkpt>
      <trkpt lat="45.39979" lon="-0.2423">
        <ele>92.59765625</ele>
      </trkpt>
      <trkpt lat="45.40006" lon="-0.24203">
        <ele>91.1171875</ele>
      </trkpt>
      <trkpt lat="45.40015" lon="-0.24196">
        <ele>90.59375</ele>
      </trkpt>
      <trkpt lat="45.40062" lon="-0.24189">
        <ele>87.64453125</ele>
      </trkpt>
      <trkpt lat="45.40068" lon="-0.24187">
        <ele>87.23046875</ele>
      </trkpt>
      <trkpt lat="45.40062" lon="-0.24356">
        <ele>91.2578125</ele>
      </trkpt>
      <trkpt lat="45.40049" lon="-0.24459">
        <ele>90.453125</ele>
      </trkpt>
      <trkpt lat="45.40031" lon="-0.24665">
        <ele>92.06640625</ele>
      </trkpt>
      <trkpt lat="45.40024" lon="-0.24708">
        <ele>92.578125</ele>
      </trkpt>
      <trkpt lat="45.4002" lon="-0.24717">
        <ele>92.7578125</ele>
      </trkpt>
      <trkpt lat="45.40016" lon="-0.24727">
        <ele>92.90625</ele>
      </trkpt>
      <trkpt lat="45.40009" lon="-0.24734">
        <ele>93.04296875</ele>
      </trkpt>
      <trkpt lat="45.40004" lon="-0.2474">
        <ele>93.12890625</ele>
      </trkpt>
      <trkpt lat="45.39997" lon="-0.24752">
        <ele>93.2578125</ele>
      </trkpt>
      <trkpt lat="45.39979" lon="-0.24807">
        <ele>94.390625</ele>
      </trkpt>
      <trkpt lat="45.39966" lon="-0.24852">
        <ele>94.8125</ele>
      </trkpt>
      <trkpt lat="45.39955" lon="-0.24882">
        <ele>95.171875</ele>
      </trkpt>
      <trkpt lat="45.39916" lon="-0.24962">
        <ele>97.16796875</ele>
      </trkpt>
      <trkpt lat="45.39908" lon="-0.24972">
        <ele>97.53125</ele>
      </trkpt>
      <trkpt lat="45.39901" lon="-0.24978">
        <ele>97.87890625</ele>
      </trkpt>
      <trkpt lat="45.39892" lon="-0.2498">
        <ele>97.91796875</ele>
      </trkpt>
      <trkpt lat="45.39879" lon="-0.24981">
        <ele>97.9375</ele>
      </trkpt>
      <trkpt lat="45.39818" lon="-0.2498">
        <ele>97.46875</ele>
      </trkpt>
      <trkpt lat="45.39805" lon="-0.24958">
        <ele>97.1484375</ele>
      </trkpt>
      <trkpt lat="45.3979" lon="-0.24979">
        <ele>97.00390625</ele>
      </trkpt>
      <trkpt lat="45.39719" lon="-0.25123">
        <ele>95.47265625</ele>
      </trkpt>
      <trkpt lat="45.39691" lon="-0.25184">
        <ele>95.04296875</ele>
      </trkpt>
      <trkpt lat="45.39682" lon="-0.25227">
        <ele>95.4765625</ele>
      </trkpt>
      <trkpt lat="45.39678" lon="-0.25272">
        <ele>96.140625</ele>
      </trkpt>
      <trkpt lat="45.39671" lon="-0.25287">
        <ele>96.23828125</ele>
      </trkpt>
      <trkpt lat="45.39582" lon="-0.25312">
        <ele>93.65234375</ele>
      </trkpt>
      <trkpt lat="45.39482" lon="-0.25345">
        <ele>93.484375</ele>
      </trkpt>
      <trkpt lat="45.39419" lon="-0.25357">
        <ele>94.1171875</ele>
      </trkpt>
      <trkpt lat="45.39378" lon="-0.25377">
        <ele>94.65234375</ele>
      </trkpt>
      <trkpt lat="45.39372" lon="-0.25412">
        <ele>95.1640625</ele>
      </trkpt>
      <trkpt lat="45.39351" lon="-0.25431">
        <ele>95.15234375</ele>
      </trkpt>
      <trkpt lat="45.39304" lon="-0.25449">
        <ele>93.875</ele>
      </trkpt>
      <trkpt lat="45.39266" lon="-0.25461">
        <ele>92.109375</ele>
      </trkpt>
      <trkpt lat="45.39246" lon="-0.25464">
        <ele>90.953125</ele>
      </trkpt>
      <trkpt lat="45.3923" lon="-0.25496">
        <ele>90.70703125</ele>
      </trkpt>
      <trkpt lat="45.3922" lon="-0.25519">
        <ele>89.984375</ele>
      </trkpt>
      <trkpt lat="45.39216" lon="-0.25539">
        <ele>89.66796875</ele>
      </trkpt>
      <trkpt lat="45.39216" lon="-0.25568">
        <ele>88.8203125</ele>
      </trkpt>
      <trkpt lat="45.39215" lon="-0.25605">
        <ele>88.01953125</ele>
      </trkpt>
      <trkpt lat="45.39213" lon="-0.2562">
        <ele>88</ele>
      </trkpt>
      <trkpt lat="45.39224" lon="-0.2565">
        <ele>88.609375</ele>
      </trkpt>
      <trkpt lat="45.39209" lon="-0.2571">
        <ele>90.6953125</ele>
      </trkpt>
      <trkpt lat="45.39193" lon="-0.25724">
        <ele>91.10546875</ele>
      </trkpt>
      <trkpt lat="45.39185" lon="-0.25727">
        <ele>91.1953125</ele>
      </trkpt>
      <trkpt lat="45.39175" lon="-0.25724">
        <ele>90.83203125</ele>
      </trkpt>
      <trkpt lat="45.39169" lon="-0.25727">
        <ele>90.8359375</ele>
      </trkpt>
      <trkpt lat="45.39166" lon="-0.25736">
        <ele>91.23046875</ele>
      </trkpt>
      <trkpt lat="45.39163" lon="-0.25756">
        <ele>92.1015625</ele>
      </trkpt>
      <trkpt lat="45.39146" lon="-0.2579">
        <ele>92.3359375</ele>
      </trkpt>
      <trkpt lat="45.39158" lon="-0.25814">
        <ele>93.19140625</ele>
      </trkpt>
      <trkpt lat="45.39165" lon="-0.25823">
        <ele>93.5078125</ele>
      </trkpt>
      <trkpt lat="45.3918" lon="-0.25833">
        <ele>94.00390625</ele>
      </trkpt>
      <trkpt lat="45.39187" lon="-0.2584">
        <ele>94.0546875</ele>
      </trkpt>
      <trkpt lat="45.39192" lon="-0.25842">
        <ele>94.10546875</ele>
      </trkpt>
      <trkpt lat="45.39169" lon="-0.25897">
        <ele>93.9140625</ele>
      </trkpt>
      <trkpt lat="45.39158" lon="-0.25934">
        <ele>93.515625</ele>
      </trkpt>
      <trkpt lat="45.39131" lon="-0.2604">
        <ele>92.4296875</ele>
      </trkpt>
      <trkpt lat="45.39108" lon="-0.2613">
        <ele>89.70703125</ele>
      </trkpt>
      <trkpt lat="45.39095" lon="-0.26186">
        <ele>86.359375</ele>
      </trkpt>
      <trkpt lat="45.39064" lon="-0.26311">
        <ele>81.1015625</ele>
      </trkpt>
      <trkpt lat="45.39046" lon="-0.26379">
        <ele>79.1796875</ele>
      </trkpt>
      <trkpt lat="45.39014" lon="-0.26388">
        <ele>79.44140625</ele>
      </trkpt>
      <trkpt lat="45.38931" lon="-0.2642">
        <ele>78.671875</ele>
      </trkpt>
      <trkpt lat="45.38857" lon="-0.26444">
        <ele>76.921875</ele>
      </trkpt>
      <trkpt lat="45.3882" lon="-0.26458">
        <ele>75.55078125</ele>
      </trkpt>
      <trkpt lat="45.38735" lon="-0.26485">
        <ele>71.98046875</ele>
      </trkpt>
      <trkpt lat="45.38721" lon="-0.2649">
        <ele>71.1015625</ele>
      </trkpt>
      <trkpt lat="45.38671" lon="-0.26509">
        <ele>68.41015625</ele>
      </trkpt>
      <trkpt lat="45.3867" lon="-0.26448">
        <ele>70.14453125</ele>
      </trkpt>
      <trkpt lat="45.38668" lon="-0.26365">
        <ele>71</ele>
      </trkpt>
      <trkpt lat="45.38668" lon="-0.26269">
        <ele>71</ele>
      </trkpt>
      <trkpt lat="45.38666" lon="-0.2625">
        <ele>70.79296875</ele>
      </trkpt>
      <trkpt lat="45.38646" lon="-0.26245">
        <ele>70.6875</ele>
      </trkpt>
      <trkpt lat="45.38579" lon="-0.26212">
        <ele>69.296875</ele>
      </trkpt>
      <trkpt lat="45.38539" lon="-0.26191">
        <ele>68.1953125</ele>
      </trkpt>
      <trkpt lat="45.38526" lon="-0.2618">
        <ele>67.76171875</ele>
      </trkpt>
      <trkpt lat="45.38519" lon="-0.2617">
        <ele>67.45703125</ele>
      </trkpt>
      <trkpt lat="45.38509" lon="-0.26151">
        <ele>66.86328125</ele>
      </trkpt>
      <trkpt lat="45.385" lon="-0.26143">
        <ele>66.43359375</ele>
      </trkpt>
      <trkpt lat="45.38487" lon="-0.26135">
        <ele>65.94140625</ele>
      </trkpt>
      <trkpt lat="45.38475" lon="-0.26136">
        <ele>65.55859375</ele>
      </trkpt>
      <trkpt lat="45.38455" lon="-0.26144">
        <ele>64.90625</ele>
      </trkpt>
      <trkpt lat="45.38451" lon="-0.26103">
        <ele>64.6640625</ele>
      </trkpt>
      <trkpt lat="45.3845" lon="-0.26085">
        <ele>64.44140625</ele>
      </trkpt>
      <trkpt lat="45.38448" lon="-0.26072">
        <ele>64.140625</ele>
      </trkpt>
      <trkpt lat="45.38428" lon="-0.26002">
        <ele>62.625</ele>
      </trkpt>
      <trkpt lat="45.38428" lon="-0.25965">
        <ele>62.31640625</ele>
      </trkpt>
      <trkpt lat="45.38429" lon="-0.25942">
        <ele>62.12109375</ele>
      </trkpt>
      <trkpt lat="45.38427" lon="-0.25899">
        <ele>61.4609375</ele>
      </trkpt>
      <trkpt lat="45.38405" lon="-0.25881">
        <ele>61.1328125</ele>
      </trkpt>
      <trkpt lat="45.3838" lon="-0.25865">
        <ele>60.51953125</ele>
      </trkpt>
      <trkpt lat="45.38359" lon="-0.25853">
        <ele>60.15234375</ele>
      </trkpt>
      <trkpt lat="45.3835" lon="-0.25851">
        <ele>60.046875</ele>
      </trkpt>
      <trkpt lat="45.38348" lon="-0.25829">
        <ele>60.0078125</ele>
      </trkpt>
      <trkpt lat="45.38338" lon="-0.25778">
        <ele>60</ele>
      </trkpt>
      <trkpt lat="45.38331" lon="-0.25738">
        <ele>60.1171875</ele>
      </trkpt>
      <trkpt lat="45.38294" lon="-0.25673">
        <ele>60.93359375</ele>
      </trkpt>
      <trkpt lat="45.38286" lon="-0.25648">
        <ele>61.16015625</ele>
      </trkpt>
      <trkpt lat="45.38267" lon="-0.25579">
        <ele>61.859375</ele>
      </trkpt>
      <trkpt lat="45.38248" lon="-0.25496">
        <ele>63.3046875</ele>
      </trkpt>
      <trkpt lat="45.38233" lon="-0.25388">
        <ele>63.0703125</ele>
      </trkpt>
      <trkpt lat="45.38226" lon="-0.25357">
        <ele>63.0390625</ele>
      </trkpt>
      <trkpt lat="45.38216" lon="-0.25334">
        <ele>62.953125</ele>
      </trkpt>
      <trkpt lat="45.38184" lon="-0.25288">
        <ele>63.3359375</ele>
      </trkpt>
      <trkpt lat="45.38156" lon="-0.25239">
        <ele>63.65625</ele>
      </trkpt>
      <trkpt lat="45.38139" lon="-0.25197">
        <ele>63.73046875</ele>
      </trkpt>
      <trkpt lat="45.38133" lon="-0.25175">
        <ele>63.83203125</ele>
      </trkpt>
      <trkpt lat="45.38131" lon="-0.2516">
        <ele>63.87890625</ele>
      </trkpt>
      <trkpt lat="45.38108" lon="-0.2512">
        <ele>64.41015625</ele>
      </trkpt>
      <trkpt lat="45.38085" lon="-0.25096">
        <ele>64.6953125</ele>
      </trkpt>
      <trkpt lat="45.38068" lon="-0.25074">
        <ele>65</ele>
      </trkpt>
      <trkpt lat="45.38058" lon="-0.25051">
        <ele>65.421875</ele>
      </trkpt>
      <trkpt lat="45.38052" lon="-0.25042">
        <ele>65.59765625</ele>
      </trkpt>
      <trkpt lat="45.38048" lon="-0.25036">
        <ele>65.7890625</ele>
      </trkpt>
      <trkpt lat="45.38028" lon="-0.25027">
        <ele>66.53515625</ele>
      </trkpt>
      <trkpt lat="45.37994" lon="-0.25016">
        <ele>67.546875</ele>
      </trkpt>
      <trkpt lat="45.37953" lon="-0.25008">
        <ele>68.50390625</ele>
      </trkpt>
      <trkpt lat="45.37911" lon="-0.24996">
        <ele>69.03515625</ele>
      </trkpt>
      <trkpt lat="45.37903" lon="-0.2499">
        <ele>69.07421875</ele>
      </trkpt>
      <trkpt lat="45.37904" lon="-0.24981">
        <ele>68.96875</ele>
      </trkpt>
      <trkpt lat="45.37918" lon="-0.24941">
        <ele>68.70703125</ele>
      </trkpt>
      <trkpt lat="45.3792" lon="-0.24932">
        <ele>68.6796875</ele>
      </trkpt>
      <trkpt lat="45.37903" lon="-0.24923">
        <ele>69.09765625</ele>
      </trkpt>
      <trkpt lat="45.37883" lon="-0.24916">
        <ele>69.56640625</ele>
      </trkpt>
      <trkpt lat="45.37863" lon="-0.24912">
        <ele>70.01171875</ele>
      </trkpt>
      <trkpt lat="45.37843" lon="-0.2491">
        <ele>70.35546875</ele>
      </trkpt>
      <trkpt lat="45.37822" lon="-0.24908">
        <ele>70.3828125</ele>
      </trkpt>
      <trkpt lat="45.37809" lon="-0.24909">
        <ele>70.37109375</ele>
      </trkpt>
      <trkpt lat="45.37786" lon="-0.24912">
        <ele>70.33984375</ele>
      </trkpt>
      <trkpt lat="45.37774" lon="-0.24914">
        <ele>70.36328125</ele>
      </trkpt>
      <trkpt lat="45.37757" lon="-0.24917">
        <ele>70.3671875</ele>
      </trkpt>
      <trkpt lat="45.37752" lon="-0.24915">
        <ele>70.44921875</ele>
      </trkpt>
      <trkpt lat="45.37745" lon="-0.24917">
        <ele>70.41796875</ele>
      </trkpt>
      <trkpt lat="45.37718" lon="-0.24914">
        <ele>70.8671875</ele>
      </trkpt>
      <trkpt lat="45.377" lon="-0.2491">
        <ele>71.31640625</ele>
      </trkpt>
      <trkpt lat="45.37678" lon="-0.24908">
        <ele>71.80859375</ele>
      </trkpt>
      <trkpt lat="45.37646" lon="-0.24911">
        <ele>72.26953125</ele>
      </trkpt>
      <trkpt lat="45.37631" lon="-0.24911">
        <ele>72.55078125</ele>
      </trkpt>
      <trkpt lat="45.37595" lon="-0.24913">
        <ele>72.7578125</ele>
      </trkpt>
      <trkpt lat="45.37564" lon="-0.24913">
        <ele>72.96875</ele>
      </trkpt>
      <trkpt lat="45.37538" lon="-0.24912">
        <ele>73.4921875</ele>
      </trkpt>
      <trkpt lat="45.37508" lon="-0.24914">
        <ele>73.85546875</ele>
      </trkpt>
      <trkpt lat="45.37487" lon="-0.24917">
        <ele>73.73828125</ele>
      </trkpt>
      <trkpt lat="45.37461" lon="-0.2492">
        <ele>73.6796875</ele>
      </trkpt>
      <trkpt lat="45.37434" lon="-0.24921">
        <ele>74.3359375</ele>
      </trkpt>
      <trkpt lat="45.37409" lon="-0.2492">
        <ele>75.13671875</ele>
      </trkpt>
      <trkpt lat="45.37389" lon="-0.24926">
        <ele>75.3515625</ele>
      </trkpt>
      <trkpt lat="45.37363" lon="-0.24931">
        <ele>75.6875</ele>
      </trkpt>
      <trkpt lat="45.37341" lon="-0.2494">
        <ele>76.1796875</ele>
      </trkpt>
      <trkpt lat="45.3732" lon="-0.24952">
        <ele>76.76171875</ele>
      </trkpt>
      <trkpt lat="45.37301" lon="-0.24963">
        <ele>77.13671875</ele>
      </trkpt>
      <trkpt lat="45.37296" lon="-0.24957">
        <ele>77.35546875</ele>
      </trkpt>
      <trkpt lat="45.37294" lon="-0.24945">
        <ele>77.6171875</ele>
      </trkpt>
      <trkpt lat="45.37297" lon="-0.24916">
        <ele>78.6875</ele>
      </trkpt>
      <trkpt lat="45.37298" lon="-0.24884">
        <ele>80.87109375</ele>
      </trkpt>
      <trkpt lat="45.37297" lon="-0.24799">
        <ele>85.359375</ele>
      </trkpt>
      <trkpt lat="45.37295" lon="-0.24755">
        <ele>86.64453125</ele>
      </trkpt>
      <trkpt lat="45.37297" lon="-0.24721">
        <ele>86.02734375</ele>
      </trkpt>
      <trkpt lat="45.37298" lon="-0.24686">
        <ele>85.37109375</ele>
      </trkpt>
      <trkpt lat="45.373" lon="-0.24649">
        <ele>84.640625</ele>
      </trkpt>
      <trkpt lat="45.37302" lon="-0.24624">
        <ele>84.19140625</ele>
      </trkpt>
      <trkpt lat="45.37298" lon="-0.24602">
        <ele>83.953125</ele>
      </trkpt>
      <trkpt lat="45.37284" lon="-0.24598">
        <ele>84.1640625</ele>
      </trkpt>
      <trkpt lat="45.37266" lon="-0.24597">
        <ele>84.4765625</ele>
      </trkpt>
      <trkpt lat="45.37256" lon="-0.24592">
        <ele>84.48046875</ele>
      </trkpt>
      <trkpt lat="45.37254" lon="-0.2458">
        <ele>84.0703125</ele>
      </trkpt>
      <trkpt lat="45.3726" lon="-0.24542">
        <ele>82.60546875</ele>
      </trkpt>
      <trkpt lat="45.37264" lon="-0.24516">
        <ele>81.828125</ele>
      </trkpt>
      <trkpt lat="45.37273" lon="-0.2448">
        <ele>80.84375</ele>
      </trkpt>
      <trkpt lat="45.37286" lon="-0.24426">
        <ele>79.02734375</ele>
      </trkpt>
      <trkpt lat="45.37289" lon="-0.24406">
        <ele>78.59765625</ele>
      </trkpt>
      <trkpt lat="45.37303" lon="-0.24386">
        <ele>78.21484375</ele>
      </trkpt>
      <trkpt lat="45.3733" lon="-0.24352">
        <ele>77.22265625</ele>
      </trkpt>
      <trkpt lat="45.37343" lon="-0.24327">
        <ele>76.29296875</ele>
      </trkpt>
      <trkpt lat="45.37357" lon="-0.24293">
        <ele>75.4375</ele>
      </trkpt>
      <trkpt lat="45.37391" lon="-0.24257">
        <ele>75.109375</ele>
      </trkpt>
      <trkpt lat="45.37399" lon="-0.24239">
        <ele>75.44140625</ele>
      </trkpt>
      <trkpt lat="45.37406" lon="-0.24205">
        <ele>76.19921875</ele>
      </trkpt>
      <trkpt lat="45.37411" lon="-0.24182">
        <ele>77.48046875</ele>
      </trkpt>
      <trkpt lat="45.37417" lon="-0.24176">
        <ele>77.828125</ele>
      </trkpt>
      <trkpt lat="45.37436" lon="-0.24172">
        <ele>78.12890625</ele>
      </trkpt>
      <trkpt lat="45.37455" lon="-0.24165">
        <ele>78.51171875</ele>
      </trkpt>
      <trkpt lat="45.37474" lon="-0.24154">
        <ele>78.9453125</ele>
      </trkpt>
      <trkpt lat="45.37491" lon="-0.2414">
        <ele>79.0859375</ele>
      </trkpt>
      <trkpt lat="45.37507" lon="-0.24108">
        <ele>79.0859375</ele>
      </trkpt>
      <trkpt lat="45.37514" lon="-0.24071">
        <ele>78.9765625</ele>
      </trkpt>
      <trkpt lat="45.37519" lon="-0.24024">
        <ele>78.85546875</ele>
      </trkpt>
      <trkpt lat="45.37523" lon="-0.23995">
        <ele>78.94140625</ele>
      </trkpt>
      <trkpt lat="45.37528" lon="-0.23956">
        <ele>79.67578125</ele>
      </trkpt>
      <trkpt lat="45.37532" lon="-0.2392">
        <ele>80.69921875</ele>
      </trkpt>
      <trkpt lat="45.37537" lon="-0.23889">
        <ele>81.91796875</ele>
      </trkpt>
      <trkpt lat="45.37542" lon="-0.23876">
        <ele>82.4453125</ele>
      </trkpt>
      <trkpt lat="45.37549" lon="-0.23875">
        <ele>82.6171875</ele>
      </trkpt>
      <trkpt lat="45.37558" lon="-0.2388">
        <ele>82.60546875</ele>
      </trkpt>
      <trkpt lat="45.37571" lon="-0.23891">
        <ele>82.43359375</ele>
      </trkpt>
      <trkpt lat="45.37583" lon="-0.23902">
        <ele>82.140625</ele>
      </trkpt>
      <trkpt lat="45.37596" lon="-0.23913">
        <ele>81.76171875</ele>
      </trkpt>
      <trkpt lat="45.37611" lon="-0.23922">
        <ele>81.37890625</ele>
      </trkpt>
      <trkpt lat="45.37627" lon="-0.2393">
        <ele>80.9921875</ele>
      </trkpt>
      <trkpt lat="45.3765" lon="-0.23934">
        <ele>80.78125</ele>
      </trkpt>
      <trkpt lat="45.37671" lon="-0.23936">
        <ele>80.67578125</ele>
      </trkpt>
      <trkpt lat="45.37696" lon="-0.23938">
        <ele>80.59375</ele>
      </trkpt>
      <trkpt lat="45.3772" lon="-0.23937">
        <ele>80.72265625</ele>
      </trkpt>
      <trkpt lat="45.3774" lon="-0.23935">
        <ele>80.73046875</ele>
      </trkpt>
      <trkpt lat="45.37759" lon="-0.2393">
        <ele>80.578125</ele>
      </trkpt>
      <trkpt lat="45.37771" lon="-0.2392">
        <ele>80.42578125</ele>
      </trkpt>
      <trkpt lat="45.37783" lon="-0.23921">
        <ele>80.15234375</ele>
      </trkpt>
      <trkpt lat="45.37803" lon="-0.2393">
        <ele>79.34375</ele>
      </trkpt>
      <trkpt lat="45.3783" lon="-0.2394">
        <ele>77.8515625</ele>
      </trkpt>
      <trkpt lat="45.37849" lon="-0.23946">
        <ele>76.87890625</ele>
      </trkpt>
      <trkpt lat="45.37869" lon="-0.23947">
        <ele>75.78515625</ele>
      </trkpt>
      <trkpt lat="45.379" lon="-0.23947">
        <ele>74.08203125</ele>
      </trkpt>
      <trkpt lat="45.37927" lon="-0.23944">
        <ele>72.28125</ele>
      </trkpt>
      <trkpt lat="45.37951" lon="-0.23936">
        <ele>70.578125</ele>
      </trkpt>
      <trkpt lat="45.37978" lon="-0.23927">
        <ele>69.26171875</ele>
      </trkpt>
      <trkpt lat="45.38019" lon="-0.23927">
        <ele>67.75390625</ele>
      </trkpt>
      <trkpt lat="45.38046" lon="-0.23925">
        <ele>66.7421875</ele>
      </trkpt>
      <trkpt lat="45.38074" lon="-0.2392">
        <ele>65.74609375</ele>
      </trkpt>
      <trkpt lat="45.38066" lon="-0.23878">
        <ele>65.19921875</ele>
      </trkpt>
      <trkpt lat="45.38053" lon="-0.23802">
        <ele>65.55078125</ele>
      </trkpt>
      <trkpt lat="45.38041" lon="-0.2372">
        <ele>66.38671875</ele>
      </trkpt>
      <trkpt lat="45.38032" lon="-0.23675">
        <ele>66.85546875</ele>
      </trkpt>
      <trkpt lat="45.38017" lon="-0.23656">
        <ele>66.99609375</ele>
      </trkpt>
      <trkpt lat="45.37999" lon="-0.23618">
        <ele>67.5859375</ele>
      </trkpt>
      <trkpt lat="45.37988" lon="-0.23574">
        <ele>67.87890625</ele>
      </trkpt>
      <trkpt lat="45.37968" lon="-0.23565">
        <ele>68.625</ele>
      </trkpt>
      <trkpt lat="45.37948" lon="-0.23557">
        <ele>69.62890625</ele>
      </trkpt>
      <trkpt lat="45.37925" lon="-0.23561">
        <ele>71.13671875</ele>
      </trkpt>
      <trkpt lat="45.37916" lon="-0.23537">
        <ele>71.10546875</ele>
        <time>2015-07-31T06:05:53Z</time>
      </trkpt>
      <trkpt lat="45.37891" lon="-0.23478">
        <ele>70.26953125</ele>
        <time>2015-07-31T06:05:57Z</time>
      </trkpt>
      <trkpt lat="45.37877" lon="-0.23448">
        <ele>70.22265625</ele>
        <time>2015-07-31T06:06:02Z</time>
      </trkpt>
      <trkpt lat="45.37865" lon="-0.2342">
        <ele>70.203125</ele>
        <time>2015-07-31T06:06:07Z</time>
      </trkpt>
      <trkpt lat="45.37855" lon="-0.23399">
        <ele>70.20703125</ele>
        <time>2015-07-31T06:06:09Z</time>
      </trkpt>
      <trkpt lat="45.37848" lon="-0.23383">
        <ele>70.12109375</ele>
        <time>2015-07-31T06:06:13Z</time>
      </trkpt>
      <trkpt lat="45.37834" lon="-0.23352">
        <ele>70.08984375</ele>
        <time>2015-07-31T06:06:19Z</time>
      </trkpt>
      <trkpt lat="45.37843" lon="-0.23341">
        <ele>70.0390625</ele>
        <time>2015-07-31T06:06:23Z</time>
      </trkpt>
      <trkpt lat="45.37872" lon="-0.23322">
        <ele>69.53125</ele>
        <time>2015-07-31T06:06:24Z</time>
      </trkpt>
      <trkpt lat="45.37896" lon="-0.23307">
        <ele>69.11328125</ele>
        <time>2015-07-31T06:06:30Z</time>
      </trkpt>
      <trkpt lat="45.37908" lon="-0.23298">
        <ele>68.88671875</ele>
        <time>2015-07-31T06:06:31Z</time>
      </trkpt>
      <trkpt lat="45.37918" lon="-0.23291">
        <ele>68.70703125</ele>
        <time>2015-07-31T06:06:39Z</time>
      </trkpt>
      <trkpt lat="45.37924" lon="-0.23288">
        <ele>68.59765625</ele>
        <time>2015-07-31T06:06:52Z</time>
      </trkpt>
      <trkpt lat="45.37938" lon="-0.23277">
        <ele>68.3515625</ele>
        <time>2015-07-31T06:06:56Z</time>
      </trkpt>
      <trkpt lat="45.3794" lon="-0.23272">
        <ele>68.30859375</ele>
        <time>2015-07-31T06:06:57Z</time>
      </trkpt>
      <trkpt lat="45.37941" lon="-0.23267">
        <ele>68.29296875</ele>
        <time>2015-07-31T06:06:58Z</time>
      </trkpt>
      <trkpt lat="45.37938" lon="-0.2323">
        <ele>68.7421875</ele>
        <time>2015-07-31T06:07:05Z</time>
      </trkpt>
      <trkpt lat="45.37941" lon="-0.23229">
        <ele>68.734375</ele>
        <time>2018-05-18T12:10:22Z</time>
      </trkpt>
      <trkpt lat="45.37927" lon="-0.23196">
        <ele>69</ele>
        <time>2018-05-18T12:10:29Z</time>
      </trkpt>
      <trkpt lat="45.37914" lon="-0.23161">
        <ele>69</ele>
        <time>2018-05-18T12:10:36Z</time>
      </trkpt>
      <trkpt lat="45.37901" lon="-0.23131">
        <ele>69.01171875</ele>
        <time>2018-05-18T12:10:42Z</time>
      </trkpt>
      <trkpt lat="45.3788" lon="-0.23088">
        <ele>69.39453125</ele>
        <time>2018-05-18T12:10:51Z</time>
      </trkpt>
      <trkpt lat="45.3785" lon="-0.23039">
        <ele>69.9296875</ele>
        <time>2018-05-18T12:11:01Z</time>
      </trkpt>
      <trkpt lat="45.37812" lon="-0.22987">
        <ele>70.61328125</ele>
        <time>2018-05-18T12:11:12Z</time>
      </trkpt>
      <trkpt lat="45.3781" lon="-0.22982">
        <ele>70.609375</ele>
        <time>2018-05-18T12:11:13Z</time>
      </trkpt>
      <trkpt lat="45.37808" lon="-0.22976">
        <ele>70.5625</ele>
        <time>2018-05-18T12:11:14Z</time>
      </trkpt>
      <trkpt lat="45.37808" lon="-0.2297">
        <ele>70.4921875</ele>
        <time>2018-05-18T12:11:15Z</time>
      </trkpt>
      <trkpt lat="45.37808" lon="-0.22964">
        <ele>70.40625</ele>
        <time>2018-05-18T12:11:16Z</time>
      </trkpt>
      <trkpt lat="45.37809" lon="-0.22957">
        <ele>70.32421875</ele>
        <time>2018-05-18T12:11:17Z</time>
      </trkpt>
      <trkpt lat="45.3781" lon="-0.22951">
        <ele>70.2421875</ele>
        <time>2018-05-18T12:11:18Z</time>
      </trkpt>
      <trkpt lat="45.37813" lon="-0.22938">
        <ele>70.08203125</ele>
        <time>2018-05-18T12:11:20Z</time>
      </trkpt>
      <trkpt lat="45.3782" lon="-0.22919">
        <ele>70.10546875</ele>
        <time>2018-05-18T12:11:23Z</time>
      </trkpt>
      <trkpt lat="45.3783" lon="-0.22869">
        <ele>71.0703125</ele>
        <time>2018-05-18T12:11:31Z</time>
      </trkpt>
      <trkpt lat="45.37831" lon="-0.22863">
        <ele>71.43359375</ele>
        <time>2018-05-18T12:11:32Z</time>
      </trkpt>
      <trkpt lat="45.37832" lon="-0.22857">
        <ele>71.7890625</ele>
        <time>2018-05-18T12:11:33Z</time>
      </trkpt>
      <trkpt lat="45.37838" lon="-0.22819">
        <ele>74.01171875</ele>
        <time>2018-05-18T12:11:41Z</time>
      </trkpt>
      <trkpt lat="45.37844" lon="-0.22789">
        <ele>75.1171875</ele>
        <time>2018-05-18T12:11:49Z</time>
      </trkpt>
      <trkpt lat="45.37845" lon="-0.22767">
        <ele>75.90625</ele>
        <time>2018-05-18T12:11:55Z</time>
      </trkpt>
      <trkpt lat="45.37843" lon="-0.22765">
        <ele>75.98046875</ele>
        <time>2018-05-18T12:11:56Z</time>
      </trkpt>
      <trkpt lat="45.37842" lon="-0.22763">
        <ele>76.00390625</ele>
        <time>2018-05-18T12:11:57Z</time>
      </trkpt>
      <trkpt lat="45.37817" lon="-0.22746">
        <ele>76.34375</ele>
        <time>2018-05-18T12:12:07Z</time>
      </trkpt>
      <trkpt lat="45.37787" lon="-0.22738">
        <ele>76.9140625</ele>
        <time>2018-05-18T12:12:17Z</time>
      </trkpt>
      <trkpt lat="45.37753" lon="-0.22727">
        <ele>77.1015625</ele>
        <time>2018-05-18T12:12:27Z</time>
      </trkpt>
      <trkpt lat="45.37717" lon="-0.22701">
        <ele>77.88671875</ele>
        <time>2018-05-18T12:12:38Z</time>
      </trkpt>
      <trkpt lat="45.37701" lon="-0.22675">
        <ele>78.7421875</ele>
        <time>2018-05-18T12:12:45Z</time>
      </trkpt>
      <trkpt lat="45.37681" lon="-0.22635">
        <ele>79.97265625</ele>
        <time>2018-05-18T12:12:55Z</time>
      </trkpt>
      <trkpt lat="45.37662" lon="-0.22597">
        <ele>79.68359375</ele>
        <time>2018-05-18T12:13:04Z</time>
      </trkpt>
      <trkpt lat="45.37637" lon="-0.22544">
        <ele>80.9296875</ele>
        <time>2018-05-18T12:13:16Z</time>
      </trkpt>
      <trkpt lat="45.37611" lon="-0.2249">
        <ele>81.44921875</ele>
        <time>2018-05-18T12:13:28Z</time>
      </trkpt>
      <trkpt lat="45.37598" lon="-0.2246">
        <ele>81.29296875</ele>
        <time>2018-05-18T12:13:34Z</time>
      </trkpt>
      <trkpt lat="45.37575" lon="-0.22387">
        <ele>81.8984375</ele>
        <time>2018-05-18T12:13:47Z</time>
      </trkpt>
      <trkpt lat="45.37551" lon="-0.22332">
        <ele>82.9453125</ele>
        <time>2018-05-18T12:13:58Z</time>
      </trkpt>
      <trkpt lat="45.37527" lon="-0.22277">
        <ele>83.86328125</ele>
        <time>2018-05-18T12:14:10Z</time>
      </trkpt>
      <trkpt lat="45.37524" lon="-0.22268">
        <ele>84.0859375</ele>
        <time>2018-05-18T12:14:12Z</time>
      </trkpt>
      <trkpt lat="45.37508" lon="-0.22225">
        <ele>84.38671875</ele>
        <time>2018-05-18T12:14:22Z</time>
      </trkpt>
      <trkpt lat="45.37495" lon="-0.22184">
        <ele>84.734375</ele>
        <time>2018-05-18T12:14:31Z</time>
      </trkpt>
      <trkpt lat="45.37482" lon="-0.22138">
        <ele>85.7421875</ele>
        <time>2018-05-18T12:14:41Z</time>
      </trkpt>
      <trkpt lat="45.37476" lon="-0.22094">
        <ele>86.73828125</ele>
        <time>2018-05-18T12:14:51Z</time>
      </trkpt>
      <trkpt lat="45.37471" lon="-0.22058">
        <ele>87.46875</ele>
        <time>2018-05-18T12:14:59Z</time>
      </trkpt>
      <trkpt lat="45.37469" lon="-0.22042">
        <ele>87.80078125</ele>
        <time>2018-05-18T12:15:02Z</time>
      </trkpt>
      <trkpt lat="45.37468" lon="-0.21978">
        <ele>87.67578125</ele>
        <time>2018-05-18T12:15:12Z</time>
      </trkpt>
      <trkpt lat="45.37469" lon="-0.21962">
        <ele>87.44921875</ele>
        <time>2018-05-18T12:15:14Z</time>
      </trkpt>
      <trkpt lat="45.37469" lon="-0.21879">
        <ele>86.2578125</ele>
        <time>2018-05-18T12:15:24Z</time>
      </trkpt>
      <trkpt lat="45.37475" lon="-0.21812">
        <ele>86.51171875</ele>
        <time>2018-05-18T12:15:33Z</time>
      </trkpt>
      <trkpt lat="45.3748" lon="-0.21753">
        <ele>88.53515625</ele>
        <time>2018-05-18T12:15:41Z</time>
      </trkpt>
      <trkpt lat="45.37481" lon="-0.21734">
        <ele>89.140625</ele>
        <time>2018-05-18T12:15:44Z</time>
      </trkpt>
      <trkpt lat="45.37483" lon="-0.21684">
        <ele>90.41015625</ele>
        <time>2018-05-18T12:15:52Z</time>
      </trkpt>
      <trkpt lat="45.37492" lon="-0.21633">
        <ele>91.37109375</ele>
        <time>2018-05-18T12:16:01Z</time>
      </trkpt>
      <trkpt lat="45.37494" lon="-0.21624">
        <ele>91.53515625</ele>
        <time>2018-05-18T12:16:03Z</time>
      </trkpt>
      <trkpt lat="45.37497" lon="-0.21621">
        <ele>91.58984375</ele>
        <time>2018-05-18T12:16:04Z</time>
      </trkpt>
      <trkpt lat="45.375" lon="-0.21619">
        <ele>91.61328125</ele>
        <time>2018-05-18T12:16:05Z</time>
      </trkpt>
      <trkpt lat="45.37503" lon="-0.2162">
        <ele>91.609375</ele>
        <time>2018-05-18T12:16:06Z</time>
      </trkpt>
      <trkpt lat="45.37506" lon="-0.2162">
        <ele>91.59765625</ele>
        <time>2018-05-18T12:16:07Z</time>
      </trkpt>
      <trkpt lat="45.3751" lon="-0.21619">
        <ele>91.62109375</ele>
        <time>2018-05-18T12:16:08Z</time>
      </trkpt>
      <trkpt lat="45.37512" lon="-0.21616">
        <ele>91.671875</ele>
        <time>2018-05-18T12:16:09Z</time>
      </trkpt>
      <trkpt lat="45.37515" lon="-0.21613">
        <ele>91.70703125</ele>
        <time>2018-05-18T12:16:10Z</time>
      </trkpt>
      <trkpt lat="45.37529" lon="-0.2159">
        <ele>91.859375</ele>
        <time>2018-05-18T12:16:16Z</time>
      </trkpt>
      <trkpt lat="45.37558" lon="-0.21556">
        <ele>91.9609375</ele>
        <time>2018-05-18T12:16:25Z</time>
      </trkpt>
      <trkpt lat="45.37586" lon="-0.21529">
        <ele>92.62890625</ele>
        <time>2018-05-18T12:16:33Z</time>
      </trkpt>
      <trkpt lat="45.37616" lon="-0.21491">
        <ele>94.5625</ele>
        <time>2018-05-18T12:16:42Z</time>
      </trkpt>
      <trkpt lat="45.37647" lon="-0.21441">
        <ele>96.2421875</ele>
        <time>2018-05-18T12:16:53Z</time>
      </trkpt>
      <trkpt lat="45.37662" lon="-0.21405">
        <ele>97.640625</ele>
        <time>2018-05-18T12:17:01Z</time>
      </trkpt>
      <trkpt lat="45.37676" lon="-0.21361">
        <ele>99.46875</ele>
        <time>2018-05-18T12:17:11Z</time>
      </trkpt>
      <trkpt lat="45.3769" lon="-0.21326">
        <ele>100.98828125</ele>
        <time>2018-05-18T12:17:20Z</time>
      </trkpt>
      <trkpt lat="45.37707" lon="-0.21286">
        <ele>103.0234375</ele>
        <time>2018-05-18T12:17:31Z</time>
      </trkpt>
      <trkpt lat="45.37717" lon="-0.21254">
        <ele>104.1875</ele>
        <time>2018-05-18T12:17:40Z</time>
      </trkpt>
      <trkpt lat="45.37725" lon="-0.21214">
        <ele>104.90625</ele>
        <time>2018-05-18T12:17:51Z</time>
      </trkpt>
      <trkpt lat="45.37728" lon="-0.21178">
        <ele>104.58984375</ele>
        <time>2018-05-18T12:18:00Z</time>
      </trkpt>
      <trkpt lat="45.37729" lon="-0.21159">
        <ele>104.3046875</ele>
        <time>2018-05-18T12:18:04Z</time>
      </trkpt>
      <trkpt lat="45.37732" lon="-0.21141">
        <ele>103.87109375</ele>
        <time>2018-05-18T12:18:07Z</time>
      </trkpt>
      <trkpt lat="45.37736" lon="-0.21127">
        <ele>103.46484375</ele>
        <time>2018-05-18T12:18:09Z</time>
      </trkpt>
      <trkpt lat="45.3775" lon="-0.21087">
        <ele>102.25</ele>
        <time>2018-05-18T12:18:14Z</time>
      </trkpt>
      <trkpt lat="45.37754" lon="-0.21079">
        <ele>101.98828125</ele>
        <time>2018-05-18T12:18:15Z</time>
      </trkpt>
      <trkpt lat="45.3776" lon="-0.21061">
        <ele>101.4453125</ele>
        <time>2018-05-18T12:18:18Z</time>
      </trkpt>
      <trkpt lat="45.37759" lon="-0.21057">
        <ele>101.40625</ele>
        <time>2018-05-18T12:18:19Z</time>
      </trkpt>
      <trkpt lat="45.37757" lon="-0.21055">
        <ele>101.44140625</ele>
        <time>2018-05-18T12:18:20Z</time>
      </trkpt>
      <trkpt lat="45.3775" lon="-0.2105">
        <ele>101.59375</ele>
        <time>2018-05-18T12:18:22Z</time>
      </trkpt>
      <trkpt lat="45.37727" lon="-0.21034">
        <ele>102.30859375</ele>
        <time>2018-05-18T12:18:29Z</time>
      </trkpt>
      <trkpt lat="45.37697" lon="-0.21021">
        <ele>103.375</ele>
        <time>2018-05-18T12:18:38Z</time>
      </trkpt>
      <trkpt lat="45.37667" lon="-0.21013">
        <ele>104.58203125</ele>
        <time>2018-05-18T12:18:47Z</time>
      </trkpt>
      <trkpt lat="45.37639" lon="-0.21001">
        <ele>105.671875</ele>
        <time>2018-05-18T12:18:55Z</time>
      </trkpt>
      <trkpt lat="45.37619" lon="-0.20992">
        <ele>106.33203125</ele>
        <time>2018-05-18T12:19:01Z</time>
      </trkpt>
      <trkpt lat="45.37596" lon="-0.20978">
        <ele>107.47265625</ele>
        <time>2018-05-18T12:19:08Z</time>
      </trkpt>
      <trkpt lat="45.37573" lon="-0.20966">
        <ele>108.72265625</ele>
        <time>2018-05-18T12:19:15Z</time>
      </trkpt>
      <trkpt lat="45.37548" lon="-0.2095">
        <ele>109.4921875</ele>
        <time>2018-05-18T12:19:23Z</time>
      </trkpt>
      <trkpt lat="45.3752" lon="-0.20924">
        <ele>110.48046875</ele>
        <time>2018-05-18T12:19:32Z</time>
      </trkpt>
      <trkpt lat="45.37517" lon="-0.20921">
        <ele>110.47265625</ele>
        <time>2018-05-18T12:19:33Z</time>
      </trkpt>
      <trkpt lat="45.37514" lon="-0.20918">
        <ele>110.48828125</ele>
        <time>2018-05-18T12:19:34Z</time>
      </trkpt>
      <trkpt lat="45.37511" lon="-0.20915">
        <ele>110.39453125</ele>
        <time>2018-05-18T12:19:35Z</time>
      </trkpt>
      <trkpt lat="45.37507" lon="-0.20912">
        <ele>110.2734375</ele>
        <time>2018-05-18T12:19:36Z</time>
      </trkpt>
      <trkpt lat="45.37486" lon="-0.20885">
        <ele>109.65234375</ele>
        <time>2018-05-18T12:19:43Z</time>
      </trkpt>
      <trkpt lat="45.37467" lon="-0.20867">
        <ele>109.6328125</ele>
        <time>2018-05-18T12:19:49Z</time>
      </trkpt>
      <trkpt lat="45.37464" lon="-0.20866">
        <ele>109.6796875</ele>
        <time>2018-05-18T12:19:50Z</time>
      </trkpt>
      <trkpt lat="45.3746" lon="-0.20864">
        <ele>109.734375</ele>
        <time>2018-05-18T12:19:51Z</time>
      </trkpt>
      <trkpt lat="45.37443" lon="-0.20856">
        <ele>109.8828125</ele>
        <time>2018-05-18T12:19:55Z</time>
      </trkpt>
      <trkpt lat="45.3744" lon="-0.20852">
        <ele>109.89453125</ele>
        <time>2018-05-18T12:19:56Z</time>
      </trkpt>
      <trkpt lat="45.37436" lon="-0.20849">
        <ele>109.89453125</ele>
        <time>2018-05-18T12:19:57Z</time>
      </trkpt>
      <trkpt lat="45.37432" lon="-0.20844">
        <ele>109.87890625</ele>
        <time>2018-05-18T12:19:58Z</time>
      </trkpt>
      <trkpt lat="45.37429" lon="-0.2084">
        <ele>109.8515625</ele>
        <time>2018-05-18T12:19:59Z</time>
      </trkpt>
      <trkpt lat="45.37408" lon="-0.20812">
        <ele>109.5859375</ele>
        <time>2018-05-18T12:20:05Z</time>
      </trkpt>
      <trkpt lat="45.37383" lon="-0.20779">
        <ele>109.08203125</ele>
        <time>2018-05-18T12:20:12Z</time>
      </trkpt>
      <trkpt lat="45.37379" lon="-0.20774">
        <ele>109.07421875</ele>
        <time>2018-05-18T12:20:13Z</time>
      </trkpt>
      <trkpt lat="45.37375" lon="-0.2077">
        <ele>109.10546875</ele>
        <time>2018-05-18T12:20:14Z</time>
      </trkpt>
      <trkpt lat="45.37371" lon="-0.20767">
        <ele>109.171875</ele>
        <time>2018-05-18T12:20:15Z</time>
      </trkpt>
      <trkpt lat="45.37367" lon="-0.20765">
        <ele>109.25390625</ele>
        <time>2018-05-18T12:20:16Z</time>
      </trkpt>
      <trkpt lat="45.37362" lon="-0.20762">
        <ele>109.33203125</ele>
        <time>2018-05-18T12:20:17Z</time>
      </trkpt>
      <trkpt lat="45.37352" lon="-0.20759">
        <ele>109.57421875</ele>
        <time>2018-05-18T12:20:19Z</time>
      </trkpt>
      <trkpt lat="45.37312" lon="-0.20743">
        <ele>110.69140625</ele>
        <time>2018-05-18T12:20:27Z</time>
      </trkpt>
      <trkpt lat="45.37279" lon="-0.20711">
        <ele>111.69140625</ele>
        <time>2018-05-18T12:20:35Z</time>
      </trkpt>
      <trkpt lat="45.37275" lon="-0.20706">
        <ele>111.8671875</ele>
        <time>2018-05-18T12:20:36Z</time>
      </trkpt>
      <trkpt lat="45.37269" lon="-0.20695">
        <ele>112.2734375</ele>
        <time>2018-05-18T12:20:38Z</time>
      </trkpt>
      <trkpt lat="45.37267" lon="-0.20689">
        <ele>112.47265625</ele>
        <time>2018-05-18T12:20:39Z</time>
      </trkpt>
      <trkpt lat="45.37251" lon="-0.20644">
        <ele>114.05078125</ele>
        <time>2018-05-18T12:20:46Z</time>
      </trkpt>
      <trkpt lat="45.37248" lon="-0.20639">
        <ele>114.37109375</ele>
        <time>2018-05-18T12:20:47Z</time>
      </trkpt>
      <trkpt lat="45.37241" lon="-0.20629">
        <ele>115.046875</ele>
        <time>2018-05-18T12:20:49Z</time>
      </trkpt>
      <trkpt lat="45.37238" lon="-0.20625">
        <ele>115.375</ele>
        <time>2018-05-18T12:20:50Z</time>
      </trkpt>
      <trkpt lat="45.37234" lon="-0.20621">
        <ele>115.6328125</ele>
        <time>2018-05-18T12:20:51Z</time>
      </trkpt>
      <trkpt lat="45.37222" lon="-0.20602">
        <ele>116.19921875</ele>
        <time>2018-05-18T12:20:55Z</time>
      </trkpt>
      <trkpt lat="45.37217" lon="-0.20592">
        <ele>116.2890625</ele>
        <time>2018-05-18T12:20:57Z</time>
      </trkpt>
      <trkpt lat="45.37215" lon="-0.20586">
        <ele>116.30078125</ele>
        <time>2018-05-18T12:20:58Z</time>
      </trkpt>
      <trkpt lat="45.3721" lon="-0.2057">
        <ele>116.40234375</ele>
        <time>2018-05-18T12:21:01Z</time>
      </trkpt>
      <trkpt lat="45.37207" lon="-0.20559">
        <ele>116.5234375</ele>
        <time>2018-05-18T12:21:03Z</time>
      </trkpt>
      <trkpt lat="45.37197" lon="-0.20506">
        <ele>118.24609375</ele>
        <time>2018-05-18T12:21:13Z</time>
      </trkpt>
      <trkpt lat="45.37187" lon="-0.20453">
        <ele>120.1953125</ele>
        <time>2018-05-18T12:21:23Z</time>
      </trkpt>
      <trkpt lat="45.37192" lon="-0.20429">
        <ele>120.41015625</ele>
        <time>2018-05-18T12:21:28Z</time>
      </trkpt>
      <trkpt lat="45.37195" lon="-0.20425">
        <ele>120.33984375</ele>
        <time>2018-05-18T12:21:29Z</time>
      </trkpt>
      <trkpt lat="45.37204" lon="-0.2041">
        <ele>120.265625</ele>
        <time>2018-05-18T12:21:33Z</time>
      </trkpt>
      <trkpt lat="45.37204" lon="-0.20406">
        <ele>120.36328125</ele>
        <time>2018-05-18T12:21:34Z</time>
      </trkpt>
      <trkpt lat="45.37204" lon="-0.20403">
        <ele>120.484375</ele>
        <time>2018-05-18T12:21:35Z</time>
      </trkpt>
      <trkpt lat="45.37202" lon="-0.20399">
        <ele>120.6328125</ele>
        <time>2018-05-18T12:21:36Z</time>
      </trkpt>
      <trkpt lat="45.372" lon="-0.20396">
        <ele>120.8046875</ele>
        <time>2018-05-18T12:21:37Z</time>
      </trkpt>
      <trkpt lat="45.37198" lon="-0.20393">
        <ele>120.9609375</ele>
        <time>2018-05-18T12:21:38Z</time>
      </trkpt>
      <trkpt lat="45.37196" lon="-0.2039">
        <ele>121.109375</ele>
        <time>2018-05-18T12:21:39Z</time>
      </trkpt>
      <trkpt lat="45.37189" lon="-0.20366">
        <ele>121.8984375</ele>
        <time>2018-05-18T12:21:46Z</time>
      </trkpt>
      <trkpt lat="45.3718" lon="-0.20338">
        <ele>122.69140625</ele>
        <time>2018-05-18T12:21:53Z</time>
      </trkpt>
      <trkpt lat="45.37167" lon="-0.20322">
        <ele>123.21484375</ele>
        <time>2018-05-18T12:21:58Z</time>
      </trkpt>
      <trkpt lat="45.3715" lon="-0.20314">
        <ele>123.53125</ele>
        <time>2018-05-18T12:22:04Z</time>
      </trkpt>
      <trkpt lat="45.37128" lon="-0.20312">
        <ele>123.94140625</ele>
        <time>2018-05-18T12:22:11Z</time>
      </trkpt>
      <trkpt lat="45.37107" lon="-0.20311">
        <ele>124.93359375</ele>
        <time>2018-05-18T12:22:17Z</time>
      </trkpt>
      <trkpt lat="45.37082" lon="-0.2031">
        <ele>126.30078125</ele>
        <time>2018-05-18T12:22:24Z</time>
      </trkpt>
      <trkpt lat="45.37057" lon="-0.20305">
        <ele>127.73046875</ele>
        <time>2018-05-18T12:22:31Z</time>
      </trkpt>
      <trkpt lat="45.37027" lon="-0.20303">
        <ele>129.50390625</ele>
        <time>2018-05-18T12:22:40Z</time>
      </trkpt>
      <trkpt lat="45.37003" lon="-0.20302">
        <ele>130.6484375</ele>
        <time>2018-05-18T12:22:48Z</time>
      </trkpt>
      <trkpt lat="45.36979" lon="-0.20302">
        <ele>131.38671875</ele>
        <time>2018-05-18T12:22:56Z</time>
      </trkpt>
      <trkpt lat="45.36958" lon="-0.203">
        <ele>132.15234375</ele>
        <time>2018-05-18T12:23:04Z</time>
      </trkpt>
      <trkpt lat="45.36942" lon="-0.20295">
        <ele>133.54296875</ele>
        <time>2018-05-18T12:23:10Z</time>
      </trkpt>
      <trkpt lat="45.3692" lon="-0.20291">
        <ele>135.3515625</ele>
        <time>2018-05-18T12:23:18Z</time>
      </trkpt>
      <trkpt lat="45.36903" lon="-0.20286">
        <ele>136.890625</ele>
        <time>2018-05-18T12:23:25Z</time>
      </trkpt>
      <trkpt lat="45.3689" lon="-0.20278">
        <ele>138.4453125</ele>
        <time>2018-05-18T12:23:33Z</time>
      </trkpt>
      <trkpt lat="45.36888" lon="-0.20277">
        <ele>138.66796875</ele>
        <time>2018-05-18T12:23:34Z</time>
      </trkpt>
      <trkpt lat="45.36886" lon="-0.20275">
        <ele>138.91796875</ele>
        <time>2018-05-18T12:23:35Z</time>
      </trkpt>
      <trkpt lat="45.36885" lon="-0.20273">
        <ele>139.1640625</ele>
        <time>2018-05-18T12:23:36Z</time>
      </trkpt>
      <trkpt lat="45.36883" lon="-0.20272">
        <ele>139.41015625</ele>
        <time>2018-05-18T12:23:37Z</time>
      </trkpt>
      <trkpt lat="45.36881" lon="-0.2027">
        <ele>139.64453125</ele>
        <time>2018-05-18T12:23:38Z</time>
      </trkpt>
      <trkpt lat="45.36879" lon="-0.20268">
        <ele>139.90625</ele>
        <time>2018-05-18T12:23:39Z</time>
      </trkpt>
      <trkpt lat="45.36868" lon="-0.20259">
        <ele>141.296875</ele>
        <time>2018-05-18T12:23:46Z</time>
      </trkpt>
      <trkpt lat="45.36855" lon="-0.20249">
        <ele>142.83203125</ele>
        <time>2018-05-18T12:23:54Z</time>
      </trkpt>
      <trkpt lat="45.36837" lon="-0.2024">
        <ele>144.56640625</ele>
        <time>2018-05-18T12:24:04Z</time>
      </trkpt>
      <trkpt lat="45.36821" lon="-0.20235">
        <ele>145.78515625</ele>
        <time>2018-05-18T12:24:13Z</time>
      </trkpt>
      <trkpt lat="45.36815" lon="-0.20233">
        <ele>146.19921875</ele>
        <time>2018-05-18T12:24:20Z</time>
      </trkpt>
      <trkpt lat="45.36798" lon="-0.20225">
        <ele>147.75</ele>
        <time>2018-05-18T12:24:27Z</time>
      </trkpt>
      <trkpt lat="45.36772" lon="-0.20211">
        <ele>148.58203125</ele>
        <time>2018-05-18T12:24:36Z</time>
      </trkpt>
      <trkpt lat="45.36746" lon="-0.20195">
        <ele>148.44921875</ele>
        <time>2018-05-18T12:24:44Z</time>
      </trkpt>
      <trkpt lat="45.36742" lon="-0.20193">
        <ele>148.40625</ele>
        <time>2018-05-18T12:24:45Z</time>
      </trkpt>
      <trkpt lat="45.36737" lon="-0.20191">
        <ele>148.3671875</ele>
        <time>2018-05-18T12:24:46Z</time>
      </trkpt>
      <trkpt lat="45.36733" lon="-0.20188">
        <ele>148.18359375</ele>
        <time>2018-05-18T12:24:47Z</time>
      </trkpt>
      <trkpt lat="45.36729" lon="-0.20184">
        <ele>147.95703125</ele>
        <time>2018-05-18T12:24:48Z</time>
      </trkpt>
      <trkpt lat="45.36725" lon="-0.2018">
        <ele>147.77734375</ele>
        <time>2018-05-18T12:24:49Z</time>
      </trkpt>
      <trkpt lat="45.36721" lon="-0.20175">
        <ele>147.64453125</ele>
        <time>2018-05-18T12:24:50Z</time>
      </trkpt>
      <trkpt lat="45.36714" lon="-0.20165">
        <ele>147.50390625</ele>
        <time>2018-05-18T12:24:52Z</time>
      </trkpt>
      <trkpt lat="45.36695" lon="-0.20133">
        <ele>147.1796875</ele>
        <time>2018-05-18T12:24:58Z</time>
      </trkpt>
      <trkpt lat="45.36691" lon="-0.20129">
        <ele>147.015625</ele>
        <time>2018-05-18T12:24:59Z</time>
      </trkpt>
      <trkpt lat="45.36686" lon="-0.20126">
        <ele>146.82421875</ele>
        <time>2018-05-18T12:25:00Z</time>
      </trkpt>
      <trkpt lat="45.36682" lon="-0.20121">
        <ele>146.68359375</ele>
        <time>2018-05-18T12:25:01Z</time>
      </trkpt>
      <trkpt lat="45.36679" lon="-0.20115">
        <ele>146.62890625</ele>
        <time>2018-05-18T12:25:02Z</time>
      </trkpt>
      <trkpt lat="45.36677" lon="-0.20108">
        <ele>146.6328125</ele>
        <time>2018-05-18T12:25:03Z</time>
      </trkpt>
      <trkpt lat="45.3667" lon="-0.20085">
        <ele>146.94140625</ele>
        <time>2018-05-18T12:25:07Z</time>
      </trkpt>
      <trkpt lat="45.36647" lon="-0.20028">
        <ele>147.4921875</ele>
        <time>2018-05-18T12:25:17Z</time>
      </trkpt>
      <trkpt lat="45.36629" lon="-0.19985">
        <ele>147.27734375</ele>
        <time>2018-05-18T12:25:24Z</time>
      </trkpt>
      <trkpt lat="45.36604" lon="-0.19938">
        <ele>147.171875</ele>
        <time>2018-05-18T12:25:32Z</time>
      </trkpt>
      <trkpt lat="45.36574" lon="-0.19903">
        <ele>146.71875</ele>
        <time>2018-05-18T12:25:39Z</time>
      </trkpt>
      <trkpt lat="45.36533" lon="-0.19868">
        <ele>147.11328125</ele>
        <time>2018-05-18T12:25:48Z</time>
      </trkpt>
      <trkpt lat="45.36491" lon="-0.19838">
        <ele>146.4765625</ele>
        <time>2018-05-18T12:25:56Z</time>
      </trkpt>
      <trkpt lat="45.36471" lon="-0.19824">
        <ele>146.1875</ele>
        <time>2018-05-18T12:26:00Z</time>
      </trkpt>
      <trkpt lat="45.36467" lon="-0.19825">
        <ele>146.1015625</ele>
        <time>2018-05-18T12:26:01Z</time>
      </trkpt>
      <trkpt lat="45.36465" lon="-0.1983">
        <ele>145.98046875</ele>
        <time>2018-05-18T12:26:02Z</time>
      </trkpt>
      <trkpt lat="45.36464" lon="-0.19837">
        <ele>145.84765625</ele>
        <time>2018-05-18T12:26:03Z</time>
      </trkpt>
      <trkpt lat="45.36463" lon="-0.19845">
        <ele>145.7109375</ele>
        <time>2018-05-18T12:26:04Z</time>
      </trkpt>
      <trkpt lat="45.36464" lon="-0.19853">
        <ele>145.578125</ele>
        <time>2018-05-18T12:26:05Z</time>
      </trkpt>
      <trkpt lat="45.36464" lon="-0.19861">
        <ele>145.44140625</ele>
        <time>2018-05-18T12:26:06Z</time>
      </trkpt>
      <trkpt lat="45.36463" lon="-0.1987">
        <ele>145.296875</ele>
        <time>2018-05-18T12:26:07Z</time>
      </trkpt>
      <trkpt lat="45.36459" lon="-0.19952">
        <ele>143.66015625</ele>
        <time>2018-05-18T12:26:16Z</time>
      </trkpt>
      <trkpt lat="45.36454" lon="-0.20042">
        <ele>141.7890625</ele>
        <time>2018-05-18T12:26:25Z</time>
      </trkpt>
      <trkpt lat="45.36452" lon="-0.20075">
        <ele>140.0859375</ele>
        <time>2018-05-18T12:26:28Z</time>
      </trkpt>
      <trkpt lat="45.36448" lon="-0.20133">
        <ele>137.109375</ele>
        <time>2018-05-18T12:26:33Z</time>
      </trkpt>
      <trkpt lat="45.36447" lon="-0.20195">
        <ele>135.13671875</ele>
        <time>2018-05-18T12:26:38Z</time>
      </trkpt>
      <trkpt lat="45.3645" lon="-0.20221">
        <ele>134.29296875</ele>
        <time>2018-05-18T12:26:40Z</time>
      </trkpt>
      <trkpt lat="45.36454" lon="-0.20247">
        <ele>132.96875</ele>
        <time>2018-05-18T12:26:42Z</time>
      </trkpt>
      <trkpt lat="45.36463" lon="-0.20308">
        <ele>130.30078125</ele>
        <time>2018-05-18T12:26:47Z</time>
      </trkpt>
      <trkpt lat="45.36466" lon="-0.20319">
        <ele>129.80078125</ele>
        <time>2018-05-18T12:26:48Z</time>
      </trkpt>
      <trkpt lat="45.36484" lon="-0.20379">
        <ele>127.04296875</ele>
        <time>2018-05-18T12:26:54Z</time>
      </trkpt>
      <trkpt lat="45.36486" lon="-0.20388">
        <ele>126.60546875</ele>
        <time>2018-05-18T12:26:55Z</time>
      </trkpt>
      <trkpt lat="45.36486" lon="-0.20398">
        <ele>126.2265625</ele>
        <time>2018-05-18T12:26:56Z</time>
      </trkpt>
      <trkpt lat="45.36486" lon="-0.20407">
        <ele>125.9140625</ele>
        <time>2018-05-18T12:26:57Z</time>
      </trkpt>
      <trkpt lat="45.36485" lon="-0.20416">
        <ele>125.63671875</ele>
        <time>2018-05-18T12:26:58Z</time>
      </trkpt>
      <trkpt lat="45.36484" lon="-0.20425">
        <ele>125.40625</ele>
        <time>2018-05-18T12:26:59Z</time>
      </trkpt>
      <trkpt lat="45.36483" lon="-0.20434">
        <ele>125.12890625</ele>
        <time>2018-05-18T12:27:00Z</time>
      </trkpt>
      <trkpt lat="45.36483" lon="-0.20442">
        <ele>124.78125</ele>
        <time>2018-05-18T12:27:01Z</time>
      </trkpt>
      <trkpt lat="45.36478" lon="-0.20498">
        <ele>122.765625</ele>
        <time>2018-05-18T12:27:07Z</time>
      </trkpt>
      <trkpt lat="45.36476" lon="-0.2052">
        <ele>121.8671875</ele>
        <time>2018-05-18T12:27:09Z</time>
      </trkpt>
      <trkpt lat="45.36475" lon="-0.2053">
        <ele>121.42578125</ele>
        <time>2018-05-18T12:27:10Z</time>
      </trkpt>
      <trkpt lat="45.36475" lon="-0.20541">
        <ele>120.890625</ele>
        <time>2018-05-18T12:27:11Z</time>
      </trkpt>
      <trkpt lat="45.36476" lon="-0.20553">
        <ele>120.2265625</ele>
        <time>2018-05-18T12:27:12Z</time>
      </trkpt>
      <trkpt lat="45.36479" lon="-0.20564">
        <ele>119.50390625</ele>
        <time>2018-05-18T12:27:13Z</time>
      </trkpt>
      <trkpt lat="45.36489" lon="-0.20596">
        <ele>117.4453125</ele>
        <time>2018-05-18T12:27:16Z</time>
      </trkpt>
      <trkpt lat="45.36494" lon="-0.2062">
        <ele>116.26953125</ele>
        <time>2018-05-18T12:27:18Z</time>
      </trkpt>
      <trkpt lat="45.365" lon="-0.20643">
        <ele>115.1640625</ele>
        <time>2018-05-18T12:27:20Z</time>
      </trkpt>
      <trkpt lat="45.36518" lon="-0.20721">
        <ele>110.125</ele>
        <time>2018-05-18T12:27:27Z</time>
      </trkpt>
      <trkpt lat="45.36521" lon="-0.20732">
        <ele>109.46484375</ele>
        <time>2018-05-18T12:27:28Z</time>
      </trkpt>
      <trkpt lat="45.36531" lon="-0.20777">
        <ele>106.98828125</ele>
        <time>2018-05-18T12:27:32Z</time>
      </trkpt>
      <trkpt lat="45.36538" lon="-0.20806">
        <ele>105.57421875</ele>
        <time>2018-05-18T12:27:35Z</time>
      </trkpt>
      <trkpt lat="45.36542" lon="-0.20815">
        <ele>105.15625</ele>
        <time>2018-05-18T12:27:36Z</time>
      </trkpt>
      <trkpt lat="45.36545" lon="-0.20822">
        <ele>104.8359375</ele>
        <time>2018-05-18T12:27:37Z</time>
      </trkpt>
      <trkpt lat="45.36548" lon="-0.2083">
        <ele>104.625</ele>
        <time>2018-05-18T12:27:38Z</time>
      </trkpt>
      <trkpt lat="45.36551" lon="-0.20839">
        <ele>104.4453125</ele>
        <time>2018-05-18T12:27:39Z</time>
      </trkpt>
      <trkpt lat="45.36554" lon="-0.20847">
        <ele>104.296875</ele>
        <time>2018-05-18T12:27:40Z</time>
      </trkpt>
      <trkpt lat="45.3656" lon="-0.20871">
        <ele>104.03125</ele>
        <time>2018-05-18T12:27:43Z</time>
      </trkpt>
      <trkpt lat="45.36562" lon="-0.20878">
        <ele>103.953125</ele>
        <time>2018-05-18T12:27:44Z</time>
      </trkpt>
      <trkpt lat="45.36574" lon="-0.20916">
        <ele>102.90625</ele>
        <time>2018-05-18T12:27:49Z</time>
      </trkpt>
      <trkpt lat="45.36588" lon="-0.20965">
        <ele>100.828125</ele>
        <time>2018-05-18T12:27:57Z</time>
      </trkpt>
      <trkpt lat="45.3659" lon="-0.20971">
        <ele>100.625</ele>
        <time>2018-05-18T12:27:58Z</time>
      </trkpt>
      <trkpt lat="45.36593" lon="-0.20984">
        <ele>100.234375</ele>
        <time>2018-05-18T12:28:00Z</time>
      </trkpt>
      <trkpt lat="45.36594" lon="-0.20991">
        <ele>99.96484375</ele>
        <time>2018-05-18T12:28:01Z</time>
      </trkpt>
      <trkpt lat="45.36602" lon="-0.21026">
        <ele>98.4453125</ele>
        <time>2018-05-18T12:28:05Z</time>
      </trkpt>
      <trkpt lat="45.36603" lon="-0.21036">
        <ele>98.01953125</ele>
        <time>2018-05-18T12:28:06Z</time>
      </trkpt>
      <trkpt lat="45.36604" lon="-0.21046">
        <ele>97.51171875</ele>
        <time>2018-05-18T12:28:07Z</time>
      </trkpt>
      <trkpt lat="45.36605" lon="-0.21057">
        <ele>96.7890625</ele>
        <time>2018-05-18T12:28:08Z</time>
      </trkpt>
      <trkpt lat="45.36607" lon="-0.21067">
        <ele>96.06640625</ele>
        <time>2018-05-18T12:28:09Z</time>
      </trkpt>
      <trkpt lat="45.36611" lon="-0.21076">
        <ele>95.265625</ele>
        <time>2018-05-18T12:28:10Z</time>
      </trkpt>
      <trkpt lat="45.36615" lon="-0.21085">
        <ele>94.390625</ele>
        <time>2018-05-18T12:28:11Z</time>
      </trkpt>
      <trkpt lat="45.36621" lon="-0.21096">
        <ele>93.37890625</ele>
        <time>2018-05-18T12:28:12Z</time>
      </trkpt>
      <trkpt lat="45.36639" lon="-0.2113">
        <ele>92.0703125</ele>
        <time>2018-05-18T12:28:15Z</time>
      </trkpt>
      <trkpt lat="45.36644" lon="-0.21142">
        <ele>91.859375</ele>
        <time>2018-05-18T12:28:16Z</time>
      </trkpt>
      <trkpt lat="45.36673" lon="-0.21215">
        <ele>92.12109375</ele>
        <time>2018-05-18T12:28:22Z</time>
      </trkpt>
      <trkpt lat="45.36683" lon="-0.21233">
        <ele>92.37890625</ele>
        <time>2018-05-18T12:28:24Z</time>
      </trkpt>
      <trkpt lat="45.36689" lon="-0.21244">
        <ele>92.5</ele>
        <time>2018-05-18T12:28:26Z</time>
      </trkpt>
      <trkpt lat="45.36688" lon="-0.21246">
        <ele>92.3359375</ele>
        <time>2018-05-18T12:28:27Z</time>
      </trkpt>
      <trkpt lat="45.36685" lon="-0.21247">
        <ele>92.08984375</ele>
        <time>2018-05-18T12:28:28Z</time>
      </trkpt>
      <trkpt lat="45.36683" lon="-0.21248">
        <ele>91.796875</ele>
        <time>2018-05-18T12:28:29Z</time>
      </trkpt>
      <trkpt lat="45.36679" lon="-0.21248">
        <ele>91.46875</ele>
        <time>2018-05-18T12:28:30Z</time>
      </trkpt>
      <trkpt lat="45.3666" lon="-0.2125">
        <ele>89.71484375</ele>
        <time>2018-05-18T12:28:34Z</time>
      </trkpt>
      <trkpt lat="45.3665" lon="-0.21255">
        <ele>88.625</ele>
        <time>2018-05-18T12:28:36Z</time>
      </trkpt>
      <trkpt lat="45.36645" lon="-0.21257">
        <ele>88.09765625</ele>
        <time>2018-05-18T12:28:37Z</time>
      </trkpt>
      <trkpt lat="45.3664" lon="-0.21259">
        <ele>87.58203125</ele>
        <time>2018-05-18T12:28:38Z</time>
      </trkpt>
      <trkpt lat="45.36634" lon="-0.2126">
        <ele>87.05078125</ele>
        <time>2018-05-18T12:28:39Z</time>
      </trkpt>
      <trkpt lat="45.36625" lon="-0.2126">
        <ele>86.16796875</ele>
        <time>2018-05-18T12:28:41Z</time>
      </trkpt>
      <trkpt lat="45.3662" lon="-0.21259">
        <ele>86.125</ele>
        <time>2018-05-18T12:28:42Z</time>
      </trkpt>
      <trkpt lat="45.36614" lon="-0.21257">
        <ele>86.11328125</ele>
        <time>2018-05-18T12:28:43Z</time>
      </trkpt>
      <trkpt lat="45.36589" lon="-0.21247">
        <ele>86.2265625</ele>
        <time>2018-05-18T12:28:48Z</time>
      </trkpt>
      <trkpt lat="45.36579" lon="-0.21239">
        <ele>86.48046875</ele>
        <time>2018-05-18T12:28:50Z</time>
      </trkpt>
      <trkpt lat="45.36573" lon="-0.21234">
        <ele>86.70703125</ele>
        <time>2018-05-18T12:28:51Z</time>
      </trkpt>
      <trkpt lat="45.36568" lon="-0.21229">
        <ele>86.921875</ele>
        <time>2018-05-18T12:28:52Z</time>
      </trkpt>
      <trkpt lat="45.36551" lon="-0.21212">
        <ele>87.2265625</ele>
        <time>2018-05-18T12:28:56Z</time>
      </trkpt>
      <trkpt lat="45.36526" lon="-0.21198">
        <ele>87.20703125</ele>
        <time>2018-05-18T12:29:02Z</time>
      </trkpt>
      <trkpt lat="45.36511" lon="-0.21196">
        <ele>86.88671875</ele>
        <time>2018-05-18T12:29:06Z</time>
      </trkpt>
      <trkpt lat="45.36495" lon="-0.21203">
        <ele>86.01953125</ele>
        <time>2018-05-18T12:29:11Z</time>
      </trkpt>
      <trkpt lat="45.36475" lon="-0.21204">
        <ele>85.56640625</ele>
        <time>2018-05-18T12:29:16Z</time>
      </trkpt>
      <trkpt lat="45.36447" lon="-0.21191">
        <ele>85.9140625</ele>
        <time>2018-05-18T12:29:23Z</time>
      </trkpt>
      <trkpt lat="45.36439" lon="-0.21186">
        <ele>86.2421875</ele>
        <time>2018-05-18T12:29:25Z</time>
      </trkpt>
      <trkpt lat="45.36407" lon="-0.21167">
        <ele>86.9609375</ele>
        <time>2018-05-18T12:29:33Z</time>
      </trkpt>
      <trkpt lat="45.36384" lon="-0.21151">
        <ele>87.75390625</ele>
        <time>2018-05-18T12:29:39Z</time>
      </trkpt>
      <trkpt lat="45.36353" lon="-0.21128">
        <ele>88.88671875</ele>
        <time>2018-05-18T12:29:46Z</time>
      </trkpt>
      <trkpt lat="45.36315" lon="-0.21098">
        <ele>89.5859375</ele>
        <time>2018-05-18T12:29:55Z</time>
      </trkpt>
      <trkpt lat="45.36283" lon="-0.21074">
        <ele>90.25</ele>
        <time>2018-05-18T12:30:02Z</time>
      </trkpt>
      <trkpt lat="45.36243" lon="-0.21042">
        <ele>90.015625</ele>
        <time>2018-05-18T12:30:11Z</time>
      </trkpt>
      <trkpt lat="45.36205" lon="-0.21011">
        <ele>91.859375</ele>
        <time>2018-05-18T12:30:20Z</time>
      </trkpt>
      <trkpt lat="45.36178" lon="-0.20982">
        <ele>92.27734375</ele>
        <time>2018-05-18T12:30:27Z</time>
      </trkpt>
      <trkpt lat="45.36167" lon="-0.20967">
        <ele>93.1796875</ele>
        <time>2018-05-18T12:30:30Z</time>
      </trkpt>
      <trkpt lat="45.36159" lon="-0.20957">
        <ele>93.65625</ele>
        <time>2018-05-18T12:30:32Z</time>
      </trkpt>
      <trkpt lat="45.36157" lon="-0.20951">
        <ele>93.8203125</ele>
        <time>2018-05-18T12:30:33Z</time>
      </trkpt>
      <trkpt lat="45.36154" lon="-0.20945">
        <ele>93.953125</ele>
        <time>2018-05-18T12:30:34Z</time>
      </trkpt>
      <trkpt lat="45.36152" lon="-0.20938">
        <ele>94.046875</ele>
        <time>2018-05-18T12:30:35Z</time>
      </trkpt>
      <trkpt lat="45.3615" lon="-0.20931">
        <ele>94.14453125</ele>
        <time>2018-05-18T12:30:36Z</time>
      </trkpt>
      <trkpt lat="45.36148" lon="-0.20924">
        <ele>94.51171875</ele>
        <time>2018-05-18T12:30:37Z</time>
      </trkpt>
      <trkpt lat="45.36143" lon="-0.20904">
        <ele>95.4921875</ele>
        <time>2018-05-18T12:30:40Z</time>
      </trkpt>
      <trkpt lat="45.36142" lon="-0.20899">
        <ele>95.765625</ele>
        <time>2018-05-18T12:30:41Z</time>
      </trkpt>
      <trkpt lat="45.36131" lon="-0.20871">
        <ele>97.1953125</ele>
        <time>2018-05-18T12:30:47Z</time>
      </trkpt>
      <trkpt lat="45.36107" lon="-0.20848">
        <ele>98.21875</ele>
        <time>2018-05-18T12:30:53Z</time>
      </trkpt>
      <trkpt lat="45.36074" lon="-0.20824">
        <ele>98.9140625</ele>
        <time>2018-05-18T12:31:00Z</time>
      </trkpt>
      <trkpt lat="45.36039" lon="-0.20809">
        <ele>98.64453125</ele>
        <time>2018-05-18T12:31:08Z</time>
      </trkpt>
      <trkpt lat="45.36" lon="-0.20805">
        <ele>98.31640625</ele>
        <time>2018-05-18T12:31:15Z</time>
      </trkpt>
      <trkpt lat="45.35969" lon="-0.20805">
        <ele>98.69921875</ele>
        <time>2018-05-18T12:31:21Z</time>
      </trkpt>
      <trkpt lat="45.35964" lon="-0.20807">
        <ele>98.66796875</ele>
        <time>2018-05-18T12:31:22Z</time>
      </trkpt>
      <trkpt lat="45.3596" lon="-0.20808">
        <ele>98.6640625</ele>
        <time>2018-05-18T12:31:23Z</time>
      </trkpt>
      <trkpt lat="45.35915" lon="-0.20816">
        <ele>100.6953125</ele>
        <time>2018-05-18T12:31:32Z</time>
      </trkpt>
      <trkpt lat="45.35881" lon="-0.2081">
        <ele>101.8125</ele>
        <time>2018-05-18T12:31:39Z</time>
      </trkpt>
      <trkpt lat="45.35847" lon="-0.20798">
        <ele>103.0703125</ele>
        <time>2018-05-18T12:31:47Z</time>
      </trkpt>
      <trkpt lat="45.35842" lon="-0.20797">
        <ele>103.15625</ele>
        <time>2018-05-18T12:31:48Z</time>
      </trkpt>
      <trkpt lat="45.35838" lon="-0.20797">
        <ele>103.1875</ele>
        <time>2018-05-18T12:31:49Z</time>
      </trkpt>
      <trkpt lat="45.35802" lon="-0.20805">
        <ele>103.015625</ele>
        <time>2018-05-18T12:31:57Z</time>
      </trkpt>
      <trkpt lat="45.35788" lon="-0.20808">
        <ele>102.9296875</ele>
        <time>2018-05-18T12:32:00Z</time>
      </trkpt>
      <trkpt lat="45.35748" lon="-0.20809">
        <ele>102.984375</ele>
        <time>2018-05-18T12:32:08Z</time>
      </trkpt>
      <trkpt lat="45.35729" lon="-0.20806">
        <ele>103.41796875</ele>
        <time>2018-05-18T12:32:12Z</time>
      </trkpt>
      <trkpt lat="45.3572" lon="-0.20802">
        <ele>103.86328125</ele>
        <time>2018-05-18T12:32:14Z</time>
      </trkpt>
      <trkpt lat="45.3569" lon="-0.20786">
        <ele>105.421875</ele>
        <time>2018-05-18T12:32:21Z</time>
      </trkpt>
      <trkpt lat="45.35662" lon="-0.20767">
        <ele>106.54296875</ele>
        <time>2018-05-18T12:32:28Z</time>
      </trkpt>
      <trkpt lat="45.3565" lon="-0.20758">
        <ele>106.94921875</ele>
        <time>2018-05-18T12:32:31Z</time>
      </trkpt>
      <trkpt lat="45.35629" lon="-0.20738">
        <ele>108.03125</ele>
        <time>2018-05-18T12:32:37Z</time>
      </trkpt>
      <trkpt lat="45.35606" lon="-0.20715">
        <ele>108.95703125</ele>
        <time>2018-05-18T12:32:44Z</time>
      </trkpt>
      <trkpt lat="45.35581" lon="-0.20702">
        <ele>109.08203125</ele>
        <time>2018-05-18T12:32:51Z</time>
      </trkpt>
      <trkpt lat="45.35556" lon="-0.20704">
        <ele>107.9453125</ele>
        <time>2018-05-18T12:32:57Z</time>
      </trkpt>
      <trkpt lat="45.35552" lon="-0.2071">
        <ele>107.3671875</ele>
        <time>2018-05-18T12:32:58Z</time>
      </trkpt>
      <trkpt lat="45.35536" lon="-0.20737">
        <ele>105.890625</ele>
        <time>2018-05-18T12:33:03Z</time>
      </trkpt>
      <trkpt lat="45.3552" lon="-0.20761">
        <ele>105.08203125</ele>
        <time>2018-05-18T12:33:09Z</time>
      </trkpt>
      <trkpt lat="45.35495" lon="-0.20798">
        <ele>106.28125</ele>
        <time>2018-05-18T12:33:19Z</time>
      </trkpt>
      <trkpt lat="45.3547" lon="-0.20838">
        <ele>108.15625</ele>
        <time>2018-05-18T12:33:30Z</time>
      </trkpt>
      <trkpt lat="45.3545" lon="-0.20867">
        <ele>109.87109375</ele>
        <time>2018-05-18T12:33:39Z</time>
      </trkpt>
      <trkpt lat="45.3543" lon="-0.20893">
        <ele>110.97265625</ele>
        <time>2018-05-18T12:33:48Z</time>
      </trkpt>
      <trkpt lat="45.35412" lon="-0.20923">
        <ele>111.80859375</ele>
        <time>2018-05-18T12:33:57Z</time>
      </trkpt>
      <trkpt lat="45.35397" lon="-0.20942">
        <ele>112.95703125</ele>
        <time>2018-05-18T12:34:04Z</time>
      </trkpt>
      <trkpt lat="45.35393" lon="-0.20943">
        <ele>113.07421875</ele>
        <time>2018-05-18T12:34:05Z</time>
      </trkpt>
      <trkpt lat="45.35391" lon="-0.20942">
        <ele>113.0859375</ele>
        <time>2018-05-18T12:34:06Z</time>
      </trkpt>
      <trkpt lat="45.35388" lon="-0.20939">
        <ele>113.015625</ele>
        <time>2018-05-18T12:34:07Z</time>
      </trkpt>
      <trkpt lat="45.35385" lon="-0.20936">
        <ele>112.92578125</ele>
        <time>2018-05-18T12:34:08Z</time>
      </trkpt>
      <trkpt lat="45.35361" lon="-0.20907">
        <ele>113.05859375</ele>
        <time>2018-05-18T12:34:16Z</time>
      </trkpt>
      <trkpt lat="45.35331" lon="-0.20867">
        <ele>114.09765625</ele>
        <time>2018-05-18T12:34:25Z</time>
      </trkpt>
      <trkpt lat="45.35307" lon="-0.20838">
        <ele>115.88671875</ele>
        <time>2018-05-18T12:34:33Z</time>
      </trkpt>
      <trkpt lat="45.35291" lon="-0.20817">
        <ele>117.10546875</ele>
        <time>2018-05-18T12:34:40Z</time>
      </trkpt>
      <trkpt lat="45.35274" lon="-0.20796">
        <ele>118.1484375</ele>
        <time>2018-05-18T12:34:47Z</time>
      </trkpt>
      <trkpt lat="45.35262" lon="-0.20779">
        <ele>118.7890625</ele>
        <time>2018-05-18T12:34:53Z</time>
      </trkpt>
      <trkpt lat="45.35248" lon="-0.20763">
        <ele>119.234375</ele>
        <time>2018-05-18T12:34:59Z</time>
      </trkpt>
      <trkpt lat="45.35234" lon="-0.20745">
        <ele>118.53125</ele>
        <time>2018-05-18T12:35:04Z</time>
      </trkpt>
      <trkpt lat="45.3523" lon="-0.2074">
        <ele>118.18359375</ele>
        <time>2018-05-18T12:35:05Z</time>
      </trkpt>
      <trkpt lat="45.35225" lon="-0.20735">
        <ele>117.81640625</ele>
        <time>2018-05-18T12:35:06Z</time>
      </trkpt>
      <trkpt lat="45.35211" lon="-0.20717">
        <ele>116.5234375</ele>
        <time>2018-05-18T12:35:09Z</time>
      </trkpt>
      <trkpt lat="45.35206" lon="-0.20711">
        <ele>116.0703125</ele>
        <time>2018-05-18T12:35:10Z</time>
      </trkpt>
      <trkpt lat="45.35201" lon="-0.20705">
        <ele>115.71875</ele>
        <time>2018-05-18T12:35:11Z</time>
      </trkpt>
      <trkpt lat="45.35196" lon="-0.20702">
        <ele>115.53125</ele>
        <time>2018-05-18T12:35:12Z</time>
      </trkpt>
      <trkpt lat="45.35191" lon="-0.20702">
        <ele>115.55078125</ele>
        <time>2018-05-18T12:35:13Z</time>
      </trkpt>
      <trkpt lat="45.35185" lon="-0.20705">
        <ele>115.7265625</ele>
        <time>2018-05-18T12:35:14Z</time>
      </trkpt>
      <trkpt lat="45.3518" lon="-0.20709">
        <ele>115.96875</ele>
        <time>2018-05-18T12:35:15Z</time>
      </trkpt>
      <trkpt lat="45.35176" lon="-0.20714">
        <ele>116.28125</ele>
        <time>2018-05-18T12:35:16Z</time>
      </trkpt>
      <trkpt lat="45.35172" lon="-0.20718">
        <ele>116.59375</ele>
        <time>2018-05-18T12:35:17Z</time>
      </trkpt>
      <trkpt lat="45.35162" lon="-0.20729">
        <ele>117.27734375</ele>
        <time>2018-05-18T12:35:20Z</time>
      </trkpt>
      <trkpt lat="45.35141" lon="-0.20752">
        <ele>118.4921875</ele>
        <time>2018-05-18T12:35:27Z</time>
      </trkpt>
      <trkpt lat="45.35118" lon="-0.20782">
        <ele>120.09765625</ele>
        <time>2018-05-18T12:35:36Z</time>
      </trkpt>
      <trkpt lat="45.35098" lon="-0.20816">
        <ele>121.74609375</ele>
        <time>2018-05-18T12:35:45Z</time>
      </trkpt>
      <trkpt lat="45.35093" lon="-0.20844">
        <ele>123.73828125</ele>
        <time>2018-05-18T12:35:52Z</time>
      </trkpt>
      <trkpt lat="45.35091" lon="-0.20861">
        <ele>125.08203125</ele>
        <time>2018-05-18T12:35:58Z</time>
      </trkpt>
      <trkpt lat="45.35091" lon="-0.20881">
        <ele>126.7109375</ele>
        <time>2018-05-18T12:36:05Z</time>
      </trkpt>
      <trkpt lat="45.35082" lon="-0.20907">
        <ele>128.73828125</ele>
        <time>2018-05-18T12:36:13Z</time>
      </trkpt>
      <trkpt lat="45.35069" lon="-0.2093">
        <ele>130.83203125</ele>
        <time>2018-05-18T12:36:21Z</time>
      </trkpt>
      <trkpt lat="45.35062" lon="-0.20944">
        <ele>131.69921875</ele>
        <time>2018-05-18T12:36:26Z</time>
      </trkpt>
      <trkpt lat="45.3506" lon="-0.20947">
        <ele>131.84765625</ele>
        <time>2018-05-18T12:36:27Z</time>
      </trkpt>
      <trkpt lat="45.35059" lon="-0.2095">
        <ele>132.04296875</ele>
        <time>2018-05-18T12:36:28Z</time>
      </trkpt>
      <trkpt lat="45.35057" lon="-0.20953">
        <ele>132.23828125</ele>
        <time>2018-05-18T12:36:29Z</time>
      </trkpt>
      <trkpt lat="45.35055" lon="-0.20956">
        <ele>132.42578125</ele>
        <time>2018-05-18T12:36:30Z</time>
      </trkpt>
      <trkpt lat="45.35054" lon="-0.20959">
        <ele>132.625</ele>
        <time>2018-05-18T12:36:31Z</time>
      </trkpt>
      <trkpt lat="45.35052" lon="-0.20963">
        <ele>132.81640625</ele>
        <time>2018-05-18T12:36:32Z</time>
      </trkpt>
      <trkpt lat="45.35051" lon="-0.20965">
        <ele>132.97265625</ele>
        <time>2018-05-18T12:36:33Z</time>
      </trkpt>
      <trkpt lat="45.35048" lon="-0.20968">
        <ele>133.12109375</ele>
        <time>2018-05-18T12:36:34Z</time>
      </trkpt>
      <trkpt lat="45.35035" lon="-0.20993">
        <ele>134.51953125</ele>
        <time>2018-05-18T12:36:41Z</time>
      </trkpt>
      <trkpt lat="45.35022" lon="-0.21015">
        <ele>135.7734375</ele>
        <time>2018-05-18T12:36:48Z</time>
      </trkpt>
      <trkpt lat="45.35011" lon="-0.21033">
        <ele>137.12109375</ele>
        <time>2018-05-18T12:36:55Z</time>
      </trkpt>
      <trkpt lat="45.35002" lon="-0.21048">
        <ele>138.06640625</ele>
        <time>2018-05-18T12:37:01Z</time>
      </trkpt>
      <trkpt lat="45.34989" lon="-0.21069">
        <ele>139.15625</ele>
        <time>2018-05-18T12:37:10Z</time>
      </trkpt>
      <trkpt lat="45.34981" lon="-0.21084">
        <ele>140.0625</ele>
        <time>2018-05-18T12:37:17Z</time>
      </trkpt>
      <trkpt lat="45.34981" lon="-0.21091">
        <ele>140.5390625</ele>
        <time>2018-05-18T12:37:20Z</time>
      </trkpt>
      <trkpt lat="45.34978" lon="-0.2109">
        <ele>140.46875</ele>
        <time>2018-05-18T12:37:21Z</time>
      </trkpt>
      <trkpt lat="45.34955" lon="-0.21069">
        <ele>139.16796875</ele>
        <time>2018-05-18T12:37:28Z</time>
      </trkpt>
      <trkpt lat="45.34931" lon="-0.21098">
        <ele>141.98828125</ele>
        <time>2018-05-18T12:37:35Z</time>
      </trkpt>
      <trkpt lat="45.34902" lon="-0.21137">
        <ele>143.6328125</ele>
      </trkpt>
      <trkpt lat="45.34863" lon="-0.21185">
        <ele>142.546875</ele>
      </trkpt>
      <trkpt lat="45.34836" lon="-0.21219">
        <ele>140.921875</ele>
      </trkpt>
      <trkpt lat="45.34805" lon="-0.21256">
        <ele>138.08984375</ele>
      </trkpt>
      <trkpt lat="45.34784" lon="-0.21286">
        <ele>136.1640625</ele>
      </trkpt>
      <trkpt lat="45.34766" lon="-0.21314">
        <ele>134.671875</ele>
      </trkpt>
      <trkpt lat="45.34753" lon="-0.21341">
        <ele>132.60546875</ele>
      </trkpt>
      <trkpt lat="45.34749" lon="-0.2136">
        <ele>131.32421875</ele>
      </trkpt>
      <trkpt lat="45.34755" lon="-0.21396">
        <ele>129.55078125</ele>
      </trkpt>
      <trkpt lat="45.34759" lon="-0.21423">
        <ele>128.234375</ele>
      </trkpt>
      <trkpt lat="45.34773" lon="-0.21451">
        <ele>127.44140625</ele>
      </trkpt>
      <trkpt lat="45.34779" lon="-0.21465">
        <ele>127.15625</ele>
      </trkpt>
      <trkpt lat="45.34773" lon="-0.21483">
        <ele>126.12109375</ele>
      </trkpt>
      <trkpt lat="45.34756" lon="-0.21534">
        <ele>124.4609375</ele>
      </trkpt>
      <trkpt lat="45.34738" lon="-0.21577">
        <ele>121.44140625</ele>
      </trkpt>
      <trkpt lat="45.34723" lon="-0.2162">
        <ele>118.421875</ele>
      </trkpt>
      <trkpt lat="45.34715" lon="-0.21661">
        <ele>115.94921875</ele>
      </trkpt>
      <trkpt lat="45.34708" lon="-0.21697">
        <ele>114.92578125</ele>
      </trkpt>
      <trkpt lat="45.34702" lon="-0.21714">
        <ele>114.10546875</ele>
      </trkpt>
      <trkpt lat="45.34691" lon="-0.21733">
        <ele>112.60546875</ele>
      </trkpt>
      <trkpt lat="45.34691" lon="-0.21749">
        <ele>112.2578125</ele>
      </trkpt>
      <trkpt lat="45.3469" lon="-0.21766">
        <ele>111.875</ele>
      </trkpt>
      <trkpt lat="45.34695" lon="-0.21785">
        <ele>111.98828125</ele>
      </trkpt>
      <trkpt lat="45.34709" lon="-0.21817">
        <ele>112.59375</ele>
      </trkpt>
      <trkpt lat="45.34717" lon="-0.21835">
        <ele>112.74609375</ele>
      </trkpt>
      <trkpt lat="45.34723" lon="-0.21849">
        <ele>112.80078125</ele>
      </trkpt>
      <trkpt lat="45.34733" lon="-0.21887">
        <ele>111.94921875</ele>
      </trkpt>
      <trkpt lat="45.34739" lon="-0.21929">
        <ele>109.40625</ele>
      </trkpt>
      <trkpt lat="45.34756" lon="-0.22003">
        <ele>108.75390625</ele>
      </trkpt>
      <trkpt lat="45.34773" lon="-0.22077">
        <ele>109.0625</ele>
      </trkpt>
      <trkpt lat="45.34788" lon="-0.22145">
        <ele>106.3828125</ele>
      </trkpt>
      <trkpt lat="45.348" lon="-0.22181">
        <ele>104.546875</ele>
      </trkpt>
      <trkpt lat="45.34821" lon="-0.22225">
        <ele>103.27734375</ele>
      </trkpt>
      <trkpt lat="45.34848" lon="-0.22289">
        <ele>101.671875</ele>
      </trkpt>
      <trkpt lat="45.34869" lon="-0.22336">
        <ele>99.78515625</ele>
      </trkpt>
      <trkpt lat="45.34881" lon="-0.22365">
        <ele>98.96875</ele>
      </trkpt>
      <trkpt lat="45.34892" lon="-0.22389">
        <ele>98.359375</ele>
      </trkpt>
      <trkpt lat="45.34901" lon="-0.2241">
        <ele>97.74609375</ele>
      </trkpt>
      <trkpt lat="45.34907" lon="-0.2242">
        <ele>97.4453125</ele>
      </trkpt>
      <trkpt lat="45.34916" lon="-0.22429">
        <ele>97.3046875</ele>
      </trkpt>
      <trkpt lat="45.34917" lon="-0.22437">
        <ele>97.109375</ele>
        <time>2018-05-18T12:42:04Z</time>
      </trkpt>
      <trkpt lat="45.34917" lon="-0.22443">
        <ele>96.97265625</ele>
        <time>2018-05-18T12:42:05Z</time>
      </trkpt>
      <trkpt lat="45.34916" lon="-0.2245">
        <ele>96.80078125</ele>
        <time>2018-05-18T12:42:06Z</time>
      </trkpt>
      <trkpt lat="45.34917" lon="-0.22458">
        <ele>96.62109375</ele>
        <time>2018-05-18T12:42:07Z</time>
      </trkpt>
      <trkpt lat="45.34917" lon="-0.22467">
        <ele>96.4375</ele>
        <time>2018-05-18T12:42:08Z</time>
      </trkpt>
      <trkpt lat="45.34919" lon="-0.22475">
        <ele>96.26171875</ele>
        <time>2018-05-18T12:42:09Z</time>
      </trkpt>
      <trkpt lat="45.34921" lon="-0.22483">
        <ele>96.08203125</ele>
        <time>2018-05-18T12:42:10Z</time>
      </trkpt>
      <trkpt lat="45.34923" lon="-0.2249">
        <ele>95.94921875</ele>
        <time>2018-05-18T12:42:11Z</time>
      </trkpt>
      <trkpt lat="45.34931" lon="-0.22511">
        <ele>95.55078125</ele>
        <time>2018-05-18T12:42:14Z</time>
      </trkpt>
      <trkpt lat="45.3494" lon="-0.2253">
        <ele>94.95703125</ele>
        <time>2018-05-18T12:42:17Z</time>
      </trkpt>
      <trkpt lat="45.34955" lon="-0.2258">
        <ele>93.53515625</ele>
        <time>2018-05-18T12:42:24Z</time>
      </trkpt>
      <trkpt lat="45.34961" lon="-0.22626">
        <ele>94.00390625</ele>
        <time>2018-05-18T12:42:30Z</time>
      </trkpt>
      <trkpt lat="45.3496" lon="-0.22631">
        <ele>94.1875</ele>
        <time>2018-05-18T12:42:31Z</time>
      </trkpt>
      <trkpt lat="45.3496" lon="-0.22635">
        <ele>94.32421875</ele>
        <time>2018-05-18T12:42:32Z</time>
      </trkpt>
      <trkpt lat="45.3496" lon="-0.22638">
        <ele>94.45703125</ele>
        <time>2018-05-18T12:42:33Z</time>
      </trkpt>
      <trkpt lat="45.3496" lon="-0.22642">
        <ele>94.5859375</ele>
        <time>2018-05-18T12:42:34Z</time>
      </trkpt>
      <trkpt lat="45.34957" lon="-0.22667">
        <ele>95.5859375</ele>
        <time>2018-05-18T12:42:39Z</time>
      </trkpt>
      <trkpt lat="45.34956" lon="-0.22711">
        <ele>97.19921875</ele>
        <time>2018-05-18T12:42:47Z</time>
      </trkpt>
      <trkpt lat="45.34953" lon="-0.22755">
        <ele>98.80078125</ele>
        <time>2018-05-18T12:42:55Z</time>
      </trkpt>
      <trkpt lat="45.34954" lon="-0.22788">
        <ele>99.9921875</ele>
        <time>2018-05-18T12:43:02Z</time>
      </trkpt>
      <trkpt lat="45.34957" lon="-0.22796">
        <ele>100.21484375</ele>
        <time>2018-05-18T12:43:04Z</time>
      </trkpt>
      <trkpt lat="45.34969" lon="-0.2282">
        <ele>100.33203125</ele>
        <time>2018-05-18T12:43:10Z</time>
      </trkpt>
      <trkpt lat="45.34987" lon="-0.22856">
        <ele>99.984375</ele>
        <time>2018-05-18T12:43:18Z</time>
      </trkpt>
      <trkpt lat="45.35005" lon="-0.22892">
        <ele>100.38671875</ele>
        <time>2018-05-18T12:43:25Z</time>
      </trkpt>
      <trkpt lat="45.35021" lon="-0.22924">
        <ele>101.2109375</ele>
        <time>2018-05-18T12:43:32Z</time>
      </trkpt>
      <trkpt lat="45.35023" lon="-0.22929">
        <ele>101.30859375</ele>
        <time>2018-05-18T12:43:33Z</time>
      </trkpt>
      <trkpt lat="45.3503" lon="-0.22943">
        <ele>101.265625</ele>
        <time>2018-05-18T12:43:36Z</time>
      </trkpt>
      <trkpt lat="45.35046" lon="-0.22983">
        <ele>101.09375</ele>
        <time>2018-05-18T12:43:44Z</time>
      </trkpt>
      <trkpt lat="45.35058" lon="-0.23023">
        <ele>100.7734375</ele>
        <time>2018-05-18T12:43:51Z</time>
      </trkpt>
      <trkpt lat="45.3506" lon="-0.23028">
        <ele>100.6953125</ele>
        <time>2018-05-18T12:43:52Z</time>
      </trkpt>
      <trkpt lat="45.35073" lon="-0.23069">
        <ele>99.7734375</ele>
        <time>2018-05-18T12:43:59Z</time>
      </trkpt>
      <trkpt lat="45.35084" lon="-0.23098">
        <ele>99.25</ele>
        <time>2018-05-18T12:44:04Z</time>
      </trkpt>
      <trkpt lat="45.35086" lon="-0.23104">
        <ele>99.08984375</ele>
        <time>2018-05-18T12:44:05Z</time>
      </trkpt>
      <trkpt lat="45.35086" lon="-0.23109">
        <ele>98.97265625</ele>
        <time>2018-05-18T12:44:06Z</time>
      </trkpt>
      <trkpt lat="45.35086" lon="-0.23114">
        <ele>98.921875</ele>
        <time>2018-05-18T12:44:07Z</time>
      </trkpt>
      <trkpt lat="45.35084" lon="-0.23118">
        <ele>98.953125</ele>
        <time>2018-05-18T12:44:08Z</time>
      </trkpt>
      <trkpt lat="45.35081" lon="-0.23122">
        <ele>99.04296875</ele>
        <time>2018-05-18T12:44:09Z</time>
      </trkpt>
      <trkpt lat="45.35078" lon="-0.23125">
        <ele>99.14453125</ele>
        <time>2018-05-18T12:44:10Z</time>
      </trkpt>
      <trkpt lat="45.35049" lon="-0.23157">
        <ele>100.78515625</ele>
        <time>2018-05-18T12:44:19Z</time>
      </trkpt>
      <trkpt lat="45.35022" lon="-0.23183">
        <ele>102.20703125</ele>
        <time>2018-05-18T12:44:28Z</time>
      </trkpt>
      <trkpt lat="45.35007" lon="-0.23202">
        <ele>103.00390625</ele>
        <time>2018-05-18T12:44:35Z</time>
      </trkpt>
      <trkpt lat="45.34993" lon="-0.23215">
        <ele>104.1171875</ele>
        <time>2018-05-18T12:44:41Z</time>
      </trkpt>
      <trkpt lat="45.34982" lon="-0.23211">
        <ele>105.40234375</ele>
        <time>2018-05-18T12:44:45Z</time>
      </trkpt>
      <trkpt lat="45.34981" lon="-0.23208">
        <ele>105.6640625</ele>
        <time>2018-05-18T12:44:46Z</time>
      </trkpt>
      <trkpt lat="45.34965" lon="-0.23178">
        <ele>107.9453125</ele>
        <time>2018-05-18T12:44:55Z</time>
      </trkpt>
      <trkpt lat="45.3495" lon="-0.23153">
        <ele>109.625</ele>
        <time>2018-05-18T12:45:02Z</time>
      </trkpt>
      <trkpt lat="45.34927" lon="-0.23121">
        <ele>111.54296875</ele>
        <time>2018-05-18T12:45:10Z</time>
      </trkpt>
      <trkpt lat="45.3491" lon="-0.23103">
        <ele>112.640625</ele>
        <time>2018-05-18T12:45:15Z</time>
      </trkpt>
      <trkpt lat="45.34906" lon="-0.23104">
        <ele>112.84765625</ele>
        <time>2018-05-18T12:45:16Z</time>
      </trkpt>
      <trkpt lat="45.34904" lon="-0.23107">
        <ele>112.98828125</ele>
        <time>2018-05-18T12:45:17Z</time>
      </trkpt>
      <trkpt lat="45.34901" lon="-0.23111">
        <ele>113.04296875</ele>
        <time>2018-05-18T12:45:18Z</time>
      </trkpt>
      <trkpt lat="45.34899" lon="-0.23114">
        <ele>113.09375</ele>
        <time>2018-05-18T12:45:19Z</time>
      </trkpt>
      <trkpt lat="45.34896" lon="-0.23118">
        <ele>113.14453125</ele>
        <time>2018-05-18T12:45:20Z</time>
      </trkpt>
      <trkpt lat="45.34893" lon="-0.23121">
        <ele>113.1953125</ele>
        <time>2018-05-18T12:45:21Z</time>
      </trkpt>
      <trkpt lat="45.34867" lon="-0.23157">
        <ele>113.57421875</ele>
        <time>2018-05-18T12:45:29Z</time>
      </trkpt>
      <trkpt lat="45.34829" lon="-0.23211">
        <ele>112.60546875</ele>
        <time>2018-05-18T12:45:39Z</time>
      </trkpt>
      <trkpt lat="45.34801" lon="-0.23253">
        <ele>111.3515625</ele>
        <time>2018-05-18T12:45:46Z</time>
      </trkpt>
      <trkpt lat="45.34772" lon="-0.233">
        <ele>107.4921875</ele>
        <time>2018-05-18T12:45:53Z</time>
      </trkpt>
      <trkpt lat="45.34767" lon="-0.23309">
        <ele>106.73828125</ele>
        <time>2018-05-18T12:45:54Z</time>
      </trkpt>
      <trkpt lat="45.34756" lon="-0.23326">
        <ele>105.12890625</ele>
        <time>2018-05-18T12:45:56Z</time>
      </trkpt>
      <trkpt lat="45.34743" lon="-0.23346">
        <ele>103.26171875</ele>
        <time>2018-05-18T12:45:58Z</time>
      </trkpt>
      <trkpt lat="45.34728" lon="-0.23367">
        <ele>101.35546875</ele>
        <time>2018-05-18T12:46:00Z</time>
      </trkpt>
      <trkpt lat="45.34711" lon="-0.23387">
        <ele>100.08203125</ele>
        <time>2018-05-18T12:46:02Z</time>
      </trkpt>
      <trkpt lat="45.34703" lon="-0.23395">
        <ele>99.73046875</ele>
        <time>2018-05-18T12:46:03Z</time>
      </trkpt>
      <trkpt lat="45.34688" lon="-0.23407">
        <ele>99.40625</ele>
        <time>2018-05-18T12:46:05Z</time>
      </trkpt>
      <trkpt lat="45.34681" lon="-0.23411">
        <ele>99.37109375</ele>
        <time>2018-05-18T12:46:06Z</time>
      </trkpt>
      <trkpt lat="45.34669" lon="-0.23417">
        <ele>99.859375</ele>
        <time>2018-05-18T12:46:08Z</time>
      </trkpt>
      <trkpt lat="45.34646" lon="-0.23431">
        <ele>100.94140625</ele>
        <time>2018-05-18T12:46:12Z</time>
      </trkpt>
      <trkpt lat="45.34641" lon="-0.23434">
        <ele>101.3671875</ele>
        <time>2018-05-18T12:46:13Z</time>
      </trkpt>
      <trkpt lat="45.34635" lon="-0.23438">
        <ele>101.8046875</ele>
        <time>2018-05-18T12:46:14Z</time>
      </trkpt>
      <trkpt lat="45.34604" lon="-0.23456">
        <ele>104.12109375</ele>
        <time>2018-05-18T12:46:20Z</time>
      </trkpt>
      <trkpt lat="45.346" lon="-0.23459">
        <ele>104.44140625</ele>
        <time>2018-05-18T12:46:21Z</time>
      </trkpt>
      <trkpt lat="45.34595" lon="-0.23461">
        <ele>104.78125</ele>
        <time>2018-05-18T12:46:22Z</time>
      </trkpt>
      <trkpt lat="45.34591" lon="-0.23464">
        <ele>105.109375</ele>
        <time>2018-05-18T12:46:23Z</time>
      </trkpt>
      <trkpt lat="45.34587" lon="-0.23467">
        <ele>105.42578125</ele>
        <time>2018-05-18T12:46:24Z</time>
      </trkpt>
      <trkpt lat="45.34561" lon="-0.23483">
        <ele>107.44140625</ele>
        <time>2018-05-18T12:46:31Z</time>
      </trkpt>
      <trkpt lat="45.34538" lon="-0.23496">
        <ele>109.12890625</ele>
        <time>2018-05-18T12:46:37Z</time>
      </trkpt>
      <trkpt lat="45.34509" lon="-0.23512">
        <ele>111.1640625</ele>
        <time>2018-05-18T12:46:44Z</time>
      </trkpt>
      <trkpt lat="45.34474" lon="-0.23534">
        <ele>113.25</ele>
        <time>2018-05-18T12:46:53Z</time>
      </trkpt>
      <trkpt lat="45.34462" lon="-0.2355">
        <ele>114.046875</ele>
        <time>2018-05-18T12:46:57Z</time>
      </trkpt>
      <trkpt lat="45.34462" lon="-0.23555">
        <ele>114.14453125</ele>
        <time>2018-05-18T12:46:58Z</time>
      </trkpt>
      <trkpt lat="45.34463" lon="-0.2356">
        <ele>114.19921875</ele>
        <time>2018-05-18T12:46:59Z</time>
      </trkpt>
      <trkpt lat="45.34465" lon="-0.23565">
        <ele>114.23046875</ele>
        <time>2018-05-18T12:47:00Z</time>
      </trkpt>
      <trkpt lat="45.34467" lon="-0.2357">
        <ele>114.25390625</ele>
        <time>2018-05-18T12:47:01Z</time>
      </trkpt>
      <trkpt lat="45.34474" lon="-0.23589">
        <ele>114.32421875</ele>
        <time>2018-05-18T12:47:05Z</time>
      </trkpt>
      <trkpt lat="45.34476" lon="-0.23594">
        <ele>114.33984375</ele>
        <time>2018-05-18T12:47:06Z</time>
      </trkpt>
      <trkpt lat="45.34478" lon="-0.23599">
        <ele>114.30078125</ele>
        <time>2018-05-18T12:47:07Z</time>
      </trkpt>
      <trkpt lat="45.3448" lon="-0.23603">
        <ele>114.19140625</ele>
        <time>2018-05-18T12:47:08Z</time>
      </trkpt>
      <trkpt lat="45.3448" lon="-0.23609">
        <ele>114.12109375</ele>
        <time>2018-05-18T12:47:09Z</time>
      </trkpt>
      <trkpt lat="45.34478" lon="-0.23614">
        <ele>114.1171875</ele>
        <time>2018-05-18T12:47:10Z</time>
      </trkpt>
      <trkpt lat="45.34475" lon="-0.23617">
        <ele>114.16796875</ele>
        <time>2018-05-18T12:47:11Z</time>
      </trkpt>
      <trkpt lat="45.34472" lon="-0.23619">
        <ele>114.24609375</ele>
        <time>2018-05-18T12:47:12Z</time>
      </trkpt>
      <trkpt lat="45.34468" lon="-0.23621">
        <ele>114.328125</ele>
        <time>2018-05-18T12:47:13Z</time>
      </trkpt>
      <trkpt lat="45.34422" lon="-0.23646">
        <ele>114.10546875</ele>
        <time>2018-05-18T12:47:24Z</time>
      </trkpt>
      <trkpt lat="45.34378" lon="-0.2367">
        <ele>113.52734375</ele>
        <time>2018-05-18T12:47:33Z</time>
      </trkpt>
      <trkpt lat="45.34355" lon="-0.23681">
        <ele>113.015625</ele>
        <time>2018-05-18T12:47:37Z</time>
      </trkpt>
      <trkpt lat="45.34311" lon="-0.23705">
        <ele>112.73828125</ele>
        <time>2018-05-18T12:47:45Z</time>
      </trkpt>
      <trkpt lat="45.34305" lon="-0.23707">
        <ele>112.7890625</ele>
        <time>2018-05-18T12:47:46Z</time>
      </trkpt>
      <trkpt lat="45.34299" lon="-0.23708">
        <ele>112.87109375</ele>
        <time>2018-05-18T12:47:47Z</time>
      </trkpt>
      <trkpt lat="45.34259" lon="-0.23703">
        <ele>113.64453125</ele>
        <time>2018-05-18T12:47:54Z</time>
      </trkpt>
      <trkpt lat="45.34206" lon="-0.23691">
        <ele>113.828125</ele>
        <time>2018-05-18T12:48:03Z</time>
      </trkpt>
      <trkpt lat="45.3417" lon="-0.23683">
        <ele>113.22265625</ele>
        <time>2018-05-18T12:48:09Z</time>
      </trkpt>
      <trkpt lat="45.34163" lon="-0.23685">
        <ele>113.0546875</ele>
        <time>2018-05-18T12:48:10Z</time>
      </trkpt>
      <trkpt lat="45.34158" lon="-0.23688">
        <ele>112.9296875</ele>
        <time>2018-05-18T12:48:11Z</time>
      </trkpt>
      <trkpt lat="45.34153" lon="-0.23693">
        <ele>112.84765625</ele>
        <time>2018-05-18T12:48:12Z</time>
      </trkpt>
      <trkpt lat="45.3415" lon="-0.237">
        <ele>112.77734375</ele>
        <time>2018-05-18T12:48:13Z</time>
      </trkpt>
      <trkpt lat="45.34146" lon="-0.23707">
        <ele>112.68359375</ele>
        <time>2018-05-18T12:48:14Z</time>
      </trkpt>
      <trkpt lat="45.34141" lon="-0.23713">
        <ele>112.5859375</ele>
        <time>2018-05-18T12:48:15Z</time>
      </trkpt>
      <trkpt lat="45.34136" lon="-0.23718">
        <ele>112.50390625</ele>
        <time>2018-05-18T12:48:16Z</time>
      </trkpt>
      <trkpt lat="45.34121" lon="-0.23737">
        <ele>112.30078125</ele>
        <time>2018-05-18T12:48:19Z</time>
      </trkpt>
      <trkpt lat="45.34104" lon="-0.23765">
        <ele>111.796875</ele>
        <time>2018-05-18T12:48:23Z</time>
      </trkpt>
      <trkpt lat="45.341" lon="-0.23771">
        <ele>111.51171875</ele>
        <time>2018-05-18T12:48:24Z</time>
      </trkpt>
      <trkpt lat="45.34095" lon="-0.23774">
        <ele>111.2265625</ele>
        <time>2018-05-18T12:48:25Z</time>
      </trkpt>
      <trkpt lat="45.3409" lon="-0.23775">
        <ele>110.95703125</ele>
        <time>2018-05-18T12:48:26Z</time>
      </trkpt>
      <trkpt lat="45.34085" lon="-0.23775">
        <ele>110.69140625</ele>
        <time>2018-05-18T12:48:27Z</time>
      </trkpt>
      <trkpt lat="45.34079" lon="-0.23774">
        <ele>110.41796875</ele>
        <time>2018-05-18T12:48:28Z</time>
      </trkpt>
      <trkpt lat="45.34073" lon="-0.23772">
        <ele>110.125</ele>
        <time>2018-05-18T12:48:29Z</time>
      </trkpt>
      <trkpt lat="45.34067" lon="-0.23771">
        <ele>109.859375</ele>
        <time>2018-05-18T12:48:30Z</time>
      </trkpt>
      <trkpt lat="45.34046" lon="-0.23768">
        <ele>109.06640625</ele>
        <time>2018-05-18T12:48:33Z</time>
      </trkpt>
      <trkpt lat="45.34029" lon="-0.23768">
        <ele>108.44140625</ele>
        <time>2018-05-18T12:48:35Z</time>
      </trkpt>
      <trkpt lat="45.33994" lon="-0.23774">
        <ele>105.7890625</ele>
        <time>2018-05-18T12:48:39Z</time>
      </trkpt>
      <trkpt lat="45.33963" lon="-0.23779">
        <ele>102.7578125</ele>
        <time>2018-05-18T12:48:42Z</time>
      </trkpt>
      <trkpt lat="45.33935" lon="-0.23783">
        <ele>98.6953125</ele>
        <time>2018-05-18T12:48:45Z</time>
      </trkpt>
      <trkpt lat="45.33912" lon="-0.23786">
        <ele>95.3203125</ele>
        <time>2018-05-18T12:48:49Z</time>
      </trkpt>
      <trkpt lat="45.3391" lon="-0.23784">
        <ele>95.08203125</ele>
        <time>2018-05-18T12:48:50Z</time>
      </trkpt>
      <trkpt lat="45.33909" lon="-0.23781">
        <ele>95.05078125</ele>
        <time>2018-05-18T12:48:51Z</time>
      </trkpt>
      <trkpt lat="45.33908" lon="-0.23776">
        <ele>95.0390625</ele>
        <time>2018-05-18T12:48:52Z</time>
      </trkpt>
      <trkpt lat="45.33895" lon="-0.23739">
        <ele>94.80859375</ele>
        <time>2018-05-18T12:48:57Z</time>
      </trkpt>
      <trkpt lat="45.33888" lon="-0.23721">
        <ele>94.53515625</ele>
        <time>2018-05-18T12:48:59Z</time>
      </trkpt>
      <trkpt lat="45.33883" lon="-0.23713">
        <ele>94.234375</ele>
        <time>2018-05-18T12:49:00Z</time>
      </trkpt>
      <trkpt lat="45.33878" lon="-0.23705">
        <ele>93.7265625</ele>
        <time>2018-05-18T12:49:01Z</time>
      </trkpt>
      <trkpt lat="45.33872" lon="-0.23699">
        <ele>92.9921875</ele>
        <time>2018-05-18T12:49:02Z</time>
      </trkpt>
      <trkpt lat="45.33865" lon="-0.23694">
        <ele>92.1953125</ele>
        <time>2018-05-18T12:49:03Z</time>
      </trkpt>
      <trkpt lat="45.33857" lon="-0.2369">
        <ele>91.33984375</ele>
        <time>2018-05-18T12:49:04Z</time>
      </trkpt>
      <trkpt lat="45.33838" lon="-0.23681">
        <ele>90.57421875</ele>
        <time>2018-05-18T12:49:07Z</time>
      </trkpt>
      <trkpt lat="45.33824" lon="-0.23675">
        <ele>90.8671875</ele>
        <time>2018-05-18T12:49:10Z</time>
      </trkpt>
      <trkpt lat="45.33816" lon="-0.23671">
        <ele>91.05859375</ele>
        <time>2018-05-18T12:49:12Z</time>
      </trkpt>
      <trkpt lat="45.3381" lon="-0.23668">
        <ele>91.21875</ele>
        <time>2018-05-18T12:49:14Z</time>
      </trkpt>
      <trkpt lat="45.3379" lon="-0.23658">
        <ele>92.1171875</ele>
        <time>2018-05-18T12:49:22Z</time>
      </trkpt>
      <trkpt lat="45.33769" lon="-0.23647">
        <ele>94.81640625</ele>
        <time>2018-05-18T12:49:31Z</time>
      </trkpt>
      <trkpt lat="45.33749" lon="-0.23627">
        <ele>98.05078125</ele>
        <time>2018-05-18T12:49:41Z</time>
      </trkpt>
      <trkpt lat="45.33734" lon="-0.23606">
        <ele>100.83203125</ele>
        <time>2018-05-18T12:49:50Z</time>
      </trkpt>
      <trkpt lat="45.33716" lon="-0.2358">
        <ele>103.52734375</ele>
        <time>2018-05-18T12:50:00Z</time>
      </trkpt>
      <trkpt lat="45.33698" lon="-0.23548">
        <ele>106.375</ele>
        <time>2018-05-18T12:50:11Z</time>
      </trkpt>
      <trkpt lat="45.33681" lon="-0.23519">
        <ele>108.06640625</ele>
        <time>2018-05-18T12:50:21Z</time>
      </trkpt>
      <trkpt lat="45.33668" lon="-0.23487">
        <ele>109.01171875</ele>
        <time>2018-05-18T12:50:31Z</time>
      </trkpt>
      <trkpt lat="45.33658" lon="-0.23462">
        <ele>110.125</ele>
        <time>2018-05-18T12:50:40Z</time>
      </trkpt>
      <trkpt lat="45.3365" lon="-0.23442">
        <ele>111.28125</ele>
        <time>2018-05-18T12:50:47Z</time>
      </trkpt>
      <trkpt lat="45.33634" lon="-0.23412">
        <ele>113.61328125</ele>
        <time>2018-05-18T12:50:58Z</time>
      </trkpt>
      <trkpt lat="45.33622" lon="-0.23388">
        <ele>115.18359375</ele>
        <time>2018-05-18T12:51:07Z</time>
      </trkpt>
      <trkpt lat="45.33615" lon="-0.23368">
        <ele>116.5703125</ele>
        <time>2018-05-18T12:51:15Z</time>
      </trkpt>
      <trkpt lat="45.33608" lon="-0.23339">
        <ele>118.921875</ele>
        <time>2018-05-18T12:51:25Z</time>
      </trkpt>
      <trkpt lat="45.33601" lon="-0.23314">
        <ele>120.99609375</ele>
        <time>2018-05-18T12:51:34Z</time>
      </trkpt>
      <trkpt lat="45.33593" lon="-0.23286">
        <ele>122.7578125</ele>
        <time>2018-05-18T12:51:43Z</time>
      </trkpt>
      <trkpt lat="45.33577" lon="-0.23261">
        <ele>124.5625</ele>
        <time>2018-05-18T12:51:51Z</time>
      </trkpt>
      <trkpt lat="45.33555" lon="-0.23241">
        <ele>125.61328125</ele>
        <time>2018-05-18T12:51:59Z</time>
      </trkpt>
      <trkpt lat="45.33539" lon="-0.23225">
        <ele>126.23828125</ele>
        <time>2018-05-18T12:52:04Z</time>
      </trkpt>
      <trkpt lat="45.33535" lon="-0.23222">
        <ele>126.3515625</ele>
        <time>2018-05-18T12:52:05Z</time>
      </trkpt>
      <trkpt lat="45.33511" lon="-0.2319">
        <ele>126.3125</ele>
        <time>2018-05-18T12:52:13Z</time>
      </trkpt>
      <trkpt lat="45.33496" lon="-0.23162">
        <ele>126.15625</ele>
        <time>2018-05-18T12:52:20Z</time>
      </trkpt>
      <trkpt lat="45.33481" lon="-0.23137">
        <ele>127.03125</ele>
        <time>2018-05-18T12:52:27Z</time>
      </trkpt>
      <trkpt lat="45.33466" lon="-0.2314">
        <ele>128.421875</ele>
        <time>2018-05-18T12:52:32Z</time>
      </trkpt>
      <trkpt lat="45.33439" lon="-0.23154">
        <ele>129.39453125</ele>
        <time>2018-05-18T12:52:41Z</time>
      </trkpt>
      <trkpt lat="45.33419" lon="-0.23164">
        <ele>129.6484375</ele>
        <time>2018-05-18T12:52:45Z</time>
      </trkpt>
      <trkpt lat="45.33406" lon="-0.2317">
        <ele>129.67578125</ele>
        <time>2018-05-18T12:52:47Z</time>
      </trkpt>
      <trkpt lat="45.3339" lon="-0.23178">
        <ele>127.79296875</ele>
        <time>2018-05-18T12:52:49Z</time>
      </trkpt>
      <trkpt lat="45.33371" lon="-0.23188">
        <ele>125.35546875</ele>
        <time>2018-05-18T12:52:51Z</time>
      </trkpt>
      <trkpt lat="45.33351" lon="-0.23198">
        <ele>122.61328125</ele>
        <time>2018-05-18T12:52:53Z</time>
      </trkpt>
      <trkpt lat="45.3333" lon="-0.23209">
        <ele>119.625</ele>
        <time>2018-05-18T12:52:55Z</time>
      </trkpt>
      <trkpt lat="45.3331" lon="-0.23219">
        <ele>116.890625</ele>
        <time>2018-05-18T12:52:57Z</time>
      </trkpt>
      <trkpt lat="45.33278" lon="-0.23237">
        <ele>112.54296875</ele>
        <time>2018-05-18T12:53:00Z</time>
      </trkpt>
      <trkpt lat="45.3326" lon="-0.2325">
        <ele>109.97265625</ele>
        <time>2018-05-18T12:53:02Z</time>
      </trkpt>
      <trkpt lat="45.33246" lon="-0.23259">
        <ele>108.1328125</ele>
        <time>2018-05-18T12:53:04Z</time>
      </trkpt>
      <trkpt lat="45.33241" lon="-0.23259">
        <ele>107.4609375</ele>
        <time>2018-05-18T12:53:05Z</time>
      </trkpt>
      <trkpt lat="45.33236" lon="-0.23256">
        <ele>107.140625</ele>
        <time>2018-05-18T12:53:06Z</time>
      </trkpt>
      <trkpt lat="45.33232" lon="-0.2325">
        <ele>107.21484375</ele>
        <time>2018-05-18T12:53:07Z</time>
      </trkpt>
      <trkpt lat="45.33229" lon="-0.23244">
        <ele>107.29296875</ele>
        <time>2018-05-18T12:53:08Z</time>
      </trkpt>
      <trkpt lat="45.33225" lon="-0.23237">
        <ele>107.36328125</ele>
        <time>2018-05-18T12:53:09Z</time>
      </trkpt>
      <trkpt lat="45.33204" lon="-0.23197">
        <ele>107.83203125</ele>
        <time>2018-05-18T12:53:16Z</time>
      </trkpt>
      <trkpt lat="45.332" lon="-0.23193">
        <ele>107.828125</ele>
        <time>2018-05-18T12:53:17Z</time>
      </trkpt>
      <trkpt lat="45.33196" lon="-0.23192">
        <ele>107.72265625</ele>
        <time>2018-05-18T12:53:18Z</time>
      </trkpt>
      <trkpt lat="45.33192" lon="-0.23194">
        <ele>107.55859375</ele>
        <time>2018-05-18T12:53:19Z</time>
      </trkpt>
      <trkpt lat="45.33189" lon="-0.23196">
        <ele>107.39453125</ele>
        <time>2018-05-18T12:53:20Z</time>
      </trkpt>
      <trkpt lat="45.33186" lon="-0.23199">
        <ele>107.25390625</ele>
        <time>2018-05-18T12:53:21Z</time>
      </trkpt>
      <trkpt lat="45.33184" lon="-0.23202">
        <ele>107.13671875</ele>
        <time>2018-05-18T12:53:22Z</time>
      </trkpt>
      <trkpt lat="45.33169" lon="-0.2322">
        <ele>108.0546875</ele>
        <time>2018-05-18T12:53:30Z</time>
      </trkpt>
      <trkpt lat="45.33154" lon="-0.23235">
        <ele>109.296875</ele>
        <time>2018-05-18T12:53:38Z</time>
      </trkpt>
      <trkpt lat="45.3314" lon="-0.23253">
        <ele>110.703125</ele>
        <time>2018-05-18T12:53:47Z</time>
      </trkpt>
      <trkpt lat="45.33124" lon="-0.23277">
        <ele>111.53515625</ele>
        <time>2018-05-18T12:53:56Z</time>
      </trkpt>
      <trkpt lat="45.33105" lon="-0.23304">
        <ele>110.5625</ele>
        <time>2018-05-18T12:54:03Z</time>
      </trkpt>
      <trkpt lat="45.33085" lon="-0.23324">
        <ele>109.8515625</ele>
        <time>2018-05-18T12:54:07Z</time>
      </trkpt>
      <trkpt lat="45.33071" lon="-0.23335">
        <ele>109.42578125</ele>
        <time>2018-05-18T12:54:09Z</time>
      </trkpt>
      <trkpt lat="45.33055" lon="-0.23345">
        <ele>108.76171875</ele>
        <time>2018-05-18T12:54:11Z</time>
      </trkpt>
      <trkpt lat="45.33028" lon="-0.23358">
        <ele>107.8359375</ele>
        <time>2018-05-18T12:54:15Z</time>
      </trkpt>
      <trkpt lat="45.33023" lon="-0.23359">
        <ele>107.68359375</ele>
        <time>2018-05-18T12:54:16Z</time>
      </trkpt>
      <trkpt lat="45.32996" lon="-0.23372">
        <ele>106.77734375</ele>
        <time>2018-05-18T12:54:22Z</time>
      </trkpt>
      <trkpt lat="45.32992" lon="-0.23375">
        <ele>106.55078125</ele>
        <time>2018-05-18T12:54:23Z</time>
      </trkpt>
      <trkpt lat="45.32988" lon="-0.2338">
        <ele>106.34765625</ele>
        <time>2018-05-18T12:54:24Z</time>
      </trkpt>
      <trkpt lat="45.32986" lon="-0.23387">
        <ele>106.140625</ele>
        <time>2018-05-18T12:54:25Z</time>
      </trkpt>
      <trkpt lat="45.32984" lon="-0.23394">
        <ele>105.93359375</ele>
        <time>2018-05-18T12:54:26Z</time>
      </trkpt>
      <trkpt lat="45.32983" lon="-0.23401">
        <ele>105.73046875</ele>
        <time>2018-05-18T12:54:27Z</time>
      </trkpt>
      <trkpt lat="45.32981" lon="-0.23409">
        <ele>105.53125</ele>
        <time>2018-05-18T12:54:28Z</time>
      </trkpt>
      <trkpt lat="45.32978" lon="-0.23416">
        <ele>105.33984375</ele>
        <time>2018-05-18T12:54:29Z</time>
      </trkpt>
      <trkpt lat="45.32975" lon="-0.23423">
        <ele>105.16796875</ele>
        <time>2018-05-18T12:54:30Z</time>
      </trkpt>
      <trkpt lat="45.32946" lon="-0.2347">
        <ele>104.47265625</ele>
        <time>2018-05-18T12:54:37Z</time>
      </trkpt>
      <trkpt lat="45.32939" lon="-0.23484">
        <ele>104.40625</ele>
        <time>2018-05-18T12:54:39Z</time>
      </trkpt>
      <trkpt lat="45.32937" lon="-0.23492">
        <ele>104.19140625</ele>
        <time>2018-05-18T12:54:40Z</time>
      </trkpt>
      <trkpt lat="45.32937" lon="-0.23499">
        <ele>103.90234375</ele>
        <time>2018-05-18T12:54:41Z</time>
      </trkpt>
      <trkpt lat="45.3294" lon="-0.23505">
        <ele>103.57421875</ele>
        <time>2018-05-18T12:54:42Z</time>
      </trkpt>
      <trkpt lat="45.32943" lon="-0.23512">
        <ele>103.1953125</ele>
        <time>2018-05-18T12:54:43Z</time>
      </trkpt>
      <trkpt lat="45.32946" lon="-0.23519">
        <ele>102.7734375</ele>
        <time>2018-05-18T12:54:44Z</time>
      </trkpt>
      <trkpt lat="45.32948" lon="-0.23527">
        <ele>102.3203125</ele>
        <time>2018-05-18T12:54:45Z</time>
      </trkpt>
      <trkpt lat="45.32951" lon="-0.23534">
        <ele>101.87109375</ele>
        <time>2018-05-18T12:54:46Z</time>
      </trkpt>
      <trkpt lat="45.32952" lon="-0.23542">
        <ele>101.43359375</ele>
        <time>2018-05-18T12:54:47Z</time>
      </trkpt>
      <trkpt lat="45.32953" lon="-0.23549">
        <ele>101.37109375</ele>
        <time>2018-05-18T12:54:48Z</time>
      </trkpt>
      <trkpt lat="45.32953" lon="-0.23557">
        <ele>101.37890625</ele>
        <time>2018-05-18T12:54:49Z</time>
      </trkpt>
      <trkpt lat="45.32951" lon="-0.23565">
        <ele>101.421875</ele>
        <time>2018-05-18T12:54:50Z</time>
      </trkpt>
      <trkpt lat="45.3295" lon="-0.23572">
        <ele>101.47265625</ele>
        <time>2018-05-18T12:54:51Z</time>
      </trkpt>
      <trkpt lat="45.32948" lon="-0.23579">
        <ele>101.53515625</ele>
        <time>2018-05-18T12:54:52Z</time>
      </trkpt>
      <trkpt lat="45.32945" lon="-0.23585">
        <ele>101.60546875</ele>
        <time>2018-05-18T12:54:53Z</time>
      </trkpt>
      <trkpt lat="45.32943" lon="-0.2359">
        <ele>101.67578125</ele>
        <time>2018-05-18T12:54:54Z</time>
      </trkpt>
      <trkpt lat="45.3294" lon="-0.23596">
        <ele>101.75390625</ele>
        <time>2018-05-18T12:54:55Z</time>
      </trkpt>
      <trkpt lat="45.32937" lon="-0.23601">
        <ele>101.99609375</ele>
        <time>2018-05-18T12:54:56Z</time>
      </trkpt>
      <trkpt lat="45.32933" lon="-0.23606">
        <ele>102.296875</ele>
        <time>2018-05-18T12:54:57Z</time>
      </trkpt>
      <trkpt lat="45.32925" lon="-0.23615">
        <ele>102.921875</ele>
        <time>2018-05-18T12:54:59Z</time>
      </trkpt>
      <trkpt lat="45.3292" lon="-0.23619">
        <ele>103.22265625</ele>
        <time>2018-05-18T12:55:00Z</time>
      </trkpt>
      <trkpt lat="45.32896" lon="-0.23634">
        <ele>104.45703125</ele>
        <time>2018-05-18T12:55:06Z</time>
      </trkpt>
      <trkpt lat="45.32887" lon="-0.23636">
        <ele>104.58984375</ele>
        <time>2018-05-18T12:55:09Z</time>
      </trkpt>
      <trkpt lat="45.32885" lon="-0.23633">
        <ele>104.55859375</ele>
        <time>2018-05-18T12:55:10Z</time>
      </trkpt>
      <trkpt lat="45.32884" lon="-0.23652">
        <ele>104.99609375</ele>
        <time>2018-05-18T12:55:11Z</time>
      </trkpt>
      <trkpt lat="45.32879" lon="-0.23676">
        <ele>106.2578125</ele>
        <time>2018-05-18T12:55:12Z</time>
      </trkpt>
      <trkpt lat="45.32873" lon="-0.23704">
        <ele>107.80078125</ele>
        <time>2018-05-18T12:55:13Z</time>
      </trkpt>
      <trkpt lat="45.3287" lon="-0.23735">
        <ele>109.796875</ele>
        <time>2018-05-18T12:55:14Z</time>
      </trkpt>
      <trkpt lat="45.32862" lon="-0.23769">
        <ele>112.06640625</ele>
        <time>2018-05-18T12:55:24Z</time>
      </trkpt>
      <trkpt lat="45.32859" lon="-0.23794">
        <ele>113.375</ele>
        <time>2018-05-18T12:55:32Z</time>
      </trkpt>
      <trkpt lat="45.32865" lon="-0.23846">
        <ele>115.05078125</ele>
      </trkpt>
      <trkpt lat="45.32872" lon="-0.23896">
        <ele>116.94140625</ele>
      </trkpt>
      <trkpt lat="45.32882" lon="-0.2396">
        <ele>120.953125</ele>
      </trkpt>
      <trkpt lat="45.32883" lon="-0.23983">
        <ele>122.43359375</ele>
      </trkpt>
      <trkpt lat="45.32878" lon="-0.23998">
        <ele>123.2890625</ele>
      </trkpt>
      <trkpt lat="45.3287" lon="-0.24013">
        <ele>124.15234375</ele>
      </trkpt>
      <trkpt lat="45.32854" lon="-0.24039">
        <ele>125.88671875</ele>
      </trkpt>
      <trkpt lat="45.32838" lon="-0.24065">
        <ele>126.8515625</ele>
      </trkpt>
      <trkpt lat="45.3283" lon="-0.24083">
        <ele>127.6875</ele>
      </trkpt>
      <trkpt lat="45.32826" lon="-0.241">
        <ele>128.63671875</ele>
      </trkpt>
      <trkpt lat="45.32823" lon="-0.24118">
        <ele>129.83984375</ele>
      </trkpt>
      <trkpt lat="45.32823" lon="-0.24139">
        <ele>131.203125</ele>
      </trkpt>
      <trkpt lat="45.32821" lon="-0.24186">
        <ele>133.83203125</ele>
      </trkpt>
      <trkpt lat="45.32819" lon="-0.24239">
        <ele>136.7109375</ele>
      </trkpt>
      <trkpt lat="45.32817" lon="-0.24286">
        <ele>139.23828125</ele>
      </trkpt>
      <trkpt lat="45.32815" lon="-0.24315">
        <ele>140.78515625</ele>
      </trkpt>
      <trkpt lat="45.32788" lon="-0.24315">
        <ele>140.87890625</ele>
      </trkpt>
      <trkpt lat="45.3277" lon="-0.24319">
        <ele>141.45703125</ele>
      </trkpt>
      <trkpt lat="45.32739" lon="-0.24329">
        <ele>142.37890625</ele>
      </trkpt>
      <trkpt lat="45.32709" lon="-0.24346">
        <ele>142.7109375</ele>
      </trkpt>
      <trkpt lat="45.32686" lon="-0.24359">
        <ele>143.19140625</ele>
      </trkpt>
      <trkpt lat="45.32674" lon="-0.24367">
        <ele>143.46875</ele>
      </trkpt>
      <trkpt lat="45.32664" lon="-0.2437">
        <ele>143.4609375</ele>
      </trkpt>
      <trkpt lat="45.32655" lon="-0.24371">
        <ele>143.3359375</ele>
      </trkpt>
      <trkpt lat="45.32655" lon="-0.24334">
        <ele>141.67578125</ele>
      </trkpt>
      <trkpt lat="45.32652" lon="-0.24323">
        <ele>141.203125</ele>
      </trkpt>
      <trkpt lat="45.32652" lon="-0.24319">
        <ele>141.03125</ele>
      </trkpt>
      <trkpt lat="45.3264" lon="-0.24285">
        <ele>139.66796875</ele>
      </trkpt>
      <trkpt lat="45.3262" lon="-0.24227">
        <ele>136.96484375</ele>
      </trkpt>
      <trkpt lat="45.32604" lon="-0.24191">
        <ele>135.3671875</ele>
      </trkpt>
      <trkpt lat="45.32589" lon="-0.24172">
        <ele>134.984375</ele>
      </trkpt>
      <trkpt lat="45.3253" lon="-0.24119">
        <ele>133.046875</ele>
      </trkpt>
      <trkpt lat="45.32505" lon="-0.24096">
        <ele>132.97265625</ele>
      </trkpt>
      <trkpt lat="45.32491" lon="-0.2407">
        <ele>132.44921875</ele>
      </trkpt>
      <trkpt lat="45.32478" lon="-0.24018">
        <ele>132.5078125</ele>
      </trkpt>
      <trkpt lat="45.32473" lon="-0.2399">
        <ele>132.71875</ele>
      </trkpt>
      <trkpt lat="45.32469" lon="-0.23973">
        <ele>133.0859375</ele>
      </trkpt>
      <trkpt lat="45.32465" lon="-0.23943">
        <ele>133.4453125</ele>
      </trkpt>
      <trkpt lat="45.32463" lon="-0.23932">
        <ele>133.6796875</ele>
      </trkpt>
      <trkpt lat="45.32431" lon="-0.23946">
        <ele>137.7734375</ele>
      </trkpt>
      <trkpt lat="45.32425" lon="-0.23946">
        <ele>138.453125</ele>
      </trkpt>
      <trkpt lat="45.32422" lon="-0.23943">
        <ele>138.84765625</ele>
      </trkpt>
      <trkpt lat="45.32418" lon="-0.23936">
        <ele>139.359375</ele>
      </trkpt>
      <trkpt lat="45.32398" lon="-0.23866">
        <ele>141.98046875</ele>
      </trkpt>
      <trkpt lat="45.32394" lon="-0.23846">
        <ele>141.8984375</ele>
      </trkpt>
      <trkpt lat="45.32392" lon="-0.23809">
        <ele>141.58203125</ele>
      </trkpt>
      <trkpt lat="45.32391" lon="-0.23771">
        <ele>140.88671875</ele>
      </trkpt>
      <trkpt lat="45.32389" lon="-0.23748">
        <ele>140.90234375</ele>
      </trkpt>
      <trkpt lat="45.32385" lon="-0.23729">
        <ele>141.0234375</ele>
      </trkpt>
      <trkpt lat="45.32377" lon="-0.23703">
        <ele>140.94140625</ele>
      </trkpt>
      <trkpt lat="45.32359" lon="-0.23666">
        <ele>140.21875</ele>
      </trkpt>
      <trkpt lat="45.32318" lon="-0.23582">
        <ele>142.4140625</ele>
      </trkpt>
      <trkpt lat="45.32286" lon="-0.23541">
        <ele>144.30859375</ele>
      </trkpt>
      <trkpt lat="45.32253" lon="-0.23498">
        <ele>147.03515625</ele>
      </trkpt>
      <trkpt lat="45.32244" lon="-0.23482">
        <ele>147.7890625</ele>
      </trkpt>
      <trkpt lat="45.32235" lon="-0.23462">
        <ele>148</ele>
      </trkpt>
      <trkpt lat="45.3223" lon="-0.23439">
        <ele>148</ele>
      </trkpt>
      <trkpt lat="45.32227" lon="-0.23403">
        <ele>148</ele>
      </trkpt>
      <trkpt lat="45.32226" lon="-0.23353">
        <ele>147.91015625</ele>
      </trkpt>
      <trkpt lat="45.32225" lon="-0.23335">
        <ele>147.828125</ele>
      </trkpt>
      <trkpt lat="45.3222" lon="-0.23309">
        <ele>147.66796875</ele>
      </trkpt>
      <trkpt lat="45.32213" lon="-0.23257">
        <ele>147.546875</ele>
      </trkpt>
      <trkpt lat="45.32206" lon="-0.23216">
        <ele>147.41015625</ele>
      </trkpt>
      <trkpt lat="45.32202" lon="-0.23201">
        <ele>147.33984375</ele>
      </trkpt>
      <trkpt lat="45.32192" lon="-0.23177">
        <ele>147.1640625</ele>
      </trkpt>
      <trkpt lat="45.32184" lon="-0.23161">
        <ele>147.0234375</ele>
      </trkpt>
      <trkpt lat="45.32175" lon="-0.23132">
        <ele>146.171875</ele>
      </trkpt>
      <trkpt lat="45.32168" lon="-0.23104">
        <ele>145.3046875</ele>
      </trkpt>
      <trkpt lat="45.32158" lon="-0.23053">
        <ele>142.69140625</ele>
      </trkpt>
      <trkpt lat="45.32148" lon="-0.23003">
        <ele>139.80078125</ele>
      </trkpt>
      <trkpt lat="45.32137" lon="-0.22948">
        <ele>136.90234375</ele>
      </trkpt>
      <trkpt lat="45.32134" lon="-0.22941">
        <ele>136.51171875</ele>
      </trkpt>
      <trkpt lat="45.32135" lon="-0.22935">
        <ele>136.32421875</ele>
      </trkpt>
      <trkpt lat="45.32118" lon="-0.22937">
        <ele>135.6796875</ele>
      </trkpt>
      <trkpt lat="45.3205" lon="-0.22948">
        <ele>131.921875</ele>
      </trkpt>
      <trkpt lat="45.31987" lon="-0.22968">
        <ele>127.5546875</ele>
      </trkpt>
      <trkpt lat="45.3196" lon="-0.22973">
        <ele>125.71484375</ele>
      </trkpt>
      <trkpt lat="45.31926" lon="-0.22982">
        <ele>123.53125</ele>
      </trkpt>
      <trkpt lat="45.31886" lon="-0.22991">
        <ele>121.32421875</ele>
      </trkpt>
      <trkpt lat="45.31834" lon="-0.23002">
        <ele>118.94140625</ele>
      </trkpt>
      <trkpt lat="45.31761" lon="-0.23023">
        <ele>115.59375</ele>
      </trkpt>
      <trkpt lat="45.31694" lon="-0.23045">
        <ele>113.8515625</ele>
      </trkpt>
      <trkpt lat="45.31607" lon="-0.23067">
        <ele>112.09765625</ele>
      </trkpt>
      <trkpt lat="45.31571" lon="-0.23082">
        <ele>111.578125</ele>
      </trkpt>
      <trkpt lat="45.31497" lon="-0.23115">
        <ele>111.91015625</ele>
      </trkpt>
      <trkpt lat="45.31448" lon="-0.23139">
        <ele>111.4765625</ele>
      </trkpt>
      <trkpt lat="45.31405" lon="-0.23167">
        <ele>111.00390625</ele>
      </trkpt>
      <trkpt lat="45.31367" lon="-0.23196">
        <ele>111.15234375</ele>
      </trkpt>
      <trkpt lat="45.31337" lon="-0.23223">
        <ele>112.01171875</ele>
      </trkpt>
      <trkpt lat="45.3132" lon="-0.23245">
        <ele>113.2734375</ele>
      </trkpt>
      <trkpt lat="45.31305" lon="-0.23267">
        <ele>114.44140625</ele>
      </trkpt>
      <trkpt lat="45.31295" lon="-0.23286">
        <ele>114.97265625</ele>
      </trkpt>
      <trkpt lat="45.31286" lon="-0.23272">
        <ele>115.484375</ele>
      </trkpt>
      <trkpt lat="45.31274" lon="-0.23235">
        <ele>115.62109375</ele>
      </trkpt>
      <trkpt lat="45.31263" lon="-0.23207">
        <ele>115.68359375</ele>
      </trkpt>
      <trkpt lat="45.3126" lon="-0.23191">
        <ele>115.69140625</ele>
      </trkpt>
      <trkpt lat="45.31319" lon="-0.23165">
        <ele>113.046875</ele>
      </trkpt>
      <trkpt lat="45.3135" lon="-0.23145">
        <ele>112.15625</ele>
      </trkpt>
      <trkpt lat="45.31364" lon="-0.23131">
        <ele>112.234375</ele>
      </trkpt>
      <trkpt lat="45.31418" lon="-0.23106">
        <ele>112.671875</ele>
      </trkpt>
      <trkpt lat="45.31438" lon="-0.23096">
        <ele>113.04296875</ele>
      </trkpt>
      <trkpt lat="45.31454" lon="-0.23075">
        <ele>113.79296875</ele>
      </trkpt>
      <trkpt lat="45.3146" lon="-0.23058">
        <ele>114.42578125</ele>
      </trkpt>
      <trkpt lat="45.3146" lon="-0.23045">
        <ele>114.87109375</ele>
      </trkpt>
      <trkpt lat="45.31481" lon="-0.23039">
        <ele>114.76953125</ele>
      </trkpt>
      <trkpt lat="45.31481" lon="-0.23026">
        <ele>115.28515625</ele>
      </trkpt>
      <trkpt lat="45.31536" lon="-0.2287">
        <ele>121.5703125</ele>
      </trkpt>
      <trkpt lat="45.31567" lon="-0.22771">
        <ele>123.96484375</ele>
      </trkpt>
      <trkpt lat="45.31575" lon="-0.22751">
        <ele>124.1875</ele>
      </trkpt>
      <trkpt lat="45.31585" lon="-0.22733">
        <ele>124.45703125</ele>
      </trkpt>
      <trkpt lat="45.31616" lon="-0.22693">
        <ele>125.2734375</ele>
      </trkpt>
      <trkpt lat="45.31636" lon="-0.22664">
        <ele>125.64453125</ele>
      </trkpt>
      <trkpt lat="45.31674" lon="-0.22602">
        <ele>125.93359375</ele>
      </trkpt>
      <trkpt lat="45.31724" lon="-0.22546">
        <ele>126.4921875</ele>
      </trkpt>
      <trkpt lat="45.31745" lon="-0.22521">
        <ele>126.7578125</ele>
      </trkpt>
      <trkpt lat="45.31757" lon="-0.2249">
        <ele>126.68359375</ele>
      </trkpt>
      <trkpt lat="45.31767" lon="-0.22461">
        <ele>126.7734375</ele>
      </trkpt>
      <trkpt lat="45.31778" lon="-0.22446">
        <ele>126.890625</ele>
      </trkpt>
      <trkpt lat="45.31803" lon="-0.22417">
        <ele>126.52734375</ele>
      </trkpt>
      <trkpt lat="45.31813" lon="-0.22395">
        <ele>125.58203125</ele>
      </trkpt>
      <trkpt lat="45.31822" lon="-0.22361">
        <ele>124.65625</ele>
      </trkpt>
      <trkpt lat="45.31832" lon="-0.22298">
        <ele>124.57421875</ele>
      </trkpt>
      <trkpt lat="45.31835" lon="-0.22279">
        <ele>124.6015625</ele>
      </trkpt>
      <trkpt lat="45.3185" lon="-0.22236">
        <ele>124.5</ele>
      </trkpt>
      <trkpt lat="45.3186" lon="-0.2221">
        <ele>124.41015625</ele>
      </trkpt>
      <trkpt lat="45.31864" lon="-0.22195">
        <ele>124.24609375</ele>
      </trkpt>
      <trkpt lat="45.31864" lon="-0.22183">
        <ele>124.24609375</ele>
      </trkpt>
      <trkpt lat="45.31867" lon="-0.22173">
        <ele>124.1015625</ele>
      </trkpt>
      <trkpt lat="45.31866" lon="-0.22151">
        <ele>124.0703125</ele>
      </trkpt>
      <trkpt lat="45.31862" lon="-0.2212">
        <ele>123.30078125</ele>
      </trkpt>
      <trkpt lat="45.31855" lon="-0.22096">
        <ele>122.79296875</ele>
      </trkpt>
      <trkpt lat="45.3185" lon="-0.22058">
        <ele>122.2734375</ele>
      </trkpt>
      <trkpt lat="45.31848" lon="-0.21948">
        <ele>120.90625</ele>
      </trkpt>
      <trkpt lat="45.31848" lon="-0.21919">
        <ele>120.65625</ele>
      </trkpt>
      <trkpt lat="45.31845" lon="-0.21891">
        <ele>119.99609375</ele>
      </trkpt>
      <trkpt lat="45.31843" lon="-0.21819">
        <ele>118.74609375</ele>
      </trkpt>
      <trkpt lat="45.3184" lon="-0.2173">
        <ele>116.51171875</ele>
      </trkpt>
      <trkpt lat="45.31829" lon="-0.21675">
        <ele>114.00390625</ele>
      </trkpt>
      <trkpt lat="45.31814" lon="-0.21614">
        <ele>112.05078125</ele>
      </trkpt>
      <trkpt lat="45.31805" lon="-0.21587">
        <ele>111.33984375</ele>
      </trkpt>
      <trkpt lat="45.31799" lon="-0.21555">
        <ele>110.2421875</ele>
      </trkpt>
      <trkpt lat="45.31787" lon="-0.2141">
        <ele>110.69921875</ele>
      </trkpt>
      <trkpt lat="45.31766" lon="-0.21321">
        <ele>117.53125</ele>
      </trkpt>
      <trkpt lat="45.31763" lon="-0.21276">
        <ele>119.671875</ele>
      </trkpt>
      <trkpt lat="45.31762" lon="-0.2122">
        <ele>119.6953125</ele>
      </trkpt>
      <trkpt lat="45.31758" lon="-0.21203">
        <ele>119.34375</ele>
      </trkpt>
      <trkpt lat="45.31751" lon="-0.21184">
        <ele>118.5078125</ele>
      </trkpt>
      <trkpt lat="45.31733" lon="-0.21113">
        <ele>113.1640625</ele>
      </trkpt>
      <trkpt lat="45.31709" lon="-0.2101">
        <ele>105.09375</ele>
      </trkpt>
      <trkpt lat="45.31686" lon="-0.20901">
        <ele>97.37109375</ele>
      </trkpt>
      <trkpt lat="45.31653" lon="-0.20751">
        <ele>89.625</ele>
      </trkpt>
      <trkpt lat="45.31652" lon="-0.20741">
        <ele>89.015625</ele>
      </trkpt>
      <trkpt lat="45.31645" lon="-0.20727">
        <ele>88.125</ele>
      </trkpt>
      <trkpt lat="45.31647" lon="-0.20673">
        <ele>86.109375</ele>
      </trkpt>
      <trkpt lat="45.31644" lon="-0.20618">
        <ele>83.9609375</ele>
      </trkpt>
      <trkpt lat="45.31639" lon="-0.20541">
        <ele>79.92578125</ele>
      </trkpt>
      <trkpt lat="45.31639" lon="-0.20523">
        <ele>79.265625</ele>
      </trkpt>
      <trkpt lat="45.31637" lon="-0.20518">
        <ele>79.0859375</ele>
      </trkpt>
      <trkpt lat="45.31636" lon="-0.20471">
        <ele>77.40234375</ele>
      </trkpt>
      <trkpt lat="45.31631" lon="-0.20339">
        <ele>73.63671875</ele>
      </trkpt>
      <trkpt lat="45.31582" lon="-0.20229">
        <ele>72.66015625</ele>
      </trkpt>
      <trkpt lat="45.31573" lon="-0.20169">
        <ele>75.92578125</ele>
      </trkpt>
      <trkpt lat="45.316" lon="-0.2007">
        <ele>82.56640625</ele>
      </trkpt>
      <trkpt lat="45.31702" lon="-0.19953">
        <ele>95.88671875</ele>
      </trkpt>
      <trkpt lat="45.31727" lon="-0.19923">
        <ele>99.15625</ele>
      </trkpt>
      <trkpt lat="45.31765" lon="-0.1987">
        <ele>102.60546875</ele>
      </trkpt>
      <trkpt lat="45.31807" lon="-0.19824">
        <ele>105.58984375</ele>
      </trkpt>
      <trkpt lat="45.31872" lon="-0.19817">
        <ele>108.19140625</ele>
      </trkpt>
      <trkpt lat="45.31938" lon="-0.19728">
        <ele>109.58203125</ele>
      </trkpt>
      <trkpt lat="45.3196" lon="-0.19752">
        <ele>106.59765625</ele>
      </trkpt>
      <trkpt lat="45.31983" lon="-0.19762">
        <ele>104.1328125</ele>
      </trkpt>
      <trkpt lat="45.31985" lon="-0.19762">
        <ele>103.953125</ele>
        <time>2018-05-18T13:29:03Z</time>
      </trkpt>
      <trkpt lat="45.31991" lon="-0.19723">
        <ele>104.40625</ele>
        <time>2018-05-18T13:29:12Z</time>
      </trkpt>
      <trkpt lat="45.31998" lon="-0.19681">
        <ele>105.4375</ele>
        <time>2018-05-18T13:29:22Z</time>
      </trkpt>
      <trkpt lat="45.32003" lon="-0.19649">
        <ele>106.4296875</ele>
        <time>2018-05-18T13:29:30Z</time>
      </trkpt>
      <trkpt lat="45.32007" lon="-0.1962">
        <ele>108.125</ele>
        <time>2018-05-18T13:29:37Z</time>
      </trkpt>
      <trkpt lat="45.32016" lon="-0.19579">
        <ele>110.86328125</ele>
        <time>2018-05-18T13:29:47Z</time>
      </trkpt>
      <trkpt lat="45.32027" lon="-0.19533">
        <ele>113.70703125</ele>
        <time>2018-05-18T13:29:57Z</time>
      </trkpt>
      <trkpt lat="45.32031" lon="-0.19506">
        <ele>114.25</ele>
        <time>2018-05-18T13:30:05Z</time>
      </trkpt>
      <trkpt lat="45.31979" lon="-0.1953">
        <ele>114.25</ele>
        <time>2018-05-18T13:30:07Z</time>
      </trkpt>
      <trkpt lat="45.31896" lon="-0.19569">
        <ele>114.80859375</ele>
        <time>2018-05-18T13:30:08Z</time>
      </trkpt>
      <trkpt lat="45.31881" lon="-0.19572">
        <ele>114.796875</ele>
      </trkpt>
      <trkpt lat="45.31866" lon="-0.19571">
        <ele>114.62109375</ele>
      </trkpt>
      <trkpt lat="45.31853" lon="-0.19565">
        <ele>114.19140625</ele>
      </trkpt>
      <trkpt lat="45.31797" lon="-0.19524">
        <ele>110.35546875</ele>
      </trkpt>
      <trkpt lat="45.31712" lon="-0.19476">
        <ele>104.29296875</ele>
      </trkpt>
      <trkpt lat="45.31569" lon="-0.19397">
        <ele>101.59375</ele>
      </trkpt>
      <trkpt lat="45.31514" lon="-0.19368">
        <ele>100.984375</ele>
      </trkpt>
      <trkpt lat="45.31504" lon="-0.19366">
        <ele>100.90234375</ele>
      </trkpt>
      <trkpt lat="45.31484" lon="-0.1937">
        <ele>100.84765625</ele>
      </trkpt>
      <trkpt lat="45.31347" lon="-0.19408">
        <ele>100.48828125</ele>
      </trkpt>
      <trkpt lat="45.31334" lon="-0.19416">
        <ele>100.4140625</ele>
      </trkpt>
      <trkpt lat="45.31323" lon="-0.19432">
        <ele>100.4921875</ele>
      </trkpt>
      <trkpt lat="45.31309" lon="-0.19449">
        <ele>100.18359375</ele>
      </trkpt>
      <trkpt lat="45.31296" lon="-0.19457">
        <ele>100.0078125</ele>
      </trkpt>
      <trkpt lat="45.31276" lon="-0.19461">
        <ele>100</ele>
      </trkpt>
      <trkpt lat="45.31222" lon="-0.19467">
        <ele>99.69140625</ele>
      </trkpt>
      <trkpt lat="45.31205" lon="-0.19468">
        <ele>99.38671875</ele>
      </trkpt>
      <trkpt lat="45.31146" lon="-0.19488">
        <ele>98.328125</ele>
      </trkpt>
      <trkpt lat="45.3109" lon="-0.19496">
        <ele>96.546875</ele>
      </trkpt>
      <trkpt lat="45.31048" lon="-0.19499">
        <ele>95.9140625</ele>
      </trkpt>
      <trkpt lat="45.30949" lon="-0.19499">
        <ele>96.44140625</ele>
      </trkpt>
      <trkpt lat="45.30933" lon="-0.19501">
        <ele>96.140625</ele>
      </trkpt>
      <trkpt lat="45.30916" lon="-0.19509">
        <ele>95.73046875</ele>
      </trkpt>
      <trkpt lat="45.30895" lon="-0.19525">
        <ele>94.81640625</ele>
      </trkpt>
      <trkpt lat="45.30826" lon="-0.19579">
        <ele>91.76171875</ele>
      </trkpt>
      <trkpt lat="45.30822" lon="-0.19586">
        <ele>91.6015625</ele>
      </trkpt>
      <trkpt lat="45.3082" lon="-0.19577">
        <ele>91.640625</ele>
      </trkpt>
      <trkpt lat="45.30821" lon="-0.19567">
        <ele>91.73828125</ele>
      </trkpt>
      <trkpt lat="45.30825" lon="-0.19545">
        <ele>92.05859375</ele>
      </trkpt>
      <trkpt lat="45.30833" lon="-0.19513">
        <ele>91.45703125</ele>
      </trkpt>
      <trkpt lat="45.30835" lon="-0.19497">
        <ele>91.140625</ele>
      </trkpt>
      <trkpt lat="45.30835" lon="-0.19472">
        <ele>90.2890625</ele>
      </trkpt>
      <trkpt lat="45.30838" lon="-0.19442">
        <ele>89.4296875</ele>
      </trkpt>
      <trkpt lat="45.30841" lon="-0.19423">
        <ele>89.12109375</ele>
      </trkpt>
      <trkpt lat="45.30842" lon="-0.19403">
        <ele>88.76953125</ele>
      </trkpt>
      <trkpt lat="45.30854" lon="-0.1934">
        <ele>87.2265625</ele>
      </trkpt>
      <trkpt lat="45.30851" lon="-0.19305">
        <ele>85.42578125</ele>
      </trkpt>
      <trkpt lat="45.30857" lon="-0.19276">
        <ele>84.73046875</ele>
      </trkpt>
      <trkpt lat="45.3086" lon="-0.19259">
        <ele>84.24609375</ele>
      </trkpt>
      <trkpt lat="45.30861" lon="-0.1924">
        <ele>83.61328125</ele>
      </trkpt>
      <trkpt lat="45.30874" lon="-0.19196">
        <ele>82.8828125</ele>
      </trkpt>
      <trkpt lat="45.30909" lon="-0.19122">
        <ele>81.23046875</ele>
      </trkpt>
      <trkpt lat="45.30948" lon="-0.1906">
        <ele>77.8671875</ele>
      </trkpt>
      <trkpt lat="45.30963" lon="-0.19032">
        <ele>76.80078125</ele>
      </trkpt>
      <trkpt lat="45.30993" lon="-0.18981">
        <ele>77.1171875</ele>
      </trkpt>
      <trkpt lat="45.30998" lon="-0.18965">
        <ele>78.359375</ele>
      </trkpt>
      <trkpt lat="45.31006" lon="-0.18924">
        <ele>81.5703125</ele>
      </trkpt>
      <trkpt lat="45.31033" lon="-0.18863">
        <ele>86.74609375</ele>
      </trkpt>
      <trkpt lat="45.31119" lon="-0.18581">
        <ele>99.25</ele>
      </trkpt>
      <trkpt lat="45.31123" lon="-0.18571">
        <ele>99.765625</ele>
      </trkpt>
      <trkpt lat="45.31134" lon="-0.18555">
        <ele>100.61328125</ele>
      </trkpt>
      <trkpt lat="45.31154" lon="-0.18547">
        <ele>100.88671875</ele>
      </trkpt>
      <trkpt lat="45.31162" lon="-0.18548">
        <ele>100.859375</ele>
      </trkpt>
      <trkpt lat="45.31197" lon="-0.18526">
        <ele>101.16015625</ele>
      </trkpt>
      <trkpt lat="45.31222" lon="-0.18516">
        <ele>101.17578125</ele>
      </trkpt>
      <trkpt lat="45.31278" lon="-0.18496">
        <ele>100.35546875</ele>
      </trkpt>
      <trkpt lat="45.31329" lon="-0.18476">
        <ele>98.98828125</ele>
      </trkpt>
      <trkpt lat="45.31349" lon="-0.18469">
        <ele>98.40234375</ele>
      </trkpt>
      <trkpt lat="45.31359" lon="-0.18462">
        <ele>98.46875</ele>
      </trkpt>
      <trkpt lat="45.31393" lon="-0.18424">
        <ele>100.3125</ele>
      </trkpt>
      <trkpt lat="45.31427" lon="-0.18382">
        <ele>102.44921875</ele>
      </trkpt>
      <trkpt lat="45.31443" lon="-0.18354">
        <ele>103.1875</ele>
      </trkpt>
      <trkpt lat="45.31471" lon="-0.18297">
        <ele>104.4609375</ele>
      </trkpt>
      <trkpt lat="45.31527" lon="-0.18211">
        <ele>105.84375</ele>
      </trkpt>
      <trkpt lat="45.3159" lon="-0.18111">
        <ele>109.2890625</ele>
      </trkpt>
      <trkpt lat="45.3164" lon="-0.18018">
        <ele>112.125</ele>
      </trkpt>
      <trkpt lat="45.31648" lon="-0.18007">
        <ele>112.43359375</ele>
      </trkpt>
      <trkpt lat="45.31687" lon="-0.17911">
        <ele>114.01953125</ele>
      </trkpt>
      <trkpt lat="45.31697" lon="-0.17897">
        <ele>113.31640625</ele>
      </trkpt>
      <trkpt lat="45.31701" lon="-0.17872">
        <ele>113.62890625</ele>
        <time>2018-05-18T13:34:17Z</time>
      </trkpt>
      <trkpt lat="45.31714" lon="-0.17823">
        <ele>114.35546875</ele>
        <time>2018-05-18T13:34:27Z</time>
      </trkpt>
      <trkpt lat="45.31737" lon="-0.17765">
        <ele>115.1796875</ele>
        <time>2018-05-18T13:34:39Z</time>
      </trkpt>
      <trkpt lat="45.31758" lon="-0.1771">
        <ele>115.66796875</ele>
        <time>2018-05-18T13:34:50Z</time>
      </trkpt>
      <trkpt lat="45.3178" lon="-0.1765">
        <ele>116.25390625</ele>
        <time>2018-05-18T13:35:02Z</time>
      </trkpt>
      <trkpt lat="45.31798" lon="-0.17602">
        <ele>116.59375</ele>
        <time>2018-05-18T13:35:12Z</time>
      </trkpt>
      <trkpt lat="45.31803" lon="-0.17558">
        <ele>117.5546875</ele>
        <time>2018-05-18T13:35:21Z</time>
      </trkpt>
      <trkpt lat="45.31793" lon="-0.17516">
        <ele>120.171875</ele>
        <time>2018-05-18T13:35:30Z</time>
      </trkpt>
      <trkpt lat="45.31778" lon="-0.17475">
        <ele>122.79296875</ele>
        <time>2018-05-18T13:35:39Z</time>
      </trkpt>
      <trkpt lat="45.31767" lon="-0.17432">
        <ele>125.0234375</ele>
        <time>2018-05-18T13:35:48Z</time>
      </trkpt>
      <trkpt lat="45.3176" lon="-0.17383">
        <ele>125.9375</ele>
        <time>2018-05-18T13:35:58Z</time>
      </trkpt>
      <trkpt lat="45.31757" lon="-0.1734">
        <ele>125.54296875</ele>
        <time>2018-05-18T13:36:07Z</time>
      </trkpt>
      <trkpt lat="45.31764" lon="-0.17303">
        <ele>125.2578125</ele>
        <time>2018-05-18T13:36:15Z</time>
      </trkpt>
      <trkpt lat="45.31777" lon="-0.17252">
        <ele>125.10546875</ele>
        <time>2018-05-18T13:36:24Z</time>
      </trkpt>
      <trkpt lat="45.31798" lon="-0.17192">
        <ele>124.6484375</ele>
        <time>2018-05-18T13:36:34Z</time>
      </trkpt>
      <trkpt lat="45.31812" lon="-0.17164">
        <ele>124.14453125</ele>
        <time>2018-05-18T13:36:39Z</time>
      </trkpt>
      <trkpt lat="45.31844" lon="-0.17104">
        <ele>124.73828125</ele>
        <time>2018-05-18T13:36:50Z</time>
      </trkpt>
      <trkpt lat="45.31881" lon="-0.17056">
        <ele>123.9765625</ele>
        <time>2018-05-18T13:37:00Z</time>
      </trkpt>
      <trkpt lat="45.31939" lon="-0.16988">
        <ele>123.39453125</ele>
        <time>2018-05-18T13:37:15Z</time>
      </trkpt>
      <trkpt lat="45.31967" lon="-0.16937">
        <ele>122.99609375</ele>
        <time>2018-05-18T13:37:24Z</time>
      </trkpt>
      <trkpt lat="45.31977" lon="-0.16911">
        <ele>122.8828125</ele>
        <time>2018-05-18T13:37:28Z</time>
      </trkpt>
      <trkpt lat="45.31987" lon="-0.16865">
        <ele>122.28515625</ele>
        <time>2018-05-18T13:37:35Z</time>
      </trkpt>
      <trkpt lat="45.3199" lon="-0.16811">
        <ele>121.265625</ele>
        <time>2018-05-18T13:37:42Z</time>
      </trkpt>
      <trkpt lat="45.31988" lon="-0.16733">
        <ele>119.890625</ele>
        <time>2018-05-18T13:37:52Z</time>
      </trkpt>
      <trkpt lat="45.31987" lon="-0.16668">
        <ele>119.16015625</ele>
        <time>2018-05-18T13:38:00Z</time>
      </trkpt>
      <trkpt lat="45.31984" lon="-0.16601">
        <ele>119.16796875</ele>
        <time>2018-05-18T13:38:09Z</time>
      </trkpt>
      <trkpt lat="45.31982" lon="-0.1654">
        <ele>119.20703125</ele>
        <time>2018-05-18T13:38:17Z</time>
      </trkpt>
      <trkpt lat="45.3198" lon="-0.16466">
        <ele>118.98828125</ele>
        <time>2018-05-18T13:38:27Z</time>
      </trkpt>
      <trkpt lat="45.3198" lon="-0.16395">
        <ele>119.94921875</ele>
        <time>2018-05-18T13:38:38Z</time>
      </trkpt>
      <trkpt lat="45.31979" lon="-0.16389">
        <ele>120.11328125</ele>
        <time>2018-05-18T13:38:39Z</time>
      </trkpt>
      <trkpt lat="45.31978" lon="-0.16384">
        <ele>120.29296875</ele>
        <time>2018-05-18T13:38:40Z</time>
      </trkpt>
      <trkpt lat="45.31975" lon="-0.1638">
        <ele>120.48828125</ele>
        <time>2018-05-18T13:38:41Z</time>
      </trkpt>
      <trkpt lat="45.31971" lon="-0.16377">
        <ele>120.62890625</ele>
        <time>2018-05-18T13:38:42Z</time>
      </trkpt>
      <trkpt lat="45.31968" lon="-0.16375">
        <ele>120.76171875</ele>
        <time>2018-05-18T13:38:43Z</time>
      </trkpt>
      <trkpt lat="45.3193" lon="-0.16355">
        <ele>120.44921875</ele>
        <time>2018-05-18T13:38:51Z</time>
      </trkpt>
      <trkpt lat="45.31874" lon="-0.16322">
        <ele>118.8359375</ele>
        <time>2018-05-18T13:39:02Z</time>
      </trkpt>
      <trkpt lat="45.31857" lon="-0.16315">
        <ele>118.1328125</ele>
        <time>2018-05-18T13:39:05Z</time>
      </trkpt>
      <trkpt lat="45.31851" lon="-0.16313">
        <ele>117.859375</ele>
        <time>2018-05-18T13:39:06Z</time>
      </trkpt>
      <trkpt lat="45.31845" lon="-0.16312">
        <ele>117.57421875</ele>
        <time>2018-05-18T13:39:07Z</time>
      </trkpt>
      <trkpt lat="45.31831" lon="-0.16308">
        <ele>116.93359375</ele>
        <time>2018-05-18T13:39:09Z</time>
      </trkpt>
      <trkpt lat="45.31808" lon="-0.16298">
        <ele>115.69140625</ele>
        <time>2018-05-18T13:39:12Z</time>
      </trkpt>
      <trkpt lat="45.318" lon="-0.16295">
        <ele>115.21875</ele>
        <time>2018-05-18T13:39:13Z</time>
      </trkpt>
      <trkpt lat="45.31792" lon="-0.16291">
        <ele>114.640625</ele>
        <time>2018-05-18T13:39:14Z</time>
      </trkpt>
      <trkpt lat="45.31767" lon="-0.16279">
        <ele>112.71875</ele>
        <time>2018-05-18T13:39:17Z</time>
      </trkpt>
      <trkpt lat="45.3172" lon="-0.16255">
        <ele>109.9296875</ele>
        <time>2018-05-18T13:39:23Z</time>
      </trkpt>
      <trkpt lat="45.3166" lon="-0.16221">
        <ele>107.31640625</ele>
        <time>2018-05-18T13:39:31Z</time>
      </trkpt>
      <trkpt lat="45.31652" lon="-0.16217">
        <ele>106.9453125</ele>
        <time>2018-05-18T13:39:32Z</time>
      </trkpt>
      <trkpt lat="45.31643" lon="-0.16215">
        <ele>106.59375</ele>
        <time>2018-05-18T13:39:33Z</time>
      </trkpt>
      <trkpt lat="45.31634" lon="-0.16214">
        <ele>106.265625</ele>
        <time>2018-05-18T13:39:34Z</time>
      </trkpt>
      <trkpt lat="45.31626" lon="-0.16215">
        <ele>105.953125</ele>
        <time>2018-05-18T13:39:35Z</time>
      </trkpt>
      <trkpt lat="45.31617" lon="-0.16216">
        <ele>105.64453125</ele>
        <time>2018-05-18T13:39:36Z</time>
      </trkpt>
      <trkpt lat="45.316" lon="-0.16218">
        <ele>105.03515625</ele>
        <time>2018-05-18T13:39:38Z</time>
      </trkpt>
      <trkpt lat="45.31585" lon="-0.16215">
        <ele>104.45703125</ele>
        <time>2018-05-18T13:39:40Z</time>
      </trkpt>
      <trkpt lat="45.3158" lon="-0.16211">
        <ele>104.25390625</ele>
        <time>2018-05-18T13:39:41Z</time>
      </trkpt>
      <trkpt lat="45.31575" lon="-0.16205">
        <ele>104.1015625</ele>
        <time>2018-05-18T13:39:42Z</time>
      </trkpt>
      <trkpt lat="45.31568" lon="-0.16191">
        <ele>104.171875</ele>
        <time>2018-05-18T13:39:44Z</time>
      </trkpt>
      <trkpt lat="45.3156" lon="-0.16172">
        <ele>104.60546875</ele>
        <time>2018-05-18T13:39:47Z</time>
      </trkpt>
      <trkpt lat="45.31546" lon="-0.16134">
        <ele>105.86328125</ele>
        <time>2018-05-18T13:39:53Z</time>
      </trkpt>
      <trkpt lat="45.31543" lon="-0.16127">
        <ele>106.109375</ele>
        <time>2018-05-18T13:39:54Z</time>
      </trkpt>
      <trkpt lat="45.31541" lon="-0.16121">
        <ele>106.3671875</ele>
        <time>2018-05-18T13:39:55Z</time>
      </trkpt>
      <trkpt lat="45.31538" lon="-0.16115">
        <ele>106.6328125</ele>
        <time>2018-05-18T13:39:56Z</time>
      </trkpt>
      <trkpt lat="45.31535" lon="-0.16109">
        <ele>106.90625</ele>
        <time>2018-05-18T13:39:57Z</time>
      </trkpt>
      <trkpt lat="45.31531" lon="-0.16104">
        <ele>107.17578125</ele>
        <time>2018-05-18T13:39:58Z</time>
      </trkpt>
      <trkpt lat="45.31507" lon="-0.16071">
        <ele>108.3671875</ele>
        <time>2018-05-18T13:40:06Z</time>
      </trkpt>
      <trkpt lat="45.31482" lon="-0.16043">
        <ele>109.30859375</ele>
        <time>2018-05-18T13:40:15Z</time>
      </trkpt>
      <trkpt lat="45.31467" lon="-0.16015">
        <ele>110.27734375</ele>
        <time>2018-05-18T13:40:22Z</time>
      </trkpt>
      <trkpt lat="45.31454" lon="-0.15976">
        <ele>111.28125</ele>
        <time>2018-05-18T13:40:31Z</time>
      </trkpt>
      <trkpt lat="45.3144" lon="-0.15924">
        <ele>112.1953125</ele>
        <time>2018-05-18T13:40:42Z</time>
      </trkpt>
      <trkpt lat="45.31429" lon="-0.15886">
        <ele>113.2734375</ele>
        <time>2018-05-18T13:40:51Z</time>
      </trkpt>
      <trkpt lat="45.31417" lon="-0.15853">
        <ele>114.58203125</ele>
        <time>2018-05-18T13:40:59Z</time>
      </trkpt>
      <trkpt lat="45.31405" lon="-0.15823">
        <ele>116.109375</ele>
        <time>2018-05-18T13:41:07Z</time>
      </trkpt>
      <trkpt lat="45.3139" lon="-0.15792">
        <ele>117.875</ele>
        <time>2018-05-18T13:41:16Z</time>
      </trkpt>
      <trkpt lat="45.31377" lon="-0.15762">
        <ele>119.671875</ele>
        <time>2018-05-18T13:41:26Z</time>
      </trkpt>
      <trkpt lat="45.31365" lon="-0.15737">
        <ele>121.05078125</ele>
        <time>2018-05-18T13:41:35Z</time>
      </trkpt>
      <trkpt lat="45.31354" lon="-0.15711">
        <ele>122.5546875</ele>
        <time>2018-05-18T13:41:44Z</time>
      </trkpt>
      <trkpt lat="45.31343" lon="-0.15691">
        <ele>123.7421875</ele>
        <time>2018-05-18T13:41:52Z</time>
      </trkpt>
      <trkpt lat="45.31331" lon="-0.1567">
        <ele>124.97265625</ele>
        <time>2018-05-18T13:42:00Z</time>
      </trkpt>
      <trkpt lat="45.31322" lon="-0.15647">
        <ele>126.16015625</ele>
        <time>2018-05-18T13:42:08Z</time>
      </trkpt>
      <trkpt lat="45.31321" lon="-0.15644">
        <ele>126.27734375</ele>
        <time>2018-05-18T13:42:09Z</time>
      </trkpt>
      <trkpt lat="45.31311" lon="-0.15617">
        <ele>127.45703125</ele>
        <time>2018-05-18T13:42:18Z</time>
      </trkpt>
      <trkpt lat="45.31299" lon="-0.15586">
        <ele>128.66015625</ele>
        <time>2018-05-18T13:42:28Z</time>
      </trkpt>
      <trkpt lat="45.31284" lon="-0.15561">
        <ele>129.66015625</ele>
        <time>2018-05-18T13:42:35Z</time>
      </trkpt>
      <trkpt lat="45.31272" lon="-0.15546">
        <ele>130.68359375</ele>
        <time>2018-05-18T13:42:39Z</time>
      </trkpt>
      <trkpt lat="45.31239" lon="-0.1551">
        <ele>134.30078125</ele>
        <time>2018-05-18T13:42:49Z</time>
      </trkpt>
      <trkpt lat="45.31214" lon="-0.15478">
        <ele>133.64453125</ele>
        <time>2018-05-18T13:42:58Z</time>
      </trkpt>
      <trkpt lat="45.31196" lon="-0.15453">
        <ele>132.11328125</ele>
        <time>2018-05-18T13:43:04Z</time>
      </trkpt>
      <trkpt lat="45.31175" lon="-0.15417">
        <ele>130.171875</ele>
        <time>2018-05-18T13:43:10Z</time>
      </trkpt>
      <trkpt lat="45.31172" lon="-0.1541">
        <ele>129.95703125</ele>
        <time>2018-05-18T13:43:11Z</time>
      </trkpt>
      <trkpt lat="45.31152" lon="-0.15378">
        <ele>129.69140625</ele>
        <time>2018-05-18T13:43:17Z</time>
      </trkpt>
      <trkpt lat="45.31141" lon="-0.15357">
        <ele>129.91796875</ele>
        <time>2018-05-18T13:43:23Z</time>
      </trkpt>
      <trkpt lat="45.31138" lon="-0.15351">
        <ele>129.92578125</ele>
        <time>2018-05-18T13:43:24Z</time>
      </trkpt>
      <trkpt lat="45.31199" lon="-0.15369">
        <ele>127.71484375</ele>
        <time>2018-05-18T13:43:25Z</time>
      </trkpt>
      <trkpt lat="45.31221" lon="-0.15377">
        <ele>127.875</ele>
      </trkpt>
      <trkpt lat="45.31239" lon="-0.15379">
        <ele>127.97265625</ele>
      </trkpt>
      <trkpt lat="45.31255" lon="-0.15379">
        <ele>128.82421875</ele>
      </trkpt>
      <trkpt lat="45.31269" lon="-0.15376">
        <ele>129.359375</ele>
      </trkpt>
      <trkpt lat="45.31312" lon="-0.15355">
        <ele>130.33984375</ele>
      </trkpt>
      <trkpt lat="45.31357" lon="-0.15335">
        <ele>132.01953125</ele>
      </trkpt>
      <trkpt lat="45.31454" lon="-0.15289">
        <ele>135.70703125</ele>
      </trkpt>
      <trkpt lat="45.31497" lon="-0.15271">
        <ele>136.61328125</ele>
      </trkpt>
      <trkpt lat="45.31555" lon="-0.15242">
        <ele>137.7578125</ele>
      </trkpt>
      <trkpt lat="45.31597" lon="-0.15225">
        <ele>139.00390625</ele>
      </trkpt>
      <trkpt lat="45.31665" lon="-0.15214">
        <ele>140.66015625</ele>
      </trkpt>
      <trkpt lat="45.31758" lon="-0.15197">
        <ele>142.81640625</ele>
      </trkpt>
      <trkpt lat="45.31788" lon="-0.15192">
        <ele>142.9609375</ele>
      </trkpt>
      <trkpt lat="45.31804" lon="-0.15188">
        <ele>142.91015625</ele>
      </trkpt>
      <trkpt lat="45.31814" lon="-0.15182">
        <ele>142.84375</ele>
      </trkpt>
      <trkpt lat="45.31824" lon="-0.15171">
        <ele>142.8671875</ele>
      </trkpt>
      <trkpt lat="45.31904" lon="-0.15078">
        <ele>142.09765625</ele>
      </trkpt>
      <trkpt lat="45.31959" lon="-0.1501">
        <ele>140.95703125</ele>
      </trkpt>
      <trkpt lat="45.31999" lon="-0.14964">
        <ele>140.73828125</ele>
      </trkpt>
      <trkpt lat="45.32015" lon="-0.14949">
        <ele>141.16015625</ele>
      </trkpt>
      <trkpt lat="45.32024" lon="-0.14945">
        <ele>141.12109375</ele>
      </trkpt>
      <trkpt lat="45.32035" lon="-0.14943">
        <ele>141.04296875</ele>
      </trkpt>
      <trkpt lat="45.3205" lon="-0.14944">
        <ele>140.96875</ele>
      </trkpt>
      <trkpt lat="45.32067" lon="-0.14947">
        <ele>140.82421875</ele>
      </trkpt>
      <trkpt lat="45.32094" lon="-0.14948">
        <ele>139.80078125</ele>
      </trkpt>
      <trkpt lat="45.32141" lon="-0.14957">
        <ele>137.328125</ele>
      </trkpt>
      <trkpt lat="45.32259" lon="-0.14977">
        <ele>131.30859375</ele>
      </trkpt>
      <trkpt lat="45.3228" lon="-0.14979">
        <ele>130.05078125</ele>
      </trkpt>
      <trkpt lat="45.32296" lon="-0.14977">
        <ele>129.1484375</ele>
      </trkpt>
      <trkpt lat="45.32302" lon="-0.14969">
        <ele>128.9140625</ele>
      </trkpt>
      <trkpt lat="45.32304" lon="-0.14958">
        <ele>128.98046875</ele>
      </trkpt>
      <trkpt lat="45.32297" lon="-0.14915">
        <ele>129.77734375</ele>
      </trkpt>
      <trkpt lat="45.32287" lon="-0.14797">
        <ele>131.46875</ele>
      </trkpt>
      <trkpt lat="45.32284" lon="-0.14734">
        <ele>133.1640625</ele>
      </trkpt>
      <trkpt lat="45.32289" lon="-0.14714">
        <ele>133.25</ele>
      </trkpt>
      <trkpt lat="45.32286" lon="-0.14707">
        <ele>133.65234375</ele>
      </trkpt>
      <trkpt lat="45.32286" lon="-0.14699">
        <ele>133.98046875</ele>
      </trkpt>
      <trkpt lat="45.32284" lon="-0.14677">
        <ele>134.859375</ele>
      </trkpt>
      <trkpt lat="45.32285" lon="-0.14574">
        <ele>138.859375</ele>
      </trkpt>
      <trkpt lat="45.32286" lon="-0.14517">
        <ele>141.046875</ele>
      </trkpt>
      <trkpt lat="45.32287" lon="-0.1448">
        <ele>141.83984375</ele>
      </trkpt>
      <trkpt lat="45.32294" lon="-0.14383">
        <ele>141.04296875</ele>
      </trkpt>
      <trkpt lat="45.32301" lon="-0.14278">
        <ele>136.8671875</ele>
      </trkpt>
      <trkpt lat="45.32299" lon="-0.14252">
        <ele>135.43359375</ele>
      </trkpt>
      <trkpt lat="45.32297" lon="-0.14237">
        <ele>134.5078125</ele>
      </trkpt>
      <trkpt lat="45.3229" lon="-0.14218">
        <ele>133.52734375</ele>
      </trkpt>
      <trkpt lat="45.3228" lon="-0.14199">
        <ele>133.25</ele>
      </trkpt>
      <trkpt lat="45.32258" lon="-0.14169">
        <ele>133.32421875</ele>
      </trkpt>
      <trkpt lat="45.32241" lon="-0.14128">
        <ele>133.83984375</ele>
      </trkpt>
      <trkpt lat="45.32234" lon="-0.14091">
        <ele>133.9609375</ele>
      </trkpt>
      <trkpt lat="45.32226" lon="-0.14032">
        <ele>133.76171875</ele>
      </trkpt>
      <trkpt lat="45.32189" lon="-0.13791">
        <ele>139.1875</ele>
      </trkpt>
      <trkpt lat="45.32188" lon="-0.13792">
        <ele>139.140625</ele>
      </trkpt>
      <trkpt lat="45.32183" lon="-0.13794">
        <ele>139.12890625</ele>
      </trkpt>
      <trkpt lat="45.32176" lon="-0.138">
        <ele>138.4453125</ele>
      </trkpt>
      <trkpt lat="45.32165" lon="-0.13808">
        <ele>137.5</ele>
      </trkpt>
      <trkpt lat="45.32132" lon="-0.13833">
        <ele>135.234375</ele>
      </trkpt>
      <trkpt lat="45.32113" lon="-0.13849">
        <ele>133.45703125</ele>
      </trkpt>
      <trkpt lat="45.32106" lon="-0.13858">
        <ele>132.640625</ele>
      </trkpt>
      <trkpt lat="45.32085" lon="-0.13874">
        <ele>130.44140625</ele>
      </trkpt>
      <trkpt lat="45.32081" lon="-0.13877">
        <ele>129.953125</ele>
      </trkpt>
      <trkpt lat="45.32073" lon="-0.13882">
        <ele>129.10546875</ele>
      </trkpt>
      <trkpt lat="45.32066" lon="-0.13886">
        <ele>128.55859375</ele>
      </trkpt>
      <trkpt lat="45.32026" lon="-0.13922">
        <ele>125.0078125</ele>
      </trkpt>
      <trkpt lat="45.32004" lon="-0.13939">
        <ele>122.92578125</ele>
      </trkpt>
      <trkpt lat="45.31992" lon="-0.13947">
        <ele>121.94140625</ele>
      </trkpt>
      <trkpt lat="45.31981" lon="-0.13957">
        <ele>120.8984375</ele>
      </trkpt>
      <trkpt lat="45.31958" lon="-0.13976">
        <ele>118.72265625</ele>
      </trkpt>
      <trkpt lat="45.31938" lon="-0.13992">
        <ele>116.90234375</ele>
      </trkpt>
      <trkpt lat="45.3192" lon="-0.1401">
        <ele>115.05078125</ele>
      </trkpt>
      <trkpt lat="45.31902" lon="-0.14026">
        <ele>113.2265625</ele>
      </trkpt>
      <trkpt lat="45.31853" lon="-0.1407">
        <ele>110.59375</ele>
      </trkpt>
      <trkpt lat="45.31816" lon="-0.14105">
        <ele>109.87890625</ele>
      </trkpt>
      <trkpt lat="45.31776" lon="-0.1414">
        <ele>109.3828125</ele>
      </trkpt>
      <trkpt lat="45.31765" lon="-0.14157">
        <ele>109.3828125</ele>
      </trkpt>
      <trkpt lat="45.31761" lon="-0.14175">
        <ele>109.08203125</ele>
      </trkpt>
      <trkpt lat="45.31757" lon="-0.14186">
        <ele>108.79296875</ele>
      </trkpt>
      <trkpt lat="45.31753" lon="-0.1419">
        <ele>108.625</ele>
      </trkpt>
      <trkpt lat="45.31751" lon="-0.14191">
        <ele>108.50390625</ele>
      </trkpt>
      <trkpt lat="45.31747" lon="-0.14191">
        <ele>108.359375</ele>
      </trkpt>
      <trkpt lat="45.31744" lon="-0.14186">
        <ele>108.20703125</ele>
      </trkpt>
      <trkpt lat="45.31733" lon="-0.14172">
        <ele>107.765625</ele>
      </trkpt>
      <trkpt lat="45.31713" lon="-0.14142">
        <ele>106.171875</ele>
      </trkpt>
      <trkpt lat="45.31699" lon="-0.14122">
        <ele>105.0078125</ele>
      </trkpt>
      <trkpt lat="45.31684" lon="-0.14108">
        <ele>104.1328125</ele>
      </trkpt>
      <trkpt lat="45.31674" lon="-0.14102">
        <ele>104.1953125</ele>
      </trkpt>
      <trkpt lat="45.31659" lon="-0.14105">
        <ele>104.46484375</ele>
      </trkpt>
      <trkpt lat="45.31644" lon="-0.14112">
        <ele>104.875</ele>
      </trkpt>
      <trkpt lat="45.31625" lon="-0.14121">
        <ele>105.26171875</ele>
      </trkpt>
      <trkpt lat="45.31609" lon="-0.14134">
        <ele>105.0234375</ele>
      </trkpt>
      <trkpt lat="45.31602" lon="-0.14132">
        <ele>104.82421875</ele>
      </trkpt>
      <trkpt lat="45.31598" lon="-0.14125">
        <ele>104.640625</ele>
      </trkpt>
      <trkpt lat="45.31593" lon="-0.14123">
        <ele>104.5078125</ele>
      </trkpt>
      <trkpt lat="45.31588" lon="-0.14126">
        <ele>104.390625</ele>
      </trkpt>
      <trkpt lat="45.31584" lon="-0.14136">
        <ele>104.328125</ele>
      </trkpt>
      <trkpt lat="45.31585" lon="-0.14157">
        <ele>104.44921875</ele>
      </trkpt>
      <trkpt lat="45.31583" lon="-0.14177">
        <ele>105.76171875</ele>
      </trkpt>
      <trkpt lat="45.31581" lon="-0.14194">
        <ele>106.9375</ele>
      </trkpt>
      <trkpt lat="45.31578" lon="-0.14201">
        <ele>107.34375</ele>
      </trkpt>
      <trkpt lat="45.31574" lon="-0.14208">
        <ele>107.63671875</ele>
      </trkpt>
      <trkpt lat="45.31564" lon="-0.14206">
        <ele>107.01953125</ele>
      </trkpt>
      <trkpt lat="45.31544" lon="-0.14204">
        <ele>105.8671875</ele>
      </trkpt>
      <trkpt lat="45.31534" lon="-0.14207">
        <ele>105.5703125</ele>
      </trkpt>
      <trkpt lat="45.31531" lon="-0.14216">
        <ele>105.92578125</ele>
      </trkpt>
      <trkpt lat="45.31528" lon="-0.14231">
        <ele>107.0625</ele>
      </trkpt>
      <trkpt lat="45.31526" lon="-0.14234">
        <ele>107.28515625</ele>
      </trkpt>
      <trkpt lat="45.31524" lon="-0.14259">
        <ele>109.38671875</ele>
      </trkpt>
      <trkpt lat="45.31522" lon="-0.14287">
        <ele>111.43359375</ele>
      </trkpt>
      <trkpt lat="45.31519" lon="-0.1431">
        <ele>112.98046875</ele>
      </trkpt>
      <trkpt lat="45.31516" lon="-0.14323">
        <ele>113.88671875</ele>
      </trkpt>
      <trkpt lat="45.31513" lon="-0.14333">
        <ele>114.1640625</ele>
      </trkpt>
      <trkpt lat="45.31509" lon="-0.14334">
        <ele>114.08203125</ele>
      </trkpt>
      <trkpt lat="45.31503" lon="-0.14329">
        <ele>113.6875</ele>
      </trkpt>
      <trkpt lat="45.31494" lon="-0.14326">
        <ele>113.23046875</ele>
      </trkpt>
      <trkpt lat="45.31481" lon="-0.1432">
        <ele>112.41796875</ele>
      </trkpt>
      <trkpt lat="45.3147" lon="-0.1431">
        <ele>111.484375</ele>
      </trkpt>
      <trkpt lat="45.31458" lon="-0.14299">
        <ele>110.5</ele>
      </trkpt>
      <trkpt lat="45.3145" lon="-0.1429">
        <ele>109.73046875</ele>
      </trkpt>
      <trkpt lat="45.31448" lon="-0.14279">
        <ele>109.05859375</ele>
      </trkpt>
      <trkpt lat="45.31449" lon="-0.14245">
        <ele>106.5</ele>
      </trkpt>
      <trkpt lat="45.3145" lon="-0.14208">
        <ele>103.5</ele>
      </trkpt>
      <trkpt lat="45.31451" lon="-0.14178">
        <ele>101.88671875</ele>
      </trkpt>
      <trkpt lat="45.31453" lon="-0.14152">
        <ele>100.859375</ele>
      </trkpt>
      <trkpt lat="45.31453" lon="-0.14134">
        <ele>100.9140625</ele>
      </trkpt>
      <trkpt lat="45.31451" lon="-0.1412">
        <ele>100.94140625</ele>
      </trkpt>
      <trkpt lat="45.31441" lon="-0.1412">
        <ele>100.8828125</ele>
      </trkpt>
      <trkpt lat="45.31433" lon="-0.14122">
        <ele>100.8203125</ele>
      </trkpt>
      <trkpt lat="45.31421" lon="-0.14126">
        <ele>100.6953125</ele>
      </trkpt>
      <trkpt lat="45.31412" lon="-0.14127">
        <ele>100.60546875</ele>
      </trkpt>
      <trkpt lat="45.31394" lon="-0.1413">
        <ele>100.29296875</ele>
      </trkpt>
      <trkpt lat="45.31383" lon="-0.14132">
        <ele>100.05859375</ele>
      </trkpt>
      <trkpt lat="45.31373" lon="-0.14132">
        <ele>99.87109375</ele>
      </trkpt>
      <trkpt lat="45.31366" lon="-0.14131">
        <ele>99.77734375</ele>
      </trkpt>
      <trkpt lat="45.31355" lon="-0.14134">
        <ele>99.515625</ele>
      </trkpt>
      <trkpt lat="45.31341" lon="-0.14138">
        <ele>99.2109375</ele>
      </trkpt>
      <trkpt lat="45.31328" lon="-0.14142">
        <ele>98.890625</ele>
      </trkpt>
      <trkpt lat="45.31321" lon="-0.1414">
        <ele>98.796875</ele>
      </trkpt>
      <trkpt lat="45.31314" lon="-0.14136">
        <ele>98.75390625</ele>
      </trkpt>
      <trkpt lat="45.31309" lon="-0.14132">
        <ele>98.7265625</ele>
      </trkpt>
      <trkpt lat="45.31295" lon="-0.14138">
        <ele>98.3671875</ele>
      </trkpt>
      <trkpt lat="45.31274" lon="-0.14144">
        <ele>98.08984375</ele>
      </trkpt>
      <trkpt lat="45.31261" lon="-0.1415">
        <ele>97.70703125</ele>
      </trkpt>
      <trkpt lat="45.31251" lon="-0.14155">
        <ele>97.3671875</ele>
      </trkpt>
      <trkpt lat="45.3124" lon="-0.14154">
        <ele>97.25390625</ele>
      </trkpt>
      <trkpt lat="45.31231" lon="-0.14152">
        <ele>97.1953125</ele>
      </trkpt>
      <trkpt lat="45.31219" lon="-0.14148">
        <ele>97.16796875</ele>
      </trkpt>
      <trkpt lat="45.31208" lon="-0.14148">
        <ele>97.00390625</ele>
      </trkpt>
      <trkpt lat="45.31177" lon="-0.14138">
        <ele>96.9296875</ele>
      </trkpt>
      <trkpt lat="45.31163" lon="-0.14134">
        <ele>96.8203125</ele>
      </trkpt>
      <trkpt lat="45.31149" lon="-0.14126">
        <ele>96.671875</ele>
      </trkpt>
      <trkpt lat="45.31118" lon="-0.141">
        <ele>95.76953125</ele>
      </trkpt>
      <trkpt lat="45.31106" lon="-0.14086">
        <ele>95.8359375</ele>
      </trkpt>
      <trkpt lat="45.31099" lon="-0.14082">
        <ele>95.67578125</ele>
      </trkpt>
      <trkpt lat="45.3109" lon="-0.14075">
        <ele>95.44140625</ele>
      </trkpt>
      <trkpt lat="45.31077" lon="-0.14065">
        <ele>94.953125</ele>
      </trkpt>
      <trkpt lat="45.31066" lon="-0.14048">
        <ele>94.73828125</ele>
      </trkpt>
      <trkpt lat="45.31061" lon="-0.14039">
        <ele>94.7734375</ele>
      </trkpt>
      <trkpt lat="45.31051" lon="-0.14028">
        <ele>94.50390625</ele>
      </trkpt>
      <trkpt lat="45.31036" lon="-0.13999">
        <ele>93.7109375</ele>
      </trkpt>
      <trkpt lat="45.30999" lon="-0.13949">
        <ele>93.28515625</ele>
      </trkpt>
      <trkpt lat="45.30989" lon="-0.13931">
        <ele>93.19140625</ele>
      </trkpt>
      <trkpt lat="45.30946" lon="-0.13857">
        <ele>92.625</ele>
      </trkpt>
      <trkpt lat="45.30941" lon="-0.13845">
        <ele>92.84375</ele>
      </trkpt>
      <trkpt lat="45.30939" lon="-0.13839">
        <ele>92.94140625</ele>
      </trkpt>
      <trkpt lat="45.30935" lon="-0.13834">
        <ele>92.78515625</ele>
      </trkpt>
      <trkpt lat="45.30931" lon="-0.13829">
        <ele>92.70703125</ele>
      </trkpt>
      <trkpt lat="45.30926" lon="-0.13825">
        <ele>92.390625</ele>
      </trkpt>
      <trkpt lat="45.30915" lon="-0.13816">
        <ele>91.71484375</ele>
      </trkpt>
      <trkpt lat="45.30908" lon="-0.13803">
        <ele>91.1328125</ele>
      </trkpt>
      <trkpt lat="45.30903" lon="-0.13763">
        <ele>91.171875</ele>
      </trkpt>
      <trkpt lat="45.30902" lon="-0.13744">
        <ele>91.51953125</ele>
      </trkpt>
      <trkpt lat="45.30901" lon="-0.13732">
        <ele>91.765625</ele>
      </trkpt>
      <trkpt lat="45.30872" lon="-0.13672">
        <ele>91.8671875</ele>
      </trkpt>
      <trkpt lat="45.3085" lon="-0.13642">
        <ele>91.8203125</ele>
      </trkpt>
      <trkpt lat="45.3082" lon="-0.1361">
        <ele>94.47265625</ele>
      </trkpt>
      <trkpt lat="45.30809" lon="-0.13588">
        <ele>94.98828125</ele>
      </trkpt>
      <trkpt lat="45.30798" lon="-0.13539">
        <ele>94.70703125</ele>
      </trkpt>
      <trkpt lat="45.30792" lon="-0.1352">
        <ele>95.2734375</ele>
      </trkpt>
      <trkpt lat="45.30779" lon="-0.1349">
        <ele>96.38671875</ele>
      </trkpt>
      <trkpt lat="45.30764" lon="-0.13464">
        <ele>97.0390625</ele>
      </trkpt>
      <trkpt lat="45.30743" lon="-0.13444">
        <ele>98.00390625</ele>
      </trkpt>
      <trkpt lat="45.30726" lon="-0.13431">
        <ele>97.6328125</ele>
      </trkpt>
      <trkpt lat="45.30709" lon="-0.13429">
        <ele>97.55859375</ele>
      </trkpt>
      <trkpt lat="45.30683" lon="-0.13426">
        <ele>97.4375</ele>
      </trkpt>
      <trkpt lat="45.30674" lon="-0.13423">
        <ele>97.3671875</ele>
      </trkpt>
      <trkpt lat="45.30658" lon="-0.13413">
        <ele>97.1484375</ele>
      </trkpt>
      <trkpt lat="45.30654" lon="-0.13406">
        <ele>96.9765625</ele>
      </trkpt>
      <trkpt lat="45.30647" lon="-0.13403">
        <ele>96.984375</ele>
      </trkpt>
      <trkpt lat="45.30648" lon="-0.13378">
        <ele>96.26953125</ele>
        <time>2018-05-18T13:50:31Z</time>
      </trkpt>
      <trkpt lat="45.30651" lon="-0.13366">
        <ele>96.0859375</ele>
        <time>2018-05-18T13:50:32Z</time>
      </trkpt>
      <trkpt lat="45.30654" lon="-0.13356">
        <ele>95.8515625</ele>
        <time>2018-05-18T13:50:33Z</time>
      </trkpt>
      <trkpt lat="45.30663" lon="-0.13337">
        <ele>95.28515625</ele>
        <time>2018-05-18T13:50:35Z</time>
      </trkpt>
      <trkpt lat="45.30667" lon="-0.13328">
        <ele>94.953125</ele>
        <time>2018-05-18T13:50:36Z</time>
      </trkpt>
      <trkpt lat="45.30672" lon="-0.1332">
        <ele>94.75</ele>
        <time>2018-05-18T13:50:37Z</time>
      </trkpt>
      <trkpt lat="45.30677" lon="-0.13314">
        <ele>94.6015625</ele>
        <time>2018-05-18T13:50:38Z</time>
      </trkpt>
      <trkpt lat="45.30682" lon="-0.13308">
        <ele>94.44921875</ele>
        <time>2018-05-18T13:50:39Z</time>
      </trkpt>
      <trkpt lat="45.30719" lon="-0.1327">
        <ele>92.5</ele>
        <time>2018-05-18T13:50:46Z</time>
      </trkpt>
      <trkpt lat="45.3073" lon="-0.1326">
        <ele>91.6953125</ele>
        <time>2018-05-18T13:50:48Z</time>
      </trkpt>
      <trkpt lat="45.30735" lon="-0.13253">
        <ele>91.33984375</ele>
        <time>2018-05-18T13:50:49Z</time>
      </trkpt>
      <trkpt lat="45.30756" lon="-0.1322">
        <ele>89.515625</ele>
        <time>2018-05-18T13:50:54Z</time>
      </trkpt>
      <trkpt lat="45.30759" lon="-0.13212">
        <ele>89.1875</ele>
        <time>2018-05-18T13:50:55Z</time>
      </trkpt>
      <trkpt lat="45.30762" lon="-0.13205">
        <ele>88.7421875</ele>
        <time>2018-05-18T13:50:56Z</time>
      </trkpt>
      <trkpt lat="45.30763" lon="-0.13197">
        <ele>88.359375</ele>
        <time>2018-05-18T13:50:57Z</time>
      </trkpt>
      <trkpt lat="45.30764" lon="-0.13189">
        <ele>88.03515625</ele>
        <time>2018-05-18T13:50:58Z</time>
      </trkpt>
      <trkpt lat="45.30765" lon="-0.1318">
        <ele>87.74609375</ele>
        <time>2018-05-18T13:50:59Z</time>
      </trkpt>
      <trkpt lat="45.30765" lon="-0.13161">
        <ele>87.24609375</ele>
        <time>2018-05-18T13:51:01Z</time>
      </trkpt>
      <trkpt lat="45.30764" lon="-0.13152">
        <ele>87.11328125</ele>
        <time>2018-05-18T13:51:02Z</time>
      </trkpt>
      <trkpt lat="45.30758" lon="-0.13081">
        <ele>86.08203125</ele>
        <time>2018-05-18T13:51:09Z</time>
      </trkpt>
      <trkpt lat="45.30757" lon="-0.1307">
        <ele>85.95703125</ele>
        <time>2018-05-18T13:51:10Z</time>
      </trkpt>
      <trkpt lat="45.30757" lon="-0.13047">
        <ele>85.6875</ele>
        <time>2018-05-18T13:51:12Z</time>
      </trkpt>
      <trkpt lat="45.30763" lon="-0.12979">
        <ele>85</ele>
        <time>2018-05-18T13:51:18Z</time>
      </trkpt>
      <trkpt lat="45.30764" lon="-0.12967">
        <ele>85</ele>
        <time>2018-05-18T13:51:19Z</time>
      </trkpt>
      <trkpt lat="45.30776" lon="-0.12888">
        <ele>85.58203125</ele>
        <time>2018-05-18T13:51:27Z</time>
      </trkpt>
      <trkpt lat="45.3078" lon="-0.12873">
        <ele>85.6875</ele>
        <time>2018-05-18T13:51:29Z</time>
      </trkpt>
      <trkpt lat="45.30786" lon="-0.12857">
        <ele>85.77734375</ele>
        <time>2018-05-18T13:51:30Z</time>
      </trkpt>
      <trkpt lat="45.30797" lon="-0.12836">
        <ele>86.1484375</ele>
        <time>2018-05-18T13:51:31Z</time>
      </trkpt>
      <trkpt lat="45.30806" lon="-0.12824">
        <ele>87.05078125</ele>
        <time>2018-05-18T13:51:32Z</time>
      </trkpt>
      <trkpt lat="45.30818" lon="-0.12815">
        <ele>88.20703125</ele>
        <time>2018-05-18T13:51:33Z</time>
      </trkpt>
      <trkpt lat="45.3084" lon="-0.128">
        <ele>90.1015625</ele>
        <time>2018-05-18T13:51:34Z</time>
      </trkpt>
      <trkpt lat="45.30854" lon="-0.12787">
        <ele>91.32421875</ele>
        <time>2018-05-18T13:51:35Z</time>
      </trkpt>
      <trkpt lat="45.30864" lon="-0.12774">
        <ele>92.23046875</ele>
      </trkpt>
      <trkpt lat="45.30874" lon="-0.12753">
        <ele>93.15625</ele>
      </trkpt>
      <trkpt lat="45.30884" lon="-0.12722">
        <ele>94.04296875</ele>
      </trkpt>
      <trkpt lat="45.3089" lon="-0.12686">
        <ele>94.40234375</ele>
      </trkpt>
      <trkpt lat="45.30893" lon="-0.12647">
        <ele>94.73046875</ele>
      </trkpt>
      <trkpt lat="45.30894" lon="-0.12581">
        <ele>96.23828125</ele>
      </trkpt>
      <trkpt lat="45.30892" lon="-0.1254">
        <ele>96.96484375</ele>
      </trkpt>
      <trkpt lat="45.3089" lon="-0.12507">
        <ele>96.34375</ele>
      </trkpt>
      <trkpt lat="45.30882" lon="-0.12473">
        <ele>95</ele>
      </trkpt>
      <trkpt lat="45.3087" lon="-0.12438">
        <ele>93.12890625</ele>
      </trkpt>
      <trkpt lat="45.30852" lon="-0.12394">
        <ele>89.60546875</ele>
      </trkpt>
      <trkpt lat="45.30853" lon="-0.12392">
        <ele>89.56640625</ele>
      </trkpt>
      <trkpt lat="45.30856" lon="-0.12389">
        <ele>89.66796875</ele>
      </trkpt>
      <trkpt lat="45.30856" lon="-0.12381">
        <ele>89.3984375</ele>
      </trkpt>
      <trkpt lat="45.30851" lon="-0.12366">
        <ele>88.42578125</ele>
      </trkpt>
      <trkpt lat="45.30841" lon="-0.12347">
        <ele>86.86328125</ele>
      </trkpt>
      <trkpt lat="45.30827" lon="-0.12295">
        <ele>83.9921875</ele>
      </trkpt>
      <trkpt lat="45.3082" lon="-0.12242">
        <ele>81.8359375</ele>
      </trkpt>
      <trkpt lat="45.3082" lon="-0.1222">
        <ele>81.0859375</ele>
      </trkpt>
      <trkpt lat="45.30824" lon="-0.12157">
        <ele>79.56640625</ele>
      </trkpt>
      <trkpt lat="45.30829" lon="-0.12075">
        <ele>81.94921875</ele>
      </trkpt>
      <trkpt lat="45.30833" lon="-0.12039">
        <ele>83.99609375</ele>
      </trkpt>
      <trkpt lat="45.30836" lon="-0.12027">
        <ele>84.89453125</ele>
      </trkpt>
      <trkpt lat="45.30838" lon="-0.12016">
        <ele>85.7734375</ele>
      </trkpt>
      <trkpt lat="45.30836" lon="-0.11983">
        <ele>87.76171875</ele>
      </trkpt>
      <trkpt lat="45.30836" lon="-0.11957">
        <ele>89.18359375</ele>
      </trkpt>
      <trkpt lat="45.30838" lon="-0.11927">
        <ele>91.03515625</ele>
      </trkpt>
      <trkpt lat="45.30842" lon="-0.11911">
        <ele>92.34375</ele>
      </trkpt>
      <trkpt lat="45.30837" lon="-0.11902">
        <ele>92.60546875</ele>
      </trkpt>
      <trkpt lat="45.30826" lon="-0.11876">
        <ele>93.4609375</ele>
      </trkpt>
      <trkpt lat="45.30816" lon="-0.11857">
        <ele>93.37109375</ele>
      </trkpt>
      <trkpt lat="45.30806" lon="-0.11851">
        <ele>92.88671875</ele>
      </trkpt>
      <trkpt lat="45.30797" lon="-0.11847">
        <ele>92.36328125</ele>
      </trkpt>
      <trkpt lat="45.30792" lon="-0.11832">
        <ele>92.48828125</ele>
        <time>2018-05-18T13:54:01Z</time>
      </trkpt>
      <trkpt lat="45.30784" lon="-0.11814">
        <ele>92.5625</ele>
      </trkpt>
      <trkpt lat="45.3077" lon="-0.11792">
        <ele>92.54296875</ele>
        <time>2018-05-18T13:54:09Z</time>
      </trkpt>
      <trkpt lat="45.30758" lon="-0.11784">
        <ele>92.1953125</ele>
        <time>2018-05-18T13:54:17Z</time>
      </trkpt>
      <trkpt lat="45.30654" lon="-0.11713">
        <ele>88.79296875</ele>
        <time>2018-05-18T13:54:24Z</time>
      </trkpt>
      <trkpt lat="45.30626" lon="-0.11684">
        <ele>85.6796875</ele>
        <time>2018-05-18T13:54:31Z</time>
      </trkpt>
      <trkpt lat="45.30578" lon="-0.11644">
        <ele>80.4921875</ele>
      </trkpt>
      <trkpt lat="45.30559" lon="-0.11608">
        <ele>79.23828125</ele>
      </trkpt>
      <trkpt lat="45.30554" lon="-0.11577">
        <ele>78.4765625</ele>
      </trkpt>
      <trkpt lat="45.30553" lon="-0.11489">
        <ele>77.84765625</ele>
      </trkpt>
      <trkpt lat="45.30556" lon="-0.11438">
        <ele>77.3828125</ele>
      </trkpt>
      <trkpt lat="45.30571" lon="-0.11365">
        <ele>80.78515625</ele>
      </trkpt>
      <trkpt lat="45.30572" lon="-0.11359">
        <ele>81.203125</ele>
      </trkpt>
      <trkpt lat="45.30583" lon="-0.11377">
        <ele>80.80078125</ele>
      </trkpt>
      <trkpt lat="45.30586" lon="-0.11386">
        <ele>80.59375</ele>
      </trkpt>
      <trkpt lat="45.30591" lon="-0.11399">
        <ele>80.671875</ele>
      </trkpt>
      <trkpt lat="45.30598" lon="-0.11398">
        <ele>81.1640625</ele>
      </trkpt>
      <trkpt lat="45.30621" lon="-0.11387">
        <ele>82.66796875</ele>
      </trkpt>
      <trkpt lat="45.30633" lon="-0.11382">
        <ele>83.3203125</ele>
      </trkpt>
      <trkpt lat="45.30645" lon="-0.11377">
        <ele>84.265625</ele>
      </trkpt>
      <trkpt lat="45.30654" lon="-0.11376">
        <ele>84.9140625</ele>
      </trkpt>
      <trkpt lat="45.30664" lon="-0.11371">
        <ele>85.5625</ele>
      </trkpt>
      <trkpt lat="45.30673" lon="-0.11362">
        <ele>86.05078125</ele>
      </trkpt>
      <trkpt lat="45.30695" lon="-0.11298">
        <ele>88.2421875</ele>
      </trkpt>
      <trkpt lat="45.30703" lon="-0.1128">
        <ele>89.58203125</ele>
      </trkpt>
      <trkpt lat="45.30715" lon="-0.1126">
        <ele>91.53515625</ele>
      </trkpt>
      <trkpt lat="45.30725" lon="-0.11238">
        <ele>94.01953125</ele>
      </trkpt>
      <trkpt lat="45.30733" lon="-0.11199">
        <ele>97.73828125</ele>
      </trkpt>
      <trkpt lat="45.30735" lon="-0.11187">
        <ele>98.8046875</ele>
      </trkpt>
      <trkpt lat="45.30748" lon="-0.11181">
        <ele>100.05078125</ele>
      </trkpt>
      <trkpt lat="45.3076" lon="-0.11186">
        <ele>100.56640625</ele>
      </trkpt>
      <trkpt lat="45.30765" lon="-0.11194">
        <ele>100.359375</ele>
      </trkpt>
      <trkpt lat="45.30769" lon="-0.11199">
        <ele>100.33203125</ele>
      </trkpt>
      <trkpt lat="45.30777" lon="-0.11194">
        <ele>101.23046875</ele>
      </trkpt>
      <trkpt lat="45.30784" lon="-0.11189">
        <ele>102.0703125</ele>
      </trkpt>
      <trkpt lat="45.30799" lon="-0.11186">
        <ele>103.44140625</ele>
      </trkpt>
      <trkpt lat="45.30809" lon="-0.11188">
        <ele>103.953125</ele>
      </trkpt>
      <trkpt lat="45.30821" lon="-0.11198">
        <ele>104.078125</ele>
      </trkpt>
      <trkpt lat="45.30833" lon="-0.11209">
        <ele>104.23046875</ele>
      </trkpt>
      <trkpt lat="45.30839" lon="-0.11217">
        <ele>104.0546875</ele>
      </trkpt>
      <trkpt lat="45.30841" lon="-0.11234">
        <ele>103.02734375</ele>
      </trkpt>
      <trkpt lat="45.30845" lon="-0.11251">
        <ele>102.05859375</ele>
      </trkpt>
      <trkpt lat="45.30851" lon="-0.1127">
        <ele>101.09375</ele>
      </trkpt>
      <trkpt lat="45.30856" lon="-0.11288">
        <ele>100.7890625</ele>
      </trkpt>
      <trkpt lat="45.30866" lon="-0.11301">
        <ele>101.17578125</ele>
      </trkpt>
      <trkpt lat="45.30873" lon="-0.11308">
        <ele>101.46484375</ele>
      </trkpt>
      <trkpt lat="45.30886" lon="-0.11321">
        <ele>101.7578125</ele>
      </trkpt>
      <trkpt lat="45.3089" lon="-0.11335">
        <ele>101.91796875</ele>
      </trkpt>
      <trkpt lat="45.30888" lon="-0.11347">
        <ele>101.92578125</ele>
      </trkpt>
      <trkpt lat="45.30883" lon="-0.11364">
        <ele>101.7421875</ele>
      </trkpt>
      <trkpt lat="45.30875" lon="-0.11376">
        <ele>101.15625</ele>
      </trkpt>
      <trkpt lat="45.30867" lon="-0.11395">
        <ele>101.46484375</ele>
      </trkpt>
      <trkpt lat="45.30851" lon="-0.11416">
        <ele>102.0625</ele>
      </trkpt>
      <trkpt lat="45.30837" lon="-0.1143">
        <ele>102.359375</ele>
      </trkpt>
      <trkpt lat="45.30826" lon="-0.1144">
        <ele>102.296875</ele>
      </trkpt>
      <trkpt lat="45.30819" lon="-0.11449">
        <ele>102.03125</ele>
      </trkpt>
      <trkpt lat="45.30817" lon="-0.11458">
        <ele>102.203125</ele>
      </trkpt>
      <trkpt lat="45.3082" lon="-0.11473">
        <ele>102.76171875</ele>
      </trkpt>
      <trkpt lat="45.30823" lon="-0.11477">
        <ele>103.09765625</ele>
      </trkpt>
      <trkpt lat="45.30833" lon="-0.1147">
        <ele>103.4765625</ele>
      </trkpt>
      <trkpt lat="45.30849" lon="-0.11463">
        <ele>104.3828125</ele>
      </trkpt>
      <trkpt lat="45.30863" lon="-0.11453">
        <ele>104.65625</ele>
      </trkpt>
      <trkpt lat="45.30877" lon="-0.1144">
        <ele>104.984375</ele>
      </trkpt>
      <trkpt lat="45.30892" lon="-0.11431">
        <ele>105.1640625</ele>
      </trkpt>
      <trkpt lat="45.30905" lon="-0.11419">
        <ele>105.2734375</ele>
      </trkpt>
      <trkpt lat="45.3092" lon="-0.11407">
        <ele>105.6640625</ele>
      </trkpt>
      <trkpt lat="45.30931" lon="-0.1139">
        <ele>105.98046875</ele>
      </trkpt>
      <trkpt lat="45.30945" lon="-0.11383">
        <ele>106.83203125</ele>
      </trkpt>
      <trkpt lat="45.30955" lon="-0.11372">
        <ele>107.34765625</ele>
      </trkpt>
      <trkpt lat="45.3096" lon="-0.11362">
        <ele>107.54296875</ele>
      </trkpt>
      <trkpt lat="45.30965" lon="-0.11352">
        <ele>107.56640625</ele>
      </trkpt>
      <trkpt lat="45.30973" lon="-0.11345">
        <ele>107.65625</ele>
      </trkpt>
      <trkpt lat="45.30981" lon="-0.1134">
        <ele>107.83984375</ele>
      </trkpt>
      <trkpt lat="45.30988" lon="-0.11331">
        <ele>107.98828125</ele>
      </trkpt>
      <trkpt lat="45.30997" lon="-0.11311">
        <ele>108.4765625</ele>
      </trkpt>
      <trkpt lat="45.31013" lon="-0.11285">
        <ele>108.96484375</ele>
      </trkpt>
      <trkpt lat="45.31029" lon="-0.11261">
        <ele>108.921875</ele>
      </trkpt>
      <trkpt lat="45.31035" lon="-0.11247">
        <ele>109.0703125</ele>
      </trkpt>
      <trkpt lat="45.31043" lon="-0.11242">
        <ele>108.8671875</ele>
      </trkpt>
      <trkpt lat="45.31043" lon="-0.1122">
        <ele>109.47265625</ele>
      </trkpt>
      <trkpt lat="45.31043" lon="-0.112">
        <ele>109.90234375</ele>
      </trkpt>
      <trkpt lat="45.31045" lon="-0.11182">
        <ele>110.078125</ele>
      </trkpt>
      <trkpt lat="45.31054" lon="-0.1115">
        <ele>109.80859375</ele>
      </trkpt>
      <trkpt lat="45.31067" lon="-0.11113">
        <ele>108.4453125</ele>
      </trkpt>
      <trkpt lat="45.31079" lon="-0.11076">
        <ele>106.51953125</ele>
      </trkpt>
      <trkpt lat="45.31086" lon="-0.11053">
        <ele>105.203125</ele>
      </trkpt>
      <trkpt lat="45.31092" lon="-0.11036">
        <ele>104.41015625</ele>
      </trkpt>
      <trkpt lat="45.31107" lon="-0.11054">
        <ele>103.703125</ele>
      </trkpt>
      <trkpt lat="45.31122" lon="-0.11069">
        <ele>103.140625</ele>
      </trkpt>
      <trkpt lat="45.31132" lon="-0.11065">
        <ele>102.26953125</ele>
      </trkpt>
      <trkpt lat="45.31144" lon="-0.11042">
        <ele>100.7265625</ele>
      </trkpt>
      <trkpt lat="45.31158" lon="-0.11014">
        <ele>99.2265625</ele>
      </trkpt>
      <trkpt lat="45.31166" lon="-0.10981">
        <ele>98.0234375</ele>
      </trkpt>
      <trkpt lat="45.31202" lon="-0.10896">
        <ele>95.828125</ele>
      </trkpt>
      <trkpt lat="45.31216" lon="-0.1086">
        <ele>94.62109375</ele>
      </trkpt>
      <trkpt lat="45.31234" lon="-0.10818">
        <ele>92.32421875</ele>
      </trkpt>
      <trkpt lat="45.31244" lon="-0.10798">
        <ele>92</ele>
      </trkpt>
      <trkpt lat="45.31251" lon="-0.10772">
        <ele>92</ele>
      </trkpt>
      <trkpt lat="45.31262" lon="-0.10763">
        <ele>91.85546875</ele>
      </trkpt>
      <trkpt lat="45.31291" lon="-0.10749">
        <ele>91.59765625</ele>
      </trkpt>
      <trkpt lat="45.31302" lon="-0.1074">
        <ele>91.62109375</ele>
      </trkpt>
      <trkpt lat="45.31306" lon="-0.1072">
        <ele>91.2890625</ele>
      </trkpt>
      <trkpt lat="45.31313" lon="-0.10683">
        <ele>90.7421875</ele>
      </trkpt>
      <trkpt lat="45.3135" lon="-0.10688">
        <ele>91.5</ele>
      </trkpt>
      <trkpt lat="45.31384" lon="-0.10695">
        <ele>90.79296875</ele>
      </trkpt>
      <trkpt lat="45.31415" lon="-0.1069">
        <ele>89.7421875</ele>
      </trkpt>
      <trkpt lat="45.31433" lon="-0.10688">
        <ele>89.02734375</ele>
      </trkpt>
      <trkpt lat="45.31444" lon="-0.10686">
        <ele>88.5546875</ele>
      </trkpt>
      <trkpt lat="45.31463" lon="-0.10743">
        <ele>89.87890625</ele>
      </trkpt>
      <trkpt lat="45.31467" lon="-0.10752">
        <ele>90.01953125</ele>
      </trkpt>
      <trkpt lat="45.31478" lon="-0.10776">
        <ele>90.2109375</ele>
      </trkpt>
      <trkpt lat="45.31485" lon="-0.10801">
        <ele>90.46875</ele>
      </trkpt>
      <trkpt lat="45.31487" lon="-0.10824">
        <ele>90.98046875</ele>
      </trkpt>
      <trkpt lat="45.31484" lon="-0.10848">
        <ele>91.71484375</ele>
      </trkpt>
      <trkpt lat="45.31481" lon="-0.10903">
        <ele>93.0234375</ele>
      </trkpt>
      <trkpt lat="45.31475" lon="-0.10926">
        <ele>93.54296875</ele>
      </trkpt>
      <trkpt lat="45.31469" lon="-0.10954">
        <ele>94.4453125</ele>
      </trkpt>
      <trkpt lat="45.31468" lon="-0.10981">
        <ele>95.42578125</ele>
      </trkpt>
      <trkpt lat="45.31471" lon="-0.11028">
        <ele>96.66015625</ele>
      </trkpt>
      <trkpt lat="45.31477" lon="-0.11077">
        <ele>98.77734375</ele>
      </trkpt>
      <trkpt lat="45.31488" lon="-0.11118">
        <ele>101.23046875</ele>
      </trkpt>
      <trkpt lat="45.31505" lon="-0.11161">
        <ele>103.81640625</ele>
      </trkpt>
      <trkpt lat="45.31517" lon="-0.11198">
        <ele>105.38671875</ele>
      </trkpt>
      <trkpt lat="45.31531" lon="-0.11246">
        <ele>107.375</ele>
      </trkpt>
      <trkpt lat="45.31537" lon="-0.11282">
        <ele>108.58203125</ele>
      </trkpt>
      <trkpt lat="45.31542" lon="-0.11315">
        <ele>109.33203125</ele>
      </trkpt>
      <trkpt lat="45.31548" lon="-0.11313">
        <ele>108.9609375</ele>
      </trkpt>
      <trkpt lat="45.31557" lon="-0.11292">
        <ele>108.05078125</ele>
      </trkpt>
      <trkpt lat="45.3157" lon="-0.11273">
        <ele>107.1171875</ele>
      </trkpt>
      <trkpt lat="45.31579" lon="-0.11269">
        <ele>106.52734375</ele>
      </trkpt>
      <trkpt lat="45.31596" lon="-0.11253">
        <ele>105.08203125</ele>
      </trkpt>
      <trkpt lat="45.31604" lon="-0.11242">
        <ele>104.48046875</ele>
      </trkpt>
      <trkpt lat="45.31626" lon="-0.11196">
        <ele>102.71875</ele>
      </trkpt>
      <trkpt lat="45.31634" lon="-0.11156">
        <ele>101.71484375</ele>
      </trkpt>
      <trkpt lat="45.31644" lon="-0.11084">
        <ele>100.17578125</ele>
      </trkpt>
      <trkpt lat="45.31646" lon="-0.11041">
        <ele>99.0546875</ele>
      </trkpt>
      <trkpt lat="45.31649" lon="-0.10988">
        <ele>97.08203125</ele>
      </trkpt>
      <trkpt lat="45.31651" lon="-0.10941">
        <ele>94.1796875</ele>
      </trkpt>
      <trkpt lat="45.31648" lon="-0.10908">
        <ele>92.91796875</ele>
      </trkpt>
      <trkpt lat="45.31659" lon="-0.10868">
        <ele>91.21484375</ele>
      </trkpt>
      <trkpt lat="45.31677" lon="-0.10803">
        <ele>88.15625</ele>
      </trkpt>
      <trkpt lat="45.31691" lon="-0.10764">
        <ele>86.62109375</ele>
      </trkpt>
      <trkpt lat="45.31714" lon="-0.10679">
        <ele>82.47265625</ele>
      </trkpt>
      <trkpt lat="45.31735" lon="-0.10691">
        <ele>82.71484375</ele>
      </trkpt>
      <trkpt lat="45.31766" lon="-0.1071">
        <ele>82.83203125</ele>
      </trkpt>
      <trkpt lat="45.31801" lon="-0.10737">
        <ele>83.10546875</ele>
      </trkpt>
      <trkpt lat="45.31843" lon="-0.10773">
        <ele>84.16796875</ele>
      </trkpt>
      <trkpt lat="45.3185" lon="-0.1078">
        <ele>84.3125</ele>
      </trkpt>
      <trkpt lat="45.31967" lon="-0.10903">
        <ele>83.7421875</ele>
      </trkpt>
      <trkpt lat="45.31987" lon="-0.10916">
        <ele>84.20703125</ele>
      </trkpt>
      <trkpt lat="45.32128" lon="-0.10988">
        <ele>83.8984375</ele>
      </trkpt>
      <trkpt lat="45.32287" lon="-0.11067">
        <ele>83.84375</ele>
      </trkpt>
      <trkpt lat="45.32317" lon="-0.11077">
        <ele>83.6015625</ele>
      </trkpt>
      <trkpt lat="45.32335" lon="-0.11082">
        <ele>83.4296875</ele>
      </trkpt>
      <trkpt lat="45.32351" lon="-0.11087">
        <ele>83.33203125</ele>
      </trkpt>
      <trkpt lat="45.3237" lon="-0.11095">
        <ele>83.06640625</ele>
      </trkpt>
      <trkpt lat="45.32403" lon="-0.1112">
        <ele>82.90234375</ele>
      </trkpt>
      <trkpt lat="45.32474" lon="-0.11178">
        <ele>83.66796875</ele>
      </trkpt>
      <trkpt lat="45.32506" lon="-0.1121">
        <ele>84.140625</ele>
      </trkpt>
      <trkpt lat="45.32527" lon="-0.11231">
        <ele>84.41796875</ele>
      </trkpt>
      <trkpt lat="45.32569" lon="-0.11262">
        <ele>83.84375</ele>
      </trkpt>
      <trkpt lat="45.32578" lon="-0.11266">
        <ele>83.734375</ele>
      </trkpt>
      <trkpt lat="45.32589" lon="-0.11268">
        <ele>83.62890625</ele>
      </trkpt>
      <trkpt lat="45.32598" lon="-0.11264">
        <ele>83.4609375</ele>
      </trkpt>
      <trkpt lat="45.32606" lon="-0.11258">
        <ele>83.34765625</ele>
      </trkpt>
      <trkpt lat="45.32616" lon="-0.11247">
        <ele>83.37109375</ele>
      </trkpt>
      <trkpt lat="45.32648" lon="-0.1117">
        <ele>85.02734375</ele>
      </trkpt>
      <trkpt lat="45.32658" lon="-0.11154">
        <ele>85.5703125</ele>
      </trkpt>
      <trkpt lat="45.32666" lon="-0.11148">
        <ele>85.86328125</ele>
      </trkpt>
      <trkpt lat="45.32666" lon="-0.11127">
        <ele>85.484375</ele>
      </trkpt>
      <trkpt lat="45.3267" lon="-0.11097">
        <ele>85.1015625</ele>
      </trkpt>
      <trkpt lat="45.32667" lon="-0.11052">
        <ele>83.80078125</ele>
      </trkpt>
      <trkpt lat="45.32658" lon="-0.1101">
        <ele>84.16796875</ele>
      </trkpt>
      <trkpt lat="45.32646" lon="-0.10972">
        <ele>85.671875</ele>
      </trkpt>
      <trkpt lat="45.3263" lon="-0.10937">
        <ele>87.9609375</ele>
      </trkpt>
      <trkpt lat="45.32623" lon="-0.10914">
        <ele>90.9765625</ele>
      </trkpt>
      <trkpt lat="45.32621" lon="-0.10871">
        <ele>95.8515625</ele>
      </trkpt>
      <trkpt lat="45.32621" lon="-0.10827">
        <ele>99.84375</ele>
      </trkpt>
      <trkpt lat="45.32621" lon="-0.10797">
        <ele>102.125</ele>
      </trkpt>
      <trkpt lat="45.32623" lon="-0.1077">
        <ele>104.03515625</ele>
      </trkpt>
      <trkpt lat="45.32622" lon="-0.10744">
        <ele>105.01171875</ele>
      </trkpt>
      <trkpt lat="45.32617" lon="-0.10726">
        <ele>105.796875</ele>
      </trkpt>
      <trkpt lat="45.32603" lon="-0.1069">
        <ele>107.1640625</ele>
      </trkpt>
      <trkpt lat="45.32588" lon="-0.10644">
        <ele>108.2890625</ele>
      </trkpt>
      <trkpt lat="45.32565" lon="-0.10557">
        <ele>108.4140625</ele>
      </trkpt>
      <trkpt lat="45.32542" lon="-0.10479">
        <ele>105.4765625</ele>
      </trkpt>
      <trkpt lat="45.32533" lon="-0.10447">
        <ele>104.02734375</ele>
      </trkpt>
      <trkpt lat="45.32529" lon="-0.10414">
        <ele>103.57421875</ele>
      </trkpt>
      <trkpt lat="45.32531" lon="-0.10379">
        <ele>104.1796875</ele>
      </trkpt>
      <trkpt lat="45.32542" lon="-0.10333">
        <ele>105.81640625</ele>
      </trkpt>
      <trkpt lat="45.32563" lon="-0.10253">
        <ele>108.07421875</ele>
      </trkpt>
      <trkpt lat="45.32566" lon="-0.10246">
        <ele>108.296875</ele>
        <time>2018-05-18T14:08:46Z</time>
      </trkpt>
      <trkpt lat="45.32569" lon="-0.10243">
        <ele>108.4375</ele>
        <time>2018-05-18T14:09:26Z</time>
      </trkpt>
      <trkpt lat="45.32578" lon="-0.10231">
        <ele>109.1875</ele>
        <time>2018-05-18T14:09:50Z</time>
      </trkpt>
      <trkpt lat="45.32592" lon="-0.10212">
        <ele>110.5625</ele>
        <time>2018-05-18T14:09:58Z</time>
      </trkpt>
      <trkpt lat="45.32607" lon="-0.1019">
        <ele>112.2109375</ele>
        <time>2018-05-18T14:10:06Z</time>
      </trkpt>
      <trkpt lat="45.32627" lon="-0.10164">
        <ele>113.91015625</ele>
        <time>2018-05-18T14:10:15Z</time>
      </trkpt>
      <trkpt lat="45.32645" lon="-0.10141">
        <ele>115.54296875</ele>
        <time>2018-05-18T14:10:22Z</time>
      </trkpt>
      <trkpt lat="45.32661" lon="-0.10122">
        <ele>116.80078125</ele>
        <time>2018-05-18T14:10:30Z</time>
      </trkpt>
      <trkpt lat="45.3268" lon="-0.10103">
        <ele>117.984375</ele>
        <time>2018-05-18T14:10:36Z</time>
      </trkpt>
      <trkpt lat="45.32698" lon="-0.10085">
        <ele>119.35546875</ele>
        <time>2018-05-18T14:10:43Z</time>
      </trkpt>
      <trkpt lat="45.32716" lon="-0.10067">
        <ele>120.34765625</ele>
        <time>2018-05-18T14:10:51Z</time>
      </trkpt>
      <trkpt lat="45.32738" lon="-0.10045">
        <ele>120.9140625</ele>
        <time>2018-05-18T14:11:00Z</time>
      </trkpt>
      <trkpt lat="45.32742" lon="-0.10039">
        <ele>120.84765625</ele>
        <time>2018-05-18T14:11:08Z</time>
      </trkpt>
      <trkpt lat="45.32743" lon="-0.10029">
        <ele>120.6484375</ele>
        <time>2018-05-18T14:11:09Z</time>
      </trkpt>
      <trkpt lat="45.32754" lon="-0.10025">
        <ele>120.58984375</ele>
        <time>2018-05-18T14:11:10Z</time>
      </trkpt>
      <trkpt lat="45.32843" lon="-0.10004">
        <ele>120.4453125</ele>
        <time>2018-05-18T14:11:54Z</time>
      </trkpt>
      <trkpt lat="45.32913" lon="-0.09986">
        <ele>123.15625</ele>
        <time>2018-05-18T14:12:03Z</time>
      </trkpt>
      <trkpt lat="45.33012" lon="-0.09962">
        <ele>126.33203125</ele>
        <time>2018-05-18T14:12:12Z</time>
      </trkpt>
      <trkpt lat="45.33032" lon="-0.09956">
        <ele>126.71875</ele>
        <time>2018-05-18T14:12:22Z</time>
      </trkpt>
      <trkpt lat="45.33051" lon="-0.09946">
        <ele>127.2421875</ele>
        <time>2018-05-18T14:12:42Z</time>
      </trkpt>
      <trkpt lat="45.3308" lon="-0.09927">
        <ele>128.21875</ele>
        <time>2018-05-18T14:12:52Z</time>
      </trkpt>
      <trkpt lat="45.33132" lon="-0.09893">
        <ele>130.81640625</ele>
        <time>2018-05-18T14:13:01Z</time>
      </trkpt>
      <trkpt lat="45.33125" lon="-0.09871">
        <ele>130.91796875</ele>
        <time>2018-05-18T14:13:11Z</time>
      </trkpt>
      <trkpt lat="45.33111" lon="-0.09833">
        <ele>130.1328125</ele>
        <time>2018-05-18T14:13:18Z</time>
      </trkpt>
      <trkpt lat="45.33087" lon="-0.09765">
        <ele>128.8203125</ele>
        <time>2018-05-18T14:13:28Z</time>
      </trkpt>
      <trkpt lat="45.33055" lon="-0.09672">
        <ele>126.23046875</ele>
        <time>2018-05-18T14:13:40Z</time>
      </trkpt>
      <trkpt lat="45.33038" lon="-0.09625">
        <ele>124.68359375</ele>
        <time>2018-05-18T14:13:47Z</time>
      </trkpt>
      <trkpt lat="45.33036" lon="-0.09607">
        <ele>124.39453125</ele>
        <time>2018-05-18T14:13:48Z</time>
      </trkpt>
      <trkpt lat="45.33035" lon="-0.09594">
        <ele>123.671875</ele>
        <time>2018-05-18T14:13:49Z</time>
      </trkpt>
      <trkpt lat="45.33036" lon="-0.0958">
        <ele>122.86328125</ele>
        <time>2018-05-18T14:13:50Z</time>
      </trkpt>
      <trkpt lat="45.33041" lon="-0.09559">
        <ele>121.54296875</ele>
        <time>2018-05-18T14:13:51Z</time>
      </trkpt>
      <trkpt lat="45.33047" lon="-0.0954">
        <ele>120.11328125</ele>
        <time>2018-05-18T14:13:52Z</time>
      </trkpt>
      <trkpt lat="45.33067" lon="-0.0949">
        <ele>115.73828125</ele>
        <time>2018-05-18T14:13:53Z</time>
      </trkpt>
      <trkpt lat="45.33085" lon="-0.09442">
        <ele>113.19921875</ele>
        <time>2018-05-18T14:13:54Z</time>
      </trkpt>
      <trkpt lat="45.33111" lon="-0.09381">
        <ele>110.3828125</ele>
        <time>2018-05-18T14:14:10Z</time>
      </trkpt>
      <trkpt lat="45.33117" lon="-0.09363">
        <ele>110.25390625</ele>
        <time>2018-05-18T14:14:11Z</time>
      </trkpt>
      <trkpt lat="45.33118" lon="-0.09349">
        <ele>110.06640625</ele>
        <time>2018-05-18T14:14:12Z</time>
      </trkpt>
      <trkpt lat="45.33118" lon="-0.09321">
        <ele>109.88671875</ele>
        <time>2018-05-18T14:14:13Z</time>
      </trkpt>
      <trkpt lat="45.33111" lon="-0.093">
        <ele>110.40234375</ele>
        <time>2018-05-18T14:14:14Z</time>
      </trkpt>
      <trkpt lat="45.33107" lon="-0.09287">
        <ele>110.7265625</ele>
        <time>2018-05-18T14:14:15Z</time>
      </trkpt>
      <trkpt lat="45.33101" lon="-0.09277">
        <ele>110.875</ele>
        <time>2018-05-18T14:14:16Z</time>
      </trkpt>
      <trkpt lat="45.33092" lon="-0.09259">
        <ele>110.99609375</ele>
        <time>2018-05-18T14:14:17Z</time>
      </trkpt>
      <trkpt lat="45.33064" lon="-0.09192">
        <ele>110.640625</ele>
        <time>2018-05-18T14:14:24Z</time>
      </trkpt>
      <trkpt lat="45.33052" lon="-0.09153">
        <ele>110.046875</ele>
        <time>2018-05-18T14:14:25Z</time>
      </trkpt>
      <trkpt lat="45.33037" lon="-0.09106">
        <ele>108.39453125</ele>
        <time>2018-05-18T14:14:32Z</time>
      </trkpt>
      <trkpt lat="45.33027" lon="-0.09063">
        <ele>105.28125</ele>
        <time>2018-05-18T14:14:35Z</time>
      </trkpt>
      <trkpt lat="45.33013" lon="-0.09009">
        <ele>106.15234375</ele>
        <time>2018-05-18T14:14:39Z</time>
      </trkpt>
      <trkpt lat="45.33008" lon="-0.08977">
        <ele>107.9375</ele>
        <time>2018-05-18T14:14:42Z</time>
      </trkpt>
      <trkpt lat="45.33007" lon="-0.08924">
        <ele>110.84765625</ele>
        <time>2018-05-18T14:14:44Z</time>
      </trkpt>
      <trkpt lat="45.33011" lon="-0.0874">
        <ele>117.38671875</ele>
        <time>2018-05-18T14:14:48Z</time>
      </trkpt>
      <trkpt lat="45.33015" lon="-0.08675">
        <ele>122.03125</ele>
        <time>2018-05-18T14:15:23Z</time>
      </trkpt>
      <trkpt lat="45.33032" lon="-0.08463">
        <ele>125.41796875</ele>
        <time>2018-05-18T14:16:16Z</time>
      </trkpt>
      <trkpt lat="45.33038" lon="-0.08379">
        <ele>123.625</ele>
        <time>2018-05-18T14:16:27Z</time>
      </trkpt>
      <trkpt lat="45.33042" lon="-0.0832">
        <ele>121.765625</ele>
        <time>2018-05-18T14:16:35Z</time>
      </trkpt>
      <trkpt lat="45.33044" lon="-0.08314">
        <ele>121.609375</ele>
        <time>2018-05-18T14:16:36Z</time>
      </trkpt>
      <trkpt lat="45.33044" lon="-0.08309">
        <ele>121.46484375</ele>
        <time>2018-05-18T14:16:37Z</time>
      </trkpt>
      <trkpt lat="45.33043" lon="-0.08304">
        <ele>121.3359375</ele>
        <time>2018-05-18T14:16:38Z</time>
      </trkpt>
      <trkpt lat="45.33041" lon="-0.083">
        <ele>121.2578125</ele>
        <time>2018-05-18T14:16:39Z</time>
      </trkpt>
      <trkpt lat="45.33037" lon="-0.08298">
        <ele>121.24609375</ele>
        <time>2018-05-18T14:16:40Z</time>
      </trkpt>
      <trkpt lat="45.33032" lon="-0.08297">
        <ele>121.2734375</ele>
        <time>2018-05-18T14:16:41Z</time>
      </trkpt>
      <trkpt lat="45.33027" lon="-0.08296">
        <ele>121.30078125</ele>
        <time>2018-05-18T14:16:42Z</time>
      </trkpt>
      <trkpt lat="45.32986" lon="-0.08286">
        <ele>121.11328125</ele>
        <time>2018-05-18T14:16:50Z</time>
      </trkpt>
      <trkpt lat="45.32933" lon="-0.08282">
        <ele>119.49609375</ele>
        <time>2018-05-18T14:16:59Z</time>
      </trkpt>
      <trkpt lat="45.32895" lon="-0.08279">
        <ele>117.32421875</ele>
        <time>2018-05-18T14:17:04Z</time>
      </trkpt>
      <trkpt lat="45.32868" lon="-0.08278">
        <ele>115.4296875</ele>
        <time>2018-05-18T14:17:07Z</time>
      </trkpt>
      <trkpt lat="45.32859" lon="-0.08279">
        <ele>114.75390625</ele>
        <time>2018-05-18T14:17:08Z</time>
      </trkpt>
      <trkpt lat="45.32838" lon="-0.08282">
        <ele>113.5703125</ele>
        <time>2018-05-18T14:17:10Z</time>
      </trkpt>
      <trkpt lat="45.32828" lon="-0.08286">
        <ele>113.109375</ele>
        <time>2018-05-18T14:17:11Z</time>
      </trkpt>
      <trkpt lat="45.32819" lon="-0.0829">
        <ele>112.66015625</ele>
        <time>2018-05-18T14:17:12Z</time>
      </trkpt>
      <trkpt lat="45.32809" lon="-0.08292">
        <ele>112.17578125</ele>
        <time>2018-05-18T14:17:13Z</time>
      </trkpt>
      <trkpt lat="45.328" lon="-0.08291">
        <ele>111.66015625</ele>
        <time>2018-05-18T14:17:14Z</time>
      </trkpt>
      <trkpt lat="45.32791" lon="-0.08288">
        <ele>111.29296875</ele>
        <time>2018-05-18T14:17:15Z</time>
      </trkpt>
      <trkpt lat="45.32783" lon="-0.08287">
        <ele>111.30859375</ele>
        <time>2018-05-18T14:17:16Z</time>
      </trkpt>
      <trkpt lat="45.32776" lon="-0.08287">
        <ele>111.3515625</ele>
        <time>2018-05-18T14:17:17Z</time>
      </trkpt>
      <trkpt lat="45.32755" lon="-0.08288">
        <ele>111.47265625</ele>
        <time>2018-05-18T14:17:20Z</time>
      </trkpt>
      <trkpt lat="45.32749" lon="-0.08286">
        <ele>111.44140625</ele>
        <time>2018-05-18T14:17:21Z</time>
      </trkpt>
      <trkpt lat="45.32744" lon="-0.08283">
        <ele>111.3515625</ele>
        <time>2018-05-18T14:17:22Z</time>
      </trkpt>
      <trkpt lat="45.32739" lon="-0.08279">
        <ele>111.2109375</ele>
        <time>2018-05-18T14:17:23Z</time>
      </trkpt>
      <trkpt lat="45.32734" lon="-0.08274">
        <ele>111.03125</ele>
        <time>2018-05-18T14:17:24Z</time>
      </trkpt>
      <trkpt lat="45.32705" lon="-0.0825">
        <ele>109.87890625</ele>
        <time>2018-05-18T14:17:30Z</time>
      </trkpt>
      <trkpt lat="45.32682" lon="-0.08235">
        <ele>109.63671875</ele>
        <time>2018-05-18T14:17:34Z</time>
      </trkpt>
      <trkpt lat="45.32679" lon="-0.08231">
        <ele>109.37109375</ele>
        <time>2018-05-18T14:17:35Z</time>
      </trkpt>
      <trkpt lat="45.32676" lon="-0.08229">
        <ele>109.203125</ele>
        <time>2018-05-18T14:17:36Z</time>
      </trkpt>
      <trkpt lat="45.32672" lon="-0.08231">
        <ele>109.1640625</ele>
        <time>2018-05-18T14:17:37Z</time>
      </trkpt>
      <trkpt lat="45.3267" lon="-0.08234">
        <ele>109.203125</ele>
        <time>2018-05-18T14:17:38Z</time>
      </trkpt>
      <trkpt lat="45.32667" lon="-0.08238">
        <ele>109.27734375</ele>
        <time>2018-05-18T14:17:39Z</time>
      </trkpt>
      <trkpt lat="45.32661" lon="-0.08245">
        <ele>109.40234375</ele>
        <time>2018-05-18T14:17:41Z</time>
      </trkpt>
      <trkpt lat="45.32647" lon="-0.08251">
        <ele>109.3125</ele>
        <time>2018-05-18T14:17:44Z</time>
      </trkpt>
      <trkpt lat="45.32629" lon="-0.0825">
        <ele>108.8359375</ele>
        <time>2018-05-18T14:17:47Z</time>
      </trkpt>
      <trkpt lat="45.32616" lon="-0.08251">
        <ele>108.0078125</ele>
        <time>2018-05-18T14:17:49Z</time>
      </trkpt>
      <trkpt lat="45.32609" lon="-0.08253">
        <ele>107.62890625</ele>
        <time>2018-05-18T14:17:50Z</time>
      </trkpt>
      <trkpt lat="45.32603" lon="-0.08255">
        <ele>107.29296875</ele>
        <time>2018-05-18T14:17:51Z</time>
      </trkpt>
      <trkpt lat="45.3259" lon="-0.08261">
        <ele>106.68359375</ele>
        <time>2018-05-18T14:17:53Z</time>
      </trkpt>
      <trkpt lat="45.32584" lon="-0.08265">
        <ele>106.4765625</ele>
        <time>2018-05-18T14:17:54Z</time>
      </trkpt>
      <trkpt lat="45.3255" lon="-0.08296">
        <ele>106.28515625</ele>
        <time>2018-05-18T14:18:01Z</time>
      </trkpt>
      <trkpt lat="45.32547" lon="-0.08302">
        <ele>106.48046875</ele>
        <time>2018-05-18T14:18:02Z</time>
      </trkpt>
      <trkpt lat="45.32544" lon="-0.08309">
        <ele>106.73828125</ele>
        <time>2018-05-18T14:18:03Z</time>
      </trkpt>
      <trkpt lat="45.32538" lon="-0.08322">
        <ele>107.33984375</ele>
        <time>2018-05-18T14:18:05Z</time>
      </trkpt>
      <trkpt lat="45.32517" lon="-0.08363">
        <ele>107.01953125</ele>
        <time>2018-05-18T14:18:11Z</time>
      </trkpt>
      <trkpt lat="45.32497" lon="-0.08404">
        <ele>105.2578125</ele>
        <time>2018-05-18T14:18:16Z</time>
      </trkpt>
      <trkpt lat="45.32481" lon="-0.08433">
        <ele>103.796875</ele>
        <time>2018-05-18T14:18:20Z</time>
      </trkpt>
      <trkpt lat="45.32476" lon="-0.08439">
        <ele>103.375</ele>
        <time>2018-05-18T14:18:21Z</time>
      </trkpt>
      <trkpt lat="45.32438" lon="-0.08472">
        <ele>102.19921875</ele>
        <time>2018-05-18T14:18:29Z</time>
      </trkpt>
      <trkpt lat="45.32429" lon="-0.08479">
        <ele>102.08984375</ele>
        <time>2018-05-18T14:18:31Z</time>
      </trkpt>
      <trkpt lat="45.32424" lon="-0.0848">
        <ele>101.97265625</ele>
        <time>2018-05-18T14:18:32Z</time>
      </trkpt>
      <trkpt lat="45.3242" lon="-0.0848">
        <ele>101.8203125</ele>
        <time>2018-05-18T14:18:33Z</time>
      </trkpt>
      <trkpt lat="45.32415" lon="-0.0848">
        <ele>101.62890625</ele>
        <time>2018-05-18T14:18:34Z</time>
      </trkpt>
      <trkpt lat="45.32411" lon="-0.0848">
        <ele>101.421875</ele>
        <time>2018-05-18T14:18:35Z</time>
      </trkpt>
      <trkpt lat="45.32372" lon="-0.08475">
        <ele>99.47265625</ele>
        <time>2018-05-18T14:18:43Z</time>
      </trkpt>
      <trkpt lat="45.32367" lon="-0.08471">
        <ele>99.0078125</ele>
        <time>2018-05-18T14:18:44Z</time>
      </trkpt>
      <trkpt lat="45.32363" lon="-0.08464">
        <ele>98.4140625</ele>
        <time>2018-05-18T14:18:45Z</time>
      </trkpt>
      <trkpt lat="45.32361" lon="-0.08456">
        <ele>97.765625</ele>
        <time>2018-05-18T14:18:46Z</time>
      </trkpt>
      <trkpt lat="45.3236" lon="-0.08447">
        <ele>97.08984375</ele>
        <time>2018-05-18T14:18:47Z</time>
      </trkpt>
      <trkpt lat="45.32359" lon="-0.08438">
        <ele>96.41015625</ele>
        <time>2018-05-18T14:18:48Z</time>
      </trkpt>
      <trkpt lat="45.32358" lon="-0.08427">
        <ele>95.81640625</ele>
        <time>2018-05-18T14:18:49Z</time>
      </trkpt>
      <trkpt lat="45.32355" lon="-0.08392">
        <ele>93.8203125</ele>
        <time>2018-05-18T14:18:52Z</time>
      </trkpt>
      <trkpt lat="45.32352" lon="-0.08354">
        <ele>91.671875</ele>
        <time>2018-05-18T14:18:55Z</time>
      </trkpt>
      <trkpt lat="45.32351" lon="-0.0833">
        <ele>90.24609375</ele>
        <time>2018-05-18T14:18:57Z</time>
      </trkpt>
      <trkpt lat="45.3235" lon="-0.08307">
        <ele>89.28125</ele>
        <time>2018-05-18T14:18:59Z</time>
      </trkpt>
      <trkpt lat="45.32351" lon="-0.08295">
        <ele>88.9765625</ele>
        <time>2018-05-18T14:19:00Z</time>
      </trkpt>
      <trkpt lat="45.32354" lon="-0.08284">
        <ele>88.87890625</ele>
        <time>2018-05-18T14:19:01Z</time>
      </trkpt>
      <trkpt lat="45.32358" lon="-0.08274">
        <ele>88.94921875</ele>
        <time>2018-05-18T14:19:02Z</time>
      </trkpt>
      <trkpt lat="45.32363" lon="-0.08265">
        <ele>89.22265625</ele>
        <time>2018-05-18T14:19:03Z</time>
      </trkpt>
      <trkpt lat="45.32367" lon="-0.08257">
        <ele>89.51953125</ele>
        <time>2018-05-18T14:19:04Z</time>
      </trkpt>
      <trkpt lat="45.32385" lon="-0.08222">
        <ele>90.328125</ele>
        <time>2018-05-18T14:19:08Z</time>
      </trkpt>
      <trkpt lat="45.32388" lon="-0.08212">
        <ele>90.3125</ele>
        <time>2018-05-18T14:19:09Z</time>
      </trkpt>
      <trkpt lat="45.32398" lon="-0.08158">
        <ele>89.3515625</ele>
        <time>2018-05-18T14:19:14Z</time>
      </trkpt>
      <trkpt lat="45.32398" lon="-0.08147">
        <ele>88.984375</ele>
        <time>2018-05-18T14:19:15Z</time>
      </trkpt>
      <trkpt lat="45.32398" lon="-0.08136">
        <ele>88.578125</ele>
        <time>2018-05-18T14:19:16Z</time>
      </trkpt>
      <trkpt lat="45.32397" lon="-0.08125">
        <ele>88.1484375</ele>
        <time>2018-05-18T14:19:17Z</time>
      </trkpt>
      <trkpt lat="45.32395" lon="-0.08113">
        <ele>87.6953125</ele>
        <time>2018-05-18T14:19:18Z</time>
      </trkpt>
      <trkpt lat="45.32393" lon="-0.08103">
        <ele>87.21875</ele>
        <time>2018-05-18T14:19:19Z</time>
      </trkpt>
      <trkpt lat="45.32389" lon="-0.08093">
        <ele>86.703125</ele>
        <time>2018-05-18T14:19:20Z</time>
      </trkpt>
      <trkpt lat="45.32383" lon="-0.08085">
        <ele>86.18359375</ele>
        <time>2018-05-18T14:19:21Z</time>
      </trkpt>
      <trkpt lat="45.32377" lon="-0.08076">
        <ele>85.68359375</ele>
        <time>2018-05-18T14:19:22Z</time>
      </trkpt>
      <trkpt lat="45.32372" lon="-0.08067">
        <ele>85.203125</ele>
        <time>2018-05-18T14:19:23Z</time>
      </trkpt>
      <trkpt lat="45.32355" lon="-0.08037">
        <ele>83.94921875</ele>
        <time>2018-05-18T14:19:26Z</time>
      </trkpt>
      <trkpt lat="45.32341" lon="-0.0802">
        <ele>83.46484375</ele>
        <time>2018-05-18T14:19:28Z</time>
      </trkpt>
      <trkpt lat="45.32334" lon="-0.08013">
        <ele>83.42578125</ele>
        <time>2018-05-18T14:19:29Z</time>
      </trkpt>
      <trkpt lat="45.32326" lon="-0.08006">
        <ele>83.453125</ele>
        <time>2018-05-18T14:19:30Z</time>
      </trkpt>
      <trkpt lat="45.32306" lon="-0.07985">
        <ele>83.78515625</ele>
        <time>2018-05-18T14:19:33Z</time>
      </trkpt>
      <trkpt lat="45.323" lon="-0.07977">
        <ele>83.88671875</ele>
        <time>2018-05-18T14:19:34Z</time>
      </trkpt>
      <trkpt lat="45.32295" lon="-0.07968">
        <ele>83.9765625</ele>
        <time>2018-05-18T14:19:35Z</time>
      </trkpt>
      <trkpt lat="45.32276" lon="-0.07929">
        <ele>85.65625</ele>
        <time>2018-05-18T14:19:40Z</time>
      </trkpt>
      <trkpt lat="45.32265" lon="-0.07905">
        <ele>87.765625</ele>
        <time>2018-05-18T14:19:45Z</time>
      </trkpt>
      <trkpt lat="45.32262" lon="-0.07883">
        <ele>89.46484375</ele>
        <time>2018-05-18T14:19:47Z</time>
      </trkpt>
      <trkpt lat="45.32259" lon="-0.07875">
        <ele>90.49609375</ele>
        <time>2018-05-18T14:19:49Z</time>
      </trkpt>
      <trkpt lat="45.32255" lon="-0.07854">
        <ele>93.078125</ele>
        <time>2018-05-18T14:19:55Z</time>
      </trkpt>
      <trkpt lat="45.32292" lon="-0.07831">
        <ele>92.8515625</ele>
        <time>2018-05-18T14:20:01Z</time>
      </trkpt>
      <trkpt lat="45.32327" lon="-0.07804">
        <ele>93.6328125</ele>
        <time>2018-05-18T14:20:08Z</time>
      </trkpt>
      <trkpt lat="45.32339" lon="-0.07799">
        <ele>93.2109375</ele>
        <time>2018-05-18T14:20:12Z</time>
      </trkpt>
      <trkpt lat="45.32373" lon="-0.07788">
        <ele>91.53125</ele>
        <time>2018-05-18T14:20:18Z</time>
      </trkpt>
      <trkpt lat="45.32385" lon="-0.07782">
        <ele>91.01171875</ele>
        <time>2018-05-18T14:20:26Z</time>
      </trkpt>
      <trkpt lat="45.32401" lon="-0.07773">
        <ele>90.35546875</ele>
        <time>2018-05-18T14:20:32Z</time>
      </trkpt>
      <trkpt lat="45.32413" lon="-0.07765">
        <ele>90.45703125</ele>
        <time>2018-05-18T14:20:39Z</time>
      </trkpt>
      <trkpt lat="45.32428" lon="-0.07746">
        <ele>91.76171875</ele>
        <time>2018-05-18T14:20:42Z</time>
      </trkpt>
      <trkpt lat="45.32455" lon="-0.07698">
        <ele>95.43359375</ele>
        <time>2018-05-18T14:20:49Z</time>
      </trkpt>
      <trkpt lat="45.32464" lon="-0.07689">
        <ele>95.82421875</ele>
        <time>2018-05-18T14:20:56Z</time>
      </trkpt>
      <trkpt lat="45.32488" lon="-0.07653">
        <ele>96.4609375</ele>
        <time>2018-05-18T14:21:03Z</time>
      </trkpt>
      <trkpt lat="45.32499" lon="-0.07633">
        <ele>96.41015625</ele>
        <time>2018-05-18T14:21:04Z</time>
      </trkpt>
      <trkpt lat="45.32509" lon="-0.07608">
        <ele>96.57421875</ele>
        <time>2018-05-18T14:29:33Z</time>
      </trkpt>
      <trkpt lat="45.32512" lon="-0.07597">
        <ele>96.53125</ele>
        <time>2018-05-18T14:29:48Z</time>
      </trkpt>
      <trkpt lat="45.3252" lon="-0.07561">
        <ele>96.51171875</ele>
        <time>2018-05-18T14:32:17Z</time>
      </trkpt>
      <trkpt lat="45.32527" lon="-0.07529">
        <ele>96.59375</ele>
        <time>2018-05-18T14:32:25Z</time>
      </trkpt>
      <trkpt lat="45.32543" lon="-0.07485">
        <ele>96.09765625</ele>
        <time>2018-05-18T14:32:34Z</time>
      </trkpt>
      <trkpt lat="45.32545" lon="-0.0748">
        <ele>95.9375</ele>
        <time>2018-05-18T14:32:35Z</time>
      </trkpt>
      <trkpt lat="45.32568" lon="-0.07441">
        <ele>94.296875</ele>
        <time>2018-05-18T14:32:44Z</time>
      </trkpt>
      <trkpt lat="45.32595" lon="-0.07397">
        <ele>94.2578125</ele>
        <time>2018-05-18T14:32:52Z</time>
      </trkpt>
      <trkpt lat="45.32612" lon="-0.07367">
        <ele>95.5703125</ele>
        <time>2018-05-18T14:32:59Z</time>
      </trkpt>
      <trkpt lat="45.32629" lon="-0.07343">
        <ele>97.921875</ele>
        <time>2018-05-18T14:33:06Z</time>
      </trkpt>
      <trkpt lat="45.32637" lon="-0.07341">
        <ele>98.828125</ele>
        <time>2018-05-18T14:33:10Z</time>
      </trkpt>
      <trkpt lat="45.32648" lon="-0.07342">
        <ele>99.76953125</ele>
        <time>2018-05-18T14:33:11Z</time>
      </trkpt>
      <trkpt lat="45.32656" lon="-0.07336">
        <ele>101.24609375</ele>
        <time>2018-05-18T14:33:12Z</time>
      </trkpt>
      <trkpt lat="45.32659" lon="-0.07332">
        <ele>102.07421875</ele>
        <time>2018-05-18T14:33:13Z</time>
      </trkpt>
      <trkpt lat="45.32658" lon="-0.07325">
        <ele>102.72265625</ele>
        <time>2018-05-18T14:33:14Z</time>
      </trkpt>
      <trkpt lat="45.32658" lon="-0.07321">
        <ele>103.015625</ele>
        <time>2018-05-18T14:33:15Z</time>
      </trkpt>
      <trkpt lat="45.32657" lon="-0.07317">
        <ele>103.29296875</ele>
        <time>2018-05-18T14:33:16Z</time>
      </trkpt>
      <trkpt lat="45.32648" lon="-0.0729">
        <ele>104.59765625</ele>
        <time>2018-05-18T14:33:23Z</time>
      </trkpt>
      <trkpt lat="45.32638" lon="-0.07257">
        <ele>105.69140625</ele>
        <time>2018-05-18T14:33:30Z</time>
      </trkpt>
      <trkpt lat="45.32628" lon="-0.07226">
        <ele>106.51171875</ele>
        <time>2018-05-18T14:33:37Z</time>
      </trkpt>
      <trkpt lat="45.32622" lon="-0.07205">
        <ele>106.9140625</ele>
        <time>2018-05-18T14:33:42Z</time>
      </trkpt>
      <trkpt lat="45.32614" lon="-0.07177">
        <ele>107.13671875</ele>
        <time>2018-05-18T14:33:50Z</time>
      </trkpt>
      <trkpt lat="45.32608" lon="-0.07148">
        <ele>107.83984375</ele>
        <time>2018-05-18T14:33:57Z</time>
      </trkpt>
      <trkpt lat="45.32598" lon="-0.07111">
        <ele>108.55078125</ele>
        <time>2018-05-18T14:34:04Z</time>
      </trkpt>
      <trkpt lat="45.32589" lon="-0.07081">
        <ele>108.23046875</ele>
        <time>2018-05-18T14:34:12Z</time>
      </trkpt>
      <trkpt lat="45.32576" lon="-0.07045">
        <ele>107.91015625</ele>
        <time>2018-05-18T14:34:21Z</time>
      </trkpt>
      <trkpt lat="45.32562" lon="-0.07015">
        <ele>108.2890625</ele>
        <time>2018-05-18T14:34:30Z</time>
      </trkpt>
      <trkpt lat="45.3255" lon="-0.06987">
        <ele>109.0234375</ele>
        <time>2018-05-18T14:34:38Z</time>
      </trkpt>
      <trkpt lat="45.32538" lon="-0.06959">
        <ele>110.2734375</ele>
        <time>2018-05-18T14:34:46Z</time>
      </trkpt>
      <trkpt lat="45.32527" lon="-0.06934">
        <ele>111.30078125</ele>
        <time>2018-05-18T14:34:53Z</time>
      </trkpt>
      <trkpt lat="45.32518" lon="-0.06916">
        <ele>112.30859375</ele>
        <time>2018-05-18T14:35:00Z</time>
      </trkpt>
      <trkpt lat="45.32504" lon="-0.06897">
        <ele>113.09375</ele>
        <time>2018-05-18T14:35:06Z</time>
      </trkpt>
      <trkpt lat="45.32507" lon="-0.06882">
        <ele>114.52734375</ele>
        <time>2018-05-18T14:35:07Z</time>
      </trkpt>
      <trkpt lat="45.32511" lon="-0.06866">
        <ele>115.68359375</ele>
        <time>2018-05-18T14:35:15Z</time>
      </trkpt>
      <trkpt lat="45.32519" lon="-0.06834">
        <ele>117.94140625</ele>
        <time>2018-05-18T14:35:26Z</time>
      </trkpt>
      <trkpt lat="45.32527" lon="-0.06821">
        <ele>119.2890625</ele>
        <time>2018-05-18T14:35:35Z</time>
      </trkpt>
      <trkpt lat="45.32539" lon="-0.06813">
        <ele>120.5625</ele>
        <time>2018-05-18T14:35:43Z</time>
      </trkpt>
      <trkpt lat="45.32564" lon="-0.06804">
        <ele>122.46875</ele>
        <time>2018-05-18T14:35:51Z</time>
      </trkpt>
      <trkpt lat="45.32584" lon="-0.06796">
        <ele>123.51171875</ele>
        <time>2018-05-18T14:35:59Z</time>
      </trkpt>
      <trkpt lat="45.326" lon="-0.06787">
        <ele>124.140625</ele>
        <time>2018-05-18T14:36:07Z</time>
      </trkpt>
      <trkpt lat="45.32609" lon="-0.06782">
        <ele>124.46484375</ele>
        <time>2018-05-18T14:36:22Z</time>
      </trkpt>
      <trkpt lat="45.32619" lon="-0.06772">
        <ele>124.859375</ele>
        <time>2018-05-18T14:36:33Z</time>
      </trkpt>
      <trkpt lat="45.32634" lon="-0.06746">
        <ele>124.9375</ele>
        <time>2018-05-18T14:36:46Z</time>
      </trkpt>
      <trkpt lat="45.32644" lon="-0.06708">
        <ele>124.20703125</ele>
        <time>2018-05-18T14:36:55Z</time>
      </trkpt>
      <trkpt lat="45.32647" lon="-0.06681">
        <ele>122.86328125</ele>
        <time>2018-05-18T14:37:01Z</time>
      </trkpt>
      <trkpt lat="45.32653" lon="-0.06652">
        <ele>121.2265625</ele>
        <time>2018-05-18T14:37:04Z</time>
      </trkpt>
      <trkpt lat="45.32659" lon="-0.06637">
        <ele>120.37109375</ele>
        <time>2018-05-18T14:37:05Z</time>
      </trkpt>
      <trkpt lat="45.32673" lon="-0.06603">
        <ele>118.640625</ele>
        <time>2018-05-18T14:37:06Z</time>
      </trkpt>
      <trkpt lat="45.32679" lon="-0.06589">
        <ele>118.79296875</ele>
        <time>2018-05-18T14:37:11Z</time>
      </trkpt>
      <trkpt lat="45.32683" lon="-0.06584">
        <ele>118.83203125</ele>
        <time>2018-05-18T14:37:13Z</time>
      </trkpt>
      <trkpt lat="45.32683" lon="-0.06576">
        <ele>119.1171875</ele>
        <time>2018-05-18T14:37:14Z</time>
      </trkpt>
      <trkpt lat="45.32682" lon="-0.06569">
        <ele>119.39453125</ele>
        <time>2015-07-31T09:57:00Z</time>
      </trkpt>
      <trkpt lat="45.32674" lon="-0.06545">
        <ele>120.51171875</ele>
        <time>2015-07-31T09:58:08Z</time>
      </trkpt>
      <trkpt lat="45.32672" lon="-0.06536">
        <ele>120.98046875</ele>
        <time>2015-07-31T09:58:09Z</time>
      </trkpt>
      <trkpt lat="45.32667" lon="-0.06519">
        <ele>121.87109375</ele>
        <time>2015-07-31T09:58:18Z</time>
      </trkpt>
      <trkpt lat="45.32658" lon="-0.06491">
        <ele>123.23046875</ele>
        <time>2015-07-31T09:58:31Z</time>
      </trkpt>
      <trkpt lat="45.3265" lon="-0.06453">
        <ele>124.98828125</ele>
        <time>2015-07-31T09:58:43Z</time>
      </trkpt>
      <trkpt lat="45.32646" lon="-0.06376">
        <ele>128.39453125</ele>
        <time>2015-07-31T09:58:54Z</time>
      </trkpt>
      <trkpt lat="45.32653" lon="-0.0631">
        <ele>127.78515625</ele>
        <time>2015-07-31T09:59:01Z</time>
      </trkpt>
      <trkpt lat="45.32647" lon="-0.06223">
        <ele>126.41015625</ele>
        <time>2015-07-31T09:59:08Z</time>
      </trkpt>
      <trkpt lat="45.32655" lon="-0.06198">
        <ele>124.69921875</ele>
        <time>2015-07-31T09:59:16Z</time>
      </trkpt>
      <trkpt lat="45.32671" lon="-0.06136">
        <ele>120.4140625</ele>
        <time>2015-07-31T09:59:22Z</time>
      </trkpt>
      <trkpt lat="45.32678" lon="-0.06107">
        <ele>118.16796875</ele>
        <time>2015-07-31T09:59:28Z</time>
      </trkpt>
      <trkpt lat="45.32683" lon="-0.06065">
        <ele>115.6640625</ele>
        <time>2015-07-31T09:59:31Z</time>
      </trkpt>
      <trkpt lat="45.32686" lon="-0.06024">
        <ele>116.34375</ele>
        <time>2015-07-31T09:59:37Z</time>
      </trkpt>
      <trkpt lat="45.32687" lon="-0.05983">
        <ele>118.70703125</ele>
        <time>2015-07-31T09:59:41Z</time>
      </trkpt>
      <trkpt lat="45.32698" lon="-0.05943">
        <ele>120.75390625</ele>
        <time>2015-07-31T09:59:47Z</time>
      </trkpt>
      <trkpt lat="45.32713" lon="-0.05951">
        <ele>119.1953125</ele>
        <time>2015-07-31T09:59:51Z</time>
      </trkpt>
      <trkpt lat="45.32723" lon="-0.05953">
        <ele>118.41015625</ele>
        <time>2015-07-31T09:59:57Z</time>
      </trkpt>
      <trkpt lat="45.32739" lon="-0.05954">
        <ele>117.24609375</ele>
        <time>2015-07-31T10:00:00Z</time>
      </trkpt>
      <trkpt lat="45.32755" lon="-0.05954">
        <ele>115.76953125</ele>
        <time>2015-07-31T10:00:01Z</time>
      </trkpt>
      <trkpt lat="45.32772" lon="-0.05954">
        <ele>114.2890625</ele>
        <time>2015-07-31T10:00:02Z</time>
      </trkpt>
      <trkpt lat="45.32786" lon="-0.05953">
        <ele>113.00390625</ele>
        <time>2015-07-31T10:00:07Z</time>
      </trkpt>
      <trkpt lat="45.32789" lon="-0.05956">
        <ele>112.66796875</ele>
        <time>2015-07-31T10:00:13Z</time>
      </trkpt>
      <trkpt lat="45.32791" lon="-0.05957">
        <ele>112.375</ele>
        <time>2015-07-31T10:00:19Z</time>
      </trkpt>
      <trkpt lat="45.32794" lon="-0.05959">
        <ele>112.00390625</ele>
        <time>2015-07-31T10:00:23Z</time>
      </trkpt>
      <trkpt lat="45.32791" lon="-0.05971">
        <ele>111.67578125</ele>
        <time>2015-07-31T10:00:28Z</time>
      </trkpt>
      <trkpt lat="45.32787" lon="-0.05996">
        <ele>110.65234375</ele>
        <time>2015-07-31T10:00:34Z</time>
      </trkpt>
      <trkpt lat="45.32781" lon="-0.06007">
        <ele>110.37109375</ele>
        <time>2015-07-31T10:00:37Z</time>
      </trkpt>
      <trkpt lat="45.32775" lon="-0.06014">
        <ele>110.39453125</ele>
        <time>2015-07-31T10:00:39Z</time>
      </trkpt>
      <trkpt lat="45.32776" lon="-0.06024">
        <ele>109.65234375</ele>
        <time>2015-07-31T10:00:42Z</time>
      </trkpt>
      <trkpt lat="45.32778" lon="-0.06033">
        <ele>108.8125</ele>
        <time>2015-07-31T10:00:45Z</time>
      </trkpt>
      <trkpt lat="45.32783" lon="-0.06056">
        <ele>107.05859375</ele>
        <time>2015-07-31T10:00:51Z</time>
      </trkpt>
      <trkpt lat="45.32786" lon="-0.0606">
        <ele>106.84765625</ele>
        <time>2015-07-31T10:00:52Z</time>
      </trkpt>
      <trkpt lat="45.32801" lon="-0.0609">
        <ele>106.3671875</ele>
        <time>2015-07-31T10:00:59Z</time>
      </trkpt>
      <trkpt lat="45.32808" lon="-0.06105">
        <ele>106.1875</ele>
        <time>2015-07-31T10:01:05Z</time>
      </trkpt>
      <trkpt lat="45.3282" lon="-0.06117">
        <ele>105.7578125</ele>
        <time>2015-07-31T10:01:18Z</time>
      </trkpt>
      <trkpt lat="45.32822" lon="-0.06169">
        <ele>106.55078125</ele>
        <time>2015-07-31T10:01:23Z</time>
      </trkpt>
      <trkpt lat="45.32841" lon="-0.06217">
        <ele>105.72265625</ele>
        <time>2015-07-31T10:01:28Z</time>
      </trkpt>
      <trkpt lat="45.32888" lon="-0.06375">
        <ele>106.7109375</ele>
        <time>2015-07-31T10:02:17Z</time>
      </trkpt>
      <trkpt lat="45.32903" lon="-0.06428">
        <ele>104.5546875</ele>
        <time>2015-07-31T10:02:22Z</time>
      </trkpt>
      <trkpt lat="45.3291" lon="-0.06437">
        <ele>103.671875</ele>
        <time>2015-07-31T10:02:25Z</time>
      </trkpt>
      <trkpt lat="45.3298" lon="-0.06388">
        <ele>103.546875</ele>
        <time>2015-07-31T10:02:34Z</time>
      </trkpt>
      <trkpt lat="45.33032" lon="-0.06352">
        <ele>109.87109375</ele>
        <time>2015-07-31T10:02:44Z</time>
      </trkpt>
      <trkpt lat="45.33044" lon="-0.06331">
        <ele>113.3828125</ele>
        <time>2015-07-31T10:02:49Z</time>
      </trkpt>
      <trkpt lat="45.33045" lon="-0.06326">
        <ele>113.99609375</ele>
        <time>2015-07-31T10:02:51Z</time>
      </trkpt>
      <trkpt lat="45.33051" lon="-0.06326">
        <ele>114.76953125</ele>
        <time>2015-07-31T10:02:55Z</time>
      </trkpt>
      <trkpt lat="45.33053" lon="-0.06329">
        <ele>114.74609375</ele>
        <time>2015-07-31T10:02:56Z</time>
      </trkpt>
      <trkpt lat="45.33055" lon="-0.06332">
        <ele>114.65234375</ele>
        <time>2015-07-31T10:02:57Z</time>
      </trkpt>
      <trkpt lat="45.33072" lon="-0.06362">
        <ele>113.58203125</ele>
        <time>2015-07-31T10:03:04Z</time>
      </trkpt>
      <trkpt lat="45.33093" lon="-0.06396">
        <ele>112.33984375</ele>
        <time>2015-07-31T10:03:11Z</time>
      </trkpt>
      <trkpt lat="45.33096" lon="-0.06396">
        <ele>112.6796875</ele>
        <time>2015-07-31T10:03:12Z</time>
      </trkpt>
      <trkpt lat="45.33099" lon="-0.06395">
        <ele>113.08203125</ele>
        <time>2015-07-31T10:03:13Z</time>
      </trkpt>
      <trkpt lat="45.33101" lon="-0.06393">
        <ele>113.484375</ele>
        <time>2015-07-31T10:03:14Z</time>
      </trkpt>
      <trkpt lat="45.33103" lon="-0.06391">
        <ele>113.8515625</ele>
        <time>2015-07-31T10:03:15Z</time>
      </trkpt>
      <trkpt lat="45.33113" lon="-0.06381">
        <ele>115.984375</ele>
        <time>2015-07-31T10:03:23Z</time>
      </trkpt>
      <trkpt lat="45.33125" lon="-0.06369">
        <ele>118.5703125</ele>
        <time>2015-07-31T10:03:32Z</time>
      </trkpt>
      <trkpt lat="45.33135" lon="-0.06359">
        <ele>120.54296875</ele>
        <time>2015-07-31T10:03:40Z</time>
      </trkpt>
      <trkpt lat="45.33147" lon="-0.06347">
        <ele>122.8125</ele>
        <time>2015-07-31T10:03:50Z</time>
      </trkpt>
      <trkpt lat="45.33157" lon="-0.06337">
        <ele>124.4765625</ele>
        <time>2015-07-31T10:03:59Z</time>
      </trkpt>
      <trkpt lat="45.33167" lon="-0.06327">
        <ele>126.0390625</ele>
        <time>2015-07-31T10:04:09Z</time>
      </trkpt>
      <trkpt lat="45.33181" lon="-0.06314">
        <ele>127.73828125</ele>
        <time>2015-07-31T10:04:20Z</time>
      </trkpt>
      <trkpt lat="45.33196" lon="-0.06302">
        <ele>127.84375</ele>
        <time>2015-07-31T10:04:31Z</time>
      </trkpt>
      <trkpt lat="45.33211" lon="-0.0629">
        <ele>127.94921875</ele>
        <time>2015-07-31T10:04:41Z</time>
      </trkpt>
      <trkpt lat="45.33222" lon="-0.06279">
        <ele>128.25390625</ele>
        <time>2015-07-31T10:04:49Z</time>
      </trkpt>
      <trkpt lat="45.3323" lon="-0.06255">
        <ele>129.6328125</ele>
        <time>2015-07-31T10:04:59Z</time>
      </trkpt>
      <trkpt lat="45.33233" lon="-0.06228">
        <ele>131.453125</ele>
        <time>2015-07-31T10:05:08Z</time>
      </trkpt>
      <trkpt lat="45.33236" lon="-0.06205">
        <ele>132.5078125</ele>
        <time>2015-07-31T10:05:15Z</time>
      </trkpt>
      <trkpt lat="45.33239" lon="-0.06171">
        <ele>133.63671875</ele>
        <time>2015-07-31T10:05:23Z</time>
      </trkpt>
      <trkpt lat="45.33244" lon="-0.06135">
        <ele>133.7421875</ele>
        <time>2015-07-31T10:05:30Z</time>
      </trkpt>
      <trkpt lat="45.3325" lon="-0.06077">
        <ele>133.69140625</ele>
        <time>2015-07-31T10:05:39Z</time>
      </trkpt>
      <trkpt lat="45.33262" lon="-0.06012">
        <ele>134.28515625</ele>
        <time>2015-07-31T10:05:49Z</time>
      </trkpt>
      <trkpt lat="45.33267" lon="-0.05951">
        <ele>135.2890625</ele>
        <time>2015-07-31T10:05:58Z</time>
      </trkpt>
      <trkpt lat="45.33273" lon="-0.05903">
        <ele>136.90625</ele>
        <time>2015-07-31T10:06:06Z</time>
      </trkpt>
      <trkpt lat="45.33281" lon="-0.05862">
        <ele>138.62109375</ele>
        <time>2015-07-31T10:06:13Z</time>
      </trkpt>
      <trkpt lat="45.33283" lon="-0.0585">
        <ele>139.08203125</ele>
        <time>2015-07-31T10:06:15Z</time>
      </trkpt>
      <trkpt lat="45.33299" lon="-0.05793">
        <ele>140.42578125</ele>
        <time>2015-07-31T10:06:25Z</time>
      </trkpt>
      <trkpt lat="45.33308" lon="-0.05748">
        <ele>140.97265625</ele>
        <time>2015-07-31T10:06:34Z</time>
      </trkpt>
      <trkpt lat="45.33315" lon="-0.05696">
        <ele>141.37109375</ele>
        <time>2015-07-31T10:06:44Z</time>
      </trkpt>
      <trkpt lat="45.33327" lon="-0.05655">
        <ele>141.57421875</ele>
        <time>2015-07-31T10:06:52Z</time>
      </trkpt>
      <trkpt lat="45.33334" lon="-0.05634">
        <ele>142.03125</ele>
      </trkpt>
      <trkpt lat="45.33342" lon="-0.05621">
        <ele>142.453125</ele>
        <time>2015-07-31T10:10:26Z</time>
      </trkpt>
      <trkpt lat="45.33357" lon="-0.05591">
        <ele>143.24609375</ele>
        <time>2015-07-31T10:10:45Z</time>
      </trkpt>
      <trkpt lat="45.33375" lon="-0.05557">
        <ele>144.28515625</ele>
        <time>2015-07-31T10:10:54Z</time>
      </trkpt>
      <trkpt lat="45.33393" lon="-0.05519">
        <ele>145.26953125</ele>
        <time>2015-07-31T10:11:03Z</time>
      </trkpt>
      <trkpt lat="45.33417" lon="-0.05474">
        <ele>146.578125</ele>
        <time>2015-07-31T10:11:13Z</time>
      </trkpt>
      <trkpt lat="45.3344" lon="-0.05432">
        <ele>148.52734375</ele>
        <time>2015-07-31T10:11:23Z</time>
      </trkpt>
      <trkpt lat="45.33453" lon="-0.05388">
        <ele>150.5234375</ele>
        <time>2015-07-31T10:11:33Z</time>
      </trkpt>
      <trkpt lat="45.33458" lon="-0.05351">
        <ele>152.12890625</ele>
        <time>2015-07-31T10:11:42Z</time>
      </trkpt>
      <trkpt lat="45.33465" lon="-0.05304">
        <ele>153.98046875</ele>
        <time>2015-07-31T10:11:52Z</time>
      </trkpt>
      <trkpt lat="45.33479" lon="-0.05261">
        <ele>155.890625</ele>
        <time>2015-07-31T10:12:02Z</time>
      </trkpt>
      <trkpt lat="45.33481" lon="-0.0526">
        <ele>155.98828125</ele>
        <time>2015-07-31T10:12:03Z</time>
      </trkpt>
      <trkpt lat="45.33485" lon="-0.05263">
        <ele>155.98828125</ele>
        <time>2015-07-31T10:12:05Z</time>
      </trkpt>
      <trkpt lat="45.33486" lon="-0.05266">
        <ele>155.87109375</ele>
        <time>2015-07-31T10:12:06Z</time>
      </trkpt>
      <trkpt lat="45.33487" lon="-0.05269">
        <ele>155.72265625</ele>
        <time>2015-07-31T10:12:07Z</time>
      </trkpt>
      <trkpt lat="45.33488" lon="-0.05274">
        <ele>155.5234375</ele>
        <time>2015-07-31T10:12:08Z</time>
      </trkpt>
      <trkpt lat="45.33488" lon="-0.05279">
        <ele>155.29296875</ele>
        <time>2015-07-31T10:12:09Z</time>
      </trkpt>
      <trkpt lat="45.33492" lon="-0.05325">
        <ele>153.2578125</ele>
        <time>2015-07-31T10:12:16Z</time>
      </trkpt>
      <trkpt lat="45.3351" lon="-0.05389">
        <ele>150.86328125</ele>
        <time>2015-07-31T10:12:25Z</time>
      </trkpt>
      <trkpt lat="45.33524" lon="-0.05421">
        <ele>149.44921875</ele>
        <time>2015-07-31T10:12:29Z</time>
      </trkpt>
      <trkpt lat="45.33534" lon="-0.05444">
        <ele>148.625</ele>
        <time>2015-07-31T10:12:32Z</time>
      </trkpt>
      <trkpt lat="45.33546" lon="-0.05476">
        <ele>148.16796875</ele>
        <time>2015-07-31T10:12:36Z</time>
      </trkpt>
      <trkpt lat="45.33552" lon="-0.05508">
        <ele>147.66796875</ele>
        <time>2015-07-31T10:12:40Z</time>
      </trkpt>
      <trkpt lat="45.33569" lon="-0.05558">
        <ele>146.81640625</ele>
        <time>2015-07-31T10:12:47Z</time>
      </trkpt>
      <trkpt lat="45.33574" lon="-0.05583">
        <ele>146.33203125</ele>
        <time>2015-07-31T10:12:52Z</time>
      </trkpt>
      <trkpt lat="45.33574" lon="-0.05589">
        <ele>146.23828125</ele>
        <time>2015-07-31T10:12:53Z</time>
      </trkpt>
      <trkpt lat="45.33572" lon="-0.05601">
        <ele>146.11328125</ele>
        <time>2015-07-31T10:12:55Z</time>
      </trkpt>
      <trkpt lat="45.33568" lon="-0.05613">
        <ele>145.796875</ele>
        <time>2015-07-31T10:12:57Z</time>
      </trkpt>
      <trkpt lat="45.33562" lon="-0.05664">
        <ele>144.67578125</ele>
        <time>2015-07-31T10:13:04Z</time>
      </trkpt>
      <trkpt lat="45.33558" lon="-0.05722">
        <ele>142.12890625</ele>
        <time>2015-07-31T10:13:10Z</time>
      </trkpt>
      <trkpt lat="45.33553" lon="-0.05792">
        <ele>138.4921875</ele>
        <time>2015-07-31T10:13:16Z</time>
      </trkpt>
      <trkpt lat="45.3355" lon="-0.05817">
        <ele>137.2109375</ele>
        <time>2015-07-31T10:13:18Z</time>
      </trkpt>
      <trkpt lat="45.33545" lon="-0.05892">
        <ele>133.43359375</ele>
        <time>2015-07-31T10:13:24Z</time>
      </trkpt>
      <trkpt lat="45.33543" lon="-0.05915">
        <ele>131.625</ele>
        <time>2015-07-31T10:13:26Z</time>
      </trkpt>
      <trkpt lat="45.33542" lon="-0.05933">
        <ele>130.234375</ele>
        <time>2015-07-31T10:13:28Z</time>
      </trkpt>
      <trkpt lat="45.33549" lon="-0.05987">
        <ele>122.1015625</ele>
        <time>2015-07-31T10:13:32Z</time>
      </trkpt>
      <trkpt lat="45.33557" lon="-0.06029">
        <ele>116.12890625</ele>
        <time>2015-07-31T10:13:33Z</time>
      </trkpt>
      <trkpt lat="45.33565" lon="-0.0608">
        <ele>110.0234375</ele>
        <time>2015-07-31T10:13:35Z</time>
      </trkpt>
      <trkpt lat="45.33578" lon="-0.06124">
        <ele>105.7109375</ele>
        <time>2015-07-31T10:13:46Z</time>
      </trkpt>
      <trkpt lat="45.33584" lon="-0.06138">
        <ele>104.71875</ele>
        <time>2015-07-31T10:13:50Z</time>
      </trkpt>
      <trkpt lat="45.33654" lon="-0.06224">
        <ele>106.6484375</ele>
        <time>2015-07-31T10:14:05Z</time>
      </trkpt>
      <trkpt lat="45.33659" lon="-0.06236">
        <ele>107.4140625</ele>
        <time>2015-07-31T10:14:06Z</time>
      </trkpt>
      <trkpt lat="45.33914" lon="-0.06277">
        <ele>136.25390625</ele>
        <time>2015-07-31T10:16:35Z</time>
      </trkpt>
      <trkpt lat="45.33936" lon="-0.0629">
        <ele>137.03125</ele>
        <time>2015-07-31T10:16:40Z</time>
      </trkpt>
      <trkpt lat="45.33938" lon="-0.0629">
        <ele>137.0703125</ele>
        <time>2015-07-31T10:16:41Z</time>
      </trkpt>
      <trkpt lat="45.33939" lon="-0.06291">
        <ele>137.140625</ele>
        <time>2015-07-31T10:16:42Z</time>
      </trkpt>
      <trkpt lat="45.33954" lon="-0.06302">
        <ele>137.85546875</ele>
        <time>2015-07-31T10:16:50Z</time>
      </trkpt>
      <trkpt lat="45.33977" lon="-0.0632">
        <ele>138.8828125</ele>
        <time>2015-07-31T10:17:00Z</time>
      </trkpt>
      <trkpt lat="45.34001" lon="-0.0634">
        <ele>139.8828125</ele>
        <time>2015-07-31T10:17:09Z</time>
      </trkpt>
      <trkpt lat="45.34023" lon="-0.06357">
        <ele>140.49609375</ele>
        <time>2015-07-31T10:17:17Z</time>
      </trkpt>
      <trkpt lat="45.3405" lon="-0.06378">
        <ele>141.33984375</ele>
        <time>2015-07-31T10:17:27Z</time>
      </trkpt>
      <trkpt lat="45.34071" lon="-0.06394">
        <ele>142.32421875</ele>
        <time>2015-07-31T10:17:36Z</time>
      </trkpt>
      <trkpt lat="45.34085" lon="-0.06408">
        <ele>143.1015625</ele>
        <time>2015-07-31T10:17:42Z</time>
      </trkpt>
      <trkpt lat="45.34096" lon="-0.06438">
        <ele>144.3515625</ele>
        <time>2015-07-31T10:17:49Z</time>
      </trkpt>
      <trkpt lat="45.3411" lon="-0.0647">
        <ele>145.0859375</ele>
        <time>2015-07-31T10:17:56Z</time>
      </trkpt>
      <trkpt lat="45.34112" lon="-0.06475">
        <ele>145.21484375</ele>
        <time>2015-07-31T10:17:57Z</time>
      </trkpt>
      <trkpt lat="45.3412" lon="-0.06489">
        <ele>145.671875</ele>
        <time>2015-07-31T10:18:00Z</time>
      </trkpt>
      <trkpt lat="45.34126" lon="-0.065">
        <ele>145.984375</ele>
        <time>2015-07-31T10:18:02Z</time>
      </trkpt>
      <trkpt lat="45.34129" lon="-0.06505">
        <ele>146.109375</ele>
        <time>2015-07-31T10:18:03Z</time>
      </trkpt>
      <trkpt lat="45.34164" lon="-0.06546">
        <ele>147.96875</ele>
        <time>2015-07-31T10:18:13Z</time>
      </trkpt>
      <trkpt lat="45.342" lon="-0.06578">
        <ele>149.171875</ele>
        <time>2015-07-31T10:18:22Z</time>
      </trkpt>
      <trkpt lat="45.34231" lon="-0.06595">
        <ele>149.97265625</ele>
        <time>2015-07-31T10:18:30Z</time>
      </trkpt>
      <trkpt lat="45.34252" lon="-0.06604">
        <ele>150.08203125</ele>
        <time>2015-07-31T10:18:37Z</time>
      </trkpt>
      <trkpt lat="45.34273" lon="-0.06601">
        <ele>150.19140625</ele>
        <time>2015-07-31T10:18:44Z</time>
      </trkpt>
      <trkpt lat="45.34295" lon="-0.06591">
        <ele>150.59765625</ele>
        <time>2015-07-31T10:18:51Z</time>
      </trkpt>
      <trkpt lat="45.34329" lon="-0.06577">
        <ele>151.38671875</ele>
        <time>2015-07-31T10:19:01Z</time>
      </trkpt>
      <trkpt lat="45.34364" lon="-0.06561">
        <ele>152.375</ele>
        <time>2015-07-31T10:19:11Z</time>
      </trkpt>
      <trkpt lat="45.34405" lon="-0.06541">
        <ele>153.8203125</ele>
        <time>2015-07-31T10:19:22Z</time>
      </trkpt>
      <trkpt lat="45.3445" lon="-0.06513">
        <ele>154.13671875</ele>
        <time>2015-07-31T10:19:34Z</time>
      </trkpt>
      <trkpt lat="45.34473" lon="-0.06498">
        <ele>154.5234375</ele>
        <time>2015-07-31T10:19:41Z</time>
      </trkpt>
      <trkpt lat="45.34496" lon="-0.06483">
        <ele>155.09765625</ele>
        <time>2015-07-31T10:19:48Z</time>
      </trkpt>
      <trkpt lat="45.34506" lon="-0.06475">
        <ele>155.3125</ele>
        <time>2015-07-31T10:19:51Z</time>
      </trkpt>
      <trkpt lat="45.34554" lon="-0.06439">
        <ele>157.08203125</ele>
        <time>2015-07-31T10:20:04Z</time>
      </trkpt>
      <trkpt lat="45.34581" lon="-0.06412">
        <ele>158.2734375</ele>
        <time>2015-07-31T10:20:13Z</time>
      </trkpt>
      <trkpt lat="45.34589" lon="-0.06373">
        <ele>158.68359375</ele>
        <time>2015-07-31T10:20:20Z</time>
      </trkpt>
      <trkpt lat="45.34606" lon="-0.06336">
        <ele>159.28515625</ele>
        <time>2015-07-31T10:20:28Z</time>
      </trkpt>
      <trkpt lat="45.34625" lon="-0.06296">
        <ele>159.3671875</ele>
        <time>2015-07-31T10:20:39Z</time>
      </trkpt>
      <trkpt lat="45.34637" lon="-0.0627">
        <ele>159.33203125</ele>
        <time>2015-07-31T10:20:47Z</time>
      </trkpt>
      <trkpt lat="45.34652" lon="-0.06241">
        <ele>159.609375</ele>
        <time>2015-07-31T10:20:51Z</time>
      </trkpt>
      <trkpt lat="45.34672" lon="-0.06182">
        <ele>160.59375</ele>
      </trkpt>
      <trkpt lat="45.3466" lon="-0.06167">
        <ele>160.1953125</ele>
      </trkpt>
      <trkpt lat="45.34673" lon="-0.06135">
        <ele>161.2734375</ele>
      </trkpt>
      <trkpt lat="45.34721" lon="-0.06037">
        <ele>166.3984375</ele>
      </trkpt>
      <trkpt lat="45.34736" lon="-0.06013">
        <ele>167.65625</ele>
      </trkpt>
      <trkpt lat="45.34796" lon="-0.05943">
        <ele>169.86328125</ele>
      </trkpt>
      <trkpt lat="45.3482" lon="-0.05915">
        <ele>169.26171875</ele>
      </trkpt>
      <trkpt lat="45.34827" lon="-0.05883">
        <ele>169.171875</ele>
      </trkpt>
      <trkpt lat="45.34834" lon="-0.05882">
        <ele>168.83203125</ele>
      </trkpt>
      <trkpt lat="45.34846" lon="-0.0587">
        <ele>168.65234375</ele>
      </trkpt>
      <trkpt lat="45.34875" lon="-0.05819">
        <ele>166.80078125</ele>
      </trkpt>
      <trkpt lat="45.34886" lon="-0.05792">
        <ele>166.109375</ele>
      </trkpt>
      <trkpt lat="45.34899" lon="-0.05771">
        <ele>165.265625</ele>
      </trkpt>
      <trkpt lat="45.34911" lon="-0.05743">
        <ele>162.84765625</ele>
      </trkpt>
      <trkpt lat="45.34918" lon="-0.05724">
        <ele>161.59375</ele>
      </trkpt>
      <trkpt lat="45.34921" lon="-0.05695">
        <ele>159.09375</ele>
      </trkpt>
      <trkpt lat="45.34925" lon="-0.05682">
        <ele>157.734375</ele>
      </trkpt>
      <trkpt lat="45.34972" lon="-0.05619">
        <ele>152.35546875</ele>
      </trkpt>
      <trkpt lat="45.35015" lon="-0.05528">
        <ele>148.09765625</ele>
      </trkpt>
      <trkpt lat="45.35072" lon="-0.05432">
        <ele>143.48046875</ele>
      </trkpt>
      <trkpt lat="45.35125" lon="-0.0536">
        <ele>139.09765625</ele>
      </trkpt>
      <trkpt lat="45.35133" lon="-0.05357">
        <ele>138.81640625</ele>
      </trkpt>
      <trkpt lat="45.35138" lon="-0.05345">
        <ele>138.296875</ele>
      </trkpt>
      <trkpt lat="45.35143" lon="-0.05327">
        <ele>137.78515625</ele>
      </trkpt>
      <trkpt lat="45.3516" lon="-0.05247">
        <ele>140.9375</ele>
      </trkpt>
      <trkpt lat="45.35167" lon="-0.05234">
        <ele>141.7265625</ele>
      </trkpt>
      <trkpt lat="45.35185" lon="-0.05212">
        <ele>143.53125</ele>
      </trkpt>
      <trkpt lat="45.35193" lon="-0.05202">
        <ele>144.2890625</ele>
      </trkpt>
      <trkpt lat="45.35198" lon="-0.05188">
        <ele>145.12109375</ele>
      </trkpt>
      <trkpt lat="45.35201" lon="-0.05159">
        <ele>146.60546875</ele>
      </trkpt>
      <trkpt lat="45.35188" lon="-0.05061">
        <ele>151.4765625</ele>
      </trkpt>
      <trkpt lat="45.35185" lon="-0.0503">
        <ele>152.734375</ele>
      </trkpt>
      <trkpt lat="45.3518" lon="-0.0501">
        <ele>153.5390625</ele>
      </trkpt>
      <trkpt lat="45.35173" lon="-0.04983">
        <ele>154</ele>
      </trkpt>
      <trkpt lat="45.35155" lon="-0.04965">
        <ele>154</ele>
      </trkpt>
      <trkpt lat="45.35133" lon="-0.0495">
        <ele>154</ele>
      </trkpt>
      <trkpt lat="45.35122" lon="-0.04946">
        <ele>154.07421875</ele>
      </trkpt>
      <trkpt lat="45.35091" lon="-0.04944">
        <ele>154.62890625</ele>
      </trkpt>
      <trkpt lat="45.3508" lon="-0.04936">
        <ele>154.72265625</ele>
      </trkpt>
      <trkpt lat="45.35069" lon="-0.04918">
        <ele>154.57421875</ele>
      </trkpt>
      <trkpt lat="45.35063" lon="-0.04902">
        <ele>154.28125</ele>
      </trkpt>
      <trkpt lat="45.35064" lon="-0.04851">
        <ele>152.79296875</ele>
      </trkpt>
      <trkpt lat="45.35059" lon="-0.0481">
        <ele>151.89453125</ele>
      </trkpt>
      <trkpt lat="45.35062" lon="-0.04805">
        <ele>151.76953125</ele>
        <time>2016-11-02T13:24:31Z</time>
      </trkpt>
      <trkpt lat="45.35064" lon="-0.04794">
        <ele>151.53515625</ele>
        <time>2016-11-02T13:24:37Z</time>
      </trkpt>
      <trkpt lat="45.35067" lon="-0.04768">
        <ele>150.8671875</ele>
        <time>2016-11-02T13:24:43Z</time>
      </trkpt>
      <trkpt lat="45.35069" lon="-0.04749">
        <ele>150.125</ele>
        <time>2016-11-02T13:24:46Z</time>
      </trkpt>
      <trkpt lat="45.35074" lon="-0.04715">
        <ele>148.8828125</ele>
        <time>2016-11-02T13:24:51Z</time>
      </trkpt>
      <trkpt lat="45.3508" lon="-0.04673">
        <ele>149.15625</ele>
        <time>2016-11-02T13:24:58Z</time>
      </trkpt>
      <trkpt lat="45.35084" lon="-0.04653">
        <ele>149.0234375</ele>
        <time>2016-11-02T13:25:01Z</time>
      </trkpt>
      <trkpt lat="45.35089" lon="-0.04616">
        <ele>148.640625</ele>
        <time>2016-11-02T13:25:07Z</time>
      </trkpt>
      <trkpt lat="45.3509" lon="-0.0459">
        <ele>148.66796875</ele>
        <time>2016-11-02T13:25:12Z</time>
      </trkpt>
      <trkpt lat="45.35091" lon="-0.04584">
        <ele>148.66796875</ele>
        <time>2016-11-02T13:25:13Z</time>
      </trkpt>
      <trkpt lat="45.35092" lon="-0.04577">
        <ele>148.6796875</ele>
        <time>2016-11-02T13:25:14Z</time>
      </trkpt>
      <trkpt lat="45.35094" lon="-0.0454">
        <ele>149.15234375</ele>
        <time>2016-11-02T13:25:19Z</time>
      </trkpt>
      <trkpt lat="45.35094" lon="-0.04526">
        <ele>149.62109375</ele>
        <time>2016-11-02T13:25:21Z</time>
      </trkpt>
      <trkpt lat="45.35094" lon="-0.0452">
        <ele>149.80078125</ele>
        <time>2016-11-02T13:25:22Z</time>
      </trkpt>
      <trkpt lat="45.35095" lon="-0.04515">
        <ele>149.94140625</ele>
        <time>2016-11-02T13:25:23Z</time>
      </trkpt>
      <trkpt lat="45.35096" lon="-0.0451">
        <ele>150.1015625</ele>
        <time>2016-11-02T13:25:24Z</time>
      </trkpt>
      <trkpt lat="45.35096" lon="-0.04505">
        <ele>150.26953125</ele>
        <time>2016-11-02T13:25:25Z</time>
      </trkpt>
      <trkpt lat="45.35097" lon="-0.045">
        <ele>150.40234375</ele>
        <time>2016-11-02T13:25:26Z</time>
      </trkpt>
      <trkpt lat="45.35106" lon="-0.04465">
        <ele>152.27734375</ele>
        <time>2016-11-02T13:25:33Z</time>
      </trkpt>
      <trkpt lat="45.3511" lon="-0.0445">
        <ele>153.2421875</ele>
        <time>2016-11-02T13:25:36Z</time>
      </trkpt>
      <trkpt lat="45.35113" lon="-0.04408">
        <ele>155.44921875</ele>
        <time>2016-11-02T13:25:44Z</time>
      </trkpt>
      <trkpt lat="45.35112" lon="-0.04375">
        <ele>157.13671875</ele>
        <time>2016-11-02T13:25:52Z</time>
      </trkpt>
      <trkpt lat="45.35111" lon="-0.0434">
        <ele>158.97265625</ele>
        <time>2016-11-02T13:26:01Z</time>
      </trkpt>
      <trkpt lat="45.35109" lon="-0.04294">
        <ele>160.91015625</ele>
        <time>2016-11-02T13:26:13Z</time>
      </trkpt>
      <trkpt lat="45.35105" lon="-0.04256">
        <ele>162.10546875</ele>
        <time>2016-11-02T13:26:23Z</time>
      </trkpt>
      <trkpt lat="45.351" lon="-0.04229">
        <ele>162.7578125</ele>
        <time>2016-11-02T13:26:31Z</time>
      </trkpt>
      <trkpt lat="45.351" lon="-0.0421">
        <ele>163.08203125</ele>
        <time>2016-11-02T13:26:37Z</time>
      </trkpt>
      <trkpt lat="45.35098" lon="-0.04188">
        <ele>163.2890625</ele>
        <time>2016-11-02T13:26:44Z</time>
      </trkpt>
      <trkpt lat="45.35099" lon="-0.0416">
        <ele>163.5234375</ele>
        <time>2016-11-02T13:26:51Z</time>
      </trkpt>
      <trkpt lat="45.35094" lon="-0.04133">
        <ele>163.890625</ele>
        <time>2016-11-02T13:26:58Z</time>
      </trkpt>
      <trkpt lat="45.35086" lon="-0.04103">
        <ele>164.375</ele>
        <time>2016-11-02T13:27:05Z</time>
      </trkpt>
      <trkpt lat="45.35078" lon="-0.04075">
        <ele>164.1953125</ele>
        <time>2016-11-02T13:27:12Z</time>
      </trkpt>
      <trkpt lat="45.35072" lon="-0.0404">
        <ele>163.73828125</ele>
        <time>2016-11-02T13:27:19Z</time>
      </trkpt>
      <trkpt lat="45.35065" lon="-0.04007">
        <ele>163.359375</ele>
        <time>2016-11-02T13:27:25Z</time>
      </trkpt>
      <trkpt lat="45.35057" lon="-0.03964">
        <ele>161.6640625</ele>
        <time>2016-11-02T13:27:32Z</time>
      </trkpt>
      <trkpt lat="45.35052" lon="-0.03908">
        <ele>158.82421875</ele>
        <time>2016-11-02T13:27:40Z</time>
      </trkpt>
      <trkpt lat="45.35051" lon="-0.03901">
        <ele>158.45703125</ele>
        <time>2016-11-02T13:27:41Z</time>
      </trkpt>
      <trkpt lat="45.3505" lon="-0.03893">
        <ele>158.06640625</ele>
        <time>2016-11-02T13:27:42Z</time>
      </trkpt>
      <trkpt lat="45.3505" lon="-0.03878">
        <ele>157.11328125</ele>
        <time>2016-11-02T13:27:44Z</time>
      </trkpt>
      <trkpt lat="45.35048" lon="-0.03869">
        <ele>156.484375</ele>
        <time>2016-11-02T13:27:45Z</time>
      </trkpt>
      <trkpt lat="45.35047" lon="-0.03861">
        <ele>155.91796875</ele>
        <time>2016-11-02T13:27:46Z</time>
      </trkpt>
      <trkpt lat="45.35031" lon="-0.03809">
        <ele>153.8828125</ele>
        <time>2016-11-02T13:27:52Z</time>
      </trkpt>
      <trkpt lat="45.3503" lon="-0.038">
        <ele>153.640625</ele>
        <time>2016-11-02T13:27:53Z</time>
      </trkpt>
      <trkpt lat="45.3503" lon="-0.03792">
        <ele>153.27734375</ele>
        <time>2016-11-02T13:27:54Z</time>
      </trkpt>
      <trkpt lat="45.35024" lon="-0.03777">
        <ele>153.23828125</ele>
        <time>2016-11-02T13:27:56Z</time>
      </trkpt>
      <trkpt lat="45.35018" lon="-0.03764">
        <ele>153.07421875</ele>
        <time>2016-11-02T13:27:57Z</time>
      </trkpt>
      <trkpt lat="45.35024" lon="-0.03749">
        <ele>151.74609375</ele>
        <time>2016-11-02T13:27:58Z</time>
      </trkpt>
      <trkpt lat="45.35029" lon="-0.03729">
        <ele>150.2109375</ele>
        <time>2016-11-02T13:27:59Z</time>
      </trkpt>
      <trkpt lat="45.35035" lon="-0.0371">
        <ele>148.47265625</ele>
        <time>2016-11-02T13:28:00Z</time>
      </trkpt>
      <trkpt lat="45.35049" lon="-0.03681">
        <ele>145.55859375</ele>
        <time>2016-11-02T13:28:08Z</time>
      </trkpt>
      <trkpt lat="45.35069" lon="-0.03644">
        <ele>142.328125</ele>
        <time>2016-11-02T13:28:11Z</time>
      </trkpt>
      <trkpt lat="45.35078" lon="-0.03612">
        <ele>140.53515625</ele>
        <time>2016-11-02T13:28:15Z</time>
      </trkpt>
      <trkpt lat="45.35091" lon="-0.03583">
        <ele>138.3046875</ele>
        <time>2016-11-02T13:28:21Z</time>
      </trkpt>
      <trkpt lat="45.35113" lon="-0.03549">
        <ele>135.421875</ele>
        <time>2016-11-02T13:28:23Z</time>
      </trkpt>
      <trkpt lat="45.35126" lon="-0.03512">
        <ele>132.75</ele>
        <time>2016-11-02T13:28:28Z</time>
      </trkpt>
      <trkpt lat="45.35149" lon="-0.03465">
        <ele>131.34375</ele>
        <time>2016-11-02T13:28:31Z</time>
      </trkpt>
      <trkpt lat="45.35183" lon="-0.0343">
        <ele>129.71484375</ele>
        <time>2016-11-02T13:28:34Z</time>
      </trkpt>
      <trkpt lat="45.35197" lon="-0.03414">
        <ele>128.79296875</ele>
        <time>2016-11-02T13:28:43Z</time>
      </trkpt>
      <trkpt lat="45.35225" lon="-0.03369">
        <ele>126.046875</ele>
        <time>2016-11-02T13:28:49Z</time>
      </trkpt>
      <trkpt lat="45.35249" lon="-0.03335">
        <ele>123.46484375</ele>
        <time>2016-11-02T13:28:53Z</time>
      </trkpt>
      <trkpt lat="45.35281" lon="-0.03299">
        <ele>121.51171875</ele>
        <time>2016-11-02T13:28:56Z</time>
      </trkpt>
      <trkpt lat="45.35285" lon="-0.03289">
        <ele>121.296875</ele>
        <time>2016-11-02T13:30:45Z</time>
      </trkpt>
      <trkpt lat="45.35296" lon="-0.03266">
        <ele>121.64453125</ele>
        <time>2016-11-02T13:30:53Z</time>
      </trkpt>
      <trkpt lat="45.35307" lon="-0.03244">
        <ele>123.48828125</ele>
        <time>2016-11-02T13:30:58Z</time>
      </trkpt>
      <trkpt lat="45.35314" lon="-0.03233">
        <ele>124.609375</ele>
        <time>2016-11-02T13:31:02Z</time>
      </trkpt>
      <trkpt lat="45.35321" lon="-0.03216">
        <ele>126.57421875</ele>
        <time>2016-11-02T13:31:03Z</time>
      </trkpt>
      <trkpt lat="45.3533" lon="-0.03195">
        <ele>130.19921875</ele>
        <time>2016-11-02T13:31:04Z</time>
      </trkpt>
      <trkpt lat="45.35336" lon="-0.03176">
        <ele>133.3828125</ele>
        <time>2016-11-02T13:31:05Z</time>
      </trkpt>
      <trkpt lat="45.35346" lon="-0.03151">
        <ele>137.30859375</ele>
        <time>2016-11-02T13:31:06Z</time>
      </trkpt>
      <trkpt lat="45.35356" lon="-0.0313">
        <ele>140.2421875</ele>
        <time>2016-11-02T13:31:07Z</time>
      </trkpt>
      <trkpt lat="45.3536" lon="-0.0312">
        <ele>141.61328125</ele>
        <time>2016-11-02T13:31:12Z</time>
      </trkpt>
      <trkpt lat="45.35365" lon="-0.03107">
        <ele>143.09375</ele>
        <time>2016-11-02T13:31:18Z</time>
      </trkpt>
      <trkpt lat="45.35376" lon="-0.03076">
        <ele>146.53515625</ele>
        <time>2016-11-02T13:31:23Z</time>
      </trkpt>
      <trkpt lat="45.3539" lon="-0.03049">
        <ele>149.62890625</ele>
        <time>2016-11-02T13:31:24Z</time>
      </trkpt>
      <trkpt lat="45.35402" lon="-0.03024">
        <ele>151.55859375</ele>
        <time>2016-11-02T13:31:27Z</time>
      </trkpt>
      <trkpt lat="45.35411" lon="-0.03004">
        <ele>152.08984375</ele>
        <time>2016-11-02T13:31:29Z</time>
      </trkpt>
      <trkpt lat="45.3542" lon="-0.02996">
        <ele>151.94921875</ele>
        <time>2016-11-02T13:31:38Z</time>
      </trkpt>
      <trkpt lat="45.35439" lon="-0.02996">
        <ele>150.55859375</ele>
        <time>2016-11-02T13:31:46Z</time>
      </trkpt>
      <trkpt lat="45.35462" lon="-0.0299">
        <ele>149.421875</ele>
        <time>2016-11-02T13:31:51Z</time>
      </trkpt>
      <trkpt lat="45.35475" lon="-0.02983">
        <ele>149.28125</ele>
        <time>2016-11-02T13:32:03Z</time>
      </trkpt>
      <trkpt lat="45.35491" lon="-0.02956">
        <ele>150.75390625</ele>
        <time>2016-11-02T13:32:11Z</time>
      </trkpt>
      <trkpt lat="45.35507" lon="-0.02927">
        <ele>151.87109375</ele>
        <time>2016-11-02T13:32:15Z</time>
      </trkpt>
      <trkpt lat="45.35516" lon="-0.02921">
        <ele>151.74609375</ele>
        <time>2016-11-02T13:32:27Z</time>
      </trkpt>
      <trkpt lat="45.3554" lon="-0.02914">
        <ele>151.34375</ele>
        <time>2016-11-02T13:32:41Z</time>
      </trkpt>
      <trkpt lat="45.3557" lon="-0.02905">
        <ele>150.66015625</ele>
        <time>2016-11-02T13:32:47Z</time>
      </trkpt>
      <trkpt lat="45.35597" lon="-0.02897">
        <ele>149.44140625</ele>
        <time>2016-11-02T13:32:53Z</time>
      </trkpt>
      <trkpt lat="45.3562" lon="-0.02888">
        <ele>148.30078125</ele>
        <time>2016-11-02T13:33:03Z</time>
      </trkpt>
      <trkpt lat="45.35645" lon="-0.02882">
        <ele>146.1875</ele>
        <time>2016-11-02T13:33:13Z</time>
      </trkpt>
      <trkpt lat="45.35663" lon="-0.02882">
        <ele>144.55859375</ele>
        <time>2016-11-02T13:33:25Z</time>
      </trkpt>
      <trkpt lat="45.35675" lon="-0.02875">
        <ele>143.546875</ele>
        <time>2016-11-02T13:33:37Z</time>
      </trkpt>
      <trkpt lat="45.35685" lon="-0.02876">
        <ele>142.5703125</ele>
        <time>2016-11-02T13:33:43Z</time>
      </trkpt>
      <trkpt lat="45.35697" lon="-0.02874">
        <ele>141.50390625</ele>
        <time>2016-11-02T13:33:44Z</time>
      </trkpt>
      <trkpt lat="45.35705" lon="-0.02866">
        <ele>140.8828125</ele>
        <time>2016-11-02T13:38:41Z</time>
      </trkpt>
      <trkpt lat="45.35722" lon="-0.02857">
        <ele>139.7890625</ele>
        <time>2016-11-02T13:38:49Z</time>
      </trkpt>
      <trkpt lat="45.35741" lon="-0.0285">
        <ele>138.734375</ele>
        <time>2016-11-02T13:38:57Z</time>
      </trkpt>
      <trkpt lat="45.35763" lon="-0.02829">
        <ele>138.6171875</ele>
        <time>2016-11-02T13:39:03Z</time>
      </trkpt>
      <trkpt lat="45.3578" lon="-0.02813">
        <ele>137.80078125</ele>
        <time>2016-11-02T13:39:11Z</time>
      </trkpt>
      <trkpt lat="45.35779" lon="-0.02787">
        <ele>138.0859375</ele>
        <time>2016-11-02T13:39:19Z</time>
      </trkpt>
      <trkpt lat="45.35776" lon="-0.02758">
        <ele>138.09765625</ele>
        <time>2016-11-02T13:39:26Z</time>
      </trkpt>
      <trkpt lat="45.35776" lon="-0.02723">
        <ele>137.46484375</ele>
        <time>2016-11-02T13:39:51Z</time>
      </trkpt>
      <trkpt lat="45.35775" lon="-0.02693">
        <ele>136.17578125</ele>
        <time>2016-11-02T13:39:58Z</time>
      </trkpt>
      <trkpt lat="45.35773" lon="-0.02666">
        <ele>135.06640625</ele>
        <time>2016-11-02T13:40:03Z</time>
      </trkpt>
      <trkpt lat="45.35772" lon="-0.02609">
        <ele>131.46484375</ele>
        <time>2016-11-02T13:40:12Z</time>
      </trkpt>
      <trkpt lat="45.35769" lon="-0.02558">
        <ele>131.25</ele>
        <time>2016-11-02T13:40:19Z</time>
      </trkpt>
      <trkpt lat="45.35769" lon="-0.02551">
        <ele>131.44921875</ele>
        <time>2016-11-02T13:40:20Z</time>
      </trkpt>
      <trkpt lat="45.35769" lon="-0.02502">
        <ele>134.62890625</ele>
        <time>2016-11-02T13:40:29Z</time>
      </trkpt>
      <trkpt lat="45.3577" lon="-0.02451">
        <ele>139.6328125</ele>
        <time>2016-11-02T13:40:54Z</time>
      </trkpt>
      <trkpt lat="45.35775" lon="-0.02424">
        <ele>141.70703125</ele>
        <time>2016-11-02T13:41:02Z</time>
      </trkpt>
      <trkpt lat="45.35779" lon="-0.02407">
        <ele>142.8046875</ele>
        <time>2016-11-02T13:41:09Z</time>
      </trkpt>
      <trkpt lat="45.35785" lon="-0.02393">
        <ele>143.734375</ele>
        <time>2016-11-02T13:41:10Z</time>
      </trkpt>
      <trkpt lat="45.35792" lon="-0.02377">
        <ele>144.7421875</ele>
        <time>2016-11-02T13:41:18Z</time>
      </trkpt>
      <trkpt lat="45.35798" lon="-0.02368">
        <ele>145.0546875</ele>
        <time>2016-11-02T13:41:25Z</time>
      </trkpt>
      <trkpt lat="45.35793" lon="-0.02366">
        <ele>145.5</ele>
      </trkpt>
      <trkpt lat="45.35767" lon="-0.02329">
        <ele>148.046875</ele>
      </trkpt>
      <trkpt lat="45.35761" lon="-0.02319">
        <ele>148.23046875</ele>
      </trkpt>
      <trkpt lat="45.3575" lon="-0.02285">
        <ele>148.84375</ele>
      </trkpt>
      <trkpt lat="45.35744" lon="-0.02273">
        <ele>148.96875</ele>
        <time>2016-11-02T13:41:34Z</time>
      </trkpt>
      <trkpt lat="45.35739" lon="-0.02252">
        <ele>148.62890625</ele>
        <time>2016-11-02T13:41:44Z</time>
      </trkpt>
      <trkpt lat="45.35734" lon="-0.02226">
        <ele>147.890625</ele>
        <time>2016-11-02T13:41:51Z</time>
      </trkpt>
      <trkpt lat="45.35731" lon="-0.02189">
        <ele>146.26953125</ele>
        <time>2016-11-02T13:41:57Z</time>
      </trkpt>
      <trkpt lat="45.35735" lon="-0.02166">
        <ele>145.78515625</ele>
        <time>2016-11-02T13:42:05Z</time>
      </trkpt>
      <trkpt lat="45.35742" lon="-0.02138">
        <ele>145.1640625</ele>
      </trkpt>
      <trkpt lat="45.35757" lon="-0.02091">
        <ele>144.3203125</ele>
      </trkpt>
      <trkpt lat="45.35772" lon="-0.02045">
        <ele>142.0703125</ele>
      </trkpt>
      <trkpt lat="45.35786" lon="-0.01997">
        <ele>138.86328125</ele>
      </trkpt>
      <trkpt lat="45.35797" lon="-0.01966">
        <ele>136.15625</ele>
      </trkpt>
      <trkpt lat="45.35804" lon="-0.01935">
        <ele>133.62109375</ele>
      </trkpt>
      <trkpt lat="45.35806" lon="-0.0191">
        <ele>132.50390625</ele>
      </trkpt>
      <trkpt lat="45.35807" lon="-0.01885">
        <ele>131.5</ele>
      </trkpt>
      <trkpt lat="45.35803" lon="-0.01857">
        <ele>130.6875</ele>
      </trkpt>
      <trkpt lat="45.35795" lon="-0.01825">
        <ele>128.87109375</ele>
      </trkpt>
      <trkpt lat="45.35786" lon="-0.01802">
        <ele>127.79296875</ele>
      </trkpt>
      <trkpt lat="45.35778" lon="-0.01782">
        <ele>126.85546875</ele>
      </trkpt>
      <trkpt lat="45.35765" lon="-0.01764">
        <ele>124.8984375</ele>
      </trkpt>
      <trkpt lat="45.35748" lon="-0.01741">
        <ele>122.0625</ele>
      </trkpt>
      <trkpt lat="45.35733" lon="-0.01722">
        <ele>119.76953125</ele>
      </trkpt>
      <trkpt lat="45.35714" lon="-0.01697">
        <ele>117.97265625</ele>
      </trkpt>
      <trkpt lat="45.35658" lon="-0.01622">
        <ele>113.8046875</ele>
      </trkpt>
      <trkpt lat="45.35642" lon="-0.01597">
        <ele>112.98046875</ele>
      </trkpt>
      <trkpt lat="45.35627" lon="-0.01563">
        <ele>112.15234375</ele>
      </trkpt>
      <trkpt lat="45.35614" lon="-0.0153">
        <ele>111.875</ele>
      </trkpt>
      <trkpt lat="45.35596" lon="-0.01493">
        <ele>111.4375</ele>
      </trkpt>
      <trkpt lat="45.35578" lon="-0.01466">
        <ele>111.2578125</ele>
      </trkpt>
      <trkpt lat="45.35553" lon="-0.0143">
        <ele>111.0703125</ele>
      </trkpt>
      <trkpt lat="45.35537" lon="-0.01407">
        <ele>110.9296875</ele>
      </trkpt>
      <trkpt lat="45.35513" lon="-0.01376">
        <ele>111.09375</ele>
      </trkpt>
      <trkpt lat="45.35503" lon="-0.01347">
        <ele>111.7578125</ele>
      </trkpt>
      <trkpt lat="45.355" lon="-0.0132">
        <ele>112.05859375</ele>
      </trkpt>
      <trkpt lat="45.35498" lon="-0.01291">
        <ele>112.171875</ele>
      </trkpt>
      <trkpt lat="45.35495" lon="-0.01256">
        <ele>112.27734375</ele>
      </trkpt>
      <trkpt lat="45.35491" lon="-0.0122">
        <ele>112.25390625</ele>
      </trkpt>
      <trkpt lat="45.35488" lon="-0.01204">
        <ele>112.11328125</ele>
      </trkpt>
      <trkpt lat="45.35481" lon="-0.01213">
        <ele>112.6640625</ele>
      </trkpt>
      <trkpt lat="45.35455" lon="-0.01239">
        <ele>114.640625</ele>
      </trkpt>
      <trkpt lat="45.35436" lon="-0.01257">
        <ele>116.91015625</ele>
      </trkpt>
      <trkpt lat="45.35401" lon="-0.01292">
        <ele>121.53125</ele>
      </trkpt>
      <trkpt lat="45.35377" lon="-0.01321">
        <ele>125.046875</ele>
      </trkpt>
      <trkpt lat="45.35362" lon="-0.01337">
        <ele>127.17578125</ele>
      </trkpt>
      <trkpt lat="45.35338" lon="-0.01377">
        <ele>129.57421875</ele>
      </trkpt>
      <trkpt lat="45.35308" lon="-0.01421">
        <ele>131.41015625</ele>
      </trkpt>
      <trkpt lat="45.35278" lon="-0.01463">
        <ele>132.0546875</ele>
      </trkpt>
      <trkpt lat="45.3525" lon="-0.01497">
        <ele>133.30078125</ele>
      </trkpt>
      <trkpt lat="45.35235" lon="-0.01516">
        <ele>134.515625</ele>
      </trkpt>
      <trkpt lat="45.35219" lon="-0.01531">
        <ele>135.55078125</ele>
      </trkpt>
      <trkpt lat="45.35214" lon="-0.01529">
        <ele>136.1015625</ele>
      </trkpt>
      <trkpt lat="45.35208" lon="-0.01525">
        <ele>136.52734375</ele>
      </trkpt>
      <trkpt lat="45.35204" lon="-0.01518">
        <ele>136.7265625</ele>
      </trkpt>
      <trkpt lat="45.35196" lon="-0.01534">
        <ele>138.01171875</ele>
      </trkpt>
      <trkpt lat="45.3518" lon="-0.01555">
        <ele>141.02734375</ele>
      </trkpt>
      <trkpt lat="45.35163" lon="-0.01576">
        <ele>142.421875</ele>
      </trkpt>
      <trkpt lat="45.35149" lon="-0.01592">
        <ele>144.58203125</ele>
      </trkpt>
      <trkpt lat="45.35135" lon="-0.01607">
        <ele>147.49609375</ele>
      </trkpt>
      <trkpt lat="45.35114" lon="-0.01627">
        <ele>148.50390625</ele>
      </trkpt>
      <trkpt lat="45.35095" lon="-0.01646">
        <ele>148.95703125</ele>
      </trkpt>
      <trkpt lat="45.3508" lon="-0.01659">
        <ele>150.078125</ele>
      </trkpt>
      <trkpt lat="45.3507" lon="-0.01668">
        <ele>150.94140625</ele>
      </trkpt>
      <trkpt lat="45.35054" lon="-0.01677">
        <ele>151.8671875</ele>
      </trkpt>
      <trkpt lat="45.35038" lon="-0.01685">
        <ele>153.03125</ele>
      </trkpt>
      <trkpt lat="45.35027" lon="-0.0169">
        <ele>153.91796875</ele>
      </trkpt>
      <trkpt lat="45.3501" lon="-0.01694">
        <ele>155.625</ele>
      </trkpt>
      <trkpt lat="45.34998" lon="-0.01697">
        <ele>157.19921875</ele>
      </trkpt>
      <trkpt lat="45.3499" lon="-0.017">
        <ele>158.33984375</ele>
      </trkpt>
      <trkpt lat="45.34983" lon="-0.01699">
        <ele>159.30078125</ele>
      </trkpt>
      <trkpt lat="45.34977" lon="-0.01703">
        <ele>160.09375</ele>
      </trkpt>
      <trkpt lat="45.34972" lon="-0.01708">
        <ele>160.56640625</ele>
      </trkpt>
      <trkpt lat="45.34966" lon="-0.01715">
        <ele>161.21484375</ele>
      </trkpt>
      <trkpt lat="45.34962" lon="-0.0172">
        <ele>161.69140625</ele>
      </trkpt>
      <trkpt lat="45.34958" lon="-0.01725">
        <ele>161.7890625</ele>
      </trkpt>
      <trkpt lat="45.34953" lon="-0.01734">
        <ele>162.05859375</ele>
      </trkpt>
      <trkpt lat="45.3495" lon="-0.01737">
        <ele>162.41796875</ele>
      </trkpt>
      <trkpt lat="45.34944" lon="-0.01744">
        <ele>163.12109375</ele>
      </trkpt>
      <trkpt lat="45.34942" lon="-0.01748">
        <ele>163.15234375</ele>
      </trkpt>
      <trkpt lat="45.34939" lon="-0.01756">
        <ele>163.3125</ele>
      </trkpt>
      <trkpt lat="45.34937" lon="-0.0176">
        <ele>163.38671875</ele>
      </trkpt>
      <trkpt lat="45.34933" lon="-0.01775">
        <ele>163.1328125</ele>
      </trkpt>
      <trkpt lat="45.3493" lon="-0.01794">
        <ele>163.26171875</ele>
      </trkpt>
      <trkpt lat="45.34931" lon="-0.01808">
        <ele>162.5390625</ele>
      </trkpt>
      <trkpt lat="45.34933" lon="-0.01829">
        <ele>161.19921875</ele>
      </trkpt>
      <trkpt lat="45.34936" lon="-0.01845">
        <ele>161.39453125</ele>
      </trkpt>
      <trkpt lat="45.34937" lon="-0.01852">
        <ele>161.6796875</ele>
      </trkpt>
      <trkpt lat="45.34939" lon="-0.01861">
        <ele>161.78515625</ele>
      </trkpt>
      <trkpt lat="45.34941" lon="-0.01867">
        <ele>161.90625</ele>
      </trkpt>
      <trkpt lat="45.34944" lon="-0.01877">
        <ele>162.0859375</ele>
      </trkpt>
      <trkpt lat="45.34945" lon="-0.01881">
        <ele>162.19921875</ele>
      </trkpt>
      <trkpt lat="45.34949" lon="-0.01891">
        <ele>162.60546875</ele>
      </trkpt>
      <trkpt lat="45.34952" lon="-0.01897">
        <ele>163.22265625</ele>
      </trkpt>
      <trkpt lat="45.34952" lon="-0.01904">
        <ele>164.26171875</ele>
      </trkpt>
      <trkpt lat="45.34952" lon="-0.01913">
        <ele>166</ele>
      </trkpt>
      <trkpt lat="45.34952" lon="-0.01924">
        <ele>168.0078125</ele>
      </trkpt>
      <trkpt lat="45.3495" lon="-0.01941">
        <ele>171.203125</ele>
      </trkpt>
      <trkpt lat="45.34948" lon="-0.01949">
        <ele>172.3671875</ele>
      </trkpt>
      <trkpt lat="45.34944" lon="-0.01957">
        <ele>173.37109375</ele>
      </trkpt>
      <trkpt lat="45.3494" lon="-0.01964">
        <ele>174.06640625</ele>
      </trkpt>
      <trkpt lat="45.34932" lon="-0.0197">
        <ele>174.68359375</ele>
        <time>2016-11-02T13:50:22Z</time>
      </trkpt>
      <trkpt lat="45.34917" lon="-0.01962">
        <ele>174.609375</ele>
        <time>2016-11-02T13:50:28Z</time>
      </trkpt>
      <trkpt lat="45.34915" lon="-0.01961">
        <ele>174.6171875</ele>
        <time>2016-11-02T13:50:29Z</time>
      </trkpt>
      <trkpt lat="45.34904" lon="-0.01956">
        <ele>174.9921875</ele>
        <time>2016-11-02T13:50:38Z</time>
      </trkpt>
      <trkpt lat="45.34902" lon="-0.01955">
        <ele>175.03515625</ele>
        <time>2016-11-02T13:50:44Z</time>
      </trkpt>
      <trkpt lat="45.34898" lon="-0.01954">
        <ele>175.1171875</ele>
        <time>2016-11-02T13:50:59Z</time>
      </trkpt>
      <trkpt lat="45.34887" lon="-0.01954">
        <ele>175.36328125</ele>
        <time>2016-11-02T13:51:06Z</time>
      </trkpt>
      <trkpt lat="45.34863" lon="-0.01954">
        <ele>175.890625</ele>
        <time>2016-11-02T13:51:15Z</time>
      </trkpt>
      <trkpt lat="45.34839" lon="-0.01953">
        <ele>176.41015625</ele>
        <time>2016-11-02T13:51:24Z</time>
      </trkpt>
      <trkpt lat="45.34812" lon="-0.01943">
        <ele>177.64453125</ele>
        <time>2016-11-02T13:51:34Z</time>
      </trkpt>
      <trkpt lat="45.34793" lon="-0.01928">
        <ele>179.125</ele>
        <time>2016-11-02T13:51:42Z</time>
      </trkpt>
      <trkpt lat="45.34777" lon="-0.01907">
        <ele>180.4453125</ele>
        <time>2016-11-02T13:51:50Z</time>
      </trkpt>
      <trkpt lat="45.34761" lon="-0.0188">
        <ele>181.609375</ele>
        <time>2016-11-02T13:51:59Z</time>
      </trkpt>
      <trkpt lat="45.34746" lon="-0.01853">
        <ele>181.484375</ele>
        <time>2016-11-02T13:52:06Z</time>
      </trkpt>
      <trkpt lat="45.3473" lon="-0.01819">
        <ele>180.54296875</ele>
        <time>2016-11-02T13:52:13Z</time>
      </trkpt>
      <trkpt lat="45.34713" lon="-0.01786">
        <ele>179.5859375</ele>
        <time>2016-11-02T13:52:19Z</time>
      </trkpt>
      <trkpt lat="45.34701" lon="-0.01763">
        <ele>179.1640625</ele>
        <time>2016-11-02T13:52:24Z</time>
      </trkpt>
      <trkpt lat="45.34694" lon="-0.01735">
        <ele>179.46875</ele>
        <time>2016-11-02T13:52:30Z</time>
      </trkpt>
      <trkpt lat="45.34693" lon="-0.01712">
        <ele>180.2890625</ele>
        <time>2016-11-02T13:52:35Z</time>
      </trkpt>
      <trkpt lat="45.3469" lon="-0.01676">
        <ele>181.796875</ele>
        <time>2016-11-02T13:52:44Z</time>
      </trkpt>
      <trkpt lat="45.34686" lon="-0.01652">
        <ele>182.359375</ele>
        <time>2016-11-02T13:52:50Z</time>
      </trkpt>
      <trkpt lat="45.34684" lon="-0.01631">
        <ele>182.62890625</ele>
        <time>2016-11-02T13:52:56Z</time>
      </trkpt>
      <trkpt lat="45.3468" lon="-0.01605">
        <ele>182.875</ele>
        <time>2016-11-02T13:53:02Z</time>
      </trkpt>
      <trkpt lat="45.34673" lon="-0.01571">
        <ele>182.36328125</ele>
        <time>2016-11-02T13:53:09Z</time>
      </trkpt>
      <trkpt lat="45.34661" lon="-0.01548">
        <ele>182.015625</ele>
        <time>2016-11-02T13:53:17Z</time>
      </trkpt>
      <trkpt lat="45.34644" lon="-0.01526">
        <ele>181.65234375</ele>
        <time>2016-11-02T13:53:24Z</time>
      </trkpt>
      <trkpt lat="45.34626" lon="-0.01499">
        <ele>181.96875</ele>
        <time>2016-11-02T13:53:31Z</time>
      </trkpt>
      <trkpt lat="45.34604" lon="-0.0147">
        <ele>181.7734375</ele>
        <time>2016-11-02T13:53:39Z</time>
      </trkpt>
      <trkpt lat="45.34593" lon="-0.01464">
        <ele>182.1015625</ele>
        <time>2016-11-02T13:53:42Z</time>
      </trkpt>
      <trkpt lat="45.34589" lon="-0.01465">
        <ele>182.26171875</ele>
        <time>2016-11-02T13:53:43Z</time>
      </trkpt>
      <trkpt lat="45.34576" lon="-0.01469">
        <ele>182.796875</ele>
        <time>2016-11-02T13:53:47Z</time>
      </trkpt>
      <trkpt lat="45.34542" lon="-0.01478">
        <ele>183.515625</ele>
        <time>2016-11-02T13:53:57Z</time>
      </trkpt>
      <trkpt lat="45.34512" lon="-0.01482">
        <ele>184.03125</ele>
        <time>2016-11-02T13:54:05Z</time>
      </trkpt>
      <trkpt lat="45.34467" lon="-0.01489">
        <ele>184.703125</ele>
        <time>2016-11-02T13:54:16Z</time>
      </trkpt>
      <trkpt lat="45.34434" lon="-0.01499">
        <ele>184.9921875</ele>
        <time>2016-11-02T13:54:25Z</time>
      </trkpt>
      <trkpt lat="45.34408" lon="-0.01518">
        <ele>184.93359375</ele>
        <time>2016-11-02T13:54:33Z</time>
      </trkpt>
      <trkpt lat="45.34375" lon="-0.01543">
        <ele>185.70703125</ele>
        <time>2016-11-02T13:54:43Z</time>
      </trkpt>
      <trkpt lat="45.34352" lon="-0.01561">
        <ele>186.8515625</ele>
        <time>2016-11-02T13:54:51Z</time>
      </trkpt>
      <trkpt lat="45.34349" lon="-0.01562">
        <ele>186.98046875</ele>
        <time>2016-11-02T13:54:52Z</time>
      </trkpt>
      <trkpt lat="45.34338" lon="-0.01557">
        <ele>186.453125</ele>
        <time>2016-11-02T13:54:56Z</time>
      </trkpt>
      <trkpt lat="45.34316" lon="-0.01534">
        <ele>184.140625</ele>
        <time>2016-11-02T13:55:03Z</time>
      </trkpt>
      <trkpt lat="45.34298" lon="-0.01525">
        <ele>182.66015625</ele>
        <time>2016-11-02T13:55:07Z</time>
      </trkpt>
      <trkpt lat="45.34257" lon="-0.01512">
        <ele>177.86328125</ele>
        <time>2016-11-02T13:55:14Z</time>
      </trkpt>
      <trkpt lat="45.3425" lon="-0.01512">
        <ele>177.1953125</ele>
        <time>2016-11-02T13:55:15Z</time>
      </trkpt>
      <trkpt lat="45.34244" lon="-0.01514">
        <ele>176.76171875</ele>
        <time>2016-11-02T13:55:16Z</time>
      </trkpt>
      <trkpt lat="45.34186" lon="-0.01533">
        <ele>175.0625</ele>
        <time>2016-11-02T13:55:26Z</time>
      </trkpt>
      <trkpt lat="45.34143" lon="-0.01547">
        <ele>177.0390625</ele>
        <time>2016-11-02T13:55:34Z</time>
      </trkpt>
      <trkpt lat="45.34121" lon="-0.01552">
        <ele>177.609375</ele>
        <time>2016-11-02T13:55:38Z</time>
      </trkpt>
      <trkpt lat="45.34116" lon="-0.01552">
        <ele>177.546875</ele>
        <time>2016-11-02T13:55:39Z</time>
      </trkpt>
      <trkpt lat="45.34111" lon="-0.0155">
        <ele>177.359375</ele>
        <time>2016-11-02T13:55:40Z</time>
      </trkpt>
      <trkpt lat="45.34105" lon="-0.01547">
        <ele>177.07421875</ele>
        <time>2016-11-02T13:55:41Z</time>
      </trkpt>
      <trkpt lat="45.341" lon="-0.01544">
        <ele>176.734375</ele>
        <time>2016-11-02T13:55:42Z</time>
      </trkpt>
      <trkpt lat="45.34095" lon="-0.0154">
        <ele>176.328125</ele>
        <time>2016-11-02T13:55:43Z</time>
      </trkpt>
      <trkpt lat="45.34091" lon="-0.01534">
        <ele>175.88671875</ele>
        <time>2016-11-02T13:55:44Z</time>
      </trkpt>
      <trkpt lat="45.34086" lon="-0.01528">
        <ele>175.39453125</ele>
        <time>2016-11-02T13:55:45Z</time>
      </trkpt>
      <trkpt lat="45.34083" lon="-0.01522">
        <ele>174.95703125</ele>
        <time>2016-11-02T13:55:46Z</time>
      </trkpt>
      <trkpt lat="45.3408" lon="-0.01514">
        <ele>174.48828125</ele>
        <time>2016-11-02T13:55:47Z</time>
      </trkpt>
      <trkpt lat="45.34057" lon="-0.01448">
        <ele>170.2890625</ele>
        <time>2016-11-02T13:55:55Z</time>
      </trkpt>
      <trkpt lat="45.34035" lon="-0.01374">
        <ele>167.21484375</ele>
        <time>2016-11-02T13:56:03Z</time>
      </trkpt>
      <trkpt lat="45.34021" lon="-0.01291">
        <ele>169.26171875</ele>
        <time>2016-11-02T13:56:12Z</time>
      </trkpt>
      <trkpt lat="45.34015" lon="-0.01195">
        <ele>169.984375</ele>
        <time>2016-11-02T13:56:23Z</time>
      </trkpt>
      <trkpt lat="45.34008" lon="-0.01093">
        <ele>169.65234375</ele>
        <time>2016-11-02T13:56:34Z</time>
      </trkpt>
      <trkpt lat="45.34001" lon="-0.01033">
        <ele>170.375</ele>
        <time>2016-11-02T13:56:41Z</time>
      </trkpt>
      <trkpt lat="45.33994" lon="-0.01009">
        <ele>170.734375</ele>
        <time>2016-11-02T13:56:44Z</time>
      </trkpt>
      <trkpt lat="45.3399" lon="-0.01002">
        <ele>170.93359375</ele>
        <time>2016-11-02T13:56:45Z</time>
      </trkpt>
      <trkpt lat="45.3397" lon="-0.00967">
        <ele>172.55078125</ele>
        <time>2016-11-02T13:56:50Z</time>
      </trkpt>
      <trkpt lat="45.33955" lon="-0.0095">
        <ele>173.37109375</ele>
        <time>2016-11-02T13:56:54Z</time>
      </trkpt>
      <trkpt lat="45.3393" lon="-0.00926">
        <ele>173.24609375</ele>
        <time>2016-11-02T13:57:01Z</time>
      </trkpt>
      <trkpt lat="45.33897" lon="-0.00895">
        <ele>174.29296875</ele>
        <time>2016-11-02T13:57:10Z</time>
      </trkpt>
      <trkpt lat="45.33859" lon="-0.00861">
        <ele>174.171875</ele>
        <time>2016-11-02T13:57:20Z</time>
      </trkpt>
      <trkpt lat="45.33824" lon="-0.0083">
        <ele>174.92578125</ele>
        <time>2016-11-02T13:57:29Z</time>
      </trkpt>
      <trkpt lat="45.33788" lon="-0.00797">
        <ele>174.28515625</ele>
        <time>2016-11-02T13:57:38Z</time>
      </trkpt>
      <trkpt lat="45.33753" lon="-0.00764">
        <ele>173.31640625</ele>
        <time>2016-11-02T13:57:47Z</time>
      </trkpt>
      <trkpt lat="45.3374" lon="-0.00752">
        <ele>173.0390625</ele>
        <time>2016-11-02T13:57:50Z</time>
      </trkpt>
      <trkpt lat="45.33701" lon="-0.00716">
        <ele>170.7890625</ele>
        <time>2016-11-02T13:57:59Z</time>
      </trkpt>
      <trkpt lat="45.33668" lon="-0.00696">
        <ele>168.921875</ele>
        <time>2016-11-02T13:58:07Z</time>
      </trkpt>
      <trkpt lat="45.33669" lon="-0.00683">
        <ele>167.84375</ele>
        <time>2016-11-02T13:58:12Z</time>
      </trkpt>
      <trkpt lat="45.3368" lon="-0.00664">
        <ele>165.51953125</ele>
        <time>2016-11-02T13:58:18Z</time>
      </trkpt>
      <trkpt lat="45.33699" lon="-0.0064">
        <ele>160.6640625</ele>
        <time>2016-11-02T13:58:25Z</time>
      </trkpt>
      <trkpt lat="45.33724" lon="-0.00618">
        <ele>156.9140625</ele>
        <time>2016-11-02T13:58:34Z</time>
      </trkpt>
      <trkpt lat="45.3374" lon="-0.00608">
        <ele>155.2421875</ele>
      </trkpt>
      <trkpt lat="45.33755" lon="-0.006">
        <ele>152.796875</ele>
      </trkpt>
      <trkpt lat="45.33762" lon="-0.00596">
        <ele>151.87890625</ele>
      </trkpt>
      <trkpt lat="45.33775" lon="-0.00586">
        <ele>149.64453125</ele>
      </trkpt>
      <trkpt lat="45.33788" lon="-0.00575">
        <ele>147.8671875</ele>
      </trkpt>
      <trkpt lat="45.33805" lon="-0.00565">
        <ele>144.44921875</ele>
      </trkpt>
      <trkpt lat="45.33817" lon="-0.00558">
        <ele>141.41796875</ele>
      </trkpt>
      <trkpt lat="45.33823" lon="-0.00554">
        <ele>140.046875</ele>
      </trkpt>
      <trkpt lat="45.33829" lon="-0.00548">
        <ele>138.55859375</ele>
      </trkpt>
      <trkpt lat="45.33835" lon="-0.00537">
        <ele>136.8828125</ele>
      </trkpt>
      <trkpt lat="45.33837" lon="-0.00529">
        <ele>136.1171875</ele>
      </trkpt>
      <trkpt lat="45.3384" lon="-0.00504">
        <ele>134.0703125</ele>
      </trkpt>
      <trkpt lat="45.33844" lon="-0.00477">
        <ele>132.453125</ele>
      </trkpt>
      <trkpt lat="45.33849" lon="-0.00444">
        <ele>130.94921875</ele>
      </trkpt>
      <trkpt lat="45.33852" lon="-0.00418">
        <ele>128.546875</ele>
      </trkpt>
      <trkpt lat="45.33857" lon="-0.00392">
        <ele>126.11328125</ele>
      </trkpt>
      <trkpt lat="45.33861" lon="-0.00372">
        <ele>123.88671875</ele>
      </trkpt>
      <trkpt lat="45.33867" lon="-0.00354">
        <ele>121.8359375</ele>
      </trkpt>
      <trkpt lat="45.33877" lon="-0.00331">
        <ele>119.25390625</ele>
      </trkpt>
      <trkpt lat="45.33882" lon="-0.00322">
        <ele>118.0625</ele>
      </trkpt>
      <trkpt lat="45.33888" lon="-0.00301">
        <ele>115.7578125</ele>
      </trkpt>
      <trkpt lat="45.33891" lon="-0.00284">
        <ele>114.21875</ele>
      </trkpt>
      <trkpt lat="45.33892" lon="-0.00277">
        <ele>113.59765625</ele>
      </trkpt>
      <trkpt lat="45.33892" lon="-0.00232">
        <ele>110.80078125</ele>
      </trkpt>
      <trkpt lat="45.33889" lon="-0.00215">
        <ele>108.87890625</ele>
      </trkpt>
      <trkpt lat="45.33883" lon="-0.00201">
        <ele>106.01953125</ele>
      </trkpt>
      <trkpt lat="45.33878" lon="-0.00188">
        <ele>103.49609375</ele>
      </trkpt>
      <trkpt lat="45.3387" lon="-0.00166">
        <ele>105.96875</ele>
      </trkpt>
      <trkpt lat="45.33867" lon="-0.00156">
        <ele>105.6328125</ele>
      </trkpt>
      <trkpt lat="45.33866" lon="-0.00149">
        <ele>105.3671875</ele>
      </trkpt>
      <trkpt lat="45.33866" lon="-0.00142">
        <ele>105.09765625</ele>
      </trkpt>
      <trkpt lat="45.33865" lon="-0.0013">
        <ele>104.6640625</ele>
      </trkpt>
      <trkpt lat="45.33868" lon="-0.00115">
        <ele>104.15625</ele>
      </trkpt>
      <trkpt lat="45.33877" lon="-0.00082">
        <ele>103.19140625</ele>
      </trkpt>
      <trkpt lat="45.33885" lon="-0.00053">
        <ele>102.02734375</ele>
      </trkpt>
      <trkpt lat="45.33891" lon="-0.00032">
        <ele>101.70703125</ele>
      </trkpt>
      <trkpt lat="45.33898" lon="-0.0001">
        <ele>101.35546875</ele>
      </trkpt>
      <trkpt lat="45.339" lon="-3.0E-5">
        <ele>101.2265625</ele>
      </trkpt>
      <trkpt lat="45.33902" lon="0.00015">
        <ele>100.875</ele>
      </trkpt>
      <trkpt lat="45.33902" lon="0.00025">
        <ele>100.7265625</ele>
      </trkpt>
      <trkpt lat="45.339" lon="0.00037">
        <ele>100.67578125</ele>
      </trkpt>
      <trkpt lat="45.33893" lon="0.00051">
        <ele>101.1015625</ele>
      </trkpt>
      <trkpt lat="45.33883" lon="0.0007">
        <ele>102.03125</ele>
      </trkpt>
      <trkpt lat="45.33874" lon="0.0009">
        <ele>103.01171875</ele>
      </trkpt>
      <trkpt lat="45.3387" lon="0.00109">
        <ele>103.68359375</ele>
      </trkpt>
      <trkpt lat="45.33867" lon="0.00128">
        <ele>103.77734375</ele>
      </trkpt>
      <trkpt lat="45.3387" lon="0.0014">
        <ele>103.38671875</ele>
      </trkpt>
      <trkpt lat="45.33861" lon="0.00133">
        <ele>104.390625</ele>
      </trkpt>
      <trkpt lat="45.33848" lon="0.00122">
        <ele>105.8515625</ele>
      </trkpt>
      <trkpt lat="45.33834" lon="0.0011">
        <ele>107.9140625</ele>
      </trkpt>
      <trkpt lat="45.33825" lon="0.001">
        <ele>109.0625</ele>
      </trkpt>
      <trkpt lat="45.33814" lon="0.00088">
        <ele>110.80078125</ele>
      </trkpt>
      <trkpt lat="45.33798" lon="0.00068">
        <ele>113.69921875</ele>
      </trkpt>
      <trkpt lat="45.33788" lon="0.00052">
        <ele>115.9609375</ele>
      </trkpt>
      <trkpt lat="45.3378" lon="0.00038">
        <ele>117.6328125</ele>
      </trkpt>
      <trkpt lat="45.33772" lon="0.00024">
        <ele>119.5078125</ele>
      </trkpt>
      <trkpt lat="45.33759" lon="7.0E-5">
        <ele>122.86328125</ele>
      </trkpt>
      <trkpt lat="45.33752" lon="-2.0E-5">
        <ele>124.671875</ele>
      </trkpt>
      <trkpt lat="45.33743" lon="-0.00011">
        <ele>126.21484375</ele>
      </trkpt>
      <trkpt lat="45.33739" lon="-0.00016">
        <ele>127.0703125</ele>
      </trkpt>
      <trkpt lat="45.33727" lon="-0.00026">
        <ele>128.72265625</ele>
      </trkpt>
      <trkpt lat="45.33715" lon="-0.00028">
        <ele>130.43359375</ele>
      </trkpt>
      <trkpt lat="45.33706" lon="-0.00027">
        <ele>131.84765625</ele>
      </trkpt>
      <trkpt lat="45.33697" lon="-0.00029">
        <ele>133.18359375</ele>
      </trkpt>
      <trkpt lat="45.33687" lon="-0.00034">
        <ele>134.8046875</ele>
      </trkpt>
      <trkpt lat="45.33674" lon="-0.00041">
        <ele>136.328125</ele>
      </trkpt>
      <trkpt lat="45.33661" lon="-0.00041">
        <ele>137.21484375</ele>
        <time>2016-11-02T13:58:40Z</time>
      </trkpt>
      <trkpt lat="45.3364" lon="-0.00052">
        <ele>139.4609375</ele>
        <time>2016-11-02T13:58:46Z</time>
      </trkpt>
      <trkpt lat="45.33619" lon="-0.00072">
        <ele>140.71875</ele>
        <time>2016-11-02T13:58:53Z</time>
      </trkpt>
      <trkpt lat="45.33594" lon="-0.00095">
        <ele>141.83203125</ele>
        <time>2016-11-02T13:58:59Z</time>
      </trkpt>
      <trkpt lat="45.33572" lon="-0.00113">
        <ele>143.79296875</ele>
        <time>2016-11-02T13:59:05Z</time>
      </trkpt>
      <trkpt lat="45.33558" lon="-0.00124">
        <ele>145.22265625</ele>
        <time>2016-11-02T13:59:09Z</time>
      </trkpt>
      <trkpt lat="45.33547" lon="-0.00133">
        <ele>146.5234375</ele>
        <time>2016-11-02T13:59:14Z</time>
      </trkpt>
      <trkpt lat="45.33539" lon="-0.00146">
        <ele>147.703125</ele>
        <time>2016-11-02T13:59:18Z</time>
      </trkpt>
      <trkpt lat="45.33528" lon="-0.00169">
        <ele>100.6484375</ele>
        <time>2016-11-02T13:59:25Z</time>
      </trkpt>
      <trkpt lat="45.33518" lon="-0.00185">
        <ele>114.64453125</ele>
        <time>2016-11-02T13:59:31Z</time>
      </trkpt>
      <trkpt lat="45.33504" lon="-0.002">
        <ele>130.0234375</ele>
        <time>2016-11-02T13:59:35Z</time>
      </trkpt>
      <trkpt lat="45.33492" lon="-0.00213">
        <ele>143.96875</ele>
        <time>2016-11-02T13:59:39Z</time>
      </trkpt>
      <trkpt lat="45.33483" lon="-0.00226">
        <ele>154.74609375</ele>
        <time>2016-11-02T13:59:40Z</time>
      </trkpt>
      <trkpt lat="45.33466" lon="-0.00262">
        <ele>155.9296875</ele>
        <time>2016-11-02T13:59:41Z</time>
      </trkpt>
      <trkpt lat="45.33457" lon="-0.00286">
        <ele>156.11328125</ele>
        <time>2016-11-02T13:59:42Z</time>
      </trkpt>
      <trkpt lat="45.33448" lon="-0.00306">
        <ele>157.16796875</ele>
        <time>2016-11-02T13:59:50Z</time>
      </trkpt>
      <trkpt lat="45.33438" lon="-0.00317">
        <ele>159.1796875</ele>
        <time>2016-11-02T13:59:58Z</time>
      </trkpt>
      <trkpt lat="45.33435" lon="-0.00288">
        <ele>161.04296875</ele>
        <time>2016-11-02T14:00:05Z</time>
      </trkpt>
      <trkpt lat="45.33427" lon="-0.00268">
        <ele>163.4296875</ele>
        <time>2016-11-02T14:00:13Z</time>
      </trkpt>
      <trkpt lat="45.33422" lon="-0.00256">
        <ele>164.8515625</ele>
        <time>2016-11-02T14:00:16Z</time>
      </trkpt>
      <trkpt lat="45.33396" lon="-0.00215">
        <ele>159.65234375</ele>
        <time>2016-11-02T14:00:26Z</time>
      </trkpt>
      <trkpt lat="45.33389" lon="-0.00204">
        <ele>145.82421875</ele>
      </trkpt>
      <trkpt lat="45.33364" lon="-0.00159">
        <ele>168.41796875</ele>
      </trkpt>
      <trkpt lat="45.3336" lon="-0.00145">
        <ele>167.94921875</ele>
      </trkpt>
      <trkpt lat="45.3336" lon="-0.00133">
        <ele>167.46484375</ele>
      </trkpt>
      <trkpt lat="45.33364" lon="-0.00119">
        <ele>166.796875</ele>
      </trkpt>
      <trkpt lat="45.3338" lon="-0.00086">
        <ele>165.12109375</ele>
      </trkpt>
      <trkpt lat="45.33386" lon="-0.00064">
        <ele>163.96875</ele>
      </trkpt>
      <trkpt lat="45.33391" lon="-0.00044">
        <ele>162.41015625</ele>
      </trkpt>
      <trkpt lat="45.33393" lon="-0.00018">
        <ele>160.4921875</ele>
      </trkpt>
      <trkpt lat="45.33393" lon="5.0E-5">
        <ele>158.95703125</ele>
      </trkpt>
      <trkpt lat="45.33386" lon="0.00032">
        <ele>158.2109375</ele>
      </trkpt>
      <trkpt lat="45.33384" lon="0.00051">
        <ele>157.64453125</ele>
      </trkpt>
      <trkpt lat="45.33366" lon="0.00082">
        <ele>159.30859375</ele>
      </trkpt>
      <trkpt lat="45.33354" lon="0.00108">
        <ele>160.32421875</ele>
      </trkpt>
      <trkpt lat="45.33347" lon="0.00129">
        <ele>159.69921875</ele>
      </trkpt>
      <trkpt lat="45.33347" lon="0.00141">
        <ele>158.859375</ele>
      </trkpt>
      <trkpt lat="45.3332" lon="0.00129">
        <ele>159.90625</ele>
      </trkpt>
      <trkpt lat="45.33307" lon="0.00125">
        <ele>160.34765625</ele>
      </trkpt>
      <trkpt lat="45.33294" lon="0.00119">
        <ele>161.1171875</ele>
      </trkpt>
      <trkpt lat="45.33281" lon="0.00106">
        <ele>161.19921875</ele>
      </trkpt>
      <trkpt lat="45.33268" lon="0.00098">
        <ele>160.29296875</ele>
      </trkpt>
      <trkpt lat="45.33249" lon="0.00088">
        <ele>158.58984375</ele>
      </trkpt>
      <trkpt lat="45.33246" lon="0.0009">
        <ele>158.37890625</ele>
        <time>2016-11-02T14:08:16Z</time>
      </trkpt>
      <trkpt lat="45.33243" lon="0.00115">
        <ele>158.1171875</ele>
        <time>2016-11-02T14:08:23Z</time>
      </trkpt>
      <trkpt lat="45.33238" lon="0.00153">
        <ele>155.75</ele>
        <time>2016-11-02T14:08:30Z</time>
      </trkpt>
      <trkpt lat="45.33232" lon="0.00167">
        <ele>154.88671875</ele>
        <time>2016-11-02T14:08:33Z</time>
      </trkpt>
      <trkpt lat="45.33229" lon="0.00171">
        <ele>154.2890625</ele>
        <time>2016-11-02T14:08:34Z</time>
      </trkpt>
      <trkpt lat="45.33196" lon="0.00208">
        <ele>150.578125</ele>
        <time>2016-11-02T14:08:43Z</time>
      </trkpt>
      <trkpt lat="45.33175" lon="0.00228">
        <ele>149.61328125</ele>
        <time>2016-11-02T14:08:49Z</time>
      </trkpt>
      <trkpt lat="45.33166" lon="0.00272">
        <ele>144.75390625</ele>
        <time>2016-11-02T14:08:51Z</time>
      </trkpt>
      <trkpt lat="45.33161" lon="0.00281">
        <ele>144.43359375</ele>
        <time>2016-11-02T14:08:52Z</time>
      </trkpt>
      <trkpt lat="45.33146" lon="0.00295">
        <ele>145.484375</ele>
        <time>2016-11-02T14:08:57Z</time>
      </trkpt>
      <trkpt lat="45.33143" lon="0.00301">
        <ele>145.4375</ele>
        <time>2016-11-02T14:08:58Z</time>
      </trkpt>
      <trkpt lat="45.33138" lon="0.00306">
        <ele>145.63671875</ele>
        <time>2016-11-02T14:08:59Z</time>
      </trkpt>
      <trkpt lat="45.33117" lon="0.0033">
        <ele>146.3046875</ele>
        <time>2016-11-02T14:09:04Z</time>
      </trkpt>
      <trkpt lat="45.33114" lon="0.00336">
        <ele>146.1484375</ele>
        <time>2016-11-02T14:09:05Z</time>
      </trkpt>
      <trkpt lat="45.33111" lon="0.00342">
        <ele>145.93359375</ele>
        <time>2016-11-02T14:09:06Z</time>
      </trkpt>
      <trkpt lat="45.33092" lon="0.00387">
        <ele>144.71484375</ele>
        <time>2016-11-02T14:09:14Z</time>
      </trkpt>
      <trkpt lat="45.3308" lon="0.00426">
        <ele>144.45703125</ele>
        <time>2016-11-02T14:09:20Z</time>
      </trkpt>
      <trkpt lat="45.33064" lon="0.00479">
        <ele>144.4921875</ele>
        <time>2016-11-02T14:09:26Z</time>
      </trkpt>
      <trkpt lat="45.33038" lon="0.00565">
        <ele>143.7890625</ele>
        <time>2016-11-02T14:09:35Z</time>
      </trkpt>
      <trkpt lat="45.33026" lon="0.006">
        <ele>144.1484375</ele>
        <time>2016-11-02T14:09:39Z</time>
      </trkpt>
      <trkpt lat="45.33016" lon="0.00624">
        <ele>144.0703125</ele>
        <time>2016-11-02T14:09:42Z</time>
      </trkpt>
      <trkpt lat="45.33013" lon="0.00631">
        <ele>143.48046875</ele>
        <time>2016-11-02T14:09:43Z</time>
      </trkpt>
      <trkpt lat="45.3301" lon="0.00639">
        <ele>142.890625</ele>
        <time>2016-11-02T14:09:44Z</time>
      </trkpt>
      <trkpt lat="45.32993" lon="0.00707">
        <ele>137.21875</ele>
        <time>2016-11-02T14:09:52Z</time>
      </trkpt>
      <trkpt lat="45.32991" lon="0.00715">
        <ele>136.53125</ele>
        <time>2016-11-02T14:09:53Z</time>
      </trkpt>
      <trkpt lat="45.32988" lon="0.00723">
        <ele>135.81640625</ele>
        <time>2016-11-02T14:09:54Z</time>
      </trkpt>
      <trkpt lat="45.32983" lon="0.00731">
        <ele>134.83984375</ele>
        <time>2016-11-02T14:09:55Z</time>
      </trkpt>
      <trkpt lat="45.3297" lon="0.00748">
        <ele>132.84375</ele>
        <time>2016-11-02T14:09:57Z</time>
      </trkpt>
      <trkpt lat="45.32951" lon="0.00777">
        <ele>129.00390625</ele>
        <time>2016-11-02T14:10:00Z</time>
      </trkpt>
      <trkpt lat="45.32939" lon="0.00797">
        <ele>125.890625</ele>
        <time>2016-11-02T14:10:02Z</time>
      </trkpt>
      <trkpt lat="45.32929" lon="0.00812">
        <ele>123.7421875</ele>
        <time>2016-11-02T14:10:04Z</time>
      </trkpt>
      <trkpt lat="45.32926" lon="0.0082">
        <ele>122.78125</ele>
        <time>2016-11-02T14:10:05Z</time>
      </trkpt>
      <trkpt lat="45.32924" lon="0.00826">
        <ele>121.97265625</ele>
        <time>2016-11-02T14:10:06Z</time>
      </trkpt>
      <trkpt lat="45.3292" lon="0.00832">
        <ele>121.3203125</ele>
        <time>2016-11-02T14:10:07Z</time>
      </trkpt>
      <trkpt lat="45.32916" lon="0.00837">
        <ele>120.78515625</ele>
        <time>2016-11-02T14:10:08Z</time>
      </trkpt>
      <trkpt lat="45.32911" lon="0.00841">
        <ele>120.57421875</ele>
        <time>2016-11-02T14:10:09Z</time>
      </trkpt>
      <trkpt lat="45.32906" lon="0.00843">
        <ele>120.6796875</ele>
        <time>2016-11-02T14:10:10Z</time>
      </trkpt>
      <trkpt lat="45.32901" lon="0.00842">
        <ele>120.93359375</ele>
        <time>2016-11-02T14:10:11Z</time>
      </trkpt>
      <trkpt lat="45.32897" lon="0.00841">
        <ele>121.15625</ele>
        <time>2016-11-02T14:10:12Z</time>
      </trkpt>
      <trkpt lat="45.32874" lon="0.00833">
        <ele>122.5078125</ele>
        <time>2016-11-02T14:10:18Z</time>
      </trkpt>
      <trkpt lat="45.3287" lon="0.00831">
        <ele>122.76171875</ele>
        <time>2016-11-02T14:10:19Z</time>
      </trkpt>
      <trkpt lat="45.32861" lon="0.00824">
        <ele>123.16796875</ele>
        <time>2016-11-02T14:10:21Z</time>
      </trkpt>
      <trkpt lat="45.32838" lon="0.00804">
        <ele>122.38671875</ele>
        <time>2016-11-02T14:10:25Z</time>
      </trkpt>
      <trkpt lat="45.32818" lon="0.00785">
        <ele>120.1875</ele>
        <time>2016-11-02T14:10:28Z</time>
      </trkpt>
      <trkpt lat="45.32812" lon="0.00777">
        <ele>119.30078125</ele>
        <time>2016-11-02T14:10:29Z</time>
      </trkpt>
      <trkpt lat="45.32807" lon="0.00766">
        <ele>118.36328125</ele>
        <time>2016-11-02T14:10:30Z</time>
      </trkpt>
      <trkpt lat="45.32802" lon="0.00755">
        <ele>117.3828125</ele>
        <time>2016-11-02T14:10:31Z</time>
      </trkpt>
      <trkpt lat="45.32798" lon="0.00742">
        <ele>116.40234375</ele>
        <time>2016-11-02T14:10:32Z</time>
      </trkpt>
      <trkpt lat="45.32795" lon="0.00728">
        <ele>115.4921875</ele>
        <time>2016-11-02T14:10:33Z</time>
      </trkpt>
      <trkpt lat="45.32794" lon="0.00713">
        <ele>114.5625</ele>
        <time>2016-11-02T14:10:34Z</time>
      </trkpt>
      <trkpt lat="45.32788" lon="0.00668">
        <ele>111.07421875</ele>
        <time>2016-11-02T14:10:37Z</time>
      </trkpt>
      <trkpt lat="45.32784" lon="0.00655">
        <ele>110.0703125</ele>
        <time>2016-11-02T14:10:38Z</time>
      </trkpt>
      <trkpt lat="45.32779" lon="0.00644">
        <ele>109.125</ele>
        <time>2016-11-02T14:10:39Z</time>
      </trkpt>
      <trkpt lat="45.32773" lon="0.00636">
        <ele>108.1640625</ele>
        <time>2016-11-02T14:10:40Z</time>
      </trkpt>
      <trkpt lat="45.32766" lon="0.00631">
        <ele>107.16015625</ele>
        <time>2016-11-02T14:10:41Z</time>
      </trkpt>
      <trkpt lat="45.32759" lon="0.00628">
        <ele>106.21875</ele>
        <time>2016-11-02T14:10:42Z</time>
      </trkpt>
      <trkpt lat="45.32752" lon="0.00626">
        <ele>105.35546875</ele>
        <time>2016-11-02T14:10:43Z</time>
      </trkpt>
      <trkpt lat="45.32725" lon="0.00617">
        <ele>104.31640625</ele>
        <time>2016-11-02T14:10:48Z</time>
      </trkpt>
      <trkpt lat="45.32721" lon="0.00616">
        <ele>104.48046875</ele>
        <time>2016-11-02T14:10:49Z</time>
      </trkpt>
      <trkpt lat="45.32698" lon="0.00606">
        <ele>105.6328125</ele>
        <time>2016-11-02T14:10:57Z</time>
      </trkpt>
      <trkpt lat="45.32674" lon="0.00596">
        <ele>106.796875</ele>
        <time>2016-11-02T14:11:06Z</time>
      </trkpt>
      <trkpt lat="45.32664" lon="0.00605">
        <ele>106.85546875</ele>
        <time>2016-11-02T14:11:11Z</time>
      </trkpt>
      <trkpt lat="45.32641" lon="0.00631">
        <ele>106.671875</ele>
        <time>2016-11-02T14:11:20Z</time>
      </trkpt>
      <trkpt lat="45.32625" lon="0.00653">
        <ele>106.49609375</ele>
        <time>2016-11-02T14:11:26Z</time>
      </trkpt>
      <trkpt lat="45.32619" lon="0.0066">
        <ele>106.3515625</ele>
        <time>2016-11-02T14:11:28Z</time>
      </trkpt>
      <trkpt lat="45.32616" lon="0.00664">
        <ele>106.28515625</ele>
        <time>2016-11-02T14:11:29Z</time>
      </trkpt>
      <trkpt lat="45.32589" lon="0.00694">
        <ele>105.37109375</ele>
        <time>2016-11-02T14:11:38Z</time>
      </trkpt>
      <trkpt lat="45.32583" lon="0.00701">
        <ele>105.30078125</ele>
        <time>2016-11-02T14:11:40Z</time>
      </trkpt>
      <trkpt lat="45.32556" lon="0.00733">
        <ele>104.44140625</ele>
        <time>2016-11-02T14:11:49Z</time>
      </trkpt>
      <trkpt lat="45.32553" lon="0.00737">
        <ele>104.265625</ele>
        <time>2016-11-02T14:11:50Z</time>
      </trkpt>
      <trkpt lat="45.3255" lon="0.0074">
        <ele>104.05078125</ele>
        <time>2016-11-02T14:11:51Z</time>
      </trkpt>
      <trkpt lat="45.32546" lon="0.00744">
        <ele>103.8359375</ele>
        <time>2016-11-02T14:11:52Z</time>
      </trkpt>
      <trkpt lat="45.32543" lon="0.00748">
        <ele>103.625</ele>
        <time>2016-11-02T14:11:53Z</time>
      </trkpt>
      <trkpt lat="45.3254" lon="0.00752">
        <ele>103.3828125</ele>
        <time>2016-11-02T14:11:54Z</time>
      </trkpt>
      <trkpt lat="45.3251" lon="0.00789">
        <ele>101.22265625</ele>
        <time>2016-11-02T14:12:03Z</time>
      </trkpt>
      <trkpt lat="45.32485" lon="0.00817">
        <ele>99.90625</ele>
        <time>2016-11-02T14:12:10Z</time>
      </trkpt>
      <trkpt lat="45.32482" lon="0.00821">
        <ele>99.78125</ele>
        <time>2016-11-02T14:12:11Z</time>
      </trkpt>
      <trkpt lat="45.3245" lon="0.00859">
        <ele>97.8671875</ele>
        <time>2016-11-02T14:12:20Z</time>
      </trkpt>
      <trkpt lat="45.32422" lon="0.00892">
        <ele>95.42578125</ele>
        <time>2016-11-02T14:12:28Z</time>
      </trkpt>
      <trkpt lat="45.32418" lon="0.00896">
        <ele>95.08984375</ele>
        <time>2016-11-02T14:12:29Z</time>
      </trkpt>
      <trkpt lat="45.32394" lon="0.00925">
        <ele>92.47265625</ele>
        <time>2016-11-02T14:12:35Z</time>
      </trkpt>
      <trkpt lat="45.32392" lon="0.00927">
        <ele>92.3125</ele>
        <time>2016-11-02T14:12:36Z</time>
      </trkpt>
      <trkpt lat="45.3239" lon="0.00928">
        <ele>92.15625</ele>
        <time>2016-11-02T14:12:38Z</time>
      </trkpt>
      <trkpt lat="45.32383" lon="0.00938">
        <ele>91.15625</ele>
        <time>2016-11-02T14:12:43Z</time>
      </trkpt>
      <trkpt lat="45.32372" lon="0.00951">
        <ele>89.6796875</ele>
        <time>2016-11-02T14:12:46Z</time>
      </trkpt>
      <trkpt lat="45.32369" lon="0.00954">
        <ele>89.27734375</ele>
        <time>2016-11-02T14:12:47Z</time>
      </trkpt>
      <trkpt lat="45.32367" lon="0.00957">
        <ele>89.0078125</ele>
        <time>2016-11-02T14:12:48Z</time>
      </trkpt>
      <trkpt lat="45.32365" lon="0.00959">
        <ele>88.74609375</ele>
        <time>2016-11-02T14:12:49Z</time>
      </trkpt>
      <trkpt lat="45.32362" lon="0.00961">
        <ele>88.4140625</ele>
        <time>2016-11-02T14:12:50Z</time>
      </trkpt>
      <trkpt lat="45.32341" lon="0.00984">
        <ele>85.26953125</ele>
        <time>2016-11-02T14:12:55Z</time>
      </trkpt>
      <trkpt lat="45.32321" lon="0.01009">
        <ele>82.8984375</ele>
        <time>2016-11-02T14:12:59Z</time>
      </trkpt>
      <trkpt lat="45.32306" lon="0.01027">
        <ele>82.03125</ele>
        <time>2016-11-02T14:13:02Z</time>
      </trkpt>
      <trkpt lat="45.32301" lon="0.01033">
        <ele>81.73828125</ele>
        <time>2016-11-02T14:13:03Z</time>
      </trkpt>
      <trkpt lat="45.32292" lon="0.01044">
        <ele>81.05859375</ele>
        <time>2016-11-02T14:13:06Z</time>
      </trkpt>
      <trkpt lat="45.32291" lon="0.01041">
        <ele>80.9765625</ele>
        <time>2016-11-02T14:13:07Z</time>
      </trkpt>
      <trkpt lat="45.3229" lon="0.01038">
        <ele>81.0234375</ele>
        <time>2016-11-02T14:13:08Z</time>
      </trkpt>
      <trkpt lat="45.32291" lon="0.01034">
        <ele>81.12890625</ele>
        <time>2016-11-02T14:13:09Z</time>
      </trkpt>
      <trkpt lat="45.32292" lon="0.0103">
        <ele>81.2734375</ele>
        <time>2016-11-02T14:13:10Z</time>
      </trkpt>
      <trkpt lat="45.32293" lon="0.01026">
        <ele>81.43359375</ele>
        <time>2016-11-02T14:13:11Z</time>
      </trkpt>
      <trkpt lat="45.32294" lon="0.01021">
        <ele>81.6015625</ele>
        <time>2016-11-02T14:13:12Z</time>
      </trkpt>
      <trkpt lat="45.32295" lon="0.01016">
        <ele>81.734375</ele>
        <time>2016-11-02T14:13:13Z</time>
      </trkpt>
      <trkpt lat="45.32298" lon="0.01002">
        <ele>82.08203125</ele>
        <time>2016-11-02T14:13:16Z</time>
      </trkpt>
      <trkpt lat="45.323" lon="0.00955">
        <ele>84.84765625</ele>
        <time>2016-11-02T14:13:25Z</time>
      </trkpt>
      <trkpt lat="45.32302" lon="0.00891">
        <ele>88.0625</ele>
        <time>2016-11-02T14:13:36Z</time>
      </trkpt>
      <trkpt lat="45.32303" lon="0.00847">
        <ele>89.13671875</ele>
        <time>2016-11-02T14:13:43Z</time>
      </trkpt>
      <trkpt lat="45.32304" lon="0.00835">
        <ele>89.48046875</ele>
        <time>2016-11-02T14:13:45Z</time>
      </trkpt>
      <trkpt lat="45.32303" lon="0.00778">
        <ele>89.7265625</ele>
        <time>2016-11-02T14:13:55Z</time>
      </trkpt>
      <trkpt lat="45.32302" lon="0.0075">
        <ele>89.03125</ele>
        <time>2016-11-02T14:14:02Z</time>
      </trkpt>
      <trkpt lat="45.323" lon="0.00748">
        <ele>88.57421875</ele>
        <time>2016-11-02T14:14:03Z</time>
      </trkpt>
      <trkpt lat="45.32297" lon="0.00747">
        <ele>87.94921875</ele>
        <time>2016-11-02T14:14:04Z</time>
      </trkpt>
      <trkpt lat="45.32294" lon="0.0075">
        <ele>87.48046875</ele>
        <time>2016-11-02T14:14:05Z</time>
      </trkpt>
      <trkpt lat="45.32292" lon="0.00754">
        <ele>87.28515625</ele>
        <time>2016-11-02T14:14:06Z</time>
      </trkpt>
      <trkpt lat="45.32289" lon="0.00758">
        <ele>87.046875</ele>
        <time>2016-11-02T14:14:07Z</time>
      </trkpt>
      <trkpt lat="45.32286" lon="0.00762">
        <ele>86.7890625</ele>
        <time>2016-11-02T14:14:08Z</time>
      </trkpt>
      <trkpt lat="45.32283" lon="0.00766">
        <ele>86.5234375</ele>
        <time>2016-11-02T14:14:09Z</time>
      </trkpt>
      <trkpt lat="45.32266" lon="0.00787">
        <ele>84.31640625</ele>
        <time>2016-11-02T14:14:15Z</time>
      </trkpt>
      <trkpt lat="45.32243" lon="0.00784">
        <ele>81.46875</ele>
        <time>2016-11-02T14:14:21Z</time>
      </trkpt>
      <trkpt lat="45.32218" lon="0.00782">
        <ele>82.03125</ele>
        <time>2016-11-02T14:14:28Z</time>
      </trkpt>
      <trkpt lat="45.32205" lon="0.00786">
        <ele>82.640625</ele>
        <time>2016-11-02T14:14:32Z</time>
      </trkpt>
      <trkpt lat="45.32183" lon="0.00794">
        <ele>83.734375</ele>
        <time>2016-11-02T14:14:41Z</time>
      </trkpt>
      <trkpt lat="45.32164" lon="0.00803">
        <ele>85.296875</ele>
        <time>2016-11-02T14:14:50Z</time>
      </trkpt>
      <trkpt lat="45.32145" lon="0.00811">
        <ele>86.8203125</ele>
        <time>2016-11-02T14:14:59Z</time>
      </trkpt>
      <trkpt lat="45.32124" lon="0.00823">
        <ele>88.65234375</ele>
        <time>2016-11-02T14:15:09Z</time>
      </trkpt>
      <trkpt lat="45.32107" lon="0.00834">
        <ele>90.984375</ele>
        <time>2016-11-02T14:15:18Z</time>
      </trkpt>
      <trkpt lat="45.32092" lon="0.00843">
        <ele>92.66796875</ele>
        <time>2016-11-02T14:15:26Z</time>
      </trkpt>
      <trkpt lat="45.32078" lon="0.00852">
        <ele>94.22265625</ele>
        <time>2016-11-02T14:15:35Z</time>
      </trkpt>
      <trkpt lat="45.32058" lon="0.00867">
        <ele>95.87109375</ele>
        <time>2016-11-02T14:15:47Z</time>
      </trkpt>
      <trkpt lat="45.32044" lon="0.00875">
        <ele>97.0703125</ele>
        <time>2016-11-02T14:15:55Z</time>
      </trkpt>
      <trkpt lat="45.32028" lon="0.00877">
        <ele>98.7734375</ele>
        <time>2016-11-02T14:16:03Z</time>
      </trkpt>
      <trkpt lat="45.32007" lon="0.00875">
        <ele>99.76171875</ele>
        <time>2016-11-02T14:16:11Z</time>
      </trkpt>
      <trkpt lat="45.31989" lon="0.00867">
        <ele>99.40625</ele>
        <time>2016-11-02T14:16:16Z</time>
      </trkpt>
      <trkpt lat="45.31974" lon="0.00856">
        <ele>99.6328125</ele>
        <time>2016-11-02T14:16:19Z</time>
      </trkpt>
      <trkpt lat="45.31953" lon="0.00832">
        <ele>99.8515625</ele>
        <time>2016-11-02T14:16:23Z</time>
      </trkpt>
      <trkpt lat="45.31934" lon="0.00811">
        <ele>98.61328125</ele>
        <time>2016-11-02T14:16:26Z</time>
      </trkpt>
      <trkpt lat="45.31908" lon="0.00783">
        <ele>96.0546875</ele>
        <time>2016-11-02T14:16:30Z</time>
      </trkpt>
      <trkpt lat="45.319" lon="0.00778">
        <ele>95.4921875</ele>
        <time>2016-11-02T14:16:31Z</time>
      </trkpt>
      <trkpt lat="45.31893" lon="0.00776">
        <ele>94.953125</ele>
        <time>2016-11-02T14:16:32Z</time>
      </trkpt>
      <trkpt lat="45.31885" lon="0.00776">
        <ele>94.26171875</ele>
        <time>2016-11-02T14:16:33Z</time>
      </trkpt>
      <trkpt lat="45.31878" lon="0.00777">
        <ele>93.5859375</ele>
        <time>2016-11-02T14:16:34Z</time>
      </trkpt>
      <trkpt lat="45.31871" lon="0.00778">
        <ele>92.86328125</ele>
        <time>2016-11-02T14:16:35Z</time>
      </trkpt>
      <trkpt lat="45.31842" lon="0.00777">
        <ele>91.7578125</ele>
        <time>2016-11-02T14:16:40Z</time>
      </trkpt>
      <trkpt lat="45.31828" lon="0.00774">
        <ele>93.171875</ele>
        <time>2016-11-02T14:16:45Z</time>
      </trkpt>
      <trkpt lat="45.31812" lon="0.00771">
        <ele>94.76953125</ele>
        <time>2016-11-02T14:16:54Z</time>
      </trkpt>
      <trkpt lat="45.318" lon="0.00769">
        <ele>95.95703125</ele>
        <time>2016-11-02T14:17:01Z</time>
      </trkpt>
      <trkpt lat="45.31787" lon="0.00767">
        <ele>97.2890625</ele>
        <time>2016-11-02T14:17:09Z</time>
      </trkpt>
      <trkpt lat="45.3177" lon="0.00762">
        <ele>99.12109375</ele>
        <time>2016-11-02T14:17:17Z</time>
      </trkpt>
      <trkpt lat="45.31753" lon="0.00754">
        <ele>101.28125</ele>
        <time>2016-11-02T14:17:24Z</time>
      </trkpt>
      <trkpt lat="45.31735" lon="0.00748">
        <ele>103.27734375</ele>
        <time>2016-11-02T14:17:32Z</time>
      </trkpt>
      <trkpt lat="45.31717" lon="0.00744">
        <ele>104.3046875</ele>
        <time>2016-11-02T14:17:40Z</time>
      </trkpt>
      <trkpt lat="45.317" lon="0.00743">
        <ele>105.0703125</ele>
        <time>2016-11-02T14:17:47Z</time>
      </trkpt>
      <trkpt lat="45.31684" lon="0.00739">
        <ele>106.0859375</ele>
        <time>2016-11-02T14:17:56Z</time>
      </trkpt>
      <trkpt lat="45.31667" lon="0.00739">
        <ele>106.93359375</ele>
        <time>2016-11-02T14:18:03Z</time>
      </trkpt>
      <trkpt lat="45.31642" lon="0.00731">
        <ele>108.78125</ele>
        <time>2016-11-02T14:18:12Z</time>
      </trkpt>
      <trkpt lat="45.31621" lon="0.00718">
        <ele>110.59375</ele>
        <time>2016-11-02T14:18:20Z</time>
      </trkpt>
      <trkpt lat="45.316" lon="0.00701">
        <ele>112.453125</ele>
        <time>2016-11-02T14:18:29Z</time>
      </trkpt>
      <trkpt lat="45.31577" lon="0.00683">
        <ele>114.2109375</ele>
        <time>2016-11-02T14:18:39Z</time>
      </trkpt>
      <trkpt lat="45.31551" lon="0.00665">
        <ele>116.1640625</ele>
        <time>2016-11-02T14:18:50Z</time>
      </trkpt>
      <trkpt lat="45.3153" lon="0.00655">
        <ele>117.39453125</ele>
        <time>2016-11-02T14:18:59Z</time>
      </trkpt>
      <trkpt lat="45.31511" lon="0.00649">
        <ele>117.859375</ele>
        <time>2016-11-02T14:19:06Z</time>
      </trkpt>
      <trkpt lat="45.31493" lon="0.00638">
        <ele>117.34375</ele>
        <time>2016-11-02T14:19:13Z</time>
      </trkpt>
      <trkpt lat="45.3147" lon="0.00639">
        <ele>116.74609375</ele>
        <time>2016-11-02T14:19:19Z</time>
      </trkpt>
      <trkpt lat="45.31465" lon="0.0064">
        <ele>116.62109375</ele>
        <time>2016-11-02T14:19:20Z</time>
      </trkpt>
      <trkpt lat="45.3146" lon="0.00641">
        <ele>116.49609375</ele>
        <time>2016-11-02T14:19:21Z</time>
      </trkpt>
      <trkpt lat="45.31455" lon="0.00642">
        <ele>116.26171875</ele>
        <time>2016-11-02T14:19:22Z</time>
      </trkpt>
      <trkpt lat="45.31451" lon="0.00643">
        <ele>116.05859375</ele>
        <time>2016-11-02T14:19:23Z</time>
      </trkpt>
      <trkpt lat="45.31446" lon="0.00646">
        <ele>115.875</ele>
        <time>2016-11-02T14:19:24Z</time>
      </trkpt>
      <trkpt lat="45.31442" lon="0.00649">
        <ele>115.75390625</ele>
        <time>2016-11-02T14:19:25Z</time>
      </trkpt>
      <trkpt lat="45.31437" lon="0.00651">
        <ele>115.64453125</ele>
        <time>2016-11-02T14:19:26Z</time>
      </trkpt>
      <trkpt lat="45.31433" lon="0.00653">
        <ele>115.5234375</ele>
        <time>2016-11-02T14:19:27Z</time>
      </trkpt>
      <trkpt lat="45.31428" lon="0.00654">
        <ele>115.34375</ele>
        <time>2016-11-02T14:19:28Z</time>
      </trkpt>
      <trkpt lat="45.31423" lon="0.00654">
        <ele>115.09375</ele>
        <time>2016-11-02T14:19:29Z</time>
      </trkpt>
      <trkpt lat="45.31418" lon="0.00653">
        <ele>114.80078125</ele>
        <time>2016-11-02T14:19:30Z</time>
      </trkpt>
      <trkpt lat="45.31412" lon="0.00651">
        <ele>114.45703125</ele>
        <time>2016-11-02T14:19:31Z</time>
      </trkpt>
      <trkpt lat="45.31407" lon="0.00648">
        <ele>114.0625</ele>
        <time>2016-11-02T14:19:32Z</time>
      </trkpt>
      <trkpt lat="45.31388" lon="0.00641">
        <ele>112.984375</ele>
        <time>2016-11-02T14:19:35Z</time>
      </trkpt>
      <trkpt lat="45.31334" lon="0.00639">
        <ele>111.08203125</ele>
        <time>2016-11-02T14:19:43Z</time>
      </trkpt>
      <trkpt lat="45.31265" lon="0.00651">
        <ele>109.8125</ele>
        <time>2016-11-02T14:19:53Z</time>
      </trkpt>
      <trkpt lat="45.31219" lon="0.00645">
        <ele>107.7734375</ele>
        <time>2016-11-02T14:20:00Z</time>
      </trkpt>
      <trkpt lat="45.31166" lon="0.00634">
        <ele>105.01953125</ele>
        <time>2016-11-02T14:20:08Z</time>
      </trkpt>
      <trkpt lat="45.31115" lon="0.00638">
        <ele>103.62890625</ele>
        <time>2016-11-02T14:20:16Z</time>
      </trkpt>
      <trkpt lat="45.31069" lon="0.00652">
        <ele>103.66796875</ele>
        <time>2016-11-02T14:20:25Z</time>
      </trkpt>
      <trkpt lat="45.31035" lon="0.00666">
        <ele>104.26953125</ele>
        <time>2016-11-02T14:20:32Z</time>
      </trkpt>
      <trkpt lat="45.31008" lon="0.00669">
        <ele>103.87109375</ele>
        <time>2016-11-02T14:20:38Z</time>
      </trkpt>
      <trkpt lat="45.30993" lon="0.00674">
        <ele>103.70703125</ele>
        <time>2016-11-02T14:20:43Z</time>
      </trkpt>
      <trkpt lat="45.30993" lon="0.00674">
        <ele>103.70703125</ele>
        <time>2016-11-02T14:21:03Z</time>
      </trkpt>
      <trkpt lat="45.30992" lon="0.00674">
        <ele>103.703125</ele>
        <time>2016-11-02T14:21:20Z</time>
      </trkpt>
      <trkpt lat="45.30987" lon="0.00676">
        <ele>103.6328125</ele>
        <time>2016-11-02T14:22:23Z</time>
      </trkpt>
      <trkpt lat="45.30969" lon="0.0069">
        <ele>103.56640625</ele>
        <time>2016-11-02T14:22:30Z</time>
      </trkpt>
      <trkpt lat="45.30947" lon="0.00716">
        <ele>103.33984375</ele>
        <time>2016-11-02T14:22:39Z</time>
      </trkpt>
      <trkpt lat="45.30941" lon="0.00729">
        <ele>102.98828125</ele>
        <time>2016-11-02T14:22:45Z</time>
      </trkpt>
      <trkpt lat="45.30936" lon="0.00737">
        <ele>102.52734375</ele>
        <time>2016-11-02T14:22:51Z</time>
      </trkpt>
      <trkpt lat="45.30925" lon="0.00761">
        <ele>101.28125</ele>
        <time>2016-11-02T14:22:58Z</time>
      </trkpt>
      <trkpt lat="45.30914" lon="0.00787">
        <ele>99.0546875</ele>
        <time>2016-11-02T14:23:04Z</time>
      </trkpt>
      <trkpt lat="45.30911" lon="0.00792">
        <ele>98.30078125</ele>
        <time>2016-11-02T14:23:05Z</time>
      </trkpt>
      <trkpt lat="45.30891" lon="0.00825">
        <ele>93.09765625</ele>
        <time>2016-11-02T14:23:11Z</time>
      </trkpt>
      <trkpt lat="45.30871" lon="0.00849">
        <ele>88.28125</ele>
        <time>2016-11-02T14:23:15Z</time>
      </trkpt>
      <trkpt lat="45.30865" lon="0.00854">
        <ele>86.93359375</ele>
        <time>2016-11-02T14:23:16Z</time>
      </trkpt>
      <trkpt lat="45.30858" lon="0.00859">
        <ele>85.66015625</ele>
        <time>2016-11-02T14:23:17Z</time>
      </trkpt>
      <trkpt lat="45.3085" lon="0.00863">
        <ele>84.515625</ele>
        <time>2016-11-02T14:23:18Z</time>
      </trkpt>
      <trkpt lat="45.30826" lon="0.00876">
        <ele>81.2265625</ele>
        <time>2016-11-02T14:23:21Z</time>
      </trkpt>
      <trkpt lat="45.30818" lon="0.00882">
        <ele>79.8671875</ele>
        <time>2016-11-02T14:23:22Z</time>
      </trkpt>
      <trkpt lat="45.3081" lon="0.00889">
        <ele>78.4921875</ele>
        <time>2016-11-02T14:23:23Z</time>
      </trkpt>
      <trkpt lat="45.30801" lon="0.00895">
        <ele>77.63671875</ele>
        <time>2016-11-02T14:23:24Z</time>
      </trkpt>
      <trkpt lat="45.30792" lon="0.00899">
        <ele>76.88671875</ele>
        <time>2016-11-02T14:23:25Z</time>
      </trkpt>
      <trkpt lat="45.30781" lon="0.00903">
        <ele>76.23828125</ele>
        <time>2016-11-02T14:23:26Z</time>
      </trkpt>
      <trkpt lat="45.30771" lon="0.00904">
        <ele>75.69921875</ele>
        <time>2016-11-02T14:23:27Z</time>
      </trkpt>
      <trkpt lat="45.30751" lon="0.00906">
        <ele>74.8125</ele>
        <time>2016-11-02T14:23:29Z</time>
      </trkpt>
      <trkpt lat="45.30724" lon="0.00906">
        <ele>73.3671875</ele>
        <time>2016-11-02T14:23:32Z</time>
      </trkpt>
      <trkpt lat="45.30712" lon="0.00904">
        <ele>72.73046875</ele>
        <time>2016-11-02T14:23:34Z</time>
      </trkpt>
      <trkpt lat="45.30708" lon="0.00903">
        <ele>72.5546875</ele>
        <time>2016-11-02T14:23:35Z</time>
      </trkpt>
      <trkpt lat="45.30704" lon="0.009">
        <ele>72.49609375</ele>
        <time>2016-11-02T14:23:37Z</time>
      </trkpt>
      <trkpt lat="45.30702" lon="0.00901">
        <ele>72.3203125</ele>
        <time>2016-11-02T14:23:57Z</time>
      </trkpt>
      <trkpt lat="45.30701" lon="0.00905">
        <ele>71.99609375</ele>
        <time>2016-11-02T14:23:58Z</time>
      </trkpt>
      <trkpt lat="45.30697" lon="0.00913">
        <ele>71.1171875</ele>
        <time>2016-11-02T14:23:59Z</time>
      </trkpt>
      <trkpt lat="45.30693" lon="0.0092">
        <ele>70.28125</ele>
        <time>2016-11-02T14:24:00Z</time>
      </trkpt>
      <trkpt lat="45.30687" lon="0.00928">
        <ele>69.30859375</ele>
        <time>2016-11-02T14:24:01Z</time>
      </trkpt>
      <trkpt lat="45.30682" lon="0.00936">
        <ele>68.4140625</ele>
        <time>2016-11-02T14:24:02Z</time>
      </trkpt>
      <trkpt lat="45.30676" lon="0.00945">
        <ele>67.578125</ele>
        <time>2016-11-02T14:24:03Z</time>
      </trkpt>
      <trkpt lat="45.30674" lon="0.00949">
        <ele>67.40625</ele>
        <time>2016-11-02T14:24:04Z</time>
      </trkpt>
      <trkpt lat="45.30665" lon="0.00957">
        <ele>66.82421875</ele>
        <time>2016-11-02T14:24:05Z</time>
      </trkpt>
      <trkpt lat="45.30659" lon="0.00959">
        <ele>66.37890625</ele>
        <time>2016-11-02T14:24:06Z</time>
      </trkpt>
      <trkpt lat="45.30664" lon="0.00917">
        <ele>68.3203125</ele>
        <time>2016-11-02T14:24:07Z</time>
      </trkpt>
      <trkpt lat="45.30671" lon="0.00865">
        <ele>71.6015625</ele>
        <time>2016-11-02T14:24:08Z</time>
      </trkpt>
      <trkpt lat="45.30675" lon="0.0083">
        <ele>73.68359375</ele>
        <time>2016-11-02T14:24:09Z</time>
      </trkpt>
      <trkpt lat="45.30676" lon="0.0082">
        <ele>73.890625</ele>
        <time>2016-11-02T14:24:15Z</time>
      </trkpt>
      <trkpt lat="45.30681" lon="0.00792">
        <ele>74.5625</ele>
        <time>2016-11-02T14:24:16Z</time>
      </trkpt>
      <trkpt lat="45.30683" lon="0.00782">
        <ele>74.82421875</ele>
        <time>2016-11-02T14:24:17Z</time>
      </trkpt>
      <trkpt lat="45.30684" lon="0.00775">
        <ele>74.9921875</ele>
        <time>2016-11-02T14:24:18Z</time>
      </trkpt>
      <trkpt lat="45.30686" lon="0.00768">
        <ele>75.2421875</ele>
        <time>2016-11-02T14:24:19Z</time>
      </trkpt>
      <trkpt lat="45.30688" lon="0.0076">
        <ele>75.4375</ele>
        <time>2016-11-02T14:24:20Z</time>
      </trkpt>
      <trkpt lat="45.30702" lon="0.00701">
        <ele>77.0546875</ele>
        <time>2016-11-02T14:24:28Z</time>
      </trkpt>
      <trkpt lat="45.3072" lon="0.00633">
        <ele>77.23046875</ele>
        <time>2016-11-02T14:24:37Z</time>
      </trkpt>
      <trkpt lat="45.30743" lon="0.00533">
        <ele>73.5625</ele>
        <time>2016-11-02T14:24:49Z</time>
      </trkpt>
      <trkpt lat="45.30765" lon="0.00445">
        <ele>68.90234375</ele>
        <time>2016-11-02T14:25:00Z</time>
      </trkpt>
      <trkpt lat="45.30773" lon="0.00395">
        <ele>67.13671875</ele>
        <time>2016-11-02T14:25:08Z</time>
      </trkpt>
      <trkpt lat="45.30773" lon="0.00376">
        <ele>66.69140625</ele>
        <time>2016-11-02T14:25:14Z</time>
      </trkpt>
      <trkpt lat="45.30773" lon="0.00374">
        <ele>66.6640625</ele>
        <time>2016-11-02T14:25:36Z</time>
      </trkpt>
      <trkpt lat="45.30772" lon="0.00371">
        <ele>66.57421875</ele>
        <time>2016-11-02T14:25:37Z</time>
      </trkpt>
      <trkpt lat="45.3077" lon="0.00369">
        <ele>66.4609375</ele>
        <time>2016-11-02T14:25:38Z</time>
      </trkpt>
      <trkpt lat="45.30768" lon="0.00366">
        <ele>66.31640625</ele>
        <time>2016-11-02T14:25:39Z</time>
      </trkpt>
      <trkpt lat="45.30765" lon="0.00364">
        <ele>66.15625</ele>
        <time>2016-11-02T14:25:40Z</time>
      </trkpt>
      <trkpt lat="45.30761" lon="0.00363">
        <ele>65.9921875</ele>
        <time>2016-11-02T14:25:41Z</time>
      </trkpt>
      <trkpt lat="45.30758" lon="0.00361">
        <ele>65.8203125</ele>
        <time>2016-11-02T14:25:42Z</time>
      </trkpt>
      <trkpt lat="45.30754" lon="0.00359">
        <ele>65.6484375</ele>
        <time>2016-11-02T14:25:43Z</time>
      </trkpt>
      <trkpt lat="45.3075" lon="0.00357">
        <ele>65.46875</ele>
        <time>2016-11-02T14:25:44Z</time>
      </trkpt>
      <trkpt lat="45.30721" lon="0.00345">
        <ele>64.59375</ele>
        <time>2016-11-02T14:25:52Z</time>
      </trkpt>
      <trkpt lat="45.30685" lon="0.00331">
        <ele>64.06640625</ele>
        <time>2016-11-02T14:26:02Z</time>
      </trkpt>
      <trkpt lat="45.30656" lon="0.00318">
        <ele>66.08984375</ele>
        <time>2016-11-02T14:26:11Z</time>
      </trkpt>
      <trkpt lat="45.30636" lon="0.00316">
        <ele>67.421875</ele>
        <time>2016-11-02T14:26:16Z</time>
      </trkpt>
      <trkpt lat="45.30608" lon="0.00305">
        <ele>70.67578125</ele>
        <time>2016-11-02T14:26:23Z</time>
      </trkpt>
      <trkpt lat="45.30602" lon="0.00301">
        <ele>71.6328125</ele>
        <time>2016-11-02T14:26:25Z</time>
      </trkpt>
      <trkpt lat="45.30582" lon="0.00287">
        <ele>74.55078125</ele>
        <time>2016-11-02T14:26:33Z</time>
      </trkpt>
      <trkpt lat="45.30574" lon="0.00284">
        <ele>75.54296875</ele>
        <time>2016-11-02T14:26:37Z</time>
      </trkpt>
      <trkpt lat="45.30572" lon="0.00284">
        <ele>75.79296875</ele>
        <time>2016-11-02T14:26:38Z</time>
      </trkpt>
      <trkpt lat="45.3057" lon="0.00283">
        <ele>76.0859375</ele>
        <time>2016-11-02T14:26:39Z</time>
      </trkpt>
      <trkpt lat="45.30568" lon="0.00283">
        <ele>76.390625</ele>
        <time>2016-11-02T14:26:40Z</time>
      </trkpt>
      <trkpt lat="45.30566" lon="0.00282">
        <ele>76.6875</ele>
        <time>2016-11-02T14:26:41Z</time>
      </trkpt>
      <trkpt lat="45.30564" lon="0.0028">
        <ele>76.984375</ele>
        <time>2016-11-02T14:26:42Z</time>
      </trkpt>
      <trkpt lat="45.30563" lon="0.00278">
        <ele>77.26171875</ele>
        <time>2016-11-02T14:26:43Z</time>
      </trkpt>
      <trkpt lat="45.30561" lon="0.00277">
        <ele>77.5234375</ele>
        <time>2016-11-02T14:26:44Z</time>
      </trkpt>
      <trkpt lat="45.3056" lon="0.00276">
        <ele>77.76953125</ele>
        <time>2016-11-02T14:26:45Z</time>
      </trkpt>
      <trkpt lat="45.30558" lon="0.00274">
        <ele>78.0234375</ele>
        <time>2016-11-02T14:26:46Z</time>
      </trkpt>
      <trkpt lat="45.30546" lon="0.00264">
        <ele>79.87890625</ele>
        <time>2016-11-02T14:26:54Z</time>
      </trkpt>
      <trkpt lat="45.30539" lon="0.00257">
        <ele>80.9609375</ele>
        <time>2016-11-02T14:27:01Z</time>
      </trkpt>
      <trkpt lat="45.30528" lon="0.00247">
        <ele>82.4453125</ele>
        <time>2016-11-02T14:27:09Z</time>
      </trkpt>
      <trkpt lat="45.30519" lon="0.00237">
        <ele>83.55078125</ele>
        <time>2016-11-02T14:27:18Z</time>
      </trkpt>
      <trkpt lat="45.30509" lon="0.00228">
        <ele>84.54296875</ele>
        <time>2016-11-02T14:27:27Z</time>
      </trkpt>
      <trkpt lat="45.30499" lon="0.0022">
        <ele>85.4375</ele>
        <time>2016-11-02T14:27:34Z</time>
      </trkpt>
      <trkpt lat="45.30491" lon="0.00213">
        <ele>86.3515625</ele>
        <time>2016-11-02T14:27:40Z</time>
      </trkpt>
      <trkpt lat="45.30484" lon="0.00208">
        <ele>86.99609375</ele>
        <time>2016-11-02T14:27:44Z</time>
      </trkpt>
      <trkpt lat="45.30469" lon="0.00201">
        <ele>88.29296875</ele>
        <time>2016-11-02T14:27:54Z</time>
      </trkpt>
      <trkpt lat="45.30448" lon="0.00193">
        <ele>89.40234375</ele>
        <time>2016-11-02T14:28:04Z</time>
      </trkpt>
      <trkpt lat="45.30428" lon="0.00182">
        <ele>90.22265625</ele>
        <time>2016-11-02T14:28:12Z</time>
      </trkpt>
      <trkpt lat="45.30405" lon="0.00168">
        <ele>90.91796875</ele>
        <time>2016-11-02T14:28:21Z</time>
      </trkpt>
      <trkpt lat="45.30396" lon="0.00162">
        <ele>90.54296875</ele>
        <time>2016-11-02T14:28:25Z</time>
      </trkpt>
      <trkpt lat="45.30393" lon="0.00161">
        <ele>90.40625</ele>
        <time>2016-11-02T14:28:26Z</time>
      </trkpt>
      <trkpt lat="45.3039" lon="0.0016">
        <ele>90.2578125</ele>
        <time>2016-11-02T14:28:27Z</time>
      </trkpt>
      <trkpt lat="45.30381" lon="0.00161">
        <ele>89.80859375</ele>
        <time>2016-11-02T14:28:29Z</time>
      </trkpt>
      <trkpt lat="45.30347" lon="0.00158">
        <ele>88.01953125</ele>
        <time>2016-11-02T14:28:35Z</time>
      </trkpt>
      <trkpt lat="45.30319" lon="0.00157">
        <ele>86.0703125</ele>
        <time>2016-11-02T14:28:39Z</time>
      </trkpt>
      <trkpt lat="45.30289" lon="0.0015">
        <ele>83.97265625</ele>
        <time>2016-11-02T14:28:43Z</time>
      </trkpt>
      <trkpt lat="45.30257" lon="0.00136">
        <ele>81.2578125</ele>
        <time>2016-11-02T14:28:47Z</time>
      </trkpt>
      <trkpt lat="45.30207" lon="0.00106">
        <ele>78.9375</ele>
        <time>2016-11-02T14:28:54Z</time>
      </trkpt>
      <trkpt lat="45.30201" lon="0.00102">
        <ele>78.80859375</ele>
        <time>2016-11-02T14:28:55Z</time>
      </trkpt>
      <trkpt lat="45.30196" lon="0.00097">
        <ele>78.7109375</ele>
        <time>2016-11-02T14:28:56Z</time>
      </trkpt>
      <trkpt lat="45.30191" lon="0.00092">
        <ele>78.62109375</ele>
        <time>2016-11-02T14:28:57Z</time>
      </trkpt>
      <trkpt lat="45.30187" lon="0.00087">
        <ele>78.546875</ele>
        <time>2016-11-02T14:28:58Z</time>
      </trkpt>
      <trkpt lat="45.30183" lon="0.00081">
        <ele>78.625</ele>
        <time>2016-11-02T14:28:59Z</time>
      </trkpt>
      <trkpt lat="45.30176" lon="0.0007">
        <ele>79.32421875</ele>
        <time>2016-11-02T14:29:01Z</time>
      </trkpt>
      <trkpt lat="45.30166" lon="0.00056">
        <ele>80.2734375</ele>
        <time>2016-11-02T14:29:04Z</time>
      </trkpt>
      <trkpt lat="45.30156" lon="0.00043">
        <ele>81.265625</ele>
        <time>2016-11-02T14:29:08Z</time>
      </trkpt>
      <trkpt lat="45.30134" lon="0.00025">
        <ele>82.71484375</ele>
        <time>2016-11-02T14:29:16Z</time>
      </trkpt>
      <trkpt lat="45.30115" lon="0.00017">
        <ele>83.68359375</ele>
        <time>2016-11-02T14:29:23Z</time>
      </trkpt>
      <trkpt lat="45.30088" lon="8.0E-5">
        <ele>85.1171875</ele>
        <time>2016-11-02T14:29:32Z</time>
      </trkpt>
      <trkpt lat="45.3006" lon="0">
        <ele>86.24609375</ele>
        <time>2016-11-02T14:29:42Z</time>
      </trkpt>
      <trkpt lat="45.30031" lon="-6.0E-5">
        <ele>86.91015625</ele>
        <time>2016-11-02T14:29:52Z</time>
      </trkpt>
      <trkpt lat="45.3001" lon="-9.0E-5">
        <ele>87.328125</ele>
        <time>2016-11-02T14:29:59Z</time>
      </trkpt>
      <trkpt lat="45.29988" lon="-8.0E-5">
        <ele>87.30078125</ele>
        <time>2016-11-02T14:30:05Z</time>
      </trkpt>
      <trkpt lat="45.29984" lon="-7.0E-5">
        <ele>87.265625</ele>
        <time>2016-11-02T14:30:06Z</time>
      </trkpt>
      <trkpt lat="45.29945" lon="2.0E-5">
        <ele>86.65234375</ele>
        <time>2016-11-02T14:30:15Z</time>
      </trkpt>
      <trkpt lat="45.29905" lon="0.00014">
        <ele>85.484375</ele>
        <time>2016-11-02T14:30:22Z</time>
      </trkpt>
      <trkpt lat="45.29857" lon="9.0E-5">
        <ele>84.9296875</ele>
        <time>2016-11-02T14:30:29Z</time>
      </trkpt>
      <trkpt lat="45.29818" lon="9.0E-5">
        <ele>84.84375</ele>
        <time>2016-11-02T14:30:38Z</time>
      </trkpt>
      <trkpt lat="45.298" lon="0.00015">
        <ele>84.73828125</ele>
        <time>2016-11-02T14:30:40Z</time>
      </trkpt>
      <trkpt lat="45.29821" lon="-0.00103">
        <ele>87.8515625</ele>
        <time>2016-11-02T14:30:41Z</time>
      </trkpt>
      <trkpt lat="45.29843" lon="-0.00232">
        <ele>90.20703125</ele>
        <time>2016-11-02T14:30:42Z</time>
      </trkpt>
      <trkpt lat="45.29852" lon="-0.00277">
        <ele>90.97265625</ele>
      </trkpt>
      <trkpt lat="45.29858" lon="-0.00326">
        <ele>91.6484375</ele>
      </trkpt>
      <trkpt lat="45.2986" lon="-0.00438">
        <ele>93.4375</ele>
      </trkpt>
      <trkpt lat="45.29863" lon="-0.00466">
        <ele>94.1484375</ele>
      </trkpt>
      <trkpt lat="45.29868" lon="-0.00492">
        <ele>94.8359375</ele>
      </trkpt>
      <trkpt lat="45.29874" lon="-0.00517">
        <ele>94.91796875</ele>
      </trkpt>
      <trkpt lat="45.29887" lon="-0.00545">
        <ele>94.359375</ele>
      </trkpt>
      <trkpt lat="45.29906" lon="-0.0058">
        <ele>93.515625</ele>
      </trkpt>
      <trkpt lat="45.2991" lon="-0.00596">
        <ele>93.62890625</ele>
      </trkpt>
      <trkpt lat="45.29912" lon="-0.0061">
        <ele>93.796875</ele>
      </trkpt>
      <trkpt lat="45.29912" lon="-0.00626">
        <ele>94.08984375</ele>
      </trkpt>
      <trkpt lat="45.29909" lon="-0.00643">
        <ele>94.5078125</ele>
      </trkpt>
      <trkpt lat="45.29906" lon="-0.00657">
        <ele>94.87890625</ele>
      </trkpt>
      <trkpt lat="45.29901" lon="-0.00664">
        <ele>95.29296875</ele>
      </trkpt>
      <trkpt lat="45.29819" lon="-0.00784">
        <ele>102.69140625</ele>
      </trkpt>
      <trkpt lat="45.29819" lon="-0.0079">
        <ele>103.015625</ele>
      </trkpt>
      <trkpt lat="45.29801" lon="-0.00795">
        <ele>104.609375</ele>
      </trkpt>
      <trkpt lat="45.29789" lon="-0.00796">
        <ele>105</ele>
      </trkpt>
      <trkpt lat="45.29775" lon="-0.00795">
        <ele>104.95703125</ele>
      </trkpt>
      <trkpt lat="45.2974" lon="-0.00805">
        <ele>105.48828125</ele>
      </trkpt>
      <trkpt lat="45.29672" lon="-0.00831">
        <ele>100.03515625</ele>
      </trkpt>
      <trkpt lat="45.29641" lon="-0.00847">
        <ele>98.23046875</ele>
      </trkpt>
      <trkpt lat="45.29624" lon="-0.00857">
        <ele>97</ele>
      </trkpt>
      <trkpt lat="45.29607" lon="-0.00872">
        <ele>95.74609375</ele>
      </trkpt>
      <trkpt lat="45.29587" lon="-0.00893">
        <ele>94.2421875</ele>
      </trkpt>
      <trkpt lat="45.29558" lon="-0.00929">
        <ele>91.68359375</ele>
      </trkpt>
      <trkpt lat="45.29526" lon="-0.00966">
        <ele>88.30078125</ele>
      </trkpt>
      <trkpt lat="45.29505" lon="-0.00914">
        <ele>87.8203125</ele>
      </trkpt>
      <trkpt lat="45.29491" lon="-0.00889">
        <ele>87.5546875</ele>
      </trkpt>
      <trkpt lat="45.29476" lon="-0.00867">
        <ele>86.7421875</ele>
      </trkpt>
      <trkpt lat="45.29466" lon="-0.00847">
        <ele>86.16796875</ele>
      </trkpt>
      <trkpt lat="45.29446" lon="-0.00805">
        <ele>85.9140625</ele>
      </trkpt>
      <trkpt lat="45.29437" lon="-0.00789">
        <ele>85.86328125</ele>
      </trkpt>
      <trkpt lat="45.294" lon="-0.00749">
        <ele>85.7734375</ele>
      </trkpt>
      <trkpt lat="45.2939" lon="-0.00741">
        <ele>85.6875</ele>
      </trkpt>
      <trkpt lat="45.29339" lon="-0.0072">
        <ele>84.4296875</ele>
      </trkpt>
      <trkpt lat="45.29321" lon="-0.00706">
        <ele>84.2265625</ele>
      </trkpt>
      <trkpt lat="45.2927" lon="-0.0066">
        <ele>84.53515625</ele>
      </trkpt>
      <trkpt lat="45.29253" lon="-0.00648">
        <ele>85.046875</ele>
      </trkpt>
      <trkpt lat="45.29231" lon="-0.00638">
        <ele>85.17578125</ele>
      </trkpt>
      <trkpt lat="45.29204" lon="-0.0063">
        <ele>84.9453125</ele>
      </trkpt>
      <trkpt lat="45.29183" lon="-0.00627">
        <ele>84.4609375</ele>
      </trkpt>
      <trkpt lat="45.29137" lon="-0.00632">
        <ele>82.17578125</ele>
      </trkpt>
      <trkpt lat="45.29121" lon="-0.00632">
        <ele>81.56640625</ele>
      </trkpt>
      <trkpt lat="45.29043" lon="-0.00668">
        <ele>78.515625</ele>
      </trkpt>
      <trkpt lat="45.29025" lon="-0.00672">
        <ele>78.69140625</ele>
      </trkpt>
      <trkpt lat="45.2899" lon="-0.00671">
        <ele>78.78125</ele>
      </trkpt>
      <trkpt lat="45.28936" lon="-0.00666">
        <ele>78.52734375</ele>
      </trkpt>
      <trkpt lat="45.28927" lon="-0.00666">
        <ele>78.390625</ele>
      </trkpt>
      <trkpt lat="45.289" lon="-0.00674">
        <ele>77.80078125</ele>
      </trkpt>
      <trkpt lat="45.28898" lon="-0.00678">
        <ele>77.6875</ele>
      </trkpt>
      <trkpt lat="45.28896" lon="-0.00679">
        <ele>77.66796875</ele>
      </trkpt>
      <trkpt lat="45.28868" lon="-0.00682">
        <ele>77.71875</ele>
      </trkpt>
      <trkpt lat="45.28834" lon="-0.00681">
        <ele>77.9296875</ele>
      </trkpt>
      <trkpt lat="45.28807" lon="-0.00679">
        <ele>78.1171875</ele>
      </trkpt>
      <trkpt lat="45.28786" lon="-0.00672">
        <ele>78.23046875</ele>
      </trkpt>
      <trkpt lat="45.28769" lon="-0.00672">
        <ele>77.6484375</ele>
      </trkpt>
      <trkpt lat="45.28739" lon="-0.00669">
        <ele>76.7734375</ele>
      </trkpt>
      <trkpt lat="45.28701" lon="-0.00662">
        <ele>75.8359375</ele>
      </trkpt>
      <trkpt lat="45.28659" lon="-0.00649">
        <ele>75.6328125</ele>
      </trkpt>
      <trkpt lat="45.28623" lon="-0.00643">
        <ele>75.7421875</ele>
      </trkpt>
      <trkpt lat="45.28581" lon="-0.00637">
        <ele>77.046875</ele>
      </trkpt>
      <trkpt lat="45.28553" lon="-0.00632">
        <ele>77.74609375</ele>
      </trkpt>
      <trkpt lat="45.28526" lon="-0.00634">
        <ele>77.46484375</ele>
      </trkpt>
      <trkpt lat="45.28492" lon="-0.00638">
        <ele>76.33203125</ele>
      </trkpt>
      <trkpt lat="45.28465" lon="-0.00643">
        <ele>75.10546875</ele>
      </trkpt>
      <trkpt lat="45.28431" lon="-0.00642">
        <ele>74.61328125</ele>
      </trkpt>
      <trkpt lat="45.28395" lon="-0.00637">
        <ele>74.40625</ele>
      </trkpt>
      <trkpt lat="45.28362" lon="-0.00636">
        <ele>73.86328125</ele>
      </trkpt>
      <trkpt lat="45.2833" lon="-0.00641">
        <ele>72.98046875</ele>
      </trkpt>
      <trkpt lat="45.28293" lon="-0.00646">
        <ele>72.1015625</ele>
      </trkpt>
      <trkpt lat="45.28259" lon="-0.0065">
        <ele>71.890625</ele>
      </trkpt>
      <trkpt lat="45.28237" lon="-0.00663">
        <ele>71.2578125</ele>
      </trkpt>
      <trkpt lat="45.28208" lon="-0.00665">
        <ele>71.6484375</ele>
      </trkpt>
      <trkpt lat="45.28169" lon="-0.00659">
        <ele>72.40625</ele>
      </trkpt>
      <trkpt lat="45.28144" lon="-0.00652">
        <ele>72.7578125</ele>
      </trkpt>
      <trkpt lat="45.28122" lon="-0.00639">
        <ele>72.9375</ele>
      </trkpt>
      <trkpt lat="45.28094" lon="-0.00615">
        <ele>72.796875</ele>
      </trkpt>
      <trkpt lat="45.2808" lon="-0.00603">
        <ele>72.828125</ele>
      </trkpt>
      <trkpt lat="45.28038" lon="-0.00587">
        <ele>72.3828125</ele>
      </trkpt>
      <trkpt lat="45.28013" lon="-0.0058">
        <ele>72.0390625</ele>
      </trkpt>
      <trkpt lat="45.27971" lon="-0.00581">
        <ele>70.42578125</ele>
      </trkpt>
      <trkpt lat="45.27939" lon="-0.00581">
        <ele>69.05859375</ele>
      </trkpt>
      <trkpt lat="45.27907" lon="-0.00574">
        <ele>67.93359375</ele>
      </trkpt>
      <trkpt lat="45.27875" lon="-0.00563">
        <ele>66.96484375</ele>
      </trkpt>
      <trkpt lat="45.27847" lon="-0.00552">
        <ele>66.40234375</ele>
      </trkpt>
      <trkpt lat="45.27834" lon="-0.00552">
        <ele>67.0703125</ele>
      </trkpt>
      <trkpt lat="45.27823" lon="-0.00542">
        <ele>67.96484375</ele>
      </trkpt>
      <trkpt lat="45.27808" lon="-0.00526">
        <ele>69.015625</ele>
      </trkpt>
      <trkpt lat="45.27792" lon="-0.0052">
        <ele>69.8125</ele>
      </trkpt>
      <trkpt lat="45.2776" lon="-0.00511">
        <ele>71.140625</ele>
      </trkpt>
      <trkpt lat="45.27737" lon="-0.00504">
        <ele>71.99609375</ele>
      </trkpt>
      <trkpt lat="45.27698" lon="-0.00487">
        <ele>73.19921875</ele>
      </trkpt>
      <trkpt lat="45.27663" lon="-0.00473">
        <ele>75.37890625</ele>
      </trkpt>
      <trkpt lat="45.27634" lon="-0.00461">
        <ele>77.859375</ele>
      </trkpt>
      <trkpt lat="45.27622" lon="-0.00454">
        <ele>78.73828125</ele>
      </trkpt>
      <trkpt lat="45.27619" lon="-0.00452">
        <ele>79</ele>
      </trkpt>
      <trkpt lat="45.27611" lon="-0.00456">
        <ele>79.05859375</ele>
      </trkpt>
      <trkpt lat="45.27607" lon="-0.0043">
        <ele>80.1015625</ele>
      </trkpt>
      <trkpt lat="45.27606" lon="-0.00367">
        <ele>81.2578125</ele>
      </trkpt>
      <trkpt lat="45.27613" lon="-0.00305">
        <ele>81.9296875</ele>
      </trkpt>
      <trkpt lat="45.27631" lon="-0.0024">
        <ele>81.625</ele>
      </trkpt>
      <trkpt lat="45.27655" lon="-0.00167">
        <ele>52.3671875</ele>
      </trkpt>
      <trkpt lat="45.27679" lon="-0.00109">
        <ele>82.71484375</ele>
      </trkpt>
      <trkpt lat="45.27693" lon="-0.00066">
        <ele>83.20703125</ele>
      </trkpt>
      <trkpt lat="45.27707" lon="-9.0E-5">
        <ele>84.5625</ele>
      </trkpt>
      <trkpt lat="45.27727" lon="0.00069">
        <ele>86.4375</ele>
      </trkpt>
      <trkpt lat="45.2774" lon="0.00117">
        <ele>88.375</ele>
      </trkpt>
      <trkpt lat="45.2776" lon="0.00162">
        <ele>90.4296875</ele>
      </trkpt>
      <trkpt lat="45.2778" lon="0.00203">
        <ele>91.15234375</ele>
      </trkpt>
      <trkpt lat="45.27802" lon="0.00243">
        <ele>90.96875</ele>
      </trkpt>
      <trkpt lat="45.27817" lon="0.00265">
        <ele>90.71875</ele>
      </trkpt>
      <trkpt lat="45.27834" lon="0.00297">
        <ele>89.51171875</ele>
      </trkpt>
      <trkpt lat="45.27849" lon="0.0033">
        <ele>87.3359375</ele>
      </trkpt>
      <trkpt lat="45.27864" lon="0.00353">
        <ele>86.23046875</ele>
      </trkpt>
      <trkpt lat="45.27877" lon="0.00374">
        <ele>85.20703125</ele>
      </trkpt>
      <trkpt lat="45.27883" lon="0.00381">
        <ele>84.796875</ele>
      </trkpt>
      <trkpt lat="45.27886" lon="0.00391">
        <ele>84.2734375</ele>
      </trkpt>
      <trkpt lat="45.27886" lon="0.00403">
        <ele>83.65234375</ele>
      </trkpt>
      <trkpt lat="45.27885" lon="0.00414">
        <ele>83.0234375</ele>
        <time>2016-11-02T14:57:44Z</time>
      </trkpt>
      <trkpt lat="45.27875" lon="0.00477">
        <ele>80.41796875</ele>
        <time>2016-11-02T14:57:58Z</time>
      </trkpt>
      <trkpt lat="45.27863" lon="0.00528">
        <ele>79.30859375</ele>
        <time>2016-11-02T14:58:07Z</time>
      </trkpt>
      <trkpt lat="45.27851" lon="0.00568">
        <ele>78.82421875</ele>
        <time>2016-11-02T14:58:09Z</time>
      </trkpt>
      <trkpt lat="45.27839" lon="0.00608">
        <ele>78.73828125</ele>
        <time>2016-11-02T14:58:17Z</time>
      </trkpt>
      <trkpt lat="45.27829" lon="0.00645">
        <ele>78.625</ele>
        <time>2016-11-02T14:58:18Z</time>
      </trkpt>
      <trkpt lat="45.27827" lon="0.00672">
        <ele>78.33203125</ele>
        <time>2016-11-02T14:58:19Z</time>
      </trkpt>
      <trkpt lat="45.27825" lon="0.00707">
        <ele>78.109375</ele>
        <time>2016-11-02T14:58:20Z</time>
      </trkpt>
      <trkpt lat="45.27824" lon="0.00729">
        <ele>77.97265625</ele>
        <time>2016-11-02T14:58:21Z</time>
      </trkpt>
      <trkpt lat="45.27811" lon="0.00731">
        <ele>78.82421875</ele>
        <time>2016-11-02T14:58:22Z</time>
      </trkpt>
      <trkpt lat="45.27784" lon="0.00737">
        <ele>80.61328125</ele>
        <time>2016-11-02T14:58:30Z</time>
      </trkpt>
      <trkpt lat="45.27736" lon="0.00747">
        <ele>83.98828125</ele>
        <time>2016-11-02T14:58:39Z</time>
      </trkpt>
      <trkpt lat="45.27686" lon="0.00749">
        <ele>87.98046875</ele>
        <time>2016-11-02T14:58:48Z</time>
      </trkpt>
      <trkpt lat="45.27641" lon="0.00768">
        <ele>89.09765625</ele>
        <time>2016-11-02T14:58:59Z</time>
      </trkpt>
      <trkpt lat="45.27602" lon="0.00786">
        <ele>88.9765625</ele>
        <time>2016-11-02T14:59:07Z</time>
      </trkpt>
      <trkpt lat="45.27582" lon="0.00797">
        <ele>88.47265625</ele>
        <time>2016-11-02T14:59:14Z</time>
      </trkpt>
      <trkpt lat="45.27565" lon="0.00802">
        <ele>88.48046875</ele>
        <time>2016-11-02T14:59:21Z</time>
      </trkpt>
      <trkpt lat="45.27535" lon="0.00806">
        <ele>89.04296875</ele>
        <time>2016-11-02T14:59:30Z</time>
      </trkpt>
      <trkpt lat="45.27516" lon="0.0081">
        <ele>89.3359375</ele>
        <time>2016-11-02T14:59:35Z</time>
      </trkpt>
      <trkpt lat="45.27511" lon="0.00811">
        <ele>89.41796875</ele>
        <time>2016-11-02T14:59:36Z</time>
      </trkpt>
      <trkpt lat="45.2748" lon="0.0082">
        <ele>89.9375</ele>
        <time>2016-11-02T14:59:44Z</time>
      </trkpt>
      <trkpt lat="45.27446" lon="0.00823">
        <ele>89.98828125</ele>
        <time>2016-11-02T14:59:53Z</time>
      </trkpt>
      <trkpt lat="45.27442" lon="0.00822">
        <ele>89.92578125</ele>
        <time>2016-11-02T14:59:54Z</time>
      </trkpt>
      <trkpt lat="45.27437" lon="0.00821">
        <ele>89.8515625</ele>
        <time>2016-11-02T14:59:55Z</time>
      </trkpt>
      <trkpt lat="45.27433" lon="0.0082">
        <ele>89.7734375</ele>
        <time>2016-11-02T14:59:56Z</time>
      </trkpt>
      <trkpt lat="45.27429" lon="0.00819">
        <ele>89.70703125</ele>
        <time>2016-11-02T14:59:57Z</time>
      </trkpt>
      <trkpt lat="45.27419" lon="0.00816">
        <ele>89.546875</ele>
        <time>2016-11-02T14:59:59Z</time>
      </trkpt>
      <trkpt lat="45.27379" lon="0.008">
        <ele>88.0234375</ele>
        <time>2016-11-02T15:00:06Z</time>
      </trkpt>
      <trkpt lat="45.27359" lon="0.00793">
        <ele>87.06640625</ele>
        <time>2016-11-02T15:00:09Z</time>
      </trkpt>
      <trkpt lat="45.27312" lon="0.00771">
        <ele>84.24609375</ele>
        <time>2016-11-02T15:00:16Z</time>
      </trkpt>
      <trkpt lat="45.273" lon="0.00761">
        <ele>83.82421875</ele>
        <time>2016-11-02T15:00:18Z</time>
      </trkpt>
      <trkpt lat="45.27244" lon="0.00697">
        <ele>83.5625</ele>
        <time>2016-11-02T15:00:29Z</time>
      </trkpt>
      <trkpt lat="45.272" lon="0.00667">
        <ele>82.5</ele>
        <time>2016-11-02T15:00:37Z</time>
      </trkpt>
      <trkpt lat="45.27148" lon="0.00644">
        <ele>82.1171875</ele>
        <time>2016-11-02T15:00:46Z</time>
      </trkpt>
      <trkpt lat="45.27104" lon="0.00626">
        <ele>83.4140625</ele>
        <time>2016-11-02T15:00:54Z</time>
      </trkpt>
      <trkpt lat="45.27099" lon="0.00625">
        <ele>83.64453125</ele>
        <time>2016-11-02T15:00:55Z</time>
      </trkpt>
      <trkpt lat="45.27053" lon="0.00609">
        <ele>85.4296875</ele>
        <time>2016-11-02T15:01:05Z</time>
      </trkpt>
      <trkpt lat="45.27009" lon="0.00592">
        <ele>86.7109375</ele>
        <time>2016-11-02T15:01:16Z</time>
      </trkpt>
      <trkpt lat="45.27007" lon="0.00589">
        <ele>86.83984375</ele>
        <time>2016-11-02T15:01:17Z</time>
      </trkpt>
      <trkpt lat="45.27006" lon="0.00585">
        <ele>86.953125</ele>
        <time>2016-11-02T15:01:18Z</time>
      </trkpt>
      <trkpt lat="45.27005" lon="0.00581">
        <ele>87.046875</ele>
        <time>2016-11-02T15:01:19Z</time>
      </trkpt>
      <trkpt lat="45.27001" lon="0.00553">
        <ele>87.69921875</ele>
        <time>2016-11-02T15:01:28Z</time>
      </trkpt>
      <trkpt lat="45.27001" lon="0.00552">
        <ele>87.703125</ele>
        <time>2016-11-02T15:01:33Z</time>
      </trkpt>
      <trkpt lat="45.27001" lon="0.00552">
        <ele>87.71484375</ele>
        <time>2016-11-02T15:01:45Z</time>
      </trkpt>
      <trkpt lat="45.27001" lon="0.00552">
        <ele>87.71875</ele>
        <time>2016-11-02T15:02:00Z</time>
      </trkpt>
      <trkpt lat="45.27001" lon="0.00552">
        <ele>87.71875</ele>
        <time>2016-11-02T15:02:14Z</time>
      </trkpt>
      <trkpt lat="45.26999" lon="0.00552">
        <ele>87.7734375</ele>
        <time>2016-11-02T15:02:22Z</time>
      </trkpt>
      <trkpt lat="45.26987" lon="0.00541">
        <ele>88.27734375</ele>
        <time>2016-11-02T15:02:28Z</time>
      </trkpt>
      <trkpt lat="45.2696" lon="0.00517">
        <ele>89.16015625</ele>
        <time>2016-11-02T15:02:38Z</time>
      </trkpt>
      <trkpt lat="45.26929" lon="0.00496">
        <ele>90.3359375</ele>
        <time>2016-11-02T15:02:48Z</time>
      </trkpt>
      <trkpt lat="45.269" lon="0.00475">
        <ele>91.7421875</ele>
        <time>2016-11-02T15:02:58Z</time>
      </trkpt>
      <trkpt lat="45.26872" lon="0.00457">
        <ele>93.1015625</ele>
        <time>2016-11-02T15:03:08Z</time>
      </trkpt>
      <trkpt lat="45.26853" lon="0.0044">
        <ele>94.16015625</ele>
        <time>2016-11-02T15:03:16Z</time>
      </trkpt>
      <trkpt lat="45.26852" lon="0.00438">
        <ele>94.21875</ele>
      </trkpt>
      <trkpt lat="45.26871" lon="0.00402">
        <ele>94.60546875</ele>
      </trkpt>
      <trkpt lat="45.26883" lon="0.00382">
        <ele>94.36328125</ele>
      </trkpt>
      <trkpt lat="45.26905" lon="0.00346">
        <ele>93.1953125</ele>
      </trkpt>
      <trkpt lat="45.26922" lon="0.00319">
        <ele>92.49609375</ele>
      </trkpt>
      <trkpt lat="45.2694" lon="0.00292">
        <ele>91.69140625</ele>
      </trkpt>
      <trkpt lat="45.26952" lon="0.00278">
        <ele>91.22265625</ele>
      </trkpt>
      <trkpt lat="45.26959" lon="0.00271">
        <ele>90.96875</ele>
      </trkpt>
      <trkpt lat="45.26956" lon="0.00264">
        <ele>90.859375</ele>
        <time>2015-05-13T12:45:21Z</time>
      </trkpt>
      <trkpt lat="45.26956" lon="0.00264">
        <ele>90.859375</ele>
        <time>2015-05-13T12:45:32Z</time>
      </trkpt>
      <trkpt lat="45.26955" lon="0.00261">
        <ele>90.81640625</ele>
        <time>2015-05-13T12:45:35Z</time>
      </trkpt>
      <trkpt lat="45.26955" lon="0.00259">
        <ele>90.76953125</ele>
        <time>2015-05-13T12:45:36Z</time>
      </trkpt>
      <trkpt lat="45.26955" lon="0.00256">
        <ele>90.71875</ele>
        <time>2015-05-13T12:45:37Z</time>
      </trkpt>
      <trkpt lat="45.26954" lon="0.00253">
        <ele>90.66015625</ele>
        <time>2015-05-13T12:45:38Z</time>
      </trkpt>
      <trkpt lat="45.26953" lon="0.00249">
        <ele>90.58984375</ele>
        <time>2015-05-13T12:45:39Z</time>
      </trkpt>
      <trkpt lat="45.26945" lon="0.00218">
        <ele>89.7890625</ele>
        <time>2015-05-13T12:45:45Z</time>
      </trkpt>
      <trkpt lat="45.26934" lon="0.00164">
        <ele>86.87890625</ele>
        <time>2015-05-13T12:45:53Z</time>
      </trkpt>
      <trkpt lat="45.26927" lon="0.00104">
        <ele>84.515625</ele>
        <time>2015-05-13T12:46:01Z</time>
      </trkpt>
      <trkpt lat="45.26922" lon="0.00036">
        <ele>82.8046875</ele>
        <time>2015-05-13T12:46:10Z</time>
      </trkpt>
      <trkpt lat="45.26922" lon="-0.00032">
        <ele>80.8203125</ele>
        <time>2015-05-13T12:46:19Z</time>
      </trkpt>
      <trkpt lat="45.26925" lon="-0.00078">
        <ele>79.6953125</ele>
        <time>2015-05-13T12:46:25Z</time>
      </trkpt>
      <trkpt lat="45.26926" lon="-0.00085">
        <ele>79.5</ele>
        <time>2015-05-13T12:46:26Z</time>
      </trkpt>
      <trkpt lat="45.26927" lon="-0.00093">
        <ele>79.3203125</ele>
        <time>2015-05-13T12:46:27Z</time>
      </trkpt>
      <trkpt lat="45.26928" lon="-0.00101">
        <ele>79.125</ele>
        <time>2015-05-13T12:46:28Z</time>
      </trkpt>
      <trkpt lat="45.26929" lon="-0.00109">
        <ele>78.93359375</ele>
        <time>2015-05-13T12:46:29Z</time>
      </trkpt>
      <trkpt lat="45.26933" lon="-0.00182">
        <ele>58.72265625</ele>
        <time>2015-05-13T12:46:38Z</time>
      </trkpt>
      <trkpt lat="45.26924" lon="-0.00255">
        <ele>76.5703125</ele>
        <time>2015-05-13T12:46:47Z</time>
      </trkpt>
      <trkpt lat="45.26911" lon="-0.0034">
        <ele>75.703125</ele>
        <time>2015-05-13T12:46:58Z</time>
      </trkpt>
      <trkpt lat="45.26903" lon="-0.0041">
        <ele>74.6015625</ele>
        <time>2015-05-13T12:47:07Z</time>
      </trkpt>
      <trkpt lat="45.26899" lon="-0.00451">
        <ele>73.3515625</ele>
        <time>2015-05-13T12:47:14Z</time>
      </trkpt>
      <trkpt lat="45.26899" lon="-0.0046">
        <ele>73.11328125</ele>
        <time>2015-05-13T12:47:15Z</time>
      </trkpt>
      <trkpt lat="45.269" lon="-0.00471">
        <ele>72.828125</ele>
        <time>2015-05-13T12:47:16Z</time>
      </trkpt>
      <trkpt lat="45.26899" lon="-0.00482">
        <ele>72.59375</ele>
        <time>2015-05-13T12:47:17Z</time>
      </trkpt>
      <trkpt lat="45.26898" lon="-0.00494">
        <ele>72.31640625</ele>
        <time>2015-05-13T12:47:18Z</time>
      </trkpt>
      <trkpt lat="45.26898" lon="-0.00506">
        <ele>71.9296875</ele>
        <time>2015-05-13T12:47:19Z</time>
      </trkpt>
      <trkpt lat="45.26898" lon="-0.00518">
        <ele>71.4609375</ele>
        <time>2015-05-13T12:47:20Z</time>
      </trkpt>
      <trkpt lat="45.269" lon="-0.00549">
        <ele>70.25</ele>
        <time>2015-05-13T12:47:28Z</time>
      </trkpt>
      <trkpt lat="45.26903" lon="-0.006">
        <ele>68.328125</ele>
        <time>2015-05-13T12:47:37Z</time>
      </trkpt>
      <trkpt lat="45.26908" lon="-0.00639">
        <ele>66.45703125</ele>
        <time>2015-05-13T12:47:46Z</time>
      </trkpt>
      <trkpt lat="45.26911" lon="-0.0066">
        <ele>65.35546875</ele>
        <time>2015-05-13T12:47:47Z</time>
      </trkpt>
      <trkpt lat="45.26917" lon="-0.00676">
        <ele>64.48828125</ele>
        <time>2015-05-13T12:47:52Z</time>
      </trkpt>
      <trkpt lat="45.26921" lon="-0.00693">
        <ele>63.5390625</ele>
        <time>2015-05-13T12:47:59Z</time>
      </trkpt>
      <trkpt lat="45.26905" lon="-0.00696">
        <ele>63.46875</ele>
        <time>2015-05-13T12:48:05Z</time>
      </trkpt>
      <trkpt lat="45.2683" lon="-0.00718">
        <ele>65.28515625</ele>
        <time>2015-05-13T12:48:11Z</time>
      </trkpt>
      <trkpt lat="45.26754" lon="-0.0073">
        <ele>67.8828125</ele>
        <time>2015-05-13T12:48:16Z</time>
      </trkpt>
      <trkpt lat="45.26704" lon="-0.00737">
        <ele>68.15625</ele>
        <time>2015-05-13T12:48:25Z</time>
      </trkpt>
      <trkpt lat="45.26646" lon="-0.00745">
        <ele>66.203125</ele>
        <time>2015-05-13T12:48:29Z</time>
      </trkpt>
      <trkpt lat="45.26639" lon="-0.00753">
        <ele>65.5</ele>
        <time>2015-05-13T12:48:30Z</time>
      </trkpt>
      <trkpt lat="45.26631" lon="-0.00767">
        <ele>64.52734375</ele>
        <time>2015-05-13T12:48:31Z</time>
      </trkpt>
      <trkpt lat="45.26629" lon="-0.0079">
        <ele>63.01171875</ele>
        <time>2015-05-13T12:48:32Z</time>
      </trkpt>
      <trkpt lat="45.26632" lon="-0.00821">
        <ele>60.8203125</ele>
        <time>2015-05-13T12:48:33Z</time>
      </trkpt>
      <trkpt lat="45.26626" lon="-0.00834">
        <ele>59.8359375</ele>
        <time>2015-05-13T12:48:37Z</time>
      </trkpt>
      <trkpt lat="45.26605" lon="-0.00847">
        <ele>58.7890625</ele>
        <time>2015-05-13T12:48:38Z</time>
      </trkpt>
      <trkpt lat="45.26597" lon="-0.00848">
        <ele>58.57421875</ele>
        <time>2015-05-13T12:48:39Z</time>
      </trkpt>
      <trkpt lat="45.26593" lon="-0.00856">
        <ele>58.04296875</ele>
        <time>2015-05-13T12:48:40Z</time>
      </trkpt>
      <trkpt lat="45.26571" lon="-0.00864">
        <ele>57.2265625</ele>
        <time>2015-05-13T12:48:41Z</time>
      </trkpt>
      <trkpt lat="45.26543" lon="-0.0086">
        <ele>56.65234375</ele>
        <time>2015-05-13T12:48:48Z</time>
      </trkpt>
      <trkpt lat="45.26523" lon="-0.00855">
        <ele>56.26953125</ele>
        <time>2015-05-13T12:48:50Z</time>
      </trkpt>
      <trkpt lat="45.26511" lon="-0.00858">
        <ele>56.0078125</ele>
        <time>2015-05-13T12:48:51Z</time>
      </trkpt>
      <trkpt lat="45.26484" lon="-0.00881">
        <ele>55.1796875</ele>
        <time>2015-05-13T12:48:55Z</time>
      </trkpt>
      <trkpt lat="45.26468" lon="-0.00891">
        <ele>54.953125</ele>
        <time>2015-05-13T12:49:04Z</time>
      </trkpt>
      <trkpt lat="45.2644" lon="-0.00886">
        <ele>54.62890625</ele>
        <time>2015-05-13T12:49:12Z</time>
      </trkpt>
      <trkpt lat="45.26392" lon="-0.00857">
        <ele>54.64453125</ele>
        <time>2015-05-13T12:49:22Z</time>
      </trkpt>
      <trkpt lat="45.26346" lon="-0.00831">
        <ele>53.85546875</ele>
        <time>2015-05-13T12:49:30Z</time>
      </trkpt>
      <trkpt lat="45.26306" lon="-0.00804">
        <ele>53.3984375</ele>
        <time>2015-05-13T12:49:38Z</time>
      </trkpt>
      <trkpt lat="45.26199" lon="-0.00754">
        <ele>53.53125</ele>
        <time>2015-05-13T12:49:49Z</time>
      </trkpt>
      <trkpt lat="45.26164" lon="-0.00756">
        <ele>53.48828125</ele>
        <time>2015-05-13T12:49:56Z</time>
      </trkpt>
      <trkpt lat="45.26128" lon="-0.00767">
        <ele>52.453125</ele>
        <time>2015-05-13T12:50:05Z</time>
      </trkpt>
      <trkpt lat="45.26084" lon="-0.0078">
        <ele>52.5390625</ele>
        <time>2015-05-13T12:50:13Z</time>
      </trkpt>
      <trkpt lat="45.26063" lon="-0.00789">
        <ele>52.7109375</ele>
        <time>2015-05-13T12:50:20Z</time>
      </trkpt>
      <trkpt lat="45.26053" lon="-0.00792">
        <ele>52.8125</ele>
        <time>2015-05-13T12:55:30Z</time>
      </trkpt>
      <trkpt lat="45.26033" lon="-0.00801">
        <ele>52.58984375</ele>
        <time>2015-05-13T12:55:37Z</time>
      </trkpt>
      <trkpt lat="45.25998" lon="-0.00816">
        <ele>51.83203125</ele>
        <time>2015-05-13T12:55:45Z</time>
      </trkpt>
      <trkpt lat="45.25965" lon="-0.00831">
        <ele>51.11328125</ele>
        <time>2015-05-13T12:55:52Z</time>
      </trkpt>
      <trkpt lat="45.25951" lon="-0.00831">
        <ele>51.1171875</ele>
        <time>2015-05-13T12:56:01Z</time>
      </trkpt>
      <trkpt lat="45.25932" lon="-0.00822">
        <ele>51.66796875</ele>
        <time>2015-05-13T12:56:02Z</time>
      </trkpt>
      <trkpt lat="45.25901" lon="-0.00798">
        <ele>52.6171875</ele>
        <time>2015-05-13T12:56:11Z</time>
      </trkpt>
      <trkpt lat="45.25837" lon="-0.00752">
        <ele>51.984375</ele>
        <time>2015-05-13T12:56:19Z</time>
      </trkpt>
      <trkpt lat="45.25808" lon="-0.00733">
        <ele>51.796875</ele>
        <time>2015-05-13T12:58:40Z</time>
      </trkpt>
      <trkpt lat="45.25804" lon="-0.00735">
        <ele>51.66015625</ele>
        <time>2015-05-13T12:58:41Z</time>
      </trkpt>
      <trkpt lat="45.25802" lon="-0.0074">
        <ele>51.4375</ele>
        <time>2015-05-13T12:58:42Z</time>
      </trkpt>
      <trkpt lat="45.25801" lon="-0.00745">
        <ele>51.23828125</ele>
        <time>2015-05-13T12:58:43Z</time>
      </trkpt>
      <trkpt lat="45.25799" lon="-0.0075">
        <ele>50.99609375</ele>
        <time>2015-05-13T12:58:44Z</time>
      </trkpt>
      <trkpt lat="45.25797" lon="-0.00756">
        <ele>50.76171875</ele>
        <time>2015-05-13T12:58:45Z</time>
      </trkpt>
      <trkpt lat="45.25778" lon="-0.00799">
        <ele>49.63671875</ele>
        <time>2015-05-13T12:58:52Z</time>
      </trkpt>
      <trkpt lat="45.2574" lon="-0.00859">
        <ele>49</ele>
        <time>2015-05-13T12:59:02Z</time>
      </trkpt>
      <trkpt lat="45.25712" lon="-0.00894">
        <ele>49.05859375</ele>
        <time>2015-05-13T12:59:09Z</time>
      </trkpt>
      <trkpt lat="45.25708" lon="-0.00897">
        <ele>49.09375</ele>
        <time>2015-05-13T12:59:10Z</time>
      </trkpt>
      <trkpt lat="45.25704" lon="-0.00897">
        <ele>49.109375</ele>
        <time>2015-05-13T12:59:11Z</time>
      </trkpt>
      <trkpt lat="45.25699" lon="-0.00895">
        <ele>49.09765625</ele>
        <time>2015-05-13T12:59:12Z</time>
      </trkpt>
      <trkpt lat="45.25695" lon="-0.00892">
        <ele>49.0625</ele>
        <time>2015-05-13T12:59:13Z</time>
      </trkpt>
      <trkpt lat="45.2569" lon="-0.00888">
        <ele>49</ele>
        <time>2015-05-13T12:59:14Z</time>
      </trkpt>
      <trkpt lat="45.25668" lon="-0.00869">
        <ele>49.21875</ele>
        <time>2015-05-13T12:59:18Z</time>
      </trkpt>
      <trkpt lat="45.25618" lon="-0.00818">
        <ele>48.96875</ele>
        <time>2015-05-13T12:59:27Z</time>
      </trkpt>
      <trkpt lat="45.25573" lon="-0.00762">
        <ele>48.78515625</ele>
        <time>2015-05-13T12:59:36Z</time>
      </trkpt>
      <trkpt lat="45.25525" lon="-0.00705">
        <ele>48.3671875</ele>
        <time>2015-05-13T12:59:46Z</time>
      </trkpt>
      <trkpt lat="45.2549" lon="-0.00676">
        <ele>48.33984375</ele>
        <time>2015-05-13T12:59:54Z</time>
      </trkpt>
      <trkpt lat="45.25475" lon="-0.00668">
        <ele>48.66015625</ele>
        <time>2015-05-13T13:00:00Z</time>
      </trkpt>
      <trkpt lat="45.25463" lon="-0.00662">
        <ele>48.95703125</ele>
        <time>2015-05-13T13:00:07Z</time>
      </trkpt>
      <trkpt lat="45.25439" lon="-0.00652">
        <ele>49.3359375</ele>
        <time>2015-05-13T13:00:14Z</time>
      </trkpt>
      <trkpt lat="45.25426" lon="-0.00646">
        <ele>49.58203125</ele>
        <time>2015-05-13T13:00:17Z</time>
      </trkpt>
      <trkpt lat="45.25387" lon="-0.0063">
        <ele>50.79296875</ele>
        <time>2015-05-13T13:00:27Z</time>
      </trkpt>
      <trkpt lat="45.25377" lon="-0.00627">
        <ele>51.17578125</ele>
        <time>2015-05-13T13:00:30Z</time>
      </trkpt>
      <trkpt lat="45.25374" lon="-0.0063">
        <ele>51.29296875</ele>
        <time>2015-05-13T13:00:31Z</time>
      </trkpt>
      <trkpt lat="45.25372" lon="-0.00634">
        <ele>51.35546875</ele>
        <time>2015-05-13T13:00:32Z</time>
      </trkpt>
      <trkpt lat="45.2536" lon="-0.00677">
        <ele>51.9765625</ele>
        <time>2015-05-13T13:00:41Z</time>
      </trkpt>
      <trkpt lat="45.25344" lon="-0.00734">
        <ele>53.71875</ele>
        <time>2015-05-13T13:00:53Z</time>
      </trkpt>
      <trkpt lat="45.25329" lon="-0.00779">
        <ele>55.2578125</ele>
        <time>2015-05-13T13:01:03Z</time>
      </trkpt>
      <trkpt lat="45.25327" lon="-0.00788">
        <ele>55.3984375</ele>
        <time>2015-05-13T13:01:06Z</time>
      </trkpt>
      <trkpt lat="45.25328" lon="-0.00792">
        <ele>55.359375</ele>
        <time>2015-05-13T13:01:11Z</time>
      </trkpt>
      <trkpt lat="45.25336" lon="-0.00806">
        <ele>54.625</ele>
        <time>2015-05-13T13:01:17Z</time>
      </trkpt>
      <trkpt lat="45.25353" lon="-0.00826">
        <ele>53.0859375</ele>
        <time>2015-05-13T13:01:20Z</time>
      </trkpt>
      <trkpt lat="45.25368" lon="-0.00841">
        <ele>53.00390625</ele>
      </trkpt>
      <trkpt lat="45.25378" lon="-0.00854">
        <ele>53.28515625</ele>
      </trkpt>
      <trkpt lat="45.25391" lon="-0.00873">
        <ele>54.2421875</ele>
      </trkpt>
      <trkpt lat="45.25401" lon="-0.00889">
        <ele>55.43359375</ele>
      </trkpt>
      <trkpt lat="45.25411" lon="-0.00902">
        <ele>56.53125</ele>
      </trkpt>
      <trkpt lat="45.25411" lon="-0.00913">
        <ele>56.9453125</ele>
      </trkpt>
      <trkpt lat="45.25409" lon="-0.0093">
        <ele>57.4140625</ele>
      </trkpt>
      <trkpt lat="45.25402" lon="-0.0096">
        <ele>58.19921875</ele>
      </trkpt>
      <trkpt lat="45.25393" lon="-0.01004">
        <ele>59.5859375</ele>
      </trkpt>
      <trkpt lat="45.25385" lon="-0.01044">
        <ele>59.62109375</ele>
      </trkpt>
      <trkpt lat="45.25379" lon="-0.01082">
        <ele>59.734375</ele>
      </trkpt>
      <trkpt lat="45.25372" lon="-0.01105">
        <ele>59.49609375</ele>
      </trkpt>
      <trkpt lat="45.25364" lon="-0.01106">
        <ele>58.84375</ele>
      </trkpt>
      <trkpt lat="45.25354" lon="-0.01106">
        <ele>57.953125</ele>
      </trkpt>
      <trkpt lat="45.25338" lon="-0.01116">
        <ele>56.703125</ele>
      </trkpt>
      <trkpt lat="45.25303" lon="-0.01136">
        <ele>54.28515625</ele>
      </trkpt>
      <trkpt lat="45.25273" lon="-0.01149">
        <ele>55.45703125</ele>
      </trkpt>
      <trkpt lat="45.25267" lon="-0.0116">
        <ele>55.984375</ele>
      </trkpt>
      <trkpt lat="45.25265" lon="-0.01168">
        <ele>56.2109375</ele>
      </trkpt>
      <trkpt lat="45.25266" lon="-0.01194">
        <ele>56.46875</ele>
      </trkpt>
      <trkpt lat="45.25273" lon="-0.01229">
        <ele>56.54296875</ele>
      </trkpt>
      <trkpt lat="45.25279" lon="-0.01251">
        <ele>56.76171875</ele>
      </trkpt>
      <trkpt lat="45.25282" lon="-0.01268">
        <ele>56.94140625</ele>
      </trkpt>
      <trkpt lat="45.25284" lon="-0.01287">
        <ele>57.2109375</ele>
      </trkpt>
      <trkpt lat="45.25284" lon="-0.01302">
        <ele>57.5</ele>
      </trkpt>
      <trkpt lat="45.25281" lon="-0.01318">
        <ele>57.96484375</ele>
      </trkpt>
      <trkpt lat="45.25277" lon="-0.0133">
        <ele>58.46875</ele>
      </trkpt>
      <trkpt lat="45.25263" lon="-0.01352">
        <ele>59.33984375</ele>
      </trkpt>
      <trkpt lat="45.25248" lon="-0.01376">
        <ele>59.3515625</ele>
      </trkpt>
      <trkpt lat="45.25241" lon="-0.01396">
        <ele>59.2109375</ele>
      </trkpt>
      <trkpt lat="45.25238" lon="-0.01415">
        <ele>59.32421875</ele>
      </trkpt>
      <trkpt lat="45.25237" lon="-0.01452">
        <ele>58.640625</ele>
      </trkpt>
      <trkpt lat="45.25232" lon="-0.01486">
        <ele>58.50390625</ele>
      </trkpt>
      <trkpt lat="45.25225" lon="-0.01527">
        <ele>59.30078125</ele>
      </trkpt>
      <trkpt lat="45.25221" lon="-0.01548">
        <ele>59.72265625</ele>
      </trkpt>
      <trkpt lat="45.25215" lon="-0.01559">
        <ele>60.02734375</ele>
      </trkpt>
      <trkpt lat="45.25209" lon="-0.01564">
        <ele>60.28125</ele>
      </trkpt>
      <trkpt lat="45.25198" lon="-0.01576">
        <ele>60.703125</ele>
      </trkpt>
      <trkpt lat="45.25188" lon="-0.01586">
        <ele>60.9921875</ele>
      </trkpt>
      <trkpt lat="45.25182" lon="-0.01613">
        <ele>61.59375</ele>
      </trkpt>
      <trkpt lat="45.25175" lon="-0.01654">
        <ele>63.16796875</ele>
      </trkpt>
      <trkpt lat="45.25169" lon="-0.01678">
        <ele>64.1484375</ele>
      </trkpt>
      <trkpt lat="45.25158" lon="-0.01709">
        <ele>65.578125</ele>
      </trkpt>
      <trkpt lat="45.25149" lon="-0.01731">
        <ele>67.0234375</ele>
      </trkpt>
      <trkpt lat="45.25145" lon="-0.01739">
        <ele>67.7265625</ele>
      </trkpt>
      <trkpt lat="45.2514" lon="-0.01747">
        <ele>68.6328125</ele>
      </trkpt>
      <trkpt lat="45.25133" lon="-0.01764">
        <ele>70.19140625</ele>
      </trkpt>
      <trkpt lat="45.25119" lon="-0.01784">
        <ele>72.36328125</ele>
      </trkpt>
      <trkpt lat="45.25108" lon="-0.01802">
        <ele>74.41796875</ele>
      </trkpt>
      <trkpt lat="45.25103" lon="-0.01815">
        <ele>75.6171875</ele>
      </trkpt>
      <trkpt lat="45.25099" lon="-0.01838">
        <ele>77.34765625</ele>
      </trkpt>
      <trkpt lat="45.25096" lon="-0.01864">
        <ele>78.90625</ele>
      </trkpt>
      <trkpt lat="45.25094" lon="-0.01882">
        <ele>79.99609375</ele>
      </trkpt>
      <trkpt lat="45.2509" lon="-0.01893">
        <ele>80.6171875</ele>
      </trkpt>
      <trkpt lat="45.25081" lon="-0.01905">
        <ele>81.39453125</ele>
      </trkpt>
      <trkpt lat="45.25072" lon="-0.01917">
        <ele>82</ele>
      </trkpt>
      <trkpt lat="45.25067" lon="-0.01921">
        <ele>82.171875</ele>
      </trkpt>
      <trkpt lat="45.25055" lon="-0.01923">
        <ele>82.23828125</ele>
      </trkpt>
      <trkpt lat="45.25027" lon="-0.01924">
        <ele>82.24609375</ele>
      </trkpt>
      <trkpt lat="45.24995" lon="-0.0192">
        <ele>81.81640625</ele>
      </trkpt>
      <trkpt lat="45.24958" lon="-0.01913">
        <ele>81.515625</ele>
      </trkpt>
      <trkpt lat="45.24931" lon="-0.01908">
        <ele>81.8828125</ele>
      </trkpt>
      <trkpt lat="45.24903" lon="-0.019">
        <ele>82.5703125</ele>
      </trkpt>
      <trkpt lat="45.24887" lon="-0.01894">
        <ele>83.2734375</ele>
      </trkpt>
      <trkpt lat="45.24868" lon="-0.01882">
        <ele>84.25</ele>
      </trkpt>
      <trkpt lat="45.24851" lon="-0.01867">
        <ele>85.22265625</ele>
      </trkpt>
      <trkpt lat="45.24837" lon="-0.01853">
        <ele>86.0234375</ele>
      </trkpt>
      <trkpt lat="45.24823" lon="-0.01838">
        <ele>86.7734375</ele>
      </trkpt>
      <trkpt lat="45.24811" lon="-0.01828">
        <ele>87.28125</ele>
      </trkpt>
      <trkpt lat="45.24803" lon="-0.01818">
        <ele>87.51953125</ele>
      </trkpt>
      <trkpt lat="45.24801" lon="-0.0181">
        <ele>87.4765625</ele>
      </trkpt>
      <trkpt lat="45.24799" lon="-0.018">
        <ele>87.42578125</ele>
      </trkpt>
      <trkpt lat="45.24796" lon="-0.01805">
        <ele>87.51953125</ele>
        <time>2015-05-13T13:07:31Z</time>
      </trkpt>
      <trkpt lat="45.2479" lon="-0.01817">
        <ele>87.80078125</ele>
        <time>2015-05-13T13:07:32Z</time>
      </trkpt>
      <trkpt lat="45.24782" lon="-0.01831">
        <ele>88.2578125</ele>
        <time>2015-05-13T13:07:33Z</time>
      </trkpt>
      <trkpt lat="45.24774" lon="-0.01846">
        <ele>88.68359375</ele>
        <time>2015-05-13T13:07:34Z</time>
      </trkpt>
      <trkpt lat="45.24763" lon="-0.01869">
        <ele>89.29296875</ele>
        <time>2015-05-13T13:07:44Z</time>
      </trkpt>
      <trkpt lat="45.24748" lon="-0.01895">
        <ele>90.0234375</ele>
        <time>2015-05-13T13:07:55Z</time>
      </trkpt>
      <trkpt lat="45.24736" lon="-0.01919">
        <ele>90.37109375</ele>
        <time>2015-05-13T13:08:05Z</time>
      </trkpt>
      <trkpt lat="45.24725" lon="-0.0194">
        <ele>90.5859375</ele>
        <time>2015-05-13T13:08:15Z</time>
      </trkpt>
      <trkpt lat="45.24714" lon="-0.01959">
        <ele>91.04296875</ele>
        <time>2015-05-13T13:08:24Z</time>
      </trkpt>
      <trkpt lat="45.24704" lon="-0.0198">
        <ele>91.62109375</ele>
        <time>2015-05-13T13:08:30Z</time>
      </trkpt>
      <trkpt lat="45.24694" lon="-0.02002">
        <ele>92.21875</ele>
        <time>2015-05-13T13:08:40Z</time>
      </trkpt>
      <trkpt lat="45.24688" lon="-0.02014">
        <ele>92.56640625</ele>
        <time>2015-05-13T13:08:46Z</time>
      </trkpt>
      <trkpt lat="45.24684" lon="-0.02025">
        <ele>92.78515625</ele>
        <time>2015-05-13T13:12:52Z</time>
      </trkpt>
      <trkpt lat="45.24683" lon="-0.02024">
        <ele>92.66796875</ele>
        <time>2015-05-13T13:12:53Z</time>
      </trkpt>
      <trkpt lat="45.24676" lon="-0.02021">
        <ele>92.26171875</ele>
        <time>2015-05-13T13:12:55Z</time>
      </trkpt>
      <trkpt lat="45.24672" lon="-0.02018">
        <ele>91.9453125</ele>
        <time>2015-05-13T13:12:56Z</time>
      </trkpt>
      <trkpt lat="45.2465" lon="-0.02001">
        <ele>90.09375</ele>
        <time>2015-05-13T13:13:00Z</time>
      </trkpt>
      <trkpt lat="45.24631" lon="-0.01986">
        <ele>88.4609375</ele>
        <time>2015-05-13T13:13:03Z</time>
      </trkpt>
      <trkpt lat="45.24597" lon="-0.0195">
        <ele>85.35546875</ele>
        <time>2015-05-13T13:13:09Z</time>
      </trkpt>
      <trkpt lat="45.24587" lon="-0.01938">
        <ele>84.3984375</ele>
        <time>2015-05-13T13:13:11Z</time>
      </trkpt>
      <trkpt lat="45.24558" lon="-0.01899">
        <ele>81.453125</ele>
        <time>2015-05-13T13:13:17Z</time>
      </trkpt>
      <trkpt lat="45.24527" lon="-0.01858">
        <ele>78.6640625</ele>
        <time>2015-05-13T13:13:23Z</time>
      </trkpt>
      <trkpt lat="45.245" lon="-0.01815">
        <ele>76.30078125</ele>
        <time>2015-05-13T13:13:29Z</time>
      </trkpt>
      <trkpt lat="45.24487" lon="-0.01786">
        <ele>74.28125</ele>
        <time>2015-05-13T13:13:34Z</time>
      </trkpt>
      <trkpt lat="45.24484" lon="-0.0178">
        <ele>73.859375</ele>
        <time>2015-05-13T13:13:39Z</time>
      </trkpt>
      <trkpt lat="45.24483" lon="-0.01778">
        <ele>73.6875</ele>
        <time>2015-05-13T13:13:54Z</time>
      </trkpt>
      <trkpt lat="45.2448" lon="-0.01771">
        <ele>73.23046875</ele>
        <time>2015-05-13T13:14:01Z</time>
      </trkpt>
      <trkpt lat="45.24478" lon="-0.01764">
        <ele>72.80859375</ele>
        <time>2015-05-13T13:14:07Z</time>
      </trkpt>
      <trkpt lat="45.24477" lon="-0.01761">
        <ele>72.5859375</ele>
        <time>2015-05-13T13:14:09Z</time>
      </trkpt>
      <trkpt lat="45.24471" lon="-0.01737">
        <ele>71.1484375</ele>
        <time>2015-05-13T13:14:15Z</time>
      </trkpt>
      <trkpt lat="45.24467" lon="-0.01725">
        <ele>70.3203125</ele>
        <time>2015-05-13T13:14:17Z</time>
      </trkpt>
      <trkpt lat="45.24464" lon="-0.01719">
        <ele>69.86328125</ele>
        <time>2015-05-13T13:14:18Z</time>
      </trkpt>
      <trkpt lat="45.24457" lon="-0.01706">
        <ele>68.921875</ele>
        <time>2015-05-13T13:14:21Z</time>
      </trkpt>
      <trkpt lat="45.24454" lon="-0.01706">
        <ele>68.81640625</ele>
        <time>2015-05-13T13:14:22Z</time>
      </trkpt>
      <trkpt lat="45.24451" lon="-0.01708">
        <ele>68.796875</ele>
        <time>2015-05-13T13:14:23Z</time>
      </trkpt>
      <trkpt lat="45.24449" lon="-0.01709">
        <ele>68.80859375</ele>
        <time>2015-05-13T13:14:24Z</time>
      </trkpt>
      <trkpt lat="45.24446" lon="-0.01712">
        <ele>68.84375</ele>
        <time>2015-05-13T13:14:25Z</time>
      </trkpt>
      <trkpt lat="45.24427" lon="-0.01727">
        <ele>68.83203125</ele>
        <time>2015-05-13T13:14:31Z</time>
      </trkpt>
      <trkpt lat="45.24404" lon="-0.01744">
        <ele>68.61328125</ele>
        <time>2015-05-13T13:14:38Z</time>
      </trkpt>
      <trkpt lat="45.2438" lon="-0.0176">
        <ele>68.33203125</ele>
        <time>2015-05-13T13:14:46Z</time>
      </trkpt>
      <trkpt lat="45.24373" lon="-0.01765">
        <ele>68.2265625</ele>
        <time>2015-05-13T13:14:48Z</time>
      </trkpt>
      <trkpt lat="45.24369" lon="-0.01768">
        <ele>68.2265625</ele>
        <time>2015-05-13T13:14:49Z</time>
      </trkpt>
      <trkpt lat="45.24362" lon="-0.01776">
        <ele>68.2421875</ele>
        <time>2015-05-13T13:14:51Z</time>
      </trkpt>
      <trkpt lat="45.24323" lon="-0.0181">
        <ele>68.43359375</ele>
        <time>2015-05-13T13:15:00Z</time>
      </trkpt>
      <trkpt lat="45.24288" lon="-0.01838">
        <ele>69.015625</ele>
        <time>2015-05-13T13:15:08Z</time>
      </trkpt>
      <trkpt lat="45.24265" lon="-0.01858">
        <ele>69.30859375</ele>
        <time>2015-05-13T13:15:16Z</time>
      </trkpt>
      <trkpt lat="45.24246" lon="-0.01881">
        <ele>69.79296875</ele>
        <time>2015-05-13T13:15:23Z</time>
      </trkpt>
      <trkpt lat="45.24234" lon="-0.01911">
        <ele>70.83203125</ele>
        <time>2015-05-13T13:15:30Z</time>
      </trkpt>
      <trkpt lat="45.24227" lon="-0.01927">
        <ele>71.421875</ele>
        <time>2015-05-13T13:15:35Z</time>
      </trkpt>
      <trkpt lat="45.24226" lon="-0.01929">
        <ele>71.46875</ele>
        <time>2015-05-13T13:15:36Z</time>
      </trkpt>
      <trkpt lat="45.24226" lon="-0.01929">
        <ele>71.4921875</ele>
        <time>2015-05-13T13:15:43Z</time>
      </trkpt>
      <trkpt lat="45.24225" lon="-0.01929">
        <ele>71.5</ele>
        <time>2015-05-13T13:15:47Z</time>
      </trkpt>
      <trkpt lat="45.24223" lon="-0.01929">
        <ele>71.49609375</ele>
        <time>2015-05-13T13:15:48Z</time>
      </trkpt>
      <trkpt lat="45.24221" lon="-0.01929">
        <ele>71.4921875</ele>
        <time>2015-05-13T13:15:49Z</time>
      </trkpt>
      <trkpt lat="45.24218" lon="-0.0193">
        <ele>71.51953125</ele>
        <time>2015-05-13T13:15:50Z</time>
      </trkpt>
      <trkpt lat="45.24215" lon="-0.01932">
        <ele>71.5859375</ele>
        <time>2015-05-13T13:15:51Z</time>
      </trkpt>
      <trkpt lat="45.24212" lon="-0.01934">
        <ele>71.6796875</ele>
        <time>2015-05-13T13:15:52Z</time>
      </trkpt>
      <trkpt lat="45.24208" lon="-0.01938">
        <ele>71.8046875</ele>
        <time>2015-05-13T13:15:53Z</time>
      </trkpt>
      <trkpt lat="45.24201" lon="-0.01945">
        <ele>72.08984375</ele>
        <time>2015-05-13T13:15:55Z</time>
      </trkpt>
      <trkpt lat="45.24193" lon="-0.01954">
        <ele>72.578125</ele>
        <time>2015-05-13T13:15:57Z</time>
      </trkpt>
      <trkpt lat="45.24189" lon="-0.01958">
        <ele>72.7890625</ele>
        <time>2015-05-13T13:15:58Z</time>
      </trkpt>
      <trkpt lat="45.24164" lon="-0.01996">
        <ele>73.15625</ele>
        <time>2015-05-13T13:16:06Z</time>
      </trkpt>
      <trkpt lat="45.24157" lon="-0.02006">
        <ele>72.9296875</ele>
        <time>2015-05-13T13:16:08Z</time>
      </trkpt>
      <trkpt lat="45.24152" lon="-0.02017">
        <ele>72.7578125</ele>
        <time>2015-05-13T13:16:10Z</time>
      </trkpt>
      <trkpt lat="45.2415" lon="-0.02023">
        <ele>72.73828125</ele>
        <time>2015-05-13T13:16:11Z</time>
      </trkpt>
      <trkpt lat="45.24149" lon="-0.02029">
        <ele>72.75</ele>
        <time>2015-05-13T13:16:12Z</time>
      </trkpt>
      <trkpt lat="45.24148" lon="-0.02035">
        <ele>72.78515625</ele>
        <time>2015-05-13T13:16:13Z</time>
      </trkpt>
      <trkpt lat="45.24147" lon="-0.02042">
        <ele>72.84765625</ele>
        <time>2015-05-13T13:16:14Z</time>
      </trkpt>
      <trkpt lat="45.24147" lon="-0.02048">
        <ele>72.93359375</ele>
        <time>2015-05-13T13:16:15Z</time>
      </trkpt>
      <trkpt lat="45.24147" lon="-0.02054">
        <ele>73.046875</ele>
        <time>2015-05-13T13:16:16Z</time>
      </trkpt>
      <trkpt lat="45.24147" lon="-0.0206">
        <ele>73.1328125</ele>
        <time>2015-05-13T13:16:17Z</time>
      </trkpt>
      <trkpt lat="45.24148" lon="-0.02067">
        <ele>73.26953125</ele>
        <time>2015-05-13T13:16:18Z</time>
      </trkpt>
      <trkpt lat="45.2415" lon="-0.02072">
        <ele>73.47265625</ele>
        <time>2015-05-13T13:16:19Z</time>
      </trkpt>
      <trkpt lat="45.24153" lon="-0.02077">
        <ele>73.76953125</ele>
        <time>2015-05-13T13:16:20Z</time>
      </trkpt>
      <trkpt lat="45.24156" lon="-0.02082">
        <ele>74.08984375</ele>
        <time>2015-05-13T13:16:21Z</time>
      </trkpt>
      <trkpt lat="45.24174" lon="-0.02119">
        <ele>76.3828125</ele>
        <time>2015-05-13T13:16:28Z</time>
      </trkpt>
      <trkpt lat="45.24178" lon="-0.02129">
        <ele>76.859375</ele>
        <time>2015-05-13T13:16:30Z</time>
      </trkpt>
      <trkpt lat="45.2418" lon="-0.02134">
        <ele>77.06640625</ele>
        <time>2015-05-13T13:16:31Z</time>
      </trkpt>
      <trkpt lat="45.24194" lon="-0.02179">
        <ele>78.18359375</ele>
        <time>2015-05-13T13:16:38Z</time>
      </trkpt>
      <trkpt lat="45.24198" lon="-0.02192">
        <ele>78.21875</ele>
        <time>2015-05-13T13:16:40Z</time>
      </trkpt>
      <trkpt lat="45.24199" lon="-0.02199">
        <ele>78.19921875</ele>
        <time>2015-05-13T13:16:41Z</time>
      </trkpt>
      <trkpt lat="45.242" lon="-0.02206">
        <ele>78.15234375</ele>
        <time>2015-05-13T13:16:42Z</time>
      </trkpt>
      <trkpt lat="45.24202" lon="-0.02251">
        <ele>77.48046875</ele>
        <time>2015-05-13T13:16:49Z</time>
      </trkpt>
      <trkpt lat="45.24202" lon="-0.02257">
        <ele>77.41015625</ele>
        <time>2015-05-13T13:16:50Z</time>
      </trkpt>
      <trkpt lat="45.24203" lon="-0.02292">
        <ele>77.18359375</ele>
        <time>2015-05-13T13:16:55Z</time>
      </trkpt>
      <trkpt lat="45.242" lon="-0.02323">
        <ele>76.7734375</ele>
        <time>2015-05-13T13:16:59Z</time>
      </trkpt>
      <trkpt lat="45.24195" lon="-0.02367">
        <ele>76.60546875</ele>
        <time>2015-05-13T13:17:05Z</time>
      </trkpt>
      <trkpt lat="45.24195" lon="-0.02381">
        <ele>76.96875</ele>
        <time>2015-05-13T13:17:07Z</time>
      </trkpt>
      <trkpt lat="45.24198" lon="-0.02401">
        <ele>77.609375</ele>
        <time>2015-05-13T13:17:10Z</time>
      </trkpt>
      <trkpt lat="45.24201" lon="-0.02425">
        <ele>78.41796875</ele>
        <time>2015-05-13T13:17:14Z</time>
      </trkpt>
      <trkpt lat="45.24201" lon="-0.02432">
        <ele>78.47265625</ele>
        <time>2015-05-13T13:17:15Z</time>
      </trkpt>
      <trkpt lat="45.242" lon="-0.02439">
        <ele>78.453125</ele>
        <time>2015-05-13T13:17:16Z</time>
      </trkpt>
      <trkpt lat="45.24198" lon="-0.02446">
        <ele>78.37109375</ele>
        <time>2015-05-13T13:17:17Z</time>
      </trkpt>
      <trkpt lat="45.24196" lon="-0.02452">
        <ele>78.265625</ele>
        <time>2015-05-13T13:17:18Z</time>
      </trkpt>
      <trkpt lat="45.24192" lon="-0.02457">
        <ele>78.05859375</ele>
        <time>2015-05-13T13:17:19Z</time>
      </trkpt>
      <trkpt lat="45.24189" lon="-0.02462">
        <ele>77.7578125</ele>
        <time>2015-05-13T13:17:20Z</time>
      </trkpt>
      <trkpt lat="45.24184" lon="-0.02466">
        <ele>77.65625</ele>
        <time>2015-05-13T13:17:21Z</time>
      </trkpt>
      <trkpt lat="45.2418" lon="-0.02469">
        <ele>77.57421875</ele>
        <time>2015-05-13T13:17:22Z</time>
      </trkpt>
      <trkpt lat="45.24176" lon="-0.02471">
        <ele>77.4609375</ele>
        <time>2015-05-13T13:17:23Z</time>
      </trkpt>
      <trkpt lat="45.24172" lon="-0.02473">
        <ele>77.31640625</ele>
        <time>2015-05-13T13:17:24Z</time>
      </trkpt>
      <trkpt lat="45.24167" lon="-0.02473">
        <ele>77.1484375</ele>
        <time>2015-05-13T13:17:25Z</time>
      </trkpt>
      <trkpt lat="45.24163" lon="-0.02473">
        <ele>76.953125</ele>
        <time>2015-05-13T13:17:26Z</time>
      </trkpt>
      <trkpt lat="45.2416" lon="-0.02472">
        <ele>76.7578125</ele>
        <time>2015-05-13T13:17:27Z</time>
      </trkpt>
      <trkpt lat="45.24157" lon="-0.0247">
        <ele>76.58984375</ele>
        <time>2015-05-13T13:17:28Z</time>
      </trkpt>
      <trkpt lat="45.24155" lon="-0.02468">
        <ele>76.4140625</ele>
        <time>2015-05-13T13:17:29Z</time>
      </trkpt>
      <trkpt lat="45.24143" lon="-0.02441">
        <ele>75.3203125</ele>
        <time>2015-05-13T13:17:35Z</time>
      </trkpt>
      <trkpt lat="45.24125" lon="-0.02387">
        <ele>73.54296875</ele>
        <time>2015-05-13T13:17:44Z</time>
      </trkpt>
      <trkpt lat="45.24122" lon="-0.0238">
        <ele>73.47265625</ele>
        <time>2015-05-13T13:17:45Z</time>
      </trkpt>
      <trkpt lat="45.24119" lon="-0.02374">
        <ele>73.44140625</ele>
        <time>2015-05-13T13:17:46Z</time>
      </trkpt>
      <trkpt lat="45.24096" lon="-0.02333">
        <ele>73.01953125</ele>
        <time>2015-05-13T13:17:53Z</time>
      </trkpt>
      <trkpt lat="45.24093" lon="-0.02327">
        <ele>72.94140625</ele>
        <time>2015-05-13T13:17:54Z</time>
      </trkpt>
      <trkpt lat="45.2409" lon="-0.02322">
        <ele>72.859375</ele>
        <time>2015-05-13T13:17:55Z</time>
      </trkpt>
      <trkpt lat="45.24087" lon="-0.02317">
        <ele>72.73828125</ele>
        <time>2015-05-13T13:17:56Z</time>
      </trkpt>
      <trkpt lat="45.24058" lon="-0.02257">
        <ele>71.4140625</ele>
        <time>2015-05-13T13:18:06Z</time>
      </trkpt>
      <trkpt lat="45.24053" lon="-0.02243">
        <ele>71.00390625</ele>
        <time>2015-05-13T13:18:08Z</time>
      </trkpt>
      <trkpt lat="45.2405" lon="-0.02237">
        <ele>70.84765625</ele>
        <time>2015-05-13T13:18:09Z</time>
      </trkpt>
      <trkpt lat="45.24046" lon="-0.02233">
        <ele>70.82421875</ele>
        <time>2015-05-13T13:18:10Z</time>
      </trkpt>
      <trkpt lat="45.24041" lon="-0.02232">
        <ele>70.95703125</ele>
        <time>2015-05-13T13:18:11Z</time>
      </trkpt>
      <trkpt lat="45.24037" lon="-0.02234">
        <ele>71.2421875</ele>
        <time>2015-05-13T13:18:12Z</time>
      </trkpt>
      <trkpt lat="45.24033" lon="-0.02236">
        <ele>71.5546875</ele>
        <time>2015-05-13T13:18:13Z</time>
      </trkpt>
      <trkpt lat="45.24029" lon="-0.02238">
        <ele>71.8671875</ele>
        <time>2015-05-13T13:18:14Z</time>
      </trkpt>
      <trkpt lat="45.24025" lon="-0.02241">
        <ele>72.2265625</ele>
        <time>2015-05-13T13:18:15Z</time>
      </trkpt>
      <trkpt lat="45.24021" lon="-0.02243">
        <ele>72.62109375</ele>
        <time>2015-05-13T13:18:16Z</time>
      </trkpt>
      <trkpt lat="45.24013" lon="-0.0225">
        <ele>73.125</ele>
        <time>2015-05-13T13:18:18Z</time>
      </trkpt>
      <trkpt lat="45.24004" lon="-0.02259">
        <ele>73.88671875</ele>
        <time>2015-05-13T13:18:20Z</time>
      </trkpt>
      <trkpt lat="45.23997" lon="-0.0227">
        <ele>74.84765625</ele>
        <time>2015-05-13T13:18:22Z</time>
      </trkpt>
      <trkpt lat="45.23994" lon="-0.02276">
        <ele>75.4296875</ele>
        <time>2015-05-13T13:18:23Z</time>
      </trkpt>
      <trkpt lat="45.2399" lon="-0.02281">
        <ele>75.90625</ele>
        <time>2015-05-13T13:18:24Z</time>
      </trkpt>
      <trkpt lat="45.23986" lon="-0.02285">
        <ele>76.28515625</ele>
        <time>2015-05-13T13:18:25Z</time>
      </trkpt>
      <trkpt lat="45.23981" lon="-0.02287">
        <ele>76.51953125</ele>
        <time>2015-05-13T13:18:26Z</time>
      </trkpt>
      <trkpt lat="45.23976" lon="-0.02287">
        <ele>76.55859375</ele>
        <time>2015-05-13T13:18:27Z</time>
      </trkpt>
      <trkpt lat="45.23972" lon="-0.02284">
        <ele>76.44921875</ele>
        <time>2015-05-13T13:18:28Z</time>
      </trkpt>
      <trkpt lat="45.23968" lon="-0.02281">
        <ele>76.27734375</ele>
        <time>2015-05-13T13:18:29Z</time>
      </trkpt>
      <trkpt lat="45.23958" lon="-0.02275">
        <ele>75.3203125</ele>
        <time>2015-05-13T13:18:31Z</time>
      </trkpt>
      <trkpt lat="45.23953" lon="-0.02275">
        <ele>75.015625</ele>
        <time>2015-05-13T13:18:32Z</time>
      </trkpt>
      <trkpt lat="45.23949" lon="-0.02279">
        <ele>74.95703125</ele>
        <time>2015-05-13T13:18:33Z</time>
      </trkpt>
      <trkpt lat="45.23946" lon="-0.02282">
        <ele>74.98046875</ele>
        <time>2015-05-13T13:18:34Z</time>
      </trkpt>
      <trkpt lat="45.23942" lon="-0.02286">
        <ele>75.01171875</ele>
        <time>2015-05-13T13:18:35Z</time>
      </trkpt>
      <trkpt lat="45.23939" lon="-0.02291">
        <ele>75.0546875</ele>
        <time>2015-05-13T13:18:36Z</time>
      </trkpt>
      <trkpt lat="45.23935" lon="-0.02296">
        <ele>75.1484375</ele>
        <time>2015-05-13T13:18:37Z</time>
      </trkpt>
      <trkpt lat="45.23928" lon="-0.02307">
        <ele>75.45703125</ele>
        <time>2015-05-13T13:18:39Z</time>
      </trkpt>
      <trkpt lat="45.23925" lon="-0.02313">
        <ele>75.6953125</ele>
        <time>2015-05-13T13:18:40Z</time>
      </trkpt>
      <trkpt lat="45.23923" lon="-0.02319">
        <ele>76</ele>
        <time>2015-05-13T13:18:41Z</time>
      </trkpt>
      <trkpt lat="45.23912" lon="-0.02352">
        <ele>76.87109375</ele>
        <time>2015-05-13T13:18:46Z</time>
      </trkpt>
      <trkpt lat="45.23909" lon="-0.02358">
        <ele>76.86328125</ele>
        <time>2015-05-13T13:18:47Z</time>
      </trkpt>
      <trkpt lat="45.23905" lon="-0.02364">
        <ele>76.82421875</ele>
        <time>2015-05-13T13:18:48Z</time>
      </trkpt>
      <trkpt lat="45.23869" lon="-0.0241">
        <ele>76.34375</ele>
        <time>2015-05-13T13:18:57Z</time>
      </trkpt>
      <trkpt lat="45.23858" lon="-0.02422">
        <ele>76.09375</ele>
        <time>2015-05-13T13:19:00Z</time>
      </trkpt>
      <trkpt lat="45.23853" lon="-0.02423">
        <ele>75.9375</ele>
        <time>2015-05-13T13:19:01Z</time>
      </trkpt>
      <trkpt lat="45.23849" lon="-0.02421">
        <ele>75.9609375</ele>
        <time>2015-05-13T13:19:02Z</time>
      </trkpt>
      <trkpt lat="45.23845" lon="-0.02417">
        <ele>75.92578125</ele>
        <time>2015-05-13T13:19:03Z</time>
      </trkpt>
      <trkpt lat="45.23842" lon="-0.02412">
        <ele>75.83984375</ele>
        <time>2015-05-13T13:19:04Z</time>
      </trkpt>
      <trkpt lat="45.2384" lon="-0.02407">
        <ele>75.734375</ele>
        <time>2015-05-13T13:19:05Z</time>
      </trkpt>
      <trkpt lat="45.23839" lon="-0.02402">
        <ele>75.625</ele>
        <time>2015-05-13T13:19:06Z</time>
      </trkpt>
      <trkpt lat="45.23839" lon="-0.02397">
        <ele>75.44921875</ele>
        <time>2015-05-13T13:19:07Z</time>
      </trkpt>
      <trkpt lat="45.2384" lon="-0.02392">
        <ele>75.1953125</ele>
        <time>2015-05-13T13:19:08Z</time>
      </trkpt>
      <trkpt lat="45.23842" lon="-0.02387">
        <ele>74.90234375</ele>
        <time>2015-05-13T13:19:09Z</time>
      </trkpt>
      <trkpt lat="45.23845" lon="-0.02381">
        <ele>74.6484375</ele>
        <time>2015-05-13T13:19:10Z</time>
      </trkpt>
      <trkpt lat="45.23848" lon="-0.02376">
        <ele>74.3515625</ele>
        <time>2015-05-13T13:19:11Z</time>
      </trkpt>
      <trkpt lat="45.23851" lon="-0.0237">
        <ele>74</ele>
        <time>2015-05-13T13:19:12Z</time>
      </trkpt>
      <trkpt lat="45.23854" lon="-0.02365">
        <ele>73.6875</ele>
        <time>2015-05-13T13:19:13Z</time>
      </trkpt>
      <trkpt lat="45.23856" lon="-0.02358">
        <ele>73.54296875</ele>
        <time>2015-05-13T13:19:14Z</time>
      </trkpt>
      <trkpt lat="45.23859" lon="-0.02345">
        <ele>73.4921875</ele>
        <time>2015-05-13T13:19:16Z</time>
      </trkpt>
      <trkpt lat="45.23861" lon="-0.02338">
        <ele>73.453125</ele>
        <time>2015-05-13T13:19:17Z</time>
      </trkpt>
      <trkpt lat="45.23863" lon="-0.02325">
        <ele>73.3671875</ele>
        <time>2015-05-13T13:19:19Z</time>
      </trkpt>
      <trkpt lat="45.23868" lon="-0.02267">
        <ele>72.40234375</ele>
        <time>2015-05-13T13:19:27Z</time>
      </trkpt>
      <trkpt lat="45.2387" lon="-0.02255">
        <ele>71.828125</ele>
        <time>2015-05-13T13:19:29Z</time>
      </trkpt>
      <trkpt lat="45.23872" lon="-0.02248">
        <ele>71.515625</ele>
        <time>2015-05-13T13:19:30Z</time>
      </trkpt>
      <trkpt lat="45.23877" lon="-0.0223">
        <ele>70.60546875</ele>
        <time>2015-05-13T13:19:33Z</time>
      </trkpt>
      <trkpt lat="45.23877" lon="-0.02223">
        <ele>70.31640625</ele>
        <time>2015-05-13T13:19:34Z</time>
      </trkpt>
      <trkpt lat="45.23875" lon="-0.02217">
        <ele>70.31640625</ele>
        <time>2015-05-13T13:19:35Z</time>
      </trkpt>
      <trkpt lat="45.23872" lon="-0.02213">
        <ele>70.4765625</ele>
        <time>2015-05-13T13:19:36Z</time>
      </trkpt>
      <trkpt lat="45.23868" lon="-0.0221">
        <ele>70.65625</ele>
        <time>2015-05-13T13:19:37Z</time>
      </trkpt>
      <trkpt lat="45.23865" lon="-0.02209">
        <ele>70.828125</ele>
        <time>2015-05-13T13:19:38Z</time>
      </trkpt>
      <trkpt lat="45.2386" lon="-0.02208">
        <ele>71.015625</ele>
        <time>2015-05-13T13:19:39Z</time>
      </trkpt>
      <trkpt lat="45.23856" lon="-0.02208">
        <ele>71.20703125</ele>
        <time>2015-05-13T13:19:40Z</time>
      </trkpt>
      <trkpt lat="45.23845" lon="-0.02209">
        <ele>71.7265625</ele>
        <time>2015-05-13T13:19:42Z</time>
      </trkpt>
      <trkpt lat="45.23841" lon="-0.02211">
        <ele>71.9296875</ele>
        <time>2015-05-13T13:19:43Z</time>
      </trkpt>
      <trkpt lat="45.23837" lon="-0.02215">
        <ele>72.08203125</ele>
        <time>2015-05-13T13:19:44Z</time>
      </trkpt>
      <trkpt lat="45.23834" lon="-0.02217">
        <ele>72.21484375</ele>
        <time>2015-05-13T13:19:45Z</time>
      </trkpt>
      <trkpt lat="45.2383" lon="-0.02218">
        <ele>72.38671875</ele>
        <time>2015-05-13T13:19:46Z</time>
      </trkpt>
      <trkpt lat="45.23826" lon="-0.02218">
        <ele>72.59765625</ele>
        <time>2015-05-13T13:19:47Z</time>
      </trkpt>
      <trkpt lat="45.23822" lon="-0.02216">
        <ele>72.83984375</ele>
        <time>2015-05-13T13:19:48Z</time>
      </trkpt>
      <trkpt lat="45.23818" lon="-0.02215">
        <ele>73.09375</ele>
        <time>2015-05-13T13:19:49Z</time>
      </trkpt>
      <trkpt lat="45.23813" lon="-0.02214">
        <ele>73.3671875</ele>
        <time>2015-05-13T13:19:50Z</time>
      </trkpt>
      <trkpt lat="45.23809" lon="-0.02213">
        <ele>73.6484375</ele>
        <time>2015-05-13T13:19:51Z</time>
      </trkpt>
      <trkpt lat="45.23781" lon="-0.02207">
        <ele>74.828125</ele>
        <time>2015-05-13T13:19:57Z</time>
      </trkpt>
      <trkpt lat="45.23777" lon="-0.02205">
        <ele>74.984375</ele>
        <time>2015-05-13T13:19:58Z</time>
      </trkpt>
      <trkpt lat="45.23763" lon="-0.02197">
        <ele>75.44921875</ele>
        <time>2015-05-13T13:20:01Z</time>
      </trkpt>
      <trkpt lat="45.23759" lon="-0.02194">
        <ele>75.58203125</ele>
        <time>2015-05-13T13:20:02Z</time>
      </trkpt>
      <trkpt lat="45.23755" lon="-0.0219">
        <ele>75.71484375</ele>
        <time>2015-05-13T13:20:03Z</time>
      </trkpt>
      <trkpt lat="45.23749" lon="-0.02187">
        <ele>75.86328125</ele>
        <time>2015-05-13T13:20:04Z</time>
      </trkpt>
      <trkpt lat="45.23744" lon="-0.02185">
        <ele>76</ele>
        <time>2015-05-13T13:20:05Z</time>
      </trkpt>
      <trkpt lat="45.23738" lon="-0.02184">
        <ele>76</ele>
        <time>2015-05-13T13:20:06Z</time>
      </trkpt>
      <trkpt lat="45.23734" lon="-0.02182">
        <ele>76</ele>
        <time>2015-05-13T13:20:07Z</time>
      </trkpt>
      <trkpt lat="45.23732" lon="-0.02163">
        <ele>76.16015625</ele>
        <time>2015-05-13T13:20:11Z</time>
      </trkpt>
      <trkpt lat="45.23734" lon="-0.0216">
        <ele>76.4375</ele>
        <time>2015-05-13T13:20:13Z</time>
      </trkpt>
      <trkpt lat="45.23737" lon="-0.02159">
        <ele>76.4453125</ele>
        <time>2015-05-13T13:20:14Z</time>
      </trkpt>
      <trkpt lat="45.23739" lon="-0.0216">
        <ele>76.4296875</ele>
        <time>2015-05-13T13:20:15Z</time>
      </trkpt>
      <trkpt lat="45.23764" lon="-0.02157">
        <ele>76.16796875</ele>
        <time>2015-05-13T13:20:22Z</time>
      </trkpt>
      <trkpt lat="45.23777" lon="-0.02155">
        <ele>76.05859375</ele>
        <time>2015-05-13T13:20:25Z</time>
      </trkpt>
      <trkpt lat="45.23812" lon="-0.02144">
        <ele>75.5859375</ele>
        <time>2015-05-13T13:20:33Z</time>
      </trkpt>
      <trkpt lat="45.23835" lon="-0.02137">
        <ele>74.94140625</ele>
        <time>2015-05-13T13:20:38Z</time>
      </trkpt>
      <trkpt lat="45.23839" lon="-0.02135">
        <ele>74.88671875</ele>
        <time>2015-05-13T13:20:39Z</time>
      </trkpt>
      <trkpt lat="45.23843" lon="-0.02133">
        <ele>74.8125</ele>
        <time>2015-05-13T13:20:40Z</time>
      </trkpt>
      <trkpt lat="45.23875" lon="-0.02121">
        <ele>73.51953125</ele>
        <time>2015-05-13T13:20:47Z</time>
      </trkpt>
      <trkpt lat="45.23893" lon="-0.02115">
        <ele>72.33984375</ele>
        <time>2015-05-13T13:20:51Z</time>
      </trkpt>
      <trkpt lat="45.2391" lon="-0.02111">
        <ele>70.98828125</ele>
        <time>2015-05-13T13:20:55Z</time>
      </trkpt>
      <trkpt lat="45.23914" lon="-0.02109">
        <ele>70.7265625</ele>
        <time>2015-05-13T13:20:56Z</time>
      </trkpt>
      <trkpt lat="45.23919" lon="-0.02106">
        <ele>70.49609375</ele>
        <time>2015-05-13T13:20:57Z</time>
      </trkpt>
      <trkpt lat="45.23922" lon="-0.02102">
        <ele>70.3359375</ele>
        <time>2015-05-13T13:20:58Z</time>
      </trkpt>
      <trkpt lat="45.23925" lon="-0.02097">
        <ele>70.265625</ele>
        <time>2015-05-13T13:20:59Z</time>
      </trkpt>
      <trkpt lat="45.23927" lon="-0.02092">
        <ele>70.31640625</ele>
        <time>2015-05-13T13:21:00Z</time>
      </trkpt>
      <trkpt lat="45.23927" lon="-0.02085">
        <ele>70.4921875</ele>
        <time>2015-05-13T13:21:01Z</time>
      </trkpt>
      <trkpt lat="45.23926" lon="-0.0208">
        <ele>70.734375</ele>
        <time>2015-05-13T13:21:02Z</time>
      </trkpt>
      <trkpt lat="45.23924" lon="-0.02074">
        <ele>70.99609375</ele>
        <time>2015-05-13T13:21:03Z</time>
      </trkpt>
      <trkpt lat="45.23922" lon="-0.02069">
        <ele>71.22265625</ele>
        <time>2015-05-13T13:21:04Z</time>
      </trkpt>
      <trkpt lat="45.23918" lon="-0.02059">
        <ele>71.61328125</ele>
      </trkpt>
      <trkpt lat="45.23915" lon="-0.02055">
        <ele>71.8203125</ele>
      </trkpt>
      <trkpt lat="45.23911" lon="-0.0205">
        <ele>72.23046875</ele>
      </trkpt>
      <trkpt lat="45.2391" lon="-0.02041">
        <ele>72.73046875</ele>
      </trkpt>
      <trkpt lat="45.2391" lon="-0.02034">
        <ele>73.16015625</ele>
      </trkpt>
      <trkpt lat="45.2391" lon="-0.02027">
        <ele>73.5390625</ele>
      </trkpt>
      <trkpt lat="45.23911" lon="-0.02017">
        <ele>73.99609375</ele>
        <time>2015-05-13T13:21:16Z</time>
      </trkpt>
      <trkpt lat="45.23913" lon="-0.02014">
        <ele>74.078125</ele>
        <time>2015-05-13T13:29:10Z</time>
      </trkpt>
      <trkpt lat="45.23916" lon="-0.02009">
        <ele>74.25390625</ele>
        <time>2015-05-13T13:29:11Z</time>
      </trkpt>
      <trkpt lat="45.23919" lon="-0.02004">
        <ele>74.38671875</ele>
        <time>2015-05-13T13:29:12Z</time>
      </trkpt>
      <trkpt lat="45.23922" lon="-0.02">
        <ele>74.515625</ele>
        <time>2015-05-13T13:29:13Z</time>
      </trkpt>
      <trkpt lat="45.23929" lon="-0.01992">
        <ele>74.609375</ele>
        <time>2015-05-13T13:29:15Z</time>
      </trkpt>
      <trkpt lat="45.23933" lon="-0.0199">
        <ele>74.53515625</ele>
        <time>2015-05-13T13:29:16Z</time>
      </trkpt>
      <trkpt lat="45.23936" lon="-0.0199">
        <ele>74.37109375</ele>
        <time>2015-05-13T13:29:17Z</time>
      </trkpt>
      <trkpt lat="45.23941" lon="-0.01993">
        <ele>74.125</ele>
        <time>2015-05-13T13:29:18Z</time>
      </trkpt>
      <trkpt lat="45.23945" lon="-0.01995">
        <ele>73.875</ele>
        <time>2015-05-13T13:29:19Z</time>
      </trkpt>
      <trkpt lat="45.23948" lon="-0.01998">
        <ele>73.6484375</ele>
        <time>2015-05-13T13:29:20Z</time>
      </trkpt>
      <trkpt lat="45.23952" lon="-0.02002">
        <ele>73.33203125</ele>
        <time>2015-05-13T13:29:21Z</time>
      </trkpt>
      <trkpt lat="45.23957" lon="-0.02005">
        <ele>72.99609375</ele>
        <time>2015-05-13T13:29:22Z</time>
      </trkpt>
      <trkpt lat="45.23962" lon="-0.02007">
        <ele>72.69140625</ele>
        <time>2015-05-13T13:29:23Z</time>
      </trkpt>
      <trkpt lat="45.23966" lon="-0.02008">
        <ele>72.48046875</ele>
        <time>2015-05-13T13:29:24Z</time>
      </trkpt>
      <trkpt lat="45.2397" lon="-0.02008">
        <ele>72.09375</ele>
        <time>2015-05-13T13:29:25Z</time>
      </trkpt>
      <trkpt lat="45.23973" lon="-0.02006">
        <ele>71.84375</ele>
        <time>2015-05-13T13:29:26Z</time>
      </trkpt>
      <trkpt lat="45.23976" lon="-0.02003">
        <ele>71.671875</ele>
        <time>2015-05-13T13:29:27Z</time>
      </trkpt>
      <trkpt lat="45.23979" lon="-0.01999">
        <ele>71.6015625</ele>
        <time>2015-05-13T13:29:28Z</time>
      </trkpt>
      <trkpt lat="45.23981" lon="-0.01995">
        <ele>71.4453125</ele>
        <time>2015-05-13T13:29:29Z</time>
      </trkpt>
      <trkpt lat="45.23982" lon="-0.0199">
        <ele>71.31640625</ele>
        <time>2015-05-13T13:29:30Z</time>
      </trkpt>
      <trkpt lat="45.23984" lon="-0.01985">
        <ele>71.19921875</ele>
        <time>2015-05-13T13:29:31Z</time>
      </trkpt>
      <trkpt lat="45.23985" lon="-0.01982">
        <ele>71.12890625</ele>
        <time>2015-05-13T13:29:32Z</time>
      </trkpt>
      <trkpt lat="45.23986" lon="-0.0198">
        <ele>71.0625</ele>
        <time>2015-05-13T13:29:37Z</time>
      </trkpt>
      <trkpt lat="45.23986" lon="-0.01978">
        <ele>71.01171875</ele>
        <time>2015-05-13T13:29:38Z</time>
      </trkpt>
      <trkpt lat="45.23987" lon="-0.01975">
        <ele>70.96484375</ele>
        <time>2015-05-13T13:29:39Z</time>
      </trkpt>
      <trkpt lat="45.23989" lon="-0.01969">
        <ele>70.796875</ele>
        <time>2015-05-13T13:29:40Z</time>
      </trkpt>
      <trkpt lat="45.23995" lon="-0.01949">
        <ele>70.27734375</ele>
        <time>2015-05-13T13:29:41Z</time>
      </trkpt>
      <trkpt lat="45.23998" lon="-0.01938">
        <ele>70.00390625</ele>
        <time>2015-05-13T13:29:42Z</time>
      </trkpt>
      <trkpt lat="45.23998" lon="-0.0193">
        <ele>69.9609375</ele>
        <time>2015-05-13T13:29:43Z</time>
      </trkpt>
      <trkpt lat="45.23999" lon="-0.01921">
        <ele>69.77734375</ele>
        <time>2015-05-13T13:29:44Z</time>
      </trkpt>
      <trkpt lat="45.23998" lon="-0.01914">
        <ele>69.984375</ele>
        <time>2015-05-13T13:29:46Z</time>
      </trkpt>
      <trkpt lat="45.23996" lon="-0.01905">
        <ele>70.25390625</ele>
        <time>2015-05-13T13:29:47Z</time>
      </trkpt>
      <trkpt lat="45.23992" lon="-0.01893">
        <ele>70.6640625</ele>
        <time>2015-05-13T13:29:50Z</time>
      </trkpt>
      <trkpt lat="45.23989" lon="-0.01885">
        <ele>71.23046875</ele>
        <time>2015-05-13T13:29:58Z</time>
      </trkpt>
      <trkpt lat="45.23982" lon="-0.01871">
        <ele>72.40625</ele>
        <time>2015-05-13T13:30:05Z</time>
      </trkpt>
      <trkpt lat="45.23977" lon="-0.01859">
        <ele>73.34375</ele>
        <time>2015-05-13T13:30:11Z</time>
      </trkpt>
      <trkpt lat="45.23973" lon="-0.01845">
        <ele>74.11328125</ele>
        <time>2015-05-13T13:30:18Z</time>
      </trkpt>
      <trkpt lat="45.2397" lon="-0.01834">
        <ele>74.59375</ele>
        <time>2015-05-13T13:30:26Z</time>
      </trkpt>
      <trkpt lat="45.2397" lon="-0.01829">
        <ele>74.98828125</ele>
        <time>2015-05-13T13:30:32Z</time>
      </trkpt>
      <trkpt lat="45.23971" lon="-0.01824">
        <ele>75.28515625</ele>
        <time>2015-05-13T13:30:35Z</time>
      </trkpt>
      <trkpt lat="45.23973" lon="-0.01819">
        <ele>75.55078125</ele>
        <time>2015-05-13T13:30:36Z</time>
      </trkpt>
      <trkpt lat="45.23976" lon="-0.01816">
        <ele>75.515625</ele>
        <time>2015-05-13T13:30:37Z</time>
      </trkpt>
      <trkpt lat="45.23982" lon="-0.01814">
        <ele>75.1875</ele>
        <time>2015-05-13T13:30:38Z</time>
      </trkpt>
      <trkpt lat="45.23989" lon="-0.01815">
        <ele>74.55859375</ele>
        <time>2015-05-13T13:30:39Z</time>
      </trkpt>
      <trkpt lat="45.23994" lon="-0.01815">
        <ele>74.015625</ele>
        <time>2015-05-13T13:30:47Z</time>
      </trkpt>
      <trkpt lat="45.24001" lon="-0.01814">
        <ele>73.44140625</ele>
        <time>2015-05-13T13:30:55Z</time>
      </trkpt>
      <trkpt lat="45.2401" lon="-0.01813">
        <ele>72.734375</ele>
        <time>2015-05-13T13:31:01Z</time>
      </trkpt>
      <trkpt lat="45.24018" lon="-0.01807">
        <ele>72.6328125</ele>
        <time>2015-05-13T13:31:04Z</time>
      </trkpt>
      <trkpt lat="45.24025" lon="-0.018">
        <ele>72.53125</ele>
      </trkpt>
      <trkpt lat="45.24029" lon="-0.01797">
        <ele>72.40625</ele>
      </trkpt>
      <trkpt lat="45.24033" lon="-0.0179">
        <ele>72.5859375</ele>
      </trkpt>
      <trkpt lat="45.24037" lon="-0.01784">
        <ele>72.69921875</ele>
      </trkpt>
      <trkpt lat="45.24044" lon="-0.01775">
        <ele>72.62109375</ele>
      </trkpt>
      <trkpt lat="45.24051" lon="-0.01768">
        <ele>72.3671875</ele>
      </trkpt>
      <trkpt lat="45.24056" lon="-0.01761">
        <ele>72.2734375</ele>
      </trkpt>
      <trkpt lat="45.24062" lon="-0.01754">
        <ele>72.15625</ele>
      </trkpt>
      <trkpt lat="45.24067" lon="-0.01747">
        <ele>72.0625</ele>
      </trkpt>
      <trkpt lat="45.24074" lon="-0.01738">
        <ele>72.03515625</ele>
      </trkpt>
      <trkpt lat="45.24081" lon="-0.01729">
        <ele>71.9453125</ele>
      </trkpt>
      <trkpt lat="45.24086" lon="-0.01723">
        <ele>71.8046875</ele>
      </trkpt>
      <trkpt lat="45.24092" lon="-0.01718">
        <ele>71.484375</ele>
      </trkpt>
      <trkpt lat="45.24097" lon="-0.01712">
        <ele>71.03125</ele>
      </trkpt>
      <trkpt lat="45.24102" lon="-0.01706">
        <ele>70.671875</ele>
      </trkpt>
      <trkpt lat="45.24105" lon="-0.01702">
        <ele>70.51171875</ele>
      </trkpt>
      <trkpt lat="45.24106" lon="-0.01699">
        <ele>70.41796875</ele>
      </trkpt>
      <trkpt lat="45.24107" lon="-0.01693">
        <ele>70.50390625</ele>
      </trkpt>
      <trkpt lat="45.24107" lon="-0.01687">
        <ele>70.72265625</ele>
      </trkpt>
      <trkpt lat="45.24105" lon="-0.01683">
        <ele>70.97265625</ele>
      </trkpt>
      <trkpt lat="45.24104" lon="-0.01679">
        <ele>71.23828125</ele>
      </trkpt>
      <trkpt lat="45.24101" lon="-0.01676">
        <ele>71.54296875</ele>
      </trkpt>
      <trkpt lat="45.24099" lon="-0.01674">
        <ele>71.83203125</ele>
      </trkpt>
      <trkpt lat="45.24096" lon="-0.01673">
        <ele>72.10546875</ele>
      </trkpt>
      <trkpt lat="45.2409" lon="-0.01674">
        <ele>72.65234375</ele>
      </trkpt>
      <trkpt lat="45.24082" lon="-0.01677">
        <ele>73.33984375</ele>
      </trkpt>
      <trkpt lat="45.24073" lon="-0.01679">
        <ele>73.9296875</ele>
      </trkpt>
      <trkpt lat="45.24062" lon="-0.01682">
        <ele>74.484375</ele>
      </trkpt>
      <trkpt lat="45.24054" lon="-0.01685">
        <ele>74.91796875</ele>
      </trkpt>
      <trkpt lat="45.24045" lon="-0.01688">
        <ele>75.4609375</ele>
      </trkpt>
      <trkpt lat="45.24033" lon="-0.01693">
        <ele>76.27734375</ele>
      </trkpt>
      <trkpt lat="45.24024" lon="-0.01696">
        <ele>76.9296875</ele>
      </trkpt>
      <trkpt lat="45.24014" lon="-0.017">
        <ele>77.76171875</ele>
      </trkpt>
      <trkpt lat="45.24004" lon="-0.01702">
        <ele>78.63671875</ele>
      </trkpt>
      <trkpt lat="45.23994" lon="-0.01705">
        <ele>79.59765625</ele>
      </trkpt>
      <trkpt lat="45.23984" lon="-0.01709">
        <ele>80.62109375</ele>
      </trkpt>
      <trkpt lat="45.23977" lon="-0.01711">
        <ele>81.296875</ele>
      </trkpt>
      <trkpt lat="45.2397" lon="-0.01712">
        <ele>82.015625</ele>
      </trkpt>
      <trkpt lat="45.23964" lon="-0.01713">
        <ele>82.51171875</ele>
      </trkpt>
      <trkpt lat="45.23958" lon="-0.01714">
        <ele>82.984375</ele>
      </trkpt>
      <trkpt lat="45.23954" lon="-0.01713">
        <ele>83.24609375</ele>
      </trkpt>
      <trkpt lat="45.23951" lon="-0.01713">
        <ele>83.4609375</ele>
      </trkpt>
      <trkpt lat="45.23949" lon="-0.01713">
        <ele>83.6171875</ele>
      </trkpt>
      <trkpt lat="45.23944" lon="-0.01721">
        <ele>84.52734375</ele>
      </trkpt>
      <trkpt lat="45.2394" lon="-0.01729">
        <ele>84.4375</ele>
      </trkpt>
      <trkpt lat="45.23935" lon="-0.01737">
        <ele>84.33984375</ele>
        <time>2015-05-13T13:31:07Z</time>
      </trkpt>
      <trkpt lat="45.2393" lon="-0.01746">
        <ele>84.25</ele>
      </trkpt>
      <trkpt lat="45.23925" lon="-0.01754">
        <ele>84.13671875</ele>
      </trkpt>
      <trkpt lat="45.2392" lon="-0.01754">
        <ele>84.51171875</ele>
      </trkpt>
      <trkpt lat="45.23913" lon="-0.01755">
        <ele>84.98828125</ele>
      </trkpt>
      <trkpt lat="45.23908" lon="-0.01747">
        <ele>85.83203125</ele>
      </trkpt>
      <trkpt lat="45.23903" lon="-0.01741">
        <ele>86.39453125</ele>
      </trkpt>
      <trkpt lat="45.23899" lon="-0.01738">
        <ele>86.81640625</ele>
      </trkpt>
      <trkpt lat="45.23891" lon="-0.01729">
        <ele>87.71875</ele>
      </trkpt>
      <trkpt lat="45.23885" lon="-0.01721">
        <ele>88.38671875</ele>
      </trkpt>
      <trkpt lat="45.23875" lon="-0.01712">
        <ele>88.421875</ele>
      </trkpt>
      <trkpt lat="45.23867" lon="-0.01703">
        <ele>88.515625</ele>
      </trkpt>
      <trkpt lat="45.23861" lon="-0.01695">
        <ele>88.6328125</ele>
      </trkpt>
      <trkpt lat="45.23852" lon="-0.01685">
        <ele>88.84765625</ele>
      </trkpt>
      <trkpt lat="45.23843" lon="-0.01674">
        <ele>89.11328125</ele>
      </trkpt>
      <trkpt lat="45.23834" lon="-0.01665">
        <ele>89.4921875</ele>
      </trkpt>
      <trkpt lat="45.23824" lon="-0.01655">
        <ele>89.81640625</ele>
      </trkpt>
      <trkpt lat="45.23814" lon="-0.01644">
        <ele>90.359375</ele>
      </trkpt>
      <trkpt lat="45.23803" lon="-0.01632">
        <ele>91.078125</ele>
      </trkpt>
      <trkpt lat="45.23793" lon="-0.01623">
        <ele>91.5859375</ele>
      </trkpt>
      <trkpt lat="45.23786" lon="-0.01617">
        <ele>92.01171875</ele>
      </trkpt>
      <trkpt lat="45.2378" lon="-0.01613">
        <ele>92.359375</ele>
      </trkpt>
      <trkpt lat="45.23774" lon="-0.01608">
        <ele>92.80859375</ele>
      </trkpt>
      <trkpt lat="45.23766" lon="-0.01601">
        <ele>93.28125</ele>
      </trkpt>
      <trkpt lat="45.2376" lon="-0.01597">
        <ele>93.7265625</ele>
      </trkpt>
      <trkpt lat="45.23752" lon="-0.0159">
        <ele>94.31640625</ele>
      </trkpt>
      <trkpt lat="45.23746" lon="-0.01586">
        <ele>94.765625</ele>
      </trkpt>
      <trkpt lat="45.23739" lon="-0.0158">
        <ele>95.296875</ele>
      </trkpt>
      <trkpt lat="45.23733" lon="-0.01575">
        <ele>95.7890625</ele>
      </trkpt>
      <trkpt lat="45.23727" lon="-0.01569">
        <ele>96.3046875</ele>
      </trkpt>
      <trkpt lat="45.2372" lon="-0.01561">
        <ele>97.01171875</ele>
      </trkpt>
      <trkpt lat="45.23711" lon="-0.01555">
        <ele>97.91015625</ele>
      </trkpt>
      <trkpt lat="45.23704" lon="-0.01546">
        <ele>98.75</ele>
      </trkpt>
      <trkpt lat="45.23699" lon="-0.01539">
        <ele>99.35546875</ele>
      </trkpt>
      <trkpt lat="45.23692" lon="-0.01531">
        <ele>100.08203125</ele>
      </trkpt>
      <trkpt lat="45.23685" lon="-0.01522">
        <ele>100.859375</ele>
      </trkpt>
      <trkpt lat="45.23678" lon="-0.01514">
        <ele>101.58984375</ele>
      </trkpt>
      <trkpt lat="45.23672" lon="-0.01506">
        <ele>102.32421875</ele>
      </trkpt>
      <trkpt lat="45.23666" lon="-0.01498">
        <ele>103.0546875</ele>
      </trkpt>
      <trkpt lat="45.2366" lon="-0.01489">
        <ele>104</ele>
      </trkpt>
      <trkpt lat="45.23653" lon="-0.0148">
        <ele>104.98828125</ele>
      </trkpt>
      <trkpt lat="45.23648" lon="-0.01472">
        <ele>105.71484375</ele>
      </trkpt>
      <trkpt lat="45.23644" lon="-0.01465">
        <ele>106.38671875</ele>
      </trkpt>
      <trkpt lat="45.23639" lon="-0.01456">
        <ele>107.09765625</ele>
      </trkpt>
      <trkpt lat="45.23634" lon="-0.01446">
        <ele>107.79296875</ele>
      </trkpt>
      <trkpt lat="45.2363" lon="-0.01436">
        <ele>108.78125</ele>
      </trkpt>
      <trkpt lat="45.23627" lon="-0.0143">
        <ele>109.52734375</ele>
      </trkpt>
      <trkpt lat="45.23626" lon="-0.01426">
        <ele>109.953125</ele>
      </trkpt>
      <trkpt lat="45.23622" lon="-0.01419">
        <ele>110.84765625</ele>
        <time>2015-05-13T13:38:03Z</time>
      </trkpt>
      <trkpt lat="45.23615" lon="-0.01404">
        <ele>112.6484375</ele>
        <time>2015-05-13T13:38:11Z</time>
      </trkpt>
      <trkpt lat="45.23607" lon="-0.01387">
        <ele>114.875</ele>
        <time>2015-05-13T13:38:19Z</time>
      </trkpt>
      <trkpt lat="45.23594" lon="-0.01359">
        <ele>117.96875</ele>
        <time>2015-05-13T13:38:30Z</time>
      </trkpt>
      <trkpt lat="45.23585" lon="-0.01338">
        <ele>120.0234375</ele>
        <time>2015-05-13T13:38:38Z</time>
      </trkpt>
      <trkpt lat="45.23572" lon="-0.01312">
        <ele>122.79296875</ele>
        <time>2015-05-13T13:38:48Z</time>
      </trkpt>
      <trkpt lat="45.2356" lon="-0.01285">
        <ele>125.44921875</ele>
        <time>2015-05-13T13:38:57Z</time>
      </trkpt>
      <trkpt lat="45.23546" lon="-0.01255">
        <ele>127.2421875</ele>
        <time>2015-05-13T13:39:06Z</time>
      </trkpt>
      <trkpt lat="45.23528" lon="-0.01215">
        <ele>128.89453125</ele>
        <time>2015-05-13T13:39:16Z</time>
      </trkpt>
      <trkpt lat="45.23514" lon="-0.01185">
        <ele>129.5625</ele>
        <time>2015-05-13T13:39:23Z</time>
      </trkpt>
      <trkpt lat="45.23509" lon="-0.01175">
        <ele>129.6484375</ele>
        <time>2015-05-13T13:39:24Z</time>
      </trkpt>
      <trkpt lat="45.23496" lon="-0.01147">
        <ele>129.55078125</ele>
        <time>2015-05-13T13:39:32Z</time>
      </trkpt>
      <trkpt lat="45.23488" lon="-0.01132">
        <ele>129.265625</ele>
        <time>2015-05-13T13:39:34Z</time>
      </trkpt>
      <trkpt lat="45.23484" lon="-0.01123">
        <ele>129.04296875</ele>
        <time>2015-05-13T13:39:35Z</time>
      </trkpt>
      <trkpt lat="45.23479" lon="-0.01114">
        <ele>128.7421875</ele>
        <time>2015-05-13T13:39:36Z</time>
      </trkpt>
      <trkpt lat="45.23462" lon="-0.01077">
        <ele>125.9375</ele>
        <time>2015-05-13T13:39:44Z</time>
      </trkpt>
      <trkpt lat="45.23454" lon="-0.0106">
        <ele>124.43359375</ele>
        <time>2015-05-13T13:39:49Z</time>
      </trkpt>
      <trkpt lat="45.2345" lon="-0.01047">
        <ele>123.28125</ele>
      </trkpt>
      <trkpt lat="45.23446" lon="-0.01035">
        <ele>122.25390625</ele>
      </trkpt>
      <trkpt lat="45.23447" lon="-0.0103">
        <ele>121.984375</ele>
      </trkpt>
      <trkpt lat="45.23454" lon="-0.01022">
        <ele>122.0703125</ele>
      </trkpt>
      <trkpt lat="45.23464" lon="-0.01012">
        <ele>122.44140625</ele>
        <time>2015-05-13T13:41:36Z</time>
      </trkpt>
      <trkpt lat="45.23499" lon="-0.00974">
        <ele>124.203125</ele>
        <time>2015-05-13T13:41:45Z</time>
      </trkpt>
      <trkpt lat="45.23529" lon="-0.00942">
        <ele>125.17578125</ele>
        <time>2015-05-13T13:41:53Z</time>
      </trkpt>
      <trkpt lat="45.23531" lon="-0.00937">
        <ele>125.0625</ele>
        <time>2015-05-13T13:41:54Z</time>
      </trkpt>
      <trkpt lat="45.23532" lon="-0.00931">
        <ele>124.84375</ele>
        <time>2015-05-13T13:41:55Z</time>
      </trkpt>
      <trkpt lat="45.23531" lon="-0.00925">
        <ele>124.59375</ele>
        <time>2015-05-13T13:41:56Z</time>
      </trkpt>
      <trkpt lat="45.23529" lon="-0.00919">
        <ele>124.31640625</ele>
        <time>2015-05-13T13:41:57Z</time>
      </trkpt>
      <trkpt lat="45.23527" lon="-0.00913">
        <ele>124.03125</ele>
        <time>2015-05-13T13:41:58Z</time>
      </trkpt>
      <trkpt lat="45.23516" lon="-0.00865">
        <ele>120.9296875</ele>
        <time>2015-05-13T13:42:04Z</time>
      </trkpt>
      <trkpt lat="45.23512" lon="-0.00831">
        <ele>118.2890625</ele>
        <time>2015-05-13T13:42:07Z</time>
      </trkpt>
      <trkpt lat="45.23507" lon="-0.00803">
        <ele>115.53515625</ele>
        <time>2015-05-13T13:42:09Z</time>
      </trkpt>
      <trkpt lat="45.23499" lon="-0.00775">
        <ele>112.51953125</ele>
        <time>2015-05-13T13:42:11Z</time>
      </trkpt>
      <trkpt lat="45.23488" lon="-0.00746">
        <ele>108.76171875</ele>
        <time>2015-05-13T13:42:13Z</time>
      </trkpt>
      <trkpt lat="45.23479" lon="-0.00715">
        <ele>105.12109375</ele>
        <time>2015-05-13T13:42:15Z</time>
      </trkpt>
      <trkpt lat="45.23471" lon="-0.00676">
        <ele>101.8359375</ele>
        <time>2015-05-13T13:42:18Z</time>
      </trkpt>
      <trkpt lat="45.23468" lon="-0.00666">
        <ele>100.97265625</ele>
        <time>2015-05-13T13:42:19Z</time>
      </trkpt>
      <trkpt lat="45.23463" lon="-0.00657">
        <ele>99.94921875</ele>
        <time>2015-05-13T13:42:20Z</time>
      </trkpt>
      <trkpt lat="45.23458" lon="-0.00648">
        <ele>98.89453125</ele>
        <time>2015-05-13T13:42:21Z</time>
      </trkpt>
      <trkpt lat="45.23452" lon="-0.00641">
        <ele>97.9453125</ele>
        <time>2015-05-13T13:42:22Z</time>
      </trkpt>
      <trkpt lat="45.23446" lon="-0.00634">
        <ele>96.9765625</ele>
        <time>2015-05-13T13:42:23Z</time>
      </trkpt>
      <trkpt lat="45.2344" lon="-0.00626">
        <ele>95.95703125</ele>
        <time>2015-05-13T13:42:24Z</time>
      </trkpt>
      <trkpt lat="45.23411" lon="-0.00582">
        <ele>90.37890625</ele>
        <time>2015-05-13T13:42:29Z</time>
      </trkpt>
      <trkpt lat="45.23389" lon="-0.00551">
        <ele>86.03515625</ele>
        <time>2015-05-13T13:42:33Z</time>
      </trkpt>
      <trkpt lat="45.23385" lon="-0.00544">
        <ele>85.03125</ele>
        <time>2015-05-13T13:42:34Z</time>
      </trkpt>
      <trkpt lat="45.23373" lon="-0.00527">
        <ele>82.546875</ele>
        <time>2015-05-13T13:42:37Z</time>
      </trkpt>
      <trkpt lat="45.23369" lon="-0.00521">
        <ele>81.75</ele>
        <time>2015-05-13T13:42:38Z</time>
      </trkpt>
      <trkpt lat="45.23353" lon="-0.00498">
        <ele>78.7734375</ele>
        <time>2015-05-13T13:42:42Z</time>
      </trkpt>
      <trkpt lat="45.23341" lon="-0.0048">
        <ele>76.8359375</ele>
        <time>2015-05-13T13:42:45Z</time>
      </trkpt>
      <trkpt lat="45.23337" lon="-0.00474">
        <ele>76.3203125</ele>
        <time>2015-05-13T13:42:46Z</time>
      </trkpt>
      <trkpt lat="45.23333" lon="-0.00469">
        <ele>75.88671875</ele>
        <time>2015-05-13T13:42:47Z</time>
      </trkpt>
      <trkpt lat="45.23329" lon="-0.00464">
        <ele>75.58984375</ele>
        <time>2015-05-13T13:42:48Z</time>
      </trkpt>
      <trkpt lat="45.23327" lon="-0.00459">
        <ele>75.30859375</ele>
        <time>2015-05-13T13:42:49Z</time>
      </trkpt>
      <trkpt lat="45.23326" lon="-0.00456">
        <ele>75.1171875</ele>
        <time>2015-05-13T13:42:50Z</time>
      </trkpt>
      <trkpt lat="45.23334" lon="-0.00445">
        <ele>74.40625</ele>
        <time>2015-05-13T13:42:51Z</time>
      </trkpt>
      <trkpt lat="45.2335" lon="-0.00433">
        <ele>74.51953125</ele>
        <time>2015-05-13T13:42:52Z</time>
      </trkpt>
      <trkpt lat="45.23375" lon="-0.00419">
        <ele>74.6171875</ele>
        <time>2015-05-13T13:42:59Z</time>
      </trkpt>
      <trkpt lat="45.23394" lon="-0.00408">
        <ele>74.18359375</ele>
        <time>2015-05-13T13:43:07Z</time>
      </trkpt>
      <trkpt lat="45.23413" lon="-0.00394">
        <ele>73.171875</ele>
        <time>2015-05-13T13:43:11Z</time>
      </trkpt>
      <trkpt lat="45.2343" lon="-0.00384">
        <ele>72.87890625</ele>
        <time>2015-05-13T13:43:12Z</time>
      </trkpt>
      <trkpt lat="45.23439" lon="-0.00377">
        <ele>72.87109375</ele>
        <time>2015-05-13T13:43:13Z</time>
      </trkpt>
      <trkpt lat="45.23432" lon="-0.00358">
        <ele>74.09765625</ele>
        <time>2015-05-13T13:43:16Z</time>
      </trkpt>
      <trkpt lat="45.23421" lon="-0.00334">
        <ele>76.6328125</ele>
        <time>2015-05-13T13:43:22Z</time>
      </trkpt>
      <trkpt lat="45.23412" lon="-0.0031">
        <ele>80.421875</ele>
        <time>2015-05-13T13:43:25Z</time>
      </trkpt>
      <trkpt lat="45.23397" lon="-0.00273">
        <ele>85.5</ele>
        <time>2015-05-13T13:43:33Z</time>
      </trkpt>
      <trkpt lat="45.23383" lon="-0.0024">
        <ele>88.5078125</ele>
        <time>2015-05-13T13:43:42Z</time>
      </trkpt>
      <trkpt lat="45.23369" lon="-0.00203">
        <ele>75.08203125</ele>
        <time>2015-05-13T13:43:51Z</time>
      </trkpt>
      <trkpt lat="45.23363" lon="-0.00191">
        <ele>65.51171875</ele>
        <time>2015-05-13T13:44:00Z</time>
      </trkpt>
      <trkpt lat="45.23347" lon="-0.00173">
        <ele>50.05859375</ele>
        <time>2015-05-13T13:44:08Z</time>
      </trkpt>
      <trkpt lat="45.23316" lon="-0.00147">
        <ele>94.13671875</ele>
        <time>2015-05-13T13:44:16Z</time>
      </trkpt>
      <trkpt lat="45.23291" lon="-0.00123">
        <ele>96.48828125</ele>
        <time>2015-05-13T13:44:26Z</time>
      </trkpt>
      <trkpt lat="45.23275" lon="-0.00108">
        <ele>98.36328125</ele>
        <time>2015-05-13T13:44:36Z</time>
      </trkpt>
      <trkpt lat="45.23268" lon="-0.00094">
        <ele>99.7890625</ele>
        <time>2015-05-13T13:44:45Z</time>
      </trkpt>
      <trkpt lat="45.23249" lon="-0.00055">
        <ele>104.375</ele>
        <time>2015-05-13T13:44:52Z</time>
      </trkpt>
      <trkpt lat="45.23233" lon="-0.00021">
        <ele>109.26171875</ele>
        <time>2015-05-13T13:45:03Z</time>
      </trkpt>
      <trkpt lat="45.23222" lon="1.0E-5">
        <ele>112.41015625</ele>
        <time>2015-05-13T13:51:17Z</time>
      </trkpt>
      <trkpt lat="45.23208" lon="0.00032">
        <ele>116.02734375</ele>
        <time>2015-05-13T13:51:25Z</time>
      </trkpt>
      <trkpt lat="45.23196" lon="0.00059">
        <ele>118.64453125</ele>
        <time>2015-05-13T13:51:32Z</time>
      </trkpt>
      <trkpt lat="45.23182" lon="0.00089">
        <ele>121.73046875</ele>
        <time>2015-05-13T13:51:38Z</time>
      </trkpt>
      <trkpt lat="45.2317" lon="0.00115">
        <ele>123.7265625</ele>
        <time>2015-05-13T13:51:46Z</time>
      </trkpt>
      <trkpt lat="45.23158" lon="0.00141">
        <ele>124.3359375</ele>
        <time>2015-05-13T13:51:54Z</time>
      </trkpt>
      <trkpt lat="45.23149" lon="0.00167">
        <ele>124.68359375</ele>
        <time>2015-05-13T13:52:02Z</time>
      </trkpt>
      <trkpt lat="45.23145" lon="0.00184">
        <ele>123.91015625</ele>
        <time>2015-05-13T13:52:05Z</time>
      </trkpt>
      <trkpt lat="45.23138" lon="0.00213">
        <ele>122.45703125</ele>
        <time>2015-05-13T13:52:06Z</time>
      </trkpt>
      <trkpt lat="45.23133" lon="0.00234">
        <ele>120.96484375</ele>
        <time>2015-05-13T13:52:08Z</time>
      </trkpt>
      <trkpt lat="45.23129" lon="0.00244">
        <ele>119.94140625</ele>
        <time>2015-05-13T13:52:09Z</time>
      </trkpt>
      <trkpt lat="45.23123" lon="0.00252">
        <ele>119.1328125</ele>
        <time>2015-05-13T13:52:12Z</time>
      </trkpt>
      <trkpt lat="45.23117" lon="0.00261">
        <ele>118.26171875</ele>
        <time>2015-05-13T13:52:15Z</time>
      </trkpt>
      <trkpt lat="45.23115" lon="0.00266">
        <ele>117.69140625</ele>
        <time>2015-05-13T13:52:16Z</time>
      </trkpt>
      <trkpt lat="45.23113" lon="0.00274">
        <ele>116.9921875</ele>
        <time>2015-05-13T13:52:17Z</time>
      </trkpt>
      <trkpt lat="45.23107" lon="0.00294">
        <ele>115.0390625</ele>
        <time>2015-05-13T13:52:20Z</time>
      </trkpt>
      <trkpt lat="45.23104" lon="0.003">
        <ele>114.484375</ele>
        <time>2015-05-13T13:52:21Z</time>
      </trkpt>
      <trkpt lat="45.231" lon="0.00304">
        <ele>114.01171875</ele>
        <time>2015-05-13T13:52:22Z</time>
      </trkpt>
      <trkpt lat="45.23095" lon="0.00307">
        <ele>113.6953125</ele>
        <time>2015-05-13T13:52:23Z</time>
      </trkpt>
      <trkpt lat="45.23089" lon="0.00308">
        <ele>113.4453125</ele>
        <time>2015-05-13T13:52:24Z</time>
      </trkpt>
      <trkpt lat="45.23084" lon="0.0031">
        <ele>113.2109375</ele>
        <time>2015-05-13T13:52:25Z</time>
      </trkpt>
      <trkpt lat="45.2304" lon="0.00324">
        <ele>113.10546875</ele>
        <time>2015-05-13T13:52:34Z</time>
      </trkpt>
      <trkpt lat="45.23027" lon="0.00327">
        <ele>113.2890625</ele>
        <time>2015-05-13T13:52:37Z</time>
      </trkpt>
      <trkpt lat="45.22991" lon="0.00334">
        <ele>115.24609375</ele>
        <time>2015-05-13T13:52:46Z</time>
      </trkpt>
      <trkpt lat="45.2297" lon="0.00338">
        <ele>116.6484375</ele>
        <time>2015-05-13T13:52:51Z</time>
      </trkpt>
      <trkpt lat="45.22961" lon="0.00341">
        <ele>116.87109375</ele>
        <time>2015-05-13T13:52:53Z</time>
      </trkpt>
      <trkpt lat="45.22915" lon="0.00348">
        <ele>116.98046875</ele>
        <time>2015-05-13T13:53:03Z</time>
      </trkpt>
      <trkpt lat="45.229" lon="0.00362">
        <ele>116.32421875</ele>
        <time>2015-05-13T13:53:08Z</time>
      </trkpt>
      <trkpt lat="45.229" lon="0.00366">
        <ele>116.31640625</ele>
        <time>2015-05-13T13:53:09Z</time>
      </trkpt>
      <trkpt lat="45.229" lon="0.00371">
        <ele>116.375</ele>
        <time>2015-05-13T13:53:10Z</time>
      </trkpt>
      <trkpt lat="45.22902" lon="0.00374">
        <ele>116.46875</ele>
        <time>2015-05-13T13:53:11Z</time>
      </trkpt>
      <trkpt lat="45.22904" lon="0.00377">
        <ele>116.578125</ele>
        <time>2015-05-13T13:53:12Z</time>
      </trkpt>
      <trkpt lat="45.22905" lon="0.0038">
        <ele>116.65625</ele>
        <time>2015-05-13T13:53:13Z</time>
      </trkpt>
      <trkpt lat="45.22906" lon="0.00382">
        <ele>116.7109375</ele>
        <time>2015-05-13T13:53:14Z</time>
      </trkpt>
      <trkpt lat="45.22907" lon="0.00384">
        <ele>116.77734375</ele>
        <time>2015-05-13T13:53:15Z</time>
      </trkpt>
      <trkpt lat="45.22908" lon="0.00386">
        <ele>116.859375</ele>
        <time>2015-05-13T13:53:16Z</time>
      </trkpt>
      <trkpt lat="45.2291" lon="0.00388">
        <ele>116.95703125</ele>
        <time>2015-05-13T13:53:17Z</time>
      </trkpt>
      <trkpt lat="45.22912" lon="0.0039">
        <ele>116.98046875</ele>
        <time>2015-05-13T13:53:18Z</time>
      </trkpt>
      <trkpt lat="45.22929" lon="0.00415">
        <ele>116.359375</ele>
        <time>2015-05-13T13:53:25Z</time>
      </trkpt>
      <trkpt lat="45.22936" lon="0.00425">
        <ele>115.9453125</ele>
        <time>2015-05-13T13:53:28Z</time>
      </trkpt>
      <trkpt lat="45.22938" lon="0.00429">
        <ele>115.7890625</ele>
        <time>2015-05-13T13:53:29Z</time>
      </trkpt>
      <trkpt lat="45.22958" lon="0.00453">
        <ele>114.14453125</ele>
        <time>2015-05-13T13:53:36Z</time>
      </trkpt>
      <trkpt lat="45.22962" lon="0.00456">
        <ele>113.80859375</ele>
        <time>2015-05-13T13:53:37Z</time>
      </trkpt>
      <trkpt lat="45.22972" lon="0.00465">
        <ele>112.4453125</ele>
        <time>2015-05-13T13:53:39Z</time>
      </trkpt>
      <trkpt lat="45.22977" lon="0.00472">
        <ele>111.5546875</ele>
        <time>2015-05-13T13:53:40Z</time>
      </trkpt>
      <trkpt lat="45.22982" lon="0.0048">
        <ele>110.67578125</ele>
        <time>2015-05-13T13:53:41Z</time>
      </trkpt>
      <trkpt lat="45.22985" lon="0.0049">
        <ele>109.9453125</ele>
        <time>2015-05-13T13:53:42Z</time>
      </trkpt>
      <trkpt lat="45.22988" lon="0.00499">
        <ele>109.30078125</ele>
        <time>2015-05-13T13:53:43Z</time>
      </trkpt>
      <trkpt lat="45.2299" lon="0.00509">
        <ele>108.8359375</ele>
        <time>2015-05-13T13:53:44Z</time>
      </trkpt>
      <trkpt lat="45.22991" lon="0.00518">
        <ele>108.55078125</ele>
        <time>2015-05-13T13:53:45Z</time>
      </trkpt>
      <trkpt lat="45.22991" lon="0.00526">
        <ele>108.40625</ele>
        <time>2015-05-13T13:53:46Z</time>
      </trkpt>
      <trkpt lat="45.2299" lon="0.00534">
        <ele>108.3359375</ele>
        <time>2015-05-13T13:53:47Z</time>
      </trkpt>
      <trkpt lat="45.22989" lon="0.00541">
        <ele>108.30078125</ele>
        <time>2015-05-13T13:53:48Z</time>
      </trkpt>
      <trkpt lat="45.22985" lon="0.00567">
        <ele>108.11328125</ele>
        <time>2015-05-13T13:53:52Z</time>
      </trkpt>
      <trkpt lat="45.22983" lon="0.00573">
        <ele>108.1796875</ele>
        <time>2015-05-13T13:53:53Z</time>
      </trkpt>
      <trkpt lat="45.2298" lon="0.00578">
        <ele>108.3671875</ele>
        <time>2015-05-13T13:53:54Z</time>
      </trkpt>
      <trkpt lat="45.22976" lon="0.00582">
        <ele>108.66015625</ele>
        <time>2015-05-13T13:53:55Z</time>
      </trkpt>
      <trkpt lat="45.22972" lon="0.00586">
        <ele>108.96875</ele>
        <time>2015-05-13T13:53:56Z</time>
      </trkpt>
      <trkpt lat="45.22948" lon="0.00605">
        <ele>110.4609375</ele>
        <time>2015-05-13T13:54:02Z</time>
      </trkpt>
      <trkpt lat="45.22936" lon="0.00614">
        <ele>111.05859375</ele>
        <time>2015-05-13T13:54:05Z</time>
      </trkpt>
      <trkpt lat="45.22925" lon="0.00622">
        <ele>111.59765625</ele>
        <time>2015-05-13T13:54:08Z</time>
      </trkpt>
      <trkpt lat="45.22905" lon="0.00637">
        <ele>112.1015625</ele>
        <time>2015-05-13T13:54:15Z</time>
      </trkpt>
      <trkpt lat="45.22874" lon="0.0066">
        <ele>111.8203125</ele>
        <time>2015-05-13T13:54:24Z</time>
      </trkpt>
      <trkpt lat="45.22862" lon="0.00671">
        <ele>111.6484375</ele>
        <time>2015-05-13T13:54:27Z</time>
      </trkpt>
      <trkpt lat="45.22858" lon="0.00674">
        <ele>111.5234375</ele>
        <time>2015-05-13T13:54:28Z</time>
      </trkpt>
      <trkpt lat="45.2283" lon="0.00706">
        <ele>110.53515625</ele>
        <time>2015-05-13T13:54:36Z</time>
      </trkpt>
      <trkpt lat="45.22794" lon="0.0075">
        <ele>109.71875</ele>
        <time>2015-05-13T13:54:47Z</time>
      </trkpt>
      <trkpt lat="45.22765" lon="0.00786">
        <ele>109.265625</ele>
        <time>2015-05-13T13:54:55Z</time>
      </trkpt>
      <trkpt lat="45.22733" lon="0.00831">
        <ele>108.14453125</ele>
        <time>2015-05-13T13:55:04Z</time>
      </trkpt>
      <trkpt lat="45.22719" lon="0.00848">
        <ele>108.3046875</ele>
        <time>2015-05-13T13:55:08Z</time>
      </trkpt>
      <trkpt lat="45.22688" lon="0.0088">
        <ele>108.6640625</ele>
        <time>2015-05-13T13:55:17Z</time>
      </trkpt>
      <trkpt lat="45.22659" lon="0.00904">
        <ele>109.1796875</ele>
        <time>2015-05-13T13:55:25Z</time>
      </trkpt>
      <trkpt lat="45.22654" lon="0.00907">
        <ele>109.36328125</ele>
        <time>2015-05-13T13:55:26Z</time>
      </trkpt>
      <trkpt lat="45.2265" lon="0.00911">
        <ele>109.484375</ele>
        <time>2015-05-13T13:55:27Z</time>
      </trkpt>
      <trkpt lat="45.2264" lon="0.00921">
        <ele>109.6796875</ele>
        <time>2015-05-13T13:55:29Z</time>
      </trkpt>
      <trkpt lat="45.22635" lon="0.00928">
        <ele>109.71875</ele>
        <time>2015-05-13T13:55:30Z</time>
      </trkpt>
      <trkpt lat="45.22631" lon="0.00935">
        <ele>109.56640625</ele>
        <time>2015-05-13T13:55:31Z</time>
      </trkpt>
      <trkpt lat="45.22626" lon="0.00944">
        <ele>109.2421875</ele>
        <time>2015-05-13T13:55:32Z</time>
      </trkpt>
      <trkpt lat="45.22622" lon="0.00954">
        <ele>109.01171875</ele>
        <time>2015-05-13T13:55:33Z</time>
      </trkpt>
      <trkpt lat="45.22609" lon="0.0099">
        <ele>107.8671875</ele>
        <time>2015-05-13T13:55:36Z</time>
      </trkpt>
      <trkpt lat="45.22606" lon="0.01003">
        <ele>107.390625</ele>
        <time>2015-05-13T13:55:37Z</time>
      </trkpt>
      <trkpt lat="45.22603" lon="0.01016">
        <ele>107.0859375</ele>
        <time>2015-05-13T13:55:38Z</time>
      </trkpt>
      <trkpt lat="45.22602" lon="0.01025">
        <ele>106.8359375</ele>
        <time>2015-05-13T13:55:39Z</time>
      </trkpt>
      <trkpt lat="45.22601" lon="0.01032">
        <ele>106.65234375</ele>
        <time>2015-05-13T13:55:40Z</time>
      </trkpt>
      <trkpt lat="45.22602" lon="0.01045">
        <ele>106.2890625</ele>
        <time>2015-05-13T13:55:43Z</time>
      </trkpt>
      <trkpt lat="45.22604" lon="0.01049">
        <ele>106.17578125</ele>
        <time>2015-05-13T13:55:44Z</time>
      </trkpt>
      <trkpt lat="45.22607" lon="0.01052">
        <ele>106.08203125</ele>
        <time>2015-05-13T13:55:45Z</time>
      </trkpt>
      <trkpt lat="45.22611" lon="0.01054">
        <ele>106.015625</ele>
        <time>2015-05-13T13:55:46Z</time>
      </trkpt>
      <trkpt lat="45.22614" lon="0.01057">
        <ele>105.96875</ele>
        <time>2015-05-13T13:55:47Z</time>
      </trkpt>
      <trkpt lat="45.22617" lon="0.0106">
        <ele>105.9453125</ele>
        <time>2015-05-13T13:55:48Z</time>
      </trkpt>
      <trkpt lat="45.22644" lon="0.01084">
        <ele>105.421875</ele>
        <time>2015-05-13T13:55:55Z</time>
      </trkpt>
      <trkpt lat="45.22673" lon="0.01115">
        <ele>104.5625</ele>
        <time>2015-05-13T13:56:02Z</time>
      </trkpt>
      <trkpt lat="45.22704" lon="0.01159">
        <ele>102.58203125</ele>
        <time>2015-05-13T13:56:09Z</time>
      </trkpt>
      <trkpt lat="45.22724" lon="0.01189">
        <ele>100.81640625</ele>
        <time>2015-05-13T13:56:14Z</time>
      </trkpt>
      <trkpt lat="45.22747" lon="0.0123">
        <ele>98.67578125</ele>
        <time>2015-05-13T13:56:21Z</time>
      </trkpt>
      <trkpt lat="45.22751" lon="0.01235">
        <ele>98.3125</ele>
        <time>2015-05-13T13:56:22Z</time>
      </trkpt>
      <trkpt lat="45.22754" lon="0.0124">
        <ele>97.9453125</ele>
        <time>2015-05-13T13:56:23Z</time>
      </trkpt>
      <trkpt lat="45.22764" lon="0.01254">
        <ele>96.97265625</ele>
        <time>2015-05-13T13:56:27Z</time>
      </trkpt>
      <trkpt lat="45.22777" lon="0.01267">
        <ele>95.84765625</ele>
        <time>2015-05-13T13:56:34Z</time>
      </trkpt>
      <trkpt lat="45.22779" lon="0.01268">
        <ele>95.69140625</ele>
        <time>2015-05-13T13:56:39Z</time>
      </trkpt>
      <trkpt lat="45.22782" lon="0.01266">
        <ele>95.51171875</ele>
        <time>2015-05-13T13:56:47Z</time>
      </trkpt>
      <trkpt lat="45.22784" lon="0.01268">
        <ele>95.3125</ele>
        <time>2015-05-13T13:56:54Z</time>
      </trkpt>
      <trkpt lat="45.22789" lon="0.01273">
        <ele>94.828125</ele>
        <time>2015-05-13T13:56:59Z</time>
      </trkpt>
      <trkpt lat="45.22791" lon="0.01274">
        <ele>94.72265625</ele>
        <time>2015-05-13T13:57:00Z</time>
      </trkpt>
      <trkpt lat="45.22792" lon="0.01275">
        <ele>94.5625</ele>
        <time>2015-05-13T13:57:01Z</time>
      </trkpt>
      <trkpt lat="45.22805" lon="0.01289">
        <ele>92.8203125</ele>
        <time>2015-05-13T13:57:07Z</time>
      </trkpt>
      <trkpt lat="45.22823" lon="0.01302">
        <ele>90.94921875</ele>
        <time>2015-05-13T13:57:15Z</time>
      </trkpt>
      <trkpt lat="45.22831" lon="0.01306">
        <ele>90.2421875</ele>
        <time>2015-05-13T13:57:20Z</time>
      </trkpt>
      <trkpt lat="45.22833" lon="0.01308">
        <ele>90.0625</ele>
        <time>2015-05-13T13:57:24Z</time>
      </trkpt>
      <trkpt lat="45.22846" lon="0.01317">
        <ele>88.9921875</ele>
        <time>2015-05-13T13:57:30Z</time>
      </trkpt>
      <trkpt lat="45.22874" lon="0.01338">
        <ele>86.23828125</ele>
        <time>2015-05-13T13:57:37Z</time>
      </trkpt>
      <trkpt lat="45.22891" lon="0.01352">
        <ele>84.16015625</ele>
        <time>2015-05-13T13:57:43Z</time>
      </trkpt>
      <trkpt lat="45.22904" lon="0.01361">
        <ele>82.83203125</ele>
        <time>2015-05-13T13:57:48Z</time>
      </trkpt>
      <trkpt lat="45.22913" lon="0.01369">
        <ele>81.83984375</ele>
        <time>2015-05-13T13:57:52Z</time>
      </trkpt>
      <trkpt lat="45.22924" lon="0.0138">
        <ele>80.4453125</ele>
        <time>2015-05-13T13:57:55Z</time>
      </trkpt>
      <trkpt lat="45.22927" lon="0.01383">
        <ele>80.03125</ele>
        <time>2015-05-13T13:57:56Z</time>
      </trkpt>
      <trkpt lat="45.22931" lon="0.01386">
        <ele>79.62890625</ele>
        <time>2015-05-13T13:57:57Z</time>
      </trkpt>
      <trkpt lat="45.22935" lon="0.01389">
        <ele>79.20703125</ele>
        <time>2015-05-13T13:57:58Z</time>
      </trkpt>
      <trkpt lat="45.22939" lon="0.01392">
        <ele>78.69921875</ele>
        <time>2015-05-13T13:57:59Z</time>
      </trkpt>
      <trkpt lat="45.22943" lon="0.01397">
        <ele>78.15234375</ele>
        <time>2015-05-13T13:58:00Z</time>
      </trkpt>
      <trkpt lat="45.22948" lon="0.014">
        <ele>77.68359375</ele>
        <time>2015-05-13T13:58:01Z</time>
      </trkpt>
      <trkpt lat="45.22953" lon="0.01403">
        <ele>77.2421875</ele>
        <time>2015-05-13T13:58:02Z</time>
      </trkpt>
      <trkpt lat="45.22958" lon="0.01407">
        <ele>76.8046875</ele>
        <time>2015-05-13T13:58:03Z</time>
      </trkpt>
      <trkpt lat="45.22978" lon="0.01416">
        <ele>75.27734375</ele>
        <time>2015-05-13T13:58:08Z</time>
      </trkpt>
      <trkpt lat="45.22987" lon="0.01421">
        <ele>74.53515625</ele>
        <time>2015-05-13T13:58:12Z</time>
      </trkpt>
      <trkpt lat="45.22987" lon="0.0142">
        <ele>74.5703125</ele>
        <time>2015-05-13T13:58:24Z</time>
      </trkpt>
      <trkpt lat="45.22987" lon="0.0142">
        <ele>74.546875</ele>
        <time>2015-05-13T13:58:42Z</time>
      </trkpt>
      <trkpt lat="45.22987" lon="0.01421">
        <ele>74.546875</ele>
        <time>2015-05-13T13:58:57Z</time>
      </trkpt>
      <trkpt lat="45.22992" lon="0.01423">
        <ele>74.1640625</ele>
        <time>2015-05-13T13:59:07Z</time>
      </trkpt>
      <trkpt lat="45.23013" lon="0.01434">
        <ele>72.7109375</ele>
        <time>2015-05-13T13:59:13Z</time>
      </trkpt>
      <trkpt lat="45.23051" lon="0.01457">
        <ele>68.88671875</ele>
        <time>2015-05-13T13:59:21Z</time>
      </trkpt>
      <trkpt lat="45.23086" lon="0.01487">
        <ele>66.28515625</ele>
        <time>2015-05-13T13:59:27Z</time>
      </trkpt>
      <trkpt lat="45.23092" lon="0.01493">
        <ele>65.73046875</ele>
        <time>2015-05-13T13:59:28Z</time>
      </trkpt>
      <trkpt lat="45.23124" lon="0.01538">
        <ele>61.7578125</ele>
        <time>2015-05-13T13:59:34Z</time>
      </trkpt>
      <trkpt lat="45.23151" lon="0.0157">
        <ele>60.53515625</ele>
        <time>2015-05-13T13:59:39Z</time>
      </trkpt>
      <trkpt lat="45.23156" lon="0.01575">
        <ele>60.4296875</ele>
        <time>2015-05-13T13:59:40Z</time>
      </trkpt>
      <trkpt lat="45.23169" lon="0.01583">
        <ele>60.31640625</ele>
        <time>2015-05-13T13:59:42Z</time>
      </trkpt>
      <trkpt lat="45.23199" lon="0.01594">
        <ele>60.8203125</ele>
        <time>2015-05-13T13:59:46Z</time>
      </trkpt>
      <trkpt lat="45.23217" lon="0.01602">
        <ele>61.39453125</ele>
        <time>2015-05-13T13:59:49Z</time>
      </trkpt>
      <trkpt lat="45.23222" lon="0.01603">
        <ele>61.5625</ele>
        <time>2015-05-13T13:59:50Z</time>
      </trkpt>
      <trkpt lat="45.23226" lon="0.01604">
        <ele>61.69921875</ele>
        <time>2015-05-13T13:59:51Z</time>
      </trkpt>
      <trkpt lat="45.2323" lon="0.01605">
        <ele>61.8203125</ele>
        <time>2015-05-13T13:59:52Z</time>
      </trkpt>
      <trkpt lat="45.23234" lon="0.01605">
        <ele>61.94921875</ele>
        <time>2015-05-13T13:59:53Z</time>
      </trkpt>
      <trkpt lat="45.23238" lon="0.01605">
        <ele>62.0859375</ele>
        <time>2015-05-13T13:59:54Z</time>
      </trkpt>
      <trkpt lat="45.23251" lon="0.01605">
        <ele>62.6484375</ele>
        <time>2015-05-13T13:59:59Z</time>
      </trkpt>
      <trkpt lat="45.23264" lon="0.01604">
        <ele>63.1953125</ele>
        <time>2015-05-13T14:00:06Z</time>
      </trkpt>
      <trkpt lat="45.23274" lon="0.01606">
        <ele>63.4140625</ele>
        <time>2015-05-13T14:00:12Z</time>
      </trkpt>
      <trkpt lat="45.23291" lon="0.01613">
        <ele>63.51171875</ele>
        <time>2015-05-13T14:00:21Z</time>
      </trkpt>
      <trkpt lat="45.23314" lon="0.01628">
        <ele>63.57421875</ele>
        <time>2015-05-13T14:00:29Z</time>
      </trkpt>
      <trkpt lat="45.2333" lon="0.01637">
        <ele>63.625</ele>
        <time>2015-05-13T14:00:33Z</time>
      </trkpt>
      <trkpt lat="45.23361" lon="0.01656">
        <ele>63.9375</ele>
        <time>2015-05-13T14:00:41Z</time>
      </trkpt>
      <trkpt lat="45.23393" lon="0.01669">
        <ele>65.57421875</ele>
        <time>2015-05-13T14:00:49Z</time>
      </trkpt>
      <trkpt lat="45.23423" lon="0.01671">
        <ele>67.3515625</ele>
        <time>2015-05-13T14:00:57Z</time>
      </trkpt>
      <trkpt lat="45.23447" lon="0.01675">
        <ele>68.453125</ele>
        <time>2015-05-13T14:01:05Z</time>
      </trkpt>
      <trkpt lat="45.23461" lon="0.01678">
        <ele>69.078125</ele>
        <time>2015-05-13T14:01:10Z</time>
      </trkpt>
      <trkpt lat="45.23463" lon="0.0168">
        <ele>69.09765625</ele>
        <time>2015-05-13T14:01:11Z</time>
      </trkpt>
      <trkpt lat="45.23465" lon="0.01682">
        <ele>69.06640625</ele>
        <time>2015-05-13T14:01:12Z</time>
      </trkpt>
      <trkpt lat="45.23466" lon="0.01684">
        <ele>69.0078125</ele>
        <time>2015-05-13T14:01:13Z</time>
      </trkpt>
      <trkpt lat="45.23467" lon="0.01687">
        <ele>68.89453125</ele>
        <time>2015-05-13T14:01:14Z</time>
      </trkpt>
      <trkpt lat="45.23468" lon="0.01691">
        <ele>68.73046875</ele>
        <time>2015-05-13T14:01:15Z</time>
      </trkpt>
      <trkpt lat="45.23469" lon="0.01695">
        <ele>68.5703125</ele>
        <time>2015-05-13T14:01:16Z</time>
      </trkpt>
      <trkpt lat="45.2347" lon="0.01699">
        <ele>68.37890625</ele>
        <time>2015-05-13T14:01:17Z</time>
      </trkpt>
      <trkpt lat="45.2347" lon="0.01704">
        <ele>68.13671875</ele>
        <time>2015-05-13T14:01:18Z</time>
      </trkpt>
      <trkpt lat="45.2347" lon="0.0171">
        <ele>67.81640625</ele>
        <time>2015-05-13T14:01:19Z</time>
      </trkpt>
      <trkpt lat="45.23469" lon="0.01716">
        <ele>67.46484375</ele>
        <time>2015-05-13T14:01:20Z</time>
      </trkpt>
      <trkpt lat="45.23467" lon="0.01722">
        <ele>67.0390625</ele>
        <time>2015-05-13T14:01:21Z</time>
      </trkpt>
      <trkpt lat="45.23465" lon="0.01729">
        <ele>66.7734375</ele>
        <time>2015-05-13T14:01:22Z</time>
      </trkpt>
      <trkpt lat="45.23461" lon="0.01736">
        <ele>66.4453125</ele>
        <time>2015-05-13T14:01:23Z</time>
      </trkpt>
      <trkpt lat="45.23457" lon="0.01742">
        <ele>66.04296875</ele>
        <time>2015-05-13T14:01:24Z</time>
      </trkpt>
      <trkpt lat="45.23452" lon="0.01747">
        <ele>65.640625</ele>
        <time>2015-05-13T14:01:25Z</time>
      </trkpt>
      <trkpt lat="45.23446" lon="0.01753">
        <ele>65.1328125</ele>
        <time>2015-05-13T14:01:26Z</time>
      </trkpt>
      <trkpt lat="45.2344" lon="0.01759">
        <ele>64.59375</ele>
        <time>2015-05-13T14:01:27Z</time>
      </trkpt>
      <trkpt lat="45.2342" lon="0.01775">
        <ele>62.75</ele>
        <time>2015-05-13T14:01:30Z</time>
      </trkpt>
      <trkpt lat="45.23384" lon="0.01805">
        <ele>61.859375</ele>
        <time>2015-05-13T14:01:35Z</time>
      </trkpt>
      <trkpt lat="45.23362" lon="0.01824">
        <ele>61.15625</ele>
        <time>2015-05-13T14:01:38Z</time>
      </trkpt>
      <trkpt lat="45.23323" lon="0.01858">
        <ele>58.390625</ele>
        <time>2015-05-13T14:01:43Z</time>
      </trkpt>
      <trkpt lat="45.23263" lon="0.01903">
        <ele>54.0390625</ele>
        <time>2015-05-13T14:01:51Z</time>
      </trkpt>
      <trkpt lat="45.23259" lon="0.01906">
        <ele>53.8046875</ele>
        <time>2015-05-13T14:01:52Z</time>
      </trkpt>
      <trkpt lat="45.23255" lon="0.01908">
        <ele>53.56640625</ele>
        <time>2015-05-13T14:01:53Z</time>
      </trkpt>
      <trkpt lat="45.2325" lon="0.01911">
        <ele>53.328125</ele>
        <time>2015-05-13T14:01:54Z</time>
      </trkpt>
      <trkpt lat="45.23243" lon="0.01919">
        <ele>53.046875</ele>
        <time>2015-05-13T14:01:56Z</time>
      </trkpt>
      <trkpt lat="45.23239" lon="0.01923">
        <ele>53.171875</ele>
        <time>2015-05-13T14:01:57Z</time>
      </trkpt>
      <trkpt lat="45.23236" lon="0.01929">
        <ele>53.27734375</ele>
        <time>2015-05-13T14:01:58Z</time>
      </trkpt>
      <trkpt lat="45.2323" lon="0.01947">
        <ele>53.47265625</ele>
        <time>2015-05-13T14:02:01Z</time>
      </trkpt>
      <trkpt lat="45.23227" lon="0.01959">
        <ele>53.4375</ele>
        <time>2015-05-13T14:02:03Z</time>
      </trkpt>
      <trkpt lat="45.23224" lon="0.01971">
        <ele>53.41796875</ele>
        <time>2015-05-13T14:02:05Z</time>
      </trkpt>
      <trkpt lat="45.23214" lon="0.01993">
        <ele>53.671875</ele>
        <time>2015-05-13T14:02:11Z</time>
      </trkpt>
      <trkpt lat="45.23204" lon="0.02001">
        <ele>54.16015625</ele>
        <time>2015-05-13T14:03:06Z</time>
      </trkpt>
      <trkpt lat="45.23201" lon="0.02001">
        <ele>54.31640625</ele>
        <time>2015-05-13T14:03:07Z</time>
      </trkpt>
      <trkpt lat="45.23198" lon="0.02002">
        <ele>54.4765625</ele>
        <time>2015-05-13T14:03:08Z</time>
      </trkpt>
      <trkpt lat="45.23183" lon="0.02003">
        <ele>55.64453125</ele>
        <time>2015-05-13T14:03:14Z</time>
      </trkpt>
      <trkpt lat="45.23166" lon="0.02006">
        <ele>57.390625</ele>
        <time>2015-05-13T14:03:20Z</time>
      </trkpt>
      <trkpt lat="45.23145" lon="0.02019">
        <ele>59.72265625</ele>
        <time>2015-05-13T14:03:28Z</time>
      </trkpt>
      <trkpt lat="45.23123" lon="0.02037">
        <ele>61.7578125</ele>
        <time>2015-05-13T14:03:37Z</time>
      </trkpt>
      <trkpt lat="45.23123" lon="0.02042">
        <ele>61.74609375</ele>
        <time>2015-05-13T14:03:38Z</time>
      </trkpt>
      <trkpt lat="45.23124" lon="0.02049">
        <ele>61.671875</ele>
        <time>2015-05-13T14:03:39Z</time>
      </trkpt>
      <trkpt lat="45.23129" lon="0.02071">
        <ele>61.55078125</ele>
        <time>2015-05-13T14:03:42Z</time>
      </trkpt>
      <trkpt lat="45.23134" lon="0.02093">
        <ele>61.57421875</ele>
        <time>2015-05-13T14:03:45Z</time>
      </trkpt>
      <trkpt lat="45.2315" lon="0.02155">
        <ele>63.375</ele>
        <time>2015-05-13T14:03:54Z</time>
      </trkpt>
      <trkpt lat="45.23162" lon="0.02183">
        <ele>64.5234375</ele>
        <time>2015-05-13T14:04:00Z</time>
      </trkpt>
      <trkpt lat="45.23179" lon="0.02216">
        <ele>66.0234375</ele>
        <time>2015-05-13T14:04:08Z</time>
      </trkpt>
      <trkpt lat="45.23199" lon="0.02257">
        <ele>67.30078125</ele>
        <time>2015-05-13T14:04:18Z</time>
      </trkpt>
      <trkpt lat="45.23214" lon="0.0229">
        <ele>67.0859375</ele>
        <time>2015-05-13T14:04:26Z</time>
      </trkpt>
      <trkpt lat="45.23229" lon="0.02327">
        <ele>65.4140625</ele>
        <time>2015-05-13T14:04:34Z</time>
      </trkpt>
      <trkpt lat="45.23232" lon="0.02333">
        <ele>65.12109375</ele>
        <time>2015-05-13T14:04:35Z</time>
      </trkpt>
      <trkpt lat="45.23234" lon="0.02341">
        <ele>65.03515625</ele>
        <time>2015-05-13T14:04:36Z</time>
      </trkpt>
      <trkpt lat="45.23236" lon="0.02348">
        <ele>65.02734375</ele>
        <time>2015-05-13T14:04:37Z</time>
      </trkpt>
      <trkpt lat="45.23238" lon="0.02363">
        <ele>65.13671875</ele>
        <time>2015-05-13T14:04:39Z</time>
      </trkpt>
      <trkpt lat="45.23238" lon="0.02418">
        <ele>66.60546875</ele>
        <time>2015-05-13T14:04:47Z</time>
      </trkpt>
      <trkpt lat="45.23238" lon="0.02424">
        <ele>66.81640625</ele>
        <time>2015-05-13T14:04:48Z</time>
      </trkpt>
      <trkpt lat="45.23238" lon="0.02466">
        <ele>68.21875</ele>
        <time>2015-05-13T14:04:55Z</time>
      </trkpt>
      <trkpt lat="45.23238" lon="0.02472">
        <ele>68.421875</ele>
        <time>2015-05-13T14:04:56Z</time>
      </trkpt>
      <trkpt lat="45.23236" lon="0.02522">
        <ele>69.41796875</ele>
        <time>2015-05-13T14:05:05Z</time>
      </trkpt>
      <trkpt lat="45.23238" lon="0.02568">
        <ele>69.046875</ele>
        <time>2015-05-13T14:05:14Z</time>
      </trkpt>
      <trkpt lat="45.23239" lon="0.02571">
        <ele>68.9453125</ele>
        <time>2015-05-13T14:05:15Z</time>
      </trkpt>
      <trkpt lat="45.23231" lon="0.0257">
        <ele>69.37890625</ele>
        <time>2015-05-13T14:05:16Z</time>
      </trkpt>
      <trkpt lat="45.23216" lon="0.02564">
        <ele>70.234375</ele>
        <time>2015-05-13T14:05:17Z</time>
      </trkpt>
      <trkpt lat="45.23204" lon="0.02561">
        <ele>70.95703125</ele>
        <time>2015-05-13T14:05:20Z</time>
      </trkpt>
      <trkpt lat="45.23193" lon="0.02564">
        <ele>71.42578125</ele>
      </trkpt>
      <trkpt lat="45.23179" lon="0.02568">
        <ele>71.53515625</ele>
      </trkpt>
      <trkpt lat="45.23168" lon="0.02573">
        <ele>71.43359375</ele>
      </trkpt>
      <trkpt lat="45.23155" lon="0.0258">
        <ele>71.3359375</ele>
      </trkpt>
      <trkpt lat="45.23142" lon="0.02596">
        <ele>71.13671875</ele>
      </trkpt>
      <trkpt lat="45.23131" lon="0.02605">
        <ele>71.0390625</ele>
      </trkpt>
      <trkpt lat="45.23114" lon="0.02617">
        <ele>70.40625</ele>
      </trkpt>
      <trkpt lat="45.23094" lon="0.02627">
        <ele>69.66796875</ele>
      </trkpt>
      <trkpt lat="45.23066" lon="0.02642">
        <ele>68.5390625</ele>
      </trkpt>
      <trkpt lat="45.2305" lon="0.02654">
        <ele>67.78515625</ele>
      </trkpt>
      <trkpt lat="45.23029" lon="0.02673">
        <ele>66.83984375</ele>
      </trkpt>
      <trkpt lat="45.23005" lon="0.02695">
        <ele>64.875</ele>
      </trkpt>
      <trkpt lat="45.22984" lon="0.02711">
        <ele>63.16015625</ele>
      </trkpt>
      <trkpt lat="45.22954" lon="0.02729">
        <ele>60.6953125</ele>
      </trkpt>
      <trkpt lat="45.2294" lon="0.02743">
        <ele>59.1015625</ele>
      </trkpt>
      <trkpt lat="45.22925" lon="0.02756">
        <ele>57.6015625</ele>
      </trkpt>
      <trkpt lat="45.22906" lon="0.02762">
        <ele>56.3359375</ele>
      </trkpt>
      <trkpt lat="45.22897" lon="0.02765">
        <ele>55.89453125</ele>
      </trkpt>
      <trkpt lat="45.22874" lon="0.02769">
        <ele>54.90234375</ele>
      </trkpt>
      <trkpt lat="45.22855" lon="0.02781">
        <ele>53.74609375</ele>
      </trkpt>
      <trkpt lat="45.22844" lon="0.02791">
        <ele>53.63671875</ele>
      </trkpt>
      <trkpt lat="45.22824" lon="0.02813">
        <ele>53.125</ele>
      </trkpt>
      <trkpt lat="45.22799" lon="0.02837">
        <ele>52.72265625</ele>
      </trkpt>
      <trkpt lat="45.22778" lon="0.0285">
        <ele>52.0078125</ele>
      </trkpt>
      <trkpt lat="45.22761" lon="0.02859">
        <ele>51.54296875</ele>
      </trkpt>
      <trkpt lat="45.22738" lon="0.02864">
        <ele>51.09375</ele>
      </trkpt>
      <trkpt lat="45.22715" lon="0.02867">
        <ele>50.37109375</ele>
      </trkpt>
      <trkpt lat="45.22692" lon="0.02868">
        <ele>49.7578125</ele>
      </trkpt>
      <trkpt lat="45.22669" lon="0.02865">
        <ele>48.50390625</ele>
      </trkpt>
      <trkpt lat="45.22642" lon="0.02854">
        <ele>47.33203125</ele>
      </trkpt>
      <trkpt lat="45.22619" lon="0.02845">
        <ele>46.22265625</ele>
      </trkpt>
      <trkpt lat="45.22615" lon="0.02866">
        <ele>44.8125</ele>
      </trkpt>
      <trkpt lat="45.22606" lon="0.02904">
        <ele>42.296875</ele>
      </trkpt>
      <trkpt lat="45.22595" lon="0.02927">
        <ele>40.6015625</ele>
      </trkpt>
      <trkpt lat="45.22584" lon="0.02946">
        <ele>39.18359375</ele>
      </trkpt>
      <trkpt lat="45.22572" lon="0.02963">
        <ele>38.08984375</ele>
      </trkpt>
      <trkpt lat="45.22564" lon="0.02984">
        <ele>37.1875</ele>
      </trkpt>
      <trkpt lat="45.22564" lon="0.03002">
        <ele>36.6953125</ele>
      </trkpt>
      <trkpt lat="45.22567" lon="0.03034">
        <ele>36.28515625</ele>
      </trkpt>
      <trkpt lat="45.22564" lon="0.03059">
        <ele>35.90625</ele>
      </trkpt>
      <trkpt lat="45.22557" lon="0.03075">
        <ele>35.625</ele>
      </trkpt>
      <trkpt lat="45.22554" lon="0.03084">
        <ele>35.45703125</ele>
      </trkpt>
      <trkpt lat="45.22553" lon="0.03104">
        <ele>35.09375</ele>
      </trkpt>
      <trkpt lat="45.22548" lon="0.03142">
        <ele>34.41015625</ele>
      </trkpt>
      <trkpt lat="45.22549" lon="0.0315">
        <ele>34.26953125</ele>
      </trkpt>
      <trkpt lat="45.22555" lon="0.03159">
        <ele>34.1015625</ele>
      </trkpt>
      <trkpt lat="45.22567" lon="0.03167">
        <ele>33.953125</ele>
      </trkpt>
      <trkpt lat="45.22578" lon="0.03173">
        <ele>33.85546875</ele>
      </trkpt>
      <trkpt lat="45.22594" lon="0.03178">
        <ele>33.69921875</ele>
      </trkpt>
      <trkpt lat="45.22609" lon="0.03179">
        <ele>33.59765625</ele>
      </trkpt>
      <trkpt lat="45.22626" lon="0.03179">
        <ele>33.51953125</ele>
      </trkpt>
      <trkpt lat="45.22646" lon="0.03176">
        <ele>33.5859375</ele>
      </trkpt>
      <trkpt lat="45.22663" lon="0.03169">
        <ele>33.83984375</ele>
      </trkpt>
      <trkpt lat="45.22684" lon="0.03159">
        <ele>34.1953125</ele>
      </trkpt>
      <trkpt lat="45.22698" lon="0.03152">
        <ele>34.3203125</ele>
      </trkpt>
      <trkpt lat="45.22711" lon="0.0315">
        <ele>34.24609375</ele>
      </trkpt>
      <trkpt lat="45.22728" lon="0.03149">
        <ele>34.0390625</ele>
      </trkpt>
      <trkpt lat="45.22746" lon="0.03153">
        <ele>33.64453125</ele>
      </trkpt>
      <trkpt lat="45.22758" lon="0.03157">
        <ele>33.43359375</ele>
      </trkpt>
      <trkpt lat="45.22774" lon="0.03168">
        <ele>32.90234375</ele>
      </trkpt>
      <trkpt lat="45.22782" lon="0.03177">
        <ele>32.71875</ele>
      </trkpt>
      <trkpt lat="45.2279" lon="0.03191">
        <ele>32.44921875</ele>
      </trkpt>
      <trkpt lat="45.22796" lon="0.03208">
        <ele>32.16015625</ele>
      </trkpt>
      <trkpt lat="45.22797" lon="0.03223">
        <ele>31.9453125</ele>
      </trkpt>
      <trkpt lat="45.22796" lon="0.03234">
        <ele>31.9375</ele>
      </trkpt>
      <trkpt lat="45.22795" lon="0.03266">
        <ele>31.9140625</ele>
      </trkpt>
      <trkpt lat="45.22793" lon="0.03324">
        <ele>31.98046875</ele>
      </trkpt>
      <trkpt lat="45.2279" lon="0.03408">
        <ele>32.37890625</ele>
      </trkpt>
      <trkpt lat="45.22785" lon="0.03458">
        <ele>33.77734375</ele>
      </trkpt>
      <trkpt lat="45.22783" lon="0.03483">
        <ele>34.984375</ele>
      </trkpt>
      <trkpt lat="45.22783" lon="0.03507">
        <ele>36.515625</ele>
      </trkpt>
      <trkpt lat="45.22786" lon="0.03523">
        <ele>37.9609375</ele>
      </trkpt>
      <trkpt lat="45.2279" lon="0.0353">
        <ele>38.671875</ele>
      </trkpt>
      <trkpt lat="45.22797" lon="0.03535">
        <ele>39.28515625</ele>
      </trkpt>
      <trkpt lat="45.22814" lon="0.03538">
        <ele>39.65234375</ele>
      </trkpt>
      <trkpt lat="45.2283" lon="0.03541">
        <ele>39.859375</ele>
      </trkpt>
      <trkpt lat="45.22841" lon="0.03545">
        <ele>40.28125</ele>
      </trkpt>
      <trkpt lat="45.22792" lon="0.03554">
        <ele>41.0078125</ele>
      </trkpt>
      <trkpt lat="45.22789" lon="0.03564">
        <ele>42.51171875</ele>
      </trkpt>
      <trkpt lat="45.22775" lon="0.0358">
        <ele>44.59375</ele>
      </trkpt>
      <trkpt lat="45.22759" lon="0.03588">
        <ele>45.328125</ele>
      </trkpt>
      <trkpt lat="45.22747" lon="0.03593">
        <ele>45.82421875</ele>
      </trkpt>
      <trkpt lat="45.22741" lon="0.03597">
        <ele>46.1484375</ele>
      </trkpt>
      <trkpt lat="45.22737" lon="0.03603">
        <ele>46.83984375</ele>
      </trkpt>
      <trkpt lat="45.22738" lon="0.0361">
        <ele>47.8984375</ele>
      </trkpt>
      <trkpt lat="45.22744" lon="0.03617">
        <ele>48.8359375</ele>
      </trkpt>
      <trkpt lat="45.2275" lon="0.03623">
        <ele>49.72265625</ele>
      </trkpt>
      <trkpt lat="45.22761" lon="0.03634">
        <ele>51.1640625</ele>
      </trkpt>
      <trkpt lat="45.22763" lon="0.03643">
        <ele>52.140625</ele>
      </trkpt>
      <trkpt lat="45.22765" lon="0.03663">
        <ele>54.24609375</ele>
      </trkpt>
      <trkpt lat="45.22766" lon="0.0369">
        <ele>55.7578125</ele>
      </trkpt>
      <trkpt lat="45.22776" lon="0.03779">
        <ele>58.57421875</ele>
      </trkpt>
      <trkpt lat="45.22782" lon="0.03843">
        <ele>58.4609375</ele>
      </trkpt>
      <trkpt lat="45.22786" lon="0.03885">
        <ele>57.78125</ele>
      </trkpt>
      <trkpt lat="45.22786" lon="0.03894">
        <ele>57.77734375</ele>
      </trkpt>
      <trkpt lat="45.2279" lon="0.03942">
        <ele>58</ele>
      </trkpt>
      <trkpt lat="45.22795" lon="0.04004">
        <ele>58.109375</ele>
      </trkpt>
      <trkpt lat="45.22799" lon="0.04051">
        <ele>58.9609375</ele>
      </trkpt>
      <trkpt lat="45.22799" lon="0.04082">
        <ele>59.515625</ele>
      </trkpt>
      <trkpt lat="45.22801" lon="0.04091">
        <ele>59.7109375</ele>
      </trkpt>
      <trkpt lat="45.22797" lon="0.04104">
        <ele>59.85546875</ele>
      </trkpt>
      <trkpt lat="45.22806" lon="0.04114">
        <ele>60.30078125</ele>
      </trkpt>
      <trkpt lat="45.22816" lon="0.04137">
        <ele>61.09765625</ele>
      </trkpt>
      <trkpt lat="45.22826" lon="0.04172">
        <ele>61.99609375</ele>
      </trkpt>
      <trkpt lat="45.2283" lon="0.04189">
        <ele>62.2890625</ele>
      </trkpt>
      <trkpt lat="45.22848" lon="0.04221">
        <ele>62.88671875</ele>
      </trkpt>
      <trkpt lat="45.22863" lon="0.04241">
        <ele>63.6640625</ele>
      </trkpt>
      <trkpt lat="45.22874" lon="0.04253">
        <ele>64.2734375</ele>
      </trkpt>
      <trkpt lat="45.22883" lon="0.0427">
        <ele>64.90625</ele>
      </trkpt>
      <trkpt lat="45.22896" lon="0.04305">
        <ele>65.98046875</ele>
      </trkpt>
      <trkpt lat="45.22909" lon="0.04371">
        <ele>66.90234375</ele>
      </trkpt>
      <trkpt lat="45.22915" lon="0.04415">
        <ele>67.16015625</ele>
      </trkpt>
      <trkpt lat="45.22944" lon="0.04405">
        <ele>67.9921875</ele>
      </trkpt>
      <trkpt lat="45.22973" lon="0.04394">
        <ele>68.6171875</ele>
      </trkpt>
      <trkpt lat="45.23002" lon="0.04386">
        <ele>69.91796875</ele>
      </trkpt>
      <trkpt lat="45.23036" lon="0.04375">
        <ele>71.76171875</ele>
      </trkpt>
      <trkpt lat="45.23061" lon="0.0436">
        <ele>73.09765625</ele>
      </trkpt>
      <trkpt lat="45.23091" lon="0.04339">
        <ele>74.2734375</ele>
      </trkpt>
      <trkpt lat="45.23109" lon="0.04327">
        <ele>74.515625</ele>
      </trkpt>
      <trkpt lat="45.23123" lon="0.04322">
        <ele>74.66015625</ele>
      </trkpt>
      <trkpt lat="45.2314" lon="0.04323">
        <ele>74.7265625</ele>
      </trkpt>
      <trkpt lat="45.23153" lon="0.04325">
        <ele>74.52734375</ele>
      </trkpt>
      <trkpt lat="45.23158" lon="0.04321">
        <ele>74.37109375</ele>
      </trkpt>
      <trkpt lat="45.23162" lon="0.04283">
        <ele>73.62890625</ele>
      </trkpt>
      <trkpt lat="45.23169" lon="0.04233">
        <ele>72.109375</ele>
      </trkpt>
      <trkpt lat="45.23185" lon="0.04172">
        <ele>69.42578125</ele>
      </trkpt>
      <trkpt lat="45.23193" lon="0.04142">
        <ele>67.1328125</ele>
      </trkpt>
      <trkpt lat="45.23205" lon="0.0411">
        <ele>63.48046875</ele>
      </trkpt>
      <trkpt lat="45.23213" lon="0.04079">
        <ele>60.96875</ele>
      </trkpt>
      <trkpt lat="45.23218" lon="0.04049">
        <ele>58.953125</ele>
      </trkpt>
      <trkpt lat="45.23218" lon="0.04035">
        <ele>58.14453125</ele>
      </trkpt>
      <trkpt lat="45.23216" lon="0.03985">
        <ele>55.921875</ele>
      </trkpt>
      <trkpt lat="45.23214" lon="0.03948">
        <ele>54.546875</ele>
      </trkpt>
      <trkpt lat="45.23214" lon="0.03929">
        <ele>54.02734375</ele>
      </trkpt>
      <trkpt lat="45.23218" lon="0.03915">
        <ele>53.26171875</ele>
      </trkpt>
      <trkpt lat="45.23224" lon="0.039">
        <ele>52.08984375</ele>
      </trkpt>
      <trkpt lat="45.23245" lon="0.03871">
        <ele>48.95703125</ele>
      </trkpt>
      <trkpt lat="45.23267" lon="0.03842">
        <ele>46.9765625</ele>
      </trkpt>
      <trkpt lat="45.23277" lon="0.03829">
        <ele>46.015625</ele>
      </trkpt>
      <trkpt lat="45.23286" lon="0.03822">
        <ele>45.08984375</ele>
      </trkpt>
      <trkpt lat="45.23287" lon="0.03808">
        <ele>44.671875</ele>
      </trkpt>
      <trkpt lat="45.23287" lon="0.03797">
        <ele>44.51171875</ele>
      </trkpt>
      <trkpt lat="45.23283" lon="0.03781">
        <ele>44.59765625</ele>
      </trkpt>
      <trkpt lat="45.23282" lon="0.03769">
        <ele>44.3203125</ele>
      </trkpt>
      <trkpt lat="45.23292" lon="0.03782">
        <ele>43.7890625</ele>
        <time>2015-05-13T14:12:23Z</time>
      </trkpt>
      <trkpt lat="45.23311" lon="0.03802">
        <ele>43.0546875</ele>
        <time>2015-05-13T14:12:28Z</time>
      </trkpt>
      <trkpt lat="45.23323" lon="0.03811">
        <ele>42.8046875</ele>
        <time>2015-05-13T14:12:30Z</time>
      </trkpt>
      <trkpt lat="45.2333" lon="0.03815">
        <ele>42.625</ele>
        <time>2015-05-13T14:12:31Z</time>
      </trkpt>
      <trkpt lat="45.23337" lon="0.03817">
        <ele>42.3984375</ele>
        <time>2015-05-13T14:12:32Z</time>
      </trkpt>
      <trkpt lat="45.23345" lon="0.03817">
        <ele>42.1171875</ele>
        <time>2015-05-13T14:12:33Z</time>
      </trkpt>
      <trkpt lat="45.23353" lon="0.03815">
        <ele>41.80078125</ele>
        <time>2015-05-13T14:12:34Z</time>
      </trkpt>
      <trkpt lat="45.2336" lon="0.03813">
        <ele>42.0234375</ele>
        <time>2015-05-13T14:12:35Z</time>
      </trkpt>
      <trkpt lat="45.23367" lon="0.03812">
        <ele>42.47265625</ele>
        <time>2015-05-13T14:12:36Z</time>
      </trkpt>
      <trkpt lat="45.23374" lon="0.03812">
        <ele>42.9296875</ele>
        <time>2015-05-13T14:12:37Z</time>
      </trkpt>
      <trkpt lat="45.23381" lon="0.03813">
        <ele>43.39453125</ele>
        <time>2015-05-13T14:12:38Z</time>
      </trkpt>
      <trkpt lat="45.23387" lon="0.03816">
        <ele>43.86328125</ele>
        <time>2015-05-13T14:12:39Z</time>
      </trkpt>
      <trkpt lat="45.23393" lon="0.03819">
        <ele>44.33203125</ele>
        <time>2015-05-13T14:12:40Z</time>
      </trkpt>
      <trkpt lat="45.23414" lon="0.03833">
        <ele>46.484375</ele>
        <time>2015-05-13T14:12:45Z</time>
      </trkpt>
      <trkpt lat="45.23427" lon="0.0384">
        <ele>48.671875</ele>
        <time>2015-05-13T14:12:51Z</time>
      </trkpt>
      <trkpt lat="45.23443" lon="0.03852">
        <ele>51.5390625</ele>
        <time>2015-05-13T14:12:59Z</time>
      </trkpt>
      <trkpt lat="45.23455" lon="0.03848">
        <ele>53.25390625</ele>
        <time>2015-05-13T14:13:06Z</time>
      </trkpt>
      <trkpt lat="45.23468" lon="0.0385">
        <ele>55.328125</ele>
        <time>2015-05-13T14:13:14Z</time>
      </trkpt>
      <trkpt lat="45.23483" lon="0.03853">
        <ele>57.3671875</ele>
        <time>2015-05-13T14:13:23Z</time>
      </trkpt>
      <trkpt lat="45.23494" lon="0.03852">
        <ele>58.8984375</ele>
        <time>2015-05-13T14:13:31Z</time>
      </trkpt>
      <trkpt lat="45.23504" lon="0.0385">
        <ele>60.06640625</ele>
        <time>2015-05-13T14:13:39Z</time>
      </trkpt>
      <trkpt lat="45.23513" lon="0.03849">
        <ele>61.1875</ele>
        <time>2015-05-13T14:13:47Z</time>
      </trkpt>
      <trkpt lat="45.23524" lon="0.03846">
        <ele>62.19140625</ele>
        <time>2015-05-13T14:13:55Z</time>
      </trkpt>
      <trkpt lat="45.23527" lon="0.03844">
        <ele>62.22265625</ele>
        <time>2015-05-13T14:13:57Z</time>
      </trkpt>
      <trkpt lat="45.23537" lon="0.03844">
        <ele>62.82421875</ele>
        <time>2015-05-13T14:14:06Z</time>
      </trkpt>
      <trkpt lat="45.23541" lon="0.03848">
        <ele>63.37109375</ele>
        <time>2015-05-13T14:14:10Z</time>
      </trkpt>
      <trkpt lat="45.23546" lon="0.03864">
        <ele>64.89453125</ele>
        <time>2015-05-13T14:14:20Z</time>
      </trkpt>
      <trkpt lat="45.23547" lon="0.03877">
        <ele>66.109375</ele>
        <time>2015-05-13T14:14:27Z</time>
      </trkpt>
      <trkpt lat="45.2355" lon="0.03895">
        <ele>67.58203125</ele>
        <time>2015-05-13T14:14:36Z</time>
      </trkpt>
      <trkpt lat="45.23559" lon="0.03909">
        <ele>69.1640625</ele>
        <time>2015-05-13T14:14:44Z</time>
      </trkpt>
      <trkpt lat="45.23567" lon="0.03924">
        <ele>70.8359375</ele>
        <time>2015-05-13T14:14:52Z</time>
      </trkpt>
      <trkpt lat="45.23575" lon="0.03949">
        <ele>73.06640625</ele>
        <time>2015-05-13T14:15:00Z</time>
      </trkpt>
      <trkpt lat="45.23583" lon="0.03985">
        <ele>74.65625</ele>
        <time>2015-05-13T14:15:09Z</time>
      </trkpt>
      <trkpt lat="45.23592" lon="0.04015">
        <ele>75.49609375</ele>
        <time>2015-05-13T14:15:17Z</time>
      </trkpt>
      <trkpt lat="45.23602" lon="0.04034">
        <ele>76.09375</ele>
        <time>2015-05-13T14:15:23Z</time>
      </trkpt>
      <trkpt lat="45.23609" lon="0.0407">
        <ele>76.734375</ele>
        <time>2015-05-13T14:15:31Z</time>
      </trkpt>
      <trkpt lat="45.23618" lon="0.041">
        <ele>77.5</ele>
        <time>2015-05-13T14:15:38Z</time>
      </trkpt>
      <trkpt lat="45.23629" lon="0.04135">
        <ele>77.5390625</ele>
        <time>2015-05-13T14:15:46Z</time>
      </trkpt>
      <trkpt lat="45.2364" lon="0.04173">
        <ele>77.33984375</ele>
        <time>2015-05-13T14:15:55Z</time>
      </trkpt>
      <trkpt lat="45.23646" lon="0.04198">
        <ele>76.9453125</ele>
        <time>2015-05-13T14:16:01Z</time>
      </trkpt>
      <trkpt lat="45.23662" lon="0.04233">
        <ele>77.5859375</ele>
        <time>2015-05-13T14:16:09Z</time>
      </trkpt>
      <trkpt lat="45.23674" lon="0.04258">
        <ele>78.42578125</ele>
        <time>2015-05-13T14:16:15Z</time>
      </trkpt>
      <trkpt lat="45.23693" lon="0.04292">
        <ele>79.20703125</ele>
        <time>2015-05-13T14:16:24Z</time>
      </trkpt>
      <trkpt lat="45.23707" lon="0.04322">
        <ele>78.328125</ele>
        <time>2015-05-13T14:16:32Z</time>
      </trkpt>
      <trkpt lat="45.23718" lon="0.04358">
        <ele>77.15625</ele>
        <time>2015-05-13T14:16:41Z</time>
      </trkpt>
      <trkpt lat="45.23735" lon="0.04382">
        <ele>76.796875</ele>
        <time>2015-05-13T14:16:47Z</time>
      </trkpt>
      <trkpt lat="45.23745" lon="0.04389">
        <ele>76.8046875</ele>
        <time>2015-05-13T14:16:50Z</time>
      </trkpt>
      <trkpt lat="45.23762" lon="0.04425">
        <ele>74.34375</ele>
        <time>2015-05-13T14:16:55Z</time>
      </trkpt>
      <trkpt lat="45.23775" lon="0.04472">
        <ele>70.3203125</ele>
        <time>2015-05-13T14:17:01Z</time>
      </trkpt>
      <trkpt lat="45.23778" lon="0.04476">
        <ele>69.9453125</ele>
        <time>2015-05-13T14:17:02Z</time>
      </trkpt>
      <trkpt lat="45.23782" lon="0.04479">
        <ele>69.671875</ele>
        <time>2015-05-13T14:17:03Z</time>
      </trkpt>
      <trkpt lat="45.23802" lon="0.04487">
        <ele>68.9140625</ele>
        <time>2015-05-13T14:17:08Z</time>
      </trkpt>
      <trkpt lat="45.23821" lon="0.0449">
        <ele>68.2578125</ele>
        <time>2015-05-13T14:17:12Z</time>
      </trkpt>
      <trkpt lat="45.23847" lon="0.04491">
        <ele>67.75</ele>
        <time>2015-05-13T14:17:19Z</time>
      </trkpt>
      <trkpt lat="45.23869" lon="0.04489">
        <ele>67.97265625</ele>
        <time>2015-05-13T14:17:25Z</time>
      </trkpt>
      <trkpt lat="45.23889" lon="0.04487">
        <ele>68.4375</ele>
        <time>2015-05-13T14:17:31Z</time>
      </trkpt>
      <trkpt lat="45.23909" lon="0.0449">
        <ele>68.5</ele>
        <time>2015-05-13T14:17:37Z</time>
      </trkpt>
      <trkpt lat="45.23927" lon="0.04491">
        <ele>68.43359375</ele>
        <time>2015-05-13T14:17:42Z</time>
      </trkpt>
      <trkpt lat="45.23946" lon="0.04483">
        <ele>69.00390625</ele>
        <time>2015-05-13T14:17:48Z</time>
      </trkpt>
      <trkpt lat="45.23965" lon="0.04474">
        <ele>69.67578125</ele>
        <time>2015-05-13T14:17:54Z</time>
      </trkpt>
      <trkpt lat="45.23988" lon="0.0447">
        <ele>70.76171875</ele>
        <time>2015-05-13T14:18:01Z</time>
      </trkpt>
      <trkpt lat="45.2401" lon="0.04468">
        <ele>71.62890625</ele>
        <time>2015-05-13T14:18:07Z</time>
      </trkpt>
      <trkpt lat="45.24036" lon="0.04472">
        <ele>72.43359375</ele>
        <time>2015-05-13T14:18:14Z</time>
      </trkpt>
      <trkpt lat="45.24039" lon="0.04474">
        <ele>72.48828125</ele>
        <time>2015-05-13T14:18:15Z</time>
      </trkpt>
      <trkpt lat="45.24043" lon="0.04477">
        <ele>72.515625</ele>
        <time>2015-05-13T14:18:16Z</time>
      </trkpt>
      <trkpt lat="45.24046" lon="0.0448">
        <ele>72.515625</ele>
        <time>2015-05-13T14:18:17Z</time>
      </trkpt>
      <trkpt lat="45.24049" lon="0.04483">
        <ele>72.48828125</ele>
        <time>2015-05-13T14:18:18Z</time>
      </trkpt>
      <trkpt lat="45.24052" lon="0.04487">
        <ele>72.44921875</ele>
        <time>2015-05-13T14:18:19Z</time>
      </trkpt>
      <trkpt lat="45.24055" lon="0.04491">
        <ele>72.4140625</ele>
        <time>2015-05-13T14:18:20Z</time>
      </trkpt>
      <trkpt lat="45.24058" lon="0.04496">
        <ele>72.3671875</ele>
        <time>2015-05-13T14:18:21Z</time>
      </trkpt>
      <trkpt lat="45.24061" lon="0.04501">
        <ele>72.30078125</ele>
        <time>2015-05-13T14:18:22Z</time>
      </trkpt>
      <trkpt lat="45.24063" lon="0.04505">
        <ele>72.22265625</ele>
        <time>2015-05-13T14:18:23Z</time>
      </trkpt>
      <trkpt lat="45.24077" lon="0.0453">
        <ele>71.828125</ele>
        <time>2015-05-13T14:18:29Z</time>
      </trkpt>
      <trkpt lat="45.24097" lon="0.0454">
        <ele>72.265625</ele>
        <time>2015-05-13T14:18:36Z</time>
      </trkpt>
      <trkpt lat="45.24113" lon="0.04539">
        <ele>72.94921875</ele>
        <time>2015-05-13T14:18:43Z</time>
      </trkpt>
      <trkpt lat="45.24124" lon="0.04528">
        <ele>73.953125</ele>
        <time>2015-05-13T14:18:50Z</time>
      </trkpt>
      <trkpt lat="45.24134" lon="0.04517">
        <ele>75</ele>
        <time>2015-05-13T14:18:57Z</time>
      </trkpt>
      <trkpt lat="45.24149" lon="0.04514">
        <ele>75.7109375</ele>
        <time>2015-05-13T14:19:05Z</time>
      </trkpt>
      <trkpt lat="45.24169" lon="0.04523">
        <ele>75.921875</ele>
        <time>2015-05-13T14:19:13Z</time>
      </trkpt>
      <trkpt lat="45.24197" lon="0.04536">
        <ele>76.296875</ele>
        <time>2015-05-13T14:19:21Z</time>
      </trkpt>
      <trkpt lat="45.24226" lon="0.04558">
        <ele>76.11328125</ele>
        <time>2015-05-13T14:19:28Z</time>
      </trkpt>
      <trkpt lat="45.24231" lon="0.04563">
        <ele>76.015625</ele>
        <time>2015-05-13T14:19:29Z</time>
      </trkpt>
      <trkpt lat="45.24269" lon="0.04602">
        <ele>75.734375</ele>
        <time>2015-05-13T14:19:38Z</time>
      </trkpt>
      <trkpt lat="45.24304" lon="0.04633">
        <ele>75.6640625</ele>
        <time>2015-05-13T14:19:47Z</time>
      </trkpt>
      <trkpt lat="45.24332" lon="0.04666">
        <ele>75.828125</ele>
        <time>2015-05-13T14:19:55Z</time>
      </trkpt>
      <trkpt lat="45.24345" lon="0.04685">
        <ele>75.74609375</ele>
        <time>2015-05-13T14:19:59Z</time>
      </trkpt>
      <trkpt lat="45.24349" lon="0.04689">
        <ele>75.77734375</ele>
        <time>2015-05-13T14:20:00Z</time>
      </trkpt>
      <trkpt lat="45.24382" lon="0.04719">
        <ele>76.0234375</ele>
        <time>2015-05-13T14:20:09Z</time>
      </trkpt>
      <trkpt lat="45.24392" lon="0.04728">
        <ele>76.35546875</ele>
        <time>2015-05-13T14:20:12Z</time>
      </trkpt>
      <trkpt lat="45.24428" lon="0.04744">
        <ele>77.56640625</ele>
        <time>2015-05-13T14:20:21Z</time>
      </trkpt>
      <trkpt lat="45.24432" lon="0.04746">
        <ele>77.6953125</ele>
        <time>2015-05-13T14:20:22Z</time>
      </trkpt>
      <trkpt lat="45.24469" lon="0.04762">
        <ele>79.3671875</ele>
        <time>2015-05-13T14:20:32Z</time>
      </trkpt>
      <trkpt lat="45.24497" lon="0.04775">
        <ele>80.1328125</ele>
        <time>2015-05-13T14:20:40Z</time>
      </trkpt>
      <trkpt lat="45.2452" lon="0.0478">
        <ele>80.94140625</ele>
      </trkpt>
      <trkpt lat="45.24527" lon="0.04777">
        <ele>81.20703125</ele>
        <time>2015-05-13T14:20:49Z</time>
      </trkpt>
      <trkpt lat="45.24535" lon="0.04769">
        <ele>81.53515625</ele>
        <time>2015-05-13T14:20:55Z</time>
      </trkpt>
      <trkpt lat="45.24549" lon="0.04749">
        <ele>81.76953125</ele>
        <time>2015-05-13T14:21:01Z</time>
      </trkpt>
      <trkpt lat="45.24585" lon="0.0476">
        <ele>82.45703125</ele>
        <time>2015-05-13T14:21:08Z</time>
      </trkpt>
      <trkpt lat="45.24618" lon="0.04776">
        <ele>83.01953125</ele>
        <time>2015-05-13T14:21:16Z</time>
      </trkpt>
      <trkpt lat="45.24622" lon="0.04778">
        <ele>83.0859375</ele>
        <time>2015-05-13T14:21:17Z</time>
      </trkpt>
      <trkpt lat="45.24626" lon="0.0478">
        <ele>83.17578125</ele>
        <time>2015-05-13T14:21:18Z</time>
      </trkpt>
      <trkpt lat="45.24651" lon="0.04802">
        <ele>84.15625</ele>
        <time>2015-05-13T14:21:26Z</time>
      </trkpt>
      <trkpt lat="45.24677" lon="0.04827">
        <ele>85.640625</ele>
        <time>2015-05-13T14:21:35Z</time>
      </trkpt>
      <trkpt lat="45.24692" lon="0.04844">
        <ele>86.44921875</ele>
        <time>2015-05-13T14:21:41Z</time>
      </trkpt>
      <trkpt lat="45.24693" lon="0.04849">
        <ele>86.59375</ele>
        <time>2015-05-13T14:21:42Z</time>
      </trkpt>
      <trkpt lat="45.24693" lon="0.04853">
        <ele>86.7578125</ele>
        <time>2015-05-13T14:21:43Z</time>
      </trkpt>
      <trkpt lat="45.24692" lon="0.04857">
        <ele>86.9296875</ele>
        <time>2015-05-13T14:21:44Z</time>
      </trkpt>
      <trkpt lat="45.24691" lon="0.04861">
        <ele>87.0859375</ele>
        <time>2015-05-13T14:21:45Z</time>
      </trkpt>
      <trkpt lat="45.2469" lon="0.04865">
        <ele>87.2421875</ele>
        <time>2015-05-13T14:21:46Z</time>
      </trkpt>
      <trkpt lat="45.24689" lon="0.0487">
        <ele>87.40625</ele>
        <time>2015-05-13T14:21:47Z</time>
      </trkpt>
      <trkpt lat="45.24685" lon="0.04902">
        <ele>88.4453125</ele>
        <time>2015-05-13T14:21:54Z</time>
      </trkpt>
      <trkpt lat="45.24686" lon="0.04906">
        <ele>88.6640625</ele>
        <time>2015-05-13T14:21:55Z</time>
      </trkpt>
      <trkpt lat="45.24689" lon="0.04909">
        <ele>88.875</ele>
        <time>2015-05-13T14:21:56Z</time>
      </trkpt>
      <trkpt lat="45.24692" lon="0.04912">
        <ele>89.05078125</ele>
        <time>2015-05-13T14:21:57Z</time>
      </trkpt>
      <trkpt lat="45.24721" lon="0.04928">
        <ele>90.90625</ele>
        <time>2015-05-13T14:22:07Z</time>
      </trkpt>
      <trkpt lat="45.24752" lon="0.04946">
        <ele>93.41796875</ele>
        <time>2015-05-13T14:22:18Z</time>
      </trkpt>
      <trkpt lat="45.24771" lon="0.04958">
        <ele>94.65625</ele>
        <time>2015-05-13T14:22:26Z</time>
      </trkpt>
      <trkpt lat="45.24798" lon="0.04974">
        <ele>96.90234375</ele>
        <time>2015-05-13T14:22:37Z</time>
      </trkpt>
      <trkpt lat="45.24807" lon="0.04986">
        <ele>98.1875</ele>
        <time>2015-05-13T14:22:42Z</time>
      </trkpt>
      <trkpt lat="45.24806" lon="0.0499">
        <ele>98.48046875</ele>
        <time>2015-05-13T14:22:43Z</time>
      </trkpt>
      <trkpt lat="45.24804" lon="0.04993">
        <ele>98.6953125</ele>
        <time>2015-05-13T14:22:44Z</time>
      </trkpt>
      <trkpt lat="45.24786" lon="0.05011">
        <ele>99.43359375</ele>
        <time>2015-05-13T14:22:51Z</time>
      </trkpt>
      <trkpt lat="45.24758" lon="0.05055">
        <ele>99.73828125</ele>
        <time>2015-05-13T14:23:00Z</time>
      </trkpt>
      <trkpt lat="45.24729" lon="0.05107">
        <ele>99.12890625</ele>
        <time>2015-05-13T14:23:08Z</time>
      </trkpt>
      <trkpt lat="45.24691" lon="0.05168">
        <ele>96.80859375</ele>
        <time>2015-05-13T14:23:17Z</time>
      </trkpt>
      <trkpt lat="45.24688" lon="0.05176">
        <ele>96.6484375</ele>
        <time>2015-05-13T14:23:18Z</time>
      </trkpt>
      <trkpt lat="45.24685" lon="0.05184">
        <ele>96.66015625</ele>
        <time>2015-05-13T14:23:19Z</time>
      </trkpt>
      <trkpt lat="45.24682" lon="0.05192">
        <ele>96.74609375</ele>
        <time>2015-05-13T14:23:20Z</time>
      </trkpt>
      <trkpt lat="45.2468" lon="0.052">
        <ele>96.91015625</ele>
        <time>2015-05-13T14:23:21Z</time>
      </trkpt>
      <trkpt lat="45.2468" lon="0.05208">
        <ele>97.16015625</ele>
        <time>2015-05-13T14:23:22Z</time>
      </trkpt>
      <trkpt lat="45.24679" lon="0.05215">
        <ele>97.4375</ele>
        <time>2015-05-13T14:23:23Z</time>
      </trkpt>
      <trkpt lat="45.24679" lon="0.05222">
        <ele>97.58984375</ele>
        <time>2015-05-13T14:23:24Z</time>
      </trkpt>
      <trkpt lat="45.24685" lon="0.05279">
        <ele>98.6171875</ele>
        <time>2015-05-13T14:23:33Z</time>
      </trkpt>
      <trkpt lat="45.24699" lon="0.05322">
        <ele>101.21875</ele>
        <time>2015-05-13T14:23:41Z</time>
      </trkpt>
      <trkpt lat="45.24705" lon="0.05359">
        <ele>103.18359375</ele>
        <time>2015-05-13T14:23:49Z</time>
      </trkpt>
      <trkpt lat="45.24702" lon="0.05385">
        <ele>103.36328125</ele>
        <time>2015-05-13T14:23:55Z</time>
      </trkpt>
      <trkpt lat="45.24694" lon="0.05422">
        <ele>105.1640625</ele>
        <time>2015-05-13T14:24:05Z</time>
      </trkpt>
      <trkpt lat="45.24678" lon="0.05451">
        <ele>106.203125</ele>
        <time>2015-05-13T14:24:14Z</time>
      </trkpt>
      <trkpt lat="45.24669" lon="0.05483">
        <ele>108.60546875</ele>
        <time>2015-05-13T14:24:22Z</time>
      </trkpt>
      <trkpt lat="45.24655" lon="0.05509">
        <ele>109.83203125</ele>
        <time>2015-05-13T14:24:30Z</time>
      </trkpt>
      <trkpt lat="45.24643" lon="0.05525">
        <ele>110.2265625</ele>
        <time>2015-05-13T14:24:38Z</time>
      </trkpt>
      <trkpt lat="45.24638" lon="0.05533">
        <ele>110.5859375</ele>
        <time>2015-05-13T14:24:42Z</time>
      </trkpt>
      <trkpt lat="45.24637" lon="0.05551">
        <ele>112.33984375</ele>
        <time>2015-05-13T14:24:50Z</time>
      </trkpt>
      <trkpt lat="45.24638" lon="0.05565">
        <ele>113.7890625</ele>
        <time>2015-05-13T14:24:57Z</time>
      </trkpt>
      <trkpt lat="45.24638" lon="0.05582">
        <ele>115.26953125</ele>
        <time>2015-05-13T14:25:06Z</time>
      </trkpt>
      <trkpt lat="45.2464" lon="0.05592">
        <ele>116.2734375</ele>
        <time>2015-05-13T14:25:12Z</time>
      </trkpt>
      <trkpt lat="45.24641" lon="0.05605">
        <ele>117.5625</ele>
        <time>2015-05-13T14:25:20Z</time>
      </trkpt>
      <trkpt lat="45.24639" lon="0.05621">
        <ele>118.234375</ele>
        <time>2015-05-13T14:25:29Z</time>
      </trkpt>
      <trkpt lat="45.24639" lon="0.05623">
        <ele>118.28515625</ele>
        <time>2015-05-13T14:25:30Z</time>
      </trkpt>
      <trkpt lat="45.24638" lon="0.05625">
        <ele>118.34375</ele>
        <time>2015-05-13T14:25:31Z</time>
      </trkpt>
      <trkpt lat="45.24638" lon="0.05627">
        <ele>118.4296875</ele>
        <time>2015-05-13T14:25:32Z</time>
      </trkpt>
      <trkpt lat="45.24638" lon="0.05629">
        <ele>118.4921875</ele>
        <time>2015-05-13T14:25:33Z</time>
      </trkpt>
      <trkpt lat="45.24638" lon="0.05631">
        <ele>118.5703125</ele>
        <time>2015-05-13T14:25:34Z</time>
      </trkpt>
      <trkpt lat="45.24636" lon="0.05646">
        <ele>119.2421875</ele>
        <time>2015-05-13T14:25:42Z</time>
      </trkpt>
      <trkpt lat="45.24635" lon="0.05652">
        <ele>119.48828125</ele>
        <time>2015-05-13T14:25:45Z</time>
      </trkpt>
      <trkpt lat="45.24635" lon="0.05654">
        <ele>119.58984375</ele>
        <time>2015-05-13T14:25:46Z</time>
      </trkpt>
      <trkpt lat="45.24632" lon="0.0567">
        <ele>119.734375</ele>
        <time>2015-05-13T14:25:54Z</time>
      </trkpt>
      <trkpt lat="45.24622" lon="0.05681">
        <ele>119.07421875</ele>
        <time>2015-05-13T14:26:01Z</time>
      </trkpt>
      <trkpt lat="45.24621" lon="0.0568">
        <ele>119.03515625</ele>
        <time>2015-05-13T14:26:02Z</time>
      </trkpt>
      <trkpt lat="45.24616" lon="0.05685">
        <ele>118.7578125</ele>
        <time>2015-05-13T14:26:40Z</time>
      </trkpt>
      <trkpt lat="45.24617" lon="0.0569">
        <ele>118.61328125</ele>
        <time>2015-05-13T14:26:41Z</time>
      </trkpt>
      <trkpt lat="45.24617" lon="0.05693">
        <ele>118.5390625</ele>
        <time>2015-05-13T14:26:42Z</time>
      </trkpt>
      <trkpt lat="45.24609" lon="0.05695">
        <ele>118.26953125</ele>
        <time>2015-05-13T14:26:43Z</time>
      </trkpt>
      <trkpt lat="45.24602" lon="0.05696">
        <ele>118.05859375</ele>
        <time>2015-05-13T14:26:45Z</time>
      </trkpt>
      <trkpt lat="45.24577" lon="0.05696">
        <ele>117.4140625</ele>
        <time>2015-05-13T14:26:54Z</time>
      </trkpt>
      <trkpt lat="45.24563" lon="0.05695">
        <ele>117.38671875</ele>
        <time>2015-05-13T14:26:55Z</time>
      </trkpt>
      <trkpt lat="45.24542" lon="0.05693">
        <ele>117.421875</ele>
        <time>2015-05-13T14:26:58Z</time>
      </trkpt>
      <trkpt lat="45.24524" lon="0.0569">
        <ele>117.546875</ele>
        <time>2015-05-13T14:27:00Z</time>
      </trkpt>
      <trkpt lat="45.24502" lon="0.05688">
        <ele>117.85546875</ele>
        <time>2015-05-13T14:27:02Z</time>
      </trkpt>
      <trkpt lat="45.24489" lon="0.05688">
        <ele>118</ele>
        <time>2015-05-13T14:27:07Z</time>
      </trkpt>
      <trkpt lat="45.24474" lon="0.05692">
        <ele>117.8359375</ele>
        <time>2015-05-13T14:27:11Z</time>
      </trkpt>
      <trkpt lat="45.24456" lon="0.05696">
        <ele>117.37890625</ele>
        <time>2015-05-13T14:27:14Z</time>
      </trkpt>
      <trkpt lat="45.24442" lon="0.05701">
        <ele>116.734375</ele>
        <time>2015-05-13T14:27:18Z</time>
      </trkpt>
      <trkpt lat="45.24421" lon="0.05711">
        <ele>115.671875</ele>
        <time>2015-05-13T14:27:25Z</time>
      </trkpt>
      <trkpt lat="45.24397" lon="0.05725">
        <ele>114.16796875</ele>
        <time>2015-05-13T14:27:28Z</time>
      </trkpt>
      <trkpt lat="45.24384" lon="0.05733">
        <ele>113.2734375</ele>
        <time>2015-05-13T14:27:31Z</time>
      </trkpt>
      <trkpt lat="45.24372" lon="0.05739">
        <ele>112.51953125</ele>
        <time>2015-05-13T14:29:19Z</time>
      </trkpt>
      <trkpt lat="45.24357" lon="0.05738">
        <ele>112.33203125</ele>
        <time>2015-05-13T14:29:24Z</time>
      </trkpt>
      <trkpt lat="45.24337" lon="0.05732">
        <ele>112.28515625</ele>
        <time>2015-05-13T14:29:32Z</time>
      </trkpt>
      <trkpt lat="45.24316" lon="0.05721">
        <ele>112.44921875</ele>
        <time>2015-05-13T14:29:40Z</time>
      </trkpt>
      <trkpt lat="45.24291" lon="0.05718">
        <ele>111.46875</ele>
        <time>2015-05-13T14:29:43Z</time>
      </trkpt>
      <trkpt lat="45.24272" lon="0.05704">
        <ele>110.09765625</ele>
        <time>2015-05-13T14:29:48Z</time>
      </trkpt>
      <trkpt lat="45.24268" lon="0.05706">
        <ele>109.7265625</ele>
      </trkpt>
      <trkpt lat="45.24258" lon="0.05709">
        <ele>108.94921875</ele>
      </trkpt>
      <trkpt lat="45.24249" lon="0.05708">
        <ele>108.265625</ele>
      </trkpt>
      <trkpt lat="45.24243" lon="0.05709">
        <ele>107.78515625</ele>
      </trkpt>
      <trkpt lat="45.24236" lon="0.0571">
        <ele>107.234375</ele>
      </trkpt>
      <trkpt lat="45.2423" lon="0.05712">
        <ele>106.84765625</ele>
      </trkpt>
      <trkpt lat="45.24217" lon="0.0572">
        <ele>106.109375</ele>
      </trkpt>
      <trkpt lat="45.24198" lon="0.05728">
        <ele>104.82421875</ele>
      </trkpt>
      <trkpt lat="45.24178" lon="0.05737">
        <ele>103.671875</ele>
      </trkpt>
      <trkpt lat="45.24159" lon="0.05745">
        <ele>102.62109375</ele>
      </trkpt>
      <trkpt lat="45.24143" lon="0.0575">
        <ele>101.81640625</ele>
      </trkpt>
      <trkpt lat="45.2413" lon="0.05755">
        <ele>101.11328125</ele>
      </trkpt>
      <trkpt lat="45.24122" lon="0.05765">
        <ele>100.890625</ele>
      </trkpt>
      <trkpt lat="45.24115" lon="0.05781">
        <ele>100.8828125</ele>
      </trkpt>
      <trkpt lat="45.24104" lon="0.05808">
        <ele>100.85546875</ele>
      </trkpt>
      <trkpt lat="45.24093" lon="0.05831">
        <ele>100.87890625</ele>
      </trkpt>
      <trkpt lat="45.24088" lon="0.05842">
        <ele>100.77734375</ele>
      </trkpt>
      <trkpt lat="45.2408" lon="0.05852">
        <ele>100.55078125</ele>
      </trkpt>
      <trkpt lat="45.2407" lon="0.05876">
        <ele>100.5546875</ele>
      </trkpt>
      <trkpt lat="45.24079" lon="0.05898">
        <ele>100.828125</ele>
      </trkpt>
      <trkpt lat="45.24089" lon="0.05917">
        <ele>100.61328125</ele>
      </trkpt>
      <trkpt lat="45.24093" lon="0.05936">
        <ele>100.13671875</ele>
      </trkpt>
      <trkpt lat="45.241" lon="0.05956">
        <ele>98.4609375</ele>
      </trkpt>
      <trkpt lat="45.24116" lon="0.05956">
        <ele>98.6015625</ele>
      </trkpt>
      <trkpt lat="45.24136" lon="0.05951">
        <ele>98.99609375</ele>
      </trkpt>
      <trkpt lat="45.2417" lon="0.05945">
        <ele>98.23828125</ele>
      </trkpt>
      <trkpt lat="45.24188" lon="0.05943">
        <ele>97.7890625</ele>
      </trkpt>
      <trkpt lat="45.24209" lon="0.05943">
        <ele>96.26953125</ele>
      </trkpt>
      <trkpt lat="45.24226" lon="0.05948">
        <ele>94.31640625</ele>
      </trkpt>
      <trkpt lat="45.24243" lon="0.05955">
        <ele>91.80078125</ele>
      </trkpt>
      <trkpt lat="45.24263" lon="0.05962">
        <ele>88.87109375</ele>
      </trkpt>
      <trkpt lat="45.24275" lon="0.05966">
        <ele>87.28125</ele>
      </trkpt>
      <trkpt lat="45.24282" lon="0.05973">
        <ele>85.80859375</ele>
      </trkpt>
      <trkpt lat="45.2429" lon="0.05985">
        <ele>83.796875</ele>
      </trkpt>
      <trkpt lat="45.24297" lon="0.06005">
        <ele>81.48828125</ele>
        <time>2015-05-13T14:30:52Z</time>
      </trkpt>
      <trkpt lat="45.24307" lon="0.06036">
        <ele>78.94140625</ele>
        <time>2015-05-13T14:30:59Z</time>
      </trkpt>
      <trkpt lat="45.24314" lon="0.06057">
        <ele>77.35546875</ele>
        <time>2015-05-13T14:31:07Z</time>
      </trkpt>
      <trkpt lat="45.24332" lon="0.06109">
        <ele>73.359375</ele>
        <time>2015-05-13T14:31:15Z</time>
      </trkpt>
      <trkpt lat="45.2435" lon="0.0616">
        <ele>70.3125</ele>
        <time>2015-05-13T14:31:23Z</time>
      </trkpt>
      <trkpt lat="45.24354" lon="0.06178">
        <ele>69.49609375</ele>
        <time>2015-05-13T14:31:28Z</time>
      </trkpt>
      <trkpt lat="45.24358" lon="0.06208">
        <ele>68.36328125</ele>
        <time>2015-05-13T14:31:32Z</time>
      </trkpt>
      <trkpt lat="45.24365" lon="0.06282">
        <ele>66.046875</ele>
        <time>2015-05-13T14:31:40Z</time>
      </trkpt>
      <trkpt lat="45.24372" lon="0.06338">
        <ele>65.1015625</ele>
        <time>2015-05-13T14:31:41Z</time>
      </trkpt>
      <trkpt lat="45.24367" lon="0.06341">
        <ele>64.90234375</ele>
        <time>2015-05-13T14:31:46Z</time>
      </trkpt>
      <trkpt lat="45.24348" lon="0.06369">
        <ele>63.9921875</ele>
        <time>2015-05-13T14:31:54Z</time>
      </trkpt>
      <trkpt lat="45.24329" lon="0.06396">
        <ele>63.9140625</ele>
        <time>2015-05-13T14:32:02Z</time>
      </trkpt>
      <trkpt lat="45.243" lon="0.06428">
        <ele>63.6484375</ele>
        <time>2015-05-13T14:32:13Z</time>
      </trkpt>
      <trkpt lat="45.24274" lon="0.0644">
        <ele>64.41015625</ele>
        <time>2015-05-13T14:32:21Z</time>
      </trkpt>
      <trkpt lat="45.2424" lon="0.06456">
        <ele>65.25</ele>
        <time>2015-05-13T14:32:30Z</time>
      </trkpt>
      <trkpt lat="45.24211" lon="0.06471">
        <ele>65.19140625</ele>
        <time>2015-05-13T14:32:37Z</time>
      </trkpt>
      <trkpt lat="45.24197" lon="0.06478">
        <ele>65.0625</ele>
        <time>2015-05-13T14:32:40Z</time>
      </trkpt>
      <trkpt lat="45.24162" lon="0.06491">
        <ele>64.3671875</ele>
        <time>2015-05-13T14:32:47Z</time>
      </trkpt>
      <trkpt lat="45.24146" lon="0.06491">
        <ele>64.3828125</ele>
        <time>2015-05-13T14:32:50Z</time>
      </trkpt>
      <trkpt lat="45.24141" lon="0.06489">
        <ele>64.484375</ele>
        <time>2015-05-13T14:32:51Z</time>
      </trkpt>
      <trkpt lat="45.24097" lon="0.06472">
        <ele>64.78125</ele>
        <time>2015-05-13T14:33:00Z</time>
      </trkpt>
      <trkpt lat="45.24068" lon="0.06453">
        <ele>64.62890625</ele>
        <time>2015-05-13T14:33:06Z</time>
      </trkpt>
      <trkpt lat="45.24036" lon="0.06409">
        <ele>63.88671875</ele>
        <time>2015-05-13T14:33:14Z</time>
      </trkpt>
      <trkpt lat="45.24025" lon="0.06393">
        <ele>63.80859375</ele>
        <time>2015-05-13T14:33:17Z</time>
      </trkpt>
      <trkpt lat="45.24021" lon="0.06389">
        <ele>63.7421875</ele>
        <time>2015-05-13T14:33:18Z</time>
      </trkpt>
      <trkpt lat="45.24013" lon="0.06381">
        <ele>63.6328125</ele>
        <time>2015-05-13T14:33:20Z</time>
      </trkpt>
      <trkpt lat="45.23985" lon="0.0636">
        <ele>63.0546875</ele>
        <time>2015-05-13T14:33:28Z</time>
      </trkpt>
      <trkpt lat="45.23956" lon="0.06364">
        <ele>62.32421875</ele>
        <time>2015-05-13T14:33:35Z</time>
      </trkpt>
      <trkpt lat="45.23924" lon="0.06371">
        <ele>62.5</ele>
        <time>2015-05-13T14:33:43Z</time>
      </trkpt>
      <trkpt lat="45.23892" lon="0.06383">
        <ele>63.078125</ele>
        <time>2015-05-13T14:33:52Z</time>
      </trkpt>
      <trkpt lat="45.23866" lon="0.06396">
        <ele>63.8515625</ele>
        <time>2015-05-13T14:34:02Z</time>
      </trkpt>
      <trkpt lat="45.23842" lon="0.06414">
        <ele>63.9140625</ele>
        <time>2015-05-13T14:34:11Z</time>
      </trkpt>
      <trkpt lat="45.23814" lon="0.06433">
        <ele>63.88671875</ele>
        <time>2015-05-13T14:34:20Z</time>
      </trkpt>
      <trkpt lat="45.23804" lon="0.06438">
        <ele>63.9765625</ele>
        <time>2015-05-13T14:34:23Z</time>
      </trkpt>
      <trkpt lat="45.23769" lon="0.06447">
        <ele>63.5625</ele>
        <time>2015-05-13T14:34:32Z</time>
      </trkpt>
      <trkpt lat="45.23762" lon="0.06446">
        <ele>63.609375</ele>
        <time>2015-05-13T14:34:34Z</time>
      </trkpt>
      <trkpt lat="45.2375" lon="0.06446">
        <ele>63.5859375</ele>
        <time>2015-05-13T14:34:35Z</time>
      </trkpt>
      <trkpt lat="45.23732" lon="0.06444">
        <ele>63.5703125</ele>
        <time>2015-05-13T14:34:41Z</time>
      </trkpt>
      <trkpt lat="45.23719" lon="0.06437">
        <ele>63.71875</ele>
        <time>2015-05-13T14:34:44Z</time>
      </trkpt>
      <trkpt lat="45.23717" lon="0.06475">
        <ele>61.3359375</ele>
        <time>2015-05-13T14:34:52Z</time>
      </trkpt>
      <trkpt lat="45.23716" lon="0.06534">
        <ele>58.3125</ele>
        <time>2015-05-13T14:35:00Z</time>
      </trkpt>
      <trkpt lat="45.23715" lon="0.06591">
        <ele>55.6953125</ele>
        <time>2015-05-13T14:35:07Z</time>
      </trkpt>
      <trkpt lat="45.23715" lon="0.0666">
        <ele>52.12890625</ele>
        <time>2015-05-13T14:35:13Z</time>
      </trkpt>
      <trkpt lat="45.23713" lon="0.06693">
        <ele>50.89453125</ele>
        <time>2015-05-13T14:35:14Z</time>
      </trkpt>
      <trkpt lat="45.23713" lon="0.06719">
        <ele>49.9765625</ele>
        <time>2015-05-13T14:35:17Z</time>
      </trkpt>
      <trkpt lat="45.23712" lon="0.0674">
        <ele>49.015625</ele>
        <time>2015-05-13T14:36:14Z</time>
      </trkpt>
      <trkpt lat="45.23712" lon="0.06754">
        <ele>48.35546875</ele>
        <time>2015-05-13T14:36:19Z</time>
      </trkpt>
      <trkpt lat="45.23706" lon="0.06754">
        <ele>48.26953125</ele>
        <time>2015-05-13T14:36:21Z</time>
      </trkpt>
      <trkpt lat="45.23701" lon="0.06756">
        <ele>48.140625</ele>
        <time>2015-05-13T14:36:22Z</time>
      </trkpt>
      <trkpt lat="45.23698" lon="0.06757">
        <ele>48.03515625</ele>
        <time>2015-05-13T14:36:23Z</time>
      </trkpt>
      <trkpt lat="45.23678" lon="0.06762">
        <ele>47.44140625</ele>
        <time>2015-05-13T14:36:27Z</time>
      </trkpt>
      <trkpt lat="45.2367" lon="0.06765">
        <ele>47.0859375</ele>
        <time>2015-05-13T14:36:29Z</time>
      </trkpt>
      <trkpt lat="45.23667" lon="0.06771">
        <ele>46.75390625</ele>
        <time>2015-05-13T14:36:30Z</time>
      </trkpt>
      <trkpt lat="45.23665" lon="0.06777">
        <ele>46.5234375</ele>
        <time>2015-05-13T14:36:31Z</time>
      </trkpt>
      <trkpt lat="45.23665" lon="0.06786">
        <ele>46.359375</ele>
        <time>2015-05-13T14:36:32Z</time>
      </trkpt>
      <trkpt lat="45.23664" lon="0.06795">
        <ele>46.18359375</ele>
        <time>2015-05-13T14:36:33Z</time>
      </trkpt>
      <trkpt lat="45.23664" lon="0.06804">
        <ele>46.01171875</ele>
        <time>2015-05-13T14:36:34Z</time>
      </trkpt>
      <trkpt lat="45.23663" lon="0.06834">
        <ele>45.640625</ele>
        <time>2015-05-13T14:36:37Z</time>
      </trkpt>
      <trkpt lat="45.23662" lon="0.06844">
        <ele>45.8125</ele>
        <time>2015-05-13T14:36:38Z</time>
      </trkpt>
      <trkpt lat="45.23662" lon="0.06872">
        <ele>46.32421875</ele>
        <time>2015-05-13T14:36:41Z</time>
      </trkpt>
      <trkpt lat="45.23665" lon="0.06912">
        <ele>48.046875</ele>
        <time>2015-05-13T14:36:46Z</time>
      </trkpt>
      <trkpt lat="45.23667" lon="0.06926">
        <ele>48.828125</ele>
        <time>2015-05-13T14:36:48Z</time>
      </trkpt>
      <trkpt lat="45.23668" lon="0.06932">
        <ele>49.15625</ele>
        <time>2015-05-13T14:36:49Z</time>
      </trkpt>
      <trkpt lat="45.23668" lon="0.06965">
        <ele>50.3984375</ele>
        <time>2015-05-13T14:36:56Z</time>
      </trkpt>
      <trkpt lat="45.23673" lon="0.07005">
        <ele>51.91015625</ele>
        <time>2015-05-13T14:37:05Z</time>
      </trkpt>
      <trkpt lat="45.23687" lon="0.07056">
        <ele>52.73828125</ele>
        <time>2015-05-13T14:37:17Z</time>
      </trkpt>
      <trkpt lat="45.23707" lon="0.07089">
        <ele>52.6640625</ele>
        <time>2015-05-13T14:37:26Z</time>
      </trkpt>
      <trkpt lat="45.23739" lon="0.07119">
        <ele>53.30859375</ele>
        <time>2015-05-13T14:37:36Z</time>
      </trkpt>
      <trkpt lat="45.23769" lon="0.07157">
        <ele>53.98828125</ele>
        <time>2015-05-13T14:37:46Z</time>
      </trkpt>
      <trkpt lat="45.23795" lon="0.07201">
        <ele>54.3828125</ele>
        <time>2015-05-13T14:37:57Z</time>
      </trkpt>
      <trkpt lat="45.23799" lon="0.0721">
        <ele>54.27734375</ele>
        <time>2015-05-13T14:38:02Z</time>
      </trkpt>
      <trkpt lat="45.23801" lon="0.07212">
        <ele>54.3359375</ele>
        <time>2015-05-13T14:38:03Z</time>
      </trkpt>
      <trkpt lat="45.23802" lon="0.07213">
        <ele>54.36328125</ele>
        <time>2015-05-13T14:38:04Z</time>
      </trkpt>
      <trkpt lat="45.23803" lon="0.07215">
        <ele>54.3671875</ele>
        <time>2015-05-13T14:38:05Z</time>
      </trkpt>
      <trkpt lat="45.23804" lon="0.07216">
        <ele>54.36328125</ele>
        <time>2015-05-13T14:38:06Z</time>
      </trkpt>
      <trkpt lat="45.23814" lon="0.07238">
        <ele>54.75390625</ele>
        <time>2015-05-13T14:38:14Z</time>
      </trkpt>
      <trkpt lat="45.23827" lon="0.07261">
        <ele>54.81640625</ele>
        <time>2015-05-13T14:38:22Z</time>
      </trkpt>
      <trkpt lat="45.23846" lon="0.07288">
        <ele>54.8828125</ele>
        <time>2015-05-13T14:38:32Z</time>
      </trkpt>
      <trkpt lat="45.23863" lon="0.07305">
        <ele>55.21875</ele>
        <time>2015-05-13T14:38:41Z</time>
      </trkpt>
      <trkpt lat="45.23876" lon="0.07319">
        <ele>55.44140625</ele>
        <time>2015-05-13T14:38:48Z</time>
      </trkpt>
      <trkpt lat="45.23882" lon="0.07349">
        <ele>56.40234375</ele>
        <time>2015-05-13T14:38:56Z</time>
      </trkpt>
      <trkpt lat="45.23884" lon="0.07357">
        <ele>56.80859375</ele>
        <time>2015-05-13T14:38:58Z</time>
      </trkpt>
      <trkpt lat="45.23886" lon="0.0736">
        <ele>57.0078125</ele>
        <time>2015-05-13T14:38:59Z</time>
      </trkpt>
      <trkpt lat="45.2389" lon="0.07361">
        <ele>57.13671875</ele>
        <time>2015-05-13T14:39:00Z</time>
      </trkpt>
      <trkpt lat="45.23893" lon="0.0736">
        <ele>57.203125</ele>
        <time>2015-05-13T14:39:01Z</time>
      </trkpt>
      <trkpt lat="45.23896" lon="0.0736">
        <ele>57.24609375</ele>
        <time>2015-05-13T14:39:02Z</time>
      </trkpt>
      <trkpt lat="45.23913" lon="0.07355">
        <ele>57.44140625</ele>
        <time>2015-05-13T14:39:08Z</time>
      </trkpt>
      <trkpt lat="45.23947" lon="0.07353">
        <ele>57.66796875</ele>
        <time>2015-05-13T14:39:18Z</time>
      </trkpt>
      <trkpt lat="45.23958" lon="0.07352">
        <ele>57.76171875</ele>
      </trkpt>
      <trkpt lat="45.23965" lon="0.07341">
        <ele>57.4375</ele>
        <time>2015-05-13T14:39:24Z</time>
      </trkpt>
      <trkpt lat="45.2398" lon="0.07314">
        <ele>58.05078125</ele>
        <time>2015-05-13T14:39:32Z</time>
      </trkpt>
      <trkpt lat="45.23995" lon="0.07287">
        <ele>59.5703125</ele>
        <time>2015-05-13T14:39:41Z</time>
      </trkpt>
      <trkpt lat="45.24013" lon="0.07268">
        <ele>61.05859375</ele>
        <time>2015-05-13T14:39:50Z</time>
      </trkpt>
      <trkpt lat="45.24035" lon="0.07254">
        <ele>62.78515625</ele>
        <time>2015-05-13T14:40:00Z</time>
      </trkpt>
      <trkpt lat="45.24057" lon="0.07242">
        <ele>64.15234375</ele>
        <time>2015-05-13T14:40:10Z</time>
      </trkpt>
      <trkpt lat="45.24075" lon="0.07232">
        <ele>65.19140625</ele>
        <time>2015-05-13T14:40:18Z</time>
      </trkpt>
      <trkpt lat="45.241" lon="0.07217">
        <ele>66.453125</ele>
        <time>2015-05-13T14:40:28Z</time>
      </trkpt>
      <trkpt lat="45.2412" lon="0.07205">
        <ele>67.48046875</ele>
        <time>2015-05-13T14:40:36Z</time>
      </trkpt>
      <trkpt lat="45.24146" lon="0.0719">
        <ele>68.51171875</ele>
        <time>2015-05-13T14:40:46Z</time>
      </trkpt>
      <trkpt lat="45.24172" lon="0.0718">
        <ele>69.03125</ele>
        <time>2015-05-13T14:40:55Z</time>
      </trkpt>
      <trkpt lat="45.24196" lon="0.07182">
        <ele>69.2265625</ele>
        <time>2015-05-13T14:41:03Z</time>
      </trkpt>
      <trkpt lat="45.24227" lon="0.07193">
        <ele>69.7421875</ele>
        <time>2015-05-13T14:41:12Z</time>
      </trkpt>
      <trkpt lat="45.24263" lon="0.07193">
        <ele>71.05859375</ele>
        <time>2015-05-13T14:41:22Z</time>
      </trkpt>
      <trkpt lat="45.24293" lon="0.07203">
        <ele>71.56640625</ele>
        <time>2015-05-13T14:41:30Z</time>
      </trkpt>
      <trkpt lat="45.24334" lon="0.07215">
        <ele>71.84765625</ele>
        <time>2015-05-13T14:41:41Z</time>
      </trkpt>
      <trkpt lat="45.24368" lon="0.07228">
        <ele>71.875</ele>
        <time>2015-05-13T14:41:50Z</time>
      </trkpt>
      <trkpt lat="45.24399" lon="0.07238">
        <ele>72.21875</ele>
        <time>2015-05-13T14:41:58Z</time>
      </trkpt>
      <trkpt lat="45.24437" lon="0.07247">
        <ele>73.6015625</ele>
        <time>2015-05-13T14:42:08Z</time>
      </trkpt>
      <trkpt lat="45.2444" lon="0.0725">
        <ele>73.63671875</ele>
        <time>2015-05-13T14:42:09Z</time>
      </trkpt>
      <trkpt lat="45.24442" lon="0.07253">
        <ele>73.52734375</ele>
        <time>2015-05-13T14:42:10Z</time>
      </trkpt>
      <trkpt lat="45.24443" lon="0.07258">
        <ele>73.26171875</ele>
        <time>2015-05-13T14:42:11Z</time>
      </trkpt>
      <trkpt lat="45.24442" lon="0.07264">
        <ele>72.875</ele>
        <time>2015-05-13T14:42:12Z</time>
      </trkpt>
      <trkpt lat="45.24441" lon="0.07271">
        <ele>72.3984375</ele>
        <time>2015-05-13T14:42:13Z</time>
      </trkpt>
      <trkpt lat="45.24437" lon="0.073">
        <ele>70.7578125</ele>
        <time>2015-05-13T14:42:17Z</time>
      </trkpt>
      <trkpt lat="45.24434" lon="0.07315">
        <ele>69.9375</ele>
        <time>2015-05-13T14:42:19Z</time>
      </trkpt>
      <trkpt lat="45.24433" lon="0.07322">
        <ele>69.5390625</ele>
        <time>2015-05-13T14:42:20Z</time>
      </trkpt>
      <trkpt lat="45.24431" lon="0.07329">
        <ele>69.1640625</ele>
        <time>2015-05-13T14:42:21Z</time>
      </trkpt>
      <trkpt lat="45.24431" lon="0.07335">
        <ele>69.11328125</ele>
        <time>2015-05-13T14:42:22Z</time>
      </trkpt>
      <trkpt lat="45.24431" lon="0.0734">
        <ele>69.09765625</ele>
        <time>2015-05-13T14:42:23Z</time>
      </trkpt>
      <trkpt lat="45.24432" lon="0.07345">
        <ele>69.12109375</ele>
        <time>2015-05-13T14:42:24Z</time>
      </trkpt>
      <trkpt lat="45.24434" lon="0.0735">
        <ele>69.171875</ele>
        <time>2015-05-13T14:42:25Z</time>
      </trkpt>
      <trkpt lat="45.24437" lon="0.07353">
        <ele>69.25390625</ele>
        <time>2015-05-13T14:42:26Z</time>
      </trkpt>
      <trkpt lat="45.24441" lon="0.07355">
        <ele>69.34375</ele>
        <time>2015-05-13T14:42:27Z</time>
      </trkpt>
      <trkpt lat="45.24445" lon="0.07357">
        <ele>69.4296875</ele>
        <time>2015-05-13T14:42:28Z</time>
      </trkpt>
      <trkpt lat="45.24449" lon="0.0736">
        <ele>69.49609375</ele>
        <time>2015-05-13T14:42:29Z</time>
      </trkpt>
      <trkpt lat="45.24494" lon="0.07381">
        <ele>70.6796875</ele>
        <time>2015-05-13T14:42:40Z</time>
      </trkpt>
      <trkpt lat="45.24505" lon="0.07387">
        <ele>71.1875</ele>
        <time>2015-05-13T14:42:43Z</time>
      </trkpt>
      <trkpt lat="45.24509" lon="0.07394">
        <ele>71.61328125</ele>
        <time>2015-05-13T14:42:45Z</time>
      </trkpt>
      <trkpt lat="45.2451" lon="0.07399">
        <ele>71.7578125</ele>
        <time>2015-05-13T14:42:46Z</time>
      </trkpt>
      <trkpt lat="45.24509" lon="0.07405">
        <ele>71.875</ele>
        <time>2015-05-13T14:42:47Z</time>
      </trkpt>
      <trkpt lat="45.24506" lon="0.07421">
        <ele>72.21875</ele>
        <time>2015-05-13T14:42:50Z</time>
      </trkpt>
      <trkpt lat="45.24506" lon="0.07427">
        <ele>72.35546875</ele>
        <time>2015-05-13T14:42:51Z</time>
      </trkpt>
      <trkpt lat="45.24504" lon="0.07455">
        <ele>74.21484375</ele>
        <time>2015-05-13T14:42:58Z</time>
      </trkpt>
      <trkpt lat="45.24502" lon="0.07484">
        <ele>77.1875</ele>
        <time>2015-05-13T14:43:07Z</time>
      </trkpt>
      <trkpt lat="45.24499" lon="0.07511">
        <ele>79.7109375</ele>
        <time>2015-05-13T14:43:16Z</time>
      </trkpt>
      <trkpt lat="45.24499" lon="0.07534">
        <ele>81.8671875</ele>
        <time>2015-05-13T14:43:24Z</time>
      </trkpt>
      <trkpt lat="45.24511" lon="0.07544">
        <ele>83.59765625</ele>
        <time>2015-05-13T14:43:32Z</time>
      </trkpt>
      <trkpt lat="45.24527" lon="0.0755">
        <ele>84.859375</ele>
        <time>2015-05-13T14:43:40Z</time>
      </trkpt>
      <trkpt lat="45.24551" lon="0.07558">
        <ele>85.55078125</ele>
        <time>2015-05-13T14:43:52Z</time>
      </trkpt>
      <trkpt lat="45.24573" lon="0.07564">
        <ele>85.95703125</ele>
        <time>2015-05-13T14:44:01Z</time>
      </trkpt>
      <trkpt lat="45.24605" lon="0.07573">
        <ele>85.484375</ele>
        <time>2015-05-13T14:44:13Z</time>
      </trkpt>
      <trkpt lat="45.24618" lon="0.07588">
        <ele>86.4375</ele>
        <time>2015-05-13T14:44:20Z</time>
      </trkpt>
      <trkpt lat="45.24616" lon="0.0761">
        <ele>88.52734375</ele>
        <time>2015-05-13T14:44:27Z</time>
      </trkpt>
      <trkpt lat="45.2461" lon="0.07637">
        <ele>90.81640625</ele>
        <time>2015-05-13T14:44:37Z</time>
      </trkpt>
      <trkpt lat="45.24606" lon="0.07658">
        <ele>92.671875</ele>
        <time>2015-05-13T14:44:45Z</time>
      </trkpt>
      <trkpt lat="45.24603" lon="0.0768">
        <ele>93.875</ele>
        <time>2015-05-13T14:44:53Z</time>
      </trkpt>
      <trkpt lat="45.24607" lon="0.0769">
        <ele>94.11328125</ele>
        <time>2015-05-13T14:44:57Z</time>
      </trkpt>
      <trkpt lat="45.2463" lon="0.07703">
        <ele>93.6015625</ele>
        <time>2015-05-13T14:45:07Z</time>
      </trkpt>
      <trkpt lat="45.24631" lon="0.07707">
        <ele>93.6640625</ele>
        <time>2015-05-13T14:45:08Z</time>
      </trkpt>
      <trkpt lat="45.24633" lon="0.0773">
        <ele>94.16796875</ele>
        <time>2015-05-13T14:45:15Z</time>
      </trkpt>
      <trkpt lat="45.24626" lon="0.07762">
        <ele>95.1875</ele>
        <time>2015-05-13T14:45:25Z</time>
      </trkpt>
      <trkpt lat="45.24621" lon="0.0779">
        <ele>96.15234375</ele>
        <time>2015-05-13T14:45:33Z</time>
      </trkpt>
      <trkpt lat="45.24616" lon="0.07827">
        <ele>97.4609375</ele>
        <time>2015-05-13T14:45:42Z</time>
      </trkpt>
      <trkpt lat="45.24613" lon="0.07872">
        <ele>98.484375</ele>
        <time>2015-05-13T14:45:51Z</time>
      </trkpt>
      <trkpt lat="45.2461" lon="0.07926">
        <ele>99.99609375</ele>
        <time>2015-05-13T14:46:01Z</time>
      </trkpt>
      <trkpt lat="45.24607" lon="0.07972">
        <ele>100.76953125</ele>
        <time>2015-05-13T14:46:10Z</time>
      </trkpt>
      <trkpt lat="45.24603" lon="0.0803">
        <ele>100.34765625</ele>
        <time>2015-05-13T14:46:20Z</time>
      </trkpt>
      <trkpt lat="45.24603" lon="0.08037">
        <ele>100.2265625</ele>
        <time>2015-05-13T14:46:21Z</time>
      </trkpt>
      <trkpt lat="45.24605" lon="0.08042">
        <ele>100.171875</ele>
        <time>2015-05-13T14:46:22Z</time>
      </trkpt>
      <trkpt lat="45.24608" lon="0.08047">
        <ele>100.19921875</ele>
        <time>2015-05-13T14:46:23Z</time>
      </trkpt>
      <trkpt lat="45.24612" lon="0.0805">
        <ele>100.28125</ele>
        <time>2015-05-13T14:46:24Z</time>
      </trkpt>
      <trkpt lat="45.24626" lon="0.08064">
        <ele>100.51171875</ele>
        <time>2015-05-13T14:46:28Z</time>
      </trkpt>
      <trkpt lat="45.24661" lon="0.08099">
        <ele>101.609375</ele>
        <time>2015-05-13T14:46:37Z</time>
      </trkpt>
      <trkpt lat="45.24671" lon="0.08104">
        <ele>102.125</ele>
        <time>2015-05-13T14:46:38Z</time>
      </trkpt>
      <trkpt lat="45.24686" lon="0.08111">
        <ele>102.99609375</ele>
        <time>2015-05-13T14:46:39Z</time>
      </trkpt>
      <trkpt lat="45.247" lon="0.08116">
        <ele>103.6328125</ele>
        <time>2015-05-13T14:46:40Z</time>
      </trkpt>
      <trkpt lat="45.24714" lon="0.08122">
        <ele>104.2421875</ele>
        <time>2015-05-13T14:46:41Z</time>
      </trkpt>
      <trkpt lat="45.24716" lon="0.08144">
        <ele>104.71484375</ele>
        <time>2015-05-13T14:46:45Z</time>
      </trkpt>
      <trkpt lat="45.24719" lon="0.08178">
        <ele>105.6953125</ele>
      </trkpt>
      <trkpt lat="45.24721" lon="0.08212">
        <ele>107.015625</ele>
      </trkpt>
      <trkpt lat="45.24724" lon="0.08246">
        <ele>107.84375</ele>
      </trkpt>
      <trkpt lat="45.24726" lon="0.0828">
        <ele>108.28515625</ele>
      </trkpt>
      <trkpt lat="45.24726" lon="0.08307">
        <ele>107.94140625</ele>
      </trkpt>
      <trkpt lat="45.24725" lon="0.08339">
        <ele>107.41796875</ele>
      </trkpt>
      <trkpt lat="45.24723" lon="0.08364">
        <ele>106.81640625</ele>
      </trkpt>
      <trkpt lat="45.24724" lon="0.08389">
        <ele>106.18359375</ele>
      </trkpt>
      <trkpt lat="45.24724" lon="0.08406">
        <ele>105.671875</ele>
      </trkpt>
      <trkpt lat="45.24727" lon="0.08423">
        <ele>105.0703125</ele>
      </trkpt>
      <trkpt lat="45.24729" lon="0.08434">
        <ele>104.6875</ele>
        <time>2015-05-13T14:48:07Z</time>
      </trkpt>
      <trkpt lat="45.2473" lon="0.08439">
        <ele>104.47265625</ele>
        <time>2015-05-13T14:48:08Z</time>
      </trkpt>
      <trkpt lat="45.24731" lon="0.08443">
        <ele>104.3203125</ele>
        <time>2015-05-13T14:48:09Z</time>
      </trkpt>
      <trkpt lat="45.24732" lon="0.08449">
        <ele>104.16015625</ele>
        <time>2015-05-13T14:48:10Z</time>
      </trkpt>
      <trkpt lat="45.24734" lon="0.08462">
        <ele>103.78515625</ele>
        <time>2015-05-13T14:48:14Z</time>
      </trkpt>
      <trkpt lat="45.24732" lon="0.08464">
        <ele>103.765625</ele>
        <time>2015-05-13T14:48:15Z</time>
      </trkpt>
      <trkpt lat="45.24723" lon="0.08476">
        <ele>103.60546875</ele>
        <time>2015-05-13T14:48:19Z</time>
      </trkpt>
      <trkpt lat="45.24719" lon="0.08479">
        <ele>103.515625</ele>
        <time>2015-05-13T14:48:20Z</time>
      </trkpt>
      <trkpt lat="45.24716" lon="0.08484">
        <ele>103.40234375</ele>
        <time>2015-05-13T14:48:21Z</time>
      </trkpt>
      <trkpt lat="45.2469" lon="0.08516">
        <ele>101.8984375</ele>
        <time>2015-05-13T14:48:27Z</time>
      </trkpt>
      <trkpt lat="45.24668" lon="0.08539">
        <ele>100.234375</ele>
        <time>2015-05-13T14:48:31Z</time>
      </trkpt>
      <trkpt lat="45.24605" lon="0.08586">
        <ele>98.19140625</ele>
        <time>2015-05-13T14:48:41Z</time>
      </trkpt>
      <trkpt lat="45.24546" lon="0.08626">
        <ele>97.26171875</ele>
        <time>2015-05-13T14:48:50Z</time>
      </trkpt>
      <trkpt lat="45.24502" lon="0.08659">
        <ele>95.71484375</ele>
        <time>2015-05-13T14:48:56Z</time>
      </trkpt>
      <trkpt lat="45.2446" lon="0.0869">
        <ele>94.80859375</ele>
        <time>2015-05-13T14:49:02Z</time>
      </trkpt>
      <trkpt lat="45.24457" lon="0.08696">
        <ele>94.6796875</ele>
        <time>2015-05-13T14:49:03Z</time>
      </trkpt>
      <trkpt lat="45.24455" lon="0.08704">
        <ele>94.61328125</ele>
        <time>2015-05-13T14:49:04Z</time>
      </trkpt>
      <trkpt lat="45.24454" lon="0.08712">
        <ele>94.6015625</ele>
        <time>2015-05-13T14:49:05Z</time>
      </trkpt>
      <trkpt lat="45.24454" lon="0.08748">
        <ele>94.26171875</ele>
        <time>2015-05-13T14:49:10Z</time>
      </trkpt>
      <trkpt lat="45.24454" lon="0.08772">
        <ele>94.01171875</ele>
        <time>2015-05-13T14:49:14Z</time>
      </trkpt>
      <trkpt lat="45.24455" lon="0.08777">
        <ele>93.90234375</ele>
        <time>2015-05-13T14:49:15Z</time>
      </trkpt>
      <trkpt lat="45.24451" lon="0.08798">
        <ele>93.42578125</ele>
        <time>2015-05-13T14:49:19Z</time>
      </trkpt>
      <trkpt lat="45.24443" lon="0.08812">
        <ele>93.0078125</ele>
        <time>2015-05-13T14:49:22Z</time>
      </trkpt>
      <trkpt lat="45.24419" lon="0.0884">
        <ele>91.91796875</ele>
        <time>2015-05-13T14:49:29Z</time>
      </trkpt>
      <trkpt lat="45.24411" lon="0.08856">
        <ele>91.51171875</ele>
        <time>2015-05-13T14:49:32Z</time>
      </trkpt>
      <trkpt lat="45.24406" lon="0.08867">
        <ele>91.2734375</ele>
        <time>2015-05-13T14:49:34Z</time>
      </trkpt>
      <trkpt lat="45.24399" lon="0.08888">
        <ele>90.91015625</ele>
        <time>2015-05-13T14:49:37Z</time>
      </trkpt>
      <trkpt lat="45.24392" lon="0.08916">
        <ele>90.4140625</ele>
        <time>2015-05-13T14:49:41Z</time>
      </trkpt>
      <trkpt lat="45.24385" lon="0.08936">
        <ele>90.0625</ele>
        <time>2015-05-13T14:49:44Z</time>
      </trkpt>
      <trkpt lat="45.24371" lon="0.08967">
        <ele>89.14453125</ele>
        <time>2015-05-13T14:49:49Z</time>
      </trkpt>
      <trkpt lat="45.24359" lon="0.0899">
        <ele>88.21484375</ele>
        <time>2015-05-13T14:49:53Z</time>
      </trkpt>
      <trkpt lat="45.2435" lon="0.09011">
        <ele>87.83984375</ele>
        <time>2015-05-13T14:49:56Z</time>
      </trkpt>
      <trkpt lat="45.24346" lon="0.09028">
        <ele>87.69140625</ele>
        <time>2015-05-13T14:49:58Z</time>
      </trkpt>
      <trkpt lat="45.24339" lon="0.09062">
        <ele>86.99609375</ele>
        <time>2015-05-13T14:50:02Z</time>
      </trkpt>
      <trkpt lat="45.24337" lon="0.09079">
        <ele>86.28515625</ele>
        <time>2015-05-13T14:50:04Z</time>
      </trkpt>
      <trkpt lat="45.24331" lon="0.09108">
        <ele>85.3515625</ele>
        <time>2015-05-13T14:50:08Z</time>
      </trkpt>
      <trkpt lat="45.24322" lon="0.09141">
        <ele>84.3203125</ele>
        <time>2015-05-13T14:50:12Z</time>
      </trkpt>
      <trkpt lat="45.2431" lon="0.09187">
        <ele>82.69921875</ele>
        <time>2015-05-13T14:50:18Z</time>
      </trkpt>
      <trkpt lat="45.24303" lon="0.09209">
        <ele>82.078125</ele>
        <time>2015-05-13T14:50:23Z</time>
      </trkpt>
      <trkpt lat="45.24297" lon="0.09228">
        <ele>81.4375</ele>
        <time>2015-05-13T14:50:29Z</time>
      </trkpt>
      <trkpt lat="45.24299" lon="0.09243">
        <ele>80.55859375</ele>
        <time>2015-05-13T14:50:35Z</time>
      </trkpt>
      <trkpt lat="45.24311" lon="0.09273">
        <ele>78.09765625</ele>
        <time>2015-05-13T14:50:43Z</time>
      </trkpt>
      <trkpt lat="45.24319" lon="0.09312">
        <ele>75.375</ele>
        <time>2015-05-13T14:50:49Z</time>
      </trkpt>
      <trkpt lat="45.24327" lon="0.0934">
        <ele>73.3515625</ele>
        <time>2015-05-13T14:50:57Z</time>
      </trkpt>
      <trkpt lat="45.24331" lon="0.09362">
        <ele>71.8359375</ele>
        <time>2015-05-13T14:51:06Z</time>
      </trkpt>
      <trkpt lat="45.2434" lon="0.09398">
        <ele>69.32421875</ele>
        <time>2015-05-13T14:51:08Z</time>
      </trkpt>
      <trkpt lat="45.24343" lon="0.09435">
        <ele>67.18359375</ele>
        <time>2015-05-13T14:51:09Z</time>
      </trkpt>
      <trkpt lat="45.24349" lon="0.0947">
        <ele>64.8125</ele>
        <time>2015-05-13T14:54:15Z</time>
      </trkpt>
      <trkpt lat="45.2435" lon="0.09488">
        <ele>63.74609375</ele>
        <time>2015-05-13T14:54:17Z</time>
      </trkpt>
      <trkpt lat="45.24352" lon="0.09504">
        <ele>62.8515625</ele>
        <time>2015-05-13T14:54:21Z</time>
      </trkpt>
      <trkpt lat="45.24357" lon="0.09528">
        <ele>61.6171875</ele>
        <time>2015-05-13T14:54:28Z</time>
      </trkpt>
      <trkpt lat="45.24359" lon="0.09542">
        <ele>60.8984375</ele>
        <time>2015-05-13T14:54:31Z</time>
      </trkpt>
      <trkpt lat="45.24366" lon="0.09603">
        <ele>58.24609375</ele>
        <time>2015-05-13T14:54:41Z</time>
      </trkpt>
      <trkpt lat="45.24367" lon="0.09634">
        <ele>56.6484375</ele>
        <time>2015-05-13T14:54:45Z</time>
      </trkpt>
      <trkpt lat="45.24371" lon="0.09655">
        <ele>55.38671875</ele>
        <time>2015-05-13T14:54:48Z</time>
      </trkpt>
      <trkpt lat="45.24375" lon="0.0969">
        <ele>53.484375</ele>
        <time>2015-05-13T14:54:53Z</time>
      </trkpt>
      <trkpt lat="45.24377" lon="0.09707">
        <ele>52.63671875</ele>
        <time>2015-05-13T14:54:55Z</time>
      </trkpt>
      <trkpt lat="45.24379" lon="0.09752">
        <ele>50.48828125</ele>
        <time>2015-05-13T14:55:00Z</time>
      </trkpt>
      <trkpt lat="45.24374" lon="0.09796">
        <ele>48.21875</ele>
        <time>2015-05-13T14:55:04Z</time>
      </trkpt>
      <trkpt lat="45.24371" lon="0.09819">
        <ele>46.8359375</ele>
        <time>2015-05-13T14:55:06Z</time>
      </trkpt>
      <trkpt lat="45.24367" lon="0.09871">
        <ele>45.4296875</ele>
        <time>2015-05-13T14:55:12Z</time>
      </trkpt>
      <trkpt lat="45.24368" lon="0.09909">
        <ele>45.6015625</ele>
        <time>2015-05-13T14:55:19Z</time>
      </trkpt>
      <trkpt lat="45.24366" lon="0.09938">
        <ele>45.99609375</ele>
        <time>2015-05-13T14:55:24Z</time>
      </trkpt>
      <trkpt lat="45.24359" lon="0.09971">
        <ele>47.17578125</ele>
        <time>2015-05-13T14:55:30Z</time>
      </trkpt>
      <trkpt lat="45.24358" lon="0.09975">
        <ele>47.31640625</ele>
        <time>2015-05-13T14:55:31Z</time>
      </trkpt>
      <trkpt lat="45.2435" lon="0.09994">
        <ele>48.00390625</ele>
        <time>2015-05-13T14:55:37Z</time>
      </trkpt>
      <trkpt lat="45.24342" lon="0.1002">
        <ele>50.53515625</ele>
        <time>2015-05-13T14:55:46Z</time>
      </trkpt>
      <trkpt lat="45.24336" lon="0.10046">
        <ele>53.3046875</ele>
        <time>2015-05-13T14:55:56Z</time>
      </trkpt>
      <trkpt lat="45.24334" lon="0.10062">
        <ele>54.734375</ele>
        <time>2015-05-13T14:56:03Z</time>
      </trkpt>
      <trkpt lat="45.24329" lon="0.10076">
        <ele>56.06640625</ele>
        <time>2015-05-13T14:56:11Z</time>
      </trkpt>
      <trkpt lat="45.24325" lon="0.10084">
        <ele>56.87890625</ele>
        <time>2015-05-13T14:56:16Z</time>
      </trkpt>
      <trkpt lat="45.24324" lon="0.10085">
        <ele>57.0234375</ele>
        <time>2015-05-13T14:56:17Z</time>
      </trkpt>
      <trkpt lat="45.24316" lon="0.10096">
        <ele>58.30078125</ele>
        <time>2015-05-13T14:56:26Z</time>
      </trkpt>
      <trkpt lat="45.24307" lon="0.10105">
        <ele>59.59375</ele>
        <time>2015-05-13T14:56:35Z</time>
      </trkpt>
      <trkpt lat="45.24299" lon="0.10113">
        <ele>60.60546875</ele>
        <time>2015-05-13T14:56:42Z</time>
      </trkpt>
      <trkpt lat="45.24292" lon="0.1012">
        <ele>61.99609375</ele>
        <time>2015-05-13T14:56:48Z</time>
      </trkpt>
      <trkpt lat="45.24291" lon="0.10121">
        <ele>62.22265625</ele>
        <time>2015-05-13T14:56:49Z</time>
      </trkpt>
      <trkpt lat="45.2429" lon="0.10122">
        <ele>62.4765625</ele>
        <time>2015-05-13T14:56:50Z</time>
      </trkpt>
      <trkpt lat="45.24289" lon="0.10123">
        <ele>62.70703125</ele>
        <time>2015-05-13T14:56:51Z</time>
      </trkpt>
      <trkpt lat="45.24287" lon="0.10124">
        <ele>62.94921875</ele>
        <time>2015-05-13T14:56:52Z</time>
      </trkpt>
      <trkpt lat="45.24283" lon="0.10127">
        <ele>63.921875</ele>
        <time>2015-05-13T14:56:56Z</time>
      </trkpt>
      <trkpt lat="45.24281" lon="0.10127">
        <ele>64.14453125</ele>
        <time>2015-05-13T14:56:57Z</time>
      </trkpt>
      <trkpt lat="45.2428" lon="0.10128">
        <ele>64.41796875</ele>
        <time>2015-05-13T14:56:58Z</time>
      </trkpt>
      <trkpt lat="45.24279" lon="0.10129">
        <ele>64.703125</ele>
        <time>2015-05-13T14:56:59Z</time>
      </trkpt>
      <trkpt lat="45.24277" lon="0.1013">
        <ele>65.01171875</ele>
        <time>2015-05-13T14:57:00Z</time>
      </trkpt>
      <trkpt lat="45.24276" lon="0.10131">
        <ele>65.33203125</ele>
        <time>2015-05-13T14:57:01Z</time>
      </trkpt>
      <trkpt lat="45.24274" lon="0.10132">
        <ele>65.6484375</ele>
        <time>2015-05-13T14:57:02Z</time>
      </trkpt>
      <trkpt lat="45.24273" lon="0.10133">
        <ele>65.95703125</ele>
        <time>2015-05-13T14:57:03Z</time>
      </trkpt>
      <trkpt lat="45.24272" lon="0.10134">
        <ele>66.2421875</ele>
        <time>2015-05-13T14:57:04Z</time>
      </trkpt>
      <trkpt lat="45.24271" lon="0.10135">
        <ele>66.53125</ele>
        <time>2015-05-13T14:57:05Z</time>
      </trkpt>
      <trkpt lat="45.24258" lon="0.10145">
        <ele>69.87890625</ele>
        <time>2015-05-13T14:57:15Z</time>
      </trkpt>
      <trkpt lat="45.24247" lon="0.10153">
        <ele>73.15234375</ele>
        <time>2015-05-13T14:57:24Z</time>
      </trkpt>
      <trkpt lat="45.24246" lon="0.10154">
        <ele>73.546875</ele>
        <time>2015-05-13T14:57:25Z</time>
      </trkpt>
      <trkpt lat="45.24244" lon="0.10155">
        <ele>73.9140625</ele>
        <time>2015-05-13T14:57:26Z</time>
      </trkpt>
      <trkpt lat="45.24243" lon="0.10156">
        <ele>74.26953125</ele>
        <time>2015-05-13T14:57:27Z</time>
      </trkpt>
      <trkpt lat="45.24242" lon="0.10157">
        <ele>74.51953125</ele>
        <time>2015-05-13T14:57:28Z</time>
      </trkpt>
      <trkpt lat="45.2424" lon="0.10158">
        <ele>74.77734375</ele>
        <time>2015-05-13T14:57:29Z</time>
      </trkpt>
      <trkpt lat="45.24239" lon="0.10159">
        <ele>75.03125</ele>
        <time>2015-05-13T14:57:30Z</time>
      </trkpt>
      <trkpt lat="45.2423" lon="0.10165">
        <ele>76.32421875</ele>
        <time>2015-05-13T14:57:38Z</time>
      </trkpt>
      <trkpt lat="45.24221" lon="0.10173">
        <ele>77.69921875</ele>
        <time>2015-05-13T14:57:47Z</time>
      </trkpt>
      <trkpt lat="45.24212" lon="0.10181">
        <ele>79.1875</ele>
        <time>2015-05-13T14:57:56Z</time>
      </trkpt>
      <trkpt lat="45.24201" lon="0.1019">
        <ele>81</ele>
        <time>2015-05-13T14:58:06Z</time>
      </trkpt>
      <trkpt lat="45.24194" lon="0.10199">
        <ele>82.5625</ele>
        <time>2015-05-13T14:58:14Z</time>
      </trkpt>
      <trkpt lat="45.24192" lon="0.10202">
        <ele>83.16796875</ele>
        <time>2015-05-13T14:58:17Z</time>
      </trkpt>
      <trkpt lat="45.24187" lon="0.10211">
        <ele>84.4453125</ele>
        <time>2015-05-13T14:58:23Z</time>
      </trkpt>
      <trkpt lat="45.24185" lon="0.10218">
        <ele>85.12109375</ele>
        <time>2015-05-13T14:58:28Z</time>
      </trkpt>
      <trkpt lat="45.24185" lon="0.1022">
        <ele>85.1875</ele>
        <time>2015-05-13T14:58:29Z</time>
      </trkpt>
      <trkpt lat="45.24185" lon="0.10222">
        <ele>85.2734375</ele>
        <time>2015-05-13T14:58:30Z</time>
      </trkpt>
      <trkpt lat="45.24184" lon="0.10224">
        <ele>85.35546875</ele>
        <time>2015-05-13T14:58:31Z</time>
      </trkpt>
      <trkpt lat="45.24184" lon="0.10226">
        <ele>85.4296875</ele>
        <time>2015-05-13T14:58:32Z</time>
      </trkpt>
      <trkpt lat="45.24184" lon="0.10228">
        <ele>85.515625</ele>
        <time>2015-05-13T14:58:33Z</time>
      </trkpt>
      <trkpt lat="45.24182" lon="0.10249">
        <ele>86.37109375</ele>
        <time>2015-05-13T14:58:43Z</time>
      </trkpt>
      <trkpt lat="45.2418" lon="0.10267">
        <ele>87.12109375</ele>
        <time>2015-05-13T14:58:51Z</time>
      </trkpt>
      <trkpt lat="45.24178" lon="0.10288">
        <ele>88.01953125</ele>
        <time>2015-05-13T14:58:59Z</time>
      </trkpt>
      <trkpt lat="45.24175" lon="0.10314">
        <ele>89.140625</ele>
        <time>2015-05-13T14:59:08Z</time>
      </trkpt>
      <trkpt lat="45.24173" lon="0.10335">
        <ele>89.9453125</ele>
        <time>2015-05-13T14:59:15Z</time>
      </trkpt>
      <trkpt lat="45.24168" lon="0.10368">
        <ele>90.8125</ele>
        <time>2015-05-13T14:59:25Z</time>
      </trkpt>
      <trkpt lat="45.2416" lon="0.10404">
        <ele>91.92578125</ele>
        <time>2015-05-13T14:59:35Z</time>
      </trkpt>
      <trkpt lat="45.24154" lon="0.10445">
        <ele>93.078125</ele>
        <time>2015-05-13T14:59:45Z</time>
      </trkpt>
      <trkpt lat="45.2415" lon="0.10483">
        <ele>94.66796875</ele>
        <time>2015-05-13T14:59:54Z</time>
      </trkpt>
      <trkpt lat="45.24146" lon="0.10521">
        <ele>96.125</ele>
        <time>2015-05-13T15:00:03Z</time>
      </trkpt>
      <trkpt lat="45.24142" lon="0.10555">
        <ele>97.51953125</ele>
        <time>2015-05-13T15:00:11Z</time>
      </trkpt>
      <trkpt lat="45.24139" lon="0.10592">
        <ele>99.24609375</ele>
        <time>2015-05-13T15:00:20Z</time>
      </trkpt>
      <trkpt lat="45.24135" lon="0.10628">
        <ele>101.18359375</ele>
        <time>2015-05-13T15:00:30Z</time>
      </trkpt>
      <trkpt lat="45.24131" lon="0.10664">
        <ele>103.17578125</ele>
        <time>2015-05-13T15:00:40Z</time>
      </trkpt>
      <trkpt lat="45.24124" lon="0.10701">
        <ele>104.7734375</ele>
        <time>2015-05-13T15:00:50Z</time>
      </trkpt>
      <trkpt lat="45.24116" lon="0.10731">
        <ele>105.19140625</ele>
        <time>2015-05-13T15:00:58Z</time>
      </trkpt>
      <trkpt lat="45.24105" lon="0.10773">
        <ele>104.9921875</ele>
        <time>2015-05-13T15:01:09Z</time>
      </trkpt>
      <trkpt lat="45.24105" lon="0.10787">
        <ele>104.8828125</ele>
        <time>2015-05-13T15:01:15Z</time>
      </trkpt>
      <trkpt lat="45.24106" lon="0.10787">
        <ele>104.91015625</ele>
        <time>2015-05-13T15:01:28Z</time>
      </trkpt>
      <trkpt lat="45.24105" lon="0.10787">
        <ele>104.8828125</ele>
        <time>2015-05-13T15:01:42Z</time>
      </trkpt>
      <trkpt lat="45.24106" lon="0.1079">
        <ele>104.8828125</ele>
        <time>2015-05-13T15:01:56Z</time>
      </trkpt>
      <trkpt lat="45.24107" lon="0.10815">
        <ele>104.72265625</ele>
        <time>2015-05-13T15:02:04Z</time>
      </trkpt>
      <trkpt lat="45.24108" lon="0.1084">
        <ele>104.33203125</ele>
        <time>2015-05-13T15:02:10Z</time>
      </trkpt>
      <trkpt lat="45.24111" lon="0.10893">
        <ele>103.07421875</ele>
        <time>2015-05-13T15:02:21Z</time>
      </trkpt>
      <trkpt lat="45.24113" lon="0.10942">
        <ele>101.36328125</ele>
        <time>2015-05-13T15:02:30Z</time>
      </trkpt>
      <trkpt lat="45.24116" lon="0.10997">
        <ele>98.21875</ele>
        <time>2015-05-13T15:02:39Z</time>
      </trkpt>
      <trkpt lat="45.24117" lon="0.1104">
        <ele>94.48046875</ele>
        <time>2015-05-13T15:02:44Z</time>
      </trkpt>
      <trkpt lat="45.24119" lon="0.11049">
        <ele>93.72265625</ele>
        <time>2015-05-13T15:02:45Z</time>
      </trkpt>
      <trkpt lat="45.24121" lon="0.1106">
        <ele>93.14453125</ele>
        <time>2015-05-13T15:02:46Z</time>
      </trkpt>
      <trkpt lat="45.24128" lon="0.11084">
        <ele>91.6953125</ele>
        <time>2015-05-13T15:02:48Z</time>
      </trkpt>
      <trkpt lat="45.24131" lon="0.11096">
        <ele>90.70703125</ele>
        <time>2015-05-13T15:02:49Z</time>
      </trkpt>
      <trkpt lat="45.24133" lon="0.11108">
        <ele>90.078125</ele>
        <time>2015-05-13T15:02:50Z</time>
      </trkpt>
      <trkpt lat="45.24133" lon="0.1112">
        <ele>90.34375</ele>
        <time>2015-05-13T15:02:51Z</time>
      </trkpt>
      <trkpt lat="45.24133" lon="0.11132">
        <ele>90.546875</ele>
        <time>2015-05-13T15:02:52Z</time>
      </trkpt>
      <trkpt lat="45.24133" lon="0.11142">
        <ele>90.68359375</ele>
        <time>2015-05-13T15:02:53Z</time>
      </trkpt>
      <trkpt lat="45.24131" lon="0.11151">
        <ele>90.8828125</ele>
        <time>2015-05-13T15:02:54Z</time>
      </trkpt>
      <trkpt lat="45.24129" lon="0.11159">
        <ele>91.109375</ele>
        <time>2015-05-13T15:02:55Z</time>
      </trkpt>
      <trkpt lat="45.24126" lon="0.11166">
        <ele>91.671875</ele>
        <time>2015-05-13T15:02:56Z</time>
      </trkpt>
      <trkpt lat="45.24123" lon="0.11171">
        <ele>92.18359375</ele>
        <time>2015-05-13T15:02:57Z</time>
      </trkpt>
      <trkpt lat="45.2412" lon="0.11174">
        <ele>92.609375</ele>
        <time>2015-05-13T15:02:58Z</time>
      </trkpt>
      <trkpt lat="45.24117" lon="0.11177">
        <ele>92.92578125</ele>
        <time>2015-05-13T15:02:59Z</time>
      </trkpt>
      <trkpt lat="45.24113" lon="0.11177">
        <ele>93.171875</ele>
        <time>2015-05-13T15:03:00Z</time>
      </trkpt>
      <trkpt lat="45.2411" lon="0.11178">
        <ele>93.375</ele>
        <time>2015-05-13T15:03:01Z</time>
      </trkpt>
      <trkpt lat="45.24106" lon="0.11178">
        <ele>93.5234375</ele>
        <time>2015-05-13T15:03:02Z</time>
      </trkpt>
      <trkpt lat="45.24103" lon="0.11178">
        <ele>93.68359375</ele>
        <time>2015-05-13T15:03:03Z</time>
      </trkpt>
      <trkpt lat="45.2408" lon="0.11177">
        <ele>94.69921875</ele>
        <time>2015-05-13T15:03:11Z</time>
      </trkpt>
      <trkpt lat="45.24062" lon="0.1118">
        <ele>95.90625</ele>
        <time>2015-05-13T15:03:19Z</time>
      </trkpt>
      <trkpt lat="45.24051" lon="0.1119">
        <ele>97.3515625</ele>
        <time>2015-05-13T15:03:27Z</time>
      </trkpt>
      <trkpt lat="45.24041" lon="0.11209">
        <ele>99.16015625</ele>
        <time>2015-05-13T15:03:37Z</time>
      </trkpt>
      <trkpt lat="45.24039" lon="0.11229">
        <ele>100.796875</ele>
        <time>2015-05-13T15:03:44Z</time>
      </trkpt>
      <trkpt lat="45.2404" lon="0.11252">
        <ele>102.7265625</ele>
        <time>2015-05-13T15:03:53Z</time>
      </trkpt>
      <trkpt lat="45.24045" lon="0.1128">
        <ele>104.8203125</ele>
        <time>2015-05-13T15:04:04Z</time>
      </trkpt>
      <trkpt lat="45.24052" lon="0.11303">
        <ele>106.16015625</ele>
        <time>2015-05-13T15:04:14Z</time>
      </trkpt>
      <trkpt lat="45.24058" lon="0.11328">
        <ele>107.41015625</ele>
        <time>2015-05-13T15:04:23Z</time>
      </trkpt>
      <trkpt lat="45.24062" lon="0.11347">
        <ele>107.9140625</ele>
        <time>2015-05-13T15:04:30Z</time>
      </trkpt>
      <trkpt lat="45.24067" lon="0.1138">
        <ele>108.78515625</ele>
        <time>2015-05-13T15:04:42Z</time>
      </trkpt>
      <trkpt lat="45.2407" lon="0.11414">
        <ele>109.24609375</ele>
        <time>2015-05-13T15:04:54Z</time>
      </trkpt>
      <trkpt lat="45.24071" lon="0.11434">
        <ele>109.59765625</ele>
        <time>2015-05-13T15:05:01Z</time>
      </trkpt>
      <trkpt lat="45.24072" lon="0.11457">
        <ele>110.21484375</ele>
        <time>2015-05-13T15:05:09Z</time>
      </trkpt>
      <trkpt lat="45.24071" lon="0.11486">
        <ele>111.42578125</ele>
        <time>2015-05-13T15:05:19Z</time>
      </trkpt>
      <trkpt lat="45.24065" lon="0.11513">
        <ele>113.2578125</ele>
        <time>2015-05-13T15:05:28Z</time>
      </trkpt>
      <trkpt lat="45.2406" lon="0.11539">
        <ele>115.01171875</ele>
        <time>2015-05-13T15:05:37Z</time>
      </trkpt>
      <trkpt lat="45.24051" lon="0.11566">
        <ele>117.421875</ele>
        <time>2015-05-13T15:05:47Z</time>
      </trkpt>
      <trkpt lat="45.24044" lon="0.11584">
        <ele>119.15234375</ele>
        <time>2015-05-13T15:05:54Z</time>
      </trkpt>
      <trkpt lat="45.24036" lon="0.11601">
        <ele>120.75390625</ele>
        <time>2015-05-13T15:06:01Z</time>
      </trkpt>
      <trkpt lat="45.24026" lon="0.11618">
        <ele>121.9921875</ele>
        <time>2015-05-13T15:06:09Z</time>
      </trkpt>
      <trkpt lat="45.24015" lon="0.1164">
        <ele>122.72265625</ele>
        <time>2015-05-13T15:06:18Z</time>
      </trkpt>
      <trkpt lat="45.23994" lon="0.11653">
        <ele>122.99609375</ele>
        <time>2015-05-13T15:06:28Z</time>
      </trkpt>
      <trkpt lat="45.23975" lon="0.1166">
        <ele>122.98828125</ele>
        <time>2015-05-13T15:06:34Z</time>
      </trkpt>
      <trkpt lat="45.23967" lon="0.11661">
        <ele>122.9296875</ele>
        <time>2015-05-13T15:06:36Z</time>
      </trkpt>
      <trkpt lat="45.23952" lon="0.11663">
        <ele>121.87109375</ele>
        <time>2015-05-13T15:06:39Z</time>
      </trkpt>
      <trkpt lat="45.23948" lon="0.11661">
        <ele>121.64453125</ele>
        <time>2015-05-13T15:06:40Z</time>
      </trkpt>
      <trkpt lat="45.23943" lon="0.11657">
        <ele>121.41796875</ele>
        <time>2015-05-13T15:06:41Z</time>
      </trkpt>
      <trkpt lat="45.23929" lon="0.11642">
        <ele>120.8671875</ele>
        <time>2015-05-13T15:06:44Z</time>
      </trkpt>
      <trkpt lat="45.23924" lon="0.11635">
        <ele>120.73046875</ele>
        <time>2015-05-13T15:06:45Z</time>
      </trkpt>
      <trkpt lat="45.23911" lon="0.11625">
        <ele>120.296875</ele>
        <time>2015-05-13T15:06:49Z</time>
      </trkpt>
      <trkpt lat="45.2391" lon="0.11627">
        <ele>120.1875</ele>
        <time>2015-05-13T15:06:50Z</time>
      </trkpt>
      <trkpt lat="45.2391" lon="0.11629">
        <ele>120.05078125</ele>
        <time>2015-05-13T15:06:51Z</time>
      </trkpt>
      <trkpt lat="45.23909" lon="0.11633">
        <ele>119.7578125</ele>
        <time>2015-05-13T15:06:52Z</time>
      </trkpt>
      <trkpt lat="45.23906" lon="0.11638">
        <ele>119.234375</ele>
        <time>2015-05-13T15:06:53Z</time>
      </trkpt>
      <trkpt lat="45.23902" lon="0.11642">
        <ele>118.5703125</ele>
        <time>2015-05-13T15:06:54Z</time>
      </trkpt>
      <trkpt lat="45.23897" lon="0.11647">
        <ele>117.7265625</ele>
        <time>2015-05-13T15:06:55Z</time>
      </trkpt>
      <trkpt lat="45.23877" lon="0.11667">
        <ele>114.55859375</ele>
        <time>2015-05-13T15:06:58Z</time>
      </trkpt>
      <trkpt lat="45.23852" lon="0.11695">
        <ele>110.96875</ele>
        <time>2015-05-13T15:07:01Z</time>
      </trkpt>
      <trkpt lat="45.23838" lon="0.11718">
        <ele>108.0859375</ele>
        <time>2015-05-13T15:07:03Z</time>
      </trkpt>
      <trkpt lat="45.2382" lon="0.11751">
        <ele>103.94140625</ele>
        <time>2015-05-13T15:07:06Z</time>
      </trkpt>
      <trkpt lat="45.23812" lon="0.11761">
        <ele>102.671875</ele>
        <time>2015-05-13T15:07:07Z</time>
      </trkpt>
      <trkpt lat="45.23803" lon="0.11768">
        <ele>101.40625</ele>
        <time>2015-05-13T15:07:08Z</time>
      </trkpt>
      <trkpt lat="45.2378" lon="0.1178">
        <ele>98.6953125</ele>
        <time>2015-05-13T15:07:10Z</time>
      </trkpt>
      <trkpt lat="45.23745" lon="0.11797">
        <ele>94.609375</ele>
        <time>2015-05-13T15:07:13Z</time>
      </trkpt>
      <trkpt lat="45.23707" lon="0.11817">
        <ele>90.203125</ele>
        <time>2015-05-13T15:07:16Z</time>
      </trkpt>
      <trkpt lat="45.23669" lon="0.11837">
        <ele>85.9296875</ele>
        <time>2015-05-13T15:07:19Z</time>
      </trkpt>
      <trkpt lat="45.23658" lon="0.11847">
        <ele>84.68359375</ele>
        <time>2015-05-13T15:07:20Z</time>
      </trkpt>
      <trkpt lat="45.23648" lon="0.11861">
        <ele>83.59375</ele>
        <time>2015-05-13T15:07:21Z</time>
      </trkpt>
      <trkpt lat="45.23641" lon="0.11877">
        <ele>82.703125</ele>
        <time>2015-05-13T15:07:22Z</time>
      </trkpt>
      <trkpt lat="45.23635" lon="0.11893">
        <ele>81.921875</ele>
        <time>2015-05-13T15:07:23Z</time>
      </trkpt>
      <trkpt lat="45.23598" lon="0.11965">
        <ele>79.44140625</ele>
        <time>2015-05-13T15:07:28Z</time>
      </trkpt>
      <trkpt lat="45.23571" lon="0.12012">
        <ele>77.05078125</ele>
        <time>2015-05-13T15:07:32Z</time>
      </trkpt>
      <trkpt lat="45.23557" lon="0.12046">
        <ele>75.01953125</ele>
        <time>2015-05-13T15:07:36Z</time>
      </trkpt>
      <trkpt lat="45.23554" lon="0.12054">
        <ele>74.515625</ele>
        <time>2015-05-13T15:08:29Z</time>
      </trkpt>
      <trkpt lat="45.2354" lon="0.12084">
        <ele>72.71875</ele>
        <time>2015-05-13T15:08:35Z</time>
      </trkpt>
      <trkpt lat="45.23536" lon="0.12089">
        <ele>72.32421875</ele>
        <time>2015-05-13T15:08:36Z</time>
      </trkpt>
      <trkpt lat="45.23532" lon="0.12094">
        <ele>71.90625</ele>
        <time>2015-05-13T15:08:37Z</time>
      </trkpt>
      <trkpt lat="45.23522" lon="0.12105">
        <ele>71.0078125</ele>
        <time>2015-05-13T15:08:39Z</time>
      </trkpt>
      <trkpt lat="45.23494" lon="0.12132">
        <ele>68.75390625</ele>
        <time>2015-05-13T15:08:44Z</time>
      </trkpt>
      <trkpt lat="45.23443" lon="0.12172">
        <ele>65.93359375</ele>
        <time>2015-05-13T15:08:52Z</time>
      </trkpt>
      <trkpt lat="45.23439" lon="0.12176">
        <ele>65.71875</ele>
        <time>2015-05-13T15:08:53Z</time>
      </trkpt>
      <trkpt lat="45.23437" lon="0.1218">
        <ele>65.58203125</ele>
        <time>2015-05-13T15:08:54Z</time>
      </trkpt>
      <trkpt lat="45.23433" lon="0.12189">
        <ele>65.25390625</ele>
        <time>2015-05-13T15:11:35Z</time>
      </trkpt>
      <trkpt lat="45.23429" lon="0.12192">
        <ele>65.0703125</ele>
        <time>2015-05-13T15:11:36Z</time>
      </trkpt>
      <trkpt lat="45.23426" lon="0.12196">
        <ele>64.890625</ele>
        <time>2015-05-13T15:11:37Z</time>
      </trkpt>
      <trkpt lat="45.23403" lon="0.1224">
        <ele>64.97265625</ele>
        <time>2015-05-13T15:11:47Z</time>
      </trkpt>
      <trkpt lat="45.23384" lon="0.12265">
        <ele>66.25</ele>
        <time>2015-05-13T15:11:55Z</time>
      </trkpt>
      <trkpt lat="45.2337" lon="0.12278">
        <ele>67.56640625</ele>
        <time>2015-05-13T15:12:01Z</time>
      </trkpt>
      <trkpt lat="45.23354" lon="0.12298">
        <ele>70.59375</ele>
        <time>2015-05-13T15:12:12Z</time>
      </trkpt>
      <trkpt lat="45.23346" lon="0.12309">
        <ele>72.41015625</ele>
        <time>2015-05-13T15:12:19Z</time>
      </trkpt>
      <trkpt lat="45.23345" lon="0.1231">
        <ele>72.59765625</ele>
        <time>2015-05-13T15:12:20Z</time>
      </trkpt>
      <trkpt lat="45.23344" lon="0.12311">
        <ele>72.796875</ele>
        <time>2015-05-13T15:12:21Z</time>
      </trkpt>
      <trkpt lat="45.23343" lon="0.12313">
        <ele>73.01953125</ele>
        <time>2015-05-13T15:12:22Z</time>
      </trkpt>
      <trkpt lat="45.23342" lon="0.12314">
        <ele>73.25390625</ele>
        <time>2015-05-13T15:12:23Z</time>
      </trkpt>
      <trkpt lat="45.23341" lon="0.12315">
        <ele>73.48828125</ele>
        <time>2015-05-13T15:12:24Z</time>
      </trkpt>
      <trkpt lat="45.2334" lon="0.12317">
        <ele>73.70703125</ele>
        <time>2015-05-13T15:12:25Z</time>
      </trkpt>
      <trkpt lat="45.23333" lon="0.1233">
        <ele>75.53515625</ele>
        <time>2015-05-13T15:12:33Z</time>
      </trkpt>
      <trkpt lat="45.23327" lon="0.12339">
        <ele>76.66796875</ele>
        <time>2015-05-13T15:12:39Z</time>
      </trkpt>
      <trkpt lat="45.23326" lon="0.1234">
        <ele>76.83203125</ele>
        <time>2015-05-13T15:12:40Z</time>
      </trkpt>
      <trkpt lat="45.23325" lon="0.12341">
        <ele>77.0078125</ele>
        <time>2015-05-13T15:12:41Z</time>
      </trkpt>
      <trkpt lat="45.23319" lon="0.12352">
        <ele>78.40234375</ele>
        <time>2015-05-13T15:12:48Z</time>
      </trkpt>
      <trkpt lat="45.23314" lon="0.12362">
        <ele>79.7890625</ele>
        <time>2015-05-13T15:12:55Z</time>
      </trkpt>
      <trkpt lat="45.23309" lon="0.12371">
        <ele>81.0625</ele>
        <time>2015-05-13T15:13:02Z</time>
      </trkpt>
      <trkpt lat="45.23302" lon="0.12381">
        <ele>82.734375</ele>
        <time>2015-05-13T15:13:10Z</time>
      </trkpt>
      <trkpt lat="45.23295" lon="0.12394">
        <ele>84.36328125</ele>
        <time>2015-05-13T15:13:19Z</time>
      </trkpt>
      <trkpt lat="45.23289" lon="0.12404">
        <ele>85.8359375</ele>
        <time>2015-05-13T15:13:27Z</time>
      </trkpt>
      <trkpt lat="45.23288" lon="0.12405">
        <ele>86.0234375</ele>
        <time>2015-05-13T15:13:28Z</time>
      </trkpt>
      <trkpt lat="45.23285" lon="0.12408">
        <ele>86.6171875</ele>
        <time>2015-05-13T15:13:34Z</time>
      </trkpt>
      <trkpt lat="45.23284" lon="0.12411">
        <ele>86.90234375</ele>
        <time>2015-05-13T15:13:43Z</time>
      </trkpt>
      <trkpt lat="45.23277" lon="0.12422">
        <ele>88.7109375</ele>
        <time>2015-05-13T15:13:54Z</time>
      </trkpt>
      <trkpt lat="45.2327" lon="0.12433">
        <ele>90.33984375</ele>
        <time>2015-05-13T15:14:04Z</time>
      </trkpt>
      <trkpt lat="45.23264" lon="0.1244">
        <ele>91.6640625</ele>
        <time>2015-05-13T15:14:14Z</time>
      </trkpt>
      <trkpt lat="45.2326" lon="0.12445">
        <ele>92.54296875</ele>
        <time>2015-05-13T15:14:23Z</time>
      </trkpt>
      <trkpt lat="45.23255" lon="0.1245">
        <ele>93.56640625</ele>
        <time>2015-05-13T15:14:32Z</time>
      </trkpt>
      <trkpt lat="45.23246" lon="0.12455">
        <ele>95.05859375</ele>
        <time>2015-05-13T15:14:44Z</time>
      </trkpt>
      <trkpt lat="45.23239" lon="0.12457">
        <ele>96.02734375</ele>
        <time>2015-05-13T15:14:53Z</time>
      </trkpt>
      <trkpt lat="45.23232" lon="0.12457">
        <ele>96.921875</ele>
        <time>2015-05-13T15:15:01Z</time>
      </trkpt>
      <trkpt lat="45.2323" lon="0.12457">
        <ele>97.2265625</ele>
        <time>2015-05-13T15:15:03Z</time>
      </trkpt>
      <trkpt lat="45.23222" lon="0.12456">
        <ele>98.18359375</ele>
        <time>2015-05-13T15:15:11Z</time>
      </trkpt>
      <trkpt lat="45.23212" lon="0.12454">
        <ele>99.28125</ele>
        <time>2015-05-13T15:15:21Z</time>
      </trkpt>
      <trkpt lat="45.23207" lon="0.12452">
        <ele>99.7265625</ele>
        <time>2015-05-13T15:15:30Z</time>
      </trkpt>
      <trkpt lat="45.23203" lon="0.12453">
        <ele>100.3671875</ele>
        <time>2015-05-13T15:15:38Z</time>
      </trkpt>
      <trkpt lat="45.23197" lon="0.12455">
        <ele>101.25</ele>
        <time>2015-05-13T15:15:45Z</time>
      </trkpt>
      <trkpt lat="45.23184" lon="0.12465">
        <ele>103.11328125</ele>
        <time>2015-05-13T15:15:54Z</time>
      </trkpt>
      <trkpt lat="45.23179" lon="0.12471">
        <ele>103.5703125</ele>
        <time>2015-05-13T15:15:58Z</time>
      </trkpt>
      <trkpt lat="45.23165" lon="0.12495">
        <ele>105.046875</ele>
        <time>2015-05-13T15:16:08Z</time>
      </trkpt>
      <trkpt lat="45.23158" lon="0.12518">
        <ele>105.46875</ele>
        <time>2015-05-13T15:16:15Z</time>
      </trkpt>
      <trkpt lat="45.23157" lon="0.12526">
        <ele>105.609375</ele>
        <time>2015-05-13T15:16:17Z</time>
      </trkpt>
      <trkpt lat="45.23157" lon="0.12531">
        <ele>105.6875</ele>
        <time>2015-05-13T15:16:18Z</time>
      </trkpt>
      <trkpt lat="45.23159" lon="0.12538">
        <ele>105.81640625</ele>
        <time>2015-05-13T15:16:20Z</time>
      </trkpt>
      <trkpt lat="45.23161" lon="0.12541">
        <ele>105.87109375</ele>
        <time>2015-05-13T15:16:21Z</time>
      </trkpt>
      <trkpt lat="45.23163" lon="0.12543">
        <ele>105.90234375</ele>
        <time>2015-05-13T15:16:22Z</time>
      </trkpt>
      <trkpt lat="45.23164" lon="0.12544">
        <ele>105.9296875</ele>
        <time>2015-05-13T15:16:23Z</time>
      </trkpt>
      <trkpt lat="45.23166" lon="0.12545">
        <ele>105.953125</ele>
        <time>2015-05-13T15:16:24Z</time>
      </trkpt>
      <trkpt lat="45.23168" lon="0.12547">
        <ele>105.984375</ele>
        <time>2015-05-13T15:16:25Z</time>
      </trkpt>
      <trkpt lat="45.23169" lon="0.12549">
        <ele>106.05859375</ele>
        <time>2015-05-13T15:16:26Z</time>
      </trkpt>
      <trkpt lat="45.23171" lon="0.12551">
        <ele>106.15625</ele>
        <time>2015-05-13T15:16:27Z</time>
      </trkpt>
      <trkpt lat="45.23174" lon="0.12555">
        <ele>106.3359375</ele>
        <time>2015-05-13T15:16:29Z</time>
      </trkpt>
      <trkpt lat="45.23183" lon="0.12572">
        <ele>107.24609375</ele>
        <time>2015-05-13T15:16:37Z</time>
      </trkpt>
      <trkpt lat="45.23192" lon="0.12593">
        <ele>108.17578125</ele>
        <time>2015-05-13T15:16:44Z</time>
      </trkpt>
      <trkpt lat="45.23198" lon="0.12618">
        <ele>109.390625</ele>
        <time>2015-05-13T15:16:53Z</time>
      </trkpt>
      <trkpt lat="45.23206" lon="0.12639">
        <ele>110.390625</ele>
        <time>2015-05-13T15:17:01Z</time>
      </trkpt>
      <trkpt lat="45.23214" lon="0.12662">
        <ele>111.65625</ele>
        <time>2015-05-13T15:17:09Z</time>
      </trkpt>
      <trkpt lat="45.23221" lon="0.12683">
        <ele>112.6171875</ele>
        <time>2015-05-13T15:17:16Z</time>
      </trkpt>
      <trkpt lat="45.23227" lon="0.12708">
        <ele>114.046875</ele>
        <time>2015-05-13T15:17:23Z</time>
      </trkpt>
      <trkpt lat="45.23229" lon="0.12732">
        <ele>115.01171875</ele>
        <time>2015-05-13T15:17:29Z</time>
      </trkpt>
      <trkpt lat="45.23232" lon="0.12761">
        <ele>116.0625</ele>
        <time>2015-05-13T15:17:36Z</time>
      </trkpt>
      <trkpt lat="45.23239" lon="0.128">
        <ele>116.70703125</ele>
        <time>2015-05-13T15:17:45Z</time>
      </trkpt>
      <trkpt lat="45.23242" lon="0.12829">
        <ele>116.875</ele>
        <time>2015-05-13T15:17:51Z</time>
      </trkpt>
      <trkpt lat="45.23247" lon="0.12865">
        <ele>117.1640625</ele>
        <time>2015-05-13T15:17:58Z</time>
      </trkpt>
      <trkpt lat="45.23255" lon="0.12896">
        <ele>117.3046875</ele>
        <time>2015-05-13T15:18:04Z</time>
      </trkpt>
      <trkpt lat="45.23253" lon="0.12929">
        <ele>116.62109375</ele>
        <time>2015-05-13T15:18:10Z</time>
      </trkpt>
      <trkpt lat="45.23253" lon="0.12956">
        <ele>116.140625</ele>
        <time>2015-05-13T15:18:15Z</time>
      </trkpt>
      <trkpt lat="45.23261" lon="0.12975">
        <ele>116.1953125</ele>
        <time>2015-05-13T15:18:19Z</time>
      </trkpt>
      <trkpt lat="45.23263" lon="0.12982">
        <ele>116.18359375</ele>
        <time>2015-05-13T15:18:20Z</time>
      </trkpt>
      <trkpt lat="45.23266" lon="0.12994">
        <ele>116.09375</ele>
        <time>2015-05-13T15:18:22Z</time>
      </trkpt>
      <trkpt lat="45.23273" lon="0.13012">
        <ele>115.68359375</ele>
        <time>2015-05-13T15:18:25Z</time>
      </trkpt>
      <trkpt lat="45.23282" lon="0.1303">
        <ele>115.4375</ele>
        <time>2015-05-13T15:18:28Z</time>
      </trkpt>
      <trkpt lat="45.23285" lon="0.13035">
        <ele>115.43359375</ele>
        <time>2015-05-13T15:18:29Z</time>
      </trkpt>
      <trkpt lat="45.23302" lon="0.13059">
        <ele>115.25390625</ele>
        <time>2015-05-13T15:18:34Z</time>
      </trkpt>
      <trkpt lat="45.23305" lon="0.13063">
        <ele>115.02734375</ele>
        <time>2015-05-13T15:18:35Z</time>
      </trkpt>
      <trkpt lat="45.23312" lon="0.13072">
        <ele>114.5703125</ele>
        <time>2015-05-13T15:18:37Z</time>
      </trkpt>
      <trkpt lat="45.23316" lon="0.13076">
        <ele>114.375</ele>
        <time>2015-05-13T15:18:38Z</time>
      </trkpt>
      <trkpt lat="45.23334" lon="0.13098">
        <ele>113.58203125</ele>
        <time>2015-05-13T15:18:43Z</time>
      </trkpt>
      <trkpt lat="45.23353" lon="0.13114">
        <ele>112.73046875</ele>
        <time>2015-05-13T15:18:48Z</time>
      </trkpt>
      <trkpt lat="45.23361" lon="0.1312">
        <ele>111.91796875</ele>
        <time>2015-05-13T15:18:50Z</time>
      </trkpt>
      <trkpt lat="45.23365" lon="0.13122">
        <ele>111.4609375</ele>
        <time>2015-05-13T15:18:51Z</time>
      </trkpt>
      <trkpt lat="45.23369" lon="0.13124">
        <ele>111.0234375</ele>
        <time>2015-05-13T15:18:52Z</time>
      </trkpt>
      <trkpt lat="45.23374" lon="0.13127">
        <ele>110.55859375</ele>
        <time>2015-05-13T15:18:53Z</time>
      </trkpt>
      <trkpt lat="45.23381" lon="0.1313">
        <ele>109.94140625</ele>
        <time>2015-05-13T15:18:54Z</time>
      </trkpt>
      <trkpt lat="45.23402" lon="0.13145">
        <ele>107.58984375</ele>
        <time>2015-05-13T15:18:57Z</time>
      </trkpt>
      <trkpt lat="45.23423" lon="0.13163">
        <ele>105.0625</ele>
        <time>2015-05-13T15:19:00Z</time>
      </trkpt>
      <trkpt lat="45.23429" lon="0.13167">
        <ele>104.421875</ele>
        <time>2015-05-13T15:19:01Z</time>
      </trkpt>
      <trkpt lat="45.23436" lon="0.1317">
        <ele>103.86328125</ele>
        <time>2015-05-13T15:19:02Z</time>
      </trkpt>
      <trkpt lat="45.23459" lon="0.13177">
        <ele>102.2265625</ele>
        <time>2015-05-13T15:19:05Z</time>
      </trkpt>
      <trkpt lat="45.23476" lon="0.13184">
        <ele>100.78125</ele>
        <time>2015-05-13T15:19:07Z</time>
      </trkpt>
      <trkpt lat="45.23532" lon="0.13217">
        <ele>96.6171875</ele>
        <time>2015-05-13T15:19:14Z</time>
      </trkpt>
      <trkpt lat="45.23594" lon="0.13261">
        <ele>94.47265625</ele>
        <time>2015-05-13T15:19:23Z</time>
      </trkpt>
      <trkpt lat="45.236" lon="0.13268">
        <ele>94.4296875</ele>
        <time>2015-05-13T15:19:24Z</time>
      </trkpt>
      <trkpt lat="45.23605" lon="0.13275">
        <ele>94.44140625</ele>
        <time>2015-05-13T15:19:25Z</time>
      </trkpt>
      <trkpt lat="45.23613" lon="0.13289">
        <ele>94.5078125</ele>
        <time>2015-05-13T15:19:27Z</time>
      </trkpt>
      <trkpt lat="45.2362" lon="0.13304">
        <ele>94.6328125</ele>
        <time>2015-05-13T15:19:29Z</time>
      </trkpt>
      <trkpt lat="45.23655" lon="0.13356">
        <ele>95.640625</ele>
        <time>2015-05-13T15:19:38Z</time>
      </trkpt>
      <trkpt lat="45.23667" lon="0.13372">
        <ele>96.12109375</ele>
        <time>2015-05-13T15:19:41Z</time>
      </trkpt>
      <trkpt lat="45.23699" lon="0.13405">
        <ele>97.63671875</ele>
        <time>2015-05-13T15:19:50Z</time>
      </trkpt>
      <trkpt lat="45.23711" lon="0.13417">
        <ele>98.06640625</ele>
        <time>2015-05-13T15:19:53Z</time>
      </trkpt>
      <trkpt lat="45.23752" lon="0.13458">
        <ele>99.8671875</ele>
        <time>2015-05-13T15:20:03Z</time>
      </trkpt>
      <trkpt lat="45.23783" lon="0.1349">
        <ele>100.94921875</ele>
        <time>2015-05-13T15:20:12Z</time>
      </trkpt>
      <trkpt lat="45.23817" lon="0.1352">
        <ele>101</ele>
        <time>2015-05-13T15:20:22Z</time>
      </trkpt>
      <trkpt lat="45.23843" lon="0.13535">
        <ele>101</ele>
        <time>2015-05-13T15:20:30Z</time>
      </trkpt>
      <trkpt lat="45.23871" lon="0.13546">
        <ele>100.98828125</ele>
        <time>2015-05-13T15:20:37Z</time>
      </trkpt>
      <trkpt lat="45.23895" lon="0.13556">
        <ele>100.95703125</ele>
        <time>2015-05-13T15:20:42Z</time>
      </trkpt>
      <trkpt lat="45.23938" lon="0.13563">
        <ele>101.14453125</ele>
        <time>2015-05-13T15:20:50Z</time>
      </trkpt>
      <trkpt lat="45.23943" lon="0.13562">
        <ele>101.15625</ele>
        <time>2015-05-13T15:20:51Z</time>
      </trkpt>
      <trkpt lat="45.2399" lon="0.13542">
        <ele>100.80078125</ele>
        <time>2015-05-13T15:21:00Z</time>
      </trkpt>
      <trkpt lat="45.24048" lon="0.13514">
        <ele>100.4609375</ele>
        <time>2015-05-13T15:21:11Z</time>
      </trkpt>
      <trkpt lat="45.24104" lon="0.13488">
        <ele>100.83203125</ele>
        <time>2015-05-13T15:21:21Z</time>
      </trkpt>
      <trkpt lat="45.24147" lon="0.13481">
        <ele>102.40234375</ele>
        <time>2015-05-13T15:21:29Z</time>
      </trkpt>
      <trkpt lat="45.24161" lon="0.1348">
        <ele>103.14453125</ele>
        <time>2015-05-13T15:21:32Z</time>
      </trkpt>
      <trkpt lat="45.24192" lon="0.13479">
        <ele>104.7578125</ele>
        <time>2015-05-13T15:21:40Z</time>
      </trkpt>
      <trkpt lat="45.24219" lon="0.13478">
        <ele>106.17578125</ele>
        <time>2015-05-13T15:21:48Z</time>
      </trkpt>
      <trkpt lat="45.24238" lon="0.13477">
        <ele>107.19140625</ele>
        <time>2015-05-13T15:21:54Z</time>
      </trkpt>
      <trkpt lat="45.24263" lon="0.13479">
        <ele>107.5234375</ele>
        <time>2015-05-13T15:22:02Z</time>
      </trkpt>
      <trkpt lat="45.24292" lon="0.13482">
        <ele>107.6328125</ele>
        <time>2015-05-13T15:22:11Z</time>
      </trkpt>
      <trkpt lat="45.24315" lon="0.13488">
        <ele>107.58984375</ele>
        <time>2015-05-13T15:22:19Z</time>
      </trkpt>
      <trkpt lat="45.24317" lon="0.13489">
        <ele>107.58203125</ele>
        <time>2015-05-13T15:22:20Z</time>
      </trkpt>
      <trkpt lat="45.24319" lon="0.13488">
        <ele>107.53515625</ele>
        <time>2015-05-13T15:22:21Z</time>
      </trkpt>
      <trkpt lat="45.2432" lon="0.13487">
        <ele>107.484375</ele>
        <time>2015-05-13T15:22:22Z</time>
      </trkpt>
      <trkpt lat="45.24337" lon="0.13481">
        <ele>107.0703125</ele>
        <time>2015-05-13T15:22:29Z</time>
      </trkpt>
      <trkpt lat="45.24362" lon="0.13474">
        <ele>106.546875</ele>
        <time>2015-05-13T15:22:37Z</time>
      </trkpt>
      <trkpt lat="45.2437" lon="0.1347">
        <ele>106.33203125</ele>
        <time>2015-05-13T15:22:39Z</time>
      </trkpt>
      <trkpt lat="45.24377" lon="0.13464">
        <ele>106.09765625</ele>
        <time>2015-05-13T15:22:41Z</time>
      </trkpt>
      <trkpt lat="45.24385" lon="0.13458">
        <ele>105.8359375</ele>
        <time>2015-05-13T15:22:43Z</time>
      </trkpt>
      <trkpt lat="45.24389" lon="0.13454">
        <ele>105.703125</ele>
        <time>2015-05-13T15:22:44Z</time>
      </trkpt>
      <trkpt lat="45.24401" lon="0.13446">
        <ele>105.33203125</ele>
        <time>2015-05-13T15:22:47Z</time>
      </trkpt>
      <trkpt lat="45.24405" lon="0.13441">
        <ele>105.1796875</ele>
        <time>2015-05-13T15:22:48Z</time>
      </trkpt>
      <trkpt lat="45.24412" lon="0.13435">
        <ele>104.90625</ele>
        <time>2015-05-13T15:22:49Z</time>
      </trkpt>
      <trkpt lat="45.24419" lon="0.13427">
        <ele>104.38671875</ele>
        <time>2015-05-13T15:22:50Z</time>
      </trkpt>
      <trkpt lat="45.24427" lon="0.13415">
        <ele>103.78515625</ele>
        <time>2015-05-13T15:22:51Z</time>
      </trkpt>
      <trkpt lat="45.24439" lon="0.13403">
        <ele>103.296875</ele>
      </trkpt>
      <trkpt lat="45.24452" lon="0.13386">
        <ele>102.8984375</ele>
      </trkpt>
      <trkpt lat="45.24467" lon="0.13366">
        <ele>102.8046875</ele>
      </trkpt>
      <trkpt lat="45.24481" lon="0.13348">
        <ele>103.1484375</ele>
      </trkpt>
      <trkpt lat="45.24493" lon="0.13334">
        <ele>103.5390625</ele>
      </trkpt>
      <trkpt lat="45.24506" lon="0.1332">
        <ele>104.1640625</ele>
      </trkpt>
      <trkpt lat="45.24519" lon="0.13305">
        <ele>104.8671875</ele>
      </trkpt>
      <trkpt lat="45.24531" lon="0.13292">
        <ele>106.19921875</ele>
      </trkpt>
      <trkpt lat="45.24538" lon="0.13283">
        <ele>107.05078125</ele>
      </trkpt>
      <trkpt lat="45.24543" lon="0.13275">
        <ele>107.76171875</ele>
      </trkpt>
      <trkpt lat="45.24546" lon="0.13273">
        <ele>108.1171875</ele>
      </trkpt>
      <trkpt lat="45.24554" lon="0.13258">
        <ele>109.10546875</ele>
      </trkpt>
      <trkpt lat="45.24563" lon="0.13238">
        <ele>110.23828125</ele>
      </trkpt>
      <trkpt lat="45.24575" lon="0.13216">
        <ele>111.82421875</ele>
      </trkpt>
      <trkpt lat="45.24591" lon="0.13187">
        <ele>112.6171875</ele>
      </trkpt>
      <trkpt lat="45.24602" lon="0.13168">
        <ele>113.0546875</ele>
      </trkpt>
      <trkpt lat="45.24616" lon="0.1315">
        <ele>113.68359375</ele>
      </trkpt>
      <trkpt lat="45.24625" lon="0.13141">
        <ele>114.0390625</ele>
      </trkpt>
      <trkpt lat="45.2464" lon="0.13131">
        <ele>114.45703125</ele>
      </trkpt>
      <trkpt lat="45.24649" lon="0.13125">
        <ele>114.59765625</ele>
      </trkpt>
      <trkpt lat="45.24661" lon="0.13119">
        <ele>114.8359375</ele>
      </trkpt>
      <trkpt lat="45.24678" lon="0.13114">
        <ele>115.4609375</ele>
      </trkpt>
      <trkpt lat="45.24694" lon="0.1311">
        <ele>116.03515625</ele>
      </trkpt>
      <trkpt lat="45.24708" lon="0.13105">
        <ele>116.25390625</ele>
      </trkpt>
      <trkpt lat="45.24725" lon="0.13101">
        <ele>116.8515625</ele>
      </trkpt>
      <trkpt lat="45.24744" lon="0.13101">
        <ele>117.82421875</ele>
      </trkpt>
      <trkpt lat="45.24762" lon="0.13101">
        <ele>118.3984375</ele>
      </trkpt>
      <trkpt lat="45.2478" lon="0.13099">
        <ele>118.921875</ele>
      </trkpt>
      <trkpt lat="45.24796" lon="0.13097">
        <ele>119.29296875</ele>
      </trkpt>
      <trkpt lat="45.24812" lon="0.13095">
        <ele>119.328125</ele>
      </trkpt>
      <trkpt lat="45.24827" lon="0.13092">
        <ele>119.26171875</ele>
      </trkpt>
      <trkpt lat="45.24839" lon="0.13091">
        <ele>119.39453125</ele>
      </trkpt>
      <trkpt lat="45.24856" lon="0.1309">
        <ele>119.51953125</ele>
      </trkpt>
      <trkpt lat="45.24874" lon="0.13089">
        <ele>119.2890625</ele>
      </trkpt>
      <trkpt lat="45.24886" lon="0.13088">
        <ele>119.125</ele>
      </trkpt>
      <trkpt lat="45.24902" lon="0.13094">
        <ele>119.44140625</ele>
      </trkpt>
      <trkpt lat="45.24916" lon="0.13097">
        <ele>119.6875</ele>
      </trkpt>
      <trkpt lat="45.24931" lon="0.13104">
        <ele>120.4453125</ele>
      </trkpt>
      <trkpt lat="45.24949" lon="0.1311">
        <ele>121.171875</ele>
      </trkpt>
      <trkpt lat="45.24962" lon="0.13115">
        <ele>121.60546875</ele>
      </trkpt>
      <trkpt lat="45.24972" lon="0.13116">
        <ele>121.671875</ele>
      </trkpt>
      <trkpt lat="45.24977" lon="0.13116">
        <ele>121.671875</ele>
      </trkpt>
      <trkpt lat="45.24974" lon="0.13125">
        <ele>122.19921875</ele>
      </trkpt>
      <trkpt lat="45.24971" lon="0.13146">
        <ele>123.3203125</ele>
      </trkpt>
      <trkpt lat="45.2497" lon="0.13166">
        <ele>123.8515625</ele>
      </trkpt>
      <trkpt lat="45.24969" lon="0.13181">
        <ele>123.56640625</ele>
      </trkpt>
      <trkpt lat="45.24966" lon="0.13192">
        <ele>123.39453125</ele>
      </trkpt>
      <trkpt lat="45.24962" lon="0.13205">
        <ele>123.3203125</ele>
      </trkpt>
      <trkpt lat="45.24953" lon="0.13216">
        <ele>123.41796875</ele>
      </trkpt>
      <trkpt lat="45.24941" lon="0.13231">
        <ele>122.55078125</ele>
      </trkpt>
      <trkpt lat="45.2493" lon="0.13242">
        <ele>121.87109375</ele>
      </trkpt>
      <trkpt lat="45.24917" lon="0.13257">
        <ele>121.0078125</ele>
      </trkpt>
      <trkpt lat="45.24908" lon="0.13266">
        <ele>120.51953125</ele>
      </trkpt>
      <trkpt lat="45.24902" lon="0.13279">
        <ele>119.5546875</ele>
      </trkpt>
      <trkpt lat="45.24893" lon="0.13294">
        <ele>118.7265625</ele>
      </trkpt>
      <trkpt lat="45.24886" lon="0.13315">
        <ele>117.0703125</ele>
      </trkpt>
      <trkpt lat="45.24879" lon="0.13338">
        <ele>115.58203125</ele>
      </trkpt>
      <trkpt lat="45.24873" lon="0.13365">
        <ele>113.4453125</ele>
      </trkpt>
      <trkpt lat="45.24873" lon="0.13386">
        <ele>111.0546875</ele>
      </trkpt>
      <trkpt lat="45.24876" lon="0.13409">
        <ele>108.19921875</ele>
      </trkpt>
      <trkpt lat="45.2488" lon="0.13429">
        <ele>105.5</ele>
      </trkpt>
      <trkpt lat="45.24881" lon="0.13451">
        <ele>103.34375</ele>
      </trkpt>
      <trkpt lat="45.24879" lon="0.13471">
        <ele>101.70703125</ele>
      </trkpt>
      <trkpt lat="45.24883" lon="0.13484">
        <ele>100.078125</ele>
      </trkpt>
      <trkpt lat="45.2489" lon="0.13493">
        <ele>98.71875</ele>
      </trkpt>
      <trkpt lat="45.24903" lon="0.13504">
        <ele>96.6875</ele>
      </trkpt>
      <trkpt lat="45.24914" lon="0.13516">
        <ele>94.859375</ele>
      </trkpt>
      <trkpt lat="45.24928" lon="0.13531">
        <ele>92.67578125</ele>
      </trkpt>
      <trkpt lat="45.24938" lon="0.13542">
        <ele>91.265625</ele>
      </trkpt>
      <trkpt lat="45.24943" lon="0.13558">
        <ele>90.1015625</ele>
      </trkpt>
      <trkpt lat="45.24949" lon="0.13575">
        <ele>88.90234375</ele>
      </trkpt>
      <trkpt lat="45.24958" lon="0.13602">
        <ele>87.28515625</ele>
      </trkpt>
      <trkpt lat="45.24972" lon="0.13638">
        <ele>85.9765625</ele>
      </trkpt>
      <trkpt lat="45.24964" lon="0.13646">
        <ele>86.22265625</ele>
      </trkpt>
      <trkpt lat="45.2491" lon="0.13668">
        <ele>84.51171875</ele>
      </trkpt>
      <trkpt lat="45.24844" lon="0.13683">
        <ele>86.3515625</ele>
      </trkpt>
      <trkpt lat="45.24837" lon="0.13708">
        <ele>85.29296875</ele>
      </trkpt>
      <trkpt lat="45.24814" lon="0.13767">
        <ele>82.1796875</ele>
      </trkpt>
      <trkpt lat="45.24792" lon="0.13842">
        <ele>79.171875</ele>
      </trkpt>
      <trkpt lat="45.24777" lon="0.1392">
        <ele>79.26953125</ele>
      </trkpt>
      <trkpt lat="45.24766" lon="0.13964">
        <ele>79.76953125</ele>
      </trkpt>
      <trkpt lat="45.24757" lon="0.14009">
        <ele>79.98828125</ele>
      </trkpt>
      <trkpt lat="45.24746" lon="0.14029">
        <ele>80.33984375</ele>
      </trkpt>
      <trkpt lat="45.24741" lon="0.14034">
        <ele>80.671875</ele>
      </trkpt>
      <trkpt lat="45.24728" lon="0.14041">
        <ele>81.8203125</ele>
      </trkpt>
      <trkpt lat="45.24701" lon="0.14049">
        <ele>84.64453125</ele>
      </trkpt>
      <trkpt lat="45.24673" lon="0.14058">
        <ele>87.4921875</ele>
      </trkpt>
      <trkpt lat="45.24657" lon="0.14064">
        <ele>88.8984375</ele>
      </trkpt>
      <trkpt lat="45.24642" lon="0.14073">
        <ele>90.22265625</ele>
      </trkpt>
      <trkpt lat="45.24645" lon="0.14113">
        <ele>90.15625</ele>
      </trkpt>
      <trkpt lat="45.24603" lon="0.14153">
        <ele>87.46484375</ele>
      </trkpt>
      <trkpt lat="45.24466" lon="0.143">
        <ele>68.3828125</ele>
      </trkpt>
      <trkpt lat="45.24434" lon="0.14331">
        <ele>66.73046875</ele>
      </trkpt>
      <trkpt lat="45.24408" lon="0.14415">
        <ele>64.00390625</ele>
      </trkpt>
      <trkpt lat="45.24397" lon="0.1447">
        <ele>64.41015625</ele>
      </trkpt>
      <trkpt lat="45.24385" lon="0.145">
        <ele>66.00390625</ele>
      </trkpt>
      <trkpt lat="45.24371" lon="0.14524">
        <ele>68.59765625</ele>
      </trkpt>
      <trkpt lat="45.24335" lon="0.14555">
        <ele>73.7734375</ele>
      </trkpt>
      <trkpt lat="45.24245" lon="0.14675">
        <ele>74.35546875</ele>
      </trkpt>
      <trkpt lat="45.24231" lon="0.14702">
        <ele>72.9375</ele>
      </trkpt>
      <trkpt lat="45.24207" lon="0.14732">
        <ele>70.31640625</ele>
      </trkpt>
      <trkpt lat="45.24178" lon="0.14751">
        <ele>67.4765625</ele>
      </trkpt>
      <trkpt lat="45.24153" lon="0.14766">
        <ele>64.63671875</ele>
      </trkpt>
      <trkpt lat="45.24134" lon="0.1477">
        <ele>62.984375</ele>
      </trkpt>
      <trkpt lat="45.2412" lon="0.14782">
        <ele>60.96484375</ele>
      </trkpt>
      <trkpt lat="45.24111" lon="0.14805">
        <ele>58.73046875</ele>
      </trkpt>
      <trkpt lat="45.24102" lon="0.14841">
        <ele>55.59765625</ele>
      </trkpt>
      <trkpt lat="45.24096" lon="0.14935">
        <ele>49.3671875</ele>
      </trkpt>
      <trkpt lat="45.24094" lon="0.14964">
        <ele>46.72265625</ele>
      </trkpt>
      <trkpt lat="45.24105" lon="0.14969">
        <ele>46.50390625</ele>
      </trkpt>
      <trkpt lat="45.24153" lon="0.14973">
        <ele>46.82421875</ele>
      </trkpt>
      <trkpt lat="45.24215" lon="0.14974">
        <ele>48.23046875</ele>
      </trkpt>
      <trkpt lat="45.24289" lon="0.14983">
        <ele>48.33203125</ele>
      </trkpt>
      <trkpt lat="45.24348" lon="0.14985">
        <ele>47.8671875</ele>
      </trkpt>
      <trkpt lat="45.24375" lon="0.14978">
        <ele>48.52734375</ele>
      </trkpt>
      <trkpt lat="45.24402" lon="0.14988">
        <ele>46.5234375</ele>
      </trkpt>
      <trkpt lat="45.24554" lon="0.15054">
        <ele>44.0859375</ele>
      </trkpt>
      <trkpt lat="45.24632" lon="0.15096">
        <ele>45.1328125</ele>
      </trkpt>
      <trkpt lat="45.24686" lon="0.15131">
        <ele>44.73046875</ele>
      </trkpt>
      <trkpt lat="45.24698" lon="0.15144">
        <ele>43.32421875</ele>
      </trkpt>
      <trkpt lat="45.24727" lon="0.1516">
        <ele>42.88671875</ele>
      </trkpt>
      <trkpt lat="45.24752" lon="0.15183">
        <ele>41.34375</ele>
      </trkpt>
      <trkpt lat="45.24768" lon="0.15195">
        <ele>40.359375</ele>
      </trkpt>
      <trkpt lat="45.24777" lon="0.152">
        <ele>40.1796875</ele>
      </trkpt>
      <trkpt lat="45.24783" lon="0.152">
        <ele>40.34375</ele>
      </trkpt>
      <trkpt lat="45.24845" lon="0.15183">
        <ele>41.5625</ele>
      </trkpt>
      <trkpt lat="45.24859" lon="0.15177">
        <ele>42.01953125</ele>
      </trkpt>
      <trkpt lat="45.24866" lon="0.15173">
        <ele>42.57421875</ele>
      </trkpt>
      <trkpt lat="45.24877" lon="0.15202">
        <ele>42.8515625</ele>
      </trkpt>
      <trkpt lat="45.24879" lon="0.15216">
        <ele>42.73046875</ele>
      </trkpt>
      <trkpt lat="45.24879" lon="0.15231">
        <ele>42.31640625</ele>
      </trkpt>
      <trkpt lat="45.24877" lon="0.15247">
        <ele>41.796875</ele>
      </trkpt>
      <trkpt lat="45.24881" lon="0.15264">
        <ele>41.55078125</ele>
      </trkpt>
      <trkpt lat="45.24885" lon="0.15275">
        <ele>41.5078125</ele>
      </trkpt>
      <trkpt lat="45.24934" lon="0.15331">
        <ele>43.41015625</ele>
      </trkpt>
      <trkpt lat="45.24979" lon="0.15386">
        <ele>46.96875</ele>
      </trkpt>
      <trkpt lat="45.25027" lon="0.15441">
        <ele>50.52734375</ele>
      </trkpt>
      <trkpt lat="45.25069" lon="0.15501">
        <ele>52.79296875</ele>
      </trkpt>
      <trkpt lat="45.25102" lon="0.15553">
        <ele>53.6171875</ele>
      </trkpt>
      <trkpt lat="45.25158" lon="0.15652">
        <ele>54.19140625</ele>
      </trkpt>
      <trkpt lat="45.25202" lon="0.15745">
        <ele>50.5</ele>
      </trkpt>
      <trkpt lat="45.25203" lon="0.15784">
        <ele>46.49609375</ele>
      </trkpt>
      <trkpt lat="45.25208" lon="0.15801">
        <ele>45.85546875</ele>
      </trkpt>
      <trkpt lat="45.25211" lon="0.15807">
        <ele>45.890625</ele>
      </trkpt>
      <trkpt lat="45.25213" lon="0.15816">
        <ele>45.43359375</ele>
      </trkpt>
      <trkpt lat="45.25224" lon="0.15831">
        <ele>45.84375</ele>
      </trkpt>
      <trkpt lat="45.25251" lon="0.15854">
        <ele>47.8671875</ele>
      </trkpt>
      <trkpt lat="45.25259" lon="0.15868">
        <ele>47.76171875</ele>
      </trkpt>
      <trkpt lat="45.25262" lon="0.15895">
        <ele>46.26171875</ele>
      </trkpt>
      <trkpt lat="45.25253" lon="0.15896">
        <ele>45.08984375</ele>
      </trkpt>
      <trkpt lat="45.25263" lon="0.15956">
        <ele>42.734375</ele>
      </trkpt>
      <trkpt lat="45.25294" lon="0.16062">
        <ele>42.17578125</ele>
      </trkpt>
      <trkpt lat="45.25314" lon="0.16181">
        <ele>40.453125</ele>
      </trkpt>
      <trkpt lat="45.25311" lon="0.16216">
        <ele>40.23046875</ele>
      </trkpt>
      <trkpt lat="45.25306" lon="0.16235">
        <ele>40.1328125</ele>
      </trkpt>
      <trkpt lat="45.25279" lon="0.16288">
        <ele>39.64453125</ele>
      </trkpt>
      <trkpt lat="45.25254" lon="0.16309">
        <ele>39.1953125</ele>
      </trkpt>
      <trkpt lat="45.25188" lon="0.16307">
        <ele>39</ele>
      </trkpt>
      <trkpt lat="45.25178" lon="0.16315">
        <ele>39</ele>
      </trkpt>
      <trkpt lat="45.25174" lon="0.16326">
        <ele>39</ele>
      </trkpt>
      <trkpt lat="45.25175" lon="0.16351">
        <ele>39</ele>
      </trkpt>
      <trkpt lat="45.25184" lon="0.16379">
        <ele>39</ele>
      </trkpt>
      <trkpt lat="45.25227" lon="0.1645">
        <ele>39.71484375</ele>
      </trkpt>
      <trkpt lat="45.25242" lon="0.16485">
        <ele>39.98828125</ele>
      </trkpt>
      <trkpt lat="45.25262" lon="0.16544">
        <ele>40.3359375</ele>
      </trkpt>
      <trkpt lat="45.25277" lon="0.166">
        <ele>40.62109375</ele>
      </trkpt>
      <trkpt lat="45.25292" lon="0.16638">
        <ele>40.89453125</ele>
      </trkpt>
      <trkpt lat="45.2533" lon="0.16721">
        <ele>40.9296875</ele>
      </trkpt>
      <trkpt lat="45.25375" lon="0.16817">
        <ele>41</ele>
      </trkpt>
      <trkpt lat="45.25392" lon="0.16814">
        <ele>41</ele>
      </trkpt>
      <trkpt lat="45.25425" lon="0.16792">
        <ele>41</ele>
      </trkpt>
      <trkpt lat="45.25538" lon="0.16651">
        <ele>42.30859375</ele>
      </trkpt>
      <trkpt lat="45.25562" lon="0.16633">
        <ele>42.75</ele>
      </trkpt>
      <trkpt lat="45.25593" lon="0.16614">
        <ele>43.23828125</ele>
      </trkpt>
      <trkpt lat="45.25614" lon="0.16591">
        <ele>43.80078125</ele>
      </trkpt>
      <trkpt lat="45.25662" lon="0.16521">
        <ele>46.5546875</ele>
      </trkpt>
      <trkpt lat="45.25733" lon="0.16427">
        <ele>52.24609375</ele>
      </trkpt>
      <trkpt lat="45.25867" lon="0.16549">
        <ele>62.72265625</ele>
      </trkpt>
      <trkpt lat="45.2593" lon="0.16611">
        <ele>64.21875</ele>
      </trkpt>
      <trkpt lat="45.25999" lon="0.16706">
        <ele>60.0234375</ele>
      </trkpt>
      <trkpt lat="45.26033" lon="0.16765">
        <ele>56.44921875</ele>
      </trkpt>
      <trkpt lat="45.26075" lon="0.16799">
        <ele>55.859375</ele>
      </trkpt>
      <trkpt lat="45.26142" lon="0.16827">
        <ele>58.28125</ele>
      </trkpt>
      <trkpt lat="45.2616" lon="0.16834">
        <ele>58.74609375</ele>
      </trkpt>
      <trkpt lat="45.26165" lon="0.16838">
        <ele>58.83984375</ele>
      </trkpt>
      <trkpt lat="45.2626" lon="0.16869">
        <ele>59.0546875</ele>
      </trkpt>
      <trkpt lat="45.2628" lon="0.16873">
        <ele>57.93359375</ele>
      </trkpt>
      <trkpt lat="45.26301" lon="0.1687">
        <ele>56.73828125</ele>
      </trkpt>
      <trkpt lat="45.26378" lon="0.16848">
        <ele>50.921875</ele>
      </trkpt>
      <trkpt lat="45.26441" lon="0.1682">
        <ele>51.2109375</ele>
      </trkpt>
      <trkpt lat="45.26449" lon="0.16817">
        <ele>51.546875</ele>
      </trkpt>
      <trkpt lat="45.26465" lon="0.1682">
        <ele>52.12890625</ele>
      </trkpt>
      <trkpt lat="45.26485" lon="0.16839">
        <ele>53.72265625</ele>
      </trkpt>
      <trkpt lat="45.26536" lon="0.16893">
        <ele>59.46484375</ele>
      </trkpt>
      <trkpt lat="45.2655" lon="0.16907">
        <ele>60.9296875</ele>
      </trkpt>
      <trkpt lat="45.26574" lon="0.16914">
        <ele>63.125</ele>
      </trkpt>
      <trkpt lat="45.26624" lon="0.16917">
        <ele>68.1171875</ele>
      </trkpt>
      <trkpt lat="45.2666" lon="0.16916">
        <ele>71.33984375</ele>
      </trkpt>
      <trkpt lat="45.2676" lon="0.16937">
        <ele>76.3203125</ele>
      </trkpt>
      <trkpt lat="45.26774" lon="0.16942">
        <ele>76.328125</ele>
      </trkpt>
      <trkpt lat="45.26781" lon="0.16936">
        <ele>77.23828125</ele>
      </trkpt>
      <trkpt lat="45.26845" lon="0.16909">
        <ele>82.90625</ele>
      </trkpt>
      <trkpt lat="45.26857" lon="0.16907">
        <ele>83.87890625</ele>
      </trkpt>
      <trkpt lat="45.26867" lon="0.16907">
        <ele>84.7890625</ele>
      </trkpt>
      <trkpt lat="45.26918" lon="0.16908">
        <ele>88.2890625</ele>
      </trkpt>
      <trkpt lat="45.26956" lon="0.16906">
        <ele>87.6484375</ele>
      </trkpt>
      <trkpt lat="45.26974" lon="0.16893">
        <ele>87.30078125</ele>
      </trkpt>
      <trkpt lat="45.26974" lon="0.16909">
        <ele>86.1875</ele>
      </trkpt>
      <trkpt lat="45.26978" lon="0.16925">
        <ele>84.52734375</ele>
      </trkpt>
      <trkpt lat="45.26985" lon="0.16924">
        <ele>83.484375</ele>
      </trkpt>
      <trkpt lat="45.26997" lon="0.16907">
        <ele>83.52734375</ele>
      </trkpt>
      <trkpt lat="45.27006" lon="0.16894">
        <ele>84.1015625</ele>
      </trkpt>
      <trkpt lat="45.27013" lon="0.16883">
        <ele>84.90625</ele>
      </trkpt>
      <trkpt lat="45.27021" lon="0.16873">
        <ele>85.4921875</ele>
      </trkpt>
      <trkpt lat="45.27031" lon="0.16864">
        <ele>86.08984375</ele>
      </trkpt>
      <trkpt lat="45.27032" lon="0.1686">
        <ele>86.52734375</ele>
      </trkpt>
      <trkpt lat="45.27031" lon="0.16855">
        <ele>87.15234375</ele>
      </trkpt>
      <trkpt lat="45.27024" lon="0.1684">
        <ele>89.08984375</ele>
      </trkpt>
      <trkpt lat="45.27029" lon="0.16836">
        <ele>89.5390625</ele>
      </trkpt>
      <trkpt lat="45.27052" lon="0.16822">
        <ele>91.0703125</ele>
      </trkpt>
      <trkpt lat="45.27085" lon="0.16807">
        <ele>92.56640625</ele>
      </trkpt>
      <trkpt lat="45.27096" lon="0.16805">
        <ele>92.91796875</ele>
      </trkpt>
      <trkpt lat="45.27103" lon="0.16805">
        <ele>92.953125</ele>
      </trkpt>
      <trkpt lat="45.27113" lon="0.16809">
        <ele>92.78125</ele>
      </trkpt>
      <trkpt lat="45.27118" lon="0.16811">
        <ele>92.67578125</ele>
      </trkpt>
      <trkpt lat="45.27124" lon="0.16812">
        <ele>92.6796875</ele>
      </trkpt>
      <trkpt lat="45.27145" lon="0.16818">
        <ele>91.953125</ele>
      </trkpt>
      <trkpt lat="45.27161" lon="0.16818">
        <ele>91.3828125</ele>
      </trkpt>
      <trkpt lat="45.27174" lon="0.16817">
        <ele>91.0625</ele>
      </trkpt>
      <trkpt lat="45.2718" lon="0.16817">
        <ele>90.84765625</ele>
      </trkpt>
      <trkpt lat="45.27216" lon="0.16819">
        <ele>92.97265625</ele>
      </trkpt>
      <trkpt lat="45.27243" lon="0.16823">
        <ele>95.28125</ele>
      </trkpt>
      <trkpt lat="45.27255" lon="0.16823">
        <ele>96.96484375</ele>
      </trkpt>
      <trkpt lat="45.27265" lon="0.16822">
        <ele>98.359375</ele>
      </trkpt>
      <trkpt lat="45.2727" lon="0.1682">
        <ele>99.25</ele>
      </trkpt>
      <trkpt lat="45.27276" lon="0.16818">
        <ele>100.1953125</ele>
      </trkpt>
      <trkpt lat="45.27302" lon="0.16805">
        <ele>104.1640625</ele>
      </trkpt>
      <trkpt lat="45.27304" lon="0.16814">
        <ele>104.04296875</ele>
      </trkpt>
      <trkpt lat="45.27321" lon="0.1687">
        <ele>105.12109375</ele>
      </trkpt>
      <trkpt lat="45.27323" lon="0.16881">
        <ele>105.375</ele>
      </trkpt>
      <trkpt lat="45.27324" lon="0.16895">
        <ele>105.9375</ele>
      </trkpt>
      <trkpt lat="45.27321" lon="0.16907">
        <ele>106.03125</ele>
      </trkpt>
      <trkpt lat="45.27313" lon="0.16916">
        <ele>105.36328125</ele>
      </trkpt>
      <trkpt lat="45.273" lon="0.16927">
        <ele>104.0625</ele>
      </trkpt>
      <trkpt lat="45.2729" lon="0.16931">
        <ele>102.25</ele>
      </trkpt>
      <trkpt lat="45.27274" lon="0.16934">
        <ele>99.078125</ele>
      </trkpt>
      <trkpt lat="45.27269" lon="0.16933">
        <ele>97.9921875</ele>
      </trkpt>
      <trkpt lat="45.27261" lon="0.16931">
        <ele>96.0546875</ele>
      </trkpt>
      <trkpt lat="45.27254" lon="0.16923">
        <ele>94.48828125</ele>
      </trkpt>
      <trkpt lat="45.27246" lon="0.16912">
        <ele>92.5703125</ele>
      </trkpt>
      <trkpt lat="45.27238" lon="0.16898">
        <ele>90.82421875</ele>
      </trkpt>
      <trkpt lat="45.27226" lon="0.16888">
        <ele>89.078125</ele>
      </trkpt>
      <trkpt lat="45.27216" lon="0.16886">
        <ele>87.765625</ele>
      </trkpt>
      <trkpt lat="45.27209" lon="0.16888">
        <ele>86.76953125</ele>
      </trkpt>
      <trkpt lat="45.27201" lon="0.16892">
        <ele>85.54296875</ele>
      </trkpt>
      <trkpt lat="45.27182" lon="0.1691">
        <ele>82.4140625</ele>
      </trkpt>
      <trkpt lat="45.2718" lon="0.16912">
        <ele>82.1640625</ele>
      </trkpt>
      <trkpt lat="45.27203" lon="0.16975">
        <ele>87.5546875</ele>
      </trkpt>
      <trkpt lat="45.27205" lon="0.16984">
        <ele>88.3046875</ele>
      </trkpt>
      <trkpt lat="45.27207" lon="0.16993">
        <ele>88.82421875</ele>
      </trkpt>
      <trkpt lat="45.27208" lon="0.17002">
        <ele>88.69140625</ele>
      </trkpt>
      <trkpt lat="45.2721" lon="0.17006">
        <ele>88.74609375</ele>
      </trkpt>
      <trkpt lat="45.27211" lon="0.1701">
        <ele>88.7578125</ele>
      </trkpt>
      <trkpt lat="45.27216" lon="0.1701">
        <ele>89.33203125</ele>
      </trkpt>
      <trkpt lat="45.27229" lon="0.17005">
        <ele>91.0703125</ele>
      </trkpt>
      <trkpt lat="45.27242" lon="0.17003">
        <ele>92.79296875</ele>
      </trkpt>
      <trkpt lat="45.27256" lon="0.17002">
        <ele>95.1796875</ele>
      </trkpt>
      <trkpt lat="45.27271" lon="0.17005">
        <ele>97.23046875</ele>
      </trkpt>
      <trkpt lat="45.27276" lon="0.17008">
        <ele>97.65625</ele>
      </trkpt>
      <trkpt lat="45.27279" lon="0.17013">
        <ele>97.5625</ele>
      </trkpt>
      <trkpt lat="45.27283" lon="0.17019">
        <ele>97.27734375</ele>
      </trkpt>
      <trkpt lat="45.27286" lon="0.17028">
        <ele>96.3203125</ele>
      </trkpt>
      <trkpt lat="45.27287" lon="0.17035">
        <ele>95.33203125</ele>
      </trkpt>
      <trkpt lat="45.27287" lon="0.17044">
        <ele>94.203125</ele>
      </trkpt>
      <trkpt lat="45.27286" lon="0.17053">
        <ele>91.8203125</ele>
      </trkpt>
      <trkpt lat="45.27286" lon="0.17065">
        <ele>88.55078125</ele>
      </trkpt>
      <trkpt lat="45.27284" lon="0.17074">
        <ele>86.23828125</ele>
      </trkpt>
      <trkpt lat="45.27287" lon="0.1708">
        <ele>84.8828125</ele>
      </trkpt>
      <trkpt lat="45.27293" lon="0.17078">
        <ele>85.67578125</ele>
      </trkpt>
      <trkpt lat="45.27297" lon="0.17071">
        <ele>87.96875</ele>
      </trkpt>
      <trkpt lat="45.273" lon="0.17058">
        <ele>91.8046875</ele>
      </trkpt>
      <trkpt lat="45.27311" lon="0.1699">
        <ele>105.25</ele>
      </trkpt>
      <trkpt lat="45.27314" lon="0.16977">
        <ele>105.703125</ele>
      </trkpt>
      <trkpt lat="45.27318" lon="0.16963">
        <ele>106.2109375</ele>
      </trkpt>
      <trkpt lat="45.27331" lon="0.16922">
        <ele>107.84765625</ele>
      </trkpt>
      <trkpt lat="45.27352" lon="0.16885">
        <ele>109.1328125</ele>
      </trkpt>
      <trkpt lat="45.27357" lon="0.16879">
        <ele>109</ele>
      </trkpt>
      <trkpt lat="45.27368" lon="0.1686">
        <ele>108.81640625</ele>
      </trkpt>
      <trkpt lat="45.27373" lon="0.1685">
        <ele>108.62890625</ele>
      </trkpt>
      <trkpt lat="45.27375" lon="0.16847">
        <ele>108.5546875</ele>
      </trkpt>
      <trkpt lat="45.27379" lon="0.16847">
        <ele>108.453125</ele>
      </trkpt>
      <trkpt lat="45.27383" lon="0.16847">
        <ele>108.3828125</ele>
      </trkpt>
      <trkpt lat="45.27385" lon="0.16854">
        <ele>108.4765625</ele>
      </trkpt>
      <trkpt lat="45.27389" lon="0.1686">
        <ele>108.57421875</ele>
      </trkpt>
      <trkpt lat="45.27394" lon="0.16866">
        <ele>108.65625</ele>
      </trkpt>
      <trkpt lat="45.27401" lon="0.16871">
        <ele>108.76171875</ele>
      </trkpt>
      <trkpt lat="45.27407" lon="0.16877">
        <ele>108.92578125</ele>
      </trkpt>
      <trkpt lat="45.27417" lon="0.1689">
        <ele>108.76171875</ele>
      </trkpt>
      <trkpt lat="45.27429" lon="0.16914">
        <ele>108.4921875</ele>
      </trkpt>
      <trkpt lat="45.27432" lon="0.16922">
        <ele>108.51171875</ele>
      </trkpt>
      <trkpt lat="45.27437" lon="0.16926">
        <ele>108.30078125</ele>
      </trkpt>
      <trkpt lat="45.27449" lon="0.16933">
        <ele>107.796875</ele>
      </trkpt>
      <trkpt lat="45.27461" lon="0.16939">
        <ele>107.0078125</ele>
      </trkpt>
      <trkpt lat="45.27479" lon="0.16947">
        <ele>106.4609375</ele>
      </trkpt>
      <trkpt lat="45.27503" lon="0.16961">
        <ele>105.67578125</ele>
      </trkpt>
      <trkpt lat="45.27521" lon="0.16971">
        <ele>105.0390625</ele>
      </trkpt>
      <trkpt lat="45.27566" lon="0.16993">
        <ele>105.37890625</ele>
      </trkpt>
      <trkpt lat="45.27619" lon="0.17021">
        <ele>105.89453125</ele>
      </trkpt>
      <trkpt lat="45.27673" lon="0.17048">
        <ele>105.921875</ele>
      </trkpt>
      <trkpt lat="45.27762" lon="0.17093">
        <ele>106.1875</ele>
      </trkpt>
      <trkpt lat="45.27785" lon="0.17104">
        <ele>106.765625</ele>
      </trkpt>
      <trkpt lat="45.27843" lon="0.17133">
        <ele>106.6484375</ele>
      </trkpt>
      <trkpt lat="45.27875" lon="0.17151">
        <ele>105.328125</ele>
      </trkpt>
      <trkpt lat="45.27895" lon="0.17162">
        <ele>103.82421875</ele>
      </trkpt>
      <trkpt lat="45.2789" lon="0.1717">
        <ele>104.0546875</ele>
      </trkpt>
      <trkpt lat="45.27877" lon="0.17176">
        <ele>104.890625</ele>
      </trkpt>
      <trkpt lat="45.27855" lon="0.17184">
        <ele>106.328125</ele>
      </trkpt>
      <trkpt lat="45.27826" lon="0.17195">
        <ele>105.96875</ele>
      </trkpt>
      <trkpt lat="45.27843" lon="0.17222">
        <ele>105.296875</ele>
      </trkpt>
      <trkpt lat="45.2788" lon="0.17293">
        <ele>99.68359375</ele>
      </trkpt>
      <trkpt lat="45.27931" lon="0.17367">
        <ele>92.28125</ele>
      </trkpt>
      <trkpt lat="45.27953" lon="0.17413">
        <ele>90.2109375</ele>
      </trkpt>
      <trkpt lat="45.27992" lon="0.1757">
        <ele>88.1015625</ele>
      </trkpt>
      <trkpt lat="45.27999" lon="0.17698">
        <ele>85.53515625</ele>
      </trkpt>
      <trkpt lat="45.27999" lon="0.17761">
        <ele>81.8671875</ele>
      </trkpt>
      <trkpt lat="45.28042" lon="0.17854">
        <ele>79.30859375</ele>
      </trkpt>
      <trkpt lat="45.28079" lon="0.17951">
        <ele>73.80859375</ele>
      </trkpt>
      <trkpt lat="45.28104" lon="0.18049">
        <ele>67.76171875</ele>
      </trkpt>
      <trkpt lat="45.2811" lon="0.18051">
        <ele>67.4921875</ele>
      </trkpt>
      <trkpt lat="45.28118" lon="0.18052">
        <ele>67.14453125</ele>
      </trkpt>
      <trkpt lat="45.28124" lon="0.18052">
        <ele>66.953125</ele>
      </trkpt>
      <trkpt lat="45.28136" lon="0.18051">
        <ele>66.41015625</ele>
      </trkpt>
      <trkpt lat="45.2814" lon="0.18051">
        <ele>66.23828125</ele>
      </trkpt>
      <trkpt lat="45.28142" lon="0.18055">
        <ele>66.00390625</ele>
      </trkpt>
      <trkpt lat="45.28144" lon="0.18059">
        <ele>65.734375</ele>
      </trkpt>
      <trkpt lat="45.28148" lon="0.18084">
        <ele>64.61328125</ele>
      </trkpt>
      <trkpt lat="45.28157" lon="0.1813">
        <ele>62.76171875</ele>
      </trkpt>
      <trkpt lat="45.28169" lon="0.18187">
        <ele>60.4921875</ele>
      </trkpt>
      <trkpt lat="45.28175" lon="0.18224">
        <ele>59.5234375</ele>
      </trkpt>
      <trkpt lat="45.28179" lon="0.18237">
        <ele>59.28125</ele>
      </trkpt>
      <trkpt lat="45.28178" lon="0.18254">
        <ele>59.2890625</ele>
      </trkpt>
      <trkpt lat="45.28178" lon="0.18269">
        <ele>59.22265625</ele>
      </trkpt>
      <trkpt lat="45.28177" lon="0.1828">
        <ele>59.09765625</ele>
      </trkpt>
      <trkpt lat="45.28178" lon="0.18323">
        <ele>58.3828125</ele>
      </trkpt>
      <trkpt lat="45.28178" lon="0.18359">
        <ele>57.7265625</ele>
      </trkpt>
      <trkpt lat="45.28178" lon="0.18376">
        <ele>57.4140625</ele>
      </trkpt>
      <trkpt lat="45.28177" lon="0.18398">
        <ele>56.41796875</ele>
      </trkpt>
      <trkpt lat="45.28175" lon="0.18417">
        <ele>55.5703125</ele>
      </trkpt>
      <trkpt lat="45.28172" lon="0.18433">
        <ele>54.984375</ele>
      </trkpt>
      <trkpt lat="45.2817" lon="0.18447">
        <ele>54.56640625</ele>
      </trkpt>
      <trkpt lat="45.28166" lon="0.18468">
        <ele>53.921875</ele>
      </trkpt>
      <trkpt lat="45.28165" lon="0.18475">
        <ele>53.66796875</ele>
      </trkpt>
      <trkpt lat="45.28165" lon="0.18485">
        <ele>53.2578125</ele>
      </trkpt>
      <trkpt lat="45.28165" lon="0.18494">
        <ele>52.84765625</ele>
      </trkpt>
      <trkpt lat="45.28164" lon="0.18514">
        <ele>52.07421875</ele>
      </trkpt>
      <trkpt lat="45.28166" lon="0.18553">
        <ele>50.30078125</ele>
      </trkpt>
      <trkpt lat="45.28169" lon="0.18582">
        <ele>49.02734375</ele>
      </trkpt>
      <trkpt lat="45.28171" lon="0.18605">
        <ele>48.2421875</ele>
      </trkpt>
      <trkpt lat="45.28172" lon="0.18614">
        <ele>48.1875</ele>
      </trkpt>
      <trkpt lat="45.28174" lon="0.18623">
        <ele>48.12109375</ele>
      </trkpt>
      <trkpt lat="45.28177" lon="0.18637">
        <ele>48.05078125</ele>
      </trkpt>
      <trkpt lat="45.2818" lon="0.18648">
        <ele>48.01171875</ele>
      </trkpt>
      <trkpt lat="45.28188" lon="0.18665">
        <ele>48.2265625</ele>
      </trkpt>
      <trkpt lat="45.28195" lon="0.1868">
        <ele>48.703125</ele>
      </trkpt>
      <trkpt lat="45.28204" lon="0.18695">
        <ele>49.28515625</ele>
      </trkpt>
      <trkpt lat="45.28209" lon="0.18704">
        <ele>49.671875</ele>
      </trkpt>
      <trkpt lat="45.28227" lon="0.18733">
        <ele>51.55078125</ele>
      </trkpt>
      <trkpt lat="45.28233" lon="0.18748">
        <ele>52.6015625</ele>
      </trkpt>
      <trkpt lat="45.28238" lon="0.18756">
        <ele>53.3125</ele>
      </trkpt>
      <trkpt lat="45.28238" lon="0.18763">
        <ele>53.65625</ele>
      </trkpt>
      <trkpt lat="45.28241" lon="0.18773">
        <ele>54.47265625</ele>
      </trkpt>
      <trkpt lat="45.28247" lon="0.18778">
        <ele>55.23828125</ele>
      </trkpt>
      <trkpt lat="45.28255" lon="0.18795">
        <ele>56.765625</ele>
      </trkpt>
      <trkpt lat="45.28261" lon="0.18805">
        <ele>57.71875</ele>
      </trkpt>
      <trkpt lat="45.28265" lon="0.18817">
        <ele>58.59375</ele>
      </trkpt>
      <trkpt lat="45.2827" lon="0.18827">
        <ele>59.3671875</ele>
      </trkpt>
      <trkpt lat="45.28274" lon="0.1884">
        <ele>60.27734375</ele>
      </trkpt>
      <trkpt lat="45.28286" lon="0.18861">
        <ele>61.85546875</ele>
      </trkpt>
      <trkpt lat="45.28299" lon="0.1889">
        <ele>64.01171875</ele>
      </trkpt>
      <trkpt lat="45.28315" lon="0.1892">
        <ele>66.4375</ele>
      </trkpt>
      <trkpt lat="45.28331" lon="0.18952">
        <ele>69.421875</ele>
      </trkpt>
      <trkpt lat="45.28346" lon="0.18984">
        <ele>72.58984375</ele>
      </trkpt>
      <trkpt lat="45.28364" lon="0.1901">
        <ele>75.7421875</ele>
      </trkpt>
      <trkpt lat="45.28378" lon="0.19036">
        <ele>79.08984375</ele>
      </trkpt>
      <trkpt lat="45.28386" lon="0.19048">
        <ele>80.69921875</ele>
      </trkpt>
      <trkpt lat="45.28402" lon="0.1907">
        <ele>83.4375</ele>
      </trkpt>
      <trkpt lat="45.28413" lon="0.19082">
        <ele>85.59765625</ele>
      </trkpt>
      <trkpt lat="45.28425" lon="0.19096">
        <ele>88.33984375</ele>
      </trkpt>
      <trkpt lat="45.28431" lon="0.19114">
        <ele>89.80859375</ele>
      </trkpt>
      <trkpt lat="45.28434" lon="0.19122">
        <ele>90.57421875</ele>
      </trkpt>
      <trkpt lat="45.28429" lon="0.19134">
        <ele>90.375</ele>
      </trkpt>
      <trkpt lat="45.28428" lon="0.19143">
        <ele>90.5390625</ele>
      </trkpt>
      <trkpt lat="45.28426" lon="0.1915">
        <ele>90.43359375</ele>
      </trkpt>
      <trkpt lat="45.28428" lon="0.19158">
        <ele>91.03125</ele>
      </trkpt>
      <trkpt lat="45.28431" lon="0.19163">
        <ele>91.48828125</ele>
      </trkpt>
      <trkpt lat="45.28449" lon="0.19163">
        <ele>94.0234375</ele>
      </trkpt>
      <trkpt lat="45.28479" lon="0.19181">
        <ele>98.296875</ele>
      </trkpt>
      <trkpt lat="45.28523" lon="0.19207">
        <ele>104.1640625</ele>
      </trkpt>
      <trkpt lat="45.28606" lon="0.19288">
        <ele>107.31640625</ele>
      </trkpt>
      <trkpt lat="45.28671" lon="0.19339">
        <ele>105.6875</ele>
      </trkpt>
      <trkpt lat="45.28729" lon="0.19391">
        <ele>104.4140625</ele>
      </trkpt>
      <trkpt lat="45.28766" lon="0.19434">
        <ele>104.9765625</ele>
      </trkpt>
      <trkpt lat="45.28807" lon="0.19485">
        <ele>106.828125</ele>
      </trkpt>
      <trkpt lat="45.28821" lon="0.19495">
        <ele>107.0234375</ele>
      </trkpt>
      <trkpt lat="45.28834" lon="0.19512">
        <ele>107.59765625</ele>
      </trkpt>
      <trkpt lat="45.28844" lon="0.1952">
        <ele>108.3125</ele>
      </trkpt>
      <trkpt lat="45.28858" lon="0.1951">
        <ele>107.93359375</ele>
      </trkpt>
      <trkpt lat="45.28872" lon="0.19512">
        <ele>107.421875</ele>
      </trkpt>
      <trkpt lat="45.28898" lon="0.19526">
        <ele>108.03125</ele>
      </trkpt>
      <trkpt lat="45.28943" lon="0.1957">
        <ele>110.88671875</ele>
      </trkpt>
      <trkpt lat="45.28974" lon="0.19603">
        <ele>113.67578125</ele>
      </trkpt>
      <trkpt lat="45.28999" lon="0.19626">
        <ele>114.8515625</ele>
      </trkpt>
      <trkpt lat="45.2904" lon="0.1966">
        <ele>117.83203125</ele>
      </trkpt>
      <trkpt lat="45.29071" lon="0.19675">
        <ele>118.11328125</ele>
      </trkpt>
      <trkpt lat="45.2911" lon="0.19678">
        <ele>119.0234375</ele>
      </trkpt>
      <trkpt lat="45.29126" lon="0.19677">
        <ele>119.32421875</ele>
      </trkpt>
      <trkpt lat="45.29126" lon="0.19677">
        <ele>119.31640625</ele>
      </trkpt>
      <trkpt lat="45.29147" lon="0.19671">
        <ele>119.83984375</ele>
      </trkpt>
      <trkpt lat="45.29174" lon="0.19661">
        <ele>120.625</ele>
      </trkpt>
      <trkpt lat="45.29197" lon="0.19652">
        <ele>120.890625</ele>
      </trkpt>
      <trkpt lat="45.29216" lon="0.19649">
        <ele>120.78125</ele>
      </trkpt>
      <trkpt lat="45.29235" lon="0.19647">
        <ele>120.73828125</ele>
      </trkpt>
      <trkpt lat="45.29249" lon="0.19647">
        <ele>120.53515625</ele>
      </trkpt>
      <trkpt lat="45.29258" lon="0.19647">
        <ele>120.37109375</ele>
      </trkpt>
      <trkpt lat="45.29275" lon="0.19642">
        <ele>119.765625</ele>
      </trkpt>
      <trkpt lat="45.29296" lon="0.19634">
        <ele>118.828125</ele>
      </trkpt>
      <trkpt lat="45.29315" lon="0.19618">
        <ele>116.046875</ele>
      </trkpt>
      <trkpt lat="45.29329" lon="0.19595">
        <ele>113.36328125</ele>
      </trkpt>
      <trkpt lat="45.29333" lon="0.19573">
        <ele>112.30859375</ele>
      </trkpt>
      <trkpt lat="45.29336" lon="0.19544">
        <ele>111.40234375</ele>
      </trkpt>
      <trkpt lat="45.29331" lon="0.19525">
        <ele>111.13671875</ele>
      </trkpt>
      <trkpt lat="45.29328" lon="0.1951">
        <ele>110.73046875</ele>
      </trkpt>
      <trkpt lat="45.29325" lon="0.19499">
        <ele>110.45703125</ele>
      </trkpt>
      <trkpt lat="45.29323" lon="0.19478">
        <ele>109.78125</ele>
      </trkpt>
      <trkpt lat="45.29321" lon="0.19458">
        <ele>109.31640625</ele>
      </trkpt>
      <trkpt lat="45.29319" lon="0.19433">
        <ele>108.78125</ele>
      </trkpt>
      <trkpt lat="45.29319" lon="0.19414">
        <ele>108.28515625</ele>
      </trkpt>
      <trkpt lat="45.2932" lon="0.19406">
        <ele>108.015625</ele>
      </trkpt>
      <trkpt lat="45.29323" lon="0.19391">
        <ele>107.39453125</ele>
      </trkpt>
      <trkpt lat="45.29325" lon="0.19381">
        <ele>107.04296875</ele>
      </trkpt>
      <trkpt lat="45.29329" lon="0.19371">
        <ele>106.296875</ele>
      </trkpt>
      <trkpt lat="45.29334" lon="0.19361">
        <ele>105.37890625</ele>
      </trkpt>
      <trkpt lat="45.29352" lon="0.19353">
        <ele>103.6796875</ele>
      </trkpt>
      <trkpt lat="45.29367" lon="0.19345">
        <ele>101.71484375</ele>
      </trkpt>
      <trkpt lat="45.29375" lon="0.19339">
        <ele>100.6953125</ele>
      </trkpt>
      <trkpt lat="45.2938" lon="0.19332">
        <ele>99.90625</ele>
      </trkpt>
      <trkpt lat="45.29387" lon="0.19325">
        <ele>98.95703125</ele>
      </trkpt>
      <trkpt lat="45.29392" lon="0.19315">
        <ele>98.04296875</ele>
      </trkpt>
      <trkpt lat="45.29404" lon="0.19296">
        <ele>96.2734375</ele>
      </trkpt>
      <trkpt lat="45.29415" lon="0.19274">
        <ele>94.703125</ele>
      </trkpt>
      <trkpt lat="45.29427" lon="0.1925">
        <ele>92.62109375</ele>
      </trkpt>
      <trkpt lat="45.2944" lon="0.19222">
        <ele>90.421875</ele>
      </trkpt>
      <trkpt lat="45.29447" lon="0.19208">
        <ele>89.39453125</ele>
      </trkpt>
      <trkpt lat="45.29464" lon="0.1919">
        <ele>87.77734375</ele>
      </trkpt>
      <trkpt lat="45.29476" lon="0.19173">
        <ele>86.17578125</ele>
      </trkpt>
      <trkpt lat="45.2949" lon="0.19155">
        <ele>84.50390625</ele>
      </trkpt>
      <trkpt lat="45.29499" lon="0.19139">
        <ele>83.05859375</ele>
      </trkpt>
      <trkpt lat="45.29512" lon="0.19122">
        <ele>81.4921875</ele>
      </trkpt>
      <trkpt lat="45.29522" lon="0.19111">
        <ele>80.3984375</ele>
      </trkpt>
      <trkpt lat="45.29532" lon="0.19096">
        <ele>79.11328125</ele>
      </trkpt>
      <trkpt lat="45.29551" lon="0.19079">
        <ele>77.6875</ele>
      </trkpt>
      <trkpt lat="45.29578" lon="0.19066">
        <ele>76.31640625</ele>
      </trkpt>
      <trkpt lat="45.29595" lon="0.1906">
        <ele>75.89453125</ele>
      </trkpt>
      <trkpt lat="45.29602" lon="0.19055">
        <ele>75.69140625</ele>
      </trkpt>
      <trkpt lat="45.29613" lon="0.19029">
        <ele>74.73046875</ele>
      </trkpt>
      <trkpt lat="45.29631" lon="0.18985">
        <ele>73.02734375</ele>
      </trkpt>
      <trkpt lat="45.29635" lon="0.18969">
        <ele>72.94140625</ele>
      </trkpt>
      <trkpt lat="45.29652" lon="0.18895">
        <ele>71.859375</ele>
      </trkpt>
      <trkpt lat="45.29656" lon="0.18886">
        <ele>71.6953125</ele>
      </trkpt>
      <trkpt lat="45.29647" lon="0.18877">
        <ele>71.31640625</ele>
      </trkpt>
      <trkpt lat="45.29657" lon="0.18865">
        <ele>71.27734375</ele>
      </trkpt>
      <trkpt lat="45.29667" lon="0.1885">
        <ele>70.83984375</ele>
      </trkpt>
      <trkpt lat="45.29673" lon="0.1884">
        <ele>70.34375</ele>
      </trkpt>
      <trkpt lat="45.29677" lon="0.18831">
        <ele>69.8125</ele>
      </trkpt>
      <trkpt lat="45.29683" lon="0.18812">
        <ele>69.11328125</ele>
      </trkpt>
      <trkpt lat="45.29685" lon="0.18795">
        <ele>69.0078125</ele>
      </trkpt>
      <trkpt lat="45.29685" lon="0.18768">
        <ele>69</ele>
      </trkpt>
      <trkpt lat="45.29686" lon="0.18745">
        <ele>68.6015625</ele>
      </trkpt>
      <trkpt lat="45.29688" lon="0.18703">
        <ele>67.6015625</ele>
      </trkpt>
      <trkpt lat="45.29689" lon="0.18655">
        <ele>65.81640625</ele>
      </trkpt>
      <trkpt lat="45.2969" lon="0.18625">
        <ele>64.33984375</ele>
      </trkpt>
      <trkpt lat="45.29692" lon="0.18612">
        <ele>63.6953125</ele>
      </trkpt>
      <trkpt lat="45.29697" lon="0.18595">
        <ele>63.2421875</ele>
      </trkpt>
      <trkpt lat="45.29713" lon="0.18562">
        <ele>63.859375</ele>
      </trkpt>
      <trkpt lat="45.29722" lon="0.1855">
        <ele>64.29296875</ele>
      </trkpt>
      <trkpt lat="45.29744" lon="0.18506">
        <ele>65.87109375</ele>
      </trkpt>
      <trkpt lat="45.29773" lon="0.18431">
        <ele>70.23046875</ele>
      </trkpt>
      <trkpt lat="45.29802" lon="0.18362">
        <ele>73.71484375</ele>
      </trkpt>
      <trkpt lat="45.29832" lon="0.18289">
        <ele>76.90625</ele>
      </trkpt>
      <trkpt lat="45.29843" lon="0.18268">
        <ele>77.6640625</ele>
      </trkpt>
      <trkpt lat="45.29855" lon="0.18249">
        <ele>77.953125</ele>
      </trkpt>
      <trkpt lat="45.29869" lon="0.18233">
        <ele>77.875</ele>
      </trkpt>
      <trkpt lat="45.29881" lon="0.18217">
        <ele>77.9375</ele>
      </trkpt>
      <trkpt lat="45.29893" lon="0.18205">
        <ele>78</ele>
      </trkpt>
      <trkpt lat="45.29906" lon="0.18188">
        <ele>78</ele>
      </trkpt>
      <trkpt lat="45.29916" lon="0.18164">
        <ele>77.6796875</ele>
      </trkpt>
      <trkpt lat="45.29926" lon="0.18136">
        <ele>77.43359375</ele>
      </trkpt>
      <trkpt lat="45.29936" lon="0.18106">
        <ele>77.41015625</ele>
      </trkpt>
      <trkpt lat="45.29946" lon="0.18077">
        <ele>77.4140625</ele>
      </trkpt>
      <trkpt lat="45.29955" lon="0.18074">
        <ele>77.1953125</ele>
      </trkpt>
      <trkpt lat="45.29967" lon="0.18074">
        <ele>76.95703125</ele>
      </trkpt>
      <trkpt lat="45.29981" lon="0.18081">
        <ele>76.77734375</ele>
      </trkpt>
      <trkpt lat="45.30005" lon="0.18095">
        <ele>76.3046875</ele>
      </trkpt>
      <trkpt lat="45.30036" lon="0.1811">
        <ele>76.66015625</ele>
      </trkpt>
      <trkpt lat="45.30044" lon="0.18116">
        <ele>76.93359375</ele>
      </trkpt>
      <trkpt lat="45.30072" lon="0.18124">
        <ele>77.97265625</ele>
      </trkpt>
      <trkpt lat="45.30099" lon="0.18123">
        <ele>79.390625</ele>
      </trkpt>
      <trkpt lat="45.30128" lon="0.18121">
        <ele>80.96484375</ele>
      </trkpt>
      <trkpt lat="45.30151" lon="0.18118">
        <ele>81.81640625</ele>
      </trkpt>
      <trkpt lat="45.30176" lon="0.18113">
        <ele>82.70703125</ele>
      </trkpt>
      <trkpt lat="45.30203" lon="0.18109">
        <ele>83.69140625</ele>
      </trkpt>
      <trkpt lat="45.30221" lon="0.18108">
        <ele>84.3046875</ele>
      </trkpt>
      <trkpt lat="45.30237" lon="0.18109">
        <ele>84.88671875</ele>
      </trkpt>
      <trkpt lat="45.30257" lon="0.18119">
        <ele>86.13671875</ele>
      </trkpt>
      <trkpt lat="45.30266" lon="0.18124">
        <ele>86.7109375</ele>
      </trkpt>
      <trkpt lat="45.30277" lon="0.18135">
        <ele>87.2578125</ele>
      </trkpt>
      <trkpt lat="45.30294" lon="0.18159">
        <ele>87.9375</ele>
      </trkpt>
      <trkpt lat="45.30307" lon="0.18181">
        <ele>88.71875</ele>
      </trkpt>
      <trkpt lat="45.3032" lon="0.18205">
        <ele>89.390625</ele>
      </trkpt>
      <trkpt lat="45.3034" lon="0.18238">
        <ele>89.5625</ele>
      </trkpt>
      <trkpt lat="45.30356" lon="0.18263">
        <ele>89.15234375</ele>
      </trkpt>
      <trkpt lat="45.30363" lon="0.18269">
        <ele>88.90234375</ele>
      </trkpt>
      <trkpt lat="45.30371" lon="0.18278">
        <ele>88.53125</ele>
      </trkpt>
      <trkpt lat="45.30379" lon="0.18282">
        <ele>88.3125</ele>
      </trkpt>
      <trkpt lat="45.30388" lon="0.18287">
        <ele>88.00390625</ele>
      </trkpt>
      <trkpt lat="45.30398" lon="0.18289">
        <ele>87.828125</ele>
      </trkpt>
      <trkpt lat="45.30402" lon="0.1829">
        <ele>87.78515625</ele>
      </trkpt>
      <trkpt lat="45.30415" lon="0.18291">
        <ele>87.4609375</ele>
      </trkpt>
      <trkpt lat="45.30436" lon="0.18289">
        <ele>86.9296875</ele>
      </trkpt>
      <trkpt lat="45.30464" lon="0.18287">
        <ele>86.2265625</ele>
      </trkpt>
      <trkpt lat="45.30511" lon="0.18283">
        <ele>85.53125</ele>
      </trkpt>
      <trkpt lat="45.30542" lon="0.18281">
        <ele>85.6015625</ele>
      </trkpt>
      <trkpt lat="45.30576" lon="0.18276">
        <ele>85.90625</ele>
      </trkpt>
      <trkpt lat="45.30607" lon="0.18272">
        <ele>86.578125</ele>
      </trkpt>
      <trkpt lat="45.30632" lon="0.18272">
        <ele>87</ele>
      </trkpt>
      <trkpt lat="45.3065" lon="0.18276">
        <ele>87</ele>
      </trkpt>
      <trkpt lat="45.30666" lon="0.18278">
        <ele>87</ele>
      </trkpt>
      <trkpt lat="45.30691" lon="0.18288">
        <ele>86.94921875</ele>
      </trkpt>
      <trkpt lat="45.30715" lon="0.18297">
        <ele>86.69140625</ele>
      </trkpt>
      <trkpt lat="45.30731" lon="0.18305">
        <ele>86.41796875</ele>
      </trkpt>
      <trkpt lat="45.30752" lon="0.18314">
        <ele>86.6171875</ele>
      </trkpt>
      <trkpt lat="45.30766" lon="0.18324">
        <ele>86.9375</ele>
      </trkpt>
      <trkpt lat="45.30793" lon="0.1834">
        <ele>87.61328125</ele>
      </trkpt>
      <trkpt lat="45.30829" lon="0.1837">
        <ele>86.609375</ele>
      </trkpt>
      <trkpt lat="45.3086" lon="0.18395">
        <ele>85.4765625</ele>
      </trkpt>
      <trkpt lat="45.30886" lon="0.18415">
        <ele>85.51171875</ele>
      </trkpt>
      <trkpt lat="45.30901" lon="0.18429">
        <ele>85.84375</ele>
      </trkpt>
      <trkpt lat="45.30919" lon="0.18444">
        <ele>87.9609375</ele>
      </trkpt>
      <trkpt lat="45.30934" lon="0.18458">
        <ele>90.3828125</ele>
      </trkpt>
      <trkpt lat="45.30954" lon="0.18476">
        <ele>93.60546875</ele>
      </trkpt>
      <trkpt lat="45.30975" lon="0.18494">
        <ele>96.98046875</ele>
      </trkpt>
      <trkpt lat="45.30992" lon="0.18514">
        <ele>99.33203125</ele>
      </trkpt>
      <trkpt lat="45.31006" lon="0.18528">
        <ele>100.578125</ele>
      </trkpt>
      <trkpt lat="45.3103" lon="0.18562">
        <ele>101.16015625</ele>
      </trkpt>
      <trkpt lat="45.31055" lon="0.18592">
        <ele>100.85546875</ele>
      </trkpt>
      <trkpt lat="45.31076" lon="0.18557">
        <ele>104.01953125</ele>
      </trkpt>
      <trkpt lat="45.31098" lon="0.18521">
        <ele>106.3984375</ele>
      </trkpt>
      <trkpt lat="45.31113" lon="0.18499">
        <ele>108.12109375</ele>
      </trkpt>
      <trkpt lat="45.3114" lon="0.18467">
        <ele>110.62109375</ele>
      </trkpt>
      <trkpt lat="45.31164" lon="0.18454">
        <ele>111.28125</ele>
      </trkpt>
      <trkpt lat="45.31188" lon="0.18449">
        <ele>111.26171875</ele>
      </trkpt>
      <trkpt lat="45.31204" lon="0.18446">
        <ele>111.359375</ele>
      </trkpt>
      <trkpt lat="45.31224" lon="0.18438">
        <ele>111.7890625</ele>
      </trkpt>
      <trkpt lat="45.31253" lon="0.18424">
        <ele>113.06640625</ele>
      </trkpt>
      <trkpt lat="45.31278" lon="0.18415">
        <ele>114.36328125</ele>
      </trkpt>
      <trkpt lat="45.31301" lon="0.18411">
        <ele>115.140625</ele>
      </trkpt>
      <trkpt lat="45.31335" lon="0.18407">
        <ele>116.13671875</ele>
      </trkpt>
      <trkpt lat="45.31359" lon="0.18404">
        <ele>116.828125</ele>
      </trkpt>
      <trkpt lat="45.3137" lon="0.18407">
        <ele>116.9140625</ele>
      </trkpt>
      <trkpt lat="45.31392" lon="0.18406">
        <ele>117.61328125</ele>
      </trkpt>
      <trkpt lat="45.31413" lon="0.18405">
        <ele>118.421875</ele>
      </trkpt>
      <trkpt lat="45.3144" lon="0.1841">
        <ele>119.6328125</ele>
      </trkpt>
      <trkpt lat="45.31452" lon="0.18412">
        <ele>120.25</ele>
      </trkpt>
      <trkpt lat="45.31468" lon="0.18421">
        <ele>120.6953125</ele>
      </trkpt>
      <trkpt lat="45.3148" lon="0.18424">
        <ele>120.98046875</ele>
      </trkpt>
      <trkpt lat="45.3149" lon="0.18433">
        <ele>121.046875</ele>
      </trkpt>
      <trkpt lat="45.315" lon="0.18449">
        <ele>121.82421875</ele>
      </trkpt>
      <trkpt lat="45.31508" lon="0.18451">
        <ele>122.2265625</ele>
      </trkpt>
      <trkpt lat="45.31516" lon="0.18433">
        <ele>121.96484375</ele>
      </trkpt>
      <trkpt lat="45.31521" lon="0.18425">
        <ele>122.515625</ele>
      </trkpt>
      <trkpt lat="45.31529" lon="0.1842">
        <ele>123.0546875</ele>
      </trkpt>
      <trkpt lat="45.31536" lon="0.18419">
        <ele>123.390625</ele>
      </trkpt>
      <trkpt lat="45.31545" lon="0.18413">
        <ele>123.875</ele>
      </trkpt>
      <trkpt lat="45.31557" lon="0.18413">
        <ele>124.3671875</ele>
      </trkpt>
      <trkpt lat="45.3156" lon="0.1841">
        <ele>124.5390625</ele>
      </trkpt>
      <trkpt lat="45.31561" lon="0.18405">
        <ele>124.60546875</ele>
      </trkpt>
      <trkpt lat="45.31561" lon="0.184">
        <ele>124.62890625</ele>
      </trkpt>
      <trkpt lat="45.31562" lon="0.18394">
        <ele>124.7109375</ele>
      </trkpt>
      <trkpt lat="45.3156" lon="0.18381">
        <ele>124.7421875</ele>
      </trkpt>
      <trkpt lat="45.31559" lon="0.18371">
        <ele>124.9140625</ele>
      </trkpt>
      <trkpt lat="45.31559" lon="0.18363">
        <ele>125.08203125</ele>
      </trkpt>
      <trkpt lat="45.31561" lon="0.18347">
        <ele>125.45703125</ele>
      </trkpt>
      <trkpt lat="45.31597" lon="0.18352">
        <ele>126.13671875</ele>
      </trkpt>
      <trkpt lat="45.3163" lon="0.1836">
        <ele>127</ele>
      </trkpt>
      <trkpt lat="45.31659" lon="0.18365">
        <ele>127</ele>
      </trkpt>
      <trkpt lat="45.31665" lon="0.18367">
        <ele>127</ele>
      </trkpt>
      <trkpt lat="45.31671" lon="0.18346">
        <ele>127</ele>
      </trkpt>
      <trkpt lat="45.31678" lon="0.18329">
        <ele>127</ele>
      </trkpt>
      <trkpt lat="45.3169" lon="0.18308">
        <ele>126.54296875</ele>
      </trkpt>
      <trkpt lat="45.31699" lon="0.18318">
        <ele>125.890625</ele>
      </trkpt>
      <trkpt lat="45.3171" lon="0.18339">
        <ele>125.08984375</ele>
      </trkpt>
      <trkpt lat="45.31735" lon="0.18393">
        <ele>123.4921875</ele>
      </trkpt>
      <trkpt lat="45.31766" lon="0.18459">
        <ele>121.828125</ele>
      </trkpt>
      <trkpt lat="45.31771" lon="0.18469">
        <ele>121.46484375</ele>
      </trkpt>
      <trkpt lat="45.3178" lon="0.18478">
        <ele>120.88671875</ele>
      </trkpt>
      <trkpt lat="45.31789" lon="0.1848">
        <ele>120.25</ele>
      </trkpt>
      <trkpt lat="45.31813" lon="0.18478">
        <ele>117.7421875</ele>
      </trkpt>
      <trkpt lat="45.3183" lon="0.18476">
        <ele>115.953125</ele>
      </trkpt>
      <trkpt lat="45.31859" lon="0.18479">
        <ele>112.99609375</ele>
      </trkpt>
      <trkpt lat="45.31882" lon="0.18486">
        <ele>110.9921875</ele>
      </trkpt>
      <trkpt lat="45.31884" lon="0.18489">
        <ele>110.88671875</ele>
      </trkpt>
      <trkpt lat="45.31884" lon="0.18497">
        <ele>110.90234375</ele>
      </trkpt>
      <trkpt lat="45.31879" lon="0.18518">
        <ele>111.09375</ele>
      </trkpt>
      <trkpt lat="45.31876" lon="0.18531">
        <ele>111.21875</ele>
      </trkpt>
      <trkpt lat="45.31867" lon="0.18558">
        <ele>111.51953125</ele>
      </trkpt>
      <trkpt lat="45.31865" lon="0.1857">
        <ele>111.4375</ele>
      </trkpt>
      <trkpt lat="45.31864" lon="0.18576">
        <ele>111.44921875</ele>
      </trkpt>
      <trkpt lat="45.31866" lon="0.18586">
        <ele>111.0859375</ele>
      </trkpt>
      <trkpt lat="45.31862" lon="0.1859">
        <ele>111.27734375</ele>
      </trkpt>
      <trkpt lat="45.31859" lon="0.18601">
        <ele>111.328125</ele>
      </trkpt>
      <trkpt lat="45.31853" lon="0.18612">
        <ele>111.73828125</ele>
      </trkpt>
      <trkpt lat="45.31829" lon="0.18617">
        <ele>114.52734375</ele>
      </trkpt>
      <trkpt lat="45.31821" lon="0.18623">
        <ele>115.4765625</ele>
      </trkpt>
      <trkpt lat="45.31799" lon="0.18644">
        <ele>117.69921875</ele>
      </trkpt>
      <trkpt lat="45.31798" lon="0.1866">
        <ele>117.61328125</ele>
      </trkpt>
      <trkpt lat="45.31804" lon="0.18676">
        <ele>117.01171875</ele>
      </trkpt>
      <trkpt lat="45.31803" lon="0.18689">
        <ele>117.05078125</ele>
      </trkpt>
      <trkpt lat="45.31785" lon="0.18746">
        <ele>119.27734375</ele>
      </trkpt>
      <trkpt lat="45.31772" lon="0.18771">
        <ele>120.77734375</ele>
      </trkpt>
      <trkpt lat="45.3171" lon="0.18868">
        <ele>126.48046875</ele>
      </trkpt>
      <trkpt lat="45.31685" lon="0.18884">
        <ele>127.8984375</ele>
      </trkpt>
      <trkpt lat="45.31674" lon="0.18887">
        <ele>127.66015625</ele>
      </trkpt>
      <trkpt lat="45.31666" lon="0.18888">
        <ele>127.38671875</ele>
      </trkpt>
      <trkpt lat="45.31673" lon="0.18896">
        <ele>127.62109375</ele>
      </trkpt>
      <trkpt lat="45.31723" lon="0.18951">
        <ele>127.8359375</ele>
      </trkpt>
      <trkpt lat="45.31781" lon="0.19011">
        <ele>126.69921875</ele>
      </trkpt>
      <trkpt lat="45.31797" lon="0.1902">
        <ele>125.85546875</ele>
      </trkpt>
      <trkpt lat="45.31808" lon="0.19025">
        <ele>125.28125</ele>
      </trkpt>
      <trkpt lat="45.31798" lon="0.19099">
        <ele>125.76953125</ele>
      </trkpt>
      <trkpt lat="45.31797" lon="0.19123">
        <ele>125.38671875</ele>
      </trkpt>
      <trkpt lat="45.318" lon="0.1913">
        <ele>125.01953125</ele>
      </trkpt>
      <trkpt lat="45.31824" lon="0.19149">
        <ele>123.0078125</ele>
      </trkpt>
      <trkpt lat="45.31833" lon="0.19157">
        <ele>122.24609375</ele>
      </trkpt>
      <trkpt lat="45.31849" lon="0.19181">
        <ele>121.03515625</ele>
      </trkpt>
      <trkpt lat="45.31855" lon="0.19194">
        <ele>120.421875</ele>
      </trkpt>
      <trkpt lat="45.3187" lon="0.19249">
        <ele>120.27734375</ele>
      </trkpt>
      <trkpt lat="45.31871" lon="0.19254">
        <ele>120.36328125</ele>
      </trkpt>
      <trkpt lat="45.31872" lon="0.19274">
        <ele>120.83203125</ele>
      </trkpt>
      <trkpt lat="45.31859" lon="0.19308">
        <ele>121.12109375</ele>
      </trkpt>
      <trkpt lat="45.31857" lon="0.19317">
        <ele>121.046875</ele>
      </trkpt>
      <trkpt lat="45.31858" lon="0.19329">
        <ele>120.62109375</ele>
      </trkpt>
      <trkpt lat="45.31863" lon="0.19338">
        <ele>120.23046875</ele>
      </trkpt>
      <trkpt lat="45.31927" lon="0.19375">
        <ele>120.40625</ele>
      </trkpt>
      <trkpt lat="45.31933" lon="0.1938">
        <ele>120.3828125</ele>
      </trkpt>
      <trkpt lat="45.31936" lon="0.19388">
        <ele>120.0859375</ele>
      </trkpt>
      <trkpt lat="45.31937" lon="0.19393">
        <ele>119.875</ele>
      </trkpt>
      <trkpt lat="45.31933" lon="0.19432">
        <ele>118.03125</ele>
      </trkpt>
      <trkpt lat="45.31933" lon="0.19453">
        <ele>116.7421875</ele>
      </trkpt>
      <trkpt lat="45.31942" lon="0.19508">
        <ele>113.5546875</ele>
      </trkpt>
      <trkpt lat="45.31968" lon="0.19586">
        <ele>107.5546875</ele>
      </trkpt>
      <trkpt lat="45.31971" lon="0.19607">
        <ele>105.4765625</ele>
      </trkpt>
      <trkpt lat="45.31972" lon="0.1964">
        <ele>102.35546875</ele>
      </trkpt>
      <trkpt lat="45.31971" lon="0.19655">
        <ele>100.99609375</ele>
      </trkpt>
      <trkpt lat="45.31974" lon="0.1967">
        <ele>100.16796875</ele>
      </trkpt>
      <trkpt lat="45.31978" lon="0.19677">
        <ele>99.78515625</ele>
      </trkpt>
      <trkpt lat="45.31988" lon="0.19685">
        <ele>99.37890625</ele>
      </trkpt>
      <trkpt lat="45.32005" lon="0.19703">
        <ele>98.3671875</ele>
      </trkpt>
      <trkpt lat="45.3203" lon="0.19746">
        <ele>95.421875</ele>
      </trkpt>
      <trkpt lat="45.32037" lon="0.19767">
        <ele>93.95703125</ele>
      </trkpt>
      <trkpt lat="45.32096" lon="0.1986">
        <ele>89.73046875</ele>
      </trkpt>
      <trkpt lat="45.321" lon="0.19864">
        <ele>89.57421875</ele>
      </trkpt>
      <trkpt lat="45.32121" lon="0.19832">
        <ele>91.30859375</ele>
      </trkpt>
      <trkpt lat="45.32132" lon="0.19816">
        <ele>92.49609375</ele>
      </trkpt>
      <trkpt lat="45.32144" lon="0.19804">
        <ele>93.77734375</ele>
      </trkpt>
      <trkpt lat="45.32191" lon="0.19769">
        <ele>97.1171875</ele>
      </trkpt>
      <trkpt lat="45.32205" lon="0.1976">
        <ele>98.09765625</ele>
      </trkpt>
      <trkpt lat="45.32219" lon="0.19751">
        <ele>99.08984375</ele>
      </trkpt>
      <trkpt lat="45.32256" lon="0.19719">
        <ele>101.5546875</ele>
      </trkpt>
      <trkpt lat="45.32275" lon="0.19693">
        <ele>102.50390625</ele>
      </trkpt>
      <trkpt lat="45.32319" lon="0.19629">
        <ele>100.98046875</ele>
      </trkpt>
      <trkpt lat="45.32333" lon="0.19597">
        <ele>99.08984375</ele>
      </trkpt>
      <trkpt lat="45.3234" lon="0.19561">
        <ele>96.671875</ele>
      </trkpt>
      <trkpt lat="45.32342" lon="0.19542">
        <ele>95.41796875</ele>
      </trkpt>
      <trkpt lat="45.32327" lon="0.19483">
        <ele>93.95703125</ele>
      </trkpt>
      <trkpt lat="45.32301" lon="0.19411">
        <ele>94.23828125</ele>
      </trkpt>
      <trkpt lat="45.32294" lon="0.19394">
        <ele>93.90625</ele>
      </trkpt>
      <trkpt lat="45.32286" lon="0.19355">
        <ele>93.1328125</ele>
      </trkpt>
      <trkpt lat="45.32289" lon="0.19335">
        <ele>92.05859375</ele>
      </trkpt>
      <trkpt lat="45.32291" lon="0.19328">
        <ele>91.5859375</ele>
      </trkpt>
      <trkpt lat="45.32305" lon="0.19306">
        <ele>89.7734375</ele>
      </trkpt>
      <trkpt lat="45.32334" lon="0.19291">
        <ele>87.80859375</ele>
      </trkpt>
      <trkpt lat="45.32346" lon="0.19285">
        <ele>87.17578125</ele>
      </trkpt>
      <trkpt lat="45.32359" lon="0.19273">
        <ele>86.80859375</ele>
      </trkpt>
      <trkpt lat="45.32377" lon="0.19237">
        <ele>87.29296875</ele>
      </trkpt>
      <trkpt lat="45.3239" lon="0.1921">
        <ele>88.01953125</ele>
      </trkpt>
      <trkpt lat="45.32396" lon="0.1919">
        <ele>88.73046875</ele>
      </trkpt>
      <trkpt lat="45.32402" lon="0.19154">
        <ele>90.046875</ele>
      </trkpt>
      <trkpt lat="45.32406" lon="0.19123">
        <ele>91.14453125</ele>
      </trkpt>
      <trkpt lat="45.32408" lon="0.19112">
        <ele>91.546875</ele>
      </trkpt>
      <trkpt lat="45.3241" lon="0.19091">
        <ele>92.29296875</ele>
      </trkpt>
      <trkpt lat="45.3241" lon="0.19062">
        <ele>93.296875</ele>
      </trkpt>
      <trkpt lat="45.3241" lon="0.19058">
        <ele>93.4453125</ele>
      </trkpt>
      <trkpt lat="45.32414" lon="0.19057">
        <ele>93.421875</ele>
      </trkpt>
      <trkpt lat="45.32424" lon="0.19053">
        <ele>93.38671875</ele>
      </trkpt>
      <trkpt lat="45.32427" lon="0.19053">
        <ele>93.3359375</ele>
      </trkpt>
      <trkpt lat="45.32432" lon="0.19052">
        <ele>93.28515625</ele>
      </trkpt>
      <trkpt lat="45.32438" lon="0.1905">
        <ele>93.2578125</ele>
      </trkpt>
      <trkpt lat="45.32443" lon="0.19049">
        <ele>93.19921875</ele>
      </trkpt>
      <trkpt lat="45.32453" lon="0.19049">
        <ele>93.0390625</ele>
      </trkpt>
      <trkpt lat="45.32459" lon="0.19052">
        <ele>92.875</ele>
      </trkpt>
      <trkpt lat="45.32474" lon="0.19057">
        <ele>91.86328125</ele>
      </trkpt>
      <trkpt lat="45.32512" lon="0.19069">
        <ele>89.2890625</ele>
      </trkpt>
      <trkpt lat="45.32555" lon="0.19088">
        <ele>88.45703125</ele>
      </trkpt>
      <trkpt lat="45.32562" lon="0.19091">
        <ele>88.30078125</ele>
      </trkpt>
      <trkpt lat="45.3257" lon="0.19092">
        <ele>88.16796875</ele>
      </trkpt>
      <trkpt lat="45.32577" lon="0.19093">
        <ele>88.03125</ele>
      </trkpt>
      <trkpt lat="45.32589" lon="0.19094">
        <ele>87.81640625</ele>
      </trkpt>
      <trkpt lat="45.326" lon="0.19095">
        <ele>87.61328125</ele>
      </trkpt>
      <trkpt lat="45.32611" lon="0.19094">
        <ele>87.44921875</ele>
      </trkpt>
      <trkpt lat="45.32626" lon="0.19092">
        <ele>87.28125</ele>
      </trkpt>
      <trkpt lat="45.32663" lon="0.19091">
        <ele>88.49609375</ele>
      </trkpt>
      <trkpt lat="45.32674" lon="0.19091">
        <ele>88.8515625</ele>
      </trkpt>
      <trkpt lat="45.32691" lon="0.19091">
        <ele>89.453125</ele>
      </trkpt>
      <trkpt lat="45.32703" lon="0.19088">
        <ele>89.92578125</ele>
      </trkpt>
      <trkpt lat="45.32711" lon="0.19081">
        <ele>90.3515625</ele>
      </trkpt>
      <trkpt lat="45.3272" lon="0.19075">
        <ele>90.77734375</ele>
      </trkpt>
      <trkpt lat="45.32799" lon="0.19151">
        <ele>93.3671875</ele>
      </trkpt>
      <trkpt lat="45.32829" lon="0.19176">
        <ele>94.44921875</ele>
      </trkpt>
      <trkpt lat="45.32853" lon="0.19174">
        <ele>95.35546875</ele>
      </trkpt>
      <trkpt lat="45.32895" lon="0.19157">
        <ele>95.95703125</ele>
      </trkpt>
      <trkpt lat="45.32939" lon="0.19083">
        <ele>99.59765625</ele>
      </trkpt>
      <trkpt lat="45.32977" lon="0.19023">
        <ele>101.7734375</ele>
      </trkpt>
      <trkpt lat="45.33018" lon="0.18965">
        <ele>103.87109375</ele>
      </trkpt>
      <trkpt lat="45.33044" lon="0.18938">
        <ele>104.87890625</ele>
      </trkpt>
      <trkpt lat="45.3306" lon="0.18914">
        <ele>105.34375</ele>
      </trkpt>
      <trkpt lat="45.33074" lon="0.18894">
        <ele>105.6484375</ele>
      </trkpt>
      <trkpt lat="45.33096" lon="0.18857">
        <ele>104.734375</ele>
      </trkpt>
      <trkpt lat="45.33101" lon="0.18848">
        <ele>104.42578125</ele>
      </trkpt>
      <trkpt lat="45.3311" lon="0.18836">
        <ele>103.84375</ele>
      </trkpt>
      <trkpt lat="45.33131" lon="0.18807">
        <ele>101.37109375</ele>
      </trkpt>
      <trkpt lat="45.33136" lon="0.18799">
        <ele>100.35546875</ele>
      </trkpt>
      <trkpt lat="45.3314" lon="0.18798">
        <ele>99.98828125</ele>
      </trkpt>
      <trkpt lat="45.33144" lon="0.18799">
        <ele>99.87109375</ele>
      </trkpt>
      <trkpt lat="45.33147" lon="0.188">
        <ele>99.75390625</ele>
      </trkpt>
      <trkpt lat="45.33197" lon="0.18831">
        <ele>97.7421875</ele>
      </trkpt>
      <trkpt lat="45.33232" lon="0.1885">
        <ele>94.69140625</ele>
      </trkpt>
      <trkpt lat="45.33291" lon="0.18889">
        <ele>89.93359375</ele>
      </trkpt>
      <trkpt lat="45.33297" lon="0.18894">
        <ele>89.70703125</ele>
      </trkpt>
      <trkpt lat="45.33316" lon="0.18911">
        <ele>89.46875</ele>
      </trkpt>
      <trkpt lat="45.33329" lon="0.18918">
        <ele>88.98046875</ele>
      </trkpt>
      <trkpt lat="45.33339" lon="0.18921">
        <ele>88.44921875</ele>
      </trkpt>
      <trkpt lat="45.33342" lon="0.18921">
        <ele>88.21484375</ele>
      </trkpt>
      <trkpt lat="45.33352" lon="0.18925">
        <ele>87.82421875</ele>
      </trkpt>
      <trkpt lat="45.33359" lon="0.18926">
        <ele>87.76171875</ele>
      </trkpt>
      <trkpt lat="45.33371" lon="0.18916">
        <ele>87.6640625</ele>
      </trkpt>
      <trkpt lat="45.33382" lon="0.18893">
        <ele>87.96875</ele>
      </trkpt>
      <trkpt lat="45.33387" lon="0.18858">
        <ele>89.6796875</ele>
      </trkpt>
      <trkpt lat="45.334" lon="0.1886">
        <ele>90.06640625</ele>
      </trkpt>
      <trkpt lat="45.33432" lon="0.18867">
        <ele>91.05078125</ele>
      </trkpt>
      <trkpt lat="45.33478" lon="0.18883">
        <ele>92.078125</ele>
      </trkpt>
      <trkpt lat="45.33519" lon="0.18894">
        <ele>92.453125</ele>
      </trkpt>
      <trkpt lat="45.33551" lon="0.18902">
        <ele>92.45703125</ele>
      </trkpt>
      <trkpt lat="45.33587" lon="0.18917">
        <ele>91.875</ele>
      </trkpt>
      <trkpt lat="45.33615" lon="0.18932">
        <ele>91.0703125</ele>
      </trkpt>
      <trkpt lat="45.33645" lon="0.18953">
        <ele>90.28515625</ele>
      </trkpt>
      <trkpt lat="45.3367" lon="0.18969">
        <ele>89.6875</ele>
      </trkpt>
      <trkpt lat="45.33691" lon="0.1898">
        <ele>89.16015625</ele>
      </trkpt>
      <trkpt lat="45.33705" lon="0.18989">
        <ele>88.5703125</ele>
      </trkpt>
      <trkpt lat="45.33719" lon="0.18985">
        <ele>88.4609375</ele>
      </trkpt>
      <trkpt lat="45.33735" lon="0.1898">
        <ele>88.375</ele>
      </trkpt>
      <trkpt lat="45.33732" lon="0.19013">
        <ele>87.20703125</ele>
      </trkpt>
      <trkpt lat="45.33757" lon="0.19086">
        <ele>84.13671875</ele>
      </trkpt>
      <trkpt lat="45.33777" lon="0.19138">
        <ele>81.70703125</ele>
      </trkpt>
      <trkpt lat="45.33777" lon="0.19172">
        <ele>80.69921875</ele>
      </trkpt>
      <trkpt lat="45.33763" lon="0.19255">
        <ele>80.078125</ele>
      </trkpt>
      <trkpt lat="45.3375" lon="0.19328">
        <ele>80.83203125</ele>
      </trkpt>
      <trkpt lat="45.33786" lon="0.19351">
        <ele>77.66015625</ele>
      </trkpt>
      <trkpt lat="45.33842" lon="0.19398">
        <ele>74.70703125</ele>
      </trkpt>
      <trkpt lat="45.33879" lon="0.1945">
        <ele>73.69140625</ele>
      </trkpt>
      <trkpt lat="45.33908" lon="0.1951">
        <ele>73.09765625</ele>
      </trkpt>
      <trkpt lat="45.33962" lon="0.19569">
        <ele>75.1484375</ele>
      </trkpt>
      <trkpt lat="45.33985" lon="0.19598">
        <ele>76.83984375</ele>
      </trkpt>
      <trkpt lat="45.34007" lon="0.19626">
        <ele>78.40625</ele>
      </trkpt>
      <trkpt lat="45.34042" lon="0.19658">
        <ele>81.29296875</ele>
      </trkpt>
      <trkpt lat="45.34085" lon="0.19695">
        <ele>83.32421875</ele>
      </trkpt>
      <trkpt lat="45.34099" lon="0.19705">
        <ele>83.703125</ele>
      </trkpt>
      <trkpt lat="45.3411" lon="0.19705">
        <ele>84.28515625</ele>
      </trkpt>
      <trkpt lat="45.34123" lon="0.19691">
        <ele>85.53125</ele>
      </trkpt>
      <trkpt lat="45.34137" lon="0.19674">
        <ele>86.84765625</ele>
      </trkpt>
      <trkpt lat="45.34157" lon="0.19635">
        <ele>89.02734375</ele>
      </trkpt>
      <trkpt lat="45.3417" lon="0.19613">
        <ele>90.10546875</ele>
      </trkpt>
      <trkpt lat="45.34184" lon="0.19587">
        <ele>90.6875</ele>
      </trkpt>
      <trkpt lat="45.34205" lon="0.1957">
        <ele>91.40625</ele>
      </trkpt>
      <trkpt lat="45.34233" lon="0.19556">
        <ele>92.921875</ele>
      </trkpt>
      <trkpt lat="45.34252" lon="0.19548">
        <ele>94.0859375</ele>
      </trkpt>
      <trkpt lat="45.34293" lon="0.19546">
        <ele>96.95703125</ele>
      </trkpt>
      <trkpt lat="45.34333" lon="0.19543">
        <ele>97.73828125</ele>
      </trkpt>
      <trkpt lat="45.34369" lon="0.19509">
        <ele>99.36328125</ele>
      </trkpt>
      <trkpt lat="45.34408" lon="0.19474">
        <ele>101.03515625</ele>
      </trkpt>
      <trkpt lat="45.34431" lon="0.19444">
        <ele>101.78515625</ele>
      </trkpt>
      <trkpt lat="45.34455" lon="0.19422">
        <ele>103.015625</ele>
      </trkpt>
      <trkpt lat="45.34489" lon="0.19385">
        <ele>104.9140625</ele>
      </trkpt>
      <trkpt lat="45.34526" lon="0.1935">
        <ele>106.30859375</ele>
      </trkpt>
      <trkpt lat="45.34555" lon="0.19324">
        <ele>106.75</ele>
      </trkpt>
      <trkpt lat="45.3458" lon="0.19307">
        <ele>106.86328125</ele>
      </trkpt>
      <trkpt lat="45.34602" lon="0.19299">
        <ele>106.9296875</ele>
      </trkpt>
      <trkpt lat="45.34634" lon="0.19299">
        <ele>107.5390625</ele>
      </trkpt>
      <trkpt lat="45.34675" lon="0.19302">
        <ele>109.34765625</ele>
      </trkpt>
      <trkpt lat="45.34708" lon="0.19308">
        <ele>110.70703125</ele>
      </trkpt>
      <trkpt lat="45.34745" lon="0.19317">
        <ele>112.21875</ele>
      </trkpt>
      <trkpt lat="45.34789" lon="0.19317">
        <ele>113.8671875</ele>
      </trkpt>
      <trkpt lat="45.3483" lon="0.19304">
        <ele>115.34375</ele>
      </trkpt>
      <trkpt lat="45.34866" lon="0.19287">
        <ele>116.19921875</ele>
      </trkpt>
      <trkpt lat="45.3489" lon="0.1927">
        <ele>116.70703125</ele>
      </trkpt>
      <trkpt lat="45.34909" lon="0.19246">
        <ele>116.77734375</ele>
      </trkpt>
      <trkpt lat="45.34921" lon="0.19227">
        <ele>116.83203125</ele>
      </trkpt>
      <trkpt lat="45.34932" lon="0.19216">
        <ele>117.07421875</ele>
      </trkpt>
      <trkpt lat="45.34967" lon="0.19229">
        <ele>118.30078125</ele>
      </trkpt>
      <trkpt lat="45.34972" lon="0.19229">
        <ele>118.453125</ele>
      </trkpt>
      <trkpt lat="45.34976" lon="0.19228">
        <ele>118.609375</ele>
      </trkpt>
      <trkpt lat="45.34987" lon="0.1922">
        <ele>118.99609375</ele>
      </trkpt>
      <trkpt lat="45.35011" lon="0.192">
        <ele>119.69921875</ele>
      </trkpt>
      <trkpt lat="45.35028" lon="0.1919">
        <ele>119.76953125</ele>
      </trkpt>
      <trkpt lat="45.35043" lon="0.19183">
        <ele>119.76171875</ele>
      </trkpt>
      <trkpt lat="45.3505" lon="0.1918">
        <ele>119.734375</ele>
      </trkpt>
      <trkpt lat="45.35053" lon="0.1918">
        <ele>119.76171875</ele>
      </trkpt>
      <trkpt lat="45.35066" lon="0.19212">
        <ele>120.953125</ele>
      </trkpt>
      <trkpt lat="45.35087" lon="0.19281">
        <ele>122.58984375</ele>
      </trkpt>
      <trkpt lat="45.35096" lon="0.19298">
        <ele>122.9375</ele>
      </trkpt>
      <trkpt lat="45.35105" lon="0.19309">
        <ele>123.24609375</ele>
      </trkpt>
      <trkpt lat="45.35109" lon="0.19313">
        <ele>123.40234375</ele>
      </trkpt>
      <trkpt lat="45.35113" lon="0.19315">
        <ele>123.5546875</ele>
      </trkpt>
      <trkpt lat="45.3512" lon="0.19316">
        <ele>123.7890625</ele>
      </trkpt>
      <trkpt lat="45.35143" lon="0.19312">
        <ele>124.63671875</ele>
      </trkpt>
      <trkpt lat="45.35169" lon="0.1931">
        <ele>125.56640625</ele>
      </trkpt>
      <trkpt lat="45.35198" lon="0.19303">
        <ele>126.609375</ele>
      </trkpt>
      <trkpt lat="45.35212" lon="0.19301">
        <ele>127.109375</ele>
      </trkpt>
      <trkpt lat="45.35232" lon="0.19299">
        <ele>127.84375</ele>
      </trkpt>
      <trkpt lat="45.35236" lon="0.19299">
        <ele>127.9609375</ele>
      </trkpt>
      <trkpt lat="45.35244" lon="0.19299">
        <ele>128.26953125</ele>
      </trkpt>
      <trkpt lat="45.3527" lon="0.193">
        <ele>129.19921875</ele>
      </trkpt>
      <trkpt lat="45.35315" lon="0.19302">
        <ele>130.96484375</ele>
      </trkpt>
      <trkpt lat="45.35337" lon="0.19303">
        <ele>131.85546875</ele>
      </trkpt>
      <trkpt lat="45.35364" lon="0.19302">
        <ele>132.9453125</ele>
      </trkpt>
      <trkpt lat="45.35385" lon="0.19301">
        <ele>133.69921875</ele>
      </trkpt>
      <trkpt lat="45.35426" lon="0.19301">
        <ele>135.421875</ele>
      </trkpt>
      <trkpt lat="45.35511" lon="0.19301">
        <ele>138.89453125</ele>
      </trkpt>
      <trkpt lat="45.35519" lon="0.19281">
        <ele>139.24609375</ele>
      </trkpt>
      <trkpt lat="45.35538" lon="0.19227">
        <ele>139.98828125</ele>
      </trkpt>
      <trkpt lat="45.35562" lon="0.1924">
        <ele>141.1640625</ele>
      </trkpt>
      <trkpt lat="45.35614" lon="0.19266">
        <ele>144.40234375</ele>
      </trkpt>
      <trkpt lat="45.35635" lon="0.19278">
        <ele>145.12890625</ele>
      </trkpt>
      <trkpt lat="45.35649" lon="0.19287">
        <ele>145.45703125</ele>
      </trkpt>
      <trkpt lat="45.35672" lon="0.19312">
        <ele>145.86328125</ele>
      </trkpt>
      <trkpt lat="45.35687" lon="0.19324">
        <ele>146.19140625</ele>
      </trkpt>
      <trkpt lat="45.35691" lon="0.19325">
        <ele>146.2890625</ele>
      </trkpt>
      <trkpt lat="45.35694" lon="0.19326">
        <ele>146.38671875</ele>
      </trkpt>
      <trkpt lat="45.35721" lon="0.19347">
        <ele>146.96484375</ele>
      </trkpt>
      <trkpt lat="45.35747" lon="0.19366">
        <ele>147.4296875</ele>
      </trkpt>
      <trkpt lat="45.35792" lon="0.19378">
        <ele>147.9609375</ele>
      </trkpt>
      <trkpt lat="45.35845" lon="0.19382">
        <ele>150.6640625</ele>
      </trkpt>
      <trkpt lat="45.35871" lon="0.19393">
        <ele>152.125</ele>
      </trkpt>
      <trkpt lat="45.35889" lon="0.19408">
        <ele>152.875</ele>
      </trkpt>
      <trkpt lat="45.35917" lon="0.19447">
        <ele>153.3828125</ele>
      </trkpt>
      <trkpt lat="45.35948" lon="0.19495">
        <ele>154.92578125</ele>
      </trkpt>
      <trkpt lat="45.35973" lon="0.19591">
        <ele>156.0234375</ele>
      </trkpt>
      <trkpt lat="45.35974" lon="0.19595">
        <ele>156.1015625</ele>
      </trkpt>
      <trkpt lat="45.35993" lon="0.1968">
        <ele>157.4921875</ele>
      </trkpt>
      <trkpt lat="45.36003" lon="0.19751">
        <ele>158.91796875</ele>
      </trkpt>
      <trkpt lat="45.36015" lon="0.19824">
        <ele>160.0078125</ele>
      </trkpt>
      <trkpt lat="45.36022" lon="0.19892">
        <ele>160.6640625</ele>
      </trkpt>
      <trkpt lat="45.3603" lon="0.20003">
        <ele>164.06640625</ele>
      </trkpt>
      <trkpt lat="45.36021" lon="0.20098">
        <ele>167.72265625</ele>
      </trkpt>
      <trkpt lat="45.36015" lon="0.20131">
        <ele>169.1484375</ele>
      </trkpt>
      <trkpt lat="45.36008" lon="0.20173">
        <ele>171.03125</ele>
      </trkpt>
      <trkpt lat="45.36044" lon="0.20139">
        <ele>168.74609375</ele>
      </trkpt>
      <trkpt lat="45.36065" lon="0.20117">
        <ele>167.109375</ele>
      </trkpt>
      <trkpt lat="45.36101" lon="0.20096">
        <ele>165.35546875</ele>
      </trkpt>
      <trkpt lat="45.36144" lon="0.20073">
        <ele>163.1953125</ele>
      </trkpt>
      <trkpt lat="45.36169" lon="0.20048">
        <ele>161.51171875</ele>
      </trkpt>
      <trkpt lat="45.36185" lon="0.20023">
        <ele>159.33203125</ele>
      </trkpt>
      <trkpt lat="45.36198" lon="0.20009">
        <ele>157.796875</ele>
      </trkpt>
      <trkpt lat="45.36237" lon="0.20003">
        <ele>155.76171875</ele>
      </trkpt>
      <trkpt lat="45.36277" lon="0.20014">
        <ele>152.671875</ele>
      </trkpt>
      <trkpt lat="45.36308" lon="0.20014">
        <ele>149.83203125</ele>
      </trkpt>
      <trkpt lat="45.36353" lon="0.20012">
        <ele>145.4140625</ele>
      </trkpt>
      <trkpt lat="45.36362" lon="0.20011">
        <ele>144.61328125</ele>
      </trkpt>
      <trkpt lat="45.36372" lon="0.20011">
        <ele>143.81640625</ele>
      </trkpt>
      <trkpt lat="45.36411" lon="0.20007">
        <ele>140.76171875</ele>
      </trkpt>
      <trkpt lat="45.36439" lon="0.20004">
        <ele>139.546875</ele>
      </trkpt>
      <trkpt lat="45.36466" lon="0.19999">
        <ele>138.14453125</ele>
      </trkpt>
      <trkpt lat="45.36496" lon="0.19993">
        <ele>136.23046875</ele>
      </trkpt>
      <trkpt lat="45.36521" lon="0.19988">
        <ele>134.73828125</ele>
      </trkpt>
      <trkpt lat="45.36537" lon="0.19981">
        <ele>133.6953125</ele>
      </trkpt>
      <trkpt lat="45.36596" lon="0.19949">
        <ele>129.10546875</ele>
      </trkpt>
      <trkpt lat="45.36615" lon="0.1994">
        <ele>127.75</ele>
      </trkpt>
      <trkpt lat="45.36637" lon="0.19931">
        <ele>126.04296875</ele>
      </trkpt>
      <trkpt lat="45.36655" lon="0.19923">
        <ele>124.3515625</ele>
      </trkpt>
      <trkpt lat="45.36672" lon="0.1992">
        <ele>123.08203125</ele>
      </trkpt>
      <trkpt lat="45.36692" lon="0.19917">
        <ele>121.0859375</ele>
      </trkpt>
      <trkpt lat="45.36718" lon="0.19918">
        <ele>117.86328125</ele>
      </trkpt>
      <trkpt lat="45.36744" lon="0.19918">
        <ele>115.40625</ele>
      </trkpt>
      <trkpt lat="45.36777" lon="0.19917">
        <ele>114.01953125</ele>
      </trkpt>
      <trkpt lat="45.36789" lon="0.19918">
        <ele>113.57421875</ele>
      </trkpt>
      <trkpt lat="45.36798" lon="0.19921">
        <ele>113.6953125</ele>
      </trkpt>
      <trkpt lat="45.36809" lon="0.19927">
        <ele>114.07421875</ele>
      </trkpt>
      <trkpt lat="45.36816" lon="0.19932">
        <ele>114.43359375</ele>
      </trkpt>
      <trkpt lat="45.36828" lon="0.1994">
        <ele>115.21875</ele>
      </trkpt>
      <trkpt lat="45.36839" lon="0.19947">
        <ele>116.09765625</ele>
      </trkpt>
      <trkpt lat="45.36846" lon="0.1995">
        <ele>116.59375</ele>
      </trkpt>
      <trkpt lat="45.36874" lon="0.19962">
        <ele>117.41796875</ele>
      </trkpt>
      <trkpt lat="45.3689" lon="0.19966">
        <ele>117.58984375</ele>
      </trkpt>
      <trkpt lat="45.36903" lon="0.19967">
        <ele>117.51953125</ele>
      </trkpt>
      <trkpt lat="45.36913" lon="0.19967">
        <ele>117.30078125</ele>
      </trkpt>
      <trkpt lat="45.36913" lon="0.19961">
        <ele>116.87890625</ele>
      </trkpt>
      <trkpt lat="45.36916" lon="0.19943">
        <ele>115.6640625</ele>
      </trkpt>
      <trkpt lat="45.36918" lon="0.1992">
        <ele>115</ele>
      </trkpt>
      <trkpt lat="45.3692" lon="0.19916">
        <ele>115</ele>
      </trkpt>
      <trkpt lat="45.36925" lon="0.19913">
        <ele>115</ele>
      </trkpt>
      <trkpt lat="45.36943" lon="0.1991">
        <ele>115</ele>
      </trkpt>
      <trkpt lat="45.36962" lon="0.19903">
        <ele>115.29296875</ele>
      </trkpt>
      <trkpt lat="45.36973" lon="0.19902">
        <ele>116.0859375</ele>
      </trkpt>
      <trkpt lat="45.37009" lon="0.19901">
        <ele>118.8125</ele>
      </trkpt>
      <trkpt lat="45.37017" lon="0.199">
        <ele>119.5625</ele>
      </trkpt>
      <trkpt lat="45.37023" lon="0.19899">
        <ele>120.390625</ele>
      </trkpt>
      <trkpt lat="45.37028" lon="0.19895">
        <ele>121.26953125</ele>
      </trkpt>
      <trkpt lat="45.37035" lon="0.19889">
        <ele>122.390625</ele>
      </trkpt>
      <trkpt lat="45.37041" lon="0.19883">
        <ele>123.6484375</ele>
      </trkpt>
      <trkpt lat="45.37055" lon="0.19874">
        <ele>126.11328125</ele>
      </trkpt>
      <trkpt lat="45.37062" lon="0.19869">
        <ele>127.2265625</ele>
      </trkpt>
      <trkpt lat="45.37075" lon="0.19858">
        <ele>129.5546875</ele>
      </trkpt>
      <trkpt lat="45.3709" lon="0.19841">
        <ele>132.75390625</ele>
      </trkpt>
      <trkpt lat="45.37099" lon="0.19828">
        <ele>135.0859375</ele>
      </trkpt>
      <trkpt lat="45.37105" lon="0.19824">
        <ele>136.28125</ele>
      </trkpt>
      <trkpt lat="45.37109" lon="0.19821">
        <ele>137.19921875</ele>
      </trkpt>
      <trkpt lat="45.37114" lon="0.19819">
        <ele>138.1640625</ele>
      </trkpt>
      <trkpt lat="45.37126" lon="0.19821">
        <ele>140.17578125</ele>
      </trkpt>
      <trkpt lat="45.37143" lon="0.19821">
        <ele>142.0390625</ele>
      </trkpt>
      <trkpt lat="45.37159" lon="0.19821">
        <ele>143.78515625</ele>
      </trkpt>
      <trkpt lat="45.37173" lon="0.19818">
        <ele>145.3671875</ele>
      </trkpt>
      <trkpt lat="45.3718" lon="0.19817">
        <ele>146.1171875</ele>
      </trkpt>
      <trkpt lat="45.37183" lon="0.19813">
        <ele>146.51171875</ele>
      </trkpt>
      <trkpt lat="45.37186" lon="0.19816">
        <ele>146.62890625</ele>
      </trkpt>
      <trkpt lat="45.37194" lon="0.19817">
        <ele>147.12890625</ele>
      </trkpt>
      <trkpt lat="45.37216" lon="0.19822">
        <ele>148.58984375</ele>
      </trkpt>
      <trkpt lat="45.37236" lon="0.19824">
        <ele>149.82421875</ele>
      </trkpt>
      <trkpt lat="45.37247" lon="0.19825">
        <ele>149.9765625</ele>
      </trkpt>
      <trkpt lat="45.37253" lon="0.19824">
        <ele>150.1484375</ele>
      </trkpt>
      <trkpt lat="45.3726" lon="0.19819">
        <ele>150.52734375</ele>
      </trkpt>
      <trkpt lat="45.37269" lon="0.19813">
        <ele>150.98828125</ele>
      </trkpt>
      <trkpt lat="45.37293" lon="0.19788">
        <ele>152.7890625</ele>
      </trkpt>
      <trkpt lat="45.37335" lon="0.19742">
        <ele>156.32421875</ele>
      </trkpt>
      <trkpt lat="45.37371" lon="0.19702">
        <ele>158.8125</ele>
      </trkpt>
      <trkpt lat="45.37406" lon="0.19664">
        <ele>161.78515625</ele>
      </trkpt>
      <trkpt lat="45.3741" lon="0.19661">
        <ele>161.83984375</ele>
      </trkpt>
      <trkpt lat="45.37409" lon="0.19658">
        <ele>162.21875</ele>
      </trkpt>
      <trkpt lat="45.37406" lon="0.19654">
        <ele>162.92578125</ele>
      </trkpt>
      <trkpt lat="45.37399" lon="0.19636">
        <ele>164.9296875</ele>
      </trkpt>
      <trkpt lat="45.37391" lon="0.19617">
        <ele>166.6484375</ele>
      </trkpt>
      <trkpt lat="45.37383" lon="0.19597">
        <ele>168.11328125</ele>
      </trkpt>
      <trkpt lat="45.3738" lon="0.19586">
        <ele>168.625</ele>
      </trkpt>
      <trkpt lat="45.37378" lon="0.19581">
        <ele>168.88671875</ele>
      </trkpt>
      <trkpt lat="45.37375" lon="0.19576">
        <ele>169.04296875</ele>
      </trkpt>
      <trkpt lat="45.37369" lon="0.19558">
        <ele>169.69921875</ele>
      </trkpt>
      <trkpt lat="45.3736" lon="0.19542">
        <ele>170.0390625</ele>
      </trkpt>
      <trkpt lat="45.3735" lon="0.19523">
        <ele>170.328125</ele>
      </trkpt>
      <trkpt lat="45.37337" lon="0.19502">
        <ele>170.06640625</ele>
      </trkpt>
      <trkpt lat="45.37326" lon="0.19487">
        <ele>169.83984375</ele>
      </trkpt>
      <trkpt lat="45.37311" lon="0.19465">
        <ele>169.61328125</ele>
      </trkpt>
      <trkpt lat="45.37292" lon="0.19443">
        <ele>169.328125</ele>
      </trkpt>
      <trkpt lat="45.37281" lon="0.19426">
        <ele>169.25</ele>
      </trkpt>
      <trkpt lat="45.37268" lon="0.19365">
        <ele>171.76953125</ele>
      </trkpt>
      <trkpt lat="45.3726" lon="0.19328">
        <ele>172.06640625</ele>
      </trkpt>
      <trkpt lat="45.37255" lon="0.19305">
        <ele>171.22265625</ele>
      </trkpt>
      <trkpt lat="45.37254" lon="0.19287">
        <ele>170.6171875</ele>
      </trkpt>
      <trkpt lat="45.37258" lon="0.19264">
        <ele>170.109375</ele>
      </trkpt>
      <trkpt lat="45.37272" lon="0.19235">
        <ele>169.11328125</ele>
      </trkpt>
      <trkpt lat="45.37296" lon="0.19206">
        <ele>168.70703125</ele>
      </trkpt>
      <trkpt lat="45.37322" lon="0.19172">
        <ele>166.45703125</ele>
      </trkpt>
      <trkpt lat="45.37346" lon="0.19141">
        <ele>164.6875</ele>
      </trkpt>
      <trkpt lat="45.37356" lon="0.19127">
        <ele>162.6015625</ele>
      </trkpt>
      <trkpt lat="45.3736" lon="0.19119">
        <ele>161.40234375</ele>
      </trkpt>
      <trkpt lat="45.37356" lon="0.19107">
        <ele>160.734375</ele>
      </trkpt>
      <trkpt lat="45.37368" lon="0.19101">
        <ele>158.7890625</ele>
        <time>2011-10-09T10:46:14Z</time>
      </trkpt>
      <trkpt lat="45.37378" lon="0.19098">
        <ele>157.5234375</ele>
        <time>2011-10-09T10:46:07Z</time>
      </trkpt>
      <trkpt lat="45.37386" lon="0.19093">
        <ele>156.01171875</ele>
        <time>2011-10-09T10:46:00Z</time>
      </trkpt>
      <trkpt lat="45.37395" lon="0.19085">
        <ele>154.265625</ele>
        <time>2011-10-09T10:45:53Z</time>
      </trkpt>
      <trkpt lat="45.37402" lon="0.19076">
        <ele>152.51953125</ele>
        <time>2011-10-09T10:45:46Z</time>
      </trkpt>
      <trkpt lat="45.37409" lon="0.19068">
        <ele>151.0078125</ele>
        <time>2011-10-09T10:45:39Z</time>
      </trkpt>
      <trkpt lat="45.37416" lon="0.19059">
        <ele>149.38671875</ele>
        <time>2011-10-09T10:45:32Z</time>
      </trkpt>
      <trkpt lat="45.37424" lon="0.19049">
        <ele>147.5234375</ele>
        <time>2011-10-09T10:45:25Z</time>
      </trkpt>
      <trkpt lat="45.37431" lon="0.19038">
        <ele>146.3125</ele>
        <time>2011-10-09T10:45:19Z</time>
      </trkpt>
      <trkpt lat="45.37438" lon="0.19027">
        <ele>145.1953125</ele>
        <time>2011-10-09T10:45:12Z</time>
      </trkpt>
      <trkpt lat="45.37444" lon="0.19016">
        <ele>143.9921875</ele>
        <time>2011-10-09T10:45:06Z</time>
      </trkpt>
      <trkpt lat="45.3745" lon="0.19005">
        <ele>142.40625</ele>
        <time>2011-10-09T10:45:00Z</time>
      </trkpt>
      <trkpt lat="45.37458" lon="0.18995">
        <ele>140.43359375</ele>
        <time>2011-10-09T10:44:52Z</time>
      </trkpt>
      <trkpt lat="45.37466" lon="0.18983">
        <ele>139.5234375</ele>
        <time>2011-10-09T10:44:44Z</time>
      </trkpt>
      <trkpt lat="45.37474" lon="0.18973">
        <ele>138.828125</ele>
        <time>2011-10-09T10:44:37Z</time>
      </trkpt>
      <trkpt lat="45.37483" lon="0.18963">
        <ele>137.625</ele>
        <time>2011-10-09T10:44:29Z</time>
      </trkpt>
      <trkpt lat="45.37491" lon="0.18955">
        <ele>136.26953125</ele>
        <time>2011-10-09T10:44:22Z</time>
      </trkpt>
      <trkpt lat="45.375" lon="0.18947">
        <ele>134.53515625</ele>
        <time>2011-10-09T10:44:16Z</time>
      </trkpt>
      <trkpt lat="45.37508" lon="0.18938">
        <ele>132.3984375</ele>
        <time>2011-10-09T10:44:10Z</time>
      </trkpt>
      <trkpt lat="45.37516" lon="0.18931">
        <ele>130.9921875</ele>
        <time>2011-10-09T10:44:05Z</time>
      </trkpt>
      <trkpt lat="45.37524" lon="0.18923">
        <ele>130.79296875</ele>
        <time>2011-10-09T10:43:59Z</time>
      </trkpt>
      <trkpt lat="45.37532" lon="0.18917">
        <ele>130.4140625</ele>
        <time>2011-10-09T10:43:54Z</time>
      </trkpt>
      <trkpt lat="45.37541" lon="0.1891">
        <ele>129.78125</ele>
        <time>2011-10-09T10:43:49Z</time>
      </trkpt>
      <trkpt lat="45.37549" lon="0.18902">
        <ele>128.83203125</ele>
        <time>2011-10-09T10:43:44Z</time>
      </trkpt>
      <trkpt lat="45.37557" lon="0.18892">
        <ele>127.5078125</ele>
        <time>2011-10-09T10:43:39Z</time>
      </trkpt>
      <trkpt lat="45.37565" lon="0.18881">
        <ele>125.82421875</ele>
        <time>2011-10-09T10:43:34Z</time>
      </trkpt>
      <trkpt lat="45.37572" lon="0.18872">
        <ele>124.5703125</ele>
        <time>2011-10-09T10:43:30Z</time>
      </trkpt>
      <trkpt lat="45.37579" lon="0.1886">
        <ele>123.625</ele>
        <time>2011-10-09T10:43:26Z</time>
      </trkpt>
      <trkpt lat="45.37586" lon="0.18848">
        <ele>122.56640625</ele>
        <time>2011-10-09T10:43:22Z</time>
      </trkpt>
      <trkpt lat="45.37592" lon="0.18838">
        <ele>121.56640625</ele>
        <time>2011-10-09T10:43:19Z</time>
      </trkpt>
      <trkpt lat="45.37598" lon="0.18827">
        <ele>120.39453125</ele>
        <time>2011-10-09T10:43:16Z</time>
      </trkpt>
      <trkpt lat="45.37605" lon="0.18815">
        <ele>119.3125</ele>
        <time>2011-10-09T10:43:13Z</time>
      </trkpt>
      <trkpt lat="45.37613" lon="0.18804">
        <ele>118.35546875</ele>
        <time>2011-10-09T10:43:10Z</time>
      </trkpt>
      <trkpt lat="45.37619" lon="0.18794">
        <ele>117.64453125</ele>
        <time>2011-10-09T10:43:08Z</time>
      </trkpt>
      <trkpt lat="45.37625" lon="0.18782">
        <ele>116.8359375</ele>
        <time>2011-10-09T10:43:06Z</time>
      </trkpt>
      <trkpt lat="45.37628" lon="0.18766">
        <ele>116.0703125</ele>
        <time>2011-10-09T10:43:04Z</time>
      </trkpt>
      <trkpt lat="45.3763" lon="0.18749">
        <ele>116.16796875</ele>
        <time>2011-10-09T10:43:02Z</time>
      </trkpt>
      <trkpt lat="45.3763" lon="0.18731">
        <ele>116.21875</ele>
        <time>2011-10-09T10:43:00Z</time>
      </trkpt>
      <trkpt lat="45.37626" lon="0.18713">
        <ele>116.09375</ele>
        <time>2011-10-09T10:42:58Z</time>
      </trkpt>
      <trkpt lat="45.3762" lon="0.18696">
        <ele>116.4375</ele>
        <time>2011-10-09T10:42:56Z</time>
      </trkpt>
      <trkpt lat="45.37614" lon="0.18678">
        <ele>116.796875</ele>
        <time>2011-10-09T10:42:54Z</time>
      </trkpt>
      <trkpt lat="45.37613" lon="0.18659">
        <ele>117.28515625</ele>
        <time>2011-10-09T10:42:52Z</time>
      </trkpt>
      <trkpt lat="45.3762" lon="0.18641">
        <ele>118.25390625</ele>
        <time>2011-10-09T10:42:50Z</time>
      </trkpt>
      <trkpt lat="45.37625" lon="0.18631">
        <ele>118.9140625</ele>
        <time>2011-10-09T10:42:49Z</time>
      </trkpt>
      <trkpt lat="45.37637" lon="0.18606">
        <ele>120.4609375</ele>
        <time>2011-10-09T10:42:47Z</time>
      </trkpt>
      <trkpt lat="45.37643" lon="0.18592">
        <ele>121.21484375</ele>
        <time>2011-10-09T10:42:46Z</time>
      </trkpt>
      <trkpt lat="45.37649" lon="0.18577">
        <ele>121.95703125</ele>
        <time>2011-10-09T10:42:45Z</time>
      </trkpt>
      <trkpt lat="45.37662" lon="0.18548">
        <ele>123.58203125</ele>
        <time>2011-10-09T10:42:43Z</time>
      </trkpt>
      <trkpt lat="45.37698" lon="0.18498">
        <ele>128</ele>
        <time>2011-10-09T10:42:39Z</time>
      </trkpt>
      <trkpt lat="45.37707" lon="0.18485">
        <ele>128.72265625</ele>
        <time>2011-10-09T10:42:38Z</time>
      </trkpt>
      <trkpt lat="45.37717" lon="0.18473">
        <ele>129.72265625</ele>
        <time>2011-10-09T10:42:37Z</time>
      </trkpt>
      <trkpt lat="45.37726" lon="0.18461">
        <ele>130.7890625</ele>
        <time>2011-10-09T10:42:36Z</time>
      </trkpt>
      <trkpt lat="45.37736" lon="0.18448">
        <ele>131.94140625</ele>
        <time>2011-10-09T10:42:35Z</time>
      </trkpt>
      <trkpt lat="45.37745" lon="0.18436">
        <ele>133.01953125</ele>
        <time>2011-10-09T10:42:34Z</time>
      </trkpt>
      <trkpt lat="45.37755" lon="0.18425">
        <ele>134.078125</ele>
        <time>2011-10-09T10:42:33Z</time>
      </trkpt>
      <trkpt lat="45.37764" lon="0.18413">
        <ele>135.1640625</ele>
        <time>2011-10-09T10:42:32Z</time>
      </trkpt>
      <trkpt lat="45.37774" lon="0.18401">
        <ele>136.1640625</ele>
        <time>2011-10-09T10:42:31Z</time>
      </trkpt>
      <trkpt lat="45.37783" lon="0.1839">
        <ele>137.078125</ele>
        <time>2011-10-09T10:42:30Z</time>
      </trkpt>
      <trkpt lat="45.37792" lon="0.18379">
        <ele>137.95703125</ele>
        <time>2011-10-09T10:42:29Z</time>
      </trkpt>
      <trkpt lat="45.37801" lon="0.18368">
        <ele>139.34765625</ele>
        <time>2011-10-09T10:42:28Z</time>
      </trkpt>
      <trkpt lat="45.37809" lon="0.18357">
        <ele>140.65234375</ele>
        <time>2011-10-09T10:42:27Z</time>
      </trkpt>
      <trkpt lat="45.37817" lon="0.18346">
        <ele>141.8203125</ele>
        <time>2011-10-09T10:42:26Z</time>
      </trkpt>
      <trkpt lat="45.37826" lon="0.18337">
        <ele>142.78125</ele>
        <time>2011-10-09T10:42:25Z</time>
      </trkpt>
      <trkpt lat="45.37835" lon="0.18327">
        <ele>143.6171875</ele>
        <time>2011-10-09T10:42:24Z</time>
      </trkpt>
      <trkpt lat="45.37843" lon="0.18318">
        <ele>144.57421875</ele>
        <time>2011-10-09T10:42:23Z</time>
      </trkpt>
      <trkpt lat="45.37852" lon="0.18307">
        <ele>146.4453125</ele>
        <time>2011-10-09T10:42:22Z</time>
      </trkpt>
      <trkpt lat="45.37861" lon="0.18299">
        <ele>148.3515625</ele>
        <time>2011-10-09T10:42:21Z</time>
      </trkpt>
      <trkpt lat="45.3787" lon="0.18289">
        <ele>150.20703125</ele>
        <time>2011-10-09T10:42:20Z</time>
      </trkpt>
      <trkpt lat="45.37878" lon="0.1828">
        <ele>151.9375</ele>
        <time>2011-10-09T10:42:19Z</time>
      </trkpt>
      <trkpt lat="45.37886" lon="0.18271">
        <ele>153.48828125</ele>
        <time>2011-10-09T10:42:18Z</time>
      </trkpt>
      <trkpt lat="45.37895" lon="0.18262">
        <ele>154.97265625</ele>
        <time>2011-10-09T10:42:17Z</time>
      </trkpt>
      <trkpt lat="45.37901" lon="0.18254">
        <ele>156.3046875</ele>
        <time>2011-10-09T10:42:16Z</time>
      </trkpt>
      <trkpt lat="45.37915" lon="0.18241">
        <ele>159.62890625</ele>
        <time>2011-10-09T10:42:14Z</time>
      </trkpt>
      <trkpt lat="45.37927" lon="0.1823">
        <ele>162.28515625</ele>
        <time>2011-10-09T10:42:12Z</time>
      </trkpt>
      <trkpt lat="45.37939" lon="0.18218">
        <ele>164.64453125</ele>
        <time>2011-10-09T10:42:09Z</time>
      </trkpt>
      <trkpt lat="45.37946" lon="0.18222">
        <ele>165.2265625</ele>
        <time>2011-10-09T10:42:06Z</time>
      </trkpt>
      <trkpt lat="45.37949" lon="0.18236">
        <ele>164.921875</ele>
        <time>2011-10-09T10:42:03Z</time>
      </trkpt>
      <trkpt lat="45.37952" lon="0.1825">
        <ele>164.82421875</ele>
        <time>2011-10-09T10:42:00Z</time>
      </trkpt>
      <trkpt lat="45.37956" lon="0.18264">
        <ele>164.7890625</ele>
        <time>2011-10-09T10:41:57Z</time>
      </trkpt>
      <trkpt lat="45.37959" lon="0.18279">
        <ele>164.078125</ele>
        <time>2011-10-09T10:41:54Z</time>
      </trkpt>
      <trkpt lat="45.37963" lon="0.18295">
        <ele>163.31640625</ele>
        <time>2011-10-09T10:41:51Z</time>
      </trkpt>
      <trkpt lat="45.37966" lon="0.18308">
        <ele>162.77734375</ele>
        <time>2011-10-09T10:41:48Z</time>
      </trkpt>
      <trkpt lat="45.37968" lon="0.1832">
        <ele>162.2578125</ele>
        <time>2011-10-09T10:41:45Z</time>
      </trkpt>
      <trkpt lat="45.3797" lon="0.18332">
        <ele>162.15625</ele>
        <time>2011-10-09T10:41:42Z</time>
      </trkpt>
      <trkpt lat="45.37974" lon="0.18345">
        <ele>162.33984375</ele>
        <time>2011-10-09T10:41:39Z</time>
      </trkpt>
      <trkpt lat="45.37979" lon="0.18362">
        <ele>162.546875</ele>
        <time>2011-10-09T10:41:36Z</time>
      </trkpt>
      <trkpt lat="45.37981" lon="0.18374">
        <ele>162.45703125</ele>
        <time>2011-10-09T10:41:34Z</time>
      </trkpt>
      <trkpt lat="45.37984" lon="0.18388">
        <ele>162.83984375</ele>
        <time>2011-10-09T10:41:32Z</time>
      </trkpt>
      <trkpt lat="45.37986" lon="0.18403">
        <ele>163.25390625</ele>
        <time>2011-10-09T10:41:30Z</time>
      </trkpt>
      <trkpt lat="45.37989" lon="0.18417">
        <ele>163.6640625</ele>
        <time>2011-10-09T10:41:28Z</time>
      </trkpt>
      <trkpt lat="45.37991" lon="0.18432">
        <ele>163.984375</ele>
        <time>2011-10-09T10:41:26Z</time>
      </trkpt>
      <trkpt lat="45.37992" lon="0.18448">
        <ele>163.9375</ele>
        <time>2011-10-09T10:41:24Z</time>
      </trkpt>
      <trkpt lat="45.37993" lon="0.18463">
        <ele>163.7421875</ele>
        <time>2011-10-09T10:41:22Z</time>
      </trkpt>
      <trkpt lat="45.37993" lon="0.18479">
        <ele>163.33984375</ele>
        <time>2011-10-09T10:41:20Z</time>
      </trkpt>
      <trkpt lat="45.37991" lon="0.18494">
        <ele>162.6484375</ele>
        <time>2011-10-09T10:41:18Z</time>
      </trkpt>
      <trkpt lat="45.37988" lon="0.18509">
        <ele>161.86328125</ele>
        <time>2011-10-09T10:41:16Z</time>
      </trkpt>
      <trkpt lat="45.37988" lon="0.18524">
        <ele>161.359375</ele>
        <time>2011-10-09T10:41:14Z</time>
      </trkpt>
      <trkpt lat="45.37988" lon="0.18539">
        <ele>160.9609375</ele>
        <time>2011-10-09T10:41:12Z</time>
      </trkpt>
      <trkpt lat="45.3799" lon="0.18553">
        <ele>160.5625</ele>
        <time>2011-10-09T10:41:10Z</time>
      </trkpt>
      <trkpt lat="45.37993" lon="0.18567">
        <ele>160.20703125</ele>
        <time>2011-10-09T10:41:08Z</time>
      </trkpt>
      <trkpt lat="45.38" lon="0.18578">
        <ele>160.1875</ele>
        <time>2011-10-09T10:41:06Z</time>
      </trkpt>
      <trkpt lat="45.38007" lon="0.1859">
        <ele>160.1328125</ele>
        <time>2011-10-09T10:41:04Z</time>
      </trkpt>
      <trkpt lat="45.38015" lon="0.186">
        <ele>159.91796875</ele>
        <time>2011-10-09T10:41:02Z</time>
      </trkpt>
      <trkpt lat="45.38024" lon="0.18606">
        <ele>159.17578125</ele>
        <time>2011-10-09T10:41:00Z</time>
      </trkpt>
      <trkpt lat="45.38034" lon="0.18611">
        <ele>158.53125</ele>
        <time>2011-10-09T10:40:58Z</time>
      </trkpt>
      <trkpt lat="45.38045" lon="0.18609">
        <ele>158.27734375</ele>
        <time>2011-10-09T10:40:56Z</time>
      </trkpt>
      <trkpt lat="45.38058" lon="0.18596">
        <ele>158.734375</ele>
        <time>2011-10-09T10:40:54Z</time>
      </trkpt>
      <trkpt lat="45.38062" lon="0.18584">
        <ele>159.63671875</ele>
        <time>2011-10-09T10:40:53Z</time>
      </trkpt>
      <trkpt lat="45.38066" lon="0.18572">
        <ele>160.58203125</ele>
        <time>2011-10-09T10:40:52Z</time>
      </trkpt>
      <trkpt lat="45.38071" lon="0.1856">
        <ele>161.36328125</ele>
        <time>2011-10-09T10:40:51Z</time>
      </trkpt>
      <trkpt lat="45.38074" lon="0.18548">
        <ele>162.09765625</ele>
        <time>2011-10-09T10:40:50Z</time>
      </trkpt>
      <trkpt lat="45.38079" lon="0.18523">
        <ele>163.921875</ele>
        <time>2011-10-09T10:40:48Z</time>
      </trkpt>
      <trkpt lat="45.38084" lon="0.18499">
        <ele>165.8359375</ele>
        <time>2011-10-09T10:40:46Z</time>
      </trkpt>
      <trkpt lat="45.38089" lon="0.18481">
        <ele>167.20703125</ele>
        <time>2011-10-09T10:40:44Z</time>
      </trkpt>
      <trkpt lat="45.38099" lon="0.18476">
        <ele>167.08203125</ele>
        <time>2011-10-09T10:40:42Z</time>
      </trkpt>
      <trkpt lat="45.3811" lon="0.18473">
        <ele>166.8125</ele>
        <time>2011-10-09T10:40:40Z</time>
      </trkpt>
      <trkpt lat="45.38121" lon="0.1847">
        <ele>166.51171875</ele>
        <time>2011-10-09T10:40:38Z</time>
      </trkpt>
      <trkpt lat="45.38133" lon="0.18468">
        <ele>166.30859375</ele>
        <time>2011-10-09T10:40:36Z</time>
      </trkpt>
      <trkpt lat="45.38147" lon="0.18465">
        <ele>166.171875</ele>
        <time>2011-10-09T10:40:34Z</time>
      </trkpt>
      <trkpt lat="45.38161" lon="0.18461">
        <ele>166.1015625</ele>
        <time>2011-10-09T10:40:32Z</time>
      </trkpt>
      <trkpt lat="45.38177" lon="0.18458">
        <ele>165.9921875</ele>
        <time>2011-10-09T10:40:30Z</time>
      </trkpt>
      <trkpt lat="45.38193" lon="0.18454">
        <ele>166.44140625</ele>
        <time>2011-10-09T10:40:28Z</time>
      </trkpt>
      <trkpt lat="45.3821" lon="0.18451">
        <ele>166.94140625</ele>
        <time>2011-10-09T10:40:26Z</time>
      </trkpt>
      <trkpt lat="45.38227" lon="0.18448">
        <ele>167.35546875</ele>
        <time>2011-10-09T10:40:24Z</time>
      </trkpt>
      <trkpt lat="45.38236" lon="0.18447">
        <ele>167.5859375</ele>
        <time>2011-10-09T10:40:23Z</time>
      </trkpt>
      <trkpt lat="45.38246" lon="0.18446">
        <ele>168.0234375</ele>
        <time>2011-10-09T10:40:22Z</time>
      </trkpt>
      <trkpt lat="45.38256" lon="0.18445">
        <ele>168.4375</ele>
        <time>2011-10-09T10:40:21Z</time>
      </trkpt>
      <trkpt lat="45.38265" lon="0.18445">
        <ele>168.8515625</ele>
        <time>2011-10-09T10:40:20Z</time>
      </trkpt>
      <trkpt lat="45.38275" lon="0.18444">
        <ele>169.30859375</ele>
        <time>2011-10-09T10:40:19Z</time>
      </trkpt>
      <trkpt lat="45.38284" lon="0.18443">
        <ele>169.7265625</ele>
        <time>2011-10-09T10:40:18Z</time>
      </trkpt>
      <trkpt lat="45.38293" lon="0.18442">
        <ele>170.33984375</ele>
        <time>2011-10-09T10:40:17Z</time>
      </trkpt>
      <trkpt lat="45.38303" lon="0.18441">
        <ele>171.34375</ele>
        <time>2011-10-09T10:40:16Z</time>
      </trkpt>
      <trkpt lat="45.38321" lon="0.1844">
        <ele>173.1875</ele>
        <time>2011-10-09T10:40:14Z</time>
      </trkpt>
      <trkpt lat="45.38338" lon="0.18439">
        <ele>174.87890625</ele>
        <time>2011-10-09T10:40:12Z</time>
      </trkpt>
      <trkpt lat="45.38353" lon="0.18437">
        <ele>176.19140625</ele>
        <time>2011-10-09T10:40:10Z</time>
      </trkpt>
      <trkpt lat="45.38372" lon="0.18427">
        <ele>177.62890625</ele>
        <time>2011-10-09T10:40:08Z</time>
      </trkpt>
      <trkpt lat="45.38358" lon="0.18382">
        <ele>179.046875</ele>
        <time>2011-10-09T10:40:06Z</time>
      </trkpt>
      <trkpt lat="45.38338" lon="0.18322">
        <ele>179.98046875</ele>
        <time>2011-10-09T10:40:04Z</time>
      </trkpt>
      <trkpt lat="45.38322" lon="0.18276">
        <ele>178.22265625</ele>
        <time>2011-10-09T10:40:02Z</time>
      </trkpt>
      <trkpt lat="45.38314" lon="0.1824">
        <ele>177.03515625</ele>
        <time>2011-10-09T10:40:00Z</time>
      </trkpt>
      <trkpt lat="45.38311" lon="0.18197">
        <ele>176.07421875</ele>
        <time>2011-10-09T10:39:58Z</time>
      </trkpt>
      <trkpt lat="45.38316" lon="0.18143">
        <ele>175.328125</ele>
        <time>2011-10-09T10:39:56Z</time>
      </trkpt>
      <trkpt lat="45.38325" lon="0.18101">
        <ele>174.86328125</ele>
      </trkpt>
      <trkpt lat="45.3834" lon="0.18061">
        <ele>174.91796875</ele>
      </trkpt>
      <trkpt lat="45.38357" lon="0.18022">
        <ele>174.75390625</ele>
      </trkpt>
      <trkpt lat="45.38377" lon="0.17997">
        <ele>173.8125</ele>
      </trkpt>
      <trkpt lat="45.38411" lon="0.17966">
        <ele>171.9296875</ele>
      </trkpt>
      <trkpt lat="45.38422" lon="0.17954">
        <ele>171.25390625</ele>
      </trkpt>
      <trkpt lat="45.3845" lon="0.17914">
        <ele>170.3359375</ele>
      </trkpt>
      <trkpt lat="45.38483" lon="0.17864">
        <ele>169.0078125</ele>
      </trkpt>
      <trkpt lat="45.38516" lon="0.17815">
        <ele>169.12890625</ele>
      </trkpt>
      <trkpt lat="45.38548" lon="0.17763">
        <ele>169.65625</ele>
      </trkpt>
      <trkpt lat="45.38582" lon="0.17718">
        <ele>169.59765625</ele>
      </trkpt>
      <trkpt lat="45.38603" lon="0.17679">
        <ele>170.05078125</ele>
      </trkpt>
      <trkpt lat="45.38618" lon="0.17631">
        <ele>171.16796875</ele>
      </trkpt>
      <trkpt lat="45.3863" lon="0.17589">
        <ele>172.50390625</ele>
      </trkpt>
      <trkpt lat="45.38643" lon="0.17522">
        <ele>175.828125</ele>
      </trkpt>
      <trkpt lat="45.38655" lon="0.17453">
        <ele>177.28515625</ele>
      </trkpt>
      <trkpt lat="45.38662" lon="0.17421">
        <ele>177.3828125</ele>
      </trkpt>
      <trkpt lat="45.38675" lon="0.17374">
        <ele>177.1640625</ele>
      </trkpt>
      <trkpt lat="45.38692" lon="0.17324">
        <ele>175.41015625</ele>
      </trkpt>
      <trkpt lat="45.38717" lon="0.17279">
        <ele>173.06640625</ele>
      </trkpt>
      <trkpt lat="45.38736" lon="0.17246">
        <ele>172.26953125</ele>
      </trkpt>
      <trkpt lat="45.38764" lon="0.17211">
        <ele>170.39453125</ele>
      </trkpt>
      <trkpt lat="45.38782" lon="0.17198">
        <ele>168.83984375</ele>
      </trkpt>
      <trkpt lat="45.38829" lon="0.17175">
        <ele>165.84765625</ele>
      </trkpt>
      <trkpt lat="45.38906" lon="0.17144">
        <ele>164.078125</ele>
      </trkpt>
      <trkpt lat="45.38963" lon="0.17119">
        <ele>163.8828125</ele>
      </trkpt>
      <trkpt lat="45.3902" lon="0.17095">
        <ele>163.90625</ele>
      </trkpt>
      <trkpt lat="45.39083" lon="0.1707">
        <ele>164</ele>
      </trkpt>
      <trkpt lat="45.39142" lon="0.17044">
        <ele>162.88671875</ele>
      </trkpt>
      <trkpt lat="45.39179" lon="0.1703">
        <ele>160.1328125</ele>
      </trkpt>
      <trkpt lat="45.39199" lon="0.17019">
        <ele>158.484375</ele>
      </trkpt>
      <trkpt lat="45.39219" lon="0.17006">
        <ele>157.02734375</ele>
      </trkpt>
      <trkpt lat="45.39243" lon="0.16982">
        <ele>154.7265625</ele>
      </trkpt>
      <trkpt lat="45.39267" lon="0.16944">
        <ele>151.69140625</ele>
      </trkpt>
      <trkpt lat="45.39301" lon="0.16892">
        <ele>149.6640625</ele>
      </trkpt>
      <trkpt lat="45.39326" lon="0.16847">
        <ele>147.65234375</ele>
      </trkpt>
      <trkpt lat="45.39355" lon="0.16798">
        <ele>146.7421875</ele>
      </trkpt>
      <trkpt lat="45.39388" lon="0.16745">
        <ele>145.37890625</ele>
      </trkpt>
      <trkpt lat="45.394" lon="0.16711">
        <ele>145.01171875</ele>
      </trkpt>
      <trkpt lat="45.39399" lon="0.16713">
        <ele>145.03125</ele>
      </trkpt>
      <trkpt lat="45.39407" lon="0.16728">
        <ele>144.68359375</ele>
      </trkpt>
      <trkpt lat="45.39416" lon="0.16772">
        <ele>144.4765625</ele>
      </trkpt>
      <trkpt lat="45.3942" lon="0.16807">
        <ele>144.53515625</ele>
      </trkpt>
      <trkpt lat="45.39419" lon="0.16824">
        <ele>144.67578125</ele>
      </trkpt>
      <trkpt lat="45.39423" lon="0.16828">
        <ele>144.30078125</ele>
      </trkpt>
      <trkpt lat="45.39435" lon="0.16834">
        <ele>143.4140625</ele>
      </trkpt>
      <trkpt lat="45.39448" lon="0.16841">
        <ele>142.49609375</ele>
      </trkpt>
      <trkpt lat="45.39455" lon="0.16847">
        <ele>142.08203125</ele>
      </trkpt>
      <trkpt lat="45.3946" lon="0.16858">
        <ele>141.85546875</ele>
      </trkpt>
      <trkpt lat="45.39462" lon="0.1687">
        <ele>141.79296875</ele>
      </trkpt>
      <trkpt lat="45.39468" lon="0.16904">
        <ele>141.12109375</ele>
      </trkpt>
      <trkpt lat="45.39474" lon="0.16908">
        <ele>140.8359375</ele>
      </trkpt>
      <trkpt lat="45.3948" lon="0.16915">
        <ele>140.5</ele>
      </trkpt>
      <trkpt lat="45.39489" lon="0.16932">
        <ele>139.85546875</ele>
      </trkpt>
      <trkpt lat="45.39512" lon="0.16977">
        <ele>137.453125</ele>
      </trkpt>
      <trkpt lat="45.39532" lon="0.17017">
        <ele>135.66015625</ele>
      </trkpt>
      <trkpt lat="45.39568" lon="0.17087">
        <ele>131.75</ele>
      </trkpt>
      <trkpt lat="45.39591" lon="0.17131">
        <ele>129.26953125</ele>
      </trkpt>
      <trkpt lat="45.39605" lon="0.17152">
        <ele>127.8671875</ele>
      </trkpt>
      <trkpt lat="45.39623" lon="0.17169">
        <ele>126.76953125</ele>
      </trkpt>
      <trkpt lat="45.39641" lon="0.17187">
        <ele>125.75390625</ele>
      </trkpt>
      <trkpt lat="45.39653" lon="0.17198">
        <ele>124.8984375</ele>
      </trkpt>
      <trkpt lat="45.39664" lon="0.17206">
        <ele>124.04296875</ele>
      </trkpt>
      <trkpt lat="45.39672" lon="0.17204">
        <ele>123.703125</ele>
      </trkpt>
      <trkpt lat="45.39707" lon="0.17188">
        <ele>123.3828125</ele>
      </trkpt>
      <trkpt lat="45.39733" lon="0.17175">
        <ele>124.046875</ele>
      </trkpt>
      <trkpt lat="45.39749" lon="0.17165">
        <ele>125.3515625</ele>
      </trkpt>
      <trkpt lat="45.39775" lon="0.17149">
        <ele>127.15625</ele>
      </trkpt>
      <trkpt lat="45.39809" lon="0.17132">
        <ele>128.14453125</ele>
      </trkpt>
      <trkpt lat="45.39829" lon="0.17131">
        <ele>128.04296875</ele>
      </trkpt>
      <trkpt lat="45.39853" lon="0.1713">
        <ele>127.75</ele>
      </trkpt>
      <trkpt lat="45.39871" lon="0.1713">
        <ele>127.2421875</ele>
      </trkpt>
      <trkpt lat="45.39895" lon="0.17139">
        <ele>126.45703125</ele>
      </trkpt>
      <trkpt lat="45.39928" lon="0.17152">
        <ele>125.0078125</ele>
      </trkpt>
      <trkpt lat="45.39965" lon="0.17171">
        <ele>123.625</ele>
      </trkpt>
      <trkpt lat="45.39991" lon="0.17187">
        <ele>123.17578125</ele>
      </trkpt>
      <trkpt lat="45.40018" lon="0.17218">
        <ele>123.4921875</ele>
      </trkpt>
      <trkpt lat="45.40047" lon="0.17247">
        <ele>122.0390625</ele>
      </trkpt>
      <trkpt lat="45.40071" lon="0.17267">
        <ele>121.8125</ele>
      </trkpt>
      <trkpt lat="45.40096" lon="0.17291">
        <ele>119.5859375</ele>
      </trkpt>
      <trkpt lat="45.4013" lon="0.17317">
        <ele>117.59375</ele>
      </trkpt>
      <trkpt lat="45.4014" lon="0.17308">
        <ele>117.046875</ele>
      </trkpt>
      <trkpt lat="45.40164" lon="0.17296">
        <ele>115.5234375</ele>
      </trkpt>
      <trkpt lat="45.40221" lon="0.17264">
        <ele>110.3671875</ele>
      </trkpt>
      <trkpt lat="45.40272" lon="0.17238">
        <ele>104.8515625</ele>
      </trkpt>
      <trkpt lat="45.40327" lon="0.17208">
        <ele>98.49609375</ele>
      </trkpt>
      <trkpt lat="45.40374" lon="0.17183">
        <ele>95.4140625</ele>
      </trkpt>
      <trkpt lat="45.40381" lon="0.17173">
        <ele>95.01171875</ele>
      </trkpt>
      <trkpt lat="45.40393" lon="0.17187">
        <ele>94.8046875</ele>
      </trkpt>
      <trkpt lat="45.40415" lon="0.17198">
        <ele>95.5</ele>
      </trkpt>
      <trkpt lat="45.40438" lon="0.17209">
        <ele>96.9453125</ele>
      </trkpt>
      <trkpt lat="45.40459" lon="0.17218">
        <ele>98.3515625</ele>
      </trkpt>
      <trkpt lat="45.40473" lon="0.17228">
        <ele>100.16015625</ele>
      </trkpt>
      <trkpt lat="45.40484" lon="0.17236">
        <ele>101.6484375</ele>
      </trkpt>
      <trkpt lat="45.40491" lon="0.17245">
        <ele>102.90234375</ele>
      </trkpt>
      <trkpt lat="45.40493" lon="0.17242">
        <ele>103.1640625</ele>
        <time>2011-10-09T10:23:19Z</time>
      </trkpt>
      <trkpt lat="45.40498" lon="0.17232">
        <ele>103.37890625</ele>
        <time>2011-10-09T10:23:17Z</time>
      </trkpt>
      <trkpt lat="45.40502" lon="0.17221">
        <ele>103.48046875</ele>
        <time>2011-10-09T10:23:15Z</time>
      </trkpt>
      <trkpt lat="45.40507" lon="0.17211">
        <ele>103.51171875</ele>
        <time>2011-10-09T10:23:13Z</time>
      </trkpt>
      <trkpt lat="45.40514" lon="0.17197">
        <ele>102.66796875</ele>
        <time>2011-10-09T10:23:11Z</time>
      </trkpt>
      <trkpt lat="45.40518" lon="0.17189">
        <ele>101.88671875</ele>
        <time>2011-10-09T10:23:08Z</time>
      </trkpt>
      <trkpt lat="45.40524" lon="0.17187">
        <ele>101.6015625</ele>
        <time>2011-10-09T10:23:06Z</time>
      </trkpt>
      <trkpt lat="45.40528" lon="0.17165">
        <ele>99.73828125</ele>
        <time>2011-10-09T10:23:04Z</time>
      </trkpt>
      <trkpt lat="45.40538" lon="0.17142">
        <ele>98.4765625</ele>
        <time>2011-10-09T10:23:02Z</time>
      </trkpt>
      <trkpt lat="45.40545" lon="0.17125">
        <ele>98.01171875</ele>
        <time>2011-10-09T10:23:00Z</time>
      </trkpt>
      <trkpt lat="45.40548" lon="0.1711">
        <ele>97.59375</ele>
        <time>2011-10-09T10:22:58Z</time>
      </trkpt>
      <trkpt lat="45.40547" lon="0.17101">
        <ele>97.28125</ele>
      </trkpt>
      <trkpt lat="45.40541" lon="0.17085">
        <ele>97.23828125</ele>
      </trkpt>
      <trkpt lat="45.40538" lon="0.17074">
        <ele>97.1875</ele>
        <time>2011-10-09T10:22:56Z</time>
      </trkpt>
      <trkpt lat="45.40533" lon="0.17059">
        <ele>97.08203125</ele>
        <time>2011-10-09T10:22:54Z</time>
      </trkpt>
      <trkpt lat="45.40533" lon="0.17034">
        <ele>97.53125</ele>
        <time>2011-10-09T10:22:52Z</time>
      </trkpt>
      <trkpt lat="45.40538" lon="0.17023">
        <ele>98.19921875</ele>
        <time>2011-10-09T10:22:51Z</time>
      </trkpt>
      <trkpt lat="45.40545" lon="0.17014">
        <ele>99.0625</ele>
        <time>2011-10-09T10:22:50Z</time>
      </trkpt>
      <trkpt lat="45.40554" lon="0.17005">
        <ele>100.140625</ele>
        <time>2011-10-09T10:22:49Z</time>
      </trkpt>
      <trkpt lat="45.40564" lon="0.16994">
        <ele>101.4765625</ele>
        <time>2011-10-09T10:22:48Z</time>
      </trkpt>
      <trkpt lat="45.40575" lon="0.16983">
        <ele>102.9453125</ele>
        <time>2011-10-09T10:22:47Z</time>
      </trkpt>
      <trkpt lat="45.40586" lon="0.16972">
        <ele>104.49609375</ele>
        <time>2011-10-09T10:22:46Z</time>
      </trkpt>
      <trkpt lat="45.40598" lon="0.16959">
        <ele>106.22265625</ele>
        <time>2011-10-09T10:22:45Z</time>
      </trkpt>
      <trkpt lat="45.4061" lon="0.16947">
        <ele>108.02734375</ele>
        <time>2011-10-09T10:22:44Z</time>
      </trkpt>
      <trkpt lat="45.40622" lon="0.16935">
        <ele>109.8828125</ele>
        <time>2011-10-09T10:22:43Z</time>
      </trkpt>
      <trkpt lat="45.40633" lon="0.16923">
        <ele>110.8515625</ele>
        <time>2011-10-09T10:22:42Z</time>
      </trkpt>
      <trkpt lat="45.40644" lon="0.16912">
        <ele>111.90625</ele>
        <time>2011-10-09T10:22:41Z</time>
      </trkpt>
      <trkpt lat="45.40655" lon="0.169">
        <ele>113.1171875</ele>
        <time>2011-10-09T10:22:40Z</time>
      </trkpt>
      <trkpt lat="45.40666" lon="0.16889">
        <ele>114.484375</ele>
        <time>2011-10-09T10:22:39Z</time>
      </trkpt>
      <trkpt lat="45.40677" lon="0.16877">
        <ele>115.97265625</ele>
        <time>2011-10-09T10:22:38Z</time>
      </trkpt>
      <trkpt lat="45.40688" lon="0.16866">
        <ele>116.72265625</ele>
        <time>2011-10-09T10:22:37Z</time>
      </trkpt>
      <trkpt lat="45.40699" lon="0.16854">
        <ele>117.58984375</ele>
        <time>2011-10-09T10:22:36Z</time>
      </trkpt>
      <trkpt lat="45.4071" lon="0.16843">
        <ele>118.62109375</ele>
        <time>2011-10-09T10:22:35Z</time>
      </trkpt>
      <trkpt lat="45.40721" lon="0.16831">
        <ele>119.83203125</ele>
        <time>2011-10-09T10:22:34Z</time>
      </trkpt>
      <trkpt lat="45.40732" lon="0.16819">
        <ele>121.22265625</ele>
        <time>2011-10-09T10:22:33Z</time>
      </trkpt>
      <trkpt lat="45.40743" lon="0.16807">
        <ele>122.48828125</ele>
        <time>2011-10-09T10:22:32Z</time>
      </trkpt>
      <trkpt lat="45.40754" lon="0.16795">
        <ele>123.94140625</ele>
        <time>2011-10-09T10:22:31Z</time>
      </trkpt>
      <trkpt lat="45.40765" lon="0.16784">
        <ele>125.65625</ele>
        <time>2011-10-09T10:22:30Z</time>
      </trkpt>
      <trkpt lat="45.40776" lon="0.16771">
        <ele>127.63671875</ele>
        <time>2011-10-09T10:22:29Z</time>
      </trkpt>
      <trkpt lat="45.40786" lon="0.16759">
        <ele>129.3984375</ele>
        <time>2011-10-09T10:22:28Z</time>
      </trkpt>
      <trkpt lat="45.40796" lon="0.16747">
        <ele>130.75390625</ele>
        <time>2011-10-09T10:22:27Z</time>
      </trkpt>
      <trkpt lat="45.40806" lon="0.16735">
        <ele>132.1640625</ele>
        <time>2011-10-09T10:22:26Z</time>
      </trkpt>
      <trkpt lat="45.40815" lon="0.16724">
        <ele>133.6953125</ele>
        <time>2011-10-09T10:22:25Z</time>
      </trkpt>
      <trkpt lat="45.40824" lon="0.16714">
        <ele>135.34765625</ele>
        <time>2011-10-09T10:22:24Z</time>
      </trkpt>
      <trkpt lat="45.40832" lon="0.16703">
        <ele>136.9765625</ele>
        <time>2011-10-09T10:22:23Z</time>
      </trkpt>
      <trkpt lat="45.4084" lon="0.16694">
        <ele>138.59375</ele>
        <time>2011-10-09T10:22:22Z</time>
      </trkpt>
      <trkpt lat="45.40853" lon="0.16676">
        <ele>141.3984375</ele>
        <time>2011-10-09T10:22:20Z</time>
      </trkpt>
      <trkpt lat="45.40864" lon="0.16662">
        <ele>143.45703125</ele>
        <time>2011-10-09T10:22:18Z</time>
      </trkpt>
      <trkpt lat="45.40872" lon="0.16653">
        <ele>144.67578125</ele>
        <time>2011-10-09T10:22:16Z</time>
      </trkpt>
      <trkpt lat="45.40881" lon="0.16643">
        <ele>145.71484375</ele>
        <time>2011-10-09T10:22:12Z</time>
      </trkpt>
      <trkpt lat="45.40898" lon="0.16623">
        <ele>147.703125</ele>
        <time>2011-10-09T10:16:28Z</time>
      </trkpt>
      <trkpt lat="45.40902" lon="0.1662">
        <ele>148.09765625</ele>
        <time>2011-10-09T10:16:22Z</time>
      </trkpt>
      <trkpt lat="45.40908" lon="0.16621">
        <ele>148.2734375</ele>
        <time>2011-10-09T10:16:20Z</time>
      </trkpt>
      <trkpt lat="45.40931" lon="0.16632">
        <ele>148.765625</ele>
        <time>2011-10-09T10:16:18Z</time>
      </trkpt>
      <trkpt lat="45.40965" lon="0.16645">
        <ele>150.01171875</ele>
        <time>2011-10-09T10:16:16Z</time>
      </trkpt>
      <trkpt lat="45.41" lon="0.16663">
        <ele>151.85546875</ele>
        <time>2011-10-09T10:16:08Z</time>
      </trkpt>
      <trkpt lat="45.41027" lon="0.16683">
        <ele>153.28125</ele>
        <time>2011-10-09T10:16:06Z</time>
      </trkpt>
      <trkpt lat="45.41037" lon="0.16685">
        <ele>154.3125</ele>
        <time>2011-10-09T10:16:04Z</time>
      </trkpt>
      <trkpt lat="45.41042" lon="0.16683">
        <ele>154.88671875</ele>
        <time>2011-10-09T10:16:02Z</time>
      </trkpt>
      <trkpt lat="45.41048" lon="0.16678">
        <ele>155.64453125</ele>
        <time>2011-10-09T10:16:00Z</time>
      </trkpt>
      <trkpt lat="45.41059" lon="0.16659">
        <ele>157.25390625</ele>
        <time>2011-10-09T10:15:58Z</time>
      </trkpt>
      <trkpt lat="45.41064" lon="0.16656">
        <ele>157.71484375</ele>
        <time>2011-10-09T10:15:56Z</time>
      </trkpt>
      <trkpt lat="45.41072" lon="0.16656">
        <ele>158.0390625</ele>
        <time>2011-10-09T10:15:54Z</time>
      </trkpt>
      <trkpt lat="45.41083" lon="0.16661">
        <ele>158.31640625</ele>
        <time>2011-10-09T10:15:52Z</time>
      </trkpt>
      <trkpt lat="45.41106" lon="0.16678">
        <ele>159.40625</ele>
        <time>2011-10-09T10:15:50Z</time>
      </trkpt>
      <trkpt lat="45.41116" lon="0.16681">
        <ele>160.01171875</ele>
      </trkpt>
      <trkpt lat="45.41118" lon="0.16679">
        <ele>160.03515625</ele>
        <time>2011-10-09T10:15:48Z</time>
      </trkpt>
      <trkpt lat="45.41135" lon="0.16697">
        <ele>161.28515625</ele>
        <time>2011-10-09T10:15:46Z</time>
      </trkpt>
      <trkpt lat="45.41153" lon="0.16712">
        <ele>162.5546875</ele>
        <time>2011-10-09T10:15:44Z</time>
      </trkpt>
      <trkpt lat="45.41169" lon="0.16723">
        <ele>162.984375</ele>
        <time>2011-10-09T10:15:42Z</time>
      </trkpt>
      <trkpt lat="45.41184" lon="0.16733">
        <ele>163.80859375</ele>
        <time>2011-10-09T10:15:40Z</time>
      </trkpt>
      <trkpt lat="45.41199" lon="0.16745">
        <ele>165.125</ele>
        <time>2011-10-09T10:15:38Z</time>
      </trkpt>
      <trkpt lat="45.41216" lon="0.16755">
        <ele>166.515625</ele>
        <time>2011-10-09T10:15:36Z</time>
      </trkpt>
      <trkpt lat="45.41231" lon="0.16763">
        <ele>167.796875</ele>
        <time>2011-10-09T10:15:34Z</time>
      </trkpt>
      <trkpt lat="45.41245" lon="0.1677">
        <ele>168.71875</ele>
        <time>2011-10-09T10:15:32Z</time>
      </trkpt>
      <trkpt lat="45.41257" lon="0.16775">
        <ele>169.33203125</ele>
        <time>2011-10-09T10:15:30Z</time>
      </trkpt>
      <trkpt lat="45.41266" lon="0.16782">
        <ele>169.73046875</ele>
        <time>2011-10-09T10:15:28Z</time>
      </trkpt>
      <trkpt lat="45.41278" lon="0.1679">
        <ele>170.35546875</ele>
        <time>2011-10-09T10:15:25Z</time>
      </trkpt>
      <trkpt lat="45.41287" lon="0.16798">
        <ele>170.7734375</ele>
        <time>2011-10-09T10:15:22Z</time>
      </trkpt>
      <trkpt lat="45.41295" lon="0.16809">
        <ele>170.68359375</ele>
        <time>2011-10-09T10:15:19Z</time>
      </trkpt>
      <trkpt lat="45.41305" lon="0.1682">
        <ele>170.66015625</ele>
        <time>2011-10-09T10:15:16Z</time>
      </trkpt>
      <trkpt lat="45.41315" lon="0.16833">
        <ele>170.50390625</ele>
        <time>2011-10-09T10:15:13Z</time>
      </trkpt>
      <trkpt lat="45.41327" lon="0.16841">
        <ele>170.7421875</ele>
        <time>2011-10-09T10:15:10Z</time>
      </trkpt>
      <trkpt lat="45.41337" lon="0.16854">
        <ele>170.96875</ele>
        <time>2011-10-09T10:15:07Z</time>
      </trkpt>
      <trkpt lat="45.41343" lon="0.16864">
        <ele>171.19921875</ele>
        <time>2011-10-09T10:15:05Z</time>
      </trkpt>
      <trkpt lat="45.41351" lon="0.16878">
        <ele>171.0078125</ele>
        <time>2011-10-09T10:15:02Z</time>
      </trkpt>
      <trkpt lat="45.41357" lon="0.16888">
        <ele>170.90625</ele>
        <time>2011-10-09T10:15:00Z</time>
      </trkpt>
      <trkpt lat="45.41364" lon="0.16897">
        <ele>170.90234375</ele>
        <time>2011-10-09T10:14:58Z</time>
      </trkpt>
      <trkpt lat="45.4137" lon="0.16908">
        <ele>170.95703125</ele>
        <time>2011-10-09T10:14:56Z</time>
      </trkpt>
      <trkpt lat="45.41375" lon="0.16919">
        <ele>171.08984375</ele>
        <time>2011-10-09T10:14:54Z</time>
      </trkpt>
      <trkpt lat="45.41384" lon="0.16935">
        <ele>171.38671875</ele>
        <time>2011-10-09T10:14:51Z</time>
      </trkpt>
      <trkpt lat="45.41391" lon="0.1695">
        <ele>171.17578125</ele>
        <time>2011-10-09T10:14:48Z</time>
      </trkpt>
      <trkpt lat="45.41397" lon="0.16963">
        <ele>170.90234375</ele>
        <time>2011-10-09T10:14:45Z</time>
      </trkpt>
      <trkpt lat="45.41404" lon="0.16976">
        <ele>170.66015625</ele>
        <time>2011-10-09T10:14:41Z</time>
      </trkpt>
      <trkpt lat="45.41411" lon="0.16986">
        <ele>170.52734375</ele>
        <time>2011-10-09T10:14:37Z</time>
      </trkpt>
      <trkpt lat="45.41418" lon="0.16996">
        <ele>170.3984375</ele>
        <time>2011-10-09T10:14:32Z</time>
      </trkpt>
      <trkpt lat="45.41426" lon="0.17005">
        <ele>170.234375</ele>
        <time>2011-10-09T10:14:27Z</time>
      </trkpt>
      <trkpt lat="45.41433" lon="0.17015">
        <ele>170.03515625</ele>
        <time>2011-10-09T10:14:22Z</time>
      </trkpt>
      <trkpt lat="45.4144" lon="0.17024">
        <ele>169.75390625</ele>
        <time>2011-10-09T10:14:17Z</time>
      </trkpt>
      <trkpt lat="45.41448" lon="0.17035">
        <ele>169.40625</ele>
        <time>2011-10-09T10:14:12Z</time>
      </trkpt>
      <trkpt lat="45.41455" lon="0.17048">
        <ele>168.77734375</ele>
        <time>2011-10-09T10:14:07Z</time>
      </trkpt>
      <trkpt lat="45.41461" lon="0.1706">
        <ele>168.02734375</ele>
        <time>2011-10-09T10:14:03Z</time>
      </trkpt>
      <trkpt lat="45.41468" lon="0.17072">
        <ele>167.44921875</ele>
        <time>2011-10-09T10:13:59Z</time>
      </trkpt>
      <trkpt lat="45.41475" lon="0.17087">
        <ele>166.9140625</ele>
        <time>2011-10-09T10:13:55Z</time>
      </trkpt>
      <trkpt lat="45.41481" lon="0.17097">
        <ele>166.60546875</ele>
        <time>2011-10-09T10:13:52Z</time>
      </trkpt>
      <trkpt lat="45.41488" lon="0.17108">
        <ele>166.34765625</ele>
        <time>2011-10-09T10:13:49Z</time>
      </trkpt>
      <trkpt lat="45.41495" lon="0.17119">
        <ele>166.08203125</ele>
        <time>2011-10-09T10:13:46Z</time>
      </trkpt>
      <trkpt lat="45.415" lon="0.17134">
        <ele>165.4375</ele>
        <time>2011-10-09T10:13:43Z</time>
      </trkpt>
      <trkpt lat="45.41509" lon="0.17147">
        <ele>165.4375</ele>
        <time>2011-10-09T10:13:40Z</time>
      </trkpt>
      <trkpt lat="45.41519" lon="0.1716">
        <ele>164.9765625</ele>
        <time>2011-10-09T10:13:37Z</time>
      </trkpt>
      <trkpt lat="45.41527" lon="0.17173">
        <ele>164.0390625</ele>
        <time>2011-10-09T10:13:34Z</time>
      </trkpt>
      <trkpt lat="45.41535" lon="0.17187">
        <ele>163.28515625</ele>
        <time>2011-10-09T10:13:31Z</time>
      </trkpt>
      <trkpt lat="45.41543" lon="0.17198">
        <ele>162.94140625</ele>
        <time>2011-10-09T10:13:28Z</time>
      </trkpt>
      <trkpt lat="45.41551" lon="0.17212">
        <ele>162.65625</ele>
        <time>2011-10-09T10:13:24Z</time>
      </trkpt>
      <trkpt lat="45.4156" lon="0.17225">
        <ele>162.7109375</ele>
        <time>2011-10-09T10:13:19Z</time>
      </trkpt>
      <trkpt lat="45.41568" lon="0.17233">
        <ele>162.7109375</ele>
        <time>2011-10-09T10:13:16Z</time>
      </trkpt>
      <trkpt lat="45.41573" lon="0.17244">
        <ele>161.828125</ele>
        <time>2011-10-09T10:13:12Z</time>
      </trkpt>
      <trkpt lat="45.41581" lon="0.17257">
        <ele>160.875</ele>
        <time>2011-10-09T10:13:08Z</time>
      </trkpt>
      <trkpt lat="45.41588" lon="0.17271">
        <ele>160.09375</ele>
        <time>2011-10-09T10:13:04Z</time>
      </trkpt>
      <trkpt lat="45.41593" lon="0.17283">
        <ele>159.609375</ele>
        <time>2011-10-09T10:13:01Z</time>
      </trkpt>
      <trkpt lat="45.41598" lon="0.17295">
        <ele>159.22265625</ele>
        <time>2011-10-09T10:12:58Z</time>
      </trkpt>
      <trkpt lat="45.41602" lon="0.17307">
        <ele>158.9453125</ele>
        <time>2011-10-09T10:12:55Z</time>
      </trkpt>
      <trkpt lat="45.4161" lon="0.17319">
        <ele>158.83984375</ele>
        <time>2011-10-09T10:12:52Z</time>
      </trkpt>
      <trkpt lat="45.41616" lon="0.17332">
        <ele>158.83203125</ele>
        <time>2011-10-09T10:12:49Z</time>
      </trkpt>
      <trkpt lat="45.41619" lon="0.17347">
        <ele>158.8828125</ele>
        <time>2011-10-09T10:12:46Z</time>
      </trkpt>
      <trkpt lat="45.41623" lon="0.17362">
        <ele>158.98046875</ele>
        <time>2011-10-09T10:12:43Z</time>
      </trkpt>
      <trkpt lat="45.41629" lon="0.17377">
        <ele>158.99609375</ele>
        <time>2011-10-09T10:12:40Z</time>
      </trkpt>
      <trkpt lat="45.41637" lon="0.17392">
        <ele>158.890625</ele>
        <time>2011-10-09T10:12:37Z</time>
      </trkpt>
      <trkpt lat="45.41645" lon="0.17401">
        <ele>158.92578125</ele>
        <time>2011-10-09T10:12:35Z</time>
      </trkpt>
      <trkpt lat="45.41654" lon="0.17407">
        <ele>159.0859375</ele>
        <time>2011-10-09T10:12:33Z</time>
      </trkpt>
      <trkpt lat="45.41664" lon="0.17414">
        <ele>159.33984375</ele>
        <time>2011-10-09T10:12:31Z</time>
      </trkpt>
      <trkpt lat="45.41675" lon="0.17421">
        <ele>159.6875</ele>
        <time>2011-10-09T10:12:29Z</time>
      </trkpt>
      <trkpt lat="45.41684" lon="0.17427">
        <ele>159.7578125</ele>
        <time>2011-10-09T10:12:27Z</time>
      </trkpt>
      <trkpt lat="45.41694" lon="0.17434">
        <ele>159.703125</ele>
        <time>2011-10-09T10:12:25Z</time>
      </trkpt>
      <trkpt lat="45.41703" lon="0.1744">
        <ele>159.48828125</ele>
        <time>2011-10-09T10:12:23Z</time>
      </trkpt>
      <trkpt lat="45.41711" lon="0.17445">
        <ele>159.3125</ele>
        <time>2011-10-09T10:12:21Z</time>
      </trkpt>
      <trkpt lat="45.41723" lon="0.17453">
        <ele>159.109375</ele>
        <time>2011-10-09T10:12:18Z</time>
      </trkpt>
      <trkpt lat="45.41735" lon="0.1746">
        <ele>158.8984375</ele>
        <time>2011-10-09T10:12:15Z</time>
      </trkpt>
      <trkpt lat="45.41745" lon="0.17466">
        <ele>158.4296875</ele>
        <time>2011-10-09T10:12:12Z</time>
      </trkpt>
      <trkpt lat="45.41755" lon="0.17472">
        <ele>157.9296875</ele>
        <time>2011-10-09T10:12:09Z</time>
      </trkpt>
      <trkpt lat="45.41765" lon="0.17477">
        <ele>157.41796875</ele>
        <time>2011-10-09T10:12:06Z</time>
      </trkpt>
      <trkpt lat="45.41774" lon="0.17482">
        <ele>156.87109375</ele>
        <time>2011-10-09T10:12:03Z</time>
      </trkpt>
      <trkpt lat="45.41784" lon="0.17488">
        <ele>156.28515625</ele>
        <time>2011-10-09T10:12:00Z</time>
      </trkpt>
      <trkpt lat="45.41795" lon="0.17492">
        <ele>155.78515625</ele>
        <time>2011-10-09T10:11:56Z</time>
      </trkpt>
      <trkpt lat="45.41805" lon="0.17498">
        <ele>155.40625</ele>
        <time>2011-10-09T10:11:52Z</time>
      </trkpt>
      <trkpt lat="45.41815" lon="0.17503">
        <ele>155.0546875</ele>
        <time>2011-10-09T10:11:48Z</time>
      </trkpt>
      <trkpt lat="45.41824" lon="0.17506">
        <ele>154.75390625</ele>
        <time>2011-10-09T10:11:44Z</time>
      </trkpt>
      <trkpt lat="45.41834" lon="0.1751">
        <ele>154.44140625</ele>
        <time>2011-10-09T10:11:40Z</time>
      </trkpt>
      <trkpt lat="45.41846" lon="0.17514">
        <ele>154.046875</ele>
        <time>2011-10-09T10:11:36Z</time>
      </trkpt>
      <trkpt lat="45.41855" lon="0.17519">
        <ele>153.63671875</ele>
        <time>2011-10-09T10:11:33Z</time>
      </trkpt>
      <trkpt lat="45.41864" lon="0.17522">
        <ele>153.32421875</ele>
        <time>2011-10-09T10:11:30Z</time>
      </trkpt>
      <trkpt lat="45.41873" lon="0.17523">
        <ele>153.046875</ele>
        <time>2011-10-09T10:11:27Z</time>
      </trkpt>
      <trkpt lat="45.41882" lon="0.17526">
        <ele>152.76171875</ele>
        <time>2011-10-09T10:11:24Z</time>
      </trkpt>
      <trkpt lat="45.41893" lon="0.1753">
        <ele>152.4140625</ele>
        <time>2011-10-09T10:11:20Z</time>
      </trkpt>
      <trkpt lat="45.41905" lon="0.17534">
        <ele>151.97265625</ele>
        <time>2011-10-09T10:11:16Z</time>
      </trkpt>
      <trkpt lat="45.41917" lon="0.17538">
        <ele>151.4609375</ele>
        <time>2011-10-09T10:11:12Z</time>
      </trkpt>
      <trkpt lat="45.41927" lon="0.17546">
        <ele>150.9609375</ele>
        <time>2011-10-09T10:11:08Z</time>
      </trkpt>
      <trkpt lat="45.41936" lon="0.1755">
        <ele>150.30859375</ele>
        <time>2011-10-09T10:11:04Z</time>
      </trkpt>
      <trkpt lat="45.41946" lon="0.17556">
        <ele>149.67578125</ele>
        <time>2011-10-09T10:11:00Z</time>
      </trkpt>
      <trkpt lat="45.41956" lon="0.17561">
        <ele>149.08203125</ele>
        <time>2011-10-09T10:10:56Z</time>
      </trkpt>
      <trkpt lat="45.41966" lon="0.17566">
        <ele>148.265625</ele>
        <time>2011-10-09T10:10:52Z</time>
      </trkpt>
      <trkpt lat="45.41975" lon="0.17572">
        <ele>147.421875</ele>
        <time>2011-10-09T10:10:48Z</time>
      </trkpt>
      <trkpt lat="45.41985" lon="0.17579">
        <ele>146.53125</ele>
        <time>2011-10-09T10:10:43Z</time>
      </trkpt>
      <trkpt lat="45.41994" lon="0.17586">
        <ele>145.69921875</ele>
        <time>2011-10-09T10:10:38Z</time>
      </trkpt>
      <trkpt lat="45.42003" lon="0.17591">
        <ele>144.91015625</ele>
        <time>2011-10-09T10:10:33Z</time>
      </trkpt>
      <trkpt lat="45.42012" lon="0.17595">
        <ele>144.14453125</ele>
        <time>2011-10-09T10:10:28Z</time>
      </trkpt>
      <trkpt lat="45.42022" lon="0.17597">
        <ele>143.296875</ele>
        <time>2011-10-09T10:10:23Z</time>
      </trkpt>
      <trkpt lat="45.42033" lon="0.17598">
        <ele>142.46875</ele>
        <time>2011-10-09T10:10:18Z</time>
      </trkpt>
      <trkpt lat="45.42042" lon="0.17601">
        <ele>141.6640625</ele>
        <time>2011-10-09T10:10:13Z</time>
      </trkpt>
      <trkpt lat="45.42052" lon="0.17603">
        <ele>140.82421875</ele>
        <time>2011-10-09T10:10:08Z</time>
      </trkpt>
      <trkpt lat="45.42062" lon="0.17605">
        <ele>139.97265625</ele>
        <time>2011-10-09T10:10:03Z</time>
      </trkpt>
      <trkpt lat="45.42073" lon="0.17607">
        <ele>139.05859375</ele>
        <time>2011-10-09T10:09:58Z</time>
      </trkpt>
      <trkpt lat="45.42082" lon="0.1761">
        <ele>138.22265625</ele>
        <time>2011-10-09T10:09:53Z</time>
      </trkpt>
      <trkpt lat="45.42092" lon="0.17613">
        <ele>137.36328125</ele>
        <time>2011-10-09T10:09:48Z</time>
      </trkpt>
      <trkpt lat="45.42102" lon="0.17616">
        <ele>136.4609375</ele>
        <time>2011-10-09T10:09:43Z</time>
      </trkpt>
      <trkpt lat="45.42112" lon="0.17618">
        <ele>135.64453125</ele>
        <time>2011-10-09T10:09:38Z</time>
      </trkpt>
      <trkpt lat="45.42121" lon="0.17621">
        <ele>134.90625</ele>
        <time>2011-10-09T10:09:33Z</time>
      </trkpt>
      <trkpt lat="45.42132" lon="0.17624">
        <ele>134.1953125</ele>
        <time>2011-10-09T10:09:27Z</time>
      </trkpt>
      <trkpt lat="45.42142" lon="0.17626">
        <ele>133.48828125</ele>
        <time>2011-10-09T10:09:22Z</time>
      </trkpt>
      <trkpt lat="45.42152" lon="0.17628">
        <ele>132.828125</ele>
        <time>2011-10-09T10:09:17Z</time>
      </trkpt>
      <trkpt lat="45.42161" lon="0.17632">
        <ele>132.1328125</ele>
        <time>2011-10-09T10:09:12Z</time>
      </trkpt>
      <trkpt lat="45.42172" lon="0.17634">
        <ele>131.4453125</ele>
        <time>2011-10-09T10:09:07Z</time>
      </trkpt>
      <trkpt lat="45.42182" lon="0.17636">
        <ele>130.73046875</ele>
        <time>2011-10-09T10:09:02Z</time>
      </trkpt>
      <trkpt lat="45.42192" lon="0.17639">
        <ele>130.03515625</ele>
        <time>2011-10-09T10:08:58Z</time>
      </trkpt>
      <trkpt lat="45.42202" lon="0.17641">
        <ele>129.33984375</ele>
        <time>2011-10-09T10:08:54Z</time>
      </trkpt>
      <trkpt lat="45.42212" lon="0.17643">
        <ele>128.6796875</ele>
        <time>2011-10-09T10:08:50Z</time>
      </trkpt>
      <trkpt lat="45.42223" lon="0.17643">
        <ele>128.0234375</ele>
        <time>2011-10-09T10:08:46Z</time>
      </trkpt>
      <trkpt lat="45.42235" lon="0.17645">
        <ele>127.3359375</ele>
        <time>2011-10-09T10:08:42Z</time>
      </trkpt>
      <trkpt lat="45.42247" lon="0.17646">
        <ele>126.8203125</ele>
        <time>2011-10-09T10:08:38Z</time>
      </trkpt>
      <trkpt lat="45.42256" lon="0.17649">
        <ele>126.40625</ele>
        <time>2011-10-09T10:08:35Z</time>
      </trkpt>
      <trkpt lat="45.42267" lon="0.17653">
        <ele>125.859375</ele>
        <time>2011-10-09T10:08:31Z</time>
      </trkpt>
      <trkpt lat="45.42279" lon="0.17668">
        <ele>124.44921875</ele>
        <time>2011-10-09T10:08:27Z</time>
      </trkpt>
      <trkpt lat="45.4229" lon="0.17676">
        <ele>123.5</ele>
        <time>2011-10-09T10:08:23Z</time>
      </trkpt>
      <trkpt lat="45.423" lon="0.17686">
        <ele>122.39453125</ele>
        <time>2011-10-09T10:08:19Z</time>
      </trkpt>
      <trkpt lat="45.42306" lon="0.17694">
        <ele>121.60546875</ele>
        <time>2011-10-09T10:08:15Z</time>
      </trkpt>
      <trkpt lat="45.42318" lon="0.17706">
        <ele>120.34375</ele>
        <time>2011-10-09T10:08:11Z</time>
      </trkpt>
      <trkpt lat="45.42326" lon="0.17712">
        <ele>119.57421875</ele>
        <time>2011-10-09T10:08:07Z</time>
      </trkpt>
      <trkpt lat="45.42326" lon="0.17723">
        <ele>118.63671875</ele>
        <time>2011-10-09T10:08:03Z</time>
      </trkpt>
      <trkpt lat="45.42325" lon="0.17738">
        <ele>117.265625</ele>
        <time>2011-10-09T10:07:59Z</time>
      </trkpt>
      <trkpt lat="45.42334" lon="0.17743">
        <ele>116.47265625</ele>
        <time>2011-10-09T10:07:55Z</time>
      </trkpt>
      <trkpt lat="45.42345" lon="0.17749">
        <ele>115.640625</ele>
        <time>2011-10-09T10:07:51Z</time>
      </trkpt>
      <trkpt lat="45.42356" lon="0.17754">
        <ele>114.98046875</ele>
        <time>2011-10-09T10:07:47Z</time>
      </trkpt>
      <trkpt lat="45.42366" lon="0.17759">
        <ele>114.31640625</ele>
        <time>2011-10-09T10:07:43Z</time>
      </trkpt>
      <trkpt lat="45.42376" lon="0.17765">
        <ele>113.5546875</ele>
        <time>2011-10-09T10:07:39Z</time>
      </trkpt>
      <trkpt lat="45.42386" lon="0.17769">
        <ele>113.109375</ele>
        <time>2011-10-09T10:07:34Z</time>
      </trkpt>
      <trkpt lat="45.42393" lon="0.17769">
        <ele>112.9765625</ele>
        <time>2011-10-09T10:07:29Z</time>
      </trkpt>
      <trkpt lat="45.42411" lon="0.17776">
        <ele>112.0703125</ele>
        <time>2011-10-09T10:07:24Z</time>
      </trkpt>
      <trkpt lat="45.42422" lon="0.1778">
        <ele>111.46484375</ele>
        <time>2011-10-09T10:07:19Z</time>
      </trkpt>
      <trkpt lat="45.42431" lon="0.17784">
        <ele>110.953125</ele>
        <time>2011-10-09T10:07:14Z</time>
      </trkpt>
      <trkpt lat="45.42445" lon="0.17787">
        <ele>110.2578125</ele>
        <time>2011-10-09T10:07:09Z</time>
      </trkpt>
      <trkpt lat="45.42454" lon="0.17791">
        <ele>109.74609375</ele>
        <time>2011-10-09T10:07:04Z</time>
      </trkpt>
      <trkpt lat="45.42462" lon="0.17799">
        <ele>108.953125</ele>
        <time>2011-10-09T10:06:59Z</time>
      </trkpt>
      <trkpt lat="45.42468" lon="0.17806">
        <ele>108.36328125</ele>
        <time>2011-10-09T10:06:54Z</time>
      </trkpt>
      <trkpt lat="45.42472" lon="0.17815">
        <ele>107.7421875</ele>
        <time>2011-10-09T10:06:49Z</time>
      </trkpt>
      <trkpt lat="45.42479" lon="0.17826">
        <ele>107.109375</ele>
        <time>2011-10-09T10:06:44Z</time>
      </trkpt>
      <trkpt lat="45.42486" lon="0.17835">
        <ele>106.76171875</ele>
        <time>2011-10-09T10:06:39Z</time>
      </trkpt>
      <trkpt lat="45.42495" lon="0.17846">
        <ele>106.2421875</ele>
        <time>2011-10-09T10:06:34Z</time>
      </trkpt>
      <trkpt lat="45.42503" lon="0.17852">
        <ele>105.81640625</ele>
        <time>2011-10-09T10:06:30Z</time>
      </trkpt>
      <trkpt lat="45.42515" lon="0.17861">
        <ele>104.98828125</ele>
        <time>2011-10-09T10:06:26Z</time>
      </trkpt>
      <trkpt lat="45.42523" lon="0.17866">
        <ele>104.2578125</ele>
        <time>2011-10-09T10:06:22Z</time>
      </trkpt>
      <trkpt lat="45.42531" lon="0.17872">
        <ele>103.5703125</ele>
        <time>2011-10-09T10:06:18Z</time>
      </trkpt>
      <trkpt lat="45.4254" lon="0.17879">
        <ele>102.859375</ele>
        <time>2011-10-09T10:06:14Z</time>
      </trkpt>
      <trkpt lat="45.42547" lon="0.17886">
        <ele>102.32421875</ele>
        <time>2011-10-09T10:06:10Z</time>
      </trkpt>
      <trkpt lat="45.42553" lon="0.17888">
        <ele>101.85546875</ele>
        <time>2011-10-09T10:06:07Z</time>
      </trkpt>
      <trkpt lat="45.42562" lon="0.17892">
        <ele>101.265625</ele>
        <time>2011-10-09T10:06:04Z</time>
      </trkpt>
      <trkpt lat="45.42577" lon="0.179">
        <ele>100.875</ele>
        <time>2011-10-09T10:06:01Z</time>
      </trkpt>
      <trkpt lat="45.4257" lon="0.17921">
        <ele>100.98046875</ele>
        <time>2011-10-09T10:05:59Z</time>
      </trkpt>
      <trkpt lat="45.42556" lon="0.1795">
        <ele>101.75</ele>
        <time>2011-10-09T10:05:57Z</time>
      </trkpt>
      <trkpt lat="45.4254" lon="0.1799">
        <ele>102.9140625</ele>
        <time>2011-10-09T10:05:55Z</time>
      </trkpt>
      <trkpt lat="45.42525" lon="0.18026">
        <ele>102.984375</ele>
        <time>2011-10-09T10:05:53Z</time>
      </trkpt>
      <trkpt lat="45.42509" lon="0.18062">
        <ele>102.7578125</ele>
        <time>2011-10-09T10:05:51Z</time>
      </trkpt>
      <trkpt lat="45.42493" lon="0.18104">
        <ele>103.015625</ele>
        <time>2011-10-09T10:05:49Z</time>
      </trkpt>
      <trkpt lat="45.42488" lon="0.18128">
        <ele>103.99609375</ele>
        <time>2011-10-09T10:05:47Z</time>
      </trkpt>
      <trkpt lat="45.42485" lon="0.18163">
        <ele>105.20703125</ele>
        <time>2011-10-09T10:05:45Z</time>
      </trkpt>
      <trkpt lat="45.42488" lon="0.18202">
        <ele>106.6484375</ele>
        <time>2011-10-09T10:05:43Z</time>
      </trkpt>
      <trkpt lat="45.42512" lon="0.18217">
        <ele>105.00390625</ele>
        <time>2011-10-09T10:05:41Z</time>
      </trkpt>
      <trkpt lat="45.42547" lon="0.18235">
        <ele>105.28515625</ele>
        <time>2011-10-09T10:05:39Z</time>
      </trkpt>
      <trkpt lat="45.42585" lon="0.18256">
        <ele>107.3828125</ele>
        <time>2011-10-09T10:05:37Z</time>
      </trkpt>
      <trkpt lat="45.42589" lon="0.18239">
        <ele>107.21484375</ele>
        <time>2011-10-09T10:05:35Z</time>
      </trkpt>
      <trkpt lat="45.42591" lon="0.18229">
        <ele>106.984375</ele>
      </trkpt>
      <trkpt lat="45.42595" lon="0.18217">
        <ele>106.78515625</ele>
      </trkpt>
      <trkpt lat="45.42598" lon="0.1821">
        <ele>106.7109375</ele>
      </trkpt>
      <trkpt lat="45.42606" lon="0.18196">
        <ele>106.921875</ele>
      </trkpt>
      <trkpt lat="45.42615" lon="0.18182">
        <ele>107.15625</ele>
      </trkpt>
      <trkpt lat="45.42622" lon="0.18173">
        <ele>107.34375</ele>
        <time>2011-10-09T10:05:33Z</time>
      </trkpt>
      <trkpt lat="45.42625" lon="0.1817">
        <ele>107.46484375</ele>
        <time>2011-10-09T10:05:31Z</time>
      </trkpt>
      <trkpt lat="45.42644" lon="0.18173">
        <ele>108.421875</ele>
        <time>2011-10-09T10:05:29Z</time>
      </trkpt>
      <trkpt lat="45.42666" lon="0.18168">
        <ele>109.44921875</ele>
        <time>2011-10-09T10:05:27Z</time>
      </trkpt>
      <trkpt lat="45.42683" lon="0.18153">
        <ele>110.6328125</ele>
        <time>2011-10-09T10:05:25Z</time>
      </trkpt>
      <trkpt lat="45.42704" lon="0.18138">
        <ele>113.13671875</ele>
        <time>2011-10-09T10:05:23Z</time>
      </trkpt>
      <trkpt lat="45.42732" lon="0.18114">
        <ele>116.484375</ele>
        <time>2011-10-09T10:05:21Z</time>
      </trkpt>
      <trkpt lat="45.42767" lon="0.18087">
        <ele>120.70703125</ele>
        <time>2011-10-09T10:05:19Z</time>
      </trkpt>
      <trkpt lat="45.42803" lon="0.18056">
        <ele>124.6484375</ele>
        <time>2011-10-09T10:05:17Z</time>
      </trkpt>
      <trkpt lat="45.4284" lon="0.18023">
        <ele>128.91015625</ele>
        <time>2011-10-09T10:05:16Z</time>
      </trkpt>
      <trkpt lat="45.42867" lon="0.18">
        <ele>131.6875</ele>
        <time>2011-10-09T10:05:15Z</time>
      </trkpt>
      <trkpt lat="45.42878" lon="0.17986">
        <ele>132.98046875</ele>
      </trkpt>
      <trkpt lat="45.42879" lon="0.17977">
        <ele>133.34765625</ele>
      </trkpt>
      <trkpt lat="45.42886" lon="0.17971">
        <ele>134.0390625</ele>
      </trkpt>
      <trkpt lat="45.42919" lon="0.17975">
        <ele>136.578125</ele>
      </trkpt>
      <trkpt lat="45.42944" lon="0.17962">
        <ele>139.546875</ele>
      </trkpt>
      <trkpt lat="45.42965" lon="0.17951">
        <ele>142.23046875</ele>
      </trkpt>
      <trkpt lat="45.42986" lon="0.17961">
        <ele>143.90234375</ele>
      </trkpt>
      <trkpt lat="45.43008" lon="0.17968">
        <ele>145.98046875</ele>
      </trkpt>
      <trkpt lat="45.43049" lon="0.17982">
        <ele>150.08984375</ele>
      </trkpt>
      <trkpt lat="45.43093" lon="0.17997">
        <ele>155.27734375</ele>
      </trkpt>
      <trkpt lat="45.43131" lon="0.18007">
        <ele>159.48828125</ele>
      </trkpt>
      <trkpt lat="45.43167" lon="0.18012">
        <ele>161.34375</ele>
      </trkpt>
      <trkpt lat="45.43177" lon="0.18012">
        <ele>161.80859375</ele>
      </trkpt>
      <trkpt lat="45.43175" lon="0.17988">
        <ele>160.890625</ele>
      </trkpt>
      <trkpt lat="45.43175" lon="0.17988">
        <ele>160.85546875</ele>
      </trkpt>
      <trkpt lat="45.43173" lon="0.1796">
        <ele>159.3125</ele>
      </trkpt>
      <trkpt lat="45.43177" lon="0.17935">
        <ele>158.01953125</ele>
      </trkpt>
      <trkpt lat="45.43178" lon="0.17913">
        <ele>156.390625</ele>
      </trkpt>
      <trkpt lat="45.43188" lon="0.17883">
        <ele>153.51171875</ele>
      </trkpt>
      <trkpt lat="45.4319" lon="0.17876">
        <ele>152.89453125</ele>
      </trkpt>
      <trkpt lat="45.43201" lon="0.17852">
        <ele>151.1171875</ele>
      </trkpt>
      <trkpt lat="45.43207" lon="0.17838">
        <ele>149.9375</ele>
      </trkpt>
      <trkpt lat="45.43225" lon="0.17807">
        <ele>147.37109375</ele>
      </trkpt>
      <trkpt lat="45.4324" lon="0.17779">
        <ele>144.62890625</ele>
      </trkpt>
      <trkpt lat="45.43252" lon="0.17757">
        <ele>141.875</ele>
      </trkpt>
      <trkpt lat="45.43267" lon="0.17735">
        <ele>139.1953125</ele>
      </trkpt>
      <trkpt lat="45.43277" lon="0.17718">
        <ele>137.6875</ele>
      </trkpt>
      <trkpt lat="45.43284" lon="0.17707">
        <ele>136.6875</ele>
      </trkpt>
      <trkpt lat="45.4329" lon="0.17677">
        <ele>136.25</ele>
      </trkpt>
      <trkpt lat="45.43302" lon="0.17648">
        <ele>134.9921875</ele>
      </trkpt>
      <trkpt lat="45.4331" lon="0.17629">
        <ele>133.796875</ele>
      </trkpt>
      <trkpt lat="45.43317" lon="0.17613">
        <ele>132.9375</ele>
      </trkpt>
      <trkpt lat="45.43331" lon="0.17586">
        <ele>131.4375</ele>
      </trkpt>
      <trkpt lat="45.43337" lon="0.17572">
        <ele>130.75390625</ele>
      </trkpt>
      <trkpt lat="45.43346" lon="0.17557">
        <ele>130.01171875</ele>
      </trkpt>
      <trkpt lat="45.43377" lon="0.17504">
        <ele>126.859375</ele>
      </trkpt>
      <trkpt lat="45.43388" lon="0.17482">
        <ele>125.87890625</ele>
      </trkpt>
      <trkpt lat="45.43394" lon="0.17473">
        <ele>125.421875</ele>
      </trkpt>
      <trkpt lat="45.43401" lon="0.17457">
        <ele>124.59375</ele>
      </trkpt>
      <trkpt lat="45.43405" lon="0.17448">
        <ele>123.98828125</ele>
      </trkpt>
      <trkpt lat="45.43406" lon="0.17442">
        <ele>123.65625</ele>
      </trkpt>
      <trkpt lat="45.43411" lon="0.17445">
        <ele>123.3203125</ele>
      </trkpt>
      <trkpt lat="45.43421" lon="0.17445">
        <ele>122.484375</ele>
      </trkpt>
      <trkpt lat="45.43424" lon="0.17444">
        <ele>122.15625</ele>
      </trkpt>
      <trkpt lat="45.4343" lon="0.17446">
        <ele>121.7109375</ele>
      </trkpt>
      <trkpt lat="45.43432" lon="0.17448">
        <ele>121.6640625</ele>
      </trkpt>
      <trkpt lat="45.43439" lon="0.17458">
        <ele>121.56640625</ele>
      </trkpt>
      <trkpt lat="45.43452" lon="0.17479">
        <ele>121.5703125</ele>
      </trkpt>
      <trkpt lat="45.43474" lon="0.17516">
        <ele>119.21484375</ele>
      </trkpt>
      <trkpt lat="45.43492" lon="0.17542">
        <ele>116.94921875</ele>
      </trkpt>
      <trkpt lat="45.43506" lon="0.17566">
        <ele>113.875</ele>
      </trkpt>
      <trkpt lat="45.43534" lon="0.17608">
        <ele>109.76171875</ele>
      </trkpt>
      <trkpt lat="45.43544" lon="0.17623">
        <ele>110.359375</ele>
      </trkpt>
      <trkpt lat="45.43548" lon="0.17629">
        <ele>110.6328125</ele>
      </trkpt>
      <trkpt lat="45.43552" lon="0.17632">
        <ele>110.82421875</ele>
      </trkpt>
      <trkpt lat="45.43527" lon="0.17649">
        <ele>112.59765625</ele>
      </trkpt>
      <trkpt lat="45.43506" lon="0.17664">
        <ele>113.8359375</ele>
      </trkpt>
      <trkpt lat="45.43488" lon="0.17677">
        <ele>115.2265625</ele>
      </trkpt>
      <trkpt lat="45.43476" lon="0.17685">
        <ele>115.890625</ele>
      </trkpt>
      <trkpt lat="45.43469" lon="0.17694">
        <ele>116.390625</ele>
      </trkpt>
      <trkpt lat="45.43464" lon="0.177">
        <ele>116.6484375</ele>
      </trkpt>
      <trkpt lat="45.4346" lon="0.17712">
        <ele>117.2265625</ele>
      </trkpt>
      <trkpt lat="45.43459" lon="0.17716">
        <ele>117.69140625</ele>
      </trkpt>
      <trkpt lat="45.4346" lon="0.17723">
        <ele>118.765625</ele>
      </trkpt>
      <trkpt lat="45.4346" lon="0.17729">
        <ele>119.6171875</ele>
      </trkpt>
      <trkpt lat="45.4346" lon="0.17734">
        <ele>120.3203125</ele>
      </trkpt>
      <trkpt lat="45.43461" lon="0.1774">
        <ele>121.2109375</ele>
      </trkpt>
      <trkpt lat="45.43464" lon="0.17748">
        <ele>122.33203125</ele>
      </trkpt>
      <trkpt lat="45.43466" lon="0.17753">
        <ele>123.00390625</ele>
      </trkpt>
      <trkpt lat="45.43474" lon="0.17761">
        <ele>124.21875</ele>
      </trkpt>
      <trkpt lat="45.4348" lon="0.17765">
        <ele>124.7578125</ele>
      </trkpt>
      <trkpt lat="45.43491" lon="0.17767">
        <ele>125.00390625</ele>
      </trkpt>
      <trkpt lat="45.43502" lon="0.17766">
        <ele>124.83984375</ele>
      </trkpt>
      <trkpt lat="45.43523" lon="0.17761">
        <ele>123.8125</ele>
      </trkpt>
      <trkpt lat="45.43535" lon="0.17758">
        <ele>123.1953125</ele>
      </trkpt>
      <trkpt lat="45.43553" lon="0.17761">
        <ele>122.91796875</ele>
      </trkpt>
      <trkpt lat="45.4356" lon="0.17767">
        <ele>123.15625</ele>
      </trkpt>
      <trkpt lat="45.4357" lon="0.17776">
        <ele>123.140625</ele>
      </trkpt>
      <trkpt lat="45.43579" lon="0.17794">
        <ele>123.20703125</ele>
      </trkpt>
      <trkpt lat="45.43586" lon="0.17811">
        <ele>123.2265625</ele>
      </trkpt>
      <trkpt lat="45.43591" lon="0.17826">
        <ele>123.1640625</ele>
      </trkpt>
      <trkpt lat="45.43594" lon="0.1784">
        <ele>122.9140625</ele>
      </trkpt>
      <trkpt lat="45.43596" lon="0.17855">
        <ele>122.703125</ele>
      </trkpt>
      <trkpt lat="45.43598" lon="0.17866">
        <ele>122.46484375</ele>
      </trkpt>
      <trkpt lat="45.43602" lon="0.179">
        <ele>121.99609375</ele>
      </trkpt>
      <trkpt lat="45.43604" lon="0.17913">
        <ele>121.74609375</ele>
      </trkpt>
      <trkpt lat="45.4361" lon="0.17965">
        <ele>120.4609375</ele>
      </trkpt>
      <trkpt lat="45.43613" lon="0.17982">
        <ele>119.81640625</ele>
      </trkpt>
      <trkpt lat="45.43615" lon="0.17997">
        <ele>119.3203125</ele>
      </trkpt>
      <trkpt lat="45.43615" lon="0.18006">
        <ele>119.171875</ele>
      </trkpt>
      <trkpt lat="45.43614" lon="0.18017">
        <ele>119.0703125</ele>
      </trkpt>
      <trkpt lat="45.43606" lon="0.18042">
        <ele>119.0859375</ele>
      </trkpt>
      <trkpt lat="45.43603" lon="0.18056">
        <ele>120.03515625</ele>
      </trkpt>
      <trkpt lat="45.43602" lon="0.18067">
        <ele>120.84375</ele>
      </trkpt>
      <trkpt lat="45.43602" lon="0.18075">
        <ele>121.34375</ele>
      </trkpt>
      <trkpt lat="45.43603" lon="0.18084">
        <ele>121.9296875</ele>
      </trkpt>
      <trkpt lat="45.43609" lon="0.18099">
        <ele>122.91015625</ele>
      </trkpt>
      <trkpt lat="45.43613" lon="0.18111">
        <ele>124.12109375</ele>
      </trkpt>
      <trkpt lat="45.43622" lon="0.18126">
        <ele>125.921875</ele>
      </trkpt>
      <trkpt lat="45.4363" lon="0.18135">
        <ele>127.3828125</ele>
      </trkpt>
      <trkpt lat="45.43644" lon="0.1814">
        <ele>128.70703125</ele>
      </trkpt>
      <trkpt lat="45.43652" lon="0.1814">
        <ele>129.1796875</ele>
      </trkpt>
      <trkpt lat="45.43657" lon="0.18139">
        <ele>129.38671875</ele>
      </trkpt>
      <trkpt lat="45.43663" lon="0.18135">
        <ele>129.4140625</ele>
      </trkpt>
      <trkpt lat="45.43704" lon="0.18104">
        <ele>129.32421875</ele>
      </trkpt>
      <trkpt lat="45.43713" lon="0.18097">
        <ele>129.2421875</ele>
      </trkpt>
      <trkpt lat="45.43718" lon="0.18094">
        <ele>129.171875</ele>
      </trkpt>
      <trkpt lat="45.43727" lon="0.18088">
        <ele>129.13671875</ele>
      </trkpt>
      <trkpt lat="45.43736" lon="0.18083">
        <ele>128.92578125</ele>
      </trkpt>
      <trkpt lat="45.43749" lon="0.18082">
        <ele>128.94921875</ele>
      </trkpt>
      <trkpt lat="45.43761" lon="0.1808">
        <ele>128.8828125</ele>
      </trkpt>
      <trkpt lat="45.43772" lon="0.18077">
        <ele>128.69140625</ele>
      </trkpt>
      <trkpt lat="45.43776" lon="0.18091">
        <ele>130.1328125</ele>
      </trkpt>
      <trkpt lat="45.43781" lon="0.18111">
        <ele>131.59765625</ele>
      </trkpt>
      <trkpt lat="45.43784" lon="0.18123">
        <ele>132.21484375</ele>
      </trkpt>
      <trkpt lat="45.43788" lon="0.18134">
        <ele>132.83984375</ele>
      </trkpt>
      <trkpt lat="45.43792" lon="0.18145">
        <ele>133.36328125</ele>
      </trkpt>
      <trkpt lat="45.43805" lon="0.18171">
        <ele>134.21875</ele>
      </trkpt>
      <trkpt lat="45.43822" lon="0.18202">
        <ele>135.0546875</ele>
      </trkpt>
      <trkpt lat="45.4381" lon="0.18216">
        <ele>135.640625</ele>
      </trkpt>
      <trkpt lat="45.43799" lon="0.18229">
        <ele>136.05078125</ele>
      </trkpt>
      <trkpt lat="45.43794" lon="0.18231">
        <ele>136.1796875</ele>
      </trkpt>
      <trkpt lat="45.43795" lon="0.18233">
        <ele>136.20703125</ele>
        <time>2011-10-09T09:56:29Z</time>
      </trkpt>
      <trkpt lat="45.43799" lon="0.18246">
        <ele>136.2734375</ele>
        <time>2011-10-09T09:56:26Z</time>
      </trkpt>
      <trkpt lat="45.43812" lon="0.18263">
        <ele>136.05859375</ele>
        <time>2011-10-09T09:56:23Z</time>
      </trkpt>
      <trkpt lat="45.4383" lon="0.1829">
        <ele>135.46875</ele>
        <time>2011-10-09T09:56:20Z</time>
      </trkpt>
      <trkpt lat="45.43836" lon="0.183">
        <ele>135.24609375</ele>
        <time>2011-10-09T09:56:17Z</time>
      </trkpt>
      <trkpt lat="45.43849" lon="0.18319">
        <ele>134.7578125</ele>
        <time>2011-10-09T09:56:14Z</time>
      </trkpt>
      <trkpt lat="45.4386" lon="0.18334">
        <ele>134.16015625</ele>
        <time>2011-10-09T09:56:11Z</time>
      </trkpt>
      <trkpt lat="45.43872" lon="0.1835">
        <ele>133.4453125</ele>
        <time>2011-10-09T09:56:08Z</time>
      </trkpt>
      <trkpt lat="45.43882" lon="0.18365">
        <ele>132.79296875</ele>
        <time>2011-10-09T09:56:05Z</time>
      </trkpt>
      <trkpt lat="45.43893" lon="0.1838">
        <ele>132.1875</ele>
        <time>2011-10-09T09:56:02Z</time>
      </trkpt>
      <trkpt lat="45.43904" lon="0.18391">
        <ele>131.67578125</ele>
        <time>2011-10-09T09:55:59Z</time>
      </trkpt>
      <trkpt lat="45.43913" lon="0.18403">
        <ele>131.09765625</ele>
        <time>2011-10-09T09:55:56Z</time>
      </trkpt>
      <trkpt lat="45.43933" lon="0.18399">
        <ele>129.90625</ele>
        <time>2011-10-09T09:55:53Z</time>
      </trkpt>
      <trkpt lat="45.43954" lon="0.18397">
        <ele>128.65625</ele>
        <time>2011-10-09T09:55:50Z</time>
      </trkpt>
      <trkpt lat="45.43965" lon="0.18396">
        <ele>127.890625</ele>
        <time>2011-10-09T09:55:47Z</time>
      </trkpt>
      <trkpt lat="45.43975" lon="0.184">
        <ele>127.08203125</ele>
        <time>2011-10-09T09:55:44Z</time>
      </trkpt>
      <trkpt lat="45.43986" lon="0.18415">
        <ele>126.0078125</ele>
        <time>2011-10-09T09:55:41Z</time>
      </trkpt>
      <trkpt lat="45.44026" lon="0.18456">
        <ele>122.8046875</ele>
      </trkpt>
      <trkpt lat="45.44056" lon="0.18472">
        <ele>120.63671875</ele>
      </trkpt>
      <trkpt lat="45.44073" lon="0.18472">
        <ele>119.140625</ele>
      </trkpt>
      <trkpt lat="45.44157" lon="0.18522">
        <ele>108.93359375</ele>
      </trkpt>
      <trkpt lat="45.44166" lon="0.18537">
        <ele>107.85546875</ele>
      </trkpt>
      <trkpt lat="45.44172" lon="0.18571">
        <ele>106.76953125</ele>
      </trkpt>
      <trkpt lat="45.44179" lon="0.18577">
        <ele>106.5078125</ele>
      </trkpt>
      <trkpt lat="45.44189" lon="0.1858">
        <ele>106.83203125</ele>
      </trkpt>
      <trkpt lat="45.44195" lon="0.18584">
        <ele>107.04296875</ele>
      </trkpt>
      <trkpt lat="45.442" lon="0.18587">
        <ele>107.2421875</ele>
      </trkpt>
      <trkpt lat="45.4424" lon="0.18628">
        <ele>111.36328125</ele>
      </trkpt>
      <trkpt lat="45.44268" lon="0.18657">
        <ele>116.1015625</ele>
      </trkpt>
      <trkpt lat="45.44289" lon="0.18688">
        <ele>119.8359375</ele>
      </trkpt>
      <trkpt lat="45.4431" lon="0.18715">
        <ele>122.04296875</ele>
      </trkpt>
      <trkpt lat="45.4432" lon="0.18721">
        <ele>122.58203125</ele>
      </trkpt>
      <trkpt lat="45.44335" lon="0.1874">
        <ele>123.47265625</ele>
      </trkpt>
      <trkpt lat="45.44348" lon="0.18756">
        <ele>123.41796875</ele>
      </trkpt>
      <trkpt lat="45.44357" lon="0.18766">
        <ele>122.91796875</ele>
        <time>2011-10-09T09:46:49Z</time>
      </trkpt>
      <trkpt lat="45.44399" lon="0.1879">
        <ele>120.79296875</ele>
        <time>2011-10-09T09:46:46Z</time>
      </trkpt>
      <trkpt lat="45.44463" lon="0.18831">
        <ele>120.00390625</ele>
        <time>2011-10-09T09:46:43Z</time>
      </trkpt>
      <trkpt lat="45.4444" lon="0.18939">
        <ele>125.76171875</ele>
        <time>2011-10-09T09:46:40Z</time>
      </trkpt>
      <trkpt lat="45.44438" lon="0.18963">
        <ele>126.86328125</ele>
        <time>2011-10-09T09:46:36Z</time>
      </trkpt>
      <trkpt lat="45.44447" lon="0.18975">
        <ele>127.31640625</ele>
        <time>2011-10-09T09:46:32Z</time>
      </trkpt>
      <trkpt lat="45.44456" lon="0.18982">
        <ele>127.74609375</ele>
        <time>2011-10-09T09:46:28Z</time>
      </trkpt>
      <trkpt lat="45.44469" lon="0.18992">
        <ele>128.66796875</ele>
        <time>2011-10-09T09:46:22Z</time>
      </trkpt>
      <trkpt lat="45.44482" lon="0.18997">
        <ele>129.24609375</ele>
        <time>2011-10-09T09:46:15Z</time>
      </trkpt>
      <trkpt lat="45.44493" lon="0.18996">
        <ele>129.66015625</ele>
        <time>2011-10-09T09:46:10Z</time>
      </trkpt>
      <trkpt lat="45.44509" lon="0.18998">
        <ele>130.3515625</ele>
        <time>2011-10-09T09:46:05Z</time>
      </trkpt>
      <trkpt lat="45.44521" lon="0.18999">
        <ele>130.59375</ele>
        <time>2011-10-09T09:46:01Z</time>
      </trkpt>
      <trkpt lat="45.44526" lon="0.18997">
        <ele>130.61328125</ele>
        <time>2011-10-09T09:45:57Z</time>
      </trkpt>
      <trkpt lat="45.44531" lon="0.18999">
        <ele>130.765625</ele>
        <time>2011-10-09T09:45:53Z</time>
      </trkpt>
      <trkpt lat="45.44547" lon="0.19022">
        <ele>131.8828125</ele>
        <time>2011-10-09T09:45:49Z</time>
      </trkpt>
      <trkpt lat="45.44551" lon="0.19026">
        <ele>132.09765625</ele>
        <time>2011-10-09T09:45:45Z</time>
      </trkpt>
      <trkpt lat="45.44549" lon="0.19058">
        <ele>133.4765625</ele>
        <time>2011-10-09T09:45:41Z</time>
      </trkpt>
      <trkpt lat="45.44553" lon="0.19063">
        <ele>133.7890625</ele>
        <time>2011-10-09T09:45:37Z</time>
      </trkpt>
      <trkpt lat="45.44566" lon="0.19071">
        <ele>134.3984375</ele>
        <time>2011-10-09T09:45:33Z</time>
      </trkpt>
      <trkpt lat="45.4457" lon="0.19075">
        <ele>134.34375</ele>
        <time>2011-10-09T09:45:29Z</time>
      </trkpt>
      <trkpt lat="45.44569" lon="0.19085">
        <ele>134.9765625</ele>
        <time>2011-10-09T09:45:26Z</time>
      </trkpt>
      <trkpt lat="45.4456" lon="0.19103">
        <ele>136.20703125</ele>
        <time>2011-10-09T09:45:23Z</time>
      </trkpt>
      <trkpt lat="45.44558" lon="0.19115">
        <ele>136.97265625</ele>
        <time>2011-10-09T09:45:20Z</time>
      </trkpt>
      <trkpt lat="45.4456" lon="0.19122">
        <ele>137.56640625</ele>
        <time>2011-10-09T09:45:17Z</time>
      </trkpt>
      <trkpt lat="45.44568" lon="0.1913">
        <ele>138.12109375</ele>
        <time>2011-10-09T09:45:15Z</time>
      </trkpt>
      <trkpt lat="45.44583" lon="0.19141">
        <ele>138.4765625</ele>
        <time>2011-10-09T09:45:13Z</time>
      </trkpt>
      <trkpt lat="45.44603" lon="0.19154">
        <ele>139.20703125</ele>
        <time>2011-10-09T09:45:11Z</time>
      </trkpt>
      <trkpt lat="45.44627" lon="0.19169">
        <ele>140.87109375</ele>
        <time>2011-10-09T09:45:09Z</time>
      </trkpt>
      <trkpt lat="45.44648" lon="0.19182">
        <ele>142.703125</ele>
        <time>2011-10-09T09:45:07Z</time>
      </trkpt>
      <trkpt lat="45.44665" lon="0.19192">
        <ele>143.875</ele>
        <time>2011-10-09T09:45:03Z</time>
      </trkpt>
      <trkpt lat="45.44723" lon="0.19227">
        <ele>146.49609375</ele>
        <time>2011-10-09T09:45:02Z</time>
      </trkpt>
      <trkpt lat="45.44739" lon="0.19236">
        <ele>145.90625</ele>
        <time>2011-10-09T09:44:51Z</time>
      </trkpt>
      <trkpt lat="45.44745" lon="0.1924">
        <ele>145.55859375</ele>
        <time>2011-10-09T09:44:48Z</time>
      </trkpt>
      <trkpt lat="45.44737" lon="0.19254">
        <ele>146.34375</ele>
        <time>2011-10-09T09:44:45Z</time>
      </trkpt>
      <trkpt lat="45.44727" lon="0.19279">
        <ele>147.3828125</ele>
        <time>2011-10-09T09:44:43Z</time>
      </trkpt>
      <trkpt lat="45.44721" lon="0.19334">
        <ele>147.46484375</ele>
        <time>2011-10-09T09:44:41Z</time>
      </trkpt>
      <trkpt lat="45.44721" lon="0.19347">
        <ele>146.765625</ele>
        <time>2011-10-09T09:44:39Z</time>
      </trkpt>
      <trkpt lat="45.44722" lon="0.19368">
        <ele>145.578125</ele>
        <time>2011-10-09T09:44:37Z</time>
      </trkpt>
      <trkpt lat="45.44717" lon="0.19383">
        <ele>145.5390625</ele>
        <time>2011-10-09T09:44:27Z</time>
      </trkpt>
      <trkpt lat="45.44704" lon="0.19413">
        <ele>146.17578125</ele>
        <time>2011-10-09T09:44:24Z</time>
      </trkpt>
      <trkpt lat="45.44696" lon="0.19431">
        <ele>146.453125</ele>
        <time>2011-10-09T09:44:21Z</time>
      </trkpt>
      <trkpt lat="45.44698" lon="0.19449">
        <ele>146.03125</ele>
        <time>2011-10-09T09:44:18Z</time>
      </trkpt>
      <trkpt lat="45.447" lon="0.19505">
        <ele>144.9140625</ele>
        <time>2011-10-09T09:44:15Z</time>
      </trkpt>
      <trkpt lat="45.44698" lon="0.19528">
        <ele>144.4296875</ele>
        <time>2011-10-09T09:44:11Z</time>
      </trkpt>
      <trkpt lat="45.44695" lon="0.19547">
        <ele>144.125</ele>
        <time>2011-10-09T09:43:51Z</time>
      </trkpt>
      <trkpt lat="45.4468" lon="0.19617">
        <ele>142.69140625</ele>
        <time>2011-10-09T09:43:48Z</time>
      </trkpt>
      <trkpt lat="45.44678" lon="0.19628">
        <ele>142.28125</ele>
        <time>2011-10-09T09:43:20Z</time>
      </trkpt>
      <trkpt lat="45.44667" lon="0.19734">
        <ele>139.78515625</ele>
        <time>2011-10-09T09:43:17Z</time>
      </trkpt>
      <trkpt lat="45.44664" lon="0.19753">
        <ele>140.078125</ele>
        <time>2011-10-09T09:43:14Z</time>
      </trkpt>
      <trkpt lat="45.4466" lon="0.19794">
        <ele>141.45703125</ele>
        <time>2011-10-09T09:43:11Z</time>
      </trkpt>
      <trkpt lat="45.44662" lon="0.19811">
        <ele>142.05078125</ele>
        <time>2011-10-09T09:42:59Z</time>
      </trkpt>
      <trkpt lat="45.44671" lon="0.19828">
        <ele>142.39453125</ele>
        <time>2011-10-09T09:42:57Z</time>
      </trkpt>
      <trkpt lat="45.44682" lon="0.19838">
        <ele>142.90234375</ele>
        <time>2011-10-09T09:42:55Z</time>
      </trkpt>
      <trkpt lat="45.44697" lon="0.19849">
        <ele>144.1171875</ele>
        <time>2011-10-09T09:42:53Z</time>
      </trkpt>
      <trkpt lat="45.44712" lon="0.19858">
        <ele>145.5</ele>
        <time>2011-10-09T09:42:51Z</time>
      </trkpt>
      <trkpt lat="45.44728" lon="0.19867">
        <ele>147.046875</ele>
        <time>2011-10-09T09:42:49Z</time>
      </trkpt>
      <trkpt lat="45.44741" lon="0.19876">
        <ele>148.13671875</ele>
        <time>2011-10-09T09:42:47Z</time>
      </trkpt>
      <trkpt lat="45.44752" lon="0.19885">
        <ele>148.68359375</ele>
        <time>2011-10-09T09:42:45Z</time>
      </trkpt>
      <trkpt lat="45.44761" lon="0.19896">
        <ele>149.21875</ele>
        <time>2011-10-09T09:42:43Z</time>
      </trkpt>
      <trkpt lat="45.44769" lon="0.19905">
        <ele>149.6953125</ele>
        <time>2011-10-09T09:42:41Z</time>
      </trkpt>
      <trkpt lat="45.44773" lon="0.19913">
        <ele>150.0546875</ele>
        <time>2011-10-09T09:42:39Z</time>
      </trkpt>
      <trkpt lat="45.44773" lon="0.19929">
        <ele>150.65234375</ele>
        <time>2011-10-09T09:42:36Z</time>
      </trkpt>
      <trkpt lat="45.44773" lon="0.19951">
        <ele>150.91796875</ele>
        <time>2011-10-09T09:42:33Z</time>
      </trkpt>
      <trkpt lat="45.44778" lon="0.19972">
        <ele>151.06640625</ele>
        <time>2011-10-09T09:42:30Z</time>
      </trkpt>
      <trkpt lat="45.44785" lon="0.19987">
        <ele>151.02734375</ele>
        <time>2011-10-09T09:42:27Z</time>
      </trkpt>
      <trkpt lat="45.44792" lon="0.19999">
        <ele>150.65625</ele>
        <time>2011-10-09T09:42:24Z</time>
      </trkpt>
      <trkpt lat="45.44799" lon="0.20012">
        <ele>150.1328125</ele>
        <time>2011-10-09T09:42:20Z</time>
      </trkpt>
      <trkpt lat="45.44804" lon="0.20023">
        <ele>149.640625</ele>
        <time>2011-10-09T09:42:16Z</time>
      </trkpt>
      <trkpt lat="45.44814" lon="0.20041">
        <ele>148.5859375</ele>
        <time>2011-10-09T09:42:11Z</time>
      </trkpt>
      <trkpt lat="45.44818" lon="0.20046">
        <ele>148.15625</ele>
        <time>2011-10-09T09:42:06Z</time>
      </trkpt>
      <trkpt lat="45.44825" lon="0.20059">
        <ele>147.06640625</ele>
        <time>2011-10-09T09:42:01Z</time>
      </trkpt>
      <trkpt lat="45.44831" lon="0.20068">
        <ele>146.24609375</ele>
        <time>2011-10-09T09:41:56Z</time>
      </trkpt>
      <trkpt lat="45.44839" lon="0.20078">
        <ele>145.25390625</ele>
        <time>2011-10-09T09:41:51Z</time>
      </trkpt>
      <trkpt lat="45.44848" lon="0.20086">
        <ele>144.48046875</ele>
        <time>2011-10-09T09:41:46Z</time>
      </trkpt>
      <trkpt lat="45.44854" lon="0.20086">
        <ele>144.23828125</ele>
        <time>2011-10-09T09:41:40Z</time>
      </trkpt>
      <trkpt lat="45.44865" lon="0.20089">
        <ele>143.71484375</ele>
        <time>2011-10-09T09:41:35Z</time>
      </trkpt>
      <trkpt lat="45.44877" lon="0.20089">
        <ele>143.26171875</ele>
        <time>2011-10-09T09:41:29Z</time>
      </trkpt>
      <trkpt lat="45.44887" lon="0.2009">
        <ele>142.86328125</ele>
        <time>2011-10-09T09:41:23Z</time>
      </trkpt>
      <trkpt lat="45.44912" lon="0.20092">
        <ele>141.5703125</ele>
      </trkpt>
      <trkpt lat="45.4492" lon="0.20093">
        <ele>141.03125</ele>
      </trkpt>
      <trkpt lat="45.44934" lon="0.201">
        <ele>139.98828125</ele>
      </trkpt>
      <trkpt lat="45.44976" lon="0.20106">
        <ele>137.046875</ele>
      </trkpt>
      <trkpt lat="45.44988" lon="0.20111">
        <ele>135.9296875</ele>
      </trkpt>
      <trkpt lat="45.45005" lon="0.20122">
        <ele>134.0703125</ele>
      </trkpt>
      <trkpt lat="45.45029" lon="0.20142">
        <ele>130.81640625</ele>
      </trkpt>
      <trkpt lat="45.45066" lon="0.20163">
        <ele>126.5703125</ele>
      </trkpt>
      <trkpt lat="45.451" lon="0.20188">
        <ele>123.98046875</ele>
      </trkpt>
      <trkpt lat="45.45111" lon="0.20198">
        <ele>123.375</ele>
      </trkpt>
      <trkpt lat="45.45116" lon="0.20203">
        <ele>123.12890625</ele>
        <time>2011-10-09T09:39:36Z</time>
      </trkpt>
      <trkpt lat="45.4512" lon="0.20209">
        <ele>123</ele>
        <time>2011-10-09T09:39:35Z</time>
      </trkpt>
      <trkpt lat="45.45126" lon="0.20223">
        <ele>123.26171875</ele>
        <time>2011-10-09T09:39:33Z</time>
      </trkpt>
      <trkpt lat="45.45133" lon="0.20237">
        <ele>123.6171875</ele>
        <time>2011-10-09T09:39:31Z</time>
      </trkpt>
      <trkpt lat="45.45141" lon="0.20252">
        <ele>124.0546875</ele>
        <time>2011-10-09T09:39:29Z</time>
      </trkpt>
      <trkpt lat="45.45149" lon="0.20268">
        <ele>124.59765625</ele>
        <time>2011-10-09T09:39:27Z</time>
      </trkpt>
      <trkpt lat="45.45157" lon="0.20283">
        <ele>125.203125</ele>
        <time>2011-10-09T09:39:25Z</time>
      </trkpt>
      <trkpt lat="45.45168" lon="0.20299">
        <ele>125.625</ele>
        <time>2011-10-09T09:39:23Z</time>
      </trkpt>
      <trkpt lat="45.45179" lon="0.20314">
        <ele>126.2890625</ele>
        <time>2011-10-09T09:39:21Z</time>
      </trkpt>
      <trkpt lat="45.45195" lon="0.20326">
        <ele>127.83203125</ele>
        <time>2011-10-09T09:39:19Z</time>
      </trkpt>
      <trkpt lat="45.45212" lon="0.20334">
        <ele>129.15625</ele>
        <time>2011-10-09T09:39:17Z</time>
      </trkpt>
      <trkpt lat="45.4522" lon="0.20339">
        <ele>129.66796875</ele>
        <time>2011-10-09T09:39:16Z</time>
      </trkpt>
      <trkpt lat="45.45229" lon="0.20344">
        <ele>130.0390625</ele>
        <time>2011-10-09T09:39:15Z</time>
      </trkpt>
      <trkpt lat="45.45245" lon="0.20354">
        <ele>130.65234375</ele>
        <time>2011-10-09T09:39:13Z</time>
      </trkpt>
      <trkpt lat="45.4526" lon="0.20362">
        <ele>130.9921875</ele>
        <time>2011-10-09T09:39:11Z</time>
      </trkpt>
      <trkpt lat="45.45274" lon="0.20369">
        <ele>131.1328125</ele>
        <time>2011-10-09T09:39:09Z</time>
      </trkpt>
      <trkpt lat="45.45286" lon="0.20375">
        <ele>131.17578125</ele>
        <time>2011-10-09T09:39:07Z</time>
      </trkpt>
      <trkpt lat="45.45297" lon="0.20376">
        <ele>131.40234375</ele>
        <time>2011-10-09T09:39:05Z</time>
      </trkpt>
      <trkpt lat="45.45304" lon="0.20365">
        <ele>132.52734375</ele>
        <time>2011-10-09T09:39:02Z</time>
      </trkpt>
      <trkpt lat="45.453" lon="0.2035">
        <ele>133.68359375</ele>
        <time>2011-10-09T09:39:00Z</time>
      </trkpt>
      <trkpt lat="45.45297" lon="0.20338">
        <ele>134.5859375</ele>
        <time>2011-10-09T09:38:59Z</time>
      </trkpt>
      <trkpt lat="45.45293" lon="0.20325">
        <ele>135.6640625</ele>
        <time>2011-10-09T09:38:58Z</time>
      </trkpt>
      <trkpt lat="45.4529" lon="0.20312">
        <ele>136.98828125</ele>
        <time>2011-10-09T09:38:57Z</time>
      </trkpt>
      <trkpt lat="45.45288" lon="0.20287">
        <ele>139.72265625</ele>
        <time>2011-10-09T09:38:55Z</time>
      </trkpt>
      <trkpt lat="45.45294" lon="0.20266">
        <ele>142.17578125</ele>
        <time>2011-10-09T09:38:53Z</time>
      </trkpt>
      <trkpt lat="45.45308" lon="0.20251">
        <ele>143.6796875</ele>
        <time>2011-10-09T09:38:51Z</time>
      </trkpt>
      <trkpt lat="45.45321" lon="0.2024">
        <ele>145.3828125</ele>
        <time>2011-10-09T09:38:49Z</time>
      </trkpt>
      <trkpt lat="45.45336" lon="0.20229">
        <ele>147.44140625</ele>
        <time>2011-10-09T09:38:47Z</time>
      </trkpt>
      <trkpt lat="45.45348" lon="0.20214">
        <ele>149.57421875</ele>
        <time>2011-10-09T09:38:45Z</time>
      </trkpt>
      <trkpt lat="45.45356" lon="0.20196">
        <ele>150.95703125</ele>
        <time>2011-10-09T09:38:43Z</time>
      </trkpt>
      <trkpt lat="45.45364" lon="0.20177">
        <ele>152.47265625</ele>
        <time>2011-10-09T09:38:41Z</time>
      </trkpt>
      <trkpt lat="45.45369" lon="0.20166">
        <ele>153.58984375</ele>
        <time>2011-10-09T09:38:39Z</time>
      </trkpt>
      <trkpt lat="45.45381" lon="0.20159">
        <ele>154.67578125</ele>
        <time>2011-10-09T09:38:37Z</time>
      </trkpt>
      <trkpt lat="45.45393" lon="0.20154">
        <ele>155.78125</ele>
        <time>2011-10-09T09:38:35Z</time>
      </trkpt>
      <trkpt lat="45.45406" lon="0.20154">
        <ele>156.48828125</ele>
        <time>2011-10-09T09:38:33Z</time>
      </trkpt>
      <trkpt lat="45.45418" lon="0.20154">
        <ele>157.15234375</ele>
        <time>2011-10-09T09:38:31Z</time>
      </trkpt>
      <trkpt lat="45.4543" lon="0.20154">
        <ele>157.80859375</ele>
        <time>2011-10-09T09:38:29Z</time>
      </trkpt>
      <trkpt lat="45.45443" lon="0.20153">
        <ele>158.47265625</ele>
        <time>2011-10-09T09:38:27Z</time>
      </trkpt>
      <trkpt lat="45.45455" lon="0.20153">
        <ele>159.16796875</ele>
        <time>2011-10-09T09:38:25Z</time>
      </trkpt>
      <trkpt lat="45.45466" lon="0.20151">
        <ele>160.02734375</ele>
        <time>2011-10-09T09:38:23Z</time>
      </trkpt>
      <trkpt lat="45.45477" lon="0.20146">
        <ele>160.828125</ele>
        <time>2011-10-09T09:38:21Z</time>
      </trkpt>
      <trkpt lat="45.45487" lon="0.2014">
        <ele>161.56640625</ele>
        <time>2011-10-09T09:38:19Z</time>
      </trkpt>
      <trkpt lat="45.45495" lon="0.20132">
        <ele>162.14453125</ele>
        <time>2011-10-09T09:38:17Z</time>
      </trkpt>
      <trkpt lat="45.45501" lon="0.20121">
        <ele>162.57421875</ele>
        <time>2011-10-09T09:38:15Z</time>
      </trkpt>
      <trkpt lat="45.45509" lon="0.20106">
        <ele>163.0390625</ele>
        <time>2011-10-09T09:38:12Z</time>
      </trkpt>
      <trkpt lat="45.45515" lon="0.20096">
        <ele>163.12890625</ele>
        <time>2011-10-09T09:38:10Z</time>
      </trkpt>
      <trkpt lat="45.4552" lon="0.20085">
        <ele>162.98046875</ele>
        <time>2011-10-09T09:38:08Z</time>
      </trkpt>
      <trkpt lat="45.45526" lon="0.20074">
        <ele>162.8828125</ele>
        <time>2011-10-09T09:38:06Z</time>
      </trkpt>
      <trkpt lat="45.45533" lon="0.20064">
        <ele>162.88671875</ele>
        <time>2011-10-09T09:38:04Z</time>
      </trkpt>
      <trkpt lat="45.45539" lon="0.20052">
        <ele>162.8984375</ele>
        <time>2011-10-09T09:38:02Z</time>
      </trkpt>
      <trkpt lat="45.45545" lon="0.20037">
        <ele>162.81640625</ele>
        <time>2011-10-09T09:38:00Z</time>
      </trkpt>
      <trkpt lat="45.45553" lon="0.20024">
        <ele>162.984375</ele>
        <time>2011-10-09T09:37:58Z</time>
      </trkpt>
      <trkpt lat="45.4556" lon="0.20012">
        <ele>163.1640625</ele>
        <time>2011-10-09T09:37:56Z</time>
      </trkpt>
      <trkpt lat="45.45567" lon="0.19999">
        <ele>163.27734375</ele>
        <time>2011-10-09T09:37:54Z</time>
      </trkpt>
      <trkpt lat="45.45575" lon="0.19988">
        <ele>163.203125</ele>
        <time>2011-10-09T09:37:52Z</time>
      </trkpt>
      <trkpt lat="45.45583" lon="0.19977">
        <ele>163.2109375</ele>
        <time>2011-10-09T09:37:50Z</time>
      </trkpt>
      <trkpt lat="45.45591" lon="0.19967">
        <ele>163.29296875</ele>
        <time>2011-10-09T09:37:48Z</time>
      </trkpt>
      <trkpt lat="45.45598" lon="0.19957">
        <ele>163.40625</ele>
        <time>2011-10-09T09:37:46Z</time>
      </trkpt>
      <trkpt lat="45.45605" lon="0.19948">
        <ele>163.55078125</ele>
        <time>2011-10-09T09:37:44Z</time>
      </trkpt>
      <trkpt lat="45.45615" lon="0.19935">
        <ele>163.83984375</ele>
        <time>2011-10-09T09:37:41Z</time>
      </trkpt>
      <trkpt lat="45.45624" lon="0.19923">
        <ele>163.7578125</ele>
        <time>2011-10-09T09:37:38Z</time>
      </trkpt>
      <trkpt lat="45.45634" lon="0.19912">
        <ele>163.47265625</ele>
        <time>2011-10-09T09:37:35Z</time>
      </trkpt>
      <trkpt lat="45.45644" lon="0.19905">
        <ele>163.28515625</ele>
        <time>2011-10-09T09:37:32Z</time>
      </trkpt>
      <trkpt lat="45.45654" lon="0.19901">
        <ele>163.16796875</ele>
        <time>2011-10-09T09:37:29Z</time>
      </trkpt>
      <trkpt lat="45.45664" lon="0.199">
        <ele>163.078125</ele>
        <time>2011-10-09T09:37:26Z</time>
      </trkpt>
      <trkpt lat="45.45675" lon="0.199">
        <ele>163</ele>
        <time>2011-10-09T09:37:23Z</time>
      </trkpt>
      <trkpt lat="45.45685" lon="0.19898">
        <ele>162.80859375</ele>
        <time>2011-10-09T09:37:20Z</time>
      </trkpt>
      <trkpt lat="45.45696" lon="0.19898">
        <ele>162.62109375</ele>
        <time>2011-10-09T09:37:17Z</time>
      </trkpt>
      <trkpt lat="45.45707" lon="0.19897">
        <ele>162.42578125</ele>
        <time>2011-10-09T09:37:14Z</time>
      </trkpt>
      <trkpt lat="45.45717" lon="0.19898">
        <ele>162.234375</ele>
        <time>2011-10-09T09:37:11Z</time>
      </trkpt>
      <trkpt lat="45.45728" lon="0.19904">
        <ele>162.0390625</ele>
        <time>2011-10-09T09:37:07Z</time>
      </trkpt>
      <trkpt lat="45.45736" lon="0.1991">
        <ele>161.6796875</ele>
        <time>2011-10-09T09:37:04Z</time>
      </trkpt>
      <trkpt lat="45.45746" lon="0.19917">
        <ele>161.1796875</ele>
        <time>2011-10-09T09:37:00Z</time>
      </trkpt>
      <trkpt lat="45.45755" lon="0.19924">
        <ele>160.6953125</ele>
        <time>2011-10-09T09:36:56Z</time>
      </trkpt>
      <trkpt lat="45.45763" lon="0.19931">
        <ele>160.23828125</ele>
        <time>2011-10-09T09:36:52Z</time>
      </trkpt>
      <trkpt lat="45.45771" lon="0.19937">
        <ele>159.69140625</ele>
        <time>2011-10-09T09:36:48Z</time>
      </trkpt>
      <trkpt lat="45.45781" lon="0.19945">
        <ele>159.0234375</ele>
        <time>2011-10-09T09:36:43Z</time>
      </trkpt>
      <trkpt lat="45.4579" lon="0.19953">
        <ele>158.30859375</ele>
        <time>2011-10-09T09:36:38Z</time>
      </trkpt>
      <trkpt lat="45.458" lon="0.19961">
        <ele>157.48828125</ele>
        <time>2011-10-09T09:36:33Z</time>
      </trkpt>
      <trkpt lat="45.4581" lon="0.19968">
        <ele>156.66015625</ele>
        <time>2011-10-09T09:36:28Z</time>
      </trkpt>
      <trkpt lat="45.45819" lon="0.19975">
        <ele>155.8203125</ele>
        <time>2011-10-09T09:36:23Z</time>
      </trkpt>
      <trkpt lat="45.45829" lon="0.19981">
        <ele>154.98828125</ele>
        <time>2011-10-09T09:36:18Z</time>
      </trkpt>
      <trkpt lat="45.45839" lon="0.19988">
        <ele>154.140625</ele>
        <time>2011-10-09T09:36:13Z</time>
      </trkpt>
      <trkpt lat="45.4585" lon="0.19994">
        <ele>152.9453125</ele>
        <time>2011-10-09T09:36:08Z</time>
      </trkpt>
      <trkpt lat="45.45859" lon="0.19999">
        <ele>151.7890625</ele>
        <time>2011-10-09T09:36:03Z</time>
      </trkpt>
      <trkpt lat="45.45869" lon="0.20003">
        <ele>150.6875</ele>
        <time>2011-10-09T09:35:58Z</time>
      </trkpt>
      <trkpt lat="45.45878" lon="0.20008">
        <ele>149.60546875</ele>
        <time>2011-10-09T09:35:53Z</time>
      </trkpt>
      <trkpt lat="45.45888" lon="0.20012">
        <ele>148.4921875</ele>
        <time>2011-10-09T09:35:48Z</time>
      </trkpt>
      <trkpt lat="45.45897" lon="0.20017">
        <ele>147.39453125</ele>
        <time>2011-10-09T09:35:43Z</time>
      </trkpt>
      <trkpt lat="45.45906" lon="0.20023">
        <ele>146.58203125</ele>
        <time>2011-10-09T09:35:38Z</time>
      </trkpt>
      <trkpt lat="45.45915" lon="0.20028">
        <ele>145.7734375</ele>
        <time>2011-10-09T09:35:33Z</time>
      </trkpt>
      <trkpt lat="45.45924" lon="0.20034">
        <ele>144.9609375</ele>
        <time>2011-10-09T09:35:28Z</time>
      </trkpt>
      <trkpt lat="45.45933" lon="0.20041">
        <ele>144.15234375</ele>
        <time>2011-10-09T09:35:23Z</time>
      </trkpt>
      <trkpt lat="45.45943" lon="0.20048">
        <ele>143.33984375</ele>
        <time>2011-10-09T09:35:18Z</time>
      </trkpt>
      <trkpt lat="45.45952" lon="0.20056">
        <ele>142.56640625</ele>
        <time>2011-10-09T09:35:13Z</time>
      </trkpt>
      <trkpt lat="45.45961" lon="0.20064">
        <ele>141.84765625</ele>
        <time>2011-10-09T09:35:08Z</time>
      </trkpt>
      <trkpt lat="45.4597" lon="0.20072">
        <ele>141.171875</ele>
        <time>2011-10-09T09:35:03Z</time>
      </trkpt>
      <trkpt lat="45.45978" lon="0.20078">
        <ele>140.65625</ele>
        <time>2011-10-09T09:34:59Z</time>
      </trkpt>
      <trkpt lat="45.45987" lon="0.20085">
        <ele>140.08203125</ele>
        <time>2011-10-09T09:34:55Z</time>
      </trkpt>
      <trkpt lat="45.45996" lon="0.20092">
        <ele>139.56640625</ele>
        <time>2011-10-09T09:34:51Z</time>
      </trkpt>
      <trkpt lat="45.46004" lon="0.20101">
        <ele>139.06640625</ele>
        <time>2011-10-09T09:34:47Z</time>
      </trkpt>
      <trkpt lat="45.46013" lon="0.20109">
        <ele>138.375</ele>
        <time>2011-10-09T09:34:43Z</time>
      </trkpt>
      <trkpt lat="45.46021" lon="0.20116">
        <ele>137.71484375</ele>
        <time>2011-10-09T09:34:39Z</time>
      </trkpt>
      <trkpt lat="45.46029" lon="0.20122">
        <ele>137.01171875</ele>
        <time>2011-10-09T09:34:35Z</time>
      </trkpt>
      <trkpt lat="45.46039" lon="0.20129">
        <ele>136.26953125</ele>
        <time>2011-10-09T09:34:31Z</time>
      </trkpt>
      <trkpt lat="45.46048" lon="0.20135">
        <ele>135.546875</ele>
        <time>2011-10-09T09:34:27Z</time>
      </trkpt>
      <trkpt lat="45.46057" lon="0.20141">
        <ele>134.82421875</ele>
        <time>2011-10-09T09:34:23Z</time>
      </trkpt>
      <trkpt lat="45.46065" lon="0.20148">
        <ele>134.19921875</ele>
        <time>2011-10-09T09:34:19Z</time>
      </trkpt>
      <trkpt lat="45.46075" lon="0.20155">
        <ele>133.8046875</ele>
        <time>2011-10-09T09:34:15Z</time>
      </trkpt>
      <trkpt lat="45.46083" lon="0.2016">
        <ele>133.7890625</ele>
        <time>2011-10-09T09:34:12Z</time>
      </trkpt>
      <trkpt lat="45.46091" lon="0.20167">
        <ele>133.828125</ele>
        <time>2011-10-09T09:34:09Z</time>
      </trkpt>
      <trkpt lat="45.46103" lon="0.20173">
        <ele>133.86328125</ele>
        <time>2011-10-09T09:34:06Z</time>
      </trkpt>
      <trkpt lat="45.46115" lon="0.20177">
        <ele>133.84765625</ele>
        <time>2011-10-09T09:34:04Z</time>
      </trkpt>
      <trkpt lat="45.46128" lon="0.20183">
        <ele>134.59375</ele>
        <time>2011-10-09T09:34:02Z</time>
      </trkpt>
      <trkpt lat="45.46142" lon="0.20197">
        <ele>136.1015625</ele>
        <time>2011-10-09T09:34:00Z</time>
      </trkpt>
      <trkpt lat="45.46149" lon="0.20205">
        <ele>136.890625</ele>
        <time>2011-10-09T09:33:59Z</time>
      </trkpt>
      <trkpt lat="45.46156" lon="0.20212">
        <ele>137.734375</ele>
        <time>2011-10-09T09:33:58Z</time>
      </trkpt>
      <trkpt lat="45.46163" lon="0.20219">
        <ele>138.55078125</ele>
        <time>2011-10-09T09:33:57Z</time>
      </trkpt>
      <trkpt lat="45.46171" lon="0.20225">
        <ele>139.3359375</ele>
        <time>2011-10-09T09:33:56Z</time>
      </trkpt>
      <trkpt lat="45.46189" lon="0.2023">
        <ele>143.3203125</ele>
        <time>2011-10-09T09:33:54Z</time>
      </trkpt>
      <trkpt lat="45.46207" lon="0.2023">
        <ele>147.58203125</ele>
        <time>2011-10-09T09:33:52Z</time>
      </trkpt>
      <trkpt lat="45.4622" lon="0.20219">
        <ele>150.17578125</ele>
        <time>2011-10-09T09:33:50Z</time>
      </trkpt>
      <trkpt lat="45.46233" lon="0.20208">
        <ele>152.68359375</ele>
        <time>2011-10-09T09:33:48Z</time>
      </trkpt>
      <trkpt lat="45.46248" lon="0.20197">
        <ele>155.2109375</ele>
        <time>2011-10-09T09:33:46Z</time>
      </trkpt>
      <trkpt lat="45.46263" lon="0.20188">
        <ele>158.08984375</ele>
        <time>2011-10-09T09:33:44Z</time>
      </trkpt>
      <trkpt lat="45.46279" lon="0.20178">
        <ele>161.09765625</ele>
        <time>2011-10-09T09:33:42Z</time>
      </trkpt>
      <trkpt lat="45.46293" lon="0.20166">
        <ele>162.21484375</ele>
        <time>2011-10-09T09:33:40Z</time>
      </trkpt>
      <trkpt lat="45.46303" lon="0.20156">
        <ele>162.0703125</ele>
        <time>2011-10-09T09:33:38Z</time>
      </trkpt>
      <trkpt lat="45.46312" lon="0.20146">
        <ele>161.65625</ele>
        <time>2011-10-09T09:33:36Z</time>
      </trkpt>
      <trkpt lat="45.46324" lon="0.20143">
        <ele>162.45703125</ele>
        <time>2011-10-09T09:33:34Z</time>
      </trkpt>
      <trkpt lat="45.46335" lon="0.20141">
        <ele>163.58203125</ele>
        <time>2011-10-09T09:33:32Z</time>
      </trkpt>
      <trkpt lat="45.46345" lon="0.20145">
        <ele>164.64453125</ele>
        <time>2011-10-09T09:33:30Z</time>
      </trkpt>
      <trkpt lat="45.46357" lon="0.20155">
        <ele>165.140625</ele>
        <time>2011-10-09T09:33:27Z</time>
      </trkpt>
      <trkpt lat="45.46367" lon="0.20163">
        <ele>165.13671875</ele>
        <time>2011-10-09T09:33:24Z</time>
      </trkpt>
      <trkpt lat="45.46376" lon="0.2017">
        <ele>165.0546875</ele>
        <time>2011-10-09T09:33:20Z</time>
      </trkpt>
      <trkpt lat="45.46387" lon="0.20177">
        <ele>164.83984375</ele>
        <time>2011-10-09T09:33:15Z</time>
      </trkpt>
      <trkpt lat="45.46395" lon="0.20184">
        <ele>164.70703125</ele>
        <time>2011-10-09T09:33:10Z</time>
      </trkpt>
      <trkpt lat="45.46405" lon="0.20186">
        <ele>163.95703125</ele>
        <time>2011-10-09T09:33:05Z</time>
      </trkpt>
      <trkpt lat="45.46416" lon="0.20181">
        <ele>162.67578125</ele>
        <time>2011-10-09T09:32:59Z</time>
      </trkpt>
      <trkpt lat="45.46422" lon="0.20169">
        <ele>161.6875</ele>
        <time>2011-10-09T09:32:53Z</time>
      </trkpt>
      <trkpt lat="45.46423" lon="0.20154">
        <ele>161.06640625</ele>
        <time>2011-10-09T09:32:47Z</time>
      </trkpt>
      <trkpt lat="45.46425" lon="0.20142">
        <ele>160.2578125</ele>
        <time>2011-10-09T09:32:42Z</time>
      </trkpt>
      <trkpt lat="45.46427" lon="0.20129">
        <ele>159.45703125</ele>
        <time>2011-10-09T09:32:37Z</time>
      </trkpt>
      <trkpt lat="45.46429" lon="0.20114">
        <ele>158.4765625</ele>
        <time>2011-10-09T09:32:31Z</time>
      </trkpt>
      <trkpt lat="45.46431" lon="0.201">
        <ele>157.57421875</ele>
        <time>2011-10-09T09:32:25Z</time>
      </trkpt>
      <trkpt lat="45.46434" lon="0.20086">
        <ele>156.27734375</ele>
        <time>2011-10-09T09:32:19Z</time>
      </trkpt>
      <trkpt lat="45.46436" lon="0.20071">
        <ele>155</ele>
        <time>2011-10-09T09:32:13Z</time>
      </trkpt>
      <trkpt lat="45.46438" lon="0.20058">
        <ele>153.8671875</ele>
        <time>2011-10-09T09:32:08Z</time>
      </trkpt>
      <trkpt lat="45.4644" lon="0.20045">
        <ele>152.73828125</ele>
        <time>2011-10-09T09:32:03Z</time>
      </trkpt>
      <trkpt lat="45.46442" lon="0.20032">
        <ele>151.46875</ele>
        <time>2011-10-09T09:31:58Z</time>
      </trkpt>
      <trkpt lat="45.46445" lon="0.20019">
        <ele>150.171875</ele>
        <time>2011-10-09T09:31:53Z</time>
      </trkpt>
      <trkpt lat="45.46448" lon="0.20007">
        <ele>148.8984375</ele>
        <time>2011-10-09T09:31:48Z</time>
      </trkpt>
      <trkpt lat="45.4645" lon="0.19994">
        <ele>147.640625</ele>
        <time>2011-10-09T09:31:43Z</time>
      </trkpt>
      <trkpt lat="45.46453" lon="0.19981">
        <ele>146.4609375</ele>
        <time>2011-10-09T09:31:38Z</time>
      </trkpt>
      <trkpt lat="45.46456" lon="0.19968">
        <ele>145.359375</ele>
        <time>2011-10-09T09:31:33Z</time>
      </trkpt>
      <trkpt lat="45.46458" lon="0.19955">
        <ele>144.27734375</ele>
        <time>2011-10-09T09:31:28Z</time>
      </trkpt>
      <trkpt lat="45.46461" lon="0.19942">
        <ele>143.19921875</ele>
        <time>2011-10-09T09:31:23Z</time>
      </trkpt>
      <trkpt lat="45.46464" lon="0.19928">
        <ele>142.15234375</ele>
        <time>2011-10-09T09:31:18Z</time>
      </trkpt>
      <trkpt lat="45.46466" lon="0.19915">
        <ele>141.21875</ele>
        <time>2011-10-09T09:31:13Z</time>
      </trkpt>
      <trkpt lat="45.46469" lon="0.19901">
        <ele>140.19140625</ele>
        <time>2011-10-09T09:31:08Z</time>
      </trkpt>
      <trkpt lat="45.46472" lon="0.19885">
        <ele>139.03515625</ele>
        <time>2011-10-09T09:31:03Z</time>
      </trkpt>
      <trkpt lat="45.46475" lon="0.19871">
        <ele>138.10546875</ele>
        <time>2011-10-09T09:30:58Z</time>
      </trkpt>
      <trkpt lat="45.46478" lon="0.19856">
        <ele>137.375</ele>
        <time>2011-10-09T09:30:53Z</time>
      </trkpt>
      <trkpt lat="45.46482" lon="0.19842">
        <ele>136.5859375</ele>
        <time>2011-10-09T09:30:48Z</time>
      </trkpt>
      <trkpt lat="45.46485" lon="0.19827">
        <ele>135.8046875</ele>
        <time>2011-10-09T09:30:43Z</time>
      </trkpt>
      <trkpt lat="45.46488" lon="0.19815">
        <ele>135.04296875</ele>
        <time>2011-10-09T09:30:39Z</time>
      </trkpt>
      <trkpt lat="45.46491" lon="0.19802">
        <ele>134.1953125</ele>
        <time>2011-10-09T09:30:35Z</time>
      </trkpt>
      <trkpt lat="45.46494" lon="0.19787">
        <ele>133.12890625</ele>
        <time>2011-10-09T09:30:30Z</time>
      </trkpt>
      <trkpt lat="45.46497" lon="0.19775">
        <ele>132.25390625</ele>
        <time>2011-10-09T09:30:26Z</time>
      </trkpt>
      <trkpt lat="45.465" lon="0.19763">
        <ele>131.3984375</ele>
        <time>2011-10-09T09:30:22Z</time>
      </trkpt>
      <trkpt lat="45.46503" lon="0.1975">
        <ele>130.4765625</ele>
        <time>2011-10-09T09:30:18Z</time>
      </trkpt>
      <trkpt lat="45.46506" lon="0.19738">
        <ele>129.6015625</ele>
        <time>2011-10-09T09:30:14Z</time>
      </trkpt>
      <trkpt lat="45.46509" lon="0.19725">
        <ele>128.73828125</ele>
        <time>2011-10-09T09:30:10Z</time>
      </trkpt>
      <trkpt lat="45.46512" lon="0.19713">
        <ele>127.91796875</ele>
        <time>2011-10-09T09:30:06Z</time>
      </trkpt>
      <trkpt lat="45.46515" lon="0.19698">
        <ele>127.33984375</ele>
        <time>2011-10-09T09:30:01Z</time>
      </trkpt>
      <trkpt lat="45.46512" lon="0.19685">
        <ele>127.23828125</ele>
        <time>2011-10-09T09:29:57Z</time>
      </trkpt>
      <trkpt lat="45.46507" lon="0.19674">
        <ele>127.39453125</ele>
        <time>2011-10-09T09:29:53Z</time>
      </trkpt>
      <trkpt lat="45.46499" lon="0.19661">
        <ele>127.44140625</ele>
        <time>2011-10-09T09:29:48Z</time>
      </trkpt>
      <trkpt lat="45.46494" lon="0.1965">
        <ele>127.203125</ele>
        <time>2011-10-09T09:29:44Z</time>
      </trkpt>
      <trkpt lat="45.46488" lon="0.1964">
        <ele>126.734375</ele>
        <time>2011-10-09T09:29:40Z</time>
      </trkpt>
      <trkpt lat="45.46482" lon="0.1963">
        <ele>126.33203125</ele>
        <time>2011-10-09T09:29:36Z</time>
      </trkpt>
      <trkpt lat="45.46475" lon="0.19617">
        <ele>125.890625</ele>
        <time>2011-10-09T09:29:31Z</time>
      </trkpt>
      <trkpt lat="45.46468" lon="0.19605">
        <ele>125.51953125</ele>
        <time>2011-10-09T09:29:26Z</time>
      </trkpt>
      <trkpt lat="45.46462" lon="0.19596">
        <ele>125.1875</ele>
        <time>2011-10-09T09:29:22Z</time>
      </trkpt>
      <trkpt lat="45.46455" lon="0.19584">
        <ele>124.546875</ele>
        <time>2011-10-09T09:29:18Z</time>
      </trkpt>
      <trkpt lat="45.46449" lon="0.1957">
        <ele>123.28125</ele>
        <time>2011-10-09T09:29:14Z</time>
      </trkpt>
      <trkpt lat="45.46452" lon="0.19558">
        <ele>122.265625</ele>
        <time>2011-10-09T09:29:11Z</time>
      </trkpt>
      <trkpt lat="45.4646" lon="0.19546">
        <ele>121.17578125</ele>
        <time>2011-10-09T09:29:08Z</time>
      </trkpt>
      <trkpt lat="45.46468" lon="0.1954">
        <ele>120.7578125</ele>
        <time>2011-10-09T09:29:06Z</time>
      </trkpt>
      <trkpt lat="45.46478" lon="0.19534">
        <ele>120.46484375</ele>
        <time>2011-10-09T09:29:04Z</time>
      </trkpt>
      <trkpt lat="45.46489" lon="0.19527">
        <ele>120.1875</ele>
        <time>2011-10-09T09:29:02Z</time>
      </trkpt>
      <trkpt lat="45.46502" lon="0.19518">
        <ele>119.98046875</ele>
        <time>2011-10-09T09:29:00Z</time>
      </trkpt>
      <trkpt lat="45.46516" lon="0.19507">
        <ele>120.0859375</ele>
        <time>2011-10-09T09:28:58Z</time>
      </trkpt>
      <trkpt lat="45.46531" lon="0.195">
        <ele>120.7578125</ele>
        <time>2011-10-09T09:28:56Z</time>
      </trkpt>
      <trkpt lat="45.46546" lon="0.19492">
        <ele>121.7265625</ele>
        <time>2011-10-09T09:28:54Z</time>
      </trkpt>
      <trkpt lat="45.46561" lon="0.19484">
        <ele>122.85546875</ele>
        <time>2011-10-09T09:28:52Z</time>
      </trkpt>
      <trkpt lat="45.46575" lon="0.19473">
        <ele>123.6953125</ele>
        <time>2011-10-09T09:28:50Z</time>
      </trkpt>
      <trkpt lat="45.46589" lon="0.19463">
        <ele>124.5703125</ele>
        <time>2011-10-09T09:28:48Z</time>
      </trkpt>
      <trkpt lat="45.46601" lon="0.19454">
        <ele>125.484375</ele>
        <time>2011-10-09T09:28:46Z</time>
      </trkpt>
      <trkpt lat="45.46614" lon="0.19443">
        <ele>126.5078125</ele>
        <time>2011-10-09T09:28:44Z</time>
      </trkpt>
      <trkpt lat="45.46628" lon="0.19433">
        <ele>127.49609375</ele>
        <time>2011-10-09T09:28:42Z</time>
      </trkpt>
      <trkpt lat="45.46642" lon="0.19423">
        <ele>128.25390625</ele>
        <time>2011-10-09T09:28:40Z</time>
      </trkpt>
      <trkpt lat="45.46656" lon="0.19414">
        <ele>129.0078125</ele>
        <time>2011-10-09T09:28:38Z</time>
      </trkpt>
      <trkpt lat="45.4667" lon="0.19405">
        <ele>129.75390625</ele>
        <time>2011-10-09T09:28:36Z</time>
      </trkpt>
      <trkpt lat="45.46684" lon="0.19398">
        <ele>130.60546875</ele>
        <time>2011-10-09T09:28:34Z</time>
      </trkpt>
      <trkpt lat="45.46698" lon="0.19396">
        <ele>131.55859375</ele>
        <time>2011-10-09T09:28:32Z</time>
      </trkpt>
      <trkpt lat="45.46712" lon="0.194">
        <ele>132.421875</ele>
        <time>2011-10-09T09:28:30Z</time>
      </trkpt>
      <trkpt lat="45.46721" lon="0.19396">
        <ele>133.046875</ele>
        <time>2011-10-09T09:28:28Z</time>
      </trkpt>
      <trkpt lat="45.46728" lon="0.19387">
        <ele>133.6796875</ele>
        <time>2011-10-09T09:28:26Z</time>
      </trkpt>
      <trkpt lat="45.46735" lon="0.19377">
        <ele>134.26953125</ele>
        <time>2011-10-09T09:28:24Z</time>
      </trkpt>
      <trkpt lat="45.46744" lon="0.19369">
        <ele>134.55859375</ele>
        <time>2011-10-09T09:28:22Z</time>
      </trkpt>
      <trkpt lat="45.46754" lon="0.19363">
        <ele>135</ele>
        <time>2011-10-09T09:28:20Z</time>
      </trkpt>
      <trkpt lat="45.46763" lon="0.19357">
        <ele>135.54296875</ele>
        <time>2011-10-09T09:28:18Z</time>
      </trkpt>
      <trkpt lat="45.46773" lon="0.19352">
        <ele>136.125</ele>
        <time>2011-10-09T09:28:16Z</time>
      </trkpt>
      <trkpt lat="45.46791" lon="0.19338">
        <ele>137.41015625</ele>
        <time>2011-10-09T09:28:14Z</time>
      </trkpt>
      <trkpt lat="45.46816" lon="0.19327">
        <ele>139.22265625</ele>
        <time>2011-10-09T09:28:12Z</time>
      </trkpt>
      <trkpt lat="45.46835" lon="0.19312">
        <ele>139.40234375</ele>
        <time>2011-10-09T09:28:10Z</time>
      </trkpt>
      <trkpt lat="45.46873" lon="0.19304">
        <ele>140.6953125</ele>
        <time>2011-10-09T09:28:08Z</time>
      </trkpt>
      <trkpt lat="45.46914" lon="0.19297">
        <ele>142.25</ele>
        <time>2011-10-09T09:28:06Z</time>
      </trkpt>
      <trkpt lat="45.46937" lon="0.19294">
        <ele>143.2109375</ele>
        <time>2011-10-09T09:28:04Z</time>
      </trkpt>
      <trkpt lat="45.46965" lon="0.19306">
        <ele>146.43359375</ele>
        <time>2011-10-09T09:28:03Z</time>
      </trkpt>
      <trkpt lat="45.46993" lon="0.19322">
        <ele>150.7109375</ele>
        <time>2011-10-09T09:28:01Z</time>
      </trkpt>
      <trkpt lat="45.47009" lon="0.19316">
        <ele>151.41015625</ele>
        <time>2011-10-09T09:27:59Z</time>
      </trkpt>
      <trkpt lat="45.47042" lon="0.19284">
        <ele>151.4140625</ele>
        <time>2011-10-09T09:27:57Z</time>
      </trkpt>
      <trkpt lat="45.47075" lon="0.19257">
        <ele>151.91015625</ele>
      </trkpt>
      <trkpt lat="45.47106" lon="0.19237">
        <ele>152.33984375</ele>
      </trkpt>
      <trkpt lat="45.47134" lon="0.19217">
        <ele>150.703125</ele>
      </trkpt>
      <trkpt lat="45.47149" lon="0.19206">
        <ele>148.859375</ele>
      </trkpt>
      <trkpt lat="45.47157" lon="0.19206">
        <ele>148.44140625</ele>
      </trkpt>
      <trkpt lat="45.47161" lon="0.19212">
        <ele>148.80859375</ele>
      </trkpt>
      <trkpt lat="45.47164" lon="0.19221">
        <ele>149.3203125</ele>
      </trkpt>
      <trkpt lat="45.47163" lon="0.19237">
        <ele>150.59765625</ele>
      </trkpt>
      <trkpt lat="45.47161" lon="0.19259">
        <ele>152.33984375</ele>
      </trkpt>
      <trkpt lat="45.47157" lon="0.1928">
        <ele>154.77734375</ele>
      </trkpt>
      <trkpt lat="45.47154" lon="0.19302">
        <ele>157.359375</ele>
      </trkpt>
      <trkpt lat="45.47152" lon="0.1933">
        <ele>160.640625</ele>
      </trkpt>
      <trkpt lat="45.47151" lon="0.1935">
        <ele>163.09765625</ele>
      </trkpt>
      <trkpt lat="45.47154" lon="0.19381">
        <ele>166.2578125</ele>
      </trkpt>
      <trkpt lat="45.47159" lon="0.19408">
        <ele>167.26953125</ele>
      </trkpt>
      <trkpt lat="45.47167" lon="0.1943">
        <ele>168.6171875</ele>
      </trkpt>
      <trkpt lat="45.47178" lon="0.19448">
        <ele>168.71484375</ele>
      </trkpt>
      <trkpt lat="45.47192" lon="0.1946">
        <ele>168.6640625</ele>
      </trkpt>
      <trkpt lat="45.47213" lon="0.19468">
        <ele>168.99609375</ele>
      </trkpt>
      <trkpt lat="45.47242" lon="0.19475">
        <ele>169.9375</ele>
      </trkpt>
      <trkpt lat="45.47271" lon="0.19485">
        <ele>171.3515625</ele>
      </trkpt>
      <trkpt lat="45.47296" lon="0.19492">
        <ele>172.5390625</ele>
        <time>2011-10-09T09:27:55Z</time>
      </trkpt>
      <trkpt lat="45.47307" lon="0.19498">
        <ele>172.94921875</ele>
        <time>2011-10-09T09:27:53Z</time>
      </trkpt>
      <trkpt lat="45.47335" lon="0.19491">
        <ele>175.32421875</ele>
        <time>2011-10-09T09:27:51Z</time>
      </trkpt>
      <trkpt lat="45.47368" lon="0.1949">
        <ele>177.80859375</ele>
      </trkpt>
      <trkpt lat="45.47371" lon="0.1951">
        <ele>175.8515625</ele>
      </trkpt>
      <trkpt lat="45.47377" lon="0.19536">
        <ele>173.2109375</ele>
      </trkpt>
      <trkpt lat="45.47384" lon="0.19554">
        <ele>171.03515625</ele>
      </trkpt>
      <trkpt lat="45.47391" lon="0.19563">
        <ele>169.984375</ele>
      </trkpt>
      <trkpt lat="45.47404" lon="0.19571">
        <ele>169.6328125</ele>
      </trkpt>
      <trkpt lat="45.47428" lon="0.19578">
        <ele>170.90234375</ele>
      </trkpt>
      <trkpt lat="45.47445" lon="0.19581">
        <ele>172.03125</ele>
      </trkpt>
      <trkpt lat="45.47457" lon="0.19586">
        <ele>173.515625</ele>
      </trkpt>
      <trkpt lat="45.47466" lon="0.19594">
        <ele>175</ele>
      </trkpt>
      <trkpt lat="45.47471" lon="0.19606">
        <ele>175.42578125</ele>
      </trkpt>
      <trkpt lat="45.47476" lon="0.1963">
        <ele>175.16015625</ele>
      </trkpt>
      <trkpt lat="45.47484" lon="0.19679">
        <ele>174.94140625</ele>
      </trkpt>
      <trkpt lat="45.47487" lon="0.19719">
        <ele>174.48046875</ele>
      </trkpt>
      <trkpt lat="45.47489" lon="0.19764">
        <ele>173.55859375</ele>
      </trkpt>
      <trkpt lat="45.4749" lon="0.19803">
        <ele>172.47265625</ele>
      </trkpt>
      <trkpt lat="45.47491" lon="0.19832">
        <ele>171.7578125</ele>
      </trkpt>
      <trkpt lat="45.47495" lon="0.19857">
        <ele>171.44140625</ele>
      </trkpt>
      <trkpt lat="45.47504" lon="0.19877">
        <ele>171.6171875</ele>
      </trkpt>
      <trkpt lat="45.47512" lon="0.19897">
        <ele>170.609375</ele>
      </trkpt>
      <trkpt lat="45.47529" lon="0.1991">
        <ele>171.88671875</ele>
      </trkpt>
      <trkpt lat="45.47548" lon="0.19925">
        <ele>173.91796875</ele>
      </trkpt>
      <trkpt lat="45.4756" lon="0.1994">
        <ele>175.19140625</ele>
      </trkpt>
      <trkpt lat="45.47568" lon="0.19951">
        <ele>175.640625</ele>
      </trkpt>
      <trkpt lat="45.47579" lon="0.19975">
        <ele>175.54296875</ele>
      </trkpt>
      <trkpt lat="45.47591" lon="0.19998">
        <ele>175.53125</ele>
      </trkpt>
      <trkpt lat="45.47603" lon="0.20017">
        <ele>175.5546875</ele>
      </trkpt>
      <trkpt lat="45.47613" lon="0.20038">
        <ele>175.01171875</ele>
      </trkpt>
      <trkpt lat="45.47616" lon="0.20044">
        <ele>174.78125</ele>
      </trkpt>
      <trkpt lat="45.47618" lon="0.20067">
        <ele>172.8671875</ele>
      </trkpt>
      <trkpt lat="45.47616" lon="0.20093">
        <ele>170.52734375</ele>
      </trkpt>
      <trkpt lat="45.47616" lon="0.20103">
        <ele>169.7734375</ele>
      </trkpt>
      <trkpt lat="45.47611" lon="0.20123">
        <ele>168.64453125</ele>
      </trkpt>
      <trkpt lat="45.47607" lon="0.20133">
        <ele>168.10546875</ele>
      </trkpt>
      <trkpt lat="45.47595" lon="0.20155">
        <ele>166.9453125</ele>
      </trkpt>
      <trkpt lat="45.47585" lon="0.20173">
        <ele>165.890625</ele>
      </trkpt>
      <trkpt lat="45.47581" lon="0.20184">
        <ele>165.25390625</ele>
      </trkpt>
      <trkpt lat="45.47575" lon="0.20207">
        <ele>163.9453125</ele>
      </trkpt>
      <trkpt lat="45.47563" lon="0.20243">
        <ele>162.2109375</ele>
      </trkpt>
      <trkpt lat="45.47555" lon="0.20267">
        <ele>160.73046875</ele>
      </trkpt>
      <trkpt lat="45.47546" lon="0.20296">
        <ele>158.46484375</ele>
      </trkpt>
      <trkpt lat="45.4754" lon="0.20322">
        <ele>156.546875</ele>
      </trkpt>
      <trkpt lat="45.47535" lon="0.20338">
        <ele>155.5703125</ele>
      </trkpt>
      <trkpt lat="45.47533" lon="0.20362">
        <ele>154.24609375</ele>
      </trkpt>
      <trkpt lat="45.47531" lon="0.20388">
        <ele>152.70703125</ele>
      </trkpt>
      <trkpt lat="45.47534" lon="0.20412">
        <ele>151.2578125</ele>
      </trkpt>
      <trkpt lat="45.47541" lon="0.20447">
        <ele>149.37890625</ele>
      </trkpt>
      <trkpt lat="45.47546" lon="0.20478">
        <ele>148.08984375</ele>
      </trkpt>
      <trkpt lat="45.47551" lon="0.20516">
        <ele>146.7890625</ele>
      </trkpt>
      <trkpt lat="45.47554" lon="0.20544">
        <ele>145.83984375</ele>
      </trkpt>
      <trkpt lat="45.47555" lon="0.20558">
        <ele>145.79296875</ele>
      </trkpt>
      <trkpt lat="45.47553" lon="0.20587">
        <ele>145.54296875</ele>
      </trkpt>
      <trkpt lat="45.47543" lon="0.20623">
        <ele>145.24609375</ele>
      </trkpt>
      <trkpt lat="45.47538" lon="0.20648">
        <ele>145.19140625</ele>
      </trkpt>
      <trkpt lat="45.47532" lon="0.20677">
        <ele>144.796875</ele>
      </trkpt>
      <trkpt lat="45.47524" lon="0.20705">
        <ele>144.25</ele>
      </trkpt>
      <trkpt lat="45.47518" lon="0.2073">
        <ele>144.66015625</ele>
      </trkpt>
      <trkpt lat="45.4751" lon="0.20749">
        <ele>145.24609375</ele>
      </trkpt>
      <trkpt lat="45.47503" lon="0.20757">
        <ele>145.53125</ele>
      </trkpt>
      <trkpt lat="45.47496" lon="0.20763">
        <ele>145.87890625</ele>
      </trkpt>
      <trkpt lat="45.47484" lon="0.2076">
        <ele>145.703125</ele>
      </trkpt>
      <trkpt lat="45.4747" lon="0.20758">
        <ele>145.5</ele>
      </trkpt>
      <trkpt lat="45.47458" lon="0.20761">
        <ele>145.7265625</ele>
      </trkpt>
      <trkpt lat="45.47446" lon="0.20769">
        <ele>146.1328125</ele>
      </trkpt>
      <trkpt lat="45.47433" lon="0.20775">
        <ele>146.32421875</ele>
      </trkpt>
      <trkpt lat="45.47442" lon="0.20825">
        <ele>149.82421875</ele>
      </trkpt>
      <trkpt lat="45.47455" lon="0.20853">
        <ele>151.125</ele>
      </trkpt>
      <trkpt lat="45.4747" lon="0.20872">
        <ele>151.80859375</ele>
      </trkpt>
      <trkpt lat="45.47485" lon="0.20883">
        <ele>152.38671875</ele>
      </trkpt>
      <trkpt lat="45.47476" lon="0.20916">
        <ele>154.5625</ele>
      </trkpt>
      <trkpt lat="45.47473" lon="0.20972">
        <ele>158.05078125</ele>
      </trkpt>
      <trkpt lat="45.47477" lon="0.21037">
        <ele>162.59765625</ele>
      </trkpt>
      <trkpt lat="45.47476" lon="0.21098">
        <ele>166.9921875</ele>
      </trkpt>
      <trkpt lat="45.47468" lon="0.21157">
        <ele>173.61328125</ele>
      </trkpt>
      <trkpt lat="45.47462" lon="0.21186">
        <ele>175.72265625</ele>
      </trkpt>
      <trkpt lat="45.47453" lon="0.21213">
        <ele>178.05859375</ele>
      </trkpt>
      <trkpt lat="45.47442" lon="0.21267">
        <ele>178.84375</ele>
      </trkpt>
      <trkpt lat="45.47441" lon="0.21283">
        <ele>178.66796875</ele>
      </trkpt>
      <trkpt lat="45.47442" lon="0.21292">
        <ele>177.46484375</ele>
      </trkpt>
      <trkpt lat="45.47442" lon="0.21307">
        <ele>180.9</ele>
      </trkpt>
      <trkpt lat="45.47441" lon="0.21336">
        <ele>179.9</ele>
      </trkpt>
      <trkpt lat="45.4744" lon="0.21356">
        <ele>179.7</ele>
      </trkpt>
      <trkpt lat="45.47438" lon="0.21369">
        <ele>179</ele>
      </trkpt>
      <trkpt lat="45.47434" lon="0.21381">
        <ele>177.8</ele>
      </trkpt>
      <trkpt lat="45.4742" lon="0.21417">
        <ele>174.2</ele>
      </trkpt>
      <trkpt lat="45.47404" lon="0.21441">
        <ele>172.2</ele>
      </trkpt>
      <trkpt lat="45.47387" lon="0.21469">
        <ele>169.8</ele>
      </trkpt>
      <trkpt lat="45.47377" lon="0.21484">
        <ele>167.9</ele>
      </trkpt>
      <trkpt lat="45.47362" lon="0.21519">
        <ele>164.4</ele>
      </trkpt>
      <trkpt lat="45.47338" lon="0.21574">
        <ele>158.1</ele>
      </trkpt>
      <trkpt lat="45.47329" lon="0.216">
        <ele>157.1</ele>
      </trkpt>
      <trkpt lat="45.47324" lon="0.21619">
        <ele>156.6</ele>
      </trkpt>
      <trkpt lat="45.47322" lon="0.21642">
        <ele>156.2</ele>
      </trkpt>
      <trkpt lat="45.4732" lon="0.21657">
        <ele>156</ele>
      </trkpt>
      <trkpt lat="45.47316" lon="0.2167">
        <ele>155.8</ele>
      </trkpt>
      <trkpt lat="45.47306" lon="0.21697">
        <ele>156.1</ele>
      </trkpt>
      <trkpt lat="45.47301" lon="0.21715">
        <ele>156.4</ele>
      </trkpt>
      <trkpt lat="45.47296" lon="0.21737">
        <ele>156.8</ele>
      </trkpt>
      <trkpt lat="45.47297" lon="0.21744">
        <ele>157.2</ele>
      </trkpt>
      <trkpt lat="45.47295" lon="0.21756">
        <ele>157.2</ele>
      </trkpt>
      <trkpt lat="45.47292" lon="0.21784">
        <ele>157.1</ele>
      </trkpt>
      <trkpt lat="45.47287" lon="0.21809">
        <ele>157.4</ele>
      </trkpt>
      <trkpt lat="45.4727" lon="0.21881">
        <ele>157.6</ele>
      </trkpt>
      <trkpt lat="45.47265" lon="0.21908">
        <ele>157.9</ele>
      </trkpt>
      <trkpt lat="45.47252" lon="0.21982">
        <ele>157</ele>
      </trkpt>
      <trkpt lat="45.47229" lon="0.22099">
        <ele>154.5</ele>
      </trkpt>
      <trkpt lat="45.47228" lon="0.22159">
        <ele>154.6</ele>
      </trkpt>
      <trkpt lat="45.47226" lon="0.22179">
        <ele>154.7</ele>
      </trkpt>
      <trkpt lat="45.47226" lon="0.22194">
        <ele>154.6</ele>
      </trkpt>
      <trkpt lat="45.4722" lon="0.22252">
        <ele>154.1</ele>
      </trkpt>
      <trkpt lat="45.47218" lon="0.22258">
        <ele>154.2</ele>
      </trkpt>
      <trkpt lat="45.47216" lon="0.22282">
        <ele>154.1</ele>
      </trkpt>
      <trkpt lat="45.47217" lon="0.22317">
        <ele>153.7</ele>
      </trkpt>
      <trkpt lat="45.47218" lon="0.22327">
        <ele>154</ele>
      </trkpt>
      <trkpt lat="45.4724" lon="0.22396">
        <ele>155.3</ele>
      </trkpt>
      <trkpt lat="45.47242" lon="0.22406">
        <ele>155.6</ele>
      </trkpt>
      <trkpt lat="45.47244" lon="0.22443">
        <ele>156.2</ele>
      </trkpt>
      <trkpt lat="45.47244" lon="0.22487">
        <ele>157</ele>
      </trkpt>
      <trkpt lat="45.47243" lon="0.22502">
        <ele>157</ele>
      </trkpt>
      <trkpt lat="45.47241" lon="0.22518">
        <ele>157.2</ele>
      </trkpt>
      <trkpt lat="45.47242" lon="0.22619">
        <ele>156.7</ele>
      </trkpt>
      <trkpt lat="45.4724" lon="0.22685">
        <ele>154.3</ele>
      </trkpt>
      <trkpt lat="45.47237" lon="0.22719">
        <ele>152.6</ele>
      </trkpt>
      <trkpt lat="45.4723" lon="0.22782">
        <ele>149.5</ele>
      </trkpt>
      <trkpt lat="45.47231" lon="0.22825">
        <ele>148.4</ele>
      </trkpt>
      <trkpt lat="45.47229" lon="0.22851">
        <ele>147.5</ele>
      </trkpt>
      <trkpt lat="45.47226" lon="0.22866">
        <ele>147</ele>
      </trkpt>
      <trkpt lat="45.47212" lon="0.22909">
        <ele>145.5</ele>
      </trkpt>
      <trkpt lat="45.47204" lon="0.22927">
        <ele>145.3</ele>
      </trkpt>
      <trkpt lat="45.47203" lon="0.22937">
        <ele>145</ele>
      </trkpt>
      <trkpt lat="45.47199" lon="0.22962">
        <ele>144.7</ele>
      </trkpt>
      <trkpt lat="45.47199" lon="0.23006">
        <ele>143.8</ele>
      </trkpt>
      <trkpt lat="45.47192" lon="0.23036">
        <ele>144.5</ele>
      </trkpt>
      <trkpt lat="45.47183" lon="0.2306">
        <ele>145.5</ele>
      </trkpt>
      <trkpt lat="45.47176" lon="0.23074">
        <ele>145.9</ele>
      </trkpt>
      <trkpt lat="45.47169" lon="0.23109">
        <ele>146.8</ele>
      </trkpt>
      <trkpt lat="45.47165" lon="0.23134">
        <ele>146.9</ele>
      </trkpt>
      <trkpt lat="45.47165" lon="0.23175">
        <ele>146.7</ele>
      </trkpt>
      <trkpt lat="45.47172" lon="0.23248">
        <ele>144.9</ele>
      </trkpt>
      <trkpt lat="45.47189" lon="0.23284">
        <ele>144</ele>
      </trkpt>
      <trkpt lat="45.47199" lon="0.23313">
        <ele>143.8</ele>
      </trkpt>
      <trkpt lat="45.47213" lon="0.23352">
        <ele>143.2</ele>
      </trkpt>
      <trkpt lat="45.47225" lon="0.23374">
        <ele>143.1</ele>
      </trkpt>
      <trkpt lat="45.47231" lon="0.23408">
        <ele>142.2</ele>
      </trkpt>
      <trkpt lat="45.47234" lon="0.23447">
        <ele>140.2</ele>
      </trkpt>
      <trkpt lat="45.47236" lon="0.23458">
        <ele>139.8</ele>
      </trkpt>
      <trkpt lat="45.47252" lon="0.23501">
        <ele>140.2</ele>
      </trkpt>
      <trkpt lat="45.47257" lon="0.23557">
        <ele>138.7</ele>
      </trkpt>
      <trkpt lat="45.47254" lon="0.23584">
        <ele>137.4</ele>
      </trkpt>
      <trkpt lat="45.4726" lon="0.23616">
        <ele>136</ele>
      </trkpt>
      <trkpt lat="45.47287" lon="0.23705">
        <ele>139.5</ele>
      </trkpt>
      <trkpt lat="45.47303" lon="0.23773">
        <ele>137.1</ele>
      </trkpt>
      <trkpt lat="45.47307" lon="0.23845">
        <ele>131</ele>
      </trkpt>
      <trkpt lat="45.47307" lon="0.23875">
        <ele>129.3</ele>
      </trkpt>
      <trkpt lat="45.47303" lon="0.23918">
        <ele>127.7</ele>
      </trkpt>
      <trkpt lat="45.47297" lon="0.23963">
        <ele>127.5</ele>
      </trkpt>
      <trkpt lat="45.47296" lon="0.23999">
        <ele>129.6</ele>
      </trkpt>
      <trkpt lat="45.47298" lon="0.24014">
        <ele>130.3</ele>
      </trkpt>
      <trkpt lat="45.47303" lon="0.24029">
        <ele>130.5</ele>
      </trkpt>
      <trkpt lat="45.47312" lon="0.24048">
        <ele>130.4</ele>
      </trkpt>
      <trkpt lat="45.47342" lon="0.24088">
        <ele>127.6</ele>
      </trkpt>
      <trkpt lat="45.4738" lon="0.24148">
        <ele>119.9</ele>
      </trkpt>
      <trkpt lat="45.47413" lon="0.24196">
        <ele>118.8</ele>
      </trkpt>
      <trkpt lat="45.47447" lon="0.24243">
        <ele>121.3</ele>
      </trkpt>
      <trkpt lat="45.47456" lon="0.24257">
        <ele>121.2</ele>
      </trkpt>
      <trkpt lat="45.47465" lon="0.24286">
        <ele>120.3</ele>
      </trkpt>
      <trkpt lat="45.47467" lon="0.24298">
        <ele>119.8</ele>
      </trkpt>
      <trkpt lat="45.47468" lon="0.24328">
        <ele>117.9</ele>
      </trkpt>
      <trkpt lat="45.47466" lon="0.24368">
        <ele>116.2</ele>
      </trkpt>
      <trkpt lat="45.47457" lon="0.24405">
        <ele>114.5</ele>
      </trkpt>
      <trkpt lat="45.47452" lon="0.2442">
        <ele>114.6</ele>
      </trkpt>
      <trkpt lat="45.47452" lon="0.2443">
        <ele>114.9</ele>
      </trkpt>
      <trkpt lat="45.47454" lon="0.24437">
        <ele>115.1</ele>
      </trkpt>
      <trkpt lat="45.47459" lon="0.24441">
        <ele>114.8</ele>
      </trkpt>
      <trkpt lat="45.47492" lon="0.24456">
        <ele>113</ele>
      </trkpt>
      <trkpt lat="45.47548" lon="0.24481">
        <ele>109.3</ele>
      </trkpt>
      <trkpt lat="45.47564" lon="0.24489">
        <ele>108.4</ele>
      </trkpt>
      <trkpt lat="45.47541" lon="0.2455">
        <ele>109.6</ele>
      </trkpt>
      <trkpt lat="45.47529" lon="0.24587">
        <ele>109.8</ele>
      </trkpt>
      <trkpt lat="45.47523" lon="0.24616">
        <ele>109.4</ele>
      </trkpt>
      <trkpt lat="45.47523" lon="0.24631">
        <ele>108.9</ele>
      </trkpt>
      <trkpt lat="45.47532" lon="0.24648">
        <ele>108</ele>
      </trkpt>
      <trkpt lat="45.47566" lon="0.24692">
        <ele>104.3</ele>
      </trkpt>
      <trkpt lat="45.47545" lon="0.24731">
        <ele>103.5</ele>
      </trkpt>
      <trkpt lat="45.47525" lon="0.24781">
        <ele>101.8</ele>
      </trkpt>
      <trkpt lat="45.47506" lon="0.24836">
        <ele>102.5</ele>
      </trkpt>
      <trkpt lat="45.47496" lon="0.24864">
        <ele>102.7</ele>
      </trkpt>
      <trkpt lat="45.47492" lon="0.24885">
        <ele>102.8</ele>
      </trkpt>
      <trkpt lat="45.47491" lon="0.249">
        <ele>102.3</ele>
      </trkpt>
      <trkpt lat="45.47492" lon="0.24915">
        <ele>101.6</ele>
      </trkpt>
      <trkpt lat="45.47506" lon="0.24916">
        <ele>101</ele>
      </trkpt>
      <trkpt lat="45.47518" lon="0.24919">
        <ele>100.9</ele>
      </trkpt>
      <trkpt lat="45.476" lon="0.24941">
        <ele>101.7</ele>
      </trkpt>
      <trkpt lat="45.47632" lon="0.24947">
        <ele>102.7</ele>
      </trkpt>
      <trkpt lat="45.47635" lon="0.24949">
        <ele>104.05859375</ele>
      </trkpt>
      <trkpt lat="45.47632" lon="0.25038">
        <ele>104.46875</ele>
      </trkpt>
      <trkpt lat="45.47632" lon="0.25045">
        <ele>104.70703125</ele>
      </trkpt>
      <trkpt lat="45.47616" lon="0.25061">
        <ele>104.6171875</ele>
      </trkpt>
      <trkpt lat="45.47594" lon="0.25096">
        <ele>104.71484375</ele>
      </trkpt>
      <trkpt lat="45.47572" lon="0.2513">
        <ele>104.1328125</ele>
      </trkpt>
      <trkpt lat="45.47551" lon="0.25148">
        <ele>103.3125</ele>
      </trkpt>
      <trkpt lat="45.47505" lon="0.25192">
        <ele>100.9765625</ele>
      </trkpt>
      <trkpt lat="45.47483" lon="0.25206">
        <ele>100.9765625</ele>
      </trkpt>
      <trkpt lat="45.4747" lon="0.25209">
        <ele>101.05859375</ele>
      </trkpt>
      <trkpt lat="45.47454" lon="0.25215">
        <ele>101.28515625</ele>
      </trkpt>
      <trkpt lat="45.4747" lon="0.25275">
        <ele>103.06640625</ele>
      </trkpt>
      <trkpt lat="45.47488" lon="0.25344">
        <ele>107.0390625</ele>
      </trkpt>
      <trkpt lat="45.47494" lon="0.25406">
        <ele>112.38671875</ele>
      </trkpt>
      <trkpt lat="45.47493" lon="0.25427">
        <ele>114.0625</ele>
      </trkpt>
      <trkpt lat="45.47481" lon="0.25447">
        <ele>114.96484375</ele>
      </trkpt>
      <trkpt lat="45.47462" lon="0.25465">
        <ele>115.58203125</ele>
      </trkpt>
      <trkpt lat="45.47453" lon="0.2548">
        <ele>115.91015625</ele>
      </trkpt>
      <trkpt lat="45.47432" lon="0.25521">
        <ele>115.15625</ele>
      </trkpt>
      <trkpt lat="45.47416" lon="0.25545">
        <ele>114.765625</ele>
      </trkpt>
      <trkpt lat="45.47377" lon="0.25591">
        <ele>112.3125</ele>
      </trkpt>
      <trkpt lat="45.47342" lon="0.25634">
        <ele>109.8515625</ele>
      </trkpt>
      <trkpt lat="45.47303" lon="0.25706">
        <ele>109.625</ele>
      </trkpt>
      <trkpt lat="45.47281" lon="0.25772">
        <ele>110.13671875</ele>
      </trkpt>
      <trkpt lat="45.47252" lon="0.25823">
        <ele>111.32421875</ele>
      </trkpt>
      <trkpt lat="45.47214" lon="0.25876">
        <ele>113.91015625</ele>
      </trkpt>
      <trkpt lat="45.4718" lon="0.25923">
        <ele>116.6875</ele>
      </trkpt>
      <trkpt lat="45.47126" lon="0.26023">
        <ele>121.38671875</ele>
      </trkpt>
      <trkpt lat="45.47039" lon="0.26129">
        <ele>123.83203125</ele>
      </trkpt>
      <trkpt lat="45.4699" lon="0.26185">
        <ele>123.19140625</ele>
      </trkpt>
      <trkpt lat="45.46921" lon="0.26262">
        <ele>120.4609375</ele>
      </trkpt>
      <trkpt lat="45.46866" lon="0.26323">
        <ele>117.80859375</ele>
      </trkpt>
      <trkpt lat="45.46824" lon="0.2637">
        <ele>116.36328125</ele>
      </trkpt>
      <trkpt lat="45.4679" lon="0.26407">
        <ele>115.1328125</ele>
      </trkpt>
      <trkpt lat="45.46786" lon="0.26415">
        <ele>114.7421875</ele>
      </trkpt>
      <trkpt lat="45.46776" lon="0.26425">
        <ele>114.140625</ele>
      </trkpt>
      <trkpt lat="45.46769" lon="0.26432">
        <ele>113.87109375</ele>
      </trkpt>
      <trkpt lat="45.46742" lon="0.26454">
        <ele>113.0859375</ele>
      </trkpt>
      <trkpt lat="45.46715" lon="0.26477">
        <ele>111.953125</ele>
      </trkpt>
      <trkpt lat="45.46679" lon="0.26505">
        <ele>110.67578125</ele>
      </trkpt>
      <trkpt lat="45.46654" lon="0.26519">
        <ele>110.23046875</ele>
      </trkpt>
      <trkpt lat="45.46631" lon="0.26528">
        <ele>110.046875</ele>
      </trkpt>
      <trkpt lat="45.46599" lon="0.26535">
        <ele>109.29296875</ele>
      </trkpt>
      <trkpt lat="45.4657" lon="0.2654">
        <ele>108.2109375</ele>
      </trkpt>
      <trkpt lat="45.46539" lon="0.26548">
        <ele>106.47265625</ele>
      </trkpt>
      <trkpt lat="45.46493" lon="0.2657">
        <ele>104.1796875</ele>
      </trkpt>
      <trkpt lat="45.46454" lon="0.26592">
        <ele>103.08203125</ele>
      </trkpt>
      <trkpt lat="45.46429" lon="0.26611">
        <ele>101.70703125</ele>
      </trkpt>
      <trkpt lat="45.46412" lon="0.26622">
        <ele>100.921875</ele>
      </trkpt>
      <trkpt lat="45.46401" lon="0.26633">
        <ele>100.41796875</ele>
      </trkpt>
      <trkpt lat="45.46389" lon="0.26646">
        <ele>99.9375</ele>
      </trkpt>
      <trkpt lat="45.46361" lon="0.26689">
        <ele>99.80078125</ele>
      </trkpt>
      <trkpt lat="45.46355" lon="0.26696">
        <ele>99.859375</ele>
      </trkpt>
      <trkpt lat="45.46372" lon="0.26716">
        <ele>100.4765625</ele>
      </trkpt>
      <trkpt lat="45.46382" lon="0.26729">
        <ele>101.13671875</ele>
      </trkpt>
      <trkpt lat="45.46391" lon="0.26734">
        <ele>101.44921875</ele>
      </trkpt>
      <trkpt lat="45.46416" lon="0.26739">
        <ele>101.59765625</ele>
      </trkpt>
      <trkpt lat="45.46439" lon="0.26746">
        <ele>101.60546875</ele>
      </trkpt>
      <trkpt lat="45.46464" lon="0.26757">
        <ele>101.6484375</ele>
      </trkpt>
      <trkpt lat="45.4649" lon="0.26777">
        <ele>101.859375</ele>
      </trkpt>
      <trkpt lat="45.46521" lon="0.26805">
        <ele>101.40234375</ele>
      </trkpt>
      <trkpt lat="45.46546" lon="0.26844">
        <ele>101.41796875</ele>
      </trkpt>
      <trkpt lat="45.46566" lon="0.26874">
        <ele>101.05078125</ele>
      </trkpt>
      <trkpt lat="45.46579" lon="0.26901">
        <ele>102.23828125</ele>
      </trkpt>
      <trkpt lat="45.46606" lon="0.26933">
        <ele>102.8515625</ele>
      </trkpt>
      <trkpt lat="45.46625" lon="0.26956">
        <ele>103.9765625</ele>
      </trkpt>
      <trkpt lat="45.4664" lon="0.26966">
        <ele>104.7265625</ele>
      </trkpt>
      <trkpt lat="45.46662" lon="0.26969">
        <ele>104.95703125</ele>
      </trkpt>
      <trkpt lat="45.46746" lon="0.26944">
        <ele>106.2578125</ele>
      </trkpt>
      <trkpt lat="45.46805" lon="0.26933">
        <ele>105.98046875</ele>
      </trkpt>
      <trkpt lat="45.46853" lon="0.26939">
        <ele>105.78515625</ele>
      </trkpt>
      <trkpt lat="45.46922" lon="0.26958">
        <ele>108.0546875</ele>
      </trkpt>
      <trkpt lat="45.46937" lon="0.2696">
        <ele>108.80078125</ele>
      </trkpt>
      <trkpt lat="45.46948" lon="0.26904">
        <ele>106.4609375</ele>
      </trkpt>
      <trkpt lat="45.46963" lon="0.2682">
        <ele>106.20703125</ele>
      </trkpt>
      <trkpt lat="45.46972" lon="0.26767">
        <ele>107.8359375</ele>
      </trkpt>
      <trkpt lat="45.46992" lon="0.26711">
        <ele>109.5546875</ele>
      </trkpt>
      <trkpt lat="45.47017" lon="0.26652">
        <ele>111.12890625</ele>
      </trkpt>
      <trkpt lat="45.47041" lon="0.26594">
        <ele>112.62109375</ele>
      </trkpt>
      <trkpt lat="45.47043" lon="0.26588">
        <ele>112.75</ele>
      </trkpt>
      <trkpt lat="45.47081" lon="0.26609">
        <ele>112.984375</ele>
      </trkpt>
      <trkpt lat="45.47093" lon="0.26614">
        <ele>113.0078125</ele>
      </trkpt>
      <trkpt lat="45.47159" lon="0.26644">
        <ele>113.6953125</ele>
      </trkpt>
      <trkpt lat="45.47259" lon="0.26689">
        <ele>113.125</ele>
      </trkpt>
      <trkpt lat="45.4732" lon="0.26719">
        <ele>113.9375</ele>
      </trkpt>
      <trkpt lat="45.47408" lon="0.2677">
        <ele>114.8515625</ele>
      </trkpt>
      <trkpt lat="45.47451" lon="0.26794">
        <ele>114.2265625</ele>
      </trkpt>
      <trkpt lat="45.47473" lon="0.26811">
        <ele>113.67578125</ele>
      </trkpt>
      <trkpt lat="45.47485" lon="0.26822">
        <ele>113.51953125</ele>
      </trkpt>
      <trkpt lat="45.47498" lon="0.26836">
        <ele>113.5</ele>
      </trkpt>
      <trkpt lat="45.47509" lon="0.2685">
        <ele>113.40625</ele>
      </trkpt>
      <trkpt lat="45.47547" lon="0.26895">
        <ele>113.8125</ele>
      </trkpt>
      <trkpt lat="45.47588" lon="0.26951">
        <ele>115.44921875</ele>
      </trkpt>
      <trkpt lat="45.47586" lon="0.26924">
        <ele>114.89453125</ele>
      </trkpt>
      <trkpt lat="45.476" lon="0.26924">
        <ele>114.91015625</ele>
      </trkpt>
      <trkpt lat="45.47677" lon="0.26977">
        <ele>116.80078125</ele>
      </trkpt>
      <trkpt lat="45.47689" lon="0.26977">
        <ele>117.05859375</ele>
      </trkpt>
      <trkpt lat="45.47715" lon="0.26967">
        <ele>117.12109375</ele>
      </trkpt>
      <trkpt lat="45.4791" lon="0.26894">
        <ele>119.1015625</ele>
      </trkpt>
      <trkpt lat="45.47947" lon="0.26899">
        <ele>119.4375</ele>
      </trkpt>
      <trkpt lat="45.47971" lon="0.26908">
        <ele>119.765625</ele>
      </trkpt>
      <trkpt lat="45.47988" lon="0.26937">
        <ele>120.20703125</ele>
      </trkpt>
      <trkpt lat="45.4797" lon="0.26991">
        <ele>122.11328125</ele>
      </trkpt>
      <trkpt lat="45.48012" lon="0.27089">
        <ele>128.4765625</ele>
      </trkpt>
      <trkpt lat="45.48052" lon="0.27137">
        <ele>130.4765625</ele>
      </trkpt>
      <trkpt lat="45.48064" lon="0.27156">
        <ele>131.16015625</ele>
      </trkpt>
      <trkpt lat="45.48061" lon="0.2718">
        <ele>132.1015625</ele>
      </trkpt>
      <trkpt lat="45.48068" lon="0.27198">
        <ele>132.40625</ele>
      </trkpt>
      <trkpt lat="45.48078" lon="0.27225">
        <ele>132.87890625</ele>
      </trkpt>
      <trkpt lat="45.48047" lon="0.27246">
        <ele>134.52734375</ele>
      </trkpt>
      <trkpt lat="45.48041" lon="0.27253">
        <ele>134.7578125</ele>
      </trkpt>
      <trkpt lat="45.48041" lon="0.27268">
        <ele>135.2578125</ele>
      </trkpt>
      <trkpt lat="45.48042" lon="0.27309">
        <ele>136.734375</ele>
      </trkpt>
      <trkpt lat="45.48042" lon="0.2736">
        <ele>139.31640625</ele>
      </trkpt>
      <trkpt lat="45.48041" lon="0.27414">
        <ele>141.20703125</ele>
      </trkpt>
      <trkpt lat="45.48047" lon="0.27424">
        <ele>141.59375</ele>
      </trkpt>
      <trkpt lat="45.48066" lon="0.27478">
        <ele>144.69140625</ele>
      </trkpt>
      <trkpt lat="45.48089" lon="0.27535">
        <ele>146.3671875</ele>
      </trkpt>
      <trkpt lat="45.48113" lon="0.27593">
        <ele>147.7265625</ele>
      </trkpt>
      <trkpt lat="45.48119" lon="0.27606">
        <ele>147.98046875</ele>
      </trkpt>
      <trkpt lat="45.4813" lon="0.27616">
        <ele>147.86328125</ele>
      </trkpt>
      <trkpt lat="45.48152" lon="0.27627">
        <ele>147.7421875</ele>
      </trkpt>
      <trkpt lat="45.48165" lon="0.27642">
        <ele>147.875</ele>
      </trkpt>
      <trkpt lat="45.48177" lon="0.27738">
        <ele>149.45703125</ele>
      </trkpt>
      <trkpt lat="45.48183" lon="0.27746">
        <ele>149.48828125</ele>
      </trkpt>
      <trkpt lat="45.48188" lon="0.27746">
        <ele>149.32421875</ele>
      </trkpt>
      <trkpt lat="45.48193" lon="0.27739">
        <ele>148.984375</ele>
      </trkpt>
      <trkpt lat="45.48195" lon="0.27735">
        <ele>148.78515625</ele>
      </trkpt>
      <trkpt lat="45.48206" lon="0.27735">
        <ele>148.37890625</ele>
      </trkpt>
      <trkpt lat="45.48218" lon="0.27754">
        <ele>148.875</ele>
      </trkpt>
      <trkpt lat="45.48224" lon="0.27759">
        <ele>148.9609375</ele>
      </trkpt>
      <trkpt lat="45.48245" lon="0.27844">
        <ele>152.05078125</ele>
      </trkpt>
      <trkpt lat="45.48253" lon="0.27914">
        <ele>153.32421875</ele>
      </trkpt>
      <trkpt lat="45.48252" lon="0.27953">
        <ele>154.94921875</ele>
      </trkpt>
      <trkpt lat="45.48243" lon="0.27992">
        <ele>157.703125</ele>
      </trkpt>
      <trkpt lat="45.48228" lon="0.27994">
        <ele>158.1796875</ele>
      </trkpt>
      <trkpt lat="45.48204" lon="0.27998">
        <ele>157.484375</ele>
      </trkpt>
      <trkpt lat="45.48211" lon="0.28022">
        <ele>160.0703125</ele>
      </trkpt>
      <trkpt lat="45.48214" lon="0.2803">
        <ele>161.0625</ele>
      </trkpt>
      <trkpt lat="45.48228" lon="0.28042">
        <ele>163.37890625</ele>
      </trkpt>
      <trkpt lat="45.48232" lon="0.28084">
        <ele>167.828125</ele>
      </trkpt>
      <trkpt lat="45.48246" lon="0.28137">
        <ele>175.15234375</ele>
      </trkpt>
      <trkpt lat="45.4827" lon="0.28179">
        <ele>180.34765625</ele>
      </trkpt>
      <trkpt lat="45.48329" lon="0.28209">
        <ele>184.08984375</ele>
      </trkpt>
      <trkpt lat="45.48358" lon="0.2822">
        <ele>184.03515625</ele>
      </trkpt>
      <trkpt lat="45.48359" lon="0.28227">
        <ele>184.19921875</ele>
      </trkpt>
      <trkpt lat="45.48381" lon="0.28237">
        <ele>184.2578125</ele>
      </trkpt>
      <trkpt lat="45.48415" lon="0.28239">
        <ele>183.37890625</ele>
      </trkpt>
      <trkpt lat="45.48457" lon="0.28237">
        <ele>180.98828125</ele>
      </trkpt>
      <trkpt lat="45.48476" lon="0.28243">
        <ele>178.83203125</ele>
      </trkpt>
      <trkpt lat="45.48499" lon="0.28263">
        <ele>176.8828125</ele>
      </trkpt>
      <trkpt lat="45.48508" lon="0.28283">
        <ele>175.3515625</ele>
      </trkpt>
      <trkpt lat="45.48505" lon="0.28314">
        <ele>175.125</ele>
      </trkpt>
      <trkpt lat="45.48509" lon="0.28331">
        <ele>172.8046875</ele>
      </trkpt>
      <trkpt lat="45.48532" lon="0.28357">
        <ele>167.875</ele>
      </trkpt>
      <trkpt lat="45.4855" lon="0.2839">
        <ele>164.64453125</ele>
      </trkpt>
      <trkpt lat="45.48563" lon="0.28418">
        <ele>163.2578125</ele>
      </trkpt>
      <trkpt lat="45.48571" lon="0.28445">
        <ele>161.1796875</ele>
      </trkpt>
      <trkpt lat="45.48562" lon="0.28463">
        <ele>160.40234375</ele>
      </trkpt>
      <trkpt lat="45.4856" lon="0.28491">
        <ele>158.29296875</ele>
      </trkpt>
      <trkpt lat="45.48563" lon="0.28562">
        <ele>154.1796875</ele>
      </trkpt>
      <trkpt lat="45.48539" lon="0.28902">
        <ele>142.04296875</ele>
      </trkpt>
      <trkpt lat="45.48526" lon="0.29055">
        <ele>135.79296875</ele>
      </trkpt>
      <trkpt lat="45.48527" lon="0.29115">
        <ele>134.1171875</ele>
      </trkpt>
      <trkpt lat="45.4854" lon="0.29223">
        <ele>133.81640625</ele>
      </trkpt>
      <trkpt lat="45.48546" lon="0.29327">
        <ele>133.98828125</ele>
      </trkpt>
      <trkpt lat="45.48547" lon="0.29452">
        <ele>132.33984375</ele>
      </trkpt>
      <trkpt lat="45.48542" lon="0.29514">
        <ele>131.328125</ele>
      </trkpt>
      <trkpt lat="45.4852" lon="0.29596">
        <ele>128.5</ele>
      </trkpt>
      <trkpt lat="45.48488" lon="0.29709">
        <ele>126.24609375</ele>
      </trkpt>
      <trkpt lat="45.48539" lon="0.29733">
        <ele>127.91796875</ele>
      </trkpt>
      <trkpt lat="45.48583" lon="0.29755">
        <ele>128.18359375</ele>
      </trkpt>
      <trkpt lat="45.4861" lon="0.29766">
        <ele>127.69140625</ele>
      </trkpt>
      <trkpt lat="45.48638" lon="0.29769">
        <ele>126.4140625</ele>
      </trkpt>
      <trkpt lat="45.4866" lon="0.29759">
        <ele>125.76171875</ele>
      </trkpt>
      <trkpt lat="45.48723" lon="0.29714">
        <ele>126.58203125</ele>
      </trkpt>
      <trkpt lat="45.48781" lon="0.29687">
        <ele>127.3515625</ele>
      </trkpt>
      <trkpt lat="45.48807" lon="0.29679">
        <ele>127.4609375</ele>
      </trkpt>
      <trkpt lat="45.48827" lon="0.29673">
        <ele>127.56640625</ele>
      </trkpt>
      <trkpt lat="45.48894" lon="0.29577">
        <ele>127.58984375</ele>
      </trkpt>
      <trkpt lat="45.48941" lon="0.29511">
        <ele>126.5390625</ele>
      </trkpt>
      <trkpt lat="45.49004" lon="0.29429">
        <ele>121.1875</ele>
      </trkpt>
      <trkpt lat="45.49019" lon="0.29422">
        <ele>120.37890625</ele>
      </trkpt>
      <trkpt lat="45.49023" lon="0.29429">
        <ele>120.1328125</ele>
      </trkpt>
      <trkpt lat="45.49044" lon="0.29426">
        <ele>118.9765625</ele>
      </trkpt>
      <trkpt lat="45.49085" lon="0.29433">
        <ele>117.4140625</ele>
      </trkpt>
      <trkpt lat="45.49133" lon="0.29447">
        <ele>116.046875</ele>
      </trkpt>
      <trkpt lat="45.49183" lon="0.29426">
        <ele>117.0390625</ele>
      </trkpt>
      <trkpt lat="45.49236" lon="0.29411">
        <ele>118.05078125</ele>
      </trkpt>
      <trkpt lat="45.4928" lon="0.29411">
        <ele>119.45703125</ele>
      </trkpt>
      <trkpt lat="45.49309" lon="0.29408">
        <ele>118.4765625</ele>
      </trkpt>
      <trkpt lat="45.49365" lon="0.29387">
        <ele>117.30078125</ele>
      </trkpt>
      <trkpt lat="45.49438" lon="0.29367">
        <ele>116.82421875</ele>
      </trkpt>
      <trkpt lat="45.49481" lon="0.2935">
        <ele>116.1953125</ele>
      </trkpt>
      <trkpt lat="45.49555" lon="0.29342">
        <ele>111.25390625</ele>
      </trkpt>
      <trkpt lat="45.49631" lon="0.2934">
        <ele>107.1796875</ele>
      </trkpt>
      <trkpt lat="45.49685" lon="0.29342">
        <ele>104.87890625</ele>
      </trkpt>
      <trkpt lat="45.49703" lon="0.2935">
        <ele>104.1171875</ele>
      </trkpt>
      <trkpt lat="45.49756" lon="0.29342">
        <ele>104.0546875</ele>
      </trkpt>
      <trkpt lat="45.49768" lon="0.29342">
        <ele>104.0546875</ele>
      </trkpt>
      <trkpt lat="45.49795" lon="0.29359">
        <ele>103.37890625</ele>
      </trkpt>
      <trkpt lat="45.49819" lon="0.29355">
        <ele>103.3828125</ele>
      </trkpt>
      <trkpt lat="45.49873" lon="0.2933">
        <ele>103.28125</ele>
      </trkpt>
      <trkpt lat="45.49904" lon="0.29307">
        <ele>103.25</ele>
      </trkpt>
      <trkpt lat="45.49924" lon="0.29295">
        <ele>103.33984375</ele>
      </trkpt>
      <trkpt lat="45.49922" lon="0.29315">
        <ele>103.01171875</ele>
      </trkpt>
      <trkpt lat="45.49936" lon="0.29325">
        <ele>103.12890625</ele>
      </trkpt>
      <trkpt lat="45.50007" lon="0.29371">
        <ele>111.12890625</ele>
      </trkpt>
      <trkpt lat="45.50042" lon="0.29319">
        <ele>111.51953125</ele>
      </trkpt>
      <trkpt lat="45.50068" lon="0.29288">
        <ele>111.12109375</ele>
      </trkpt>
      <trkpt lat="45.50092" lon="0.29271">
        <ele>111.22265625</ele>
      </trkpt>
      <trkpt lat="45.50119" lon="0.29263">
        <ele>112.49609375</ele>
      </trkpt>
      <trkpt lat="45.50182" lon="0.29254">
        <ele>112.92578125</ele>
      </trkpt>
      <trkpt lat="45.50211" lon="0.29241">
        <ele>110.89453125</ele>
      </trkpt>
      <trkpt lat="45.50235" lon="0.29225">
        <ele>109.82421875</ele>
      </trkpt>
      <trkpt lat="45.50253" lon="0.29235">
        <ele>111.33203125</ele>
      </trkpt>
      <trkpt lat="45.50262" lon="0.29251">
        <ele>112.703125</ele>
      </trkpt>
      <trkpt lat="45.50279" lon="0.2929">
        <ele>113.5625</ele>
      </trkpt>
      <trkpt lat="45.5029" lon="0.2933">
        <ele>114.12890625</ele>
      </trkpt>
      <trkpt lat="45.50298" lon="0.29356">
        <ele>114.92578125</ele>
      </trkpt>
      <trkpt lat="45.50312" lon="0.29374">
        <ele>115.63671875</ele>
      </trkpt>
      <trkpt lat="45.50333" lon="0.2939">
        <ele>116.25</ele>
      </trkpt>
      <trkpt lat="45.50356" lon="0.29404">
        <ele>118.1015625</ele>
      </trkpt>
      <trkpt lat="45.50367" lon="0.29417">
        <ele>118.953125</ele>
      </trkpt>
      <trkpt lat="45.50386" lon="0.2947">
        <ele>120.10546875</ele>
      </trkpt>
      <trkpt lat="45.50409" lon="0.29504">
        <ele>122.04296875</ele>
      </trkpt>
      <trkpt lat="45.50428" lon="0.29541">
        <ele>124.01171875</ele>
      </trkpt>
      <trkpt lat="45.50442" lon="0.29591">
        <ele>124.61328125</ele>
      </trkpt>
      <trkpt lat="45.50461" lon="0.29659">
        <ele>125.8125</ele>
      </trkpt>
      <trkpt lat="45.50481" lon="0.29719">
        <ele>127.5</ele>
      </trkpt>
      <trkpt lat="45.50491" lon="0.29743">
        <ele>128.65625</ele>
      </trkpt>
      <trkpt lat="45.50511" lon="0.29777">
        <ele>130.95703125</ele>
      </trkpt>
      <trkpt lat="45.50536" lon="0.29806">
        <ele>133.296875</ele>
      </trkpt>
      <trkpt lat="45.50566" lon="0.29832">
        <ele>135.6171875</ele>
      </trkpt>
      <trkpt lat="45.50596" lon="0.29855">
        <ele>138.0625</ele>
      </trkpt>
      <trkpt lat="45.50635" lon="0.29877">
        <ele>140.83984375</ele>
      </trkpt>
      <trkpt lat="45.50672" lon="0.29899">
        <ele>143.0078125</ele>
      </trkpt>
      <trkpt lat="45.50699" lon="0.29917">
        <ele>143.2578125</ele>
      </trkpt>
      <trkpt lat="45.50729" lon="0.29948">
        <ele>143.73828125</ele>
      </trkpt>
      <trkpt lat="45.50756" lon="0.29981">
        <ele>143.9375</ele>
      </trkpt>
      <trkpt lat="45.50771" lon="0.29995">
        <ele>143.66796875</ele>
      </trkpt>
      <trkpt lat="45.50779" lon="0.29999">
        <ele>143.453125</ele>
      </trkpt>
      <trkpt lat="45.50783" lon="0.30006">
        <ele>143.41796875</ele>
      </trkpt>
      <trkpt lat="45.50902" lon="0.30055">
        <ele>140.046875</ele>
      </trkpt>
      <trkpt lat="45.51001" lon="0.30098">
        <ele>133.96484375</ele>
      </trkpt>
      <trkpt lat="45.50981" lon="0.30178">
        <ele>133.5859375</ele>
      </trkpt>
      <trkpt lat="45.50978" lon="0.30273">
        <ele>136.6953125</ele>
      </trkpt>
      <trkpt lat="45.50933" lon="0.3048">
        <ele>133.62890625</ele>
      </trkpt>
      <trkpt lat="45.50896" lon="0.30648">
        <ele>138.87109375</ele>
      </trkpt>
      <trkpt lat="45.5091" lon="0.30653">
        <ele>137.63671875</ele>
      </trkpt>
      <trkpt lat="45.5098" lon="0.30651">
        <ele>132.75390625</ele>
      </trkpt>
      <trkpt lat="45.51027" lon="0.3068">
        <ele>129.3046875</ele>
      </trkpt>
      <trkpt lat="45.51076" lon="0.30705">
        <ele>128.3359375</ele>
      </trkpt>
      <trkpt lat="45.51099" lon="0.30713">
        <ele>129.13671875</ele>
      </trkpt>
      <trkpt lat="45.51152" lon="0.30674">
        <ele>130.58984375</ele>
      </trkpt>
      <trkpt lat="45.51202" lon="0.30635">
        <ele>133.671875</ele>
      </trkpt>
      <trkpt lat="45.51226" lon="0.30617">
        <ele>135.19921875</ele>
      </trkpt>
      <trkpt lat="45.51245" lon="0.30608">
        <ele>136.1328125</ele>
      </trkpt>
      <trkpt lat="45.5128" lon="0.30604">
        <ele>138.4140625</ele>
      </trkpt>
      <trkpt lat="45.5134" lon="0.306">
        <ele>140.26171875</ele>
      </trkpt>
      <trkpt lat="45.51378" lon="0.30612">
        <ele>140.6953125</ele>
      </trkpt>
      <trkpt lat="45.51403" lon="0.30627">
        <ele>140.890625</ele>
      </trkpt>
      <trkpt lat="45.51452" lon="0.30665">
        <ele>140.18359375</ele>
      </trkpt>
      <trkpt lat="45.5148" lon="0.30692">
        <ele>139.55859375</ele>
      </trkpt>
      <trkpt lat="45.51495" lon="0.30706">
        <ele>139.40625</ele>
      </trkpt>
      <trkpt lat="45.51518" lon="0.30689">
        <ele>138.01171875</ele>
      </trkpt>
      <trkpt lat="45.51545" lon="0.30654">
        <ele>135.77734375</ele>
      </trkpt>
      <trkpt lat="45.51572" lon="0.30618">
        <ele>133.69921875</ele>
      </trkpt>
      <trkpt lat="45.51612" lon="0.3057">
        <ele>130.87109375</ele>
      </trkpt>
      <trkpt lat="45.51649" lon="0.30525">
        <ele>128.33984375</ele>
      </trkpt>
      <trkpt lat="45.51676" lon="0.30486">
        <ele>125.90234375</ele>
      </trkpt>
      <trkpt lat="45.517" lon="0.30461">
        <ele>122.30859375</ele>
      </trkpt>
      <trkpt lat="45.5171" lon="0.30458">
        <ele>121.37890625</ele>
      </trkpt>
      <trkpt lat="45.51741" lon="0.30509">
        <ele>122.17578125</ele>
      </trkpt>
      <trkpt lat="45.51758" lon="0.30558">
        <ele>121.83203125</ele>
      </trkpt>
      <trkpt lat="45.51773" lon="0.30601">
        <ele>120.3359375</ele>
      </trkpt>
      <trkpt lat="45.51789" lon="0.30635">
        <ele>119.44140625</ele>
      </trkpt>
      <trkpt lat="45.51804" lon="0.3066">
        <ele>118.92578125</ele>
      </trkpt>
      <trkpt lat="45.51818" lon="0.30665">
        <ele>118.2890625</ele>
      </trkpt>
      <trkpt lat="45.51841" lon="0.30663">
        <ele>117.328125</ele>
      </trkpt>
      <trkpt lat="45.51841" lon="0.30695">
        <ele>117.90234375</ele>
      </trkpt>
      <trkpt lat="45.51837" lon="0.30726">
        <ele>119.24609375</ele>
      </trkpt>
      <trkpt lat="45.51834" lon="0.30741">
        <ele>120.13671875</ele>
      </trkpt>
      <trkpt lat="45.51834" lon="0.30767">
        <ele>121.33203125</ele>
      </trkpt>
      <trkpt lat="45.51828" lon="0.30789">
        <ele>122.171875</ele>
      </trkpt>
      <trkpt lat="45.5182" lon="0.30821">
        <ele>123.21875</ele>
      </trkpt>
      <trkpt lat="45.51831" lon="0.30824">
        <ele>123.3359375</ele>
      </trkpt>
      <trkpt lat="45.51838" lon="0.30825">
        <ele>123.3671875</ele>
      </trkpt>
      <trkpt lat="45.51844" lon="0.30821">
        <ele>123.8046875</ele>
      </trkpt>
      <trkpt lat="45.51859" lon="0.3081">
        <ele>124.6640625</ele>
      </trkpt>
      <trkpt lat="45.51881" lon="0.30795">
        <ele>125.3046875</ele>
      </trkpt>
      <trkpt lat="45.51893" lon="0.30791">
        <ele>125.8125</ele>
      </trkpt>
      <trkpt lat="45.51922" lon="0.30793">
        <ele>125.6875</ele>
      </trkpt>
      <trkpt lat="45.51945" lon="0.30796">
        <ele>125.69921875</ele>
      </trkpt>
      <trkpt lat="45.5196" lon="0.30801">
        <ele>125.66796875</ele>
      </trkpt>
      <trkpt lat="45.5198" lon="0.30808">
        <ele>125.5546875</ele>
      </trkpt>
      <trkpt lat="45.52009" lon="0.30818">
        <ele>125.3203125</ele>
      </trkpt>
      <trkpt lat="45.52049" lon="0.30825">
        <ele>124.6796875</ele>
      </trkpt>
      <trkpt lat="45.52181" lon="0.30823">
        <ele>122.36328125</ele>
      </trkpt>
      <trkpt lat="45.522" lon="0.30836">
        <ele>122.45703125</ele>
      </trkpt>
      <trkpt lat="45.52222" lon="0.30854">
        <ele>122.3984375</ele>
      </trkpt>
      <trkpt lat="45.52245" lon="0.30898">
        <ele>122.9765625</ele>
      </trkpt>
      <trkpt lat="45.52261" lon="0.30934">
        <ele>123.3046875</ele>
      </trkpt>
      <trkpt lat="45.52273" lon="0.30951">
        <ele>122.9296875</ele>
      </trkpt>
      <trkpt lat="45.52299" lon="0.30955">
        <ele>123.30859375</ele>
      </trkpt>
      <trkpt lat="45.52329" lon="0.30968">
        <ele>125.125</ele>
      </trkpt>
      <trkpt lat="45.5235" lon="0.30973">
        <ele>126.6171875</ele>
      </trkpt>
      <trkpt lat="45.52423" lon="0.30957">
        <ele>130.828125</ele>
      </trkpt>
      <trkpt lat="45.52453" lon="0.30959">
        <ele>132.6015625</ele>
      </trkpt>
      <trkpt lat="45.52464" lon="0.3097">
        <ele>133.8359375</ele>
      </trkpt>
      <trkpt lat="45.52483" lon="0.30973">
        <ele>134.77734375</ele>
      </trkpt>
      <trkpt lat="45.52506" lon="0.30973">
        <ele>135.4296875</ele>
      </trkpt>
      <trkpt lat="45.52552" lon="0.30977">
        <ele>133.23828125</ele>
      </trkpt>
      <trkpt lat="45.52571" lon="0.30989">
        <ele>132.15625</ele>
      </trkpt>
      <trkpt lat="45.52593" lon="0.31007">
        <ele>130.62109375</ele>
      </trkpt>
      <trkpt lat="45.52608" lon="0.31016">
        <ele>129.4765625</ele>
      </trkpt>
      <trkpt lat="45.52623" lon="0.31001">
        <ele>129.19140625</ele>
      </trkpt>
      <trkpt lat="45.52667" lon="0.30957">
        <ele>129.5078125</ele>
      </trkpt>
      <trkpt lat="45.52695" lon="0.30932">
        <ele>130.03125</ele>
      </trkpt>
      <trkpt lat="45.52747" lon="0.30906">
        <ele>131.09765625</ele>
      </trkpt>
      <trkpt lat="45.52779" lon="0.30889">
        <ele>131.9140625</ele>
      </trkpt>
      <trkpt lat="45.52779" lon="0.30904">
        <ele>132.6953125</ele>
      </trkpt>
      <trkpt lat="45.5279" lon="0.30946">
        <ele>135.2109375</ele>
      </trkpt>
      <trkpt lat="45.52799" lon="0.30979">
        <ele>137.43359375</ele>
      </trkpt>
      <trkpt lat="45.5281" lon="0.31023">
        <ele>141.91796875</ele>
      </trkpt>
      <trkpt lat="45.52821" lon="0.3106">
        <ele>146.703125</ele>
      </trkpt>
      <trkpt lat="45.52834" lon="0.31094">
        <ele>151.75390625</ele>
      </trkpt>
      <trkpt lat="45.52842" lon="0.31117">
        <ele>154.99609375</ele>
      </trkpt>
      <trkpt lat="45.52849" lon="0.31142">
        <ele>158.40234375</ele>
      </trkpt>
      <trkpt lat="45.52856" lon="0.31166">
        <ele>161.1484375</ele>
      </trkpt>
      <trkpt lat="45.52869" lon="0.31194">
        <ele>164.65234375</ele>
      </trkpt>
      <trkpt lat="45.5288" lon="0.31219">
        <ele>166.9765625</ele>
      </trkpt>
      <trkpt lat="45.52895" lon="0.31241">
        <ele>168.84765625</ele>
      </trkpt>
      <trkpt lat="45.52911" lon="0.31258">
        <ele>170.30859375</ele>
      </trkpt>
      <trkpt lat="45.52921" lon="0.31269">
        <ele>171.06640625</ele>
      </trkpt>
      <trkpt lat="45.52938" lon="0.3129">
        <ele>172.296875</ele>
      </trkpt>
      <trkpt lat="45.52953" lon="0.31308">
        <ele>173.08203125</ele>
      </trkpt>
      <trkpt lat="45.52969" lon="0.31303">
        <ele>173.3671875</ele>
      </trkpt>
      <trkpt lat="45.52979" lon="0.31299">
        <ele>173.55078125</ele>
      </trkpt>
      <trkpt lat="45.52984" lon="0.31299">
        <ele>173.640625</ele>
      </trkpt>
      <trkpt lat="45.52998" lon="0.31306">
        <ele>173.890625</ele>
      </trkpt>
      <trkpt lat="45.53006" lon="0.31315">
        <ele>174.0703125</ele>
      </trkpt>
      <trkpt lat="45.53021" lon="0.31334">
        <ele>174.62109375</ele>
      </trkpt>
      <trkpt lat="45.53037" lon="0.31326">
        <ele>175.21484375</ele>
      </trkpt>
      <trkpt lat="45.53054" lon="0.31314">
        <ele>175.81640625</ele>
      </trkpt>
      <trkpt lat="45.53067" lon="0.31308">
        <ele>175.87890625</ele>
      </trkpt>
      <trkpt lat="45.53084" lon="0.31304">
        <ele>175.97265625</ele>
      </trkpt>
      <trkpt lat="45.53105" lon="0.31313">
        <ele>176.74609375</ele>
      </trkpt>
      <trkpt lat="45.53126" lon="0.3132">
        <ele>177.30859375</ele>
      </trkpt>
      <trkpt lat="45.53157" lon="0.31335">
        <ele>178.1484375</ele>
      </trkpt>
      <trkpt lat="45.53183" lon="0.31346">
        <ele>178.578125</ele>
      </trkpt>
      <trkpt lat="45.53206" lon="0.31357">
        <ele>178.76171875</ele>
      </trkpt>
      <trkpt lat="45.53224" lon="0.31364">
        <ele>178.8984375</ele>
      </trkpt>
      <trkpt lat="45.53236" lon="0.31369">
        <ele>178.98046875</ele>
      </trkpt>
      <trkpt lat="45.53253" lon="0.31384">
        <ele>179.26171875</ele>
      </trkpt>
      <trkpt lat="45.53259" lon="0.31388">
        <ele>179.328125</ele>
      </trkpt>
      <trkpt lat="45.53264" lon="0.31386">
        <ele>179.296875</ele>
      </trkpt>
      <trkpt lat="45.53269" lon="0.31378">
        <ele>179.15625</ele>
      </trkpt>
      <trkpt lat="45.53281" lon="0.31356">
        <ele>178.74609375</ele>
      </trkpt>
      <trkpt lat="45.53288" lon="0.31341">
        <ele>178.421875</ele>
      </trkpt>
      <trkpt lat="45.53296" lon="0.31329">
        <ele>178.1953125</ele>
      </trkpt>
      <trkpt lat="45.53312" lon="0.31328">
        <ele>178.109375</ele>
      </trkpt>
      <trkpt lat="45.5334" lon="0.31324">
        <ele>177.8984375</ele>
      </trkpt>
      <trkpt lat="45.53357" lon="0.31323">
        <ele>177.40234375</ele>
      </trkpt>
      <trkpt lat="45.53362" lon="0.31323">
        <ele>177.21875</ele>
      </trkpt>
      <trkpt lat="45.53382" lon="0.31323">
        <ele>176.6484375</ele>
      </trkpt>
      <trkpt lat="45.53405" lon="0.31327">
        <ele>176.2265625</ele>
      </trkpt>
      <trkpt lat="45.53429" lon="0.31335">
        <ele>176.078125</ele>
      </trkpt>
      <trkpt lat="45.53453" lon="0.31347">
        <ele>175.8515625</ele>
      </trkpt>
      <trkpt lat="45.53478" lon="0.31363">
        <ele>174.625</ele>
      </trkpt>
      <trkpt lat="45.53494" lon="0.31373">
        <ele>173.73828125</ele>
      </trkpt>
      <trkpt lat="45.53507" lon="0.31384">
        <ele>173.26171875</ele>
      </trkpt>
      <trkpt lat="45.53524" lon="0.31395">
        <ele>172.63671875</ele>
      </trkpt>
      <trkpt lat="45.5354" lon="0.31394">
        <ele>171.515625</ele>
      </trkpt>
      <trkpt lat="45.53549" lon="0.31389">
        <ele>170.67578125</ele>
      </trkpt>
      <trkpt lat="45.53569" lon="0.31377">
        <ele>168.48828125</ele>
      </trkpt>
      <trkpt lat="45.53592" lon="0.31363">
        <ele>165.46875</ele>
      </trkpt>
      <trkpt lat="45.5361" lon="0.31353">
        <ele>162.90234375</ele>
      </trkpt>
      <trkpt lat="45.53622" lon="0.31345">
        <ele>161.18359375</ele>
      </trkpt>
      <trkpt lat="45.53629" lon="0.31336">
        <ele>159.78125</ele>
      </trkpt>
      <trkpt lat="45.53645" lon="0.31318">
        <ele>157.1015625</ele>
      </trkpt>
      <trkpt lat="45.53655" lon="0.31273">
        <ele>152.1328125</ele>
      </trkpt>
      <trkpt lat="45.53658" lon="0.31256">
        <ele>150.42578125</ele>
      </trkpt>
      <trkpt lat="45.53664" lon="0.312">
        <ele>146.02734375</ele>
      </trkpt>
      <trkpt lat="45.53674" lon="0.3115">
        <ele>145.11328125</ele>
      </trkpt>
      <trkpt lat="45.53674" lon="0.31076">
        <ele>144.40625</ele>
      </trkpt>
      <trkpt lat="45.53675" lon="0.30994">
        <ele>145.77734375</ele>
      </trkpt>
      <trkpt lat="45.53676" lon="0.30977">
        <ele>146.14453125</ele>
      </trkpt>
      <trkpt lat="45.53679" lon="0.30965">
        <ele>146.52734375</ele>
      </trkpt>
      <trkpt lat="45.5369" lon="0.30946">
        <ele>147.05078125</ele>
      </trkpt>
      <trkpt lat="45.53702" lon="0.30926">
        <ele>147.40625</ele>
      </trkpt>
      <trkpt lat="45.53712" lon="0.30913">
        <ele>147.953125</ele>
      </trkpt>
      <trkpt lat="45.53717" lon="0.30896">
        <ele>148.734375</ele>
      </trkpt>
      <trkpt lat="45.53722" lon="0.3088">
        <ele>149.5234375</ele>
      </trkpt>
      <trkpt lat="45.53723" lon="0.30871">
        <ele>150.00390625</ele>
      </trkpt>
      <trkpt lat="45.53722" lon="0.30858">
        <ele>151.1328125</ele>
      </trkpt>
      <trkpt lat="45.53721" lon="0.30837">
        <ele>153.05078125</ele>
      </trkpt>
      <trkpt lat="45.53751" lon="0.30808">
        <ele>155.49609375</ele>
      </trkpt>
      <trkpt lat="45.53806" lon="0.30765">
        <ele>158.57421875</ele>
      </trkpt>
      <trkpt lat="45.53842" lon="0.30738">
        <ele>161.3671875</ele>
      </trkpt>
      <trkpt lat="45.53869" lon="0.30717">
        <ele>163.7109375</ele>
      </trkpt>
      <trkpt lat="45.53909" lon="0.30697">
        <ele>166.5546875</ele>
      </trkpt>
      <trkpt lat="45.53992" lon="0.30665">
        <ele>174.2734375</ele>
      </trkpt>
      <trkpt lat="45.54032" lon="0.30649">
        <ele>177.88671875</ele>
      </trkpt>
      <trkpt lat="45.5409" lon="0.30617">
        <ele>182.9375</ele>
      </trkpt>
      <trkpt lat="45.54124" lon="0.30594">
        <ele>186.07421875</ele>
      </trkpt>
      <trkpt lat="45.54124" lon="0.30644">
        <ele>181.51171875</ele>
      </trkpt>
      <trkpt lat="45.54127" lon="0.30676">
        <ele>178.484375</ele>
      </trkpt>
      <trkpt lat="45.54122" lon="0.30728">
        <ele>173.6875</ele>
      </trkpt>
      <trkpt lat="45.54115" lon="0.30798">
        <ele>173.18359375</ele>
      </trkpt>
      <trkpt lat="45.54101" lon="0.30837">
        <ele>174.8125</ele>
      </trkpt>
      <trkpt lat="45.5408" lon="0.30886">
        <ele>177.29296875</ele>
      </trkpt>
      <trkpt lat="45.54057" lon="0.30904">
        <ele>177.33984375</ele>
      </trkpt>
      <trkpt lat="45.54026" lon="0.30929">
        <ele>178.05859375</ele>
      </trkpt>
      <trkpt lat="45.54006" lon="0.3095">
        <ele>178.875</ele>
      </trkpt>
      <trkpt lat="45.54" lon="0.30968">
        <ele>179.89453125</ele>
      </trkpt>
      <trkpt lat="45.54002" lon="0.31013">
        <ele>183.19921875</ele>
      </trkpt>
      <trkpt lat="45.54004" lon="0.31069">
        <ele>186.2109375</ele>
      </trkpt>
      <trkpt lat="45.54005" lon="0.31125">
        <ele>187.12109375</ele>
      </trkpt>
      <trkpt lat="45.54006" lon="0.31158">
        <ele>187.0078125</ele>
      </trkpt>
      <trkpt lat="45.54022" lon="0.31238">
        <ele>185.484375</ele>
      </trkpt>
      <trkpt lat="45.54023" lon="0.31289">
        <ele>182.50390625</ele>
      </trkpt>
      <trkpt lat="45.54019" lon="0.31329">
        <ele>179.59375</ele>
      </trkpt>
      <trkpt lat="45.54019" lon="0.31354">
        <ele>178.29296875</ele>
      </trkpt>
      <trkpt lat="45.54012" lon="0.31376">
        <ele>176.4296875</ele>
      </trkpt>
      <trkpt lat="45.53996" lon="0.314">
        <ele>173.26171875</ele>
      </trkpt>
      <trkpt lat="45.53991" lon="0.31413">
        <ele>171.98828125</ele>
      </trkpt>
      <trkpt lat="45.53972" lon="0.31443">
        <ele>168.828125</ele>
      </trkpt>
      <trkpt lat="45.53966" lon="0.31456">
        <ele>167.63671875</ele>
      </trkpt>
      <trkpt lat="45.53959" lon="0.31469">
        <ele>166.4609375</ele>
      </trkpt>
      <trkpt lat="45.53957" lon="0.31474">
        <ele>166.02734375</ele>
      </trkpt>
      <trkpt lat="45.53958" lon="0.31477">
        <ele>165.98046875</ele>
      </trkpt>
      <trkpt lat="45.53967" lon="0.3148">
        <ele>166.43359375</ele>
      </trkpt>
      <trkpt lat="45.53983" lon="0.31476">
        <ele>167.7890625</ele>
      </trkpt>
      <trkpt lat="45.54002" lon="0.31472">
        <ele>169.3984375</ele>
      </trkpt>
      <trkpt lat="45.54002" lon="0.31475">
        <ele>169.24609375</ele>
      </trkpt>
      <trkpt lat="45.54012" lon="0.31479">
        <ele>169.76171875</ele>
      </trkpt>
      <trkpt lat="45.54022" lon="0.31482">
        <ele>170.2890625</ele>
      </trkpt>
      <trkpt lat="45.54031" lon="0.31483">
        <ele>170.9140625</ele>
      </trkpt>
      <trkpt lat="45.54055" lon="0.31485">
        <ele>172.47265625</ele>
      </trkpt>
      <trkpt lat="45.54083" lon="0.31489">
        <ele>174.625</ele>
      </trkpt>
      <trkpt lat="45.54095" lon="0.31491">
        <ele>175.57421875</ele>
      </trkpt>
      <trkpt lat="45.54126" lon="0.31489">
        <ele>178.2265625</ele>
      </trkpt>
      <trkpt lat="45.54136" lon="0.31492">
        <ele>178.73828125</ele>
      </trkpt>
      <trkpt lat="45.54154" lon="0.31495">
        <ele>179.8203125</ele>
      </trkpt>
      <trkpt lat="45.54159" lon="0.31496">
        <ele>180.1015625</ele>
      </trkpt>
      <trkpt lat="45.54174" lon="0.31491">
        <ele>181.72265625</ele>
      </trkpt>
      <trkpt lat="45.54195" lon="0.31494">
        <ele>183.484375</ele>
      </trkpt>
      <trkpt lat="45.54213" lon="0.31494">
        <ele>185.13671875</ele>
      </trkpt>
      <trkpt lat="45.54226" lon="0.31493">
        <ele>186.453125</ele>
      </trkpt>
      <trkpt lat="45.54243" lon="0.31493">
        <ele>187.93359375</ele>
      </trkpt>
      <trkpt lat="45.54264" lon="0.3149">
        <ele>190.0546875</ele>
      </trkpt>
      <trkpt lat="45.54279" lon="0.31485">
        <ele>191.59375</ele>
      </trkpt>
      <trkpt lat="45.54294" lon="0.31481">
        <ele>192.9296875</ele>
      </trkpt>
      <trkpt lat="45.54309" lon="0.31479">
        <ele>194.14453125</ele>
      </trkpt>
      <trkpt lat="45.5432" lon="0.31477">
        <ele>195.04296875</ele>
      </trkpt>
      <trkpt lat="45.54324" lon="0.31477">
        <ele>195.35546875</ele>
      </trkpt>
      <trkpt lat="45.5433" lon="0.31478">
        <ele>195.7421875</ele>
      </trkpt>
      <trkpt lat="45.54342" lon="0.31475">
        <ele>196.50390625</ele>
      </trkpt>
      <trkpt lat="45.54352" lon="0.31473">
        <ele>196.99609375</ele>
      </trkpt>
      <trkpt lat="45.54365" lon="0.31467">
        <ele>197.8203125</ele>
      </trkpt>
      <trkpt lat="45.54379" lon="0.31462">
        <ele>198.5703125</ele>
      </trkpt>
      <trkpt lat="45.54395" lon="0.31457">
        <ele>199.375</ele>
      </trkpt>
      <trkpt lat="45.54407" lon="0.31455">
        <ele>199.8359375</ele>
      </trkpt>
      <trkpt lat="45.54419" lon="0.31455">
        <ele>200.1796875</ele>
      </trkpt>
      <trkpt lat="45.54428" lon="0.31453">
        <ele>200.49609375</ele>
      </trkpt>
      <trkpt lat="45.54441" lon="0.31447">
        <ele>201.046875</ele>
      </trkpt>
      <trkpt lat="45.54448" lon="0.31444">
        <ele>201.33984375</ele>
      </trkpt>
      <trkpt lat="45.54461" lon="0.31433">
        <ele>202.171875</ele>
      </trkpt>
      <trkpt lat="45.54472" lon="0.31425">
        <ele>202.890625</ele>
      </trkpt>
      <trkpt lat="45.54479" lon="0.3142">
        <ele>203.35546875</ele>
      </trkpt>
      <trkpt lat="45.54493" lon="0.31405">
        <ele>204.37109375</ele>
      </trkpt>
      <trkpt lat="45.54504" lon="0.31394">
        <ele>205.1484375</ele>
      </trkpt>
      <trkpt lat="45.54532" lon="0.31368">
        <ele>206.03125</ele>
      </trkpt>
      <trkpt lat="45.5455" lon="0.31352">
        <ele>206.3125</ele>
      </trkpt>
      <trkpt lat="45.54574" lon="0.31334">
        <ele>206.9375</ele>
      </trkpt>
      <trkpt lat="45.54601" lon="0.31321">
        <ele>207.6484375</ele>
      </trkpt>
      <trkpt lat="45.54624" lon="0.31311">
        <ele>208.18359375</ele>
      </trkpt>
      <trkpt lat="45.54637" lon="0.31304">
        <ele>208.42578125</ele>
      </trkpt>
      <trkpt lat="45.54656" lon="0.313">
        <ele>208.76171875</ele>
      </trkpt>
      <trkpt lat="45.54667" lon="0.31295">
        <ele>208.96484375</ele>
      </trkpt>
      <trkpt lat="45.54695" lon="0.31285">
        <ele>209.21875</ele>
      </trkpt>
      <trkpt lat="45.54778" lon="0.3125">
        <ele>209.8203125</ele>
      </trkpt>
      <trkpt lat="45.5484" lon="0.31224">
        <ele>210.453125</ele>
      </trkpt>
      <trkpt lat="45.5487" lon="0.31209">
        <ele>210.7265625</ele>
      </trkpt>
      <trkpt lat="45.54904" lon="0.31202">
        <ele>211.19140625</ele>
      </trkpt>
      <trkpt lat="45.54916" lon="0.31204">
        <ele>211.4609375</ele>
      </trkpt>
      <trkpt lat="45.54922" lon="0.31205">
        <ele>211.578125</ele>
      </trkpt>
      <trkpt lat="45.5493" lon="0.31209">
        <ele>211.796875</ele>
      </trkpt>
      <trkpt lat="45.54938" lon="0.31222">
        <ele>212.17578125</ele>
      </trkpt>
      <trkpt lat="45.54943" lon="0.31227">
        <ele>212.37109375</ele>
      </trkpt>
      <trkpt lat="45.54949" lon="0.31235">
        <ele>212.59765625</ele>
      </trkpt>
      <trkpt lat="45.54965" lon="0.31242">
        <ele>213.0234375</ele>
      </trkpt>
      <trkpt lat="45.54983" lon="0.31251">
        <ele>213.5078125</ele>
      </trkpt>
      <trkpt lat="45.55005" lon="0.31267">
        <ele>214.140625</ele>
      </trkpt>
      <trkpt lat="45.55031" lon="0.31293">
        <ele>214.609375</ele>
      </trkpt>
      <trkpt lat="45.55048" lon="0.31312">
        <ele>214.94921875</ele>
      </trkpt>
      <trkpt lat="45.55064" lon="0.3133">
        <ele>215.19921875</ele>
      </trkpt>
      <trkpt lat="45.55077" lon="0.31344">
        <ele>215.37890625</ele>
      </trkpt>
      <trkpt lat="45.55088" lon="0.31361">
        <ele>215.75390625</ele>
      </trkpt>
      <trkpt lat="45.55101" lon="0.31383">
        <ele>216.23828125</ele>
      </trkpt>
      <trkpt lat="45.55113" lon="0.314">
        <ele>216.54296875</ele>
      </trkpt>
      <trkpt lat="45.55128" lon="0.31426">
        <ele>216.7421875</ele>
      </trkpt>
      <trkpt lat="45.55139" lon="0.31456">
        <ele>216.796875</ele>
      </trkpt>
      <trkpt lat="45.55146" lon="0.31486">
        <ele>217.03515625</ele>
      </trkpt>
      <trkpt lat="45.55154" lon="0.31516">
        <ele>217.17578125</ele>
      </trkpt>
      <trkpt lat="45.5516" lon="0.31545">
        <ele>217.16796875</ele>
      </trkpt>
      <trkpt lat="45.55165" lon="0.31573">
        <ele>217.0703125</ele>
      </trkpt>
      <trkpt lat="45.55169" lon="0.31599">
        <ele>216.99609375</ele>
      </trkpt>
      <trkpt lat="45.55175" lon="0.31634">
        <ele>216.890625</ele>
      </trkpt>
      <trkpt lat="45.55179" lon="0.31662">
        <ele>217.12109375</ele>
      </trkpt>
      <trkpt lat="45.55184" lon="0.31693">
        <ele>217.76953125</ele>
      </trkpt>
      <trkpt lat="45.55189" lon="0.31729">
        <ele>218.7734375</ele>
      </trkpt>
      <trkpt lat="45.55194" lon="0.31759">
        <ele>219.5546875</ele>
      </trkpt>
      <trkpt lat="45.55202" lon="0.31797">
        <ele>220.09765625</ele>
      </trkpt>
      <trkpt lat="45.55209" lon="0.31816">
        <ele>220.30078125</ele>
      </trkpt>
      <trkpt lat="45.55221" lon="0.31844">
        <ele>220.57421875</ele>
      </trkpt>
      <trkpt lat="45.55231" lon="0.31866">
        <ele>220.8125</ele>
      </trkpt>
      <trkpt lat="45.55245" lon="0.31907">
        <ele>220.87890625</ele>
      </trkpt>
      <trkpt lat="45.55254" lon="0.3194">
        <ele>221</ele>
      </trkpt>
      <trkpt lat="45.55262" lon="0.31965">
        <ele>221</ele>
      </trkpt>
      <trkpt lat="45.5527" lon="0.31993">
        <ele>221</ele>
      </trkpt>
      <trkpt lat="45.55278" lon="0.32019">
        <ele>221</ele>
      </trkpt>
      <trkpt lat="45.55286" lon="0.32052">
        <ele>221</ele>
      </trkpt>
      <trkpt lat="45.55295" lon="0.32081">
        <ele>221</ele>
      </trkpt>
      <trkpt lat="45.55301" lon="0.32109">
        <ele>220.80859375</ele>
      </trkpt>
      <trkpt lat="45.55307" lon="0.32132">
        <ele>220.625</ele>
      </trkpt>
      <trkpt lat="45.55313" lon="0.32166">
        <ele>220.25390625</ele>
      </trkpt>
      <trkpt lat="45.55317" lon="0.32185">
        <ele>219.9765625</ele>
      </trkpt>
      <trkpt lat="45.55336" lon="0.32183">
        <ele>220.35546875</ele>
      </trkpt>
      <trkpt lat="45.55384" lon="0.32156">
        <ele>220.98046875</ele>
      </trkpt>
      <trkpt lat="45.55418" lon="0.32131">
        <ele>221</ele>
      </trkpt>
      <trkpt lat="45.55444" lon="0.32138">
        <ele>221</ele>
      </trkpt>
      <trkpt lat="45.55463" lon="0.32146">
        <ele>221.2890625</ele>
      </trkpt>
      <trkpt lat="45.55488" lon="0.32148">
        <ele>221.72265625</ele>
      </trkpt>
      <trkpt lat="45.55512" lon="0.32145">
        <ele>222</ele>
      </trkpt>
      <trkpt lat="45.55537" lon="0.32136">
        <ele>222</ele>
      </trkpt>
      <trkpt lat="45.5557" lon="0.3213">
        <ele>221.85546875</ele>
      </trkpt>
      <trkpt lat="45.55585" lon="0.32131">
        <ele>221.65625</ele>
      </trkpt>
      <trkpt lat="45.55614" lon="0.32137">
        <ele>221.15625</ele>
      </trkpt>
      <trkpt lat="45.55645" lon="0.32135">
        <ele>219.19140625</ele>
      </trkpt>
      <trkpt lat="45.55702" lon="0.3212">
        <ele>215.453125</ele>
      </trkpt>
      <trkpt lat="45.55739" lon="0.32118">
        <ele>212.33203125</ele>
      </trkpt>
      <trkpt lat="45.55761" lon="0.32133">
        <ele>209</ele>
      </trkpt>
      <trkpt lat="45.55798" lon="0.32141">
        <ele>204.49609375</ele>
      </trkpt>
      <trkpt lat="45.55818" lon="0.3215">
        <ele>201.60546875</ele>
      </trkpt>
      <trkpt lat="45.55835" lon="0.32158">
        <ele>199.27734375</ele>
      </trkpt>
      <trkpt lat="45.55853" lon="0.32174">
        <ele>196.2734375</ele>
      </trkpt>
      <trkpt lat="45.5587" lon="0.32188">
        <ele>193.75390625</ele>
      </trkpt>
      <trkpt lat="45.55898" lon="0.32204">
        <ele>190.4375</ele>
      </trkpt>
      <trkpt lat="45.55913" lon="0.32212">
        <ele>188.9765625</ele>
      </trkpt>
      <trkpt lat="45.55931" lon="0.32215">
        <ele>187.60546875</ele>
      </trkpt>
      <trkpt lat="45.55955" lon="0.32222">
        <ele>185.39453125</ele>
      </trkpt>
      <trkpt lat="45.5597" lon="0.32232">
        <ele>183.58984375</ele>
      </trkpt>
      <trkpt lat="45.55994" lon="0.3225">
        <ele>180.84375</ele>
      </trkpt>
      <trkpt lat="45.56008" lon="0.32254">
        <ele>179.421875</ele>
      </trkpt>
      <trkpt lat="45.56029" lon="0.32254">
        <ele>177.1875</ele>
      </trkpt>
      <trkpt lat="45.56055" lon="0.32261">
        <ele>174.296875</ele>
      </trkpt>
      <trkpt lat="45.56077" lon="0.32263">
        <ele>172.24609375</ele>
      </trkpt>
      <trkpt lat="45.56099" lon="0.32267">
        <ele>170.12890625</ele>
      </trkpt>
      <trkpt lat="45.56118" lon="0.3227">
        <ele>168.5703125</ele>
      </trkpt>
      <trkpt lat="45.56143" lon="0.32274">
        <ele>167.3046875</ele>
      </trkpt>
      <trkpt lat="45.56158" lon="0.32272">
        <ele>166.7109375</ele>
      </trkpt>
      <trkpt lat="45.56204" lon="0.32285">
        <ele>164.609375</ele>
      </trkpt>
      <trkpt lat="45.56223" lon="0.32285">
        <ele>164.08203125</ele>
      </trkpt>
      <trkpt lat="45.56244" lon="0.32287">
        <ele>163.40234375</ele>
      </trkpt>
      <trkpt lat="45.56258" lon="0.32292">
        <ele>162.69140625</ele>
      </trkpt>
      <trkpt lat="45.56275" lon="0.32305">
        <ele>161.5546875</ele>
      </trkpt>
      <trkpt lat="45.56302" lon="0.32327">
        <ele>158.53515625</ele>
      </trkpt>
      <trkpt lat="45.56321" lon="0.32345">
        <ele>156.19921875</ele>
      </trkpt>
      <trkpt lat="45.56338" lon="0.32371">
        <ele>153.75</ele>
      </trkpt>
      <trkpt lat="45.56348" lon="0.32385">
        <ele>152.33203125</ele>
      </trkpt>
      <trkpt lat="45.56361" lon="0.32399">
        <ele>150.828125</ele>
      </trkpt>
      <trkpt lat="45.56365" lon="0.32416">
        <ele>149.27734375</ele>
      </trkpt>
      <trkpt lat="45.56379" lon="0.32422">
        <ele>148.453125</ele>
      </trkpt>
      <trkpt lat="45.56396" lon="0.32424">
        <ele>148.23828125</ele>
      </trkpt>
      <trkpt lat="45.56413" lon="0.32427">
        <ele>148.58203125</ele>
      </trkpt>
      <trkpt lat="45.56427" lon="0.32427">
        <ele>149.1328125</ele>
      </trkpt>
      <trkpt lat="45.56461" lon="0.32432">
        <ele>150.0703125</ele>
      </trkpt>
      <trkpt lat="45.56489" lon="0.32435">
        <ele>150.98046875</ele>
      </trkpt>
      <trkpt lat="45.56511" lon="0.32432">
        <ele>151.5625</ele>
      </trkpt>
      <trkpt lat="45.56537" lon="0.32434">
        <ele>151.421875</ele>
      </trkpt>
      <trkpt lat="45.56541" lon="0.32451">
        <ele>150.2265625</ele>
      </trkpt>
      <trkpt lat="45.56542" lon="0.32471">
        <ele>148.8984375</ele>
      </trkpt>
      <trkpt lat="45.56545" lon="0.32495">
        <ele>146.51953125</ele>
      </trkpt>
      <trkpt lat="45.56543" lon="0.32515">
        <ele>144.21875</ele>
      </trkpt>
      <trkpt lat="45.56538" lon="0.32537">
        <ele>141.89453125</ele>
      </trkpt>
      <trkpt lat="45.56531" lon="0.32559">
        <ele>138.140625</ele>
      </trkpt>
      <trkpt lat="45.56522" lon="0.3258">
        <ele>135.015625</ele>
      </trkpt>
      <trkpt lat="45.5651" lon="0.32596">
        <ele>132.99609375</ele>
      </trkpt>
      <trkpt lat="45.56494" lon="0.32609">
        <ele>132.16015625</ele>
      </trkpt>
      <trkpt lat="45.56475" lon="0.32618">
        <ele>132.04296875</ele>
      </trkpt>
      <trkpt lat="45.56458" lon="0.32627">
        <ele>132.0390625</ele>
      </trkpt>
      <trkpt lat="45.56448" lon="0.32641">
        <ele>131.40625</ele>
      </trkpt>
      <trkpt lat="45.56449" lon="0.32666">
        <ele>130.09375</ele>
      </trkpt>
      <trkpt lat="45.56456" lon="0.32684">
        <ele>128.9375</ele>
      </trkpt>
      <trkpt lat="45.56461" lon="0.32703">
        <ele>127.9375</ele>
      </trkpt>
      <trkpt lat="45.56462" lon="0.32722">
        <ele>127.8046875</ele>
      </trkpt>
      <trkpt lat="45.56465" lon="0.3275">
        <ele>127.66796875</ele>
      </trkpt>
      <trkpt lat="45.56474" lon="0.32774">
        <ele>128.51953125</ele>
      </trkpt>
      <trkpt lat="45.56486" lon="0.32792">
        <ele>129.83984375</ele>
      </trkpt>
      <trkpt lat="45.56498" lon="0.32807">
        <ele>131.28515625</ele>
      </trkpt>
      <trkpt lat="45.56505" lon="0.32818">
        <ele>132.75</ele>
      </trkpt>
      <trkpt lat="45.56481" lon="0.32832">
        <ele>133.421875</ele>
      </trkpt>
      <trkpt lat="45.56454" lon="0.32854">
        <ele>134.7109375</ele>
      </trkpt>
      <trkpt lat="45.56418" lon="0.32887">
        <ele>136.10546875</ele>
      </trkpt>
      <trkpt lat="45.56384" lon="0.32925">
        <ele>138.3125</ele>
      </trkpt>
      <trkpt lat="45.56391" lon="0.32932">
        <ele>140.26171875</ele>
      </trkpt>
      <trkpt lat="45.56402" lon="0.32926">
        <ele>140.2421875</ele>
      </trkpt>
      <trkpt lat="45.56419" lon="0.3292">
        <ele>140.97265625</ele>
      </trkpt>
      <trkpt lat="45.56436" lon="0.32911">
        <ele>141.1484375</ele>
      </trkpt>
      <trkpt lat="45.5646" lon="0.32895">
        <ele>140.21484375</ele>
      </trkpt>
      <trkpt lat="45.56488" lon="0.32882">
        <ele>139.75390625</ele>
      </trkpt>
      <trkpt lat="45.56509" lon="0.32882">
        <ele>140.6796875</ele>
      </trkpt>
      <trkpt lat="45.56521" lon="0.32898">
        <ele>142.671875</ele>
      </trkpt>
      <trkpt lat="45.56532" lon="0.32927">
        <ele>145.7734375</ele>
      </trkpt>
      <trkpt lat="45.56545" lon="0.32948">
        <ele>148.046875</ele>
      </trkpt>
      <trkpt lat="45.56554" lon="0.32952">
        <ele>148.44921875</ele>
      </trkpt>
      <trkpt lat="45.56565" lon="0.32961">
        <ele>149.59765625</ele>
      </trkpt>
      <trkpt lat="45.56584" lon="0.33008">
        <ele>154.47265625</ele>
      </trkpt>
      <trkpt lat="45.56591" lon="0.33041">
        <ele>157.31640625</ele>
      </trkpt>
      <trkpt lat="45.56594" lon="0.33065">
        <ele>158.59375</ele>
      </trkpt>
      <trkpt lat="45.56605" lon="0.33091">
        <ele>159.984375</ele>
      </trkpt>
      <trkpt lat="45.56624" lon="0.33117">
        <ele>160.68359375</ele>
      </trkpt>
      <trkpt lat="45.56638" lon="0.33133">
        <ele>161.203125</ele>
      </trkpt>
      <trkpt lat="45.56651" lon="0.33148">
        <ele>161.68359375</ele>
      </trkpt>
      <trkpt lat="45.56671" lon="0.3317">
        <ele>161.53515625</ele>
      </trkpt>
      <trkpt lat="45.56688" lon="0.33186">
        <ele>160.796875</ele>
      </trkpt>
      <trkpt lat="45.56702" lon="0.33215">
        <ele>159.1875</ele>
      </trkpt>
      <trkpt lat="45.56709" lon="0.33232">
        <ele>158.03125</ele>
      </trkpt>
      <trkpt lat="45.56721" lon="0.33255">
        <ele>156.2890625</ele>
      </trkpt>
      <trkpt lat="45.56742" lon="0.33285">
        <ele>154</ele>
      </trkpt>
      <trkpt lat="45.5677" lon="0.33334">
        <ele>127.69921875</ele>
      </trkpt>
      <trkpt lat="45.56792" lon="0.33371">
        <ele>156.45703125</ele>
      </trkpt>
      <trkpt lat="45.56804" lon="0.33392">
        <ele>158.55078125</ele>
      </trkpt>
      <trkpt lat="45.56814" lon="0.33416">
        <ele>161.15625</ele>
      </trkpt>
      <trkpt lat="45.56824" lon="0.33439">
        <ele>163.765625</ele>
      </trkpt>
      <trkpt lat="45.56834" lon="0.33459">
        <ele>166.1484375</ele>
      </trkpt>
      <trkpt lat="45.56851" lon="0.33469">
        <ele>167.09375</ele>
      </trkpt>
      <trkpt lat="45.56866" lon="0.33487">
        <ele>168.3984375</ele>
      </trkpt>
      <trkpt lat="45.56881" lon="0.33503">
        <ele>169.109375</ele>
      </trkpt>
      <trkpt lat="45.56896" lon="0.33524">
        <ele>169.43359375</ele>
      </trkpt>
      <trkpt lat="45.5691" lon="0.33538">
        <ele>169.82421875</ele>
      </trkpt>
      <trkpt lat="45.56922" lon="0.33558">
        <ele>170.296875</ele>
      </trkpt>
      <trkpt lat="45.56964" lon="0.33585">
        <ele>169.3515625</ele>
      </trkpt>
      <trkpt lat="45.5698" lon="0.33616">
        <ele>167.67578125</ele>
      </trkpt>
      <trkpt lat="45.56992" lon="0.33645">
        <ele>166.23046875</ele>
      </trkpt>
      <trkpt lat="45.57006" lon="0.33671">
        <ele>165.1875</ele>
      </trkpt>
      <trkpt lat="45.5704" lon="0.33686">
        <ele>163.84765625</ele>
      </trkpt>
      <trkpt lat="45.57072" lon="0.33701">
        <ele>162.265625</ele>
      </trkpt>
      <trkpt lat="45.57115" lon="0.33713">
        <ele>161.08203125</ele>
      </trkpt>
      <trkpt lat="45.57149" lon="0.33717">
        <ele>160.19140625</ele>
      </trkpt>
      <trkpt lat="45.5718" lon="0.33733">
        <ele>158.83203125</ele>
      </trkpt>
      <trkpt lat="45.57215" lon="0.33747">
        <ele>157.86328125</ele>
      </trkpt>
      <trkpt lat="45.57245" lon="0.3376">
        <ele>156.54296875</ele>
      </trkpt>
      <trkpt lat="45.57273" lon="0.33759">
        <ele>134.39453125</ele>
      </trkpt>
      <trkpt lat="45.573" lon="0.33743">
        <ele>134.8671875</ele>
      </trkpt>
      <trkpt lat="45.57327" lon="0.33737">
        <ele>135.80078125</ele>
      </trkpt>
      <trkpt lat="45.57359" lon="0.3375">
        <ele>138.72265625</ele>
      </trkpt>
      <trkpt lat="45.57364" lon="0.33761">
        <ele>141.3984375</ele>
      </trkpt>
      <trkpt lat="45.57368" lon="0.33777">
        <ele>141.8359375</ele>
      </trkpt>
      <trkpt lat="45.57374" lon="0.33795">
        <ele>142.59375</ele>
      </trkpt>
      <trkpt lat="45.57384" lon="0.33811">
        <ele>143.42578125</ele>
      </trkpt>
      <trkpt lat="45.57399" lon="0.33822">
        <ele>145.4375</ele>
      </trkpt>
      <trkpt lat="45.57413" lon="0.3383">
        <ele>147.78515625</ele>
      </trkpt>
      <trkpt lat="45.57429" lon="0.33841">
        <ele>150.1875</ele>
      </trkpt>
      <trkpt lat="45.57436" lon="0.33851">
        <ele>151.09375</ele>
      </trkpt>
      <trkpt lat="45.57448" lon="0.33858">
        <ele>152.6171875</ele>
      </trkpt>
      <trkpt lat="45.57456" lon="0.33867">
        <ele>153.0078125</ele>
      </trkpt>
      <trkpt lat="45.57466" lon="0.33872">
        <ele>153.6640625</ele>
      </trkpt>
      <trkpt lat="45.57473" lon="0.33878">
        <ele>153.921875</ele>
      </trkpt>
      <trkpt lat="45.57479" lon="0.33883">
        <ele>154.28125</ele>
      </trkpt>
      <trkpt lat="45.57492" lon="0.33885">
        <ele>155.3125</ele>
      </trkpt>
      <trkpt lat="45.57496" lon="0.33881">
        <ele>155.84375</ele>
      </trkpt>
      <trkpt lat="45.57498" lon="0.33885">
        <ele>155.83984375</ele>
      </trkpt>
      <trkpt lat="45.57503" lon="0.33885">
        <ele>156.2265625</ele>
      </trkpt>
      <trkpt lat="45.57511" lon="0.33889">
        <ele>156.6015625</ele>
      </trkpt>
      <trkpt lat="45.57517" lon="0.33885">
        <ele>157.1328125</ele>
      </trkpt>
      <trkpt lat="45.57523" lon="0.33865">
        <ele>158.48828125</ele>
      </trkpt>
      <trkpt lat="45.57529" lon="0.33849">
        <ele>159.90234375</ele>
      </trkpt>
      <trkpt lat="45.57531" lon="0.33841">
        <ele>160.5859375</ele>
      </trkpt>
      <trkpt lat="45.57535" lon="0.33833">
        <ele>161.41015625</ele>
      </trkpt>
      <trkpt lat="45.57538" lon="0.33823">
        <ele>162.2578125</ele>
      </trkpt>
      <trkpt lat="45.57541" lon="0.33815">
        <ele>162.96484375</ele>
      </trkpt>
      <trkpt lat="45.57548" lon="0.33813">
        <ele>163.51953125</ele>
      </trkpt>
      <trkpt lat="45.57554" lon="0.33812">
        <ele>163.90234375</ele>
      </trkpt>
      <trkpt lat="45.57566" lon="0.33795">
        <ele>165.55078125</ele>
      </trkpt>
      <trkpt lat="45.57573" lon="0.33777">
        <ele>167.21484375</ele>
      </trkpt>
      <trkpt lat="45.57576" lon="0.33764">
        <ele>168.421875</ele>
      </trkpt>
      <trkpt lat="45.57578" lon="0.33748">
        <ele>169.7890625</ele>
      </trkpt>
      <trkpt lat="45.5758" lon="0.33737">
        <ele>170.73828125</ele>
      </trkpt>
      <trkpt lat="45.57587" lon="0.33717">
        <ele>172.6015625</ele>
      </trkpt>
      <trkpt lat="45.5759" lon="0.33704">
        <ele>173.875</ele>
      </trkpt>
      <trkpt lat="45.57591" lon="0.33693">
        <ele>174.50390625</ele>
      </trkpt>
      <trkpt lat="45.57595" lon="0.33679">
        <ele>175.5390625</ele>
      </trkpt>
      <trkpt lat="45.576" lon="0.3367">
        <ele>176.4765625</ele>
      </trkpt>
      <trkpt lat="45.57607" lon="0.33659">
        <ele>177.7265625</ele>
      </trkpt>
      <trkpt lat="45.57613" lon="0.33654">
        <ele>178.62109375</ele>
      </trkpt>
      <trkpt lat="45.57618" lon="0.33651">
        <ele>179.04296875</ele>
      </trkpt>
      <trkpt lat="45.57626" lon="0.33651">
        <ele>179.44140625</ele>
      </trkpt>
      <trkpt lat="45.57633" lon="0.33651">
        <ele>179.796875</ele>
      </trkpt>
      <trkpt lat="45.57638" lon="0.33648">
        <ele>180.34375</ele>
      </trkpt>
      <trkpt lat="45.57642" lon="0.33638">
        <ele>180.91015625</ele>
      </trkpt>
      <trkpt lat="45.57644" lon="0.33629">
        <ele>181.42578125</ele>
      </trkpt>
      <trkpt lat="45.57646" lon="0.33614">
        <ele>182.140625</ele>
      </trkpt>
      <trkpt lat="45.57647" lon="0.33599">
        <ele>182.7890625</ele>
      </trkpt>
      <trkpt lat="45.5765" lon="0.33581">
        <ele>183.44921875</ele>
      </trkpt>
      <trkpt lat="45.57661" lon="0.33565">
        <ele>184.46484375</ele>
      </trkpt>
      <trkpt lat="45.57673" lon="0.3355">
        <ele>185.30078125</ele>
      </trkpt>
      <trkpt lat="45.57684" lon="0.33536">
        <ele>185.90625</ele>
      </trkpt>
      <trkpt lat="45.57686" lon="0.33525">
        <ele>185.703125</ele>
      </trkpt>
      <trkpt lat="45.57693" lon="0.33513">
        <ele>185.58984375</ele>
      </trkpt>
      <trkpt lat="45.57697" lon="0.33508">
        <ele>185.5859375</ele>
      </trkpt>
      <trkpt lat="45.57715" lon="0.33491">
        <ele>185.4296875</ele>
      </trkpt>
      <trkpt lat="45.57739" lon="0.33477">
        <ele>185.37890625</ele>
      </trkpt>
      <trkpt lat="45.57769" lon="0.33459">
        <ele>185.5</ele>
      </trkpt>
      <trkpt lat="45.57783" lon="0.33449">
        <ele>185.64453125</ele>
      </trkpt>
      <trkpt lat="45.578" lon="0.33428">
        <ele>185.7578125</ele>
      </trkpt>
      <trkpt lat="45.57811" lon="0.33403">
        <ele>185.609375</ele>
      </trkpt>
      <trkpt lat="45.57833" lon="0.33366">
        <ele>91.99609375</ele>
      </trkpt>
      <trkpt lat="45.57857" lon="0.33344">
        <ele>130.68359375</ele>
      </trkpt>
      <trkpt lat="45.57879" lon="0.33321">
        <ele>170.58203125</ele>
      </trkpt>
      <trkpt lat="45.57894" lon="0.33305">
        <ele>183.78515625</ele>
      </trkpt>
      <trkpt lat="45.579" lon="0.33299">
        <ele>183.84375</ele>
      </trkpt>
      <trkpt lat="45.57917" lon="0.33279">
        <ele>183.8984375</ele>
      </trkpt>
      <trkpt lat="45.57932" lon="0.33316">
        <ele>181.52734375</ele>
      </trkpt>
      <trkpt lat="45.57945" lon="0.33351">
        <ele>120.02734375</ele>
      </trkpt>
      <trkpt lat="45.57955" lon="0.33375">
        <ele>189.484375</ele>
      </trkpt>
      <trkpt lat="45.5797" lon="0.33398">
        <ele>190.55078125</ele>
      </trkpt>
      <trkpt lat="45.57983" lon="0.33419">
        <ele>191.16015625</ele>
      </trkpt>
      <trkpt lat="45.57992" lon="0.33434">
        <ele>191.2421875</ele>
      </trkpt>
      <trkpt lat="45.58001" lon="0.33453">
        <ele>190.9453125</ele>
      </trkpt>
      <trkpt lat="45.58009" lon="0.33473">
        <ele>190.27734375</ele>
      </trkpt>
      <trkpt lat="45.58015" lon="0.33482">
        <ele>189.7421875</ele>
      </trkpt>
      <trkpt lat="45.58019" lon="0.3351">
        <ele>189.73046875</ele>
      </trkpt>
      <trkpt lat="45.58042" lon="0.33621">
        <ele>190.50390625</ele>
      </trkpt>
      <trkpt lat="45.58055" lon="0.33678">
        <ele>191.203125</ele>
      </trkpt>
      <trkpt lat="45.58073" lon="0.33749">
        <ele>191.90625</ele>
      </trkpt>
      <trkpt lat="45.58077" lon="0.3378">
        <ele>192.140625</ele>
      </trkpt>
      <trkpt lat="45.58084" lon="0.33812">
        <ele>191.96484375</ele>
      </trkpt>
      <trkpt lat="45.58089" lon="0.33834">
        <ele>191.8671875</ele>
      </trkpt>
      <trkpt lat="45.58092" lon="0.33853">
        <ele>191.86328125</ele>
      </trkpt>
      <trkpt lat="45.5811" lon="0.33908">
        <ele>191.79296875</ele>
      </trkpt>
      <trkpt lat="45.58113" lon="0.33941">
        <ele>192.28515625</ele>
      </trkpt>
      <trkpt lat="45.58117" lon="0.33962">
        <ele>192.6015625</ele>
      </trkpt>
      <trkpt lat="45.5812" lon="0.3399">
        <ele>192.71484375</ele>
      </trkpt>
      <trkpt lat="45.58127" lon="0.34029">
        <ele>192.3203125</ele>
      </trkpt>
      <trkpt lat="45.58137" lon="0.34079">
        <ele>191.65625</ele>
      </trkpt>
      <trkpt lat="45.58153" lon="0.34154">
        <ele>191.08984375</ele>
      </trkpt>
      <trkpt lat="45.58162" lon="0.34197">
        <ele>189.1171875</ele>
      </trkpt>
      <trkpt lat="45.58165" lon="0.34224">
        <ele>188.140625</ele>
      </trkpt>
      <trkpt lat="45.58172" lon="0.34254">
        <ele>187.19140625</ele>
      </trkpt>
      <trkpt lat="45.58186" lon="0.34326">
        <ele>185.6640625</ele>
      </trkpt>
      <trkpt lat="45.58191" lon="0.34367">
        <ele>185.83984375</ele>
      </trkpt>
      <trkpt lat="45.58195" lon="0.34373">
        <ele>185.91015625</ele>
      </trkpt>
      <trkpt lat="45.58202" lon="0.3437">
        <ele>186.19921875</ele>
      </trkpt>
      <trkpt lat="45.58232" lon="0.34358">
        <ele>186.53515625</ele>
      </trkpt>
      <trkpt lat="45.58249" lon="0.34355">
        <ele>185.6796875</ele>
      </trkpt>
      <trkpt lat="45.58253" lon="0.34357">
        <ele>185.4765625</ele>
      </trkpt>
      <trkpt lat="45.58251" lon="0.34366">
        <ele>185.484375</ele>
      </trkpt>
      <trkpt lat="45.58247" lon="0.34377">
        <ele>185.38671875</ele>
      </trkpt>
      <trkpt lat="45.58234" lon="0.34424">
        <ele>184.39453125</ele>
      </trkpt>
      <trkpt lat="45.58214" lon="0.34493">
        <ele>184.7578125</ele>
      </trkpt>
      <trkpt lat="45.5819" lon="0.34581">
        <ele>183.32421875</ele>
      </trkpt>
      <trkpt lat="45.58167" lon="0.34659">
        <ele>182.75390625</ele>
      </trkpt>
      <trkpt lat="45.58143" lon="0.3474">
        <ele>182.87890625</ele>
      </trkpt>
      <trkpt lat="45.58116" lon="0.34836">
        <ele>183.2109375</ele>
      </trkpt>
      <trkpt lat="45.58095" lon="0.34915">
        <ele>183.34765625</ele>
      </trkpt>
      <trkpt lat="45.58092" lon="0.34934">
        <ele>183.16015625</ele>
      </trkpt>
      <trkpt lat="45.58087" lon="0.34951">
        <ele>182.94140625</ele>
      </trkpt>
      <trkpt lat="45.58115" lon="0.34996">
        <ele>181.08203125</ele>
      </trkpt>
      <trkpt lat="45.58127" lon="0.35015">
        <ele>179.2109375</ele>
      </trkpt>
      <trkpt lat="45.58159" lon="0.35059">
        <ele>175.2265625</ele>
      </trkpt>
      <trkpt lat="45.58173" lon="0.35073">
        <ele>173.63671875</ele>
      </trkpt>
      <trkpt lat="45.58186" lon="0.35082">
        <ele>172.1015625</ele>
      </trkpt>
      <trkpt lat="45.58197" lon="0.35099">
        <ele>170.140625</ele>
      </trkpt>
      <trkpt lat="45.58198" lon="0.35114">
        <ele>169.08203125</ele>
      </trkpt>
      <trkpt lat="45.58191" lon="0.35161">
        <ele>167.09375</ele>
      </trkpt>
      <trkpt lat="45.58188" lon="0.35185">
        <ele>166.28125</ele>
      </trkpt>
      <trkpt lat="45.58187" lon="0.35194">
        <ele>165.91796875</ele>
      </trkpt>
      <trkpt lat="45.58189" lon="0.35215">
        <ele>164.41796875</ele>
      </trkpt>
      <trkpt lat="45.58189" lon="0.35261">
        <ele>161.90234375</ele>
      </trkpt>
      <trkpt lat="45.5819" lon="0.35316">
        <ele>160.6640625</ele>
      </trkpt>
      <trkpt lat="45.58188" lon="0.35321">
        <ele>160.65625</ele>
      </trkpt>
      <trkpt lat="45.58183" lon="0.35355">
        <ele>160.0390625</ele>
      </trkpt>
      <trkpt lat="45.58184" lon="0.35385">
        <ele>159.4765625</ele>
      </trkpt>
      <trkpt lat="45.58186" lon="0.35414">
        <ele>159.1015625</ele>
      </trkpt>
      <trkpt lat="45.58188" lon="0.35433">
        <ele>159.45703125</ele>
      </trkpt>
      <trkpt lat="45.58187" lon="0.35441">
        <ele>159.8671875</ele>
      </trkpt>
      <trkpt lat="45.58193" lon="0.35461">
        <ele>160.73828125</ele>
      </trkpt>
      <trkpt lat="45.58202" lon="0.35476">
        <ele>161.28515625</ele>
      </trkpt>
      <trkpt lat="45.58214" lon="0.35496">
        <ele>161.83984375</ele>
      </trkpt>
      <trkpt lat="45.5822" lon="0.35519">
        <ele>162.53515625</ele>
      </trkpt>
      <trkpt lat="45.5823" lon="0.35543">
        <ele>163.53125</ele>
      </trkpt>
      <trkpt lat="45.58238" lon="0.35561">
        <ele>164.25390625</ele>
      </trkpt>
      <trkpt lat="45.58253" lon="0.35582">
        <ele>164.87109375</ele>
      </trkpt>
      <trkpt lat="45.58257" lon="0.3559">
        <ele>165.00390625</ele>
      </trkpt>
      <trkpt lat="45.58264" lon="0.35603">
        <ele>164.9453125</ele>
      </trkpt>
      <trkpt lat="45.58274" lon="0.35615">
        <ele>164.640625</ele>
      </trkpt>
      <trkpt lat="45.58284" lon="0.35625">
        <ele>164.69921875</ele>
      </trkpt>
      <trkpt lat="45.58295" lon="0.35635">
        <ele>165.13671875</ele>
      </trkpt>
      <trkpt lat="45.583" lon="0.35648">
        <ele>165.2265625</ele>
      </trkpt>
      <trkpt lat="45.58314" lon="0.3567">
        <ele>165.96484375</ele>
      </trkpt>
      <trkpt lat="45.58321" lon="0.35682">
        <ele>166.1015625</ele>
      </trkpt>
      <trkpt lat="45.58332" lon="0.35704">
        <ele>166.05859375</ele>
      </trkpt>
      <trkpt lat="45.58345" lon="0.35736">
        <ele>167.55859375</ele>
      </trkpt>
      <trkpt lat="45.58357" lon="0.35766">
        <ele>168.79296875</ele>
      </trkpt>
      <trkpt lat="45.58366" lon="0.35806">
        <ele>169.67578125</ele>
      </trkpt>
      <trkpt lat="45.5838" lon="0.35838">
        <ele>169.859375</ele>
      </trkpt>
      <trkpt lat="45.58388" lon="0.35861">
        <ele>169.23828125</ele>
      </trkpt>
      <trkpt lat="45.58398" lon="0.35876">
        <ele>170.234375</ele>
      </trkpt>
      <trkpt lat="45.58401" lon="0.35886">
        <ele>170.73828125</ele>
      </trkpt>
      <trkpt lat="45.58408" lon="0.35928">
        <ele>171.9765625</ele>
      </trkpt>
      <trkpt lat="45.5841" lon="0.35958">
        <ele>173.45703125</ele>
      </trkpt>
      <trkpt lat="45.58412" lon="0.35975">
        <ele>174.38671875</ele>
      </trkpt>
      <trkpt lat="45.58413" lon="0.3599">
        <ele>174.67578125</ele>
      </trkpt>
      <trkpt lat="45.58419" lon="0.36015">
        <ele>175.4765625</ele>
      </trkpt>
      <trkpt lat="45.58419" lon="0.36026">
        <ele>175.625</ele>
      </trkpt>
      <trkpt lat="45.58418" lon="0.36041">
        <ele>175.80859375</ele>
      </trkpt>
      <trkpt lat="45.58413" lon="0.3606">
        <ele>176.125</ele>
      </trkpt>
      <trkpt lat="45.5841" lon="0.36066">
        <ele>176.1796875</ele>
      </trkpt>
      <trkpt lat="45.58407" lon="0.36088">
        <ele>176.90625</ele>
      </trkpt>
      <trkpt lat="45.58405" lon="0.36113">
        <ele>177.13671875</ele>
      </trkpt>
      <trkpt lat="45.58411" lon="0.36145">
        <ele>177.78515625</ele>
      </trkpt>
      <trkpt lat="45.5842" lon="0.36166">
        <ele>178.2578125</ele>
      </trkpt>
      <trkpt lat="45.5843" lon="0.3618">
        <ele>178.6328125</ele>
      </trkpt>
      <trkpt lat="45.58444" lon="0.36193">
        <ele>178.98828125</ele>
      </trkpt>
      <trkpt lat="45.58459" lon="0.362">
        <ele>179.2578125</ele>
      </trkpt>
      <trkpt lat="45.58482" lon="0.36205">
        <ele>179.89453125</ele>
      </trkpt>
      <trkpt lat="45.58504" lon="0.36213">
        <ele>180.9765625</ele>
      </trkpt>
      <trkpt lat="45.58511" lon="0.36216">
        <ele>181.5546875</ele>
      </trkpt>
      <trkpt lat="45.58523" lon="0.36222">
        <ele>182.671875</ele>
      </trkpt>
      <trkpt lat="45.58543" lon="0.36242">
        <ele>184.78125</ele>
      </trkpt>
      <trkpt lat="45.58563" lon="0.3626">
        <ele>186.40625</ele>
      </trkpt>
      <trkpt lat="45.58577" lon="0.36274">
        <ele>187.41796875</ele>
      </trkpt>
      <trkpt lat="45.5859" lon="0.36294">
        <ele>188.6015625</ele>
      </trkpt>
      <trkpt lat="45.586" lon="0.36311">
        <ele>189.578125</ele>
      </trkpt>
      <trkpt lat="45.58609" lon="0.36322">
        <ele>189.94140625</ele>
      </trkpt>
      <trkpt lat="45.5862" lon="0.36342">
        <ele>189.84765625</ele>
      </trkpt>
      <trkpt lat="45.58628" lon="0.3636">
        <ele>189.70703125</ele>
      </trkpt>
      <trkpt lat="45.58634" lon="0.3637">
        <ele>189.62890625</ele>
      </trkpt>
      <trkpt lat="45.58653" lon="0.36389">
        <ele>189.35546875</ele>
      </trkpt>
      <trkpt lat="45.58674" lon="0.3641">
        <ele>188.62890625</ele>
      </trkpt>
      <trkpt lat="45.58693" lon="0.36428">
        <ele>187.52734375</ele>
      </trkpt>
      <trkpt lat="45.58714" lon="0.3645">
        <ele>186.37890625</ele>
      </trkpt>
      <trkpt lat="45.58722" lon="0.36463">
        <ele>186.02734375</ele>
      </trkpt>
      <trkpt lat="45.58725" lon="0.36471">
        <ele>185.94140625</ele>
      </trkpt>
      <trkpt lat="45.58726" lon="0.36476">
        <ele>185.92578125</ele>
      </trkpt>
      <trkpt lat="45.58728" lon="0.36494">
        <ele>186.203125</ele>
      </trkpt>
      <trkpt lat="45.58729" lon="0.36513">
        <ele>186.515625</ele>
      </trkpt>
      <trkpt lat="45.58729" lon="0.36523">
        <ele>186.70703125</ele>
      </trkpt>
      <trkpt lat="45.58724" lon="0.3655">
        <ele>186.9765625</ele>
      </trkpt>
      <trkpt lat="45.58722" lon="0.36582">
        <ele>187.00390625</ele>
      </trkpt>
      <trkpt lat="45.58722" lon="0.36607">
        <ele>187.66015625</ele>
      </trkpt>
      <trkpt lat="45.58724" lon="0.36629">
        <ele>188.421875</ele>
      </trkpt>
      <trkpt lat="45.58726" lon="0.36655">
        <ele>188.9453125</ele>
      </trkpt>
      <trkpt lat="45.58729" lon="0.36678">
        <ele>188.953125</ele>
      </trkpt>
      <trkpt lat="45.58729" lon="0.367">
        <ele>189.01953125</ele>
      </trkpt>
      <trkpt lat="45.5873" lon="0.36717">
        <ele>189.578125</ele>
      </trkpt>
      <trkpt lat="45.58728" lon="0.36731">
        <ele>190.05859375</ele>
      </trkpt>
      <trkpt lat="45.58726" lon="0.36746">
        <ele>190.609375</ele>
      </trkpt>
      <trkpt lat="45.58719" lon="0.36766">
        <ele>191.37890625</ele>
      </trkpt>
      <trkpt lat="45.587" lon="0.36806">
        <ele>192.8125</ele>
      </trkpt>
      <trkpt lat="45.58685" lon="0.3683">
        <ele>193.33984375</ele>
      </trkpt>
      <trkpt lat="45.58658" lon="0.36871">
        <ele>194.16796875</ele>
      </trkpt>
      <trkpt lat="45.58631" lon="0.36913">
        <ele>195.66015625</ele>
      </trkpt>
      <trkpt lat="45.58624" lon="0.36922">
        <ele>196.0078125</ele>
      </trkpt>
      <trkpt lat="45.58644" lon="0.36937">
        <ele>196.2734375</ele>
      </trkpt>
      <trkpt lat="45.58661" lon="0.3695">
        <ele>196.49609375</ele>
      </trkpt>
      <trkpt lat="45.58681" lon="0.36969">
        <ele>196.85546875</ele>
      </trkpt>
      <trkpt lat="45.587" lon="0.36982">
        <ele>197.1015625</ele>
      </trkpt>
      <trkpt lat="45.58719" lon="0.36991">
        <ele>197.25</ele>
      </trkpt>
      <trkpt lat="45.5874" lon="0.36998">
        <ele>197.25</ele>
      </trkpt>
      <trkpt lat="45.58764" lon="0.3701">
        <ele>197.14453125</ele>
      </trkpt>
      <trkpt lat="45.58788" lon="0.37023">
        <ele>196.78515625</ele>
      </trkpt>
      <trkpt lat="45.58823" lon="0.37046">
        <ele>196.45703125</ele>
      </trkpt>
      <trkpt lat="45.58854" lon="0.3706">
        <ele>195.38671875</ele>
      </trkpt>
      <trkpt lat="45.58881" lon="0.37072">
        <ele>194.484375</ele>
      </trkpt>
      <trkpt lat="45.58905" lon="0.37082">
        <ele>194.04296875</ele>
      </trkpt>
      <trkpt lat="45.58933" lon="0.3709">
        <ele>193.48046875</ele>
      </trkpt>
      <trkpt lat="45.5896" lon="0.37098">
        <ele>193.00390625</ele>
      </trkpt>
      <trkpt lat="45.5897" lon="0.371">
        <ele>192.8046875</ele>
      </trkpt>
      <trkpt lat="45.58985" lon="0.37103">
        <ele>192.5</ele>
      </trkpt>
      <trkpt lat="45.59012" lon="0.37106">
        <ele>191.79296875</ele>
      </trkpt>
      <trkpt lat="45.59043" lon="0.37111">
        <ele>191.04296875</ele>
      </trkpt>
      <trkpt lat="45.59057" lon="0.37114">
        <ele>190.7890625</ele>
      </trkpt>
      <trkpt lat="45.5908" lon="0.37114">
        <ele>190.60546875</ele>
      </trkpt>
      <trkpt lat="45.59096" lon="0.37107">
        <ele>190.0546875</ele>
      </trkpt>
      <trkpt lat="45.5912" lon="0.37103">
        <ele>190.09765625</ele>
      </trkpt>
      <trkpt lat="45.5913" lon="0.37102">
        <ele>190.40234375</ele>
      </trkpt>
      <trkpt lat="45.59145" lon="0.37094">
        <ele>190.5234375</ele>
      </trkpt>
      <trkpt lat="45.59158" lon="0.37086">
        <ele>190.5390625</ele>
      </trkpt>
      <trkpt lat="45.59185" lon="0.3708">
        <ele>191.1015625</ele>
      </trkpt>
      <trkpt lat="45.59215" lon="0.37076">
        <ele>192.0234375</ele>
      </trkpt>
      <trkpt lat="45.59241" lon="0.37073">
        <ele>192.6171875</ele>
      </trkpt>
      <trkpt lat="45.59256" lon="0.37073">
        <ele>192.9296875</ele>
      </trkpt>
      <trkpt lat="45.59279" lon="0.37071">
        <ele>193.39453125</ele>
      </trkpt>
      <trkpt lat="45.59298" lon="0.37071">
        <ele>193.734375</ele>
      </trkpt>
      <trkpt lat="45.59325" lon="0.37067">
        <ele>194.0703125</ele>
      </trkpt>
      <trkpt lat="45.59347" lon="0.37066">
        <ele>194.4296875</ele>
      </trkpt>
      <trkpt lat="45.59353" lon="0.37064">
        <ele>194.48828125</ele>
      </trkpt>
      <trkpt lat="45.5937" lon="0.37059">
        <ele>194.58203125</ele>
      </trkpt>
      <trkpt lat="45.59386" lon="0.37054">
        <ele>194.703125</ele>
      </trkpt>
      <trkpt lat="45.59403" lon="0.3705">
        <ele>194.84765625</ele>
      </trkpt>
      <trkpt lat="45.5943" lon="0.37047">
        <ele>195.234375</ele>
      </trkpt>
      <trkpt lat="45.59456" lon="0.37043">
        <ele>195.37890625</ele>
      </trkpt>
      <trkpt lat="45.59482" lon="0.3704">
        <ele>195.34765625</ele>
      </trkpt>
      <trkpt lat="45.59493" lon="0.37036">
        <ele>195.15625</ele>
      </trkpt>
      <trkpt lat="45.59503" lon="0.37031">
        <ele>194.96875</ele>
      </trkpt>
      <trkpt lat="45.59523" lon="0.37024">
        <ele>194.9140625</ele>
      </trkpt>
      <trkpt lat="45.59544" lon="0.37009">
        <ele>194.51171875</ele>
      </trkpt>
      <trkpt lat="45.59561" lon="0.36991">
        <ele>194.1328125</ele>
      </trkpt>
      <trkpt lat="45.59566" lon="0.36983">
        <ele>194.06640625</ele>
      </trkpt>
      <trkpt lat="45.59578" lon="0.36962">
        <ele>194.046875</ele>
      </trkpt>
      <trkpt lat="45.59591" lon="0.36932">
        <ele>193.91796875</ele>
      </trkpt>
      <trkpt lat="45.59604" lon="0.36908">
        <ele>193.95703125</ele>
      </trkpt>
      <trkpt lat="45.59615" lon="0.36889">
        <ele>194.19921875</ele>
      </trkpt>
      <trkpt lat="45.59631" lon="0.36866">
        <ele>194.7890625</ele>
      </trkpt>
      <trkpt lat="45.59648" lon="0.3684">
        <ele>195.421875</ele>
      </trkpt>
      <trkpt lat="45.5967" lon="0.36819">
        <ele>196.48046875</ele>
      </trkpt>
      <trkpt lat="45.597" lon="0.36781">
        <ele>195.12109375</ele>
      </trkpt>
      <trkpt lat="45.59708" lon="0.3677">
        <ele>194.5859375</ele>
      </trkpt>
      <trkpt lat="45.59725" lon="0.36746">
        <ele>193.3125</ele>
      </trkpt>
      <trkpt lat="45.59756" lon="0.3668">
        <ele>188.67578125</ele>
      </trkpt>
      <trkpt lat="45.59771" lon="0.3666">
        <ele>187.23046875</ele>
      </trkpt>
      <trkpt lat="45.5979" lon="0.36644">
        <ele>185.4921875</ele>
      </trkpt>
      <trkpt lat="45.59808" lon="0.36634">
        <ele>184.1953125</ele>
      </trkpt>
      <trkpt lat="45.5983" lon="0.3662">
        <ele>182.72265625</ele>
      </trkpt>
      <trkpt lat="45.59848" lon="0.36606">
        <ele>181.49609375</ele>
      </trkpt>
      <trkpt lat="45.59876" lon="0.36579">
        <ele>179.84375</ele>
      </trkpt>
      <trkpt lat="45.59903" lon="0.36541">
        <ele>177.16796875</ele>
      </trkpt>
      <trkpt lat="45.5992" lon="0.3652">
        <ele>175.28515625</ele>
      </trkpt>
      <trkpt lat="45.59934" lon="0.3649">
        <ele>173.6484375</ele>
      </trkpt>
      <trkpt lat="45.59944" lon="0.36471">
        <ele>172.73828125</ele>
      </trkpt>
      <trkpt lat="45.59959" lon="0.36447">
        <ele>170.6640625</ele>
      </trkpt>
      <trkpt lat="45.59969" lon="0.36423">
        <ele>169.1875</ele>
      </trkpt>
      <trkpt lat="45.5999" lon="0.36405">
        <ele>166.9453125</ele>
      </trkpt>
      <trkpt lat="45.60005" lon="0.36396">
        <ele>165.64453125</ele>
      </trkpt>
      <trkpt lat="45.60012" lon="0.36389">
        <ele>164.90234375</ele>
      </trkpt>
      <trkpt lat="45.60019" lon="0.36376">
        <ele>163.8984375</ele>
      </trkpt>
      <trkpt lat="45.60029" lon="0.3635">
        <ele>162.1328125</ele>
      </trkpt>
      <trkpt lat="45.60041" lon="0.36318">
        <ele>160.03515625</ele>
      </trkpt>
      <trkpt lat="45.60052" lon="0.3629">
        <ele>158.04296875</ele>
      </trkpt>
      <trkpt lat="45.60063" lon="0.36266">
        <ele>156.25</ele>
      </trkpt>
      <trkpt lat="45.60071" lon="0.36249">
        <ele>155.109375</ele>
      </trkpt>
      <trkpt lat="45.60074" lon="0.36236">
        <ele>154.37109375</ele>
      </trkpt>
      <trkpt lat="45.6008" lon="0.36252">
        <ele>154.921875</ele>
      </trkpt>
      <trkpt lat="45.60085" lon="0.36267">
        <ele>155.42578125</ele>
      </trkpt>
      <trkpt lat="45.60089" lon="0.36274">
        <ele>155.54296875</ele>
      </trkpt>
      <trkpt lat="45.60134" lon="0.36309">
        <ele>154.703125</ele>
      </trkpt>
      <trkpt lat="45.60175" lon="0.36346">
        <ele>152.44140625</ele>
      </trkpt>
      <trkpt lat="45.60199" lon="0.36367">
        <ele>150.59375</ele>
      </trkpt>
      <trkpt lat="45.60213" lon="0.3638">
        <ele>149.609375</ele>
      </trkpt>
      <trkpt lat="45.60213" lon="0.36396">
        <ele>149.59375</ele>
      </trkpt>
      <trkpt lat="45.60197" lon="0.36416">
        <ele>150.7578125</ele>
      </trkpt>
      <trkpt lat="45.60185" lon="0.36433">
        <ele>151.83984375</ele>
      </trkpt>
      <trkpt lat="45.60195" lon="0.3646">
        <ele>151.5859375</ele>
      </trkpt>
      <trkpt lat="45.60207" lon="0.36487">
        <ele>151.45703125</ele>
      </trkpt>
      <trkpt lat="45.60227" lon="0.36509">
        <ele>151.66015625</ele>
      </trkpt>
      <trkpt lat="45.60251" lon="0.36529">
        <ele>152.7421875</ele>
      </trkpt>
      <trkpt lat="45.60263" lon="0.36538">
        <ele>153.34375</ele>
      </trkpt>
      <trkpt lat="45.60277" lon="0.36543">
        <ele>153.703125</ele>
      </trkpt>
      <trkpt lat="45.60289" lon="0.36537">
        <ele>153.234375</ele>
      </trkpt>
      <trkpt lat="45.60299" lon="0.36528">
        <ele>152.71484375</ele>
      </trkpt>
      <trkpt lat="45.60313" lon="0.36534">
        <ele>153.01171875</ele>
      </trkpt>
      <trkpt lat="45.60335" lon="0.36549">
        <ele>154.13671875</ele>
      </trkpt>
      <trkpt lat="45.60355" lon="0.36564">
        <ele>154.96484375</ele>
      </trkpt>
      <trkpt lat="45.60359" lon="0.36568">
        <ele>155.19921875</ele>
      </trkpt>
      <trkpt lat="45.60361" lon="0.36599">
        <ele>156.95703125</ele>
      </trkpt>
      <trkpt lat="45.6036" lon="0.36635">
        <ele>158.55078125</ele>
      </trkpt>
      <trkpt lat="45.60358" lon="0.36658">
        <ele>159.46875</ele>
      </trkpt>
      <trkpt lat="45.60358" lon="0.36666">
        <ele>159.6953125</ele>
      </trkpt>
      <trkpt lat="45.6035" lon="0.36672">
        <ele>160.21484375</ele>
      </trkpt>
      <trkpt lat="45.60341" lon="0.36683">
        <ele>160.9921875</ele>
      </trkpt>
      <trkpt lat="45.60335" lon="0.36705">
        <ele>161.97265625</ele>
      </trkpt>
      <trkpt lat="45.60324" lon="0.36765">
        <ele>163.51953125</ele>
      </trkpt>
      <trkpt lat="45.60315" lon="0.36808">
        <ele>164.90234375</ele>
      </trkpt>
      <trkpt lat="45.6031" lon="0.36818">
        <ele>165.3359375</ele>
      </trkpt>
      <trkpt lat="45.60301" lon="0.36829">
        <ele>166.0546875</ele>
      </trkpt>
      <trkpt lat="45.60286" lon="0.36843">
        <ele>167.11328125</ele>
      </trkpt>
      <trkpt lat="45.60271" lon="0.36856">
        <ele>168.1328125</ele>
      </trkpt>
      <trkpt lat="45.60278" lon="0.36878">
        <ele>168.17578125</ele>
      </trkpt>
      <trkpt lat="45.60289" lon="0.36909">
        <ele>167.92578125</ele>
      </trkpt>
      <trkpt lat="45.60293" lon="0.36932">
        <ele>167.8359375</ele>
      </trkpt>
      <trkpt lat="45.60298" lon="0.36936">
        <ele>167.41015625</ele>
      </trkpt>
      <trkpt lat="45.60342" lon="0.36948">
        <ele>163.83203125</ele>
      </trkpt>
      <trkpt lat="45.60383" lon="0.36966">
        <ele>160.60546875</ele>
      </trkpt>
      <trkpt lat="45.60412" lon="0.36977">
        <ele>158.6953125</ele>
      </trkpt>
      <trkpt lat="45.60447" lon="0.36991">
        <ele>156.03515625</ele>
      </trkpt>
      <trkpt lat="45.60492" lon="0.37018">
        <ele>152.6015625</ele>
      </trkpt>
      <trkpt lat="45.60519" lon="0.37026">
        <ele>151.109375</ele>
      </trkpt>
      <trkpt lat="45.60556" lon="0.37038">
        <ele>148.84765625</ele>
      </trkpt>
      <trkpt lat="45.60587" lon="0.37042">
        <ele>147.5703125</ele>
      </trkpt>
      <trkpt lat="45.60621" lon="0.37042">
        <ele>146.09375</ele>
      </trkpt>
      <trkpt lat="45.60659" lon="0.37044">
        <ele>143.984375</ele>
      </trkpt>
      <trkpt lat="45.60687" lon="0.37044">
        <ele>142.53125</ele>
      </trkpt>
      <trkpt lat="45.60718" lon="0.37065">
        <ele>140.5546875</ele>
      </trkpt>
      <trkpt lat="45.60738" lon="0.37079">
        <ele>139.55859375</ele>
      </trkpt>
      <trkpt lat="45.6076" lon="0.37089">
        <ele>138.60546875</ele>
      </trkpt>
      <trkpt lat="45.6077" lon="0.37095">
        <ele>138.12890625</ele>
      </trkpt>
      <trkpt lat="45.60779" lon="0.37096">
        <ele>137.7890625</ele>
      </trkpt>
      <trkpt lat="45.60794" lon="0.37107">
        <ele>137.140625</ele>
      </trkpt>
      <trkpt lat="45.60823" lon="0.37118">
        <ele>136.2578125</ele>
      </trkpt>
      <trkpt lat="45.60853" lon="0.37134">
        <ele>135.23828125</ele>
      </trkpt>
      <trkpt lat="45.60865" lon="0.3714">
        <ele>134.81640625</ele>
      </trkpt>
      <trkpt lat="45.60891" lon="0.37153">
        <ele>133.73046875</ele>
      </trkpt>
      <trkpt lat="45.60919" lon="0.37168">
        <ele>132.453125</ele>
      </trkpt>
      <trkpt lat="45.60942" lon="0.37179">
        <ele>131.41015625</ele>
      </trkpt>
      <trkpt lat="45.60964" lon="0.37193">
        <ele>130.73046875</ele>
      </trkpt>
      <trkpt lat="45.60976" lon="0.37202">
        <ele>130.375</ele>
      </trkpt>
      <trkpt lat="45.60978" lon="0.37212">
        <ele>130.1484375</ele>
      </trkpt>
      <trkpt lat="45.60979" lon="0.37233">
        <ele>129.75390625</ele>
      </trkpt>
      <trkpt lat="45.6098" lon="0.37248">
        <ele>129.4609375</ele>
      </trkpt>
      <trkpt lat="45.60982" lon="0.37259">
        <ele>129.37890625</ele>
      </trkpt>
      <trkpt lat="45.60992" lon="0.3727">
        <ele>129.40234375</ele>
      </trkpt>
      <trkpt lat="45.61002" lon="0.37275">
        <ele>129.33203125</ele>
      </trkpt>
      <trkpt lat="45.61033" lon="0.37296">
        <ele>129.28125</ele>
      </trkpt>
      <trkpt lat="45.61064" lon="0.37301">
        <ele>128.81640625</ele>
      </trkpt>
      <trkpt lat="45.61101" lon="0.37308">
        <ele>128.16015625</ele>
      </trkpt>
      <trkpt lat="45.61121" lon="0.37312">
        <ele>127.99609375</ele>
      </trkpt>
      <trkpt lat="45.61134" lon="0.37323">
        <ele>127.90234375</ele>
      </trkpt>
      <trkpt lat="45.61142" lon="0.3733">
        <ele>127.79296875</ele>
      </trkpt>
      <trkpt lat="45.61156" lon="0.37339">
        <ele>127.58203125</ele>
      </trkpt>
      <trkpt lat="45.61174" lon="0.37356">
        <ele>127.17578125</ele>
      </trkpt>
      <trkpt lat="45.61183" lon="0.37371">
        <ele>127.09375</ele>
      </trkpt>
      <trkpt lat="45.61195" lon="0.374">
        <ele>127.609375</ele>
      </trkpt>
      <trkpt lat="45.612" lon="0.37429">
        <ele>128.046875</ele>
      </trkpt>
      <trkpt lat="45.61202" lon="0.37459">
        <ele>128.22265625</ele>
      </trkpt>
      <trkpt lat="45.61205" lon="0.37484">
        <ele>128.3984375</ele>
      </trkpt>
      <trkpt lat="45.6121" lon="0.37489">
        <ele>128.4140625</ele>
      </trkpt>
      <trkpt lat="45.61227" lon="0.37498">
        <ele>128.375</ele>
      </trkpt>
      <trkpt lat="45.6125" lon="0.37508">
        <ele>128.55078125</ele>
      </trkpt>
      <trkpt lat="45.61268" lon="0.3752">
        <ele>128.76171875</ele>
      </trkpt>
      <trkpt lat="45.61301" lon="0.37539">
        <ele>128.55078125</ele>
      </trkpt>
      <trkpt lat="45.61341" lon="0.37549">
        <ele>127.671875</ele>
      </trkpt>
      <trkpt lat="45.61371" lon="0.37561">
        <ele>126.578125</ele>
      </trkpt>
      <trkpt lat="45.61459" lon="0.37596">
        <ele>123.4765625</ele>
      </trkpt>
      <trkpt lat="45.61496" lon="0.376">
        <ele>122.3125</ele>
      </trkpt>
      <trkpt lat="45.61535" lon="0.37605">
        <ele>121.4375</ele>
      </trkpt>
      <trkpt lat="45.61568" lon="0.37602">
        <ele>120.7421875</ele>
      </trkpt>
      <trkpt lat="45.61606" lon="0.37608">
        <ele>120.0703125</ele>
      </trkpt>
      <trkpt lat="45.61643" lon="0.37614">
        <ele>120</ele>
      </trkpt>
      <trkpt lat="45.61689" lon="0.37622">
        <ele>120</ele>
      </trkpt>
      <trkpt lat="45.61709" lon="0.37623">
        <ele>120</ele>
      </trkpt>
      <trkpt lat="45.61734" lon="0.37619">
        <ele>120</ele>
      </trkpt>
      <trkpt lat="45.61775" lon="0.37605">
        <ele>120</ele>
      </trkpt>
      <trkpt lat="45.61799" lon="0.37599">
        <ele>119.66796875</ele>
      </trkpt>
      <trkpt lat="45.61824" lon="0.376">
        <ele>119.3125</ele>
      </trkpt>
      <trkpt lat="45.61847" lon="0.37603">
        <ele>119.1875</ele>
      </trkpt>
      <trkpt lat="45.619" lon="0.37616">
        <ele>119</ele>
      </trkpt>
      <trkpt lat="45.6194" lon="0.37626">
        <ele>119</ele>
      </trkpt>
      <trkpt lat="45.61961" lon="0.37631">
        <ele>119</ele>
      </trkpt>
      <trkpt lat="45.61973" lon="0.37635">
        <ele>119</ele>
      </trkpt>
      <trkpt lat="45.61982" lon="0.37646">
        <ele>119.03125</ele>
      </trkpt>
      <trkpt lat="45.61989" lon="0.37656">
        <ele>119.21484375</ele>
      </trkpt>
      <trkpt lat="45.61994" lon="0.37673">
        <ele>119.53125</ele>
      </trkpt>
      <trkpt lat="45.61998" lon="0.37695">
        <ele>119.92578125</ele>
      </trkpt>
      <trkpt lat="45.61997" lon="0.37753">
        <ele>120.9609375</ele>
      </trkpt>
      <trkpt lat="45.61995" lon="0.37785">
        <ele>121</ele>
      </trkpt>
      <trkpt lat="45.61981" lon="0.37844">
        <ele>121.6015625</ele>
      </trkpt>
      <trkpt lat="45.61976" lon="0.37871">
        <ele>122</ele>
      </trkpt>
      <trkpt lat="45.61969" lon="0.37906">
        <ele>122</ele>
      </trkpt>
      <trkpt lat="45.61962" lon="0.37939">
        <ele>121.6875</ele>
      </trkpt>
      <trkpt lat="45.61955" lon="0.37988">
        <ele>120.3828125</ele>
      </trkpt>
      <trkpt lat="45.61948" lon="0.38039">
        <ele>117.640625</ele>
      </trkpt>
      <trkpt lat="45.61945" lon="0.38071">
        <ele>115.9296875</ele>
      </trkpt>
      <trkpt lat="45.61946" lon="0.38116">
        <ele>113.5390625</ele>
      </trkpt>
      <trkpt lat="45.61946" lon="0.38166">
        <ele>111.2109375</ele>
      </trkpt>
      <trkpt lat="45.6195" lon="0.38204">
        <ele>109.91796875</ele>
      </trkpt>
      <trkpt lat="45.6195" lon="0.38236">
        <ele>109.33984375</ele>
      </trkpt>
      <trkpt lat="45.61951" lon="0.38267">
        <ele>109.15625</ele>
      </trkpt>
      <trkpt lat="45.61951" lon="0.38327">
        <ele>110.33203125</ele>
      </trkpt>
      <trkpt lat="45.6195" lon="0.38369">
        <ele>111.8125</ele>
      </trkpt>
      <trkpt lat="45.61953" lon="0.38415">
        <ele>112.6875</ele>
      </trkpt>
      <trkpt lat="45.61957" lon="0.38456">
        <ele>112.91015625</ele>
      </trkpt>
      <trkpt lat="45.61957" lon="0.38488">
        <ele>112.54296875</ele>
      </trkpt>
      <trkpt lat="45.61958" lon="0.38529">
        <ele>110.86328125</ele>
      </trkpt>
      <trkpt lat="45.61956" lon="0.3856">
        <ele>109.2734375</ele>
      </trkpt>
      <trkpt lat="45.61948" lon="0.38575">
        <ele>108.59375</ele>
      </trkpt>
      <trkpt lat="45.61934" lon="0.38587">
        <ele>108.1640625</ele>
      </trkpt>
      <trkpt lat="45.61925" lon="0.38598">
        <ele>108.62890625</ele>
      </trkpt>
      <trkpt lat="45.61913" lon="0.38619">
        <ele>109.37109375</ele>
      </trkpt>
      <trkpt lat="45.61894" lon="0.3865">
        <ele>110.53515625</ele>
      </trkpt>
      <trkpt lat="45.61872" lon="0.38684">
        <ele>112.90625</ele>
      </trkpt>
      <trkpt lat="45.61852" lon="0.38739">
        <ele>117.60546875</ele>
      </trkpt>
      <trkpt lat="45.61836" lon="0.38786">
        <ele>120.69140625</ele>
      </trkpt>
      <trkpt lat="45.6182" lon="0.38841">
        <ele>123.54296875</ele>
      </trkpt>
      <trkpt lat="45.61803" lon="0.38899">
        <ele>125.3359375</ele>
      </trkpt>
      <trkpt lat="45.6179" lon="0.38953">
        <ele>126.84375</ele>
      </trkpt>
      <trkpt lat="45.61775" lon="0.39016">
        <ele>128.02734375</ele>
      </trkpt>
      <trkpt lat="45.61763" lon="0.39093">
        <ele>129.65625</ele>
      </trkpt>
      <trkpt lat="45.61752" lon="0.39153">
        <ele>131.52734375</ele>
      </trkpt>
      <trkpt lat="45.61738" lon="0.39217">
        <ele>131.89453125</ele>
      </trkpt>
      <trkpt lat="45.61727" lon="0.39256">
        <ele>131.859375</ele>
      </trkpt>
      <trkpt lat="45.6172" lon="0.39272">
        <ele>131.6640625</ele>
      </trkpt>
      <trkpt lat="45.61719" lon="0.39284">
        <ele>131.45703125</ele>
      </trkpt>
      <trkpt lat="45.61706" lon="0.39273">
        <ele>131.65625</ele>
      </trkpt>
      <trkpt lat="45.61692" lon="0.39258">
        <ele>131.91796875</ele>
      </trkpt>
      <trkpt lat="45.61666" lon="0.39232">
        <ele>132</ele>
      </trkpt>
      <trkpt lat="45.61641" lon="0.39198">
        <ele>131.13671875</ele>
      </trkpt>
      <trkpt lat="45.61616" lon="0.39172">
        <ele>130.23828125</ele>
      </trkpt>
      <trkpt lat="45.61592" lon="0.39147">
        <ele>129.0625</ele>
      </trkpt>
      <trkpt lat="45.61569" lon="0.39124">
        <ele>127.44140625</ele>
      </trkpt>
      <trkpt lat="45.61558" lon="0.39112">
        <ele>126.65234375</ele>
      </trkpt>
      <trkpt lat="45.61551" lon="0.39103">
        <ele>126.12890625</ele>
      </trkpt>
      <trkpt lat="45.61536" lon="0.39072">
        <ele>124.48046875</ele>
      </trkpt>
      <trkpt lat="45.61521" lon="0.39042">
        <ele>122.578125</ele>
      </trkpt>
      <trkpt lat="45.61508" lon="0.39027">
        <ele>121.36328125</ele>
      </trkpt>
      <trkpt lat="45.61489" lon="0.38997">
        <ele>119.5078125</ele>
      </trkpt>
      <trkpt lat="45.61446" lon="0.38889">
        <ele>117.96484375</ele>
      </trkpt>
      <trkpt lat="45.61437" lon="0.38866">
        <ele>118.22265625</ele>
      </trkpt>
      <trkpt lat="45.61414" lon="0.38861">
        <ele>119.1484375</ele>
      </trkpt>
      <trkpt lat="45.6139" lon="0.38858">
        <ele>120.171875</ele>
      </trkpt>
      <trkpt lat="45.61365" lon="0.38855">
        <ele>121.12890625</ele>
      </trkpt>
      <trkpt lat="45.61347" lon="0.38854">
        <ele>121.7109375</ele>
      </trkpt>
      <trkpt lat="45.61338" lon="0.38852">
        <ele>122.05078125</ele>
      </trkpt>
      <trkpt lat="45.61335" lon="0.38864">
        <ele>121.93359375</ele>
      </trkpt>
      <trkpt lat="45.61331" lon="0.38932">
        <ele>120.875</ele>
      </trkpt>
      <trkpt lat="45.61328" lon="0.39014">
        <ele>120.890625</ele>
      </trkpt>
      <trkpt lat="45.61321" lon="0.39056">
        <ele>121.69140625</ele>
      </trkpt>
      <trkpt lat="45.61282" lon="0.39045">
        <ele>123.88671875</ele>
      </trkpt>
      <trkpt lat="45.61256" lon="0.39036">
        <ele>125.16015625</ele>
      </trkpt>
      <trkpt lat="45.61228" lon="0.39037">
        <ele>126.6953125</ele>
      </trkpt>
      <trkpt lat="45.61187" lon="0.39048">
        <ele>128.69921875</ele>
      </trkpt>
      <trkpt lat="45.61165" lon="0.39049">
        <ele>129.609375</ele>
      </trkpt>
      <trkpt lat="45.61141" lon="0.39042">
        <ele>130.16796875</ele>
      </trkpt>
      <trkpt lat="45.61132" lon="0.39053">
        <ele>130.74609375</ele>
      </trkpt>
      <trkpt lat="45.61114" lon="0.39057">
        <ele>131.34375</ele>
      </trkpt>
      <trkpt lat="45.61104" lon="0.39059">
        <ele>131.54296875</ele>
      </trkpt>
      <trkpt lat="45.61098" lon="0.39104">
        <ele>132</ele>
      </trkpt>
      <trkpt lat="45.61077" lon="0.39098">
        <ele>132</ele>
      </trkpt>
      <trkpt lat="45.61063" lon="0.39096">
        <ele>132</ele>
      </trkpt>
      <trkpt lat="45.61058" lon="0.39105">
        <ele>132</ele>
      </trkpt>
      <trkpt lat="45.61057" lon="0.39115">
        <ele>132</ele>
      </trkpt>
      <trkpt lat="45.61059" lon="0.39125">
        <ele>132</ele>
      </trkpt>
      <trkpt lat="45.61063" lon="0.39134">
        <ele>132</ele>
      </trkpt>
      <trkpt lat="45.61072" lon="0.39147">
        <ele>131.93359375</ele>
      </trkpt>
      <trkpt lat="45.6108" lon="0.39158">
        <ele>131.72265625</ele>
      </trkpt>
      <trkpt lat="45.61088" lon="0.39168">
        <ele>131.546875</ele>
      </trkpt>
      <trkpt lat="45.61092" lon="0.39175">
        <ele>131.421875</ele>
      </trkpt>
      <trkpt lat="45.61092" lon="0.39179">
        <ele>131.34375</ele>
      </trkpt>
      <trkpt lat="45.61091" lon="0.39186">
        <ele>131.23046875</ele>
      </trkpt>
      <trkpt lat="45.61085" lon="0.39198">
        <ele>131.01171875</ele>
      </trkpt>
      <trkpt lat="45.6107" lon="0.39228">
        <ele>129.71875</ele>
      </trkpt>
      <trkpt lat="45.61052" lon="0.39254">
        <ele>127.90625</ele>
      </trkpt>
      <trkpt lat="45.6105" lon="0.39265">
        <ele>127.46484375</ele>
      </trkpt>
      <trkpt lat="45.61052" lon="0.39281">
        <ele>126.953125</ele>
      </trkpt>
      <trkpt lat="45.61053" lon="0.3937">
        <ele>122.5</ele>
      </trkpt>
      <trkpt lat="45.61052" lon="0.39382">
        <ele>121.40234375</ele>
      </trkpt>
      <trkpt lat="45.61051" lon="0.39388">
        <ele>120.796875</ele>
      </trkpt>
      <trkpt lat="45.61047" lon="0.39391">
        <ele>120.4765625</ele>
      </trkpt>
      <trkpt lat="45.61038" lon="0.39392">
        <ele>120.125</ele>
      </trkpt>
      <trkpt lat="45.61028" lon="0.39393">
        <ele>119.7578125</ele>
      </trkpt>
      <trkpt lat="45.60983" lon="0.39397">
        <ele>118.25390625</ele>
      </trkpt>
      <trkpt lat="45.6097" lon="0.39397">
        <ele>117.94921875</ele>
      </trkpt>
      <trkpt lat="45.60951" lon="0.39392">
        <ele>117.765625</ele>
      </trkpt>
      <trkpt lat="45.60941" lon="0.3939">
        <ele>117.6015625</ele>
      </trkpt>
      <trkpt lat="45.60933" lon="0.3939">
        <ele>117.4375</ele>
      </trkpt>
      <trkpt lat="45.60924" lon="0.39393">
        <ele>117.11328125</ele>
      </trkpt>
      <trkpt lat="45.60918" lon="0.39396">
        <ele>116.8671875</ele>
      </trkpt>
      <trkpt lat="45.60903" lon="0.39409">
        <ele>115.8828125</ele>
      </trkpt>
      <trkpt lat="45.60883" lon="0.39424">
        <ele>114.89453125</ele>
      </trkpt>
      <trkpt lat="45.60874" lon="0.39431">
        <ele>114.70703125</ele>
      </trkpt>
      <trkpt lat="45.6086" lon="0.39439">
        <ele>114.6640625</ele>
      </trkpt>
      <trkpt lat="45.60847" lon="0.39444">
        <ele>114.7734375</ele>
      </trkpt>
      <trkpt lat="45.60816" lon="0.39448">
        <ele>115.8671875</ele>
      </trkpt>
      <trkpt lat="45.60807" lon="0.39447">
        <ele>116.34375</ele>
      </trkpt>
      <trkpt lat="45.60798" lon="0.39441">
        <ele>116.671875</ele>
      </trkpt>
      <trkpt lat="45.60777" lon="0.39423">
        <ele>117.0546875</ele>
      </trkpt>
      <trkpt lat="45.60751" lon="0.39412">
        <ele>117.85546875</ele>
      </trkpt>
      <trkpt lat="45.60733" lon="0.39417">
        <ele>118.4921875</ele>
      </trkpt>
      <trkpt lat="45.60726" lon="0.39418">
        <ele>118.7265625</ele>
      </trkpt>
      <trkpt lat="45.6071" lon="0.39428">
        <ele>119.7265625</ele>
      </trkpt>
      <trkpt lat="45.60694" lon="0.39436">
        <ele>120.46484375</ele>
      </trkpt>
      <trkpt lat="45.60682" lon="0.39444">
        <ele>121.08203125</ele>
      </trkpt>
      <trkpt lat="45.60665" lon="0.39447">
        <ele>121.3984375</ele>
      </trkpt>
      <trkpt lat="45.60651" lon="0.39452">
        <ele>121.1640625</ele>
      </trkpt>
      <trkpt lat="45.60639" lon="0.39457">
        <ele>121.015625</ele>
      </trkpt>
      <trkpt lat="45.60634" lon="0.39464">
        <ele>121.21875</ele>
      </trkpt>
      <trkpt lat="45.60621" lon="0.39475">
        <ele>121.34375</ele>
      </trkpt>
      <trkpt lat="45.60613" lon="0.39481">
        <ele>121.66015625</ele>
      </trkpt>
      <trkpt lat="45.60604" lon="0.39491">
        <ele>122.46484375</ele>
      </trkpt>
      <trkpt lat="45.6058" lon="0.39498">
        <ele>122.8046875</ele>
      </trkpt>
      <trkpt lat="45.60563" lon="0.39504">
        <ele>123.1171875</ele>
      </trkpt>
      <trkpt lat="45.60552" lon="0.39508">
        <ele>123.453125</ele>
      </trkpt>
      <trkpt lat="45.60538" lon="0.39511">
        <ele>123.703125</ele>
      </trkpt>
      <trkpt lat="45.60522" lon="0.39517">
        <ele>124.15234375</ele>
      </trkpt>
      <trkpt lat="45.60511" lon="0.39521">
        <ele>124.390625</ele>
      </trkpt>
      <trkpt lat="45.60498" lon="0.39526">
        <ele>124.61328125</ele>
      </trkpt>
      <trkpt lat="45.60488" lon="0.39529">
        <ele>124.66015625</ele>
      </trkpt>
      <trkpt lat="45.60478" lon="0.39534">
        <ele>124.85546875</ele>
      </trkpt>
      <trkpt lat="45.60468" lon="0.39537">
        <ele>124.9375</ele>
      </trkpt>
      <trkpt lat="45.6046" lon="0.3954">
        <ele>125.0625</ele>
      </trkpt>
      <trkpt lat="45.60451" lon="0.39544">
        <ele>125.125</ele>
      </trkpt>
      <trkpt lat="45.6044" lon="0.39549">
        <ele>125.30859375</ele>
      </trkpt>
      <trkpt lat="45.60426" lon="0.39554">
        <ele>125.7890625</ele>
      </trkpt>
      <trkpt lat="45.60415" lon="0.39559">
        <ele>126.00390625</ele>
      </trkpt>
      <trkpt lat="45.60405" lon="0.39568">
        <ele>125.96875</ele>
      </trkpt>
      <trkpt lat="45.60391" lon="0.3958">
        <ele>125.359375</ele>
      </trkpt>
      <trkpt lat="45.60374" lon="0.39593">
        <ele>125.5546875</ele>
      </trkpt>
      <trkpt lat="45.60351" lon="0.39609">
        <ele>126.20703125</ele>
      </trkpt>
      <trkpt lat="45.6034" lon="0.39616">
        <ele>126.3515625</ele>
      </trkpt>
      <trkpt lat="45.60329" lon="0.39617">
        <ele>126.51953125</ele>
      </trkpt>
      <trkpt lat="45.60312" lon="0.39621">
        <ele>126.74609375</ele>
      </trkpt>
      <trkpt lat="45.60297" lon="0.39623">
        <ele>126.984375</ele>
      </trkpt>
      <trkpt lat="45.60292" lon="0.39627">
        <ele>127</ele>
      </trkpt>
      <trkpt lat="45.6028" lon="0.39632">
        <ele>127.125</ele>
      </trkpt>
      <trkpt lat="45.60276" lon="0.39638">
        <ele>127.08203125</ele>
      </trkpt>
      <trkpt lat="45.6027" lon="0.39648">
        <ele>127.5234375</ele>
      </trkpt>
      <trkpt lat="45.60267" lon="0.39655">
        <ele>128.0859375</ele>
      </trkpt>
      <trkpt lat="45.60255" lon="0.39665">
        <ele>129.01953125</ele>
      </trkpt>
      <trkpt lat="45.60243" lon="0.39674">
        <ele>129.81640625</ele>
      </trkpt>
      <trkpt lat="45.60226" lon="0.39683">
        <ele>130.60546875</ele>
      </trkpt>
      <trkpt lat="45.60211" lon="0.39691">
        <ele>130.88671875</ele>
      </trkpt>
      <trkpt lat="45.60192" lon="0.39696">
        <ele>130.33203125</ele>
      </trkpt>
      <trkpt lat="45.60174" lon="0.39702">
        <ele>129.87890625</ele>
      </trkpt>
      <trkpt lat="45.60163" lon="0.3971">
        <ele>130.2890625</ele>
      </trkpt>
      <trkpt lat="45.6015" lon="0.39718">
        <ele>131.3203125</ele>
      </trkpt>
      <trkpt lat="45.6014" lon="0.39727">
        <ele>132.33203125</ele>
      </trkpt>
      <trkpt lat="45.6013" lon="0.39735">
        <ele>133.16796875</ele>
      </trkpt>
      <trkpt lat="45.6012" lon="0.39737">
        <ele>133.4375</ele>
      </trkpt>
      <trkpt lat="45.60106" lon="0.39742">
        <ele>133.921875</ele>
      </trkpt>
      <trkpt lat="45.60083" lon="0.39741">
        <ele>133.89453125</ele>
      </trkpt>
      <trkpt lat="45.60066" lon="0.39733">
        <ele>133.1484375</ele>
      </trkpt>
      <trkpt lat="45.60054" lon="0.39723">
        <ele>132.26953125</ele>
      </trkpt>
      <trkpt lat="45.60042" lon="0.39716">
        <ele>131.62890625</ele>
      </trkpt>
      <trkpt lat="45.60012" lon="0.39715">
        <ele>131.484375</ele>
      </trkpt>
      <trkpt lat="45.59992" lon="0.39713">
        <ele>131.50390625</ele>
      </trkpt>
      <trkpt lat="45.59972" lon="0.39719">
        <ele>132.3984375</ele>
      </trkpt>
      <trkpt lat="45.59951" lon="0.39723">
        <ele>133.15625</ele>
      </trkpt>
      <trkpt lat="45.59935" lon="0.39733">
        <ele>134.078125</ele>
      </trkpt>
      <trkpt lat="45.59919" lon="0.39745">
        <ele>134.8828125</ele>
      </trkpt>
      <trkpt lat="45.59908" lon="0.39751">
        <ele>135.1484375</ele>
      </trkpt>
      <trkpt lat="45.59893" lon="0.39754">
        <ele>135.171875</ele>
      </trkpt>
      <trkpt lat="45.5988" lon="0.39751">
        <ele>135.47265625</ele>
      </trkpt>
      <trkpt lat="45.59863" lon="0.3975">
        <ele>136.64453125</ele>
      </trkpt>
      <trkpt lat="45.59843" lon="0.3975">
        <ele>138.046875</ele>
      </trkpt>
      <trkpt lat="45.59827" lon="0.39757">
        <ele>139.3046875</ele>
      </trkpt>
      <trkpt lat="45.59808" lon="0.39771">
        <ele>140.3984375</ele>
      </trkpt>
      <trkpt lat="45.59789" lon="0.39786">
        <ele>141.54296875</ele>
      </trkpt>
      <trkpt lat="45.59776" lon="0.39806">
        <ele>142.8828125</ele>
      </trkpt>
      <trkpt lat="45.5977" lon="0.39818">
        <ele>143.71875</ele>
      </trkpt>
      <trkpt lat="45.59758" lon="0.39829">
        <ele>144.51953125</ele>
      </trkpt>
      <trkpt lat="45.59749" lon="0.39838">
        <ele>145.03515625</ele>
      </trkpt>
      <trkpt lat="45.59738" lon="0.39844">
        <ele>145.4140625</ele>
      </trkpt>
      <trkpt lat="45.59724" lon="0.39852">
        <ele>145.75390625</ele>
      </trkpt>
      <trkpt lat="45.59701" lon="0.39865">
        <ele>147.1015625</ele>
      </trkpt>
      <trkpt lat="45.59678" lon="0.39877">
        <ele>148.734375</ele>
      </trkpt>
      <trkpt lat="45.59666" lon="0.39883">
        <ele>149.3828125</ele>
      </trkpt>
      <trkpt lat="45.59633" lon="0.39889">
        <ele>151.578125</ele>
      </trkpt>
      <trkpt lat="45.59619" lon="0.39886">
        <ele>152.46875</ele>
      </trkpt>
      <trkpt lat="45.59607" lon="0.39884">
        <ele>153.2890625</ele>
      </trkpt>
      <trkpt lat="45.59594" lon="0.39883">
        <ele>154.2734375</ele>
      </trkpt>
      <trkpt lat="45.59587" lon="0.39882">
        <ele>154.85546875</ele>
      </trkpt>
      <trkpt lat="45.59583" lon="0.39891">
        <ele>155.25</ele>
      </trkpt>
      <trkpt lat="45.59596" lon="0.39922">
        <ele>154.37109375</ele>
      </trkpt>
      <trkpt lat="45.59608" lon="0.39944">
        <ele>154.07421875</ele>
      </trkpt>
      <trkpt lat="45.59613" lon="0.39952">
        <ele>154.0703125</ele>
      </trkpt>
      <trkpt lat="45.59628" lon="0.39992">
        <ele>155.23046875</ele>
      </trkpt>
      <trkpt lat="45.59651" lon="0.40043">
        <ele>158.69921875</ele>
      </trkpt>
      <trkpt lat="45.59659" lon="0.40062">
        <ele>160.47265625</ele>
      </trkpt>
      <trkpt lat="45.59667" lon="0.40086">
        <ele>162.91796875</ele>
      </trkpt>
      <trkpt lat="45.59675" lon="0.40111">
        <ele>164.46875</ele>
      </trkpt>
      <trkpt lat="45.59684" lon="0.4013">
        <ele>165.65625</ele>
      </trkpt>
      <trkpt lat="45.59692" lon="0.4015">
        <ele>166.8515625</ele>
      </trkpt>
      <trkpt lat="45.59702" lon="0.40171">
        <ele>168.17578125</ele>
      </trkpt>
      <trkpt lat="45.59709" lon="0.4019">
        <ele>169.328125</ele>
      </trkpt>
      <trkpt lat="45.5972" lon="0.40215">
        <ele>170.29296875</ele>
      </trkpt>
      <trkpt lat="45.5973" lon="0.4024">
        <ele>170.3515625</ele>
      </trkpt>
      <trkpt lat="45.5974" lon="0.40264">
        <ele>169.7734375</ele>
      </trkpt>
      <trkpt lat="45.5975" lon="0.40285">
        <ele>168.6328125</ele>
      </trkpt>
      <trkpt lat="45.59759" lon="0.40301">
        <ele>167.5703125</ele>
      </trkpt>
      <trkpt lat="45.59766" lon="0.40312">
        <ele>166.7109375</ele>
      </trkpt>
      <trkpt lat="45.59776" lon="0.40326">
        <ele>165.515625</ele>
      </trkpt>
      <trkpt lat="45.59782" lon="0.40338">
        <ele>164.56640625</ele>
      </trkpt>
      <trkpt lat="45.59785" lon="0.40347">
        <ele>163.9453125</ele>
      </trkpt>
      <trkpt lat="45.59794" lon="0.40368">
        <ele>162.4140625</ele>
      </trkpt>
      <trkpt lat="45.59802" lon="0.40389">
        <ele>160.921875</ele>
      </trkpt>
      <trkpt lat="45.59811" lon="0.40413">
        <ele>159.24609375</ele>
      </trkpt>
      <trkpt lat="45.59819" lon="0.40435">
        <ele>157.9140625</ele>
      </trkpt>
      <trkpt lat="45.5983" lon="0.40462">
        <ele>156.48046875</ele>
      </trkpt>
      <trkpt lat="45.59844" lon="0.40487">
        <ele>155.0703125</ele>
      </trkpt>
      <trkpt lat="45.59872" lon="0.40542">
        <ele>154.10546875</ele>
      </trkpt>
      <trkpt lat="45.59885" lon="0.40571">
        <ele>155.22265625</ele>
      </trkpt>
      <trkpt lat="45.5989" lon="0.40585">
        <ele>156.00390625</ele>
      </trkpt>
      <trkpt lat="45.59891" lon="0.406">
        <ele>157.13671875</ele>
      </trkpt>
      <trkpt lat="45.59891" lon="0.40611">
        <ele>157.89453125</ele>
      </trkpt>
      <trkpt lat="45.59893" lon="0.40619">
        <ele>158.55078125</ele>
      </trkpt>
      <trkpt lat="45.59898" lon="0.40626">
        <ele>159.23046875</ele>
      </trkpt>
      <trkpt lat="45.59905" lon="0.40635">
        <ele>160.16015625</ele>
      </trkpt>
      <trkpt lat="45.59913" lon="0.40642">
        <ele>160.84375</ele>
      </trkpt>
      <trkpt lat="45.59919" lon="0.40646">
        <ele>161.3515625</ele>
      </trkpt>
      <trkpt lat="45.5993" lon="0.40651">
        <ele>161.99609375</ele>
      </trkpt>
      <trkpt lat="45.59939" lon="0.40654">
        <ele>162.4765625</ele>
      </trkpt>
      <trkpt lat="45.59951" lon="0.40657">
        <ele>163.171875</ele>
      </trkpt>
      <trkpt lat="45.59964" lon="0.4066">
        <ele>163.93359375</ele>
      </trkpt>
      <trkpt lat="45.59975" lon="0.40663">
        <ele>164.609375</ele>
      </trkpt>
      <trkpt lat="45.59984" lon="0.40666">
        <ele>165.15625</ele>
      </trkpt>
      <trkpt lat="45.59995" lon="0.40672">
        <ele>165.87890625</ele>
      </trkpt>
      <trkpt lat="45.60009" lon="0.40685">
        <ele>166.93359375</ele>
      </trkpt>
      <trkpt lat="45.6002" lon="0.40701">
        <ele>167.73046875</ele>
      </trkpt>
      <trkpt lat="45.60027" lon="0.4072">
        <ele>167.80078125</ele>
      </trkpt>
      <trkpt lat="45.60032" lon="0.40728">
        <ele>167.859375</ele>
      </trkpt>
      <trkpt lat="45.60044" lon="0.40742">
        <ele>167.94921875</ele>
      </trkpt>
      <trkpt lat="45.60058" lon="0.40761">
        <ele>167.7578125</ele>
      </trkpt>
      <trkpt lat="45.60075" lon="0.40785">
        <ele>167.015625</ele>
      </trkpt>
      <trkpt lat="45.60085" lon="0.40796">
        <ele>166.5859375</ele>
      </trkpt>
      <trkpt lat="45.60102" lon="0.40807">
        <ele>166.08203125</ele>
      </trkpt>
      <trkpt lat="45.60133" lon="0.40824">
        <ele>164.87890625</ele>
      </trkpt>
      <trkpt lat="45.60164" lon="0.40845">
        <ele>163.40234375</ele>
      </trkpt>
      <trkpt lat="45.60191" lon="0.40863">
        <ele>162.078125</ele>
      </trkpt>
      <trkpt lat="45.60236" lon="0.40891">
        <ele>159.0546875</ele>
      </trkpt>
      <trkpt lat="45.60282" lon="0.40918">
        <ele>157.23046875</ele>
      </trkpt>
      <trkpt lat="45.60295" lon="0.40924">
        <ele>156.9453125</ele>
      </trkpt>
      <trkpt lat="45.60314" lon="0.40929">
        <ele>156.78515625</ele>
      </trkpt>
      <trkpt lat="45.60348" lon="0.40936">
        <ele>157.00390625</ele>
      </trkpt>
      <trkpt lat="45.60348" lon="0.40936">
        <ele>156.93359375</ele>
      </trkpt>
      <trkpt lat="45.60398" lon="0.40952">
        <ele>157.72265625</ele>
      </trkpt>
      <trkpt lat="45.60424" lon="0.40973">
        <ele>158.01953125</ele>
      </trkpt>
      <trkpt lat="45.60455" lon="0.41001">
        <ele>158.1953125</ele>
      </trkpt>
      <trkpt lat="45.60491" lon="0.41032">
        <ele>159.328125</ele>
      </trkpt>
      <trkpt lat="45.60526" lon="0.41072">
        <ele>158.23828125</ele>
      </trkpt>
      <trkpt lat="45.60534" lon="0.4108">
        <ele>158.1484375</ele>
      </trkpt>
      <trkpt lat="45.60542" lon="0.41096">
        <ele>157.8046875</ele>
      </trkpt>
      <trkpt lat="45.60543" lon="0.41107">
        <ele>157.30078125</ele>
      </trkpt>
      <trkpt lat="45.60542" lon="0.41118">
        <ele>156.734375</ele>
      </trkpt>
      <trkpt lat="45.60537" lon="0.41128">
        <ele>155.99609375</ele>
      </trkpt>
      <trkpt lat="45.60525" lon="0.41145">
        <ele>154.73828125</ele>
      </trkpt>
      <trkpt lat="45.60505" lon="0.4118">
        <ele>152.1328125</ele>
      </trkpt>
      <trkpt lat="45.60487" lon="0.41217">
        <ele>149.69921875</ele>
      </trkpt>
      <trkpt lat="45.60475" lon="0.41236">
        <ele>148.62109375</ele>
      </trkpt>
      <trkpt lat="45.60474" lon="0.41243">
        <ele>148.3671875</ele>
      </trkpt>
      <trkpt lat="45.60475" lon="0.41252">
        <ele>148.1640625</ele>
      </trkpt>
      <trkpt lat="45.60481" lon="0.41274">
        <ele>147.31640625</ele>
      </trkpt>
      <trkpt lat="45.60496" lon="0.41317">
        <ele>145.6484375</ele>
      </trkpt>
      <trkpt lat="45.60515" lon="0.41358">
        <ele>143.96875</ele>
      </trkpt>
      <trkpt lat="45.60525" lon="0.41372">
        <ele>142.90625</ele>
      </trkpt>
      <trkpt lat="45.60535" lon="0.41381">
        <ele>142.14453125</ele>
      </trkpt>
      <trkpt lat="45.60554" lon="0.41389">
        <ele>141.20703125</ele>
      </trkpt>
      <trkpt lat="45.60597" lon="0.41403">
        <ele>140.1796875</ele>
      </trkpt>
      <trkpt lat="45.60614" lon="0.41414">
        <ele>139.3359375</ele>
      </trkpt>
      <trkpt lat="45.60622" lon="0.41422">
        <ele>138.62890625</ele>
      </trkpt>
      <trkpt lat="45.60628" lon="0.41431">
        <ele>138.01953125</ele>
      </trkpt>
      <trkpt lat="45.6063" lon="0.41434">
        <ele>137.83203125</ele>
      </trkpt>
      <trkpt lat="45.60625" lon="0.41444">
        <ele>137.4140625</ele>
      </trkpt>
      <trkpt lat="45.60614" lon="0.41471">
        <ele>136.16015625</ele>
      </trkpt>
      <trkpt lat="45.60605" lon="0.41492">
        <ele>135.1640625</ele>
      </trkpt>
      <trkpt lat="45.60601" lon="0.41505">
        <ele>134.5</ele>
      </trkpt>
      <trkpt lat="45.60601" lon="0.41517">
        <ele>133.89453125</ele>
      </trkpt>
      <trkpt lat="45.606" lon="0.41529">
        <ele>133.2421875</ele>
      </trkpt>
      <trkpt lat="45.60603" lon="0.4154">
        <ele>132.64453125</ele>
      </trkpt>
      <trkpt lat="45.60603" lon="0.41549">
        <ele>132.16015625</ele>
      </trkpt>
      <trkpt lat="45.60608" lon="0.41564">
        <ele>131.26953125</ele>
      </trkpt>
      <trkpt lat="45.60608" lon="0.41575">
        <ele>130.68359375</ele>
      </trkpt>
      <trkpt lat="45.60602" lon="0.41592">
        <ele>130.06640625</ele>
      </trkpt>
      <trkpt lat="45.60599" lon="0.41603">
        <ele>129.71484375</ele>
      </trkpt>
      <trkpt lat="45.606" lon="0.41618">
        <ele>129.1015625</ele>
      </trkpt>
      <trkpt lat="45.60605" lon="0.41625">
        <ele>128.73046875</ele>
      </trkpt>
      <trkpt lat="45.6061" lon="0.4163">
        <ele>128.39453125</ele>
      </trkpt>
      <trkpt lat="45.60617" lon="0.41633">
        <ele>128.2890625</ele>
      </trkpt>
      <trkpt lat="45.60644" lon="0.4163">
        <ele>128.41015625</ele>
      </trkpt>
      <trkpt lat="45.60663" lon="0.41628">
        <ele>128.46484375</ele>
      </trkpt>
      <trkpt lat="45.6068" lon="0.41638">
        <ele>127.890625</ele>
      </trkpt>
      <trkpt lat="45.60713" lon="0.41663">
        <ele>126.3046875</ele>
      </trkpt>
      <trkpt lat="45.60726" lon="0.41668">
        <ele>125.89453125</ele>
      </trkpt>
      <trkpt lat="45.60734" lon="0.41666">
        <ele>125.640625</ele>
      </trkpt>
      <trkpt lat="45.60759" lon="0.41615">
        <ele>126.71484375</ele>
      </trkpt>
      <trkpt lat="45.60768" lon="0.41603">
        <ele>126.796875</ele>
      </trkpt>
      <trkpt lat="45.60787" lon="0.41588">
        <ele>126.18359375</ele>
      </trkpt>
      <trkpt lat="45.60802" lon="0.41577">
        <ele>125.40234375</ele>
      </trkpt>
      <trkpt lat="45.60822" lon="0.41572">
        <ele>124.0078125</ele>
      </trkpt>
      <trkpt lat="45.60835" lon="0.41575">
        <ele>123.05859375</ele>
      </trkpt>
      <trkpt lat="45.60848" lon="0.41592">
        <ele>122.09375</ele>
      </trkpt>
      <trkpt lat="45.60868" lon="0.4162">
        <ele>120.8671875</ele>
      </trkpt>
      <trkpt lat="45.60881" lon="0.41639">
        <ele>120.25390625</ele>
      </trkpt>
      <trkpt lat="45.60896" lon="0.41667">
        <ele>120.08984375</ele>
      </trkpt>
      <trkpt lat="45.60883" lon="0.41705">
        <ele>121</ele>
      </trkpt>
      <trkpt lat="45.60882" lon="0.41721">
        <ele>121</ele>
      </trkpt>
      <trkpt lat="45.6088" lon="0.41735">
        <ele>121</ele>
      </trkpt>
      <trkpt lat="45.6088" lon="0.41744">
        <ele>121</ele>
      </trkpt>
      <trkpt lat="45.60885" lon="0.41756">
        <ele>120.99609375</ele>
      </trkpt>
      <trkpt lat="45.60891" lon="0.41788">
        <ele>121.03515625</ele>
      </trkpt>
      <trkpt lat="45.60892" lon="0.41803">
        <ele>121.07421875</ele>
      </trkpt>
      <trkpt lat="45.60899" lon="0.41839">
        <ele>121.1953125</ele>
      </trkpt>
      <trkpt lat="45.60897" lon="0.41844">
        <ele>121.16796875</ele>
      </trkpt>
      <trkpt lat="45.60888" lon="0.41861">
        <ele>121.00390625</ele>
      </trkpt>
      <trkpt lat="45.60861" lon="0.41925">
        <ele>117.734375</ele>
      </trkpt>
      <trkpt lat="45.60845" lon="0.4196">
        <ele>115.6484375</ele>
      </trkpt>
      <trkpt lat="45.608" lon="0.42029">
        <ele>112.01953125</ele>
      </trkpt>
      <trkpt lat="45.60795" lon="0.42037">
        <ele>111.53125</ele>
      </trkpt>
      <trkpt lat="45.60763" lon="0.42101">
        <ele>107.49609375</ele>
      </trkpt>
      <trkpt lat="45.60754" lon="0.42121">
        <ele>105.890625</ele>
      </trkpt>
      <trkpt lat="45.6074" lon="0.42144">
        <ele>104.15234375</ele>
      </trkpt>
      <trkpt lat="45.60734" lon="0.42175">
        <ele>101.78125</ele>
      </trkpt>
      <trkpt lat="45.60738" lon="0.42188">
        <ele>100.94140625</ele>
      </trkpt>
      <trkpt lat="45.60741" lon="0.42192">
        <ele>100.66796875</ele>
      </trkpt>
      <trkpt lat="45.60744" lon="0.42196">
        <ele>100.47265625</ele>
      </trkpt>
      <trkpt lat="45.60748" lon="0.42198">
        <ele>100.5</ele>
      </trkpt>
      <trkpt lat="45.60752" lon="0.42201">
        <ele>100.609375</ele>
      </trkpt>
      <trkpt lat="45.60772" lon="0.42214">
        <ele>101.1953125</ele>
      </trkpt>
      <trkpt lat="45.60777" lon="0.42218">
        <ele>101.3828125</ele>
      </trkpt>
      <trkpt lat="45.60781" lon="0.42223">
        <ele>101.546875</ele>
      </trkpt>
      <trkpt lat="45.60785" lon="0.42229">
        <ele>101.75390625</ele>
      </trkpt>
      <trkpt lat="45.60788" lon="0.42236">
        <ele>101.99609375</ele>
      </trkpt>
      <trkpt lat="45.6079" lon="0.42244">
        <ele>102.25</ele>
      </trkpt>
      <trkpt lat="45.6079" lon="0.42252">
        <ele>102.46875</ele>
      </trkpt>
      <trkpt lat="45.60789" lon="0.42259">
        <ele>102.86328125</ele>
      </trkpt>
      <trkpt lat="45.60788" lon="0.42266">
        <ele>103.2109375</ele>
      </trkpt>
      <trkpt lat="45.60786" lon="0.42272">
        <ele>103.50390625</ele>
      </trkpt>
      <trkpt lat="45.60783" lon="0.42284">
        <ele>104.00390625</ele>
      </trkpt>
      <trkpt lat="45.6078" lon="0.42297">
        <ele>104.6015625</ele>
      </trkpt>
      <trkpt lat="45.60782" lon="0.42306">
        <ele>105.17578125</ele>
      </trkpt>
      <trkpt lat="45.60799" lon="0.42309">
        <ele>106.3046875</ele>
      </trkpt>
      <trkpt lat="45.60812" lon="0.4231">
        <ele>107.15234375</ele>
      </trkpt>
      <trkpt lat="45.60826" lon="0.42322">
        <ele>108.96484375</ele>
      </trkpt>
      <trkpt lat="45.60847" lon="0.42343">
        <ele>111.6640625</ele>
      </trkpt>
      <trkpt lat="45.60859" lon="0.4235">
        <ele>112.50390625</ele>
      </trkpt>
      <trkpt lat="45.60874" lon="0.42351">
        <ele>112.9921875</ele>
      </trkpt>
      <trkpt lat="45.60881" lon="0.4235">
        <ele>113.12890625</ele>
      </trkpt>
      <trkpt lat="45.60885" lon="0.42348">
        <ele>113.1171875</ele>
      </trkpt>
      <trkpt lat="45.60892" lon="0.42341">
        <ele>112.8671875</ele>
      </trkpt>
      <trkpt lat="45.60898" lon="0.42327">
        <ele>112.11328125</ele>
      </trkpt>
      <trkpt lat="45.609" lon="0.42321">
        <ele>111.77734375</ele>
      </trkpt>
      <trkpt lat="45.60905" lon="0.42308">
        <ele>111.0078125</ele>
      </trkpt>
      <trkpt lat="45.60909" lon="0.42302">
        <ele>110.47265625</ele>
      </trkpt>
      <trkpt lat="45.60916" lon="0.42296">
        <ele>109.93359375</ele>
      </trkpt>
      <trkpt lat="45.60929" lon="0.42294">
        <ele>109.74609375</ele>
      </trkpt>
      <trkpt lat="45.60968" lon="0.42295">
        <ele>109.2890625</ele>
      </trkpt>
      <trkpt lat="45.60997" lon="0.42302">
        <ele>109.4375</ele>
      </trkpt>
      <trkpt lat="45.61024" lon="0.4232">
        <ele>108.5859375</ele>
      </trkpt>
      <trkpt lat="45.61035" lon="0.42327">
        <ele>108.17578125</ele>
      </trkpt>
      <trkpt lat="45.61042" lon="0.42339">
        <ele>108.375</ele>
      </trkpt>
      <trkpt lat="45.61046" lon="0.4235">
        <ele>108.81640625</ele>
      </trkpt>
      <trkpt lat="45.61048" lon="0.42356">
        <ele>109.05859375</ele>
      </trkpt>
      <trkpt lat="45.61055" lon="0.42362">
        <ele>108.82421875</ele>
      </trkpt>
      <trkpt lat="45.61075" lon="0.4237">
        <ele>107.02734375</ele>
      </trkpt>
      <trkpt lat="45.61081" lon="0.42375">
        <ele>106.5234375</ele>
      </trkpt>
      <trkpt lat="45.61083" lon="0.4238">
        <ele>106.23046875</ele>
      </trkpt>
      <trkpt lat="45.61083" lon="0.42389">
        <ele>106.16796875</ele>
      </trkpt>
      <trkpt lat="45.61083" lon="0.42397">
        <ele>106.1640625</ele>
      </trkpt>
      <trkpt lat="45.6108" lon="0.42405">
        <ele>106.32421875</ele>
      </trkpt>
      <trkpt lat="45.61074" lon="0.42426">
        <ele>106.58984375</ele>
      </trkpt>
      <trkpt lat="45.61068" lon="0.4244">
        <ele>106.9921875</ele>
      </trkpt>
      <trkpt lat="45.61062" lon="0.42474">
        <ele>107.4296875</ele>
      </trkpt>
      <trkpt lat="45.61061" lon="0.42485">
        <ele>107.47265625</ele>
      </trkpt>
      <trkpt lat="45.61057" lon="0.42501">
        <ele>107.8125</ele>
      </trkpt>
      <trkpt lat="45.61052" lon="0.4253">
        <ele>108.14453125</ele>
      </trkpt>
      <trkpt lat="45.61051" lon="0.42557">
        <ele>109.2109375</ele>
      </trkpt>
      <trkpt lat="45.61053" lon="0.42605">
        <ele>110.8125</ele>
      </trkpt>
      <trkpt lat="45.61053" lon="0.42654">
        <ele>112.7578125</ele>
      </trkpt>
      <trkpt lat="45.61055" lon="0.42707">
        <ele>115.33984375</ele>
      </trkpt>
      <trkpt lat="45.61057" lon="0.42711">
        <ele>115.375</ele>
      </trkpt>
      <trkpt lat="45.6106" lon="0.42739">
        <ele>116.2890625</ele>
      </trkpt>
      <trkpt lat="45.61065" lon="0.42745">
        <ele>116.37109375</ele>
      </trkpt>
      <trkpt lat="45.61099" lon="0.42756">
        <ele>115.5390625</ele>
      </trkpt>
      <trkpt lat="45.61109" lon="0.42761">
        <ele>115.36328125</ele>
      </trkpt>
      <trkpt lat="45.61112" lon="0.42765">
        <ele>115.3046875</ele>
      </trkpt>
      <trkpt lat="45.61114" lon="0.4277">
        <ele>115.37109375</ele>
      </trkpt>
      <trkpt lat="45.61113" lon="0.42793">
        <ele>116.234375</ele>
      </trkpt>
      <trkpt lat="45.61111" lon="0.42831">
        <ele>117.3203125</ele>
      </trkpt>
      <trkpt lat="45.61107" lon="0.42875">
        <ele>118.13671875</ele>
      </trkpt>
      <trkpt lat="45.61099" lon="0.42945">
        <ele>118.1796875</ele>
      </trkpt>
      <trkpt lat="45.61084" lon="0.43045">
        <ele>119.53515625</ele>
      </trkpt>
      <trkpt lat="45.61081" lon="0.43079">
        <ele>120</ele>
      </trkpt>
      <trkpt lat="45.61056" lon="0.43163">
        <ele>122.34375</ele>
      </trkpt>
      <trkpt lat="45.61044" lon="0.43206">
        <ele>122.8203125</ele>
      </trkpt>
      <trkpt lat="45.61038" lon="0.43243">
        <ele>122.71484375</ele>
      </trkpt>
      <trkpt lat="45.61038" lon="0.43266">
        <ele>122.3515625</ele>
      </trkpt>
      <trkpt lat="45.61037" lon="0.43306">
        <ele>121.41015625</ele>
      </trkpt>
      <trkpt lat="45.61042" lon="0.43369">
        <ele>118.953125</ele>
      </trkpt>
      <trkpt lat="45.61049" lon="0.43398">
        <ele>117.75</ele>
      </trkpt>
      <trkpt lat="45.61072" lon="0.43457">
        <ele>116.3828125</ele>
      </trkpt>
      <trkpt lat="45.6109" lon="0.43504">
        <ele>115.7109375</ele>
      </trkpt>
      <trkpt lat="45.61109" lon="0.43545">
        <ele>115.078125</ele>
      </trkpt>
      <trkpt lat="45.61121" lon="0.43564">
        <ele>114.75</ele>
      </trkpt>
      <trkpt lat="45.61125" lon="0.4357">
        <ele>114.68359375</ele>
      </trkpt>
      <trkpt lat="45.61128" lon="0.43577">
        <ele>114.421875</ele>
      </trkpt>
      <trkpt lat="45.61125" lon="0.43593">
        <ele>113.16015625</ele>
      </trkpt>
      <trkpt lat="45.61119" lon="0.43627">
        <ele>110.6875</ele>
      </trkpt>
      <trkpt lat="45.61118" lon="0.43652">
        <ele>109.15234375</ele>
      </trkpt>
      <trkpt lat="45.61119" lon="0.43673">
        <ele>107.85546875</ele>
      </trkpt>
      <trkpt lat="45.6112" lon="0.43687">
        <ele>107</ele>
      </trkpt>
      <trkpt lat="45.61124" lon="0.43697">
        <ele>106.171875</ele>
      </trkpt>
      <trkpt lat="45.61144" lon="0.43722">
        <ele>103.72265625</ele>
      </trkpt>
      <trkpt lat="45.61155" lon="0.43732">
        <ele>102.58984375</ele>
      </trkpt>
      <trkpt lat="45.61162" lon="0.43745">
        <ele>101.546875</ele>
      </trkpt>
      <trkpt lat="45.61166" lon="0.43758">
        <ele>100.86328125</ele>
      </trkpt>
      <trkpt lat="45.61167" lon="0.43775">
        <ele>100.5546875</ele>
      </trkpt>
      <trkpt lat="45.61165" lon="0.43803">
        <ele>100.09375</ele>
      </trkpt>
      <trkpt lat="45.61163" lon="0.43846">
        <ele>100.8046875</ele>
      </trkpt>
      <trkpt lat="45.61163" lon="0.43859">
        <ele>101.01171875</ele>
      </trkpt>
      <trkpt lat="45.61164" lon="0.43867">
        <ele>101.04296875</ele>
      </trkpt>
      <trkpt lat="45.61167" lon="0.43876">
        <ele>100.96484375</ele>
      </trkpt>
      <trkpt lat="45.61175" lon="0.43894">
        <ele>100.828125</ele>
      </trkpt>
      <trkpt lat="45.61173" lon="0.43913">
        <ele>100.8671875</ele>
      </trkpt>
      <trkpt lat="45.61158" lon="0.44015">
        <ele>100.16015625</ele>
      </trkpt>
      <trkpt lat="45.61154" lon="0.44061">
        <ele>99.765625</ele>
      </trkpt>
      <trkpt lat="45.61147" lon="0.44102">
        <ele>99.6484375</ele>
      </trkpt>
      <trkpt lat="45.61147" lon="0.44105">
        <ele>99.66796875</ele>
      </trkpt>
      <trkpt lat="45.61147" lon="0.44127">
        <ele>99.67578125</ele>
        <time>2018-08-01T06:05:17Z</time>
      </trkpt>
      <trkpt lat="45.61148" lon="0.44152">
        <ele>99.8359375</ele>
        <time>2018-08-01T06:05:21Z</time>
      </trkpt>
      <trkpt lat="45.61157" lon="0.44164">
        <ele>99.75</ele>
        <time>2018-08-01T06:05:22Z</time>
      </trkpt>
      <trkpt lat="45.6117" lon="0.44197">
        <ele>100.05078125</ele>
        <time>2018-08-01T06:05:27Z</time>
      </trkpt>
      <trkpt lat="45.61179" lon="0.44225">
        <ele>100.95703125</ele>
        <time>2018-08-01T06:05:31Z</time>
      </trkpt>
      <trkpt lat="45.61183" lon="0.44246">
        <ele>101.53125</ele>
        <time>2018-08-01T06:05:32Z</time>
      </trkpt>
      <trkpt lat="45.61194" lon="0.44266">
        <ele>102.0234375</ele>
        <time>2018-08-01T06:05:42Z</time>
      </trkpt>
      <trkpt lat="45.6122" lon="0.44283">
        <ele>102.1796875</ele>
        <time>2018-08-01T06:05:51Z</time>
      </trkpt>
      <trkpt lat="45.61242" lon="0.44287">
        <ele>102.44140625</ele>
        <time>2018-08-01T06:05:56Z</time>
      </trkpt>
      <trkpt lat="45.61254" lon="0.4429">
        <ele>102.59765625</ele>
      </trkpt>
      <trkpt lat="45.61263" lon="0.44296">
        <ele>102.7578125</ele>
      </trkpt>
      <trkpt lat="45.6127" lon="0.44311">
        <ele>103.23828125</ele>
      </trkpt>
      <trkpt lat="45.61274" lon="0.44333">
        <ele>104.40625</ele>
      </trkpt>
      <trkpt lat="45.61279" lon="0.44356">
        <ele>105.65234375</ele>
        <time>2018-08-01T06:06:18Z</time>
      </trkpt>
      <trkpt lat="45.61292" lon="0.44392">
        <ele>106.65234375</ele>
        <time>2018-08-01T06:06:23Z</time>
      </trkpt>
      <trkpt lat="45.61297" lon="0.44405">
        <ele>106.8984375</ele>
        <time>2018-08-01T06:08:45Z</time>
      </trkpt>
      <trkpt lat="45.61304" lon="0.44429">
        <ele>107.12109375</ele>
        <time>2018-08-01T06:08:54Z</time>
      </trkpt>
      <trkpt lat="45.61308" lon="0.44461">
        <ele>107.18359375</ele>
        <time>2018-08-01T06:09:11Z</time>
      </trkpt>
      <trkpt lat="45.61306" lon="0.44496">
        <ele>107.8046875</ele>
      </trkpt>
      <trkpt lat="45.61292" lon="0.4467">
        <ele>106.7578125</ele>
      </trkpt>
      <trkpt lat="45.61288" lon="0.44703">
        <ele>106.703125</ele>
      </trkpt>
      <trkpt lat="45.6128" lon="0.44744">
        <ele>107.6875</ele>
      </trkpt>
      <trkpt lat="45.61271" lon="0.44781">
        <ele>108.39453125</ele>
      </trkpt>
      <trkpt lat="45.61265" lon="0.44792">
        <ele>108.91015625</ele>
      </trkpt>
      <trkpt lat="45.61259" lon="0.44796">
        <ele>109.45703125</ele>
      </trkpt>
      <trkpt lat="45.61248" lon="0.44796">
        <ele>110.36328125</ele>
      </trkpt>
      <trkpt lat="45.61255" lon="0.4475">
        <ele>109.1328125</ele>
      </trkpt>
      <trkpt lat="45.61256" lon="0.44715">
        <ele>108.68359375</ele>
      </trkpt>
      <trkpt lat="45.61237" lon="0.44714">
        <ele>109.94140625</ele>
      </trkpt>
      <trkpt lat="45.6122" lon="0.44713">
        <ele>110.9921875</ele>
      </trkpt>
      <trkpt lat="45.61216" lon="0.44706">
        <ele>110.93359375</ele>
      </trkpt>
      <trkpt lat="45.6121" lon="0.44708">
        <ele>110.84765625</ele>
      </trkpt>
      <trkpt lat="45.61188" lon="0.44739">
        <ele>110.87890625</ele>
      </trkpt>
      <trkpt lat="45.61168" lon="0.44784">
        <ele>112.203125</ele>
      </trkpt>
      <trkpt lat="45.61154" lon="0.44825">
        <ele>114.890625</ele>
      </trkpt>
      <trkpt lat="45.6115" lon="0.44839">
        <ele>115.9921875</ele>
      </trkpt>
      <trkpt lat="45.61139" lon="0.44851">
        <ele>116.83203125</ele>
      </trkpt>
      <trkpt lat="45.61113" lon="0.4487">
        <ele>117.640625</ele>
      </trkpt>
      <trkpt lat="45.61099" lon="0.44884">
        <ele>118.37890625</ele>
      </trkpt>
      <trkpt lat="45.61088" lon="0.44903">
        <ele>119.10546875</ele>
      </trkpt>
      <trkpt lat="45.61078" lon="0.44935">
        <ele>120.33203125</ele>
      </trkpt>
      <trkpt lat="45.61073" lon="0.44943">
        <ele>120.5390625</ele>
      </trkpt>
      <trkpt lat="45.61063" lon="0.44947">
        <ele>120.171875</ele>
      </trkpt>
      <trkpt lat="45.61015" lon="0.44948">
        <ele>120.38671875</ele>
      </trkpt>
      <trkpt lat="45.60989" lon="0.44945">
        <ele>121.04296875</ele>
      </trkpt>
      <trkpt lat="45.60974" lon="0.44949">
        <ele>122.08984375</ele>
      </trkpt>
      <trkpt lat="45.60953" lon="0.44961">
        <ele>124.31640625</ele>
      </trkpt>
      <trkpt lat="45.60922" lon="0.44981">
        <ele>126.89453125</ele>
      </trkpt>
      <trkpt lat="45.60908" lon="0.44999">
        <ele>128.21875</ele>
      </trkpt>
      <trkpt lat="45.60885" lon="0.4503">
        <ele>129.9453125</ele>
      </trkpt>
      <trkpt lat="45.60863" lon="0.45057">
        <ele>129.37109375</ele>
      </trkpt>
      <trkpt lat="45.60798" lon="0.45109">
        <ele>129.22265625</ele>
      </trkpt>
      <trkpt lat="45.60788" lon="0.45117">
        <ele>129.609375</ele>
      </trkpt>
      <trkpt lat="45.60742" lon="0.45124">
        <ele>131.26171875</ele>
      </trkpt>
      <trkpt lat="45.60736" lon="0.45136">
        <ele>131.45703125</ele>
      </trkpt>
      <trkpt lat="45.60703" lon="0.4518">
        <ele>132.17578125</ele>
      </trkpt>
      <trkpt lat="45.60669" lon="0.45216">
        <ele>131.21875</ele>
      </trkpt>
      <trkpt lat="45.60637" lon="0.45242">
        <ele>131.34375</ele>
      </trkpt>
      <trkpt lat="45.60623" lon="0.45259">
        <ele>131.25</ele>
      </trkpt>
      <trkpt lat="45.60607" lon="0.45284">
        <ele>130.88671875</ele>
      </trkpt>
      <trkpt lat="45.60595" lon="0.45316">
        <ele>130.359375</ele>
      </trkpt>
      <trkpt lat="45.60589" lon="0.45346">
        <ele>130.05078125</ele>
      </trkpt>
      <trkpt lat="45.6057" lon="0.45392">
        <ele>129.8828125</ele>
      </trkpt>
      <trkpt lat="45.60518" lon="0.45513">
        <ele>129.3125</ele>
      </trkpt>
      <trkpt lat="45.60503" lon="0.4557">
        <ele>129.8046875</ele>
      </trkpt>
      <trkpt lat="45.60485" lon="0.45637">
        <ele>130.515625</ele>
      </trkpt>
      <trkpt lat="45.60484" lon="0.45651">
        <ele>130.39453125</ele>
      </trkpt>
      <trkpt lat="45.60466" lon="0.45667">
        <ele>131.015625</ele>
      </trkpt>
      <trkpt lat="45.60465" lon="0.45682">
        <ele>130.92578125</ele>
      </trkpt>
      <trkpt lat="45.60452" lon="0.45736">
        <ele>130.828125</ele>
      </trkpt>
      <trkpt lat="45.60434" lon="0.45819">
        <ele>129.0625</ele>
      </trkpt>
      <trkpt lat="45.60431" lon="0.46003">
        <ele>129.4375</ele>
      </trkpt>
      <trkpt lat="45.60437" lon="0.46044">
        <ele>129.9140625</ele>
      </trkpt>
      <trkpt lat="45.6046" lon="0.46135">
        <ele>131.83984375</ele>
      </trkpt>
      <trkpt lat="45.60475" lon="0.46175">
        <ele>132.69140625</ele>
      </trkpt>
      <trkpt lat="45.60486" lon="0.46196">
        <ele>133.2734375</ele>
      </trkpt>
      <trkpt lat="45.60496" lon="0.46211">
        <ele>133.85546875</ele>
      </trkpt>
      <trkpt lat="45.60499" lon="0.4622">
        <ele>134.00390625</ele>
      </trkpt>
      <trkpt lat="45.60492" lon="0.46331">
        <ele>133.54296875</ele>
      </trkpt>
      <trkpt lat="45.60491" lon="0.46342">
        <ele>133.515625</ele>
      </trkpt>
      <trkpt lat="45.60511" lon="0.46359">
        <ele>134.875</ele>
      </trkpt>
      <trkpt lat="45.60555" lon="0.46391">
        <ele>138.0234375</ele>
      </trkpt>
      <trkpt lat="45.60639" lon="0.4646">
        <ele>141.03515625</ele>
      </trkpt>
      <trkpt lat="45.60645" lon="0.46475">
        <ele>141.20703125</ele>
      </trkpt>
      <trkpt lat="45.60644" lon="0.46489">
        <ele>141.01953125</ele>
      </trkpt>
      <trkpt lat="45.60641" lon="0.46502">
        <ele>140.8125</ele>
      </trkpt>
      <trkpt lat="45.60592" lon="0.46591">
        <ele>140.23046875</ele>
      </trkpt>
      <trkpt lat="45.60555" lon="0.46654">
        <ele>139.0078125</ele>
      </trkpt>
      <trkpt lat="45.60476" lon="0.46754">
        <ele>137.44140625</ele>
      </trkpt>
      <trkpt lat="45.60432" lon="0.46795">
        <ele>137</ele>
      </trkpt>
      <trkpt lat="45.60343" lon="0.46887">
        <ele>136.6328125</ele>
      </trkpt>
      <trkpt lat="45.60337" lon="0.46893">
        <ele>136.83984375</ele>
      </trkpt>
      <trkpt lat="45.60337" lon="0.46901">
        <ele>136.81640625</ele>
      </trkpt>
      <trkpt lat="45.60351" lon="0.46919">
        <ele>135.9375</ele>
      </trkpt>
      <trkpt lat="45.60436" lon="0.4702">
        <ele>123.4140625</ele>
      </trkpt>
      <trkpt lat="45.60437" lon="0.4704">
        <ele>121.31640625</ele>
      </trkpt>
      <trkpt lat="45.60483" lon="0.47028">
        <ele>117.671875</ele>
      </trkpt>
      <trkpt lat="45.60533" lon="0.47034">
        <ele>111.7421875</ele>
      </trkpt>
      <trkpt lat="45.60568" lon="0.47049">
        <ele>107.83984375</ele>
      </trkpt>
      <trkpt lat="45.60605" lon="0.46994">
        <ele>110.30078125</ele>
      </trkpt>
      <trkpt lat="45.60628" lon="0.46979">
        <ele>110.13671875</ele>
      </trkpt>
      <trkpt lat="45.60645" lon="0.46971">
        <ele>109.5078125</ele>
      </trkpt>
      <trkpt lat="45.6066" lon="0.46962">
        <ele>109.63671875</ele>
      </trkpt>
      <trkpt lat="45.60675" lon="0.4694">
        <ele>111.26171875</ele>
      </trkpt>
      <trkpt lat="45.60682" lon="0.46924">
        <ele>112.515625</ele>
      </trkpt>
      <trkpt lat="45.60684" lon="0.46919">
        <ele>113.05078125</ele>
      </trkpt>
      <trkpt lat="45.60683" lon="0.46913">
        <ele>113.76171875</ele>
      </trkpt>
      <trkpt lat="45.60682" lon="0.46911">
        <ele>114.1875</ele>
      </trkpt>
      <trkpt lat="45.60683" lon="0.46908">
        <ele>114.37109375</ele>
      </trkpt>
      <trkpt lat="45.60682" lon="0.46903">
        <ele>115.0078125</ele>
      </trkpt>
      <trkpt lat="45.60676" lon="0.46884">
        <ele>117.98828125</ele>
      </trkpt>
      <trkpt lat="45.60675" lon="0.4685">
        <ele>122.3046875</ele>
      </trkpt>
      <trkpt lat="45.60688" lon="0.46847">
        <ele>121.5078125</ele>
      </trkpt>
      <trkpt lat="45.60704" lon="0.46842">
        <ele>120.6796875</ele>
      </trkpt>
      <trkpt lat="45.60714" lon="0.46861">
        <ele>116.68359375</ele>
      </trkpt>
      <trkpt lat="45.60716" lon="0.46905">
        <ele>111.64453125</ele>
      </trkpt>
      <trkpt lat="45.60718" lon="0.46936">
        <ele>108.46484375</ele>
      </trkpt>
      <trkpt lat="45.60718" lon="0.46967">
        <ele>105.5859375</ele>
      </trkpt>
      <trkpt lat="45.60709" lon="0.46979">
        <ele>105.57421875</ele>
      </trkpt>
      <trkpt lat="45.60701" lon="0.46988">
        <ele>105.78515625</ele>
      </trkpt>
      <trkpt lat="45.60683" lon="0.47006">
        <ele>105.7890625</ele>
      </trkpt>
      <trkpt lat="45.60675" lon="0.4702">
        <ele>105.3046875</ele>
      </trkpt>
      <trkpt lat="45.60673" lon="0.47042">
        <ele>105</ele>
      </trkpt>
      <trkpt lat="45.6067" lon="0.47075">
        <ele>105</ele>
      </trkpt>
      <trkpt lat="45.60667" lon="0.47096">
        <ele>105.0078125</ele>
      </trkpt>
      <trkpt lat="45.60688" lon="0.47107">
        <ele>105.1796875</ele>
      </trkpt>
      <trkpt lat="45.60686" lon="0.47194">
        <ele>106.39453125</ele>
      </trkpt>
      <trkpt lat="45.60683" lon="0.47207">
        <ele>106.8046875</ele>
      </trkpt>
      <trkpt lat="45.60677" lon="0.47215">
        <ele>106.97265625</ele>
      </trkpt>
      <trkpt lat="45.60679" lon="0.47231">
        <ele>107.57421875</ele>
      </trkpt>
      <trkpt lat="45.60683" lon="0.47243">
        <ele>108.08984375</ele>
      </trkpt>
      <trkpt lat="45.6069" lon="0.47238">
        <ele>108.046875</ele>
      </trkpt>
      <trkpt lat="45.60713" lon="0.47227">
        <ele>108.0625</ele>
      </trkpt>
      <trkpt lat="45.6072" lon="0.47228">
        <ele>108.21484375</ele>
      </trkpt>
      <trkpt lat="45.60731" lon="0.47288">
        <ele>109</ele>
      </trkpt>
      <trkpt lat="45.60747" lon="0.47366">
        <ele>109</ele>
      </trkpt>
      <trkpt lat="45.60751" lon="0.47366">
        <ele>109</ele>
      </trkpt>
      <trkpt lat="45.60755" lon="0.47354">
        <ele>109</ele>
      </trkpt>
      <trkpt lat="45.60797" lon="0.47324">
        <ele>108.87109375</ele>
      </trkpt>
      <trkpt lat="45.60821" lon="0.47307">
        <ele>108.97265625</ele>
      </trkpt>
      <trkpt lat="45.60861" lon="0.4729">
        <ele>108.61328125</ele>
      </trkpt>
      <trkpt lat="45.60876" lon="0.47282">
        <ele>108.5390625</ele>
      </trkpt>
      <trkpt lat="45.60927" lon="0.47338">
        <ele>107.296875</ele>
      </trkpt>
      <trkpt lat="45.60944" lon="0.47357">
        <ele>107</ele>
      </trkpt>
      <trkpt lat="45.60945" lon="0.47381">
        <ele>107.375</ele>
      </trkpt>
      <trkpt lat="45.60879" lon="0.47434">
        <ele>108.609375</ele>
      </trkpt>
      <trkpt lat="45.60792" lon="0.47507">
        <ele>109.6484375</ele>
      </trkpt>
      <trkpt lat="45.60787" lon="0.47529">
        <ele>110.0546875</ele>
      </trkpt>
      <trkpt lat="45.60783" lon="0.47566">
        <ele>110.79296875</ele>
      </trkpt>
      <trkpt lat="45.60779" lon="0.47581">
        <ele>111.01171875</ele>
      </trkpt>
      <trkpt lat="45.60769" lon="0.476">
        <ele>111.3515625</ele>
      </trkpt>
      <trkpt lat="45.60751" lon="0.47631">
        <ele>111.8359375</ele>
      </trkpt>
      <trkpt lat="45.60744" lon="0.47645">
        <ele>111.94140625</ele>
      </trkpt>
      <trkpt lat="45.60743" lon="0.47654">
        <ele>112.0625</ele>
      </trkpt>
      <trkpt lat="45.60747" lon="0.47671">
        <ele>112.53515625</ele>
      </trkpt>
      <trkpt lat="45.60766" lon="0.47701">
        <ele>113.74609375</ele>
      </trkpt>
      <trkpt lat="45.60766" lon="0.4771">
        <ele>113.921875</ele>
      </trkpt>
      <trkpt lat="45.60747" lon="0.47735">
        <ele>113.66796875</ele>
      </trkpt>
      <trkpt lat="45.60709" lon="0.47781">
        <ele>111.96875</ele>
      </trkpt>
      <trkpt lat="45.60692" lon="0.47806">
        <ele>110.92578125</ele>
      </trkpt>
      <trkpt lat="45.60661" lon="0.47891">
        <ele>108.4453125</ele>
      </trkpt>
      <trkpt lat="45.60661" lon="0.47915">
        <ele>108.0859375</ele>
      </trkpt>
      <trkpt lat="45.6066" lon="0.47934">
        <ele>109.0234375</ele>
      </trkpt>
      <trkpt lat="45.60663" lon="0.47948">
        <ele>109.75390625</ele>
      </trkpt>
      <trkpt lat="45.60681" lon="0.47961">
        <ele>110.28515625</ele>
      </trkpt>
      <trkpt lat="45.60823" lon="0.48047">
        <ele>112.05078125</ele>
      </trkpt>
      <trkpt lat="45.60849" lon="0.48062">
        <ele>112.15625</ele>
      </trkpt>
      <trkpt lat="45.60923" lon="0.48099">
        <ele>112.96484375</ele>
      </trkpt>
      <trkpt lat="45.60992" lon="0.48145">
        <ele>113.5703125</ele>
      </trkpt>
      <trkpt lat="45.61046" lon="0.48181">
        <ele>114.18359375</ele>
      </trkpt>
      <trkpt lat="45.6106" lon="0.48197">
        <ele>114.30859375</ele>
      </trkpt>
      <trkpt lat="45.6109" lon="0.4824">
        <ele>115.54296875</ele>
      </trkpt>
      <trkpt lat="45.61128" lon="0.48269">
        <ele>114.890625</ele>
      </trkpt>
      <trkpt lat="45.61181" lon="0.48299">
        <ele>113.91796875</ele>
      </trkpt>
      <trkpt lat="45.61214" lon="0.48431">
        <ele>116.33984375</ele>
      </trkpt>
      <trkpt lat="45.6124" lon="0.48496">
        <ele>118.03125</ele>
      </trkpt>
      <trkpt lat="45.61282" lon="0.48565">
        <ele>117.515625</ele>
      </trkpt>
      <trkpt lat="45.61302" lon="0.48608">
        <ele>118.25390625</ele>
      </trkpt>
      <trkpt lat="45.61311" lon="0.48667">
        <ele>118.91015625</ele>
      </trkpt>
      <trkpt lat="45.61311" lon="0.48699">
        <ele>119.53125</ele>
      </trkpt>
      <trkpt lat="45.61303" lon="0.48788">
        <ele>120.70703125</ele>
      </trkpt>
      <trkpt lat="45.61296" lon="0.48827">
        <ele>121.484375</ele>
      </trkpt>
      <trkpt lat="45.613" lon="0.489">
        <ele>122.99609375</ele>
      </trkpt>
      <trkpt lat="45.61335" lon="0.49012">
        <ele>122.34765625</ele>
      </trkpt>
      <trkpt lat="45.61344" lon="0.49071">
        <ele>125.13671875</ele>
      </trkpt>
      <trkpt lat="45.61385" lon="0.4907">
        <ele>121.05078125</ele>
      </trkpt>
      <trkpt lat="45.61408" lon="0.49065">
        <ele>122.15625</ele>
      </trkpt>
      <trkpt lat="45.61425" lon="0.49078">
        <ele>123.109375</ele>
      </trkpt>
      <trkpt lat="45.61435" lon="0.49112">
        <ele>122.94140625</ele>
      </trkpt>
      <trkpt lat="45.61461" lon="0.49186">
        <ele>123.69921875</ele>
      </trkpt>
      <trkpt lat="45.61479" lon="0.49287">
        <ele>123.78515625</ele>
      </trkpt>
      <trkpt lat="45.61501" lon="0.49292">
        <ele>123.4921875</ele>
      </trkpt>
      <trkpt lat="45.61502" lon="0.49314">
        <ele>123.38671875</ele>
      </trkpt>
      <trkpt lat="45.61515" lon="0.49371">
        <ele>124.7265625</ele>
      </trkpt>
      <trkpt lat="45.61526" lon="0.49396">
        <ele>125.9609375</ele>
      </trkpt>
      <trkpt lat="45.61546" lon="0.49432">
        <ele>128.64453125</ele>
      </trkpt>
      <trkpt lat="45.61552" lon="0.49425">
        <ele>129.12890625</ele>
      </trkpt>
      <trkpt lat="45.61563" lon="0.49413">
        <ele>129.84765625</ele>
      </trkpt>
      <trkpt lat="45.61592" lon="0.49404">
        <ele>132.390625</ele>
      </trkpt>
      <trkpt lat="45.61609" lon="0.49394">
        <ele>133.92578125</ele>
      </trkpt>
      <trkpt lat="45.61629" lon="0.49392">
        <ele>135.70703125</ele>
      </trkpt>
      <trkpt lat="45.61649" lon="0.49406">
        <ele>137.56640625</ele>
      </trkpt>
      <trkpt lat="45.61669" lon="0.49412">
        <ele>139.30859375</ele>
      </trkpt>
      <trkpt lat="45.61693" lon="0.49411">
        <ele>140.9921875</ele>
      </trkpt>
      <trkpt lat="45.6172" lon="0.49409">
        <ele>142.93359375</ele>
      </trkpt>
      <trkpt lat="45.61758" lon="0.49417">
        <ele>145.75390625</ele>
      </trkpt>
      <trkpt lat="45.61792" lon="0.49422">
        <ele>148.78125</ele>
      </trkpt>
      <trkpt lat="45.61806" lon="0.49429">
        <ele>150.359375</ele>
      </trkpt>
      <trkpt lat="45.6181" lon="0.49438">
        <ele>150.84375</ele>
      </trkpt>
      <trkpt lat="45.61825" lon="0.49437">
        <ele>152.28515625</ele>
      </trkpt>
      <trkpt lat="45.61851" lon="0.49432">
        <ele>155.28125</ele>
      </trkpt>
      <trkpt lat="45.61865" lon="0.49437">
        <ele>157.0078125</ele>
      </trkpt>
      <trkpt lat="45.61869" lon="0.49462">
        <ele>157.0859375</ele>
      </trkpt>
      <trkpt lat="45.61879" lon="0.49528">
        <ele>157.40234375</ele>
      </trkpt>
      <trkpt lat="45.61882" lon="0.49548">
        <ele>157.23828125</ele>
      </trkpt>
      <trkpt lat="45.61895" lon="0.49613">
        <ele>156.99609375</ele>
      </trkpt>
      <trkpt lat="45.61892" lon="0.4962">
        <ele>156.6640625</ele>
      </trkpt>
      <trkpt lat="45.61867" lon="0.49654">
        <ele>154.12890625</ele>
      </trkpt>
      <trkpt lat="45.61848" lon="0.49679">
        <ele>151.90625</ele>
      </trkpt>
      <trkpt lat="45.61823" lon="0.49703">
        <ele>149.57421875</ele>
      </trkpt>
      <trkpt lat="45.61805" lon="0.49729">
        <ele>148.87109375</ele>
      </trkpt>
      <trkpt lat="45.61796" lon="0.49739">
        <ele>148.62109375</ele>
      </trkpt>
      <trkpt lat="45.6179" lon="0.49741">
        <ele>148.39453125</ele>
      </trkpt>
      <trkpt lat="45.61781" lon="0.49741">
        <ele>148.078125</ele>
      </trkpt>
      <trkpt lat="45.61777" lon="0.49761">
        <ele>148.76171875</ele>
      </trkpt>
      <trkpt lat="45.61765" lon="0.49771">
        <ele>148.6875</ele>
      </trkpt>
      <trkpt lat="45.61715" lon="0.49831">
        <ele>148.33984375</ele>
      </trkpt>
      <trkpt lat="45.61703" lon="0.49835">
        <ele>148.0859375</ele>
      </trkpt>
      <trkpt lat="45.61691" lon="0.49837">
        <ele>147.7578125</ele>
      </trkpt>
      <trkpt lat="45.6168" lon="0.49845">
        <ele>147.46875</ele>
      </trkpt>
      <trkpt lat="45.61669" lon="0.4986">
        <ele>146.9609375</ele>
      </trkpt>
      <trkpt lat="45.61645" lon="0.49898">
        <ele>142.06640625</ele>
      </trkpt>
      <trkpt lat="45.6163" lon="0.49917">
        <ele>140.1171875</ele>
      </trkpt>
      <trkpt lat="45.6162" lon="0.49919">
        <ele>139.71484375</ele>
      </trkpt>
      <trkpt lat="45.6161" lon="0.49943">
        <ele>137.421875</ele>
      </trkpt>
      <trkpt lat="45.61597" lon="0.49957">
        <ele>135.73046875</ele>
      </trkpt>
      <trkpt lat="45.6158" lon="0.49972">
        <ele>134.40625</ele>
      </trkpt>
      <trkpt lat="45.61568" lon="0.49985">
        <ele>133.6484375</ele>
      </trkpt>
      <trkpt lat="45.61556" lon="0.50009">
        <ele>131.9921875</ele>
      </trkpt>
      <trkpt lat="45.61547" lon="0.50029">
        <ele>130.7265625</ele>
      </trkpt>
      <trkpt lat="45.61541" lon="0.50063">
        <ele>130.21484375</ele>
      </trkpt>
      <trkpt lat="45.6154" lon="0.5007">
        <ele>130.1015625</ele>
      </trkpt>
      <trkpt lat="45.61539" lon="0.5009">
        <ele>130.1796875</ele>
      </trkpt>
      <trkpt lat="45.61545" lon="0.50118">
        <ele>131.48046875</ele>
      </trkpt>
      <trkpt lat="45.61551" lon="0.50124">
        <ele>132.265625</ele>
      </trkpt>
      <trkpt lat="45.61551" lon="0.50179">
        <ele>133.48828125</ele>
      </trkpt>
      <trkpt lat="45.61553" lon="0.50215">
        <ele>132.66796875</ele>
      </trkpt>
      <trkpt lat="45.61562" lon="0.50242">
        <ele>132.9609375</ele>
      </trkpt>
      <trkpt lat="45.61592" lon="0.50281">
        <ele>136.63671875</ele>
      </trkpt>
      <trkpt lat="45.61633" lon="0.5033">
        <ele>139.60546875</ele>
      </trkpt>
      <trkpt lat="45.61653" lon="0.50357">
        <ele>140.94921875</ele>
      </trkpt>
      <trkpt lat="45.61661" lon="0.50372">
        <ele>141.04296875</ele>
      </trkpt>
      <trkpt lat="45.61677" lon="0.50435">
        <ele>139.9296875</ele>
      </trkpt>
      <trkpt lat="45.6168" lon="0.50449">
        <ele>139.62109375</ele>
      </trkpt>
      <trkpt lat="45.61665" lon="0.5048">
        <ele>134.47265625</ele>
      </trkpt>
      <trkpt lat="45.61645" lon="0.50514">
        <ele>131.953125</ele>
      </trkpt>
      <trkpt lat="45.61642" lon="0.50518">
        <ele>131.73046875</ele>
      </trkpt>
      <trkpt lat="45.61639" lon="0.50538">
        <ele>131.859375</ele>
      </trkpt>
      <trkpt lat="45.61643" lon="0.50555">
        <ele>132.25390625</ele>
      </trkpt>
      <trkpt lat="45.61647" lon="0.50577">
        <ele>132.58984375</ele>
      </trkpt>
      <trkpt lat="45.61639" lon="0.50629">
        <ele>136.875</ele>
      </trkpt>
      <trkpt lat="45.61627" lon="0.50689">
        <ele>143.7734375</ele>
      </trkpt>
      <trkpt lat="45.61626" lon="0.5071">
        <ele>145.66796875</ele>
      </trkpt>
      <trkpt lat="45.6163" lon="0.50729">
        <ele>147.0234375</ele>
      </trkpt>
      <trkpt lat="45.61637" lon="0.50764">
        <ele>149.3671875</ele>
      </trkpt>
      <trkpt lat="45.61641" lon="0.5079">
        <ele>151.26171875</ele>
      </trkpt>
      <trkpt lat="45.61641" lon="0.50877">
        <ele>156.33984375</ele>
      </trkpt>
      <trkpt lat="45.61637" lon="0.51017">
        <ele>160.46875</ele>
      </trkpt>
      <trkpt lat="45.61633" lon="0.51114">
        <ele>161.515625</ele>
      </trkpt>
      <trkpt lat="45.6163" lon="0.51159">
        <ele>163.52734375</ele>
      </trkpt>
      <trkpt lat="45.61622" lon="0.51227">
        <ele>168.72265625</ele>
      </trkpt>
      <trkpt lat="45.61618" lon="0.51286">
        <ele>174.25390625</ele>
      </trkpt>
      <trkpt lat="45.61621" lon="0.51307">
        <ele>175.95703125</ele>
      </trkpt>
      <trkpt lat="45.61629" lon="0.51334">
        <ele>177.8046875</ele>
      </trkpt>
      <trkpt lat="45.61631" lon="0.51359">
        <ele>179.734375</ele>
      </trkpt>
      <trkpt lat="45.61629" lon="0.51397">
        <ele>183.2109375</ele>
      </trkpt>
      <trkpt lat="45.61627" lon="0.51454">
        <ele>187.1484375</ele>
      </trkpt>
      <trkpt lat="45.61628" lon="0.51482">
        <ele>189.171875</ele>
      </trkpt>
      <trkpt lat="45.61628" lon="0.51493">
        <ele>190.2265625</ele>
      </trkpt>
      <trkpt lat="45.6162" lon="0.51512">
        <ele>191.921875</ele>
      </trkpt>
      <trkpt lat="45.61616" lon="0.5159">
        <ele>197.83984375</ele>
      </trkpt>
      <trkpt lat="45.61615" lon="0.51659">
        <ele>203.1484375</ele>
      </trkpt>
      <trkpt lat="45.6162" lon="0.51712">
        <ele>205.953125</ele>
      </trkpt>
      <trkpt lat="45.61632" lon="0.51754">
        <ele>207.80078125</ele>
      </trkpt>
      <trkpt lat="45.61645" lon="0.51795">
        <ele>208.78515625</ele>
      </trkpt>
      <trkpt lat="45.61678" lon="0.51859">
        <ele>210.32421875</ele>
      </trkpt>
      <trkpt lat="45.61695" lon="0.51905">
        <ele>210.30859375</ele>
      </trkpt>
      <trkpt lat="45.61726" lon="0.51935">
        <ele>209.83984375</ele>
      </trkpt>
      <trkpt lat="45.6175" lon="0.51958">
        <ele>207.67578125</ele>
      </trkpt>
      <trkpt lat="45.61755" lon="0.51981">
        <ele>207.5234375</ele>
      </trkpt>
      <trkpt lat="45.61772" lon="0.52042">
        <ele>207.91015625</ele>
      </trkpt>
      <trkpt lat="45.61804" lon="0.52132">
        <ele>209.85546875</ele>
      </trkpt>
      <trkpt lat="45.6182" lon="0.52182">
        <ele>211.609375</ele>
      </trkpt>
      <trkpt lat="45.61838" lon="0.52232">
        <ele>212.9375</ele>
      </trkpt>
      <trkpt lat="45.61841" lon="0.52244">
        <ele>213.28125</ele>
      </trkpt>
      <trkpt lat="45.61838" lon="0.52259">
        <ele>212.9765625</ele>
      </trkpt>
      <trkpt lat="45.61829" lon="0.52274">
        <ele>212.3828125</ele>
      </trkpt>
      <trkpt lat="45.61818" lon="0.52287">
        <ele>211.76171875</ele>
      </trkpt>
      <trkpt lat="45.61815" lon="0.523">
        <ele>211.4296875</ele>
      </trkpt>
      <trkpt lat="45.61818" lon="0.5231">
        <ele>211.0078125</ele>
      </trkpt>
      <trkpt lat="45.61832" lon="0.52328">
        <ele>210.5859375</ele>
      </trkpt>
      <trkpt lat="45.61872" lon="0.52373">
        <ele>210.25390625</ele>
      </trkpt>
      <trkpt lat="45.61976" lon="0.52484">
        <ele>210.05859375</ele>
      </trkpt>
      <trkpt lat="45.61987" lon="0.52492">
        <ele>210.18359375</ele>
      </trkpt>
      <trkpt lat="45.61999" lon="0.52495">
        <ele>210.4921875</ele>
      </trkpt>
      <trkpt lat="45.62018" lon="0.52493">
        <ele>209.546875</ele>
      </trkpt>
      <trkpt lat="45.62054" lon="0.525">
        <ele>207.42578125</ele>
      </trkpt>
      <trkpt lat="45.62079" lon="0.52506">
        <ele>205.96875</ele>
      </trkpt>
      <trkpt lat="45.62097" lon="0.52504">
        <ele>204.98046875</ele>
      </trkpt>
      <trkpt lat="45.62113" lon="0.52493">
        <ele>203.75390625</ele>
      </trkpt>
      <trkpt lat="45.62112" lon="0.52481">
        <ele>203.33984375</ele>
      </trkpt>
      <trkpt lat="45.62122" lon="0.52462">
        <ele>202.13671875</ele>
      </trkpt>
      <trkpt lat="45.62136" lon="0.52447">
        <ele>200.80078125</ele>
      </trkpt>
      <trkpt lat="45.62145" lon="0.52439">
        <ele>199.90234375</ele>
      </trkpt>
      <trkpt lat="45.62159" lon="0.52438">
        <ele>198.828125</ele>
      </trkpt>
      <trkpt lat="45.62203" lon="0.52446">
        <ele>198.98828125</ele>
      </trkpt>
      <trkpt lat="45.62221" lon="0.52445">
        <ele>198.9375</ele>
      </trkpt>
      <trkpt lat="45.62233" lon="0.52438">
        <ele>199.21484375</ele>
      </trkpt>
      <trkpt lat="45.62248" lon="0.52417">
        <ele>198.75</ele>
      </trkpt>
      <trkpt lat="45.62263" lon="0.52379">
        <ele>196.33984375</ele>
      </trkpt>
      <trkpt lat="45.6228" lon="0.52333">
        <ele>192.7109375</ele>
      </trkpt>
      <trkpt lat="45.62298" lon="0.52291">
        <ele>189.8828125</ele>
      </trkpt>
      <trkpt lat="45.62325" lon="0.52251">
        <ele>187.99609375</ele>
      </trkpt>
      <trkpt lat="45.62354" lon="0.52207">
        <ele>184.2421875</ele>
      </trkpt>
      <trkpt lat="45.62377" lon="0.5217">
        <ele>179.90625</ele>
      </trkpt>
      <trkpt lat="45.62405" lon="0.52136">
        <ele>174.5234375</ele>
      </trkpt>
      <trkpt lat="45.62439" lon="0.52122">
        <ele>171.515625</ele>
      </trkpt>
      <trkpt lat="45.62469" lon="0.52121">
        <ele>169.6328125</ele>
      </trkpt>
      <trkpt lat="45.6251" lon="0.52125">
        <ele>167.45703125</ele>
      </trkpt>
      <trkpt lat="45.62542" lon="0.5213">
        <ele>165.41015625</ele>
      </trkpt>
      <trkpt lat="45.62564" lon="0.52133">
        <ele>164.1953125</ele>
      </trkpt>
      <trkpt lat="45.62587" lon="0.52127">
        <ele>162.203125</ele>
      </trkpt>
      <trkpt lat="45.62616" lon="0.52107">
        <ele>158.6875</ele>
      </trkpt>
      <trkpt lat="45.62659" lon="0.52075">
        <ele>154.09375</ele>
      </trkpt>
      <trkpt lat="45.62678" lon="0.52071">
        <ele>153.9609375</ele>
      </trkpt>
      <trkpt lat="45.62709" lon="0.52076">
        <ele>154.09375</ele>
      </trkpt>
      <trkpt lat="45.62723" lon="0.52073">
        <ele>154.453125</ele>
      </trkpt>
      <trkpt lat="45.62735" lon="0.52069">
        <ele>155.59765625</ele>
      </trkpt>
      <trkpt lat="45.62744" lon="0.52056">
        <ele>157.14453125</ele>
      </trkpt>
      <trkpt lat="45.6275" lon="0.5204">
        <ele>158.71484375</ele>
      </trkpt>
      <trkpt lat="45.62751" lon="0.52023">
        <ele>159.96484375</ele>
      </trkpt>
      <trkpt lat="45.62747" lon="0.52006">
        <ele>161.5</ele>
      </trkpt>
      <trkpt lat="45.62736" lon="0.51984">
        <ele>162.44140625</ele>
      </trkpt>
      <trkpt lat="45.62726" lon="0.51972">
        <ele>162.42578125</ele>
      </trkpt>
      <trkpt lat="45.62701" lon="0.51958">
        <ele>160.75</ele>
      </trkpt>
      <trkpt lat="45.62676" lon="0.51936">
        <ele>159.625</ele>
      </trkpt>
      <trkpt lat="45.62665" lon="0.51926">
        <ele>158.79296875</ele>
      </trkpt>
      <trkpt lat="45.62655" lon="0.51904">
        <ele>159.28125</ele>
      </trkpt>
      <trkpt lat="45.62652" lon="0.51879">
        <ele>160.25390625</ele>
      </trkpt>
      <trkpt lat="45.62658" lon="0.51849">
        <ele>161.91796875</ele>
      </trkpt>
      <trkpt lat="45.62667" lon="0.51824">
        <ele>162.07421875</ele>
      </trkpt>
      <trkpt lat="45.62684" lon="0.51789">
        <ele>162.7421875</ele>
      </trkpt>
      <trkpt lat="45.62752" lon="0.51659">
        <ele>165.203125</ele>
      </trkpt>
      <trkpt lat="45.6277" lon="0.51622">
        <ele>166.28125</ele>
      </trkpt>
      <trkpt lat="45.62781" lon="0.51611">
        <ele>166.7109375</ele>
      </trkpt>
      <trkpt lat="45.62794" lon="0.51599">
        <ele>167.55859375</ele>
      </trkpt>
      <trkpt lat="45.62817" lon="0.51588">
        <ele>169.296875</ele>
      </trkpt>
      <trkpt lat="45.62901" lon="0.51568">
        <ele>175.76171875</ele>
      </trkpt>
      <trkpt lat="45.62933" lon="0.5155">
        <ele>177.22265625</ele>
      </trkpt>
      <trkpt lat="45.62975" lon="0.51519">
        <ele>178.2421875</ele>
      </trkpt>
      <trkpt lat="45.62985" lon="0.51516">
        <ele>178.86328125</ele>
      </trkpt>
      <trkpt lat="45.63002" lon="0.51519">
        <ele>180.23046875</ele>
      </trkpt>
      <trkpt lat="45.63017" lon="0.51522">
        <ele>181.66796875</ele>
      </trkpt>
      <trkpt lat="45.63036" lon="0.51536">
        <ele>184.203125</ele>
      </trkpt>
      <trkpt lat="45.63052" lon="0.5155">
        <ele>186.3203125</ele>
      </trkpt>
      <trkpt lat="45.63066" lon="0.51576">
        <ele>188.55859375</ele>
      </trkpt>
      <trkpt lat="45.63077" lon="0.51594">
        <ele>190.3359375</ele>
      </trkpt>
      <trkpt lat="45.63084" lon="0.51603">
        <ele>191.3203125</ele>
      </trkpt>
      <trkpt lat="45.63092" lon="0.51609">
        <ele>191.984375</ele>
      </trkpt>
      <trkpt lat="45.63103" lon="0.51606">
        <ele>192.19921875</ele>
      </trkpt>
      <trkpt lat="45.63107" lon="0.516">
        <ele>192.02734375</ele>
      </trkpt>
      <trkpt lat="45.63111" lon="0.5159">
        <ele>191.875</ele>
      </trkpt>
      <trkpt lat="45.63112" lon="0.51579">
        <ele>191.45703125</ele>
      </trkpt>
      <trkpt lat="45.63108" lon="0.5157">
        <ele>191.15234375</ele>
      </trkpt>
      <trkpt lat="45.63099" lon="0.51549">
        <ele>190.6640625</ele>
      </trkpt>
      <trkpt lat="45.63096" lon="0.51531">
        <ele>190.40234375</ele>
      </trkpt>
      <trkpt lat="45.63095" lon="0.51521">
        <ele>190.28515625</ele>
      </trkpt>
      <trkpt lat="45.63097" lon="0.51511">
        <ele>190.41796875</ele>
      </trkpt>
      <trkpt lat="45.63104" lon="0.51494">
        <ele>191.38671875</ele>
      </trkpt>
      <trkpt lat="45.63113" lon="0.51481">
        <ele>192.5625</ele>
      </trkpt>
      <trkpt lat="45.63137" lon="0.51447">
        <ele>195.33984375</ele>
      </trkpt>
      <trkpt lat="45.63168" lon="0.51417">
        <ele>197.6796875</ele>
      </trkpt>
      <trkpt lat="45.63194" lon="0.51407">
        <ele>200.56640625</ele>
      </trkpt>
      <trkpt lat="45.63223" lon="0.51406">
        <ele>204.03515625</ele>
      </trkpt>
      <trkpt lat="45.63241" lon="0.51393">
        <ele>205.87890625</ele>
      </trkpt>
      <trkpt lat="45.6325" lon="0.5138">
        <ele>206.28515625</ele>
      </trkpt>
      <trkpt lat="45.63253" lon="0.51363">
        <ele>205.55078125</ele>
      </trkpt>
      <trkpt lat="45.63251" lon="0.51348">
        <ele>205.13671875</ele>
      </trkpt>
      <trkpt lat="45.63242" lon="0.51328">
        <ele>204.296875</ele>
      </trkpt>
      <trkpt lat="45.63226" lon="0.51307">
        <ele>202.7578125</ele>
      </trkpt>
      <trkpt lat="45.63215" lon="0.51292">
        <ele>202.671875</ele>
      </trkpt>
      <trkpt lat="45.63204" lon="0.5129">
        <ele>202.3125</ele>
      </trkpt>
      <trkpt lat="45.63191" lon="0.51291">
        <ele>201.5546875</ele>
      </trkpt>
      <trkpt lat="45.63172" lon="0.51289">
        <ele>200.8515625</ele>
      </trkpt>
      <trkpt lat="45.63158" lon="0.51279">
        <ele>201.359375</ele>
      </trkpt>
      <trkpt lat="45.63155" lon="0.51274">
        <ele>201.74609375</ele>
      </trkpt>
      <trkpt lat="45.63145" lon="0.51259">
        <ele>203</ele>
      </trkpt>
      <trkpt lat="45.63136" lon="0.51242">
        <ele>204.32421875</ele>
      </trkpt>
      <trkpt lat="45.63131" lon="0.51214">
        <ele>206.38671875</ele>
      </trkpt>
      <trkpt lat="45.63129" lon="0.51197">
        <ele>207.65234375</ele>
      </trkpt>
      <trkpt lat="45.63134" lon="0.51166">
        <ele>209.51171875</ele>
      </trkpt>
      <trkpt lat="45.63139" lon="0.51132">
        <ele>211.06640625</ele>
      </trkpt>
      <trkpt lat="45.6315" lon="0.51108">
        <ele>211.109375</ele>
      </trkpt>
      <trkpt lat="45.63157" lon="0.51091">
        <ele>211.0390625</ele>
      </trkpt>
      <trkpt lat="45.63328" lon="0.51266">
        <ele>213.83984375</ele>
      </trkpt>
      <trkpt lat="45.6335" lon="0.51292">
        <ele>215.25</ele>
      </trkpt>
      <trkpt lat="45.63366" lon="0.51335">
        <ele>217.67578125</ele>
      </trkpt>
      <trkpt lat="45.6339" lon="0.51415">
        <ele>222.09765625</ele>
      </trkpt>
      <trkpt lat="45.63431" lon="0.51551">
        <ele>223.5703125</ele>
      </trkpt>
      <trkpt lat="45.6347" lon="0.51537">
        <ele>222.359375</ele>
      </trkpt>
      <trkpt lat="45.63549" lon="0.51519">
        <ele>220.21875</ele>
      </trkpt>
      <trkpt lat="45.63597" lon="0.51512">
        <ele>217.84765625</ele>
      </trkpt>
      <trkpt lat="45.63642" lon="0.51508">
        <ele>215.05859375</ele>
      </trkpt>
      <trkpt lat="45.63715" lon="0.51529">
        <ele>210.890625</ele>
      </trkpt>
      <trkpt lat="45.6375" lon="0.51537">
        <ele>208.8984375</ele>
      </trkpt>
      <trkpt lat="45.63819" lon="0.51551">
        <ele>205.15234375</ele>
      </trkpt>
      <trkpt lat="45.63869" lon="0.51567">
        <ele>202.3046875</ele>
      </trkpt>
      <trkpt lat="45.6394" lon="0.5156">
        <ele>198.140625</ele>
      </trkpt>
      <trkpt lat="45.64006" lon="0.51552">
        <ele>193.42578125</ele>
      </trkpt>
      <trkpt lat="45.64084" lon="0.5154">
        <ele>187.44140625</ele>
      </trkpt>
      <trkpt lat="45.64149" lon="0.51533">
        <ele>182.1796875</ele>
      </trkpt>
      <trkpt lat="45.6418" lon="0.51528">
        <ele>180.48046875</ele>
      </trkpt>
      <trkpt lat="45.64203" lon="0.51521">
        <ele>179.58984375</ele>
      </trkpt>
      <trkpt lat="45.64233" lon="0.51521">
        <ele>178.5078125</ele>
      </trkpt>
      <trkpt lat="45.64267" lon="0.51523">
        <ele>177.2734375</ele>
      </trkpt>
      <trkpt lat="45.64291" lon="0.51528">
        <ele>176.74609375</ele>
      </trkpt>
      <trkpt lat="45.64327" lon="0.5155">
        <ele>176.078125</ele>
      </trkpt>
      <trkpt lat="45.64366" lon="0.51576">
        <ele>174.7421875</ele>
      </trkpt>
      <trkpt lat="45.64407" lon="0.51599">
        <ele>173.796875</ele>
      </trkpt>
      <trkpt lat="45.64433" lon="0.51605">
        <ele>172.81640625</ele>
      </trkpt>
      <trkpt lat="45.64506" lon="0.51614">
        <ele>171.31640625</ele>
      </trkpt>
      <trkpt lat="45.64542" lon="0.51615">
        <ele>171.0703125</ele>
      </trkpt>
      <trkpt lat="45.64581" lon="0.51628">
        <ele>170.9296875</ele>
      </trkpt>
      <trkpt lat="45.64598" lon="0.51628">
        <ele>170.8984375</ele>
      </trkpt>
      <trkpt lat="45.6462" lon="0.51622">
        <ele>170.5390625</ele>
      </trkpt>
      <trkpt lat="45.64651" lon="0.5161">
        <ele>169.76953125</ele>
      </trkpt>
      <trkpt lat="45.64661" lon="0.51613">
        <ele>169.6328125</ele>
      </trkpt>
      <trkpt lat="45.64666" lon="0.51616">
        <ele>169.56640625</ele>
      </trkpt>
      <trkpt lat="45.64674" lon="0.51635">
        <ele>169.59375</ele>
      </trkpt>
      <trkpt lat="45.6469" lon="0.51647">
        <ele>169.56640625</ele>
      </trkpt>
      <trkpt lat="45.64721" lon="0.51664">
        <ele>169.04296875</ele>
      </trkpt>
      <trkpt lat="45.64742" lon="0.51681">
        <ele>169.921875</ele>
      </trkpt>
      <trkpt lat="45.64763" lon="0.51702">
        <ele>171.40234375</ele>
      </trkpt>
      <trkpt lat="45.64781" lon="0.51719">
        <ele>172.92578125</ele>
      </trkpt>
      <trkpt lat="45.64795" lon="0.51725">
        <ele>174.20703125</ele>
      </trkpt>
      <trkpt lat="45.64812" lon="0.51723">
        <ele>175.21875</ele>
      </trkpt>
      <trkpt lat="45.64838" lon="0.51707">
        <ele>175.83203125</ele>
      </trkpt>
      <trkpt lat="45.64857" lon="0.51695">
        <ele>176.6875</ele>
      </trkpt>
      <trkpt lat="45.64874" lon="0.51688">
        <ele>177.828125</ele>
      </trkpt>
      <trkpt lat="45.64897" lon="0.51678">
        <ele>179.1796875</ele>
      </trkpt>
      <trkpt lat="45.64912" lon="0.5167">
        <ele>179.98828125</ele>
      </trkpt>
      <trkpt lat="45.64913" lon="0.51688">
        <ele>180.890625</ele>
        <time>2018-08-01T06:58:25Z</time>
      </trkpt>
      <trkpt lat="45.64914" lon="0.51728">
        <ele>182.72265625</ele>
        <time>2018-08-01T06:58:35Z</time>
      </trkpt>
      <trkpt lat="45.64914" lon="0.51759">
        <ele>184</ele>
        <time>2018-08-01T06:58:45Z</time>
      </trkpt>
      <trkpt lat="45.64915" lon="0.51786">
        <ele>184.97265625</ele>
        <time>2018-08-01T06:58:55Z</time>
      </trkpt>
      <trkpt lat="45.64914" lon="0.51805">
        <ele>185.57421875</ele>
        <time>2018-08-01T06:59:03Z</time>
      </trkpt>
      <trkpt lat="45.64922" lon="0.5183">
        <ele>186.00390625</ele>
        <time>2018-08-01T06:59:10Z</time>
      </trkpt>
      <trkpt lat="45.64942" lon="0.51861">
        <ele>185.9765625</ele>
        <time>2018-08-01T06:59:18Z</time>
      </trkpt>
      <trkpt lat="45.6496" lon="0.51891">
        <ele>185.44921875</ele>
        <time>2018-08-01T06:59:26Z</time>
      </trkpt>
      <trkpt lat="45.64969" lon="0.51906">
        <ele>185.04296875</ele>
        <time>2018-08-01T06:59:33Z</time>
      </trkpt>
      <trkpt lat="45.64979" lon="0.51924">
        <ele>184.359375</ele>
        <time>2018-08-01T06:59:40Z</time>
      </trkpt>
      <trkpt lat="45.64989" lon="0.51941">
        <ele>183.70703125</ele>
        <time>2018-08-01T06:59:45Z</time>
      </trkpt>
      <trkpt lat="45.65006" lon="0.51965">
        <ele>182.39453125</ele>
        <time>2018-08-01T06:59:52Z</time>
      </trkpt>
      <trkpt lat="45.65008" lon="0.5197">
        <ele>182.10546875</ele>
        <time>2018-08-01T06:59:53Z</time>
      </trkpt>
      <trkpt lat="45.6501" lon="0.51973">
        <ele>181.8203125</ele>
        <time>2018-08-01T06:59:54Z</time>
      </trkpt>
      <trkpt lat="45.6501" lon="0.51977">
        <ele>181.671875</ele>
        <time>2018-08-01T06:59:55Z</time>
      </trkpt>
      <trkpt lat="45.65008" lon="0.51979">
        <ele>181.68359375</ele>
        <time>2018-08-01T06:59:56Z</time>
      </trkpt>
      <trkpt lat="45.65005" lon="0.51981">
        <ele>181.78125</ele>
        <time>2018-08-01T06:59:57Z</time>
      </trkpt>
      <trkpt lat="45.65002" lon="0.51982">
        <ele>181.8984375</ele>
        <time>2018-08-01T06:59:58Z</time>
      </trkpt>
      <trkpt lat="45.64972" lon="0.51994">
        <ele>182.25390625</ele>
        <time>2018-08-01T07:00:07Z</time>
      </trkpt>
      <trkpt lat="45.64934" lon="0.52015">
        <ele>182.546875</ele>
        <time>2018-08-01T07:00:16Z</time>
      </trkpt>
      <trkpt lat="45.64897" lon="0.52044">
        <ele>182.859375</ele>
        <time>2018-08-01T07:00:25Z</time>
      </trkpt>
      <trkpt lat="45.64868" lon="0.52065">
        <ele>183.66015625</ele>
        <time>2018-08-01T07:00:33Z</time>
      </trkpt>
      <trkpt lat="45.64843" lon="0.52085">
        <ele>184.8046875</ele>
        <time>2018-08-01T07:00:41Z</time>
      </trkpt>
      <trkpt lat="45.64816" lon="0.52115">
        <ele>185.609375</ele>
        <time>2018-08-01T07:00:50Z</time>
      </trkpt>
      <trkpt lat="45.64788" lon="0.52144">
        <ele>186.76953125</ele>
        <time>2018-08-01T07:00:59Z</time>
      </trkpt>
      <trkpt lat="45.64765" lon="0.52171">
        <ele>188.11328125</ele>
        <time>2018-08-01T07:01:07Z</time>
      </trkpt>
      <trkpt lat="45.64738" lon="0.52205">
        <ele>190.05078125</ele>
        <time>2018-08-01T07:01:17Z</time>
      </trkpt>
      <trkpt lat="45.64712" lon="0.52234">
        <ele>191.70703125</ele>
        <time>2018-08-01T07:01:27Z</time>
      </trkpt>
      <trkpt lat="45.6469" lon="0.52263">
        <ele>192.35546875</ele>
        <time>2018-08-01T07:01:36Z</time>
      </trkpt>
      <trkpt lat="45.6469" lon="0.52266">
        <ele>192.1796875</ele>
        <time>2018-08-01T07:01:37Z</time>
      </trkpt>
      <trkpt lat="45.64692" lon="0.52269">
        <ele>191.8984375</ele>
        <time>2018-08-01T07:01:38Z</time>
      </trkpt>
      <trkpt lat="45.64695" lon="0.5227">
        <ele>191.5703125</ele>
        <time>2018-08-01T07:01:39Z</time>
      </trkpt>
      <trkpt lat="45.64699" lon="0.5227">
        <ele>191.30078125</ele>
        <time>2018-08-01T07:01:40Z</time>
      </trkpt>
      <trkpt lat="45.64703" lon="0.52269">
        <ele>191</ele>
        <time>2018-08-01T07:01:41Z</time>
      </trkpt>
      <trkpt lat="45.64708" lon="0.52269">
        <ele>190.65625</ele>
        <time>2018-08-01T07:01:42Z</time>
      </trkpt>
      <trkpt lat="45.64712" lon="0.52269">
        <ele>190.25390625</ele>
        <time>2018-08-01T07:01:43Z</time>
      </trkpt>
      <trkpt lat="45.64722" lon="0.5227">
        <ele>189.40234375</ele>
        <time>2018-08-01T07:01:45Z</time>
      </trkpt>
      <trkpt lat="45.64739" lon="0.52271">
        <ele>187.99609375</ele>
        <time>2018-08-01T07:01:48Z</time>
      </trkpt>
      <trkpt lat="45.64751" lon="0.52272">
        <ele>186.99609375</ele>
        <time>2018-08-01T07:01:50Z</time>
      </trkpt>
      <trkpt lat="45.64778" lon="0.52272">
        <ele>184.81640625</ele>
        <time>2018-08-01T07:01:54Z</time>
      </trkpt>
      <trkpt lat="45.64785" lon="0.52272">
        <ele>184.30859375</ele>
        <time>2018-08-01T07:01:55Z</time>
      </trkpt>
      <trkpt lat="45.64806" lon="0.52273">
        <ele>182.703125</ele>
        <time>2018-08-01T07:01:59Z</time>
      </trkpt>
      <trkpt lat="45.64809" lon="0.52276">
        <ele>182.4140625</ele>
        <time>2018-08-01T07:02:00Z</time>
      </trkpt>
      <trkpt lat="45.6481" lon="0.52281">
        <ele>182.17578125</ele>
        <time>2018-08-01T07:02:01Z</time>
      </trkpt>
      <trkpt lat="45.6481" lon="0.52286">
        <ele>182</ele>
        <time>2018-08-01T07:02:02Z</time>
      </trkpt>
      <trkpt lat="45.6481" lon="0.52291">
        <ele>181.83203125</ele>
        <time>2018-08-01T07:02:03Z</time>
      </trkpt>
      <trkpt lat="45.64809" lon="0.52297">
        <ele>181.64453125</ele>
        <time>2018-08-01T07:02:04Z</time>
      </trkpt>
      <trkpt lat="45.64809" lon="0.52303">
        <ele>181.4609375</ele>
        <time>2018-08-01T07:02:05Z</time>
      </trkpt>
      <trkpt lat="45.64807" lon="0.52366">
        <ele>180.58984375</ele>
        <time>2018-08-01T07:02:13Z</time>
      </trkpt>
      <trkpt lat="45.64803" lon="0.52465">
        <ele>180.47265625</ele>
        <time>2018-08-01T07:02:25Z</time>
      </trkpt>
      <trkpt lat="45.648" lon="0.52542">
        <ele>180.69921875</ele>
        <time>2018-08-01T07:02:35Z</time>
      </trkpt>
      <trkpt lat="45.64799" lon="0.52616">
        <ele>181</ele>
        <time>2018-08-01T07:02:45Z</time>
      </trkpt>
      <trkpt lat="45.64797" lon="0.52682">
        <ele>181.140625</ele>
        <time>2018-08-01T07:02:54Z</time>
      </trkpt>
      <trkpt lat="45.64795" lon="0.5275">
        <ele>181.95703125</ele>
        <time>2018-08-01T07:03:04Z</time>
      </trkpt>
      <trkpt lat="45.64793" lon="0.52782">
        <ele>182.65625</ele>
        <time>2018-08-01T07:03:09Z</time>
      </trkpt>
      <trkpt lat="45.64791" lon="0.52787">
        <ele>182.85546875</ele>
        <time>2018-08-01T07:03:10Z</time>
      </trkpt>
      <trkpt lat="45.64789" lon="0.52791">
        <ele>182.9921875</ele>
        <time>2018-08-01T07:03:19Z</time>
      </trkpt>
      <trkpt lat="45.64793" lon="0.52803">
        <ele>183.0234375</ele>
        <time>2018-08-01T07:03:20Z</time>
      </trkpt>
      <trkpt lat="45.64799" lon="0.5281">
        <ele>182.890625</ele>
        <time>2018-08-01T07:03:24Z</time>
      </trkpt>
      <trkpt lat="45.64816" lon="0.52815">
        <ele>182.16796875</ele>
        <time>2018-08-01T07:03:28Z</time>
      </trkpt>
      <trkpt lat="45.64842" lon="0.52812">
        <ele>181.18359375</ele>
        <time>2018-08-01T07:03:34Z</time>
      </trkpt>
      <trkpt lat="45.64893" lon="0.5281">
        <ele>180.28515625</ele>
        <time>2018-08-01T07:03:46Z</time>
      </trkpt>
      <trkpt lat="45.64938" lon="0.52802">
        <ele>180.015625</ele>
        <time>2018-08-01T07:03:56Z</time>
      </trkpt>
      <trkpt lat="45.64972" lon="0.52811">
        <ele>179.60546875</ele>
        <time>2018-08-01T07:04:04Z</time>
      </trkpt>
      <trkpt lat="45.65011" lon="0.52824">
        <ele>179.15234375</ele>
        <time>2018-08-01T07:04:13Z</time>
      </trkpt>
      <trkpt lat="45.65054" lon="0.52832">
        <ele>178.51953125</ele>
        <time>2018-08-01T07:04:22Z</time>
      </trkpt>
      <trkpt lat="45.65099" lon="0.5285">
        <ele>178.02734375</ele>
        <time>2018-08-01T07:04:32Z</time>
      </trkpt>
      <trkpt lat="45.65102" lon="0.52854">
        <ele>178.0390625</ele>
        <time>2018-08-01T07:04:33Z</time>
      </trkpt>
      <trkpt lat="45.65104" lon="0.52859">
        <ele>178.02734375</ele>
        <time>2018-08-01T07:04:34Z</time>
      </trkpt>
      <trkpt lat="45.65104" lon="0.52865">
        <ele>177.91796875</ele>
        <time>2018-08-01T07:04:35Z</time>
      </trkpt>
      <trkpt lat="45.65105" lon="0.52871">
        <ele>177.8203125</ele>
        <time>2018-08-01T07:04:36Z</time>
      </trkpt>
      <trkpt lat="45.65106" lon="0.52895">
        <ele>177.35546875</ele>
        <time>2018-08-01T07:04:42Z</time>
      </trkpt>
      <trkpt lat="45.65109" lon="0.52899">
        <ele>177.12890625</ele>
        <time>2018-08-01T07:04:44Z</time>
      </trkpt>
      <trkpt lat="45.65112" lon="0.529">
        <ele>176.9765625</ele>
        <time>2018-08-01T07:04:45Z</time>
      </trkpt>
      <trkpt lat="45.65115" lon="0.52901">
        <ele>176.80859375</ele>
        <time>2018-08-01T07:04:46Z</time>
      </trkpt>
      <trkpt lat="45.65118" lon="0.529">
        <ele>176.6328125</ele>
        <time>2018-08-01T07:04:47Z</time>
      </trkpt>
      <trkpt lat="45.65122" lon="0.529">
        <ele>176.4453125</ele>
        <time>2018-08-01T07:04:48Z</time>
      </trkpt>
      <trkpt lat="45.65133" lon="0.52899">
        <ele>175.8515625</ele>
        <time>2018-08-01T07:04:51Z</time>
      </trkpt>
      <trkpt lat="45.65138" lon="0.52897">
        <ele>175.6328125</ele>
        <time>2018-08-01T07:04:52Z</time>
      </trkpt>
      <trkpt lat="45.65142" lon="0.52895">
        <ele>175.43359375</ele>
        <time>2018-08-01T07:04:53Z</time>
      </trkpt>
      <trkpt lat="45.65147" lon="0.52892">
        <ele>175.25390625</ele>
        <time>2018-08-01T07:04:54Z</time>
      </trkpt>
      <trkpt lat="45.65151" lon="0.52888">
        <ele>175.08203125</ele>
        <time>2018-08-01T07:04:55Z</time>
      </trkpt>
      <trkpt lat="45.65195" lon="0.52843">
        <ele>173.828125</ele>
        <time>2018-08-01T07:05:06Z</time>
      </trkpt>
      <trkpt lat="45.65208" lon="0.5282">
        <ele>173.359375</ele>
        <time>2018-08-01T07:05:10Z</time>
      </trkpt>
      <trkpt lat="45.65213" lon="0.52815">
        <ele>173.21484375</ele>
        <time>2018-08-01T07:05:11Z</time>
      </trkpt>
      <trkpt lat="45.65217" lon="0.52812">
        <ele>173.04296875</ele>
        <time>2018-08-01T07:05:12Z</time>
      </trkpt>
      <trkpt lat="45.65222" lon="0.5281">
        <ele>172.9296875</ele>
        <time>2018-08-01T07:05:13Z</time>
      </trkpt>
      <trkpt lat="45.65226" lon="0.52811">
        <ele>172.83984375</ele>
        <time>2018-08-01T07:05:14Z</time>
      </trkpt>
      <trkpt lat="45.65229" lon="0.52815">
        <ele>172.76953125</ele>
        <time>2018-08-01T07:05:15Z</time>
      </trkpt>
      <trkpt lat="45.6523" lon="0.5282">
        <ele>172.72265625</ele>
        <time>2018-08-01T07:05:16Z</time>
      </trkpt>
      <trkpt lat="45.65231" lon="0.52826">
        <ele>172.68359375</ele>
        <time>2018-08-01T07:05:17Z</time>
      </trkpt>
      <trkpt lat="45.65232" lon="0.52832">
        <ele>172.6328125</ele>
        <time>2018-08-01T07:05:18Z</time>
      </trkpt>
      <trkpt lat="45.65233" lon="0.52838">
        <ele>172.5703125</ele>
        <time>2018-08-01T07:05:19Z</time>
      </trkpt>
      <trkpt lat="45.65244" lon="0.52883">
        <ele>170.90234375</ele>
        <time>2018-08-01T07:05:26Z</time>
      </trkpt>
      <trkpt lat="45.65247" lon="0.5289">
        <ele>170.46875</ele>
        <time>2018-08-01T07:05:27Z</time>
      </trkpt>
      <trkpt lat="45.65251" lon="0.52898">
        <ele>170.03125</ele>
        <time>2018-08-01T07:05:28Z</time>
      </trkpt>
      <trkpt lat="45.65256" lon="0.52905">
        <ele>169.60546875</ele>
        <time>2018-08-01T07:05:29Z</time>
      </trkpt>
      <trkpt lat="45.65262" lon="0.52913">
        <ele>169.23828125</ele>
        <time>2018-08-01T07:05:30Z</time>
      </trkpt>
      <trkpt lat="45.65269" lon="0.5292">
        <ele>169.390625</ele>
        <time>2018-08-01T07:05:31Z</time>
      </trkpt>
      <trkpt lat="45.65276" lon="0.52928">
        <ele>169.51171875</ele>
        <time>2018-08-01T07:05:32Z</time>
      </trkpt>
      <trkpt lat="45.65292" lon="0.52943">
        <ele>169.63671875</ele>
        <time>2018-08-01T07:05:34Z</time>
      </trkpt>
      <trkpt lat="45.65327" lon="0.52972">
        <ele>170.53125</ele>
        <time>2018-08-01T07:05:39Z</time>
      </trkpt>
      <trkpt lat="45.65336" lon="0.52982">
        <ele>171.8125</ele>
        <time>2018-08-01T07:05:41Z</time>
      </trkpt>
      <trkpt lat="45.6534" lon="0.52987">
        <ele>172.4609375</ele>
        <time>2018-08-01T07:05:42Z</time>
      </trkpt>
      <trkpt lat="45.65342" lon="0.52992">
        <ele>173.046875</ele>
        <time>2018-08-01T07:05:43Z</time>
      </trkpt>
      <trkpt lat="45.65343" lon="0.52996">
        <ele>173.52734375</ele>
        <time>2018-08-01T07:05:44Z</time>
      </trkpt>
      <trkpt lat="45.65344" lon="0.53003">
        <ele>174.390625</ele>
        <time>2018-08-01T07:05:46Z</time>
      </trkpt>
      <trkpt lat="45.65348" lon="0.5302">
        <ele>176.53125</ele>
        <time>2018-08-01T07:05:51Z</time>
      </trkpt>
      <trkpt lat="45.65347" lon="0.5304">
        <ele>179.0625</ele>
        <time>2018-08-01T07:05:58Z</time>
      </trkpt>
      <trkpt lat="45.65337" lon="0.53056">
        <ele>181.03125</ele>
        <time>2018-08-01T07:06:05Z</time>
      </trkpt>
      <trkpt lat="45.65325" lon="0.5308">
        <ele>184.078125</ele>
        <time>2018-08-01T07:06:14Z</time>
      </trkpt>
      <trkpt lat="45.65323" lon="0.53098">
        <ele>185.9140625</ele>
        <time>2018-08-01T07:06:21Z</time>
      </trkpt>
      <trkpt lat="45.65324" lon="0.53114">
        <ele>187.73828125</ele>
        <time>2018-08-01T07:06:28Z</time>
      </trkpt>
      <trkpt lat="45.65326" lon="0.53135">
        <ele>189.96875</ele>
        <time>2018-08-01T07:06:35Z</time>
      </trkpt>
      <trkpt lat="45.65328" lon="0.5314">
        <ele>190.359375</ele>
        <time>2018-08-01T07:06:37Z</time>
      </trkpt>
      <trkpt lat="45.65338" lon="0.53142">
        <ele>190.27734375</ele>
        <time>2018-08-01T07:06:42Z</time>
      </trkpt>
      <trkpt lat="45.65339" lon="0.53142">
        <ele>190.19921875</ele>
        <time>2018-08-01T07:06:43Z</time>
      </trkpt>
      <trkpt lat="45.65357" lon="0.53137">
        <ele>189.2578125</ele>
        <time>2018-08-01T07:06:51Z</time>
      </trkpt>
      <trkpt lat="45.65376" lon="0.53132">
        <ele>188.08203125</ele>
        <time>2018-08-01T07:06:58Z</time>
      </trkpt>
      <trkpt lat="45.65393" lon="0.53128">
        <ele>187.1015625</ele>
        <time>2018-08-01T07:07:03Z</time>
      </trkpt>
      <trkpt lat="45.65412" lon="0.53131">
        <ele>186.65234375</ele>
        <time>2018-08-01T07:07:09Z</time>
      </trkpt>
      <trkpt lat="45.6544" lon="0.53164">
        <ele>188.69921875</ele>
        <time>2018-08-01T07:07:19Z</time>
      </trkpt>
      <trkpt lat="45.65443" lon="0.53167">
        <ele>188.75</ele>
        <time>2018-08-01T07:07:20Z</time>
      </trkpt>
      <trkpt lat="45.65474" lon="0.53187">
        <ele>188.328125</ele>
        <time>2018-08-01T07:07:29Z</time>
      </trkpt>
      <trkpt lat="45.65489" lon="0.53203">
        <ele>188.61328125</ele>
        <time>2018-08-01T07:07:34Z</time>
      </trkpt>
      <trkpt lat="45.65489" lon="0.53216">
        <ele>189.7890625</ele>
        <time>2018-08-01T07:07:37Z</time>
      </trkpt>
      <trkpt lat="45.65484" lon="0.53236">
        <ele>191.63671875</ele>
        <time>2018-08-01T07:07:41Z</time>
      </trkpt>
      <trkpt lat="45.65496" lon="0.53251">
        <ele>192.32421875</ele>
        <time>2018-08-01T07:07:46Z</time>
      </trkpt>
      <trkpt lat="45.65501" lon="0.53257">
        <ele>192.5546875</ele>
        <time>2018-08-01T07:07:48Z</time>
      </trkpt>
      <trkpt lat="45.65527" lon="0.53296">
        <ele>194.1953125</ele>
        <time>2018-08-01T07:08:00Z</time>
      </trkpt>
      <trkpt lat="45.65542" lon="0.53332">
        <ele>194.7421875</ele>
        <time>2018-08-01T07:08:10Z</time>
      </trkpt>
      <trkpt lat="45.65556" lon="0.53376">
        <ele>194.64453125</ele>
        <time>2018-08-01T07:08:22Z</time>
      </trkpt>
      <trkpt lat="45.65566" lon="0.53407">
        <ele>194.08984375</ele>
        <time>2018-08-01T07:08:30Z</time>
      </trkpt>
      <trkpt lat="45.65564" lon="0.53422">
        <ele>193.28515625</ele>
        <time>2018-08-01T07:08:34Z</time>
      </trkpt>
      <trkpt lat="45.65549" lon="0.53441">
        <ele>192</ele>
        <time>2018-08-01T07:08:41Z</time>
      </trkpt>
      <trkpt lat="45.65525" lon="0.53469">
        <ele>191.34765625</ele>
        <time>2018-08-01T07:08:50Z</time>
      </trkpt>
      <trkpt lat="45.65494" lon="0.53506">
        <ele>190.43359375</ele>
        <time>2018-08-01T07:09:01Z</time>
      </trkpt>
      <trkpt lat="45.65458" lon="0.53542">
        <ele>191.8984375</ele>
        <time>2018-08-01T07:09:13Z</time>
      </trkpt>
      <trkpt lat="45.65433" lon="0.53564">
        <ele>193.5625</ele>
        <time>2018-08-01T07:09:21Z</time>
      </trkpt>
      <trkpt lat="45.65418" lon="0.53577">
        <ele>194.4765625</ele>
        <time>2018-08-01T07:09:26Z</time>
      </trkpt>
      <trkpt lat="45.65394" lon="0.53596">
        <ele>196.97265625</ele>
        <time>2018-08-01T07:09:34Z</time>
      </trkpt>
      <trkpt lat="45.65369" lon="0.53616">
        <ele>199.1875</ele>
        <time>2018-08-01T07:09:43Z</time>
      </trkpt>
      <trkpt lat="45.6535" lon="0.53633">
        <ele>200.55078125</ele>
        <time>2018-08-01T07:09:51Z</time>
      </trkpt>
      <trkpt lat="45.65331" lon="0.53655">
        <ele>201.51953125</ele>
        <time>2018-08-01T07:10:00Z</time>
      </trkpt>
      <trkpt lat="45.65314" lon="0.53669">
        <ele>201.9296875</ele>
        <time>2018-08-01T07:10:08Z</time>
      </trkpt>
      <trkpt lat="45.65291" lon="0.53686">
        <ele>202.44921875</ele>
        <time>2018-08-01T07:10:18Z</time>
      </trkpt>
      <trkpt lat="45.65266" lon="0.53692">
        <ele>203.08203125</ele>
        <time>2018-08-01T07:10:27Z</time>
      </trkpt>
      <trkpt lat="45.65235" lon="0.53685">
        <ele>203.78515625</ele>
        <time>2018-08-01T07:10:38Z</time>
      </trkpt>
      <trkpt lat="45.6521" lon="0.53679">
        <ele>204.07421875</ele>
        <time>2018-08-01T07:10:46Z</time>
      </trkpt>
      <trkpt lat="45.65198" lon="0.53674">
        <ele>204.0234375</ele>
        <time>2018-08-01T07:10:50Z</time>
      </trkpt>
      <trkpt lat="45.65197" lon="0.53675">
        <ele>203.9765625</ele>
        <time>2018-08-01T07:10:51Z</time>
      </trkpt>
      <trkpt lat="45.65196" lon="0.53678">
        <ele>203.90234375</ele>
        <time>2018-08-01T07:10:52Z</time>
      </trkpt>
      <trkpt lat="45.65196" lon="0.5368">
        <ele>203.83203125</ele>
        <time>2018-08-01T07:10:53Z</time>
      </trkpt>
      <trkpt lat="45.65196" lon="0.53682">
        <ele>203.7734375</ele>
        <time>2018-08-01T07:10:58Z</time>
      </trkpt>
      <trkpt lat="45.65196" lon="0.53682">
        <ele>203.78125</ele>
        <time>2018-08-01T07:11:05Z</time>
      </trkpt>
      <trkpt lat="45.65195" lon="0.53671">
        <ele>204.04296875</ele>
        <time>2018-08-01T07:11:10Z</time>
      </trkpt>
      <trkpt lat="45.65178" lon="0.53653">
        <ele>204.40625</ele>
        <time>2018-08-01T07:11:17Z</time>
      </trkpt>
      <trkpt lat="45.65158" lon="0.53649">
        <ele>204.55859375</ele>
        <time>2018-08-01T07:11:23Z</time>
      </trkpt>
      <trkpt lat="45.65156" lon="0.53653">
        <ele>204.4609375</ele>
        <time>2018-08-01T07:11:24Z</time>
      </trkpt>
      <trkpt lat="45.65155" lon="0.53657">
        <ele>204.3046875</ele>
        <time>2018-08-01T07:11:25Z</time>
      </trkpt>
      <trkpt lat="45.65155" lon="0.53662">
        <ele>204.14453125</ele>
        <time>2018-08-01T07:11:26Z</time>
      </trkpt>
      <trkpt lat="45.65154" lon="0.53667">
        <ele>203.9921875</ele>
        <time>2018-08-01T07:11:27Z</time>
      </trkpt>
      <trkpt lat="45.65152" lon="0.53689">
        <ele>203.2265625</ele>
        <time>2018-08-01T07:11:33Z</time>
      </trkpt>
      <trkpt lat="45.6515" lon="0.53713">
        <ele>201.84375</ele>
        <time>2018-08-01T07:11:38Z</time>
      </trkpt>
      <trkpt lat="45.65143" lon="0.53736">
        <ele>200.56640625</ele>
        <time>2018-08-01T07:11:43Z</time>
      </trkpt>
      <trkpt lat="45.65142" lon="0.53736">
        <ele>200.5390625</ele>
        <time>2018-08-01T07:11:50Z</time>
      </trkpt>
      <trkpt lat="45.65139" lon="0.53739">
        <ele>200.35546875</ele>
        <time>2018-08-01T07:12:04Z</time>
      </trkpt>
      <trkpt lat="45.65131" lon="0.53765">
        <ele>197.66015625</ele>
        <time>2018-08-01T07:12:10Z</time>
      </trkpt>
      <trkpt lat="45.65129" lon="0.5377">
        <ele>197.09375</ele>
        <time>2018-08-01T07:12:11Z</time>
      </trkpt>
      <trkpt lat="45.65128" lon="0.53778">
        <ele>196.02734375</ele>
        <time>2018-08-01T07:12:13Z</time>
      </trkpt>
      <trkpt lat="45.65129" lon="0.53783">
        <ele>195.4296875</ele>
        <time>2018-08-01T07:12:14Z</time>
      </trkpt>
      <trkpt lat="45.65132" lon="0.5379">
        <ele>194.734375</ele>
        <time>2018-08-01T07:12:15Z</time>
      </trkpt>
      <trkpt lat="45.65135" lon="0.53796">
        <ele>193.98828125</ele>
        <time>2018-08-01T07:12:16Z</time>
      </trkpt>
      <trkpt lat="45.6514" lon="0.53804">
        <ele>193.25</ele>
        <time>2018-08-01T07:12:17Z</time>
      </trkpt>
      <trkpt lat="45.65145" lon="0.5381">
        <ele>192.59375</ele>
        <time>2018-08-01T07:12:18Z</time>
      </trkpt>
      <trkpt lat="45.6515" lon="0.53816">
        <ele>192.06640625</ele>
        <time>2018-08-01T07:12:19Z</time>
      </trkpt>
      <trkpt lat="45.65155" lon="0.53821">
        <ele>191.59375</ele>
        <time>2018-08-01T07:12:20Z</time>
      </trkpt>
      <trkpt lat="45.65161" lon="0.53826">
        <ele>191.1796875</ele>
        <time>2018-08-01T07:12:21Z</time>
      </trkpt>
      <trkpt lat="45.65172" lon="0.53837">
        <ele>190.515625</ele>
        <time>2018-08-01T07:12:23Z</time>
      </trkpt>
      <trkpt lat="45.65177" lon="0.53844">
        <ele>189.99609375</ele>
        <time>2018-08-01T07:12:24Z</time>
      </trkpt>
      <trkpt lat="45.65181" lon="0.53853">
        <ele>189.29296875</ele>
        <time>2018-08-01T07:12:25Z</time>
      </trkpt>
      <trkpt lat="45.65189" lon="0.53869">
        <ele>187.76953125</ele>
        <time>2018-08-01T07:12:27Z</time>
      </trkpt>
      <trkpt lat="45.65194" lon="0.53875">
        <ele>187.265625</ele>
        <time>2018-08-01T07:12:28Z</time>
      </trkpt>
      <trkpt lat="45.65199" lon="0.53882">
        <ele>186.67578125</ele>
        <time>2018-08-01T07:12:29Z</time>
      </trkpt>
      <trkpt lat="45.65203" lon="0.5389">
        <ele>185.93359375</ele>
        <time>2018-08-01T07:12:30Z</time>
      </trkpt>
      <trkpt lat="45.65205" lon="0.53898">
        <ele>184.98828125</ele>
        <time>2018-08-01T07:12:31Z</time>
      </trkpt>
      <trkpt lat="45.65207" lon="0.53907">
        <ele>183.9921875</ele>
        <time>2018-08-01T07:12:32Z</time>
      </trkpt>
      <trkpt lat="45.65209" lon="0.53916">
        <ele>182.90234375</ele>
        <time>2018-08-01T07:12:33Z</time>
      </trkpt>
      <trkpt lat="45.6521" lon="0.53926">
        <ele>181.62109375</ele>
        <time>2018-08-01T07:12:34Z</time>
      </trkpt>
      <trkpt lat="45.65213" lon="0.53946">
        <ele>178.98046875</ele>
        <time>2018-08-01T07:12:36Z</time>
      </trkpt>
      <trkpt lat="45.65218" lon="0.53967">
        <ele>176.0859375</ele>
        <time>2018-08-01T07:12:38Z</time>
      </trkpt>
      <trkpt lat="45.65223" lon="0.53988">
        <ele>174.47265625</ele>
        <time>2018-08-01T07:12:40Z</time>
      </trkpt>
      <trkpt lat="45.65235" lon="0.54028">
        <ele>171.390625</ele>
        <time>2018-08-01T07:12:44Z</time>
      </trkpt>
      <trkpt lat="45.65236" lon="0.54038">
        <ele>171.28125</ele>
        <time>2018-08-01T07:12:45Z</time>
      </trkpt>
      <trkpt lat="45.65236" lon="0.54047">
        <ele>171.234375</ele>
        <time>2018-08-01T07:12:46Z</time>
      </trkpt>
      <trkpt lat="45.65235" lon="0.54056">
        <ele>171.23828125</ele>
        <time>2018-08-01T07:12:47Z</time>
      </trkpt>
      <trkpt lat="45.65234" lon="0.54063">
        <ele>171.21875</ele>
        <time>2018-08-01T07:12:48Z</time>
      </trkpt>
      <trkpt lat="45.65235" lon="0.5407">
        <ele>171.125</ele>
        <time>2018-08-01T07:12:49Z</time>
      </trkpt>
      <trkpt lat="45.65238" lon="0.54076">
        <ele>170.9609375</ele>
        <time>2018-08-01T07:12:50Z</time>
      </trkpt>
      <trkpt lat="45.65241" lon="0.54081">
        <ele>170.94140625</ele>
        <time>2018-08-01T07:12:51Z</time>
      </trkpt>
      <trkpt lat="45.65243" lon="0.54087">
        <ele>171.07421875</ele>
        <time>2018-08-01T07:12:52Z</time>
      </trkpt>
      <trkpt lat="45.65244" lon="0.54092">
        <ele>171.2578125</ele>
        <time>2018-08-01T07:12:53Z</time>
      </trkpt>
      <trkpt lat="45.65244" lon="0.5411">
        <ele>172.01953125</ele>
        <time>2018-08-01T07:12:57Z</time>
      </trkpt>
      <trkpt lat="45.65245" lon="0.54118">
        <ele>172.328125</ele>
        <time>2018-08-01T07:12:59Z</time>
      </trkpt>
      <trkpt lat="45.65245" lon="0.54121">
        <ele>172.484375</ele>
        <time>2018-08-01T07:13:00Z</time>
      </trkpt>
      <trkpt lat="45.65244" lon="0.54124">
        <ele>172.6484375</ele>
        <time>2018-08-01T07:13:01Z</time>
      </trkpt>
      <trkpt lat="45.65243" lon="0.54132">
        <ele>173.0625</ele>
        <time>2018-08-01T07:13:04Z</time>
      </trkpt>
      <trkpt lat="45.65241" lon="0.54137">
        <ele>173.1484375</ele>
        <time>2018-08-01T07:13:06Z</time>
      </trkpt>
      <trkpt lat="45.65239" lon="0.54139">
        <ele>173.19140625</ele>
        <time>2018-08-01T07:13:07Z</time>
      </trkpt>
      <trkpt lat="45.65238" lon="0.54141">
        <ele>173.21875</ele>
        <time>2018-08-01T07:13:08Z</time>
      </trkpt>
      <trkpt lat="45.65235" lon="0.54147">
        <ele>173.22265625</ele>
        <time>2018-08-01T07:13:10Z</time>
      </trkpt>
      <trkpt lat="45.65222" lon="0.54181">
        <ele>173.05859375</ele>
        <time>2018-08-01T07:13:19Z</time>
      </trkpt>
      <trkpt lat="45.65214" lon="0.54197">
        <ele>172.81640625</ele>
        <time>2018-08-01T07:13:22Z</time>
      </trkpt>
      <trkpt lat="45.65211" lon="0.54202">
        <ele>172.68359375</ele>
        <time>2018-08-01T07:13:23Z</time>
      </trkpt>
      <trkpt lat="45.652" lon="0.5422">
        <ele>172.1640625</ele>
        <time>2018-08-01T07:13:26Z</time>
      </trkpt>
      <trkpt lat="45.65185" lon="0.54238">
        <ele>171.6484375</ele>
        <time>2018-08-01T07:13:29Z</time>
      </trkpt>
      <trkpt lat="45.65174" lon="0.54248">
        <ele>171.52734375</ele>
        <time>2018-08-01T07:13:31Z</time>
      </trkpt>
      <trkpt lat="45.65162" lon="0.54275">
        <ele>171.55078125</ele>
        <time>2018-08-01T07:13:36Z</time>
      </trkpt>
      <trkpt lat="45.65165" lon="0.54284">
        <ele>171.1875</ele>
        <time>2018-08-01T07:13:38Z</time>
      </trkpt>
      <trkpt lat="45.65183" lon="0.5431">
        <ele>170.3203125</ele>
        <time>2018-08-01T07:13:44Z</time>
      </trkpt>
      <trkpt lat="45.65215" lon="0.54331">
        <ele>168.84765625</ele>
        <time>2018-08-01T07:13:52Z</time>
      </trkpt>
      <trkpt lat="45.65245" lon="0.54349">
        <ele>166.6640625</ele>
        <time>2018-08-01T07:14:00Z</time>
      </trkpt>
      <trkpt lat="45.65251" lon="0.54372">
        <ele>166.9375</ele>
        <time>2018-08-01T07:14:05Z</time>
      </trkpt>
      <trkpt lat="45.65254" lon="0.54396">
        <ele>168.0078125</ele>
        <time>2018-08-01T07:14:11Z</time>
      </trkpt>
      <trkpt lat="45.65259" lon="0.54444">
        <ele>170.1171875</ele>
        <time>2018-08-01T07:14:24Z</time>
      </trkpt>
      <trkpt lat="45.65263" lon="0.54481">
        <ele>172.11328125</ele>
        <time>2018-08-01T07:14:34Z</time>
      </trkpt>
      <trkpt lat="45.65279" lon="0.54501">
        <ele>172.6796875</ele>
        <time>2018-08-01T07:14:42Z</time>
      </trkpt>
      <trkpt lat="45.65283" lon="0.54505">
        <ele>172.7265625</ele>
        <time>2018-08-01T07:14:44Z</time>
      </trkpt>
      <trkpt lat="45.65282" lon="0.54515">
        <ele>173.71875</ele>
        <time>2018-08-01T07:14:48Z</time>
      </trkpt>
      <trkpt lat="45.65263" lon="0.54531">
        <ele>176.20703125</ele>
        <time>2018-08-01T07:14:57Z</time>
      </trkpt>
      <trkpt lat="45.65248" lon="0.54548">
        <ele>178.25</ele>
        <time>2018-08-01T07:15:05Z</time>
      </trkpt>
      <trkpt lat="45.65238" lon="0.54558">
        <ele>179.49609375</ele>
        <time>2018-08-01T07:15:12Z</time>
      </trkpt>
      <trkpt lat="45.65226" lon="0.54562">
        <ele>180.421875</ele>
        <time>2018-08-01T07:15:19Z</time>
      </trkpt>
      <trkpt lat="45.65216" lon="0.54556">
        <ele>180.69140625</ele>
        <time>2018-08-01T07:15:26Z</time>
      </trkpt>
      <trkpt lat="45.65204" lon="0.54559">
        <ele>182.28515625</ele>
        <time>2018-08-01T07:15:33Z</time>
      </trkpt>
      <trkpt lat="45.65193" lon="0.54567">
        <ele>184.0546875</ele>
        <time>2018-08-01T07:15:41Z</time>
      </trkpt>
      <trkpt lat="45.65182" lon="0.54576">
        <ele>185.88671875</ele>
        <time>2018-08-01T07:15:50Z</time>
      </trkpt>
      <trkpt lat="45.65171" lon="0.54585">
        <ele>187.55859375</ele>
        <time>2018-08-01T07:15:59Z</time>
      </trkpt>
      <trkpt lat="45.6516" lon="0.54593">
        <ele>189.1953125</ele>
        <time>2018-08-01T07:16:08Z</time>
      </trkpt>
      <trkpt lat="45.65149" lon="0.54598">
        <ele>190.83203125</ele>
        <time>2018-08-01T07:16:17Z</time>
      </trkpt>
      <trkpt lat="45.65143" lon="0.54592">
        <ele>191.234375</ele>
        <time>2018-08-01T07:16:22Z</time>
      </trkpt>
      <trkpt lat="45.65131" lon="0.54578">
        <ele>191.99609375</ele>
        <time>2018-08-01T07:16:30Z</time>
      </trkpt>
      <trkpt lat="45.65114" lon="0.54557">
        <ele>193.0546875</ele>
        <time>2018-08-01T07:16:40Z</time>
      </trkpt>
      <trkpt lat="45.65095" lon="0.54533">
        <ele>193.8125</ele>
        <time>2018-08-01T07:16:50Z</time>
      </trkpt>
      <trkpt lat="45.65073" lon="0.54502">
        <ele>194.09765625</ele>
        <time>2018-08-01T07:17:02Z</time>
      </trkpt>
      <trkpt lat="45.65041" lon="0.54472">
        <ele>194.08984375</ele>
        <time>2018-08-01T07:17:14Z</time>
      </trkpt>
      <trkpt lat="45.65018" lon="0.54469">
        <ele>195.0390625</ele>
        <time>2018-08-01T07:17:21Z</time>
      </trkpt>
      <trkpt lat="45.64987" lon="0.54475">
        <ele>197.03515625</ele>
        <time>2018-08-01T07:17:30Z</time>
      </trkpt>
      <trkpt lat="45.64968" lon="0.54489">
        <ele>199.03515625</ele>
        <time>2018-08-01T07:17:37Z</time>
      </trkpt>
      <trkpt lat="45.64949" lon="0.545">
        <ele>200.6875</ele>
        <time>2018-08-01T07:17:45Z</time>
      </trkpt>
      <trkpt lat="45.64935" lon="0.54514">
        <ele>202.3828125</ele>
        <time>2018-08-01T07:17:52Z</time>
      </trkpt>
      <trkpt lat="45.64924" lon="0.54534">
        <ele>204.2734375</ele>
        <time>2018-08-01T07:18:01Z</time>
      </trkpt>
      <trkpt lat="45.64916" lon="0.54551">
        <ele>205.98828125</ele>
        <time>2018-08-01T07:18:09Z</time>
      </trkpt>
      <trkpt lat="45.64904" lon="0.54567">
        <ele>207.9296875</ele>
        <time>2018-08-01T07:18:18Z</time>
      </trkpt>
      <trkpt lat="45.6489" lon="0.54575">
        <ele>209.49609375</ele>
        <time>2018-08-01T07:18:27Z</time>
      </trkpt>
      <trkpt lat="45.64883" lon="0.5458">
        <ele>210.22265625</ele>
        <time>2018-08-01T07:18:31Z</time>
      </trkpt>
      <trkpt lat="45.64883" lon="0.54582">
        <ele>210.40625</ele>
        <time>2018-08-01T07:18:32Z</time>
      </trkpt>
      <trkpt lat="45.64884" lon="0.54584">
        <ele>210.57421875</ele>
        <time>2018-08-01T07:18:33Z</time>
      </trkpt>
      <trkpt lat="45.64885" lon="0.54586">
        <ele>210.734375</ele>
        <time>2018-08-01T07:18:34Z</time>
      </trkpt>
      <trkpt lat="45.64887" lon="0.54588">
        <ele>210.80859375</ele>
        <time>2018-08-01T07:18:35Z</time>
      </trkpt>
      <trkpt lat="45.64904" lon="0.54606">
        <ele>211.7109375</ele>
        <time>2018-08-01T07:18:46Z</time>
      </trkpt>
      <trkpt lat="45.64917" lon="0.54626">
        <ele>213.09765625</ele>
        <time>2018-08-01T07:18:54Z</time>
      </trkpt>
      <trkpt lat="45.6493" lon="0.54648">
        <ele>214.2578125</ele>
        <time>2018-08-01T07:19:04Z</time>
      </trkpt>
      <trkpt lat="45.64939" lon="0.54663">
        <ele>214.734375</ele>
        <time>2018-08-01T07:19:11Z</time>
      </trkpt>
      <trkpt lat="45.64949" lon="0.54679">
        <ele>214.8203125</ele>
        <time>2018-08-01T07:19:18Z</time>
      </trkpt>
      <trkpt lat="45.64953" lon="0.54687">
        <ele>214.9765625</ele>
        <time>2018-08-01T07:19:22Z</time>
      </trkpt>
      <trkpt lat="45.64955" lon="0.54689">
        <ele>215.0390625</ele>
        <time>2018-08-01T07:19:23Z</time>
      </trkpt>
      <trkpt lat="45.64956" lon="0.54693">
        <ele>215.2109375</ele>
        <time>2018-08-01T07:19:24Z</time>
      </trkpt>
      <trkpt lat="45.64965" lon="0.54712">
        <ele>215.90234375</ele>
        <time>2018-08-01T07:19:31Z</time>
      </trkpt>
      <trkpt lat="45.64977" lon="0.54736">
        <ele>216.75390625</ele>
        <time>2018-08-01T07:19:38Z</time>
      </trkpt>
      <trkpt lat="45.64987" lon="0.54756">
        <ele>217.51953125</ele>
        <time>2018-08-01T07:19:44Z</time>
      </trkpt>
      <trkpt lat="45.65003" lon="0.54789">
        <ele>218.5</ele>
        <time>2018-08-01T07:19:54Z</time>
      </trkpt>
      <trkpt lat="45.65014" lon="0.54809">
        <ele>218.69921875</ele>
        <time>2018-08-01T07:20:00Z</time>
      </trkpt>
      <trkpt lat="45.65024" lon="0.54831">
        <ele>219.2265625</ele>
        <time>2018-08-01T07:20:06Z</time>
      </trkpt>
      <trkpt lat="45.65036" lon="0.5485">
        <ele>219.76171875</ele>
        <time>2018-08-01T07:20:12Z</time>
      </trkpt>
      <trkpt lat="45.6505" lon="0.54869">
        <ele>219.8203125</ele>
        <time>2018-08-01T07:20:18Z</time>
      </trkpt>
      <trkpt lat="45.65069" lon="0.54891">
        <ele>219.21484375</ele>
        <time>2018-08-01T07:20:25Z</time>
      </trkpt>
      <trkpt lat="45.6508" lon="0.54907">
        <ele>219.2109375</ele>
        <time>2018-08-01T07:20:30Z</time>
      </trkpt>
      <trkpt lat="45.65086" lon="0.54925">
        <ele>219.48046875</ele>
        <time>2018-08-01T07:20:35Z</time>
      </trkpt>
      <trkpt lat="45.65093" lon="0.54963">
        <ele>220.62109375</ele>
        <time>2018-08-01T07:20:41Z</time>
      </trkpt>
      <trkpt lat="45.65096" lon="0.55">
        <ele>220.4765625</ele>
        <time>2018-08-01T07:20:50Z</time>
      </trkpt>
      <trkpt lat="45.65096" lon="0.55028">
        <ele>220.04296875</ele>
        <time>2018-08-01T07:20:56Z</time>
      </trkpt>
      <trkpt lat="45.65089" lon="0.55077">
        <ele>217.6484375</ele>
        <time>2018-08-01T07:21:01Z</time>
      </trkpt>
      <trkpt lat="45.65076" lon="0.55126">
        <ele>214.9140625</ele>
        <time>2018-08-01T07:21:07Z</time>
      </trkpt>
      <trkpt lat="45.65069" lon="0.55156">
        <ele>213.640625</ele>
        <time>2018-08-01T07:21:08Z</time>
      </trkpt>
      <trkpt lat="45.65063" lon="0.55185">
        <ele>212.26171875</ele>
      </trkpt>
      <trkpt lat="45.65077" lon="0.55214">
        <ele>209.57421875</ele>
      </trkpt>
      <trkpt lat="45.6509" lon="0.55228">
        <ele>207.953125</ele>
      </trkpt>
      <trkpt lat="45.65101" lon="0.5524">
        <ele>206.66015625</ele>
      </trkpt>
      <trkpt lat="45.65104" lon="0.55254">
        <ele>205.8671875</ele>
      </trkpt>
      <trkpt lat="45.651" lon="0.55281">
        <ele>204.94140625</ele>
      </trkpt>
      <trkpt lat="45.65094" lon="0.5531">
        <ele>203.53125</ele>
      </trkpt>
      <trkpt lat="45.65091" lon="0.55341">
        <ele>201.30859375</ele>
      </trkpt>
      <trkpt lat="45.65086" lon="0.55369">
        <ele>199.328125</ele>
      </trkpt>
      <trkpt lat="45.65093" lon="0.55393">
        <ele>197.34375</ele>
      </trkpt>
      <trkpt lat="45.65094" lon="0.55398">
        <ele>196.9765625</ele>
      </trkpt>
      <trkpt lat="45.651" lon="0.55408">
        <ele>196.2265625</ele>
      </trkpt>
      <trkpt lat="45.65112" lon="0.5541">
        <ele>195.55859375</ele>
      </trkpt>
      <trkpt lat="45.65143" lon="0.55422">
        <ele>191.4375</ele>
      </trkpt>
      <trkpt lat="45.65156" lon="0.55423">
        <ele>190.08203125</ele>
      </trkpt>
      <trkpt lat="45.65175" lon="0.55428">
        <ele>187.375</ele>
      </trkpt>
      <trkpt lat="45.65213" lon="0.55501">
        <ele>182.07421875</ele>
      </trkpt>
      <trkpt lat="45.65239" lon="0.55546">
        <ele>179.88671875</ele>
      </trkpt>
      <trkpt lat="45.65245" lon="0.5556">
        <ele>179.6640625</ele>
        <time>2018-08-01T07:22:47Z</time>
      </trkpt>
      <trkpt lat="45.65251" lon="0.55567">
        <ele>179.34765625</ele>
      </trkpt>
      <trkpt lat="45.65267" lon="0.5557">
        <ele>178.1953125</ele>
      </trkpt>
      <trkpt lat="45.65288" lon="0.55588">
        <ele>175.84375</ele>
        <time>2018-08-01T07:22:52Z</time>
      </trkpt>
      <trkpt lat="45.65313" lon="0.55615">
        <ele>172.96875</ele>
        <time>2018-08-01T07:22:55Z</time>
      </trkpt>
      <trkpt lat="45.65348" lon="0.55637">
        <ele>168.68359375</ele>
      </trkpt>
      <trkpt lat="45.65353" lon="0.55639">
        <ele>167.6484375</ele>
      </trkpt>
      <trkpt lat="45.65361" lon="0.5563">
        <ele>166.671875</ele>
        <time>2018-08-01T07:23:04Z</time>
      </trkpt>
      <trkpt lat="45.65361" lon="0.55621">
        <ele>166.14453125</ele>
        <time>2018-08-01T07:23:08Z</time>
      </trkpt>
      <trkpt lat="45.65359" lon="0.55603">
        <ele>165.43359375</ele>
        <time>2018-08-01T07:23:09Z</time>
      </trkpt>
      <trkpt lat="45.65348" lon="0.55562">
        <ele>165.1640625</ele>
        <time>2018-08-01T07:23:22Z</time>
      </trkpt>
      <trkpt lat="45.65337" lon="0.55526">
        <ele>163.66796875</ele>
        <time>2018-08-01T07:23:25Z</time>
      </trkpt>
      <trkpt lat="45.65329" lon="0.55493">
        <ele>161.98828125</ele>
        <time>2018-08-01T07:23:27Z</time>
      </trkpt>
      <trkpt lat="45.65332" lon="0.55467">
        <ele>158.58203125</ele>
        <time>2018-08-01T07:23:28Z</time>
      </trkpt>
      <trkpt lat="45.65342" lon="0.55472">
        <ele>157.0390625</ele>
        <time>2018-08-01T07:23:32Z</time>
      </trkpt>
      <trkpt lat="45.65383" lon="0.55506">
        <ele>151.30078125</ele>
        <time>2018-08-01T07:23:34Z</time>
      </trkpt>
      <trkpt lat="45.65396" lon="0.55517">
        <ele>150.26171875</ele>
        <time>2018-08-01T07:23:39Z</time>
      </trkpt>
      <trkpt lat="45.65417" lon="0.55541">
        <ele>149.21875</ele>
        <time>2018-08-01T07:23:41Z</time>
      </trkpt>
      <trkpt lat="45.65424" lon="0.55543">
        <ele>148.27734375</ele>
        <time>2018-08-01T07:23:48Z</time>
      </trkpt>
      <trkpt lat="45.65426" lon="0.55545">
        <ele>148.19140625</ele>
        <time>2018-08-01T07:23:49Z</time>
      </trkpt>
      <trkpt lat="45.65432" lon="0.5555">
        <ele>147.42578125</ele>
        <time>2018-08-01T07:23:50Z</time>
      </trkpt>
      <trkpt lat="45.65439" lon="0.55553">
        <ele>146.40234375</ele>
        <time>2018-08-01T07:23:51Z</time>
      </trkpt>
      <trkpt lat="45.65446" lon="0.55556">
        <ele>145.74609375</ele>
        <time>2018-08-01T07:23:52Z</time>
      </trkpt>
      <trkpt lat="45.65454" lon="0.55558">
        <ele>145.1640625</ele>
        <time>2018-08-01T07:23:53Z</time>
      </trkpt>
      <trkpt lat="45.65462" lon="0.5556">
        <ele>144.54296875</ele>
        <time>2018-08-01T07:23:54Z</time>
      </trkpt>
      <trkpt lat="45.65495" lon="0.55567">
        <ele>141.87109375</ele>
        <time>2018-08-01T07:23:58Z</time>
      </trkpt>
      <trkpt lat="45.65529" lon="0.55569">
        <ele>140.05859375</ele>
        <time>2018-08-01T07:24:02Z</time>
      </trkpt>
      <trkpt lat="45.65538" lon="0.55568">
        <ele>139.58203125</ele>
        <time>2018-08-01T07:24:03Z</time>
      </trkpt>
      <trkpt lat="45.6557" lon="0.55563">
        <ele>137.65234375</ele>
        <time>2018-08-01T07:24:07Z</time>
      </trkpt>
      <trkpt lat="45.65586" lon="0.55552">
        <ele>136.3828125</ele>
        <time>2018-08-01T07:24:09Z</time>
      </trkpt>
      <trkpt lat="45.65592" lon="0.55546">
        <ele>135.80859375</ele>
        <time>2018-08-01T07:24:13Z</time>
      </trkpt>
      <trkpt lat="45.65601" lon="0.55532">
        <ele>134.81640625</ele>
        <time>2018-08-01T07:24:14Z</time>
      </trkpt>
      <trkpt lat="45.65609" lon="0.55514">
        <ele>133.890625</ele>
        <time>2018-08-01T07:24:15Z</time>
      </trkpt>
      <trkpt lat="45.65621" lon="0.55487">
        <ele>133.31640625</ele>
        <time>2018-08-01T07:24:18Z</time>
      </trkpt>
      <trkpt lat="45.6563" lon="0.5547">
        <ele>132.72265625</ele>
        <time>2018-08-01T07:24:19Z</time>
      </trkpt>
      <trkpt lat="45.6563" lon="0.5547">
        <ele>132.7109375</ele>
      </trkpt>
      <trkpt lat="45.6563" lon="0.55458">
        <ele>132.3828125</ele>
      </trkpt>
      <trkpt lat="45.6563" lon="0.55451">
        <ele>132.203125</ele>
      </trkpt>
      <trkpt lat="45.65626" lon="0.5545">
        <ele>132.28515625</ele>
      </trkpt>
      <trkpt lat="45.65619" lon="0.55447">
        <ele>132.3515625</ele>
        <time>2018-08-01T07:24:20Z</time>
      </trkpt>
    </trkseg>
  </trk>
</gpx>